<?xml version='1.0' encoding='UTF-8'?><gpx version="1.1" creator="JPX - https://github.com/jenetics/jpx" xmlns="http://www.topografix.com/GPX/1/1"><trk><trkseg><trkpt lat="45.0523501" lon="7.5864162"><ele>281.0</ele><time>2026-04-04T14:01:08.624Z</time></trkpt><trkpt lat="45.052355" lon="7.5862695"><ele>281.0</ele><time>2026-04-04T14:01:09.624Z</time></trkpt><trkpt lat="45.052362" lon="7.5861066"><ele>281.0</ele><time>2026-04-04T14:01:10.625Z</time></trkpt><trkpt lat="45.0523677" lon="7.5859315"><ele>281.0</ele><time>2026-04-04T14:01:11.624Z</time></trkpt><trkpt lat="45.0523715" lon="7.5857464"><ele>281.0</ele><time>2026-04-04T14:01:12.624Z</time></trkpt><trkpt lat="45.0523767" lon="7.5855491"><ele>281.0</ele><time>2026-04-04T14:01:13.625Z</time></trkpt><trkpt lat="45.0523815" lon="7.585336"><ele>281.0</ele><time>2026-04-04T14:01:14.623Z</time></trkpt><trkpt lat="45.0523911" lon="7.5851029"><ele>281.0</ele><time>2026-04-04T14:01:15.625Z</time></trkpt><trkpt lat="45.0524024" lon="7.5848896"><ele>281.0</ele><time>2026-04-04T14:01:16.624Z</time></trkpt><trkpt lat="45.052413" lon="7.5846584"><ele>281.0</ele><time>2026-04-04T14:01:17.625Z</time></trkpt><trkpt lat="45.0524228" lon="7.5844047"><ele>281.0</ele><time>2026-04-04T14:01:18.625Z</time></trkpt><trkpt lat="45.0524279" lon="7.5841731"><ele>281.0</ele><time>2026-04-04T14:01:19.623Z</time></trkpt><trkpt lat="45.0524345" lon="7.583906"><ele>281.0</ele><time>2026-04-04T14:01:20.623Z</time></trkpt><trkpt lat="45.0524433" lon="7.5836661"><ele>281.0</ele><time>2026-04-04T14:01:21.624Z</time></trkpt><trkpt lat="45.0524535" lon="7.5834068"><ele>281.0</ele><time>2026-04-04T14:01:22.624Z</time></trkpt><trkpt lat="45.0524658" lon="7.5831326"><ele>281.0</ele><time>2026-04-04T14:01:23.624Z</time></trkpt><trkpt lat="45.0524759" lon="7.582885"><ele>281.0</ele><time>2026-04-04T14:01:24.624Z</time></trkpt><trkpt lat="45.0524891" lon="7.5826036"><ele>281.0</ele><time>2026-04-04T14:01:25.624Z</time></trkpt><trkpt lat="45.0525019" lon="7.5823338"><ele>281.0</ele><time>2026-04-04T14:01:26.624Z</time></trkpt><trkpt lat="45.0525137" lon="7.5820819"><ele>281.33333333333337</ele><time>2026-04-04T14:01:27.623Z</time></trkpt><trkpt lat="45.0525244" lon="7.5818003"><ele>281.6666666666667</ele><time>2026-04-04T14:01:28.625Z</time></trkpt><trkpt lat="45.0525321" lon="7.5815396"><ele>282.0</ele><time>2026-04-04T14:01:29.625Z</time></trkpt><trkpt lat="45.052541" lon="7.5813076"><ele>281.6666666666667</ele><time>2026-04-04T14:01:30.624Z</time></trkpt><trkpt lat="45.0525517" lon="7.5810453"><ele>281.33333333333337</ele><time>2026-04-04T14:01:31.625Z</time></trkpt><trkpt lat="45.0525611" lon="7.5808217"><ele>281.0</ele><time>2026-04-04T14:01:32.624Z</time></trkpt><trkpt lat="45.0525766" lon="7.5805696"><ele>281.6666666666667</ele><time>2026-04-04T14:01:33.624Z</time></trkpt><trkpt lat="45.0525951" lon="7.580339"><ele>282.3333333333333</ele><time>2026-04-04T14:01:34.624Z</time></trkpt><trkpt lat="45.0526054" lon="7.5801252"><ele>283.0</ele><time>2026-04-04T14:01:35.625Z</time></trkpt><trkpt lat="45.052615" lon="7.5798839"><ele>283.0</ele><time>2026-04-04T14:01:36.625Z</time></trkpt><trkpt lat="45.0526217" lon="7.5796736"><ele>283.0</ele><time>2026-04-04T14:01:37.624Z</time></trkpt><trkpt lat="45.0526282" lon="7.5794524"><ele>283.0</ele><time>2026-04-04T14:01:38.624Z</time></trkpt><trkpt lat="45.0526375" lon="7.5792178"><ele>283.25</ele><time>2026-04-04T14:01:39.623Z</time></trkpt><trkpt lat="45.0526493" lon="7.5790156"><ele>283.5</ele><time>2026-04-04T14:01:40.624Z</time></trkpt><trkpt lat="45.05266" lon="7.578794"><ele>283.75</ele><time>2026-04-04T14:01:41.625Z</time></trkpt><trkpt lat="45.0526693" lon="7.5785965"><ele>284.0</ele><time>2026-04-04T14:01:42.624Z</time></trkpt><trkpt lat="45.0526784" lon="7.5784248"><ele>284.4</ele><time>2026-04-04T14:01:43.624Z</time></trkpt><trkpt lat="45.0526872" lon="7.5782406"><ele>284.79999999999995</ele><time>2026-04-04T14:01:44.624Z</time></trkpt><trkpt lat="45.0526942" lon="7.578079"><ele>285.20000000000005</ele><time>2026-04-04T14:01:45.625Z</time></trkpt><trkpt lat="45.0526996" lon="7.5779411"><ele>285.6</ele><time>2026-04-04T14:01:46.624Z</time></trkpt><trkpt lat="45.0527035" lon="7.5777985"><ele>286.0</ele><time>2026-04-04T14:01:47.623Z</time></trkpt><trkpt lat="45.052706" lon="7.5776958"><ele>286.0</ele><time>2026-04-04T14:01:48.624Z</time></trkpt><trkpt lat="45.0527088" lon="7.577605"><ele>286.0</ele><time>2026-04-04T14:01:49.624Z</time></trkpt><trkpt lat="45.0527118" lon="7.5775147"><ele>286.0</ele><time>2026-04-04T14:01:51.624Z</time></trkpt><trkpt lat="45.0527249" lon="7.5773295"><ele>286.0</ele><time>2026-04-04T14:02:42.624Z</time></trkpt><trkpt lat="45.0527203" lon="7.5772041"><ele>286.0</ele><time>2026-04-04T14:02:43.623Z</time></trkpt><trkpt lat="45.0527071" lon="7.5770683"><ele>286.0</ele><time>2026-04-04T14:02:44.624Z</time></trkpt><trkpt lat="45.0526954" lon="7.5768938"><ele>286.0</ele><time>2026-04-04T14:02:45.624Z</time></trkpt><trkpt lat="45.0526943" lon="7.5767181"><ele>286.0</ele><time>2026-04-04T14:02:46.623Z</time></trkpt><trkpt lat="45.0526978" lon="7.5765384"><ele>286.0</ele><time>2026-04-04T14:02:47.623Z</time></trkpt><trkpt lat="45.0527039" lon="7.5763226"><ele>286.0</ele><time>2026-04-04T14:02:48.624Z</time></trkpt><trkpt lat="45.0527095" lon="7.5761042"><ele>285.3333333333333</ele><time>2026-04-04T14:02:49.623Z</time></trkpt><trkpt lat="45.0527139" lon="7.5758977"><ele>284.6666666666667</ele><time>2026-04-04T14:02:50.623Z</time></trkpt><trkpt lat="45.0527183" lon="7.5756507"><ele>284.0</ele><time>2026-04-04T14:02:51.622Z</time></trkpt><trkpt lat="45.0527221" lon="7.5754252"><ele>283.6666666666667</ele><time>2026-04-04T14:02:52.623Z</time></trkpt><trkpt lat="45.0527281" lon="7.5751615"><ele>283.3333333333333</ele><time>2026-04-04T14:02:53.623Z</time></trkpt><trkpt lat="45.0527365" lon="7.5749038"><ele>283.0</ele><time>2026-04-04T14:02:54.624Z</time></trkpt><trkpt lat="45.0527457" lon="7.5746563"><ele>283.0</ele><time>2026-04-04T14:02:55.623Z</time></trkpt><trkpt lat="45.052756" lon="7.574378"><ele>283.0</ele><time>2026-04-04T14:02:56.623Z</time></trkpt><trkpt lat="45.0527652" lon="7.574124"><ele>283.0</ele><time>2026-04-04T14:02:57.623Z</time></trkpt><trkpt lat="45.0527749" lon="7.5738508"><ele>283.0</ele><time>2026-04-04T14:02:58.624Z</time></trkpt><trkpt lat="45.0527861" lon="7.5735513"><ele>283.0</ele><time>2026-04-04T14:02:59.623Z</time></trkpt><trkpt lat="45.0527981" lon="7.5732834"><ele>283.0</ele><time>2026-04-04T14:03:00.624Z</time></trkpt><trkpt lat="45.0528132" lon="7.5729774"><ele>283.3333333333333</ele><time>2026-04-04T14:03:01.623Z</time></trkpt><trkpt lat="45.0528286" lon="7.5726837"><ele>283.6666666666667</ele><time>2026-04-04T14:03:02.624Z</time></trkpt><trkpt lat="45.0528424" lon="7.5724066"><ele>284.0</ele><time>2026-04-04T14:03:03.623Z</time></trkpt><trkpt lat="45.0528591" lon="7.572092"><ele>284.33333333333337</ele><time>2026-04-04T14:03:04.622Z</time></trkpt><trkpt lat="45.0528789" lon="7.5717931"><ele>284.6666666666667</ele><time>2026-04-04T14:03:05.624Z</time></trkpt><trkpt lat="45.0529018" lon="7.5715156"><ele>285.0</ele><time>2026-04-04T14:03:06.624Z</time></trkpt><trkpt lat="45.052934" lon="7.5711985"><ele>285.3333333333333</ele><time>2026-04-04T14:03:07.623Z</time></trkpt><trkpt lat="45.0529675" lon="7.5709202"><ele>285.66666666666663</ele><time>2026-04-04T14:03:08.623Z</time></trkpt><trkpt lat="45.0530111" lon="7.5706079"><ele>286.0</ele><time>2026-04-04T14:03:09.623Z</time></trkpt><trkpt lat="45.0530568" lon="7.5703129"><ele>286.0</ele><time>2026-04-04T14:03:10.623Z</time></trkpt><trkpt lat="45.0531048" lon="7.5700374"><ele>286.0</ele><time>2026-04-04T14:03:11.623Z</time></trkpt><trkpt lat="45.0531639" lon="7.5697275"><ele>286.0</ele><time>2026-04-04T14:03:12.623Z</time></trkpt><trkpt lat="45.0532227" lon="7.5694528"><ele>285.5</ele><time>2026-04-04T14:03:13.622Z</time></trkpt><trkpt lat="45.0532904" lon="7.5691614"><ele>285.0</ele><time>2026-04-04T14:03:14.623Z</time></trkpt><trkpt lat="45.0533693" lon="7.5688481"><ele>287.0</ele><time>2026-04-04T14:03:15.622Z</time></trkpt><trkpt lat="45.0534464" lon="7.5685699"><ele>289.0</ele><time>2026-04-04T14:03:16.622Z</time></trkpt><trkpt lat="45.0535402" lon="7.5682586"><ele>289.0</ele><time>2026-04-04T14:03:17.623Z</time></trkpt><trkpt lat="45.0536348" lon="7.56796"><ele>289.0</ele><time>2026-04-04T14:03:18.623Z</time></trkpt><trkpt lat="45.053729" lon="7.5676804"><ele>289.5</ele><time>2026-04-04T14:03:19.624Z</time></trkpt><trkpt lat="45.0538416" lon="7.5673668"><ele>290.0</ele><time>2026-04-04T14:03:20.623Z</time></trkpt><trkpt lat="45.0539572" lon="7.5670712"><ele>289.0</ele><time>2026-04-04T14:03:21.624Z</time></trkpt><trkpt lat="45.0540704" lon="7.5667976"><ele>288.0</ele><time>2026-04-04T14:03:22.623Z</time></trkpt><trkpt lat="45.0542047" lon="7.5664866"><ele>287.5</ele><time>2026-04-04T14:03:23.623Z</time></trkpt><trkpt lat="45.0543236" lon="7.5662152"><ele>287.0</ele><time>2026-04-04T14:03:24.624Z</time></trkpt><trkpt lat="45.0544596" lon="7.5659079"><ele>288.0</ele><time>2026-04-04T14:03:25.622Z</time></trkpt><trkpt lat="45.0545896" lon="7.5656122"><ele>289.0</ele><time>2026-04-04T14:03:26.624Z</time></trkpt><trkpt lat="45.0547117" lon="7.5653344"><ele>289.0</ele><time>2026-04-04T14:03:27.623Z</time></trkpt><trkpt lat="45.054853" lon="7.565011"><ele>289.0</ele><time>2026-04-04T14:03:28.622Z</time></trkpt><trkpt lat="45.0549785" lon="7.5647229"><ele>289.5</ele><time>2026-04-04T14:03:29.622Z</time></trkpt><trkpt lat="45.0551127" lon="7.5644174"><ele>290.0</ele><time>2026-04-04T14:03:30.623Z</time></trkpt><trkpt lat="45.0552584" lon="7.5640894"><ele>290.0</ele><time>2026-04-04T14:03:31.623Z</time></trkpt><trkpt lat="45.0553853" lon="7.5638026"><ele>290.0</ele><time>2026-04-04T14:03:32.623Z</time></trkpt><trkpt lat="45.0555273" lon="7.5634797"><ele>290.5</ele><time>2026-04-04T14:03:33.623Z</time></trkpt><trkpt lat="45.0556608" lon="7.5631742"><ele>291.0</ele><time>2026-04-04T14:03:34.624Z</time></trkpt><trkpt lat="45.055783" lon="7.5628932"><ele>291.0</ele><time>2026-04-04T14:03:35.622Z</time></trkpt><trkpt lat="45.0559184" lon="7.5625815"><ele>291.0</ele><time>2026-04-04T14:03:36.623Z</time></trkpt><trkpt lat="45.0560423" lon="7.5622996"><ele>291.0</ele><time>2026-04-04T14:03:37.623Z</time></trkpt><trkpt lat="45.0561523" lon="7.5620495"><ele>291.0</ele><time>2026-04-04T14:03:38.623Z</time></trkpt><trkpt lat="45.0562755" lon="7.5617718"><ele>291.0</ele><time>2026-04-04T14:03:39.623Z</time></trkpt><trkpt lat="45.0563786" lon="7.5615382"><ele>291.0</ele><time>2026-04-04T14:03:40.624Z</time></trkpt><trkpt lat="45.0564898" lon="7.5612904"><ele>291.0</ele><time>2026-04-04T14:03:41.624Z</time></trkpt><trkpt lat="45.0565894" lon="7.5610719"><ele>291.0</ele><time>2026-04-04T14:03:42.623Z</time></trkpt><trkpt lat="45.0566772" lon="7.5608856"><ele>291.5</ele><time>2026-04-04T14:03:43.622Z</time></trkpt><trkpt lat="45.0567815" lon="7.5606985"><ele>292.0</ele><time>2026-04-04T14:03:44.622Z</time></trkpt><trkpt lat="45.0568739" lon="7.5605544"><ele>292.5</ele><time>2026-04-04T14:03:45.623Z</time></trkpt><trkpt lat="45.0569539" lon="7.5604051"><ele>293.0</ele><time>2026-04-04T14:03:46.623Z</time></trkpt><trkpt lat="45.057018" lon="7.5602353"><ele>293.0</ele><time>2026-04-04T14:03:47.624Z</time></trkpt><trkpt lat="45.0570591" lon="7.5600675"><ele>293.0</ele><time>2026-04-04T14:03:48.622Z</time></trkpt><trkpt lat="45.057115" lon="7.5598695"><ele>293.0</ele><time>2026-04-04T14:03:49.624Z</time></trkpt><trkpt lat="45.057187" lon="7.5596798"><ele>293.0</ele><time>2026-04-04T14:03:50.622Z</time></trkpt><trkpt lat="45.0572631" lon="7.5595056"><ele>293.6666666666667</ele><time>2026-04-04T14:03:51.623Z</time></trkpt><trkpt lat="45.0573534" lon="7.5593032"><ele>294.3333333333333</ele><time>2026-04-04T14:03:52.624Z</time></trkpt><trkpt lat="45.0574391" lon="7.5591066"><ele>295.0</ele><time>2026-04-04T14:03:53.623Z</time></trkpt><trkpt lat="45.0575201" lon="7.5589215"><ele>295.3333333333333</ele><time>2026-04-04T14:03:54.623Z</time></trkpt><trkpt lat="45.0576132" lon="7.5587104"><ele>295.6666666666667</ele><time>2026-04-04T14:03:55.623Z</time></trkpt><trkpt lat="45.057694" lon="7.5585259"><ele>296.0</ele><time>2026-04-04T14:03:56.624Z</time></trkpt><trkpt lat="45.0577831" lon="7.5583201"><ele>296.33333333333337</ele><time>2026-04-04T14:03:57.623Z</time></trkpt><trkpt lat="45.0578669" lon="7.5581272"><ele>296.6666666666667</ele><time>2026-04-04T14:03:58.623Z</time></trkpt><trkpt lat="45.0579443" lon="7.5579502"><ele>297.0</ele><time>2026-04-04T14:03:59.623Z</time></trkpt><trkpt lat="45.0580323" lon="7.5577495"><ele>297.3333333333333</ele><time>2026-04-04T14:04:00.623Z</time></trkpt><trkpt lat="45.0581091" lon="7.5575741"><ele>297.66666666666663</ele><time>2026-04-04T14:04:01.624Z</time></trkpt><trkpt lat="45.0581889" lon="7.5573908"><ele>298.0</ele><time>2026-04-04T14:04:02.623Z</time></trkpt><trkpt lat="45.058274" lon="7.5571944"><ele>298.0</ele><time>2026-04-04T14:04:03.624Z</time></trkpt><trkpt lat="45.0583481" lon="7.5570229"><ele>298.0</ele><time>2026-04-04T14:04:04.623Z</time></trkpt><trkpt lat="45.0584324" lon="7.5568308"><ele>298.0</ele><time>2026-04-04T14:04:05.624Z</time></trkpt><trkpt lat="45.058513" lon="7.5566489"><ele>298.0</ele><time>2026-04-04T14:04:06.624Z</time></trkpt><trkpt lat="45.0585875" lon="7.5564801"><ele>298.0</ele><time>2026-04-04T14:04:07.623Z</time></trkpt><trkpt lat="45.0586732" lon="7.5562861"><ele>298.0</ele><time>2026-04-04T14:04:08.623Z</time></trkpt><trkpt lat="45.0587534" lon="7.5561042"><ele>298.0</ele><time>2026-04-04T14:04:09.624Z</time></trkpt><trkpt lat="45.0588273" lon="7.5559356"><ele>298.0</ele><time>2026-04-04T14:04:10.624Z</time></trkpt><trkpt lat="45.0589124" lon="7.5557423"><ele>298.0</ele><time>2026-04-04T14:04:11.623Z</time></trkpt><trkpt lat="45.0589861" lon="7.5555722"><ele>298.0</ele><time>2026-04-04T14:04:12.623Z</time></trkpt><trkpt lat="45.0590691" lon="7.5553811"><ele>298.3333333333333</ele><time>2026-04-04T14:04:13.623Z</time></trkpt><trkpt lat="45.0591503" lon="7.5551977"><ele>298.6666666666667</ele><time>2026-04-04T14:04:14.624Z</time></trkpt><trkpt lat="45.0592263" lon="7.5550256"><ele>299.0</ele><time>2026-04-04T14:04:15.624Z</time></trkpt><trkpt lat="45.059314" lon="7.5548232"><ele>299.0</ele><time>2026-04-04T14:04:16.624Z</time></trkpt><trkpt lat="45.0593929" lon="7.5546413"><ele>299.0</ele><time>2026-04-04T14:04:17.623Z</time></trkpt><trkpt lat="45.0594779" lon="7.5544458"><ele>299.0</ele><time>2026-04-04T14:04:18.624Z</time></trkpt><trkpt lat="45.0595698" lon="7.5542355"><ele>299.0</ele><time>2026-04-04T14:04:19.623Z</time></trkpt><trkpt lat="45.0596513" lon="7.5540497"><ele>299.0</ele><time>2026-04-04T14:04:20.624Z</time></trkpt><trkpt lat="45.0597433" lon="7.5538388"><ele>299.0</ele><time>2026-04-04T14:04:21.622Z</time></trkpt><trkpt lat="45.0598303" lon="7.5536373"><ele>300.0</ele><time>2026-04-04T14:04:22.623Z</time></trkpt><trkpt lat="45.0599122" lon="7.5534505"><ele>301.0</ele><time>2026-04-04T14:04:23.623Z</time></trkpt><trkpt lat="45.0600073" lon="7.5532343"><ele>302.0</ele><time>2026-04-04T14:04:24.623Z</time></trkpt><trkpt lat="45.0600969" lon="7.5530305"><ele>302.6666666666667</ele><time>2026-04-04T14:04:25.624Z</time></trkpt><trkpt lat="45.0601808" lon="7.5528403"><ele>303.3333333333333</ele><time>2026-04-04T14:04:26.623Z</time></trkpt><trkpt lat="45.0602786" lon="7.5526212"><ele>304.0</ele><time>2026-04-04T14:04:27.623Z</time></trkpt><trkpt lat="45.0603646" lon="7.5524264"><ele>304.0</ele><time>2026-04-04T14:04:28.623Z</time></trkpt><trkpt lat="45.0604561" lon="7.5522191"><ele>304.0</ele><time>2026-04-04T14:04:29.623Z</time></trkpt><trkpt lat="45.0605544" lon="7.5519937"><ele>304.0</ele><time>2026-04-04T14:04:30.623Z</time></trkpt><trkpt lat="45.0606399" lon="7.5517957"><ele>304.3333333333333</ele><time>2026-04-04T14:04:31.623Z</time></trkpt><trkpt lat="45.0607395" lon="7.5515656"><ele>304.6666666666667</ele><time>2026-04-04T14:04:32.624Z</time></trkpt><trkpt lat="45.0608239" lon="7.5513713"><ele>305.0</ele><time>2026-04-04T14:04:33.623Z</time></trkpt><trkpt lat="45.0609096" lon="7.5511779"><ele>305.0</ele><time>2026-04-04T14:04:34.624Z</time></trkpt><trkpt lat="45.0609963" lon="7.5509839"><ele>305.0</ele><time>2026-04-04T14:04:35.623Z</time></trkpt><trkpt lat="45.0610658" lon="7.5508263"><ele>305.0</ele><time>2026-04-04T14:04:36.624Z</time></trkpt><trkpt lat="45.0611432" lon="7.5506506"><ele>305.0</ele><time>2026-04-04T14:04:37.623Z</time></trkpt><trkpt lat="45.0612143" lon="7.5504898"><ele>305.2</ele><time>2026-04-04T14:04:38.622Z</time></trkpt><trkpt lat="45.06128" lon="7.5503456"><ele>305.4</ele><time>2026-04-04T14:04:39.624Z</time></trkpt><trkpt lat="45.0613533" lon="7.5501919"><ele>305.6</ele><time>2026-04-04T14:04:40.623Z</time></trkpt><trkpt lat="45.0614212" lon="7.5500654"><ele>305.8</ele><time>2026-04-04T14:04:41.623Z</time></trkpt><trkpt lat="45.0614749" lon="7.5499802"><ele>306.0</ele><time>2026-04-04T14:04:42.623Z</time></trkpt><trkpt lat="45.0615466" lon="7.5498681"><ele>306.0</ele><time>2026-04-04T14:04:44.623Z</time></trkpt><trkpt lat="45.0615952" lon="7.549805"><ele>306.0</ele><time>2026-04-04T14:04:45.623Z</time></trkpt><trkpt lat="45.0616695" lon="7.5497275"><ele>306.0</ele><time>2026-04-04T14:04:46.623Z</time></trkpt><trkpt lat="45.061735" lon="7.549646"><ele>306.0</ele><time>2026-04-04T14:04:47.623Z</time></trkpt><trkpt lat="45.0617869" lon="7.5495185"><ele>306.0</ele><time>2026-04-04T14:04:48.623Z</time></trkpt><trkpt lat="45.0618184" lon="7.5493647"><ele>306.3333333333333</ele><time>2026-04-04T14:04:49.623Z</time></trkpt><trkpt lat="45.0618603" lon="7.5491728"><ele>306.66666666666663</ele><time>2026-04-04T14:04:50.624Z</time></trkpt><trkpt lat="45.0619281" lon="7.5489466"><ele>307.0</ele><time>2026-04-04T14:04:51.622Z</time></trkpt><trkpt lat="45.062004" lon="7.5487328"><ele>308.0</ele><time>2026-04-04T14:04:52.623Z</time></trkpt><trkpt lat="45.0621139" lon="7.5484565"><ele>309.0</ele><time>2026-04-04T14:04:53.623Z</time></trkpt><trkpt lat="45.0622366" lon="7.5481815"><ele>309.0</ele><time>2026-04-04T14:04:54.624Z</time></trkpt><trkpt lat="45.0623677" lon="7.547909"><ele>309.0</ele><time>2026-04-04T14:04:55.623Z</time></trkpt><trkpt lat="45.0625427" lon="7.5475852"><ele>310.0</ele><time>2026-04-04T14:04:56.623Z</time></trkpt><trkpt lat="45.0627254" lon="7.5472691"><ele>311.0</ele><time>2026-04-04T14:04:57.624Z</time></trkpt><trkpt lat="45.0629031" lon="7.5469668"><ele>312.5</ele><time>2026-04-04T14:04:58.623Z</time></trkpt><trkpt lat="45.0631087" lon="7.5465974"><ele>314.0</ele><time>2026-04-04T14:04:59.623Z</time></trkpt><trkpt lat="45.0632817" lon="7.5462515"><ele>314.5</ele><time>2026-04-04T14:05:00.622Z</time></trkpt><trkpt lat="45.0634621" lon="7.5458548"><ele>315.0</ele><time>2026-04-04T14:05:01.622Z</time></trkpt><trkpt lat="45.0636458" lon="7.5454092"><ele>315.0</ele><time>2026-04-04T14:05:02.623Z</time></trkpt><trkpt lat="45.0637963" lon="7.5450032"><ele>315.0</ele><time>2026-04-04T14:05:03.623Z</time></trkpt><trkpt lat="45.063946" lon="7.5445593"><ele>315.0</ele><time>2026-04-04T14:05:04.624Z</time></trkpt><trkpt lat="45.0640651" lon="7.5441917"><ele>315.0</ele><time>2026-04-04T14:05:05.622Z</time></trkpt><trkpt lat="45.0641836" lon="7.5438226"><ele>316.0</ele><time>2026-04-04T14:05:06.623Z</time></trkpt><trkpt lat="45.0643022" lon="7.5434594"><ele>317.0</ele><time>2026-04-04T14:05:07.623Z</time></trkpt><trkpt lat="45.0643979" lon="7.5431661"><ele>318.5</ele><time>2026-04-04T14:05:08.622Z</time></trkpt><trkpt lat="45.0644938" lon="7.5428687"><ele>320.0</ele><time>2026-04-04T14:05:09.621Z</time></trkpt><trkpt lat="45.0645914" lon="7.5425714"><ele>320.0</ele><time>2026-04-04T14:05:10.622Z</time></trkpt><trkpt lat="45.0646686" lon="7.542333"><ele>320.0</ele><time>2026-04-04T14:05:11.622Z</time></trkpt><trkpt lat="45.0647563" lon="7.5420759"><ele>320.0</ele><time>2026-04-04T14:05:12.622Z</time></trkpt><trkpt lat="45.0648344" lon="7.5418674"><ele>320.25</ele><time>2026-04-04T14:05:13.622Z</time></trkpt><trkpt lat="45.0649012" lon="7.5417016"><ele>320.5</ele><time>2026-04-04T14:05:14.621Z</time></trkpt><trkpt lat="45.0649719" lon="7.5415505"><ele>320.75</ele><time>2026-04-04T14:05:15.622Z</time></trkpt><trkpt lat="45.0650331" lon="7.5414437"><ele>321.0</ele><time>2026-04-04T14:05:16.623Z</time></trkpt><trkpt lat="45.0650995" lon="7.5413451"><ele>321.20000000000005</ele><time>2026-04-04T14:05:17.623Z</time></trkpt><trkpt lat="45.0651658" lon="7.541253"><ele>321.40000000000003</ele><time>2026-04-04T14:05:18.622Z</time></trkpt><trkpt lat="45.0652189" lon="7.5411579"><ele>321.6</ele><time>2026-04-04T14:05:19.622Z</time></trkpt><trkpt lat="45.0652649" lon="7.5410143"><ele>321.8</ele><time>2026-04-04T14:05:20.622Z</time></trkpt><trkpt lat="45.0652894" lon="7.5408774"><ele>322.0</ele><time>2026-04-04T14:05:21.622Z</time></trkpt><trkpt lat="45.0653178" lon="7.5407316"><ele>322.25</ele><time>2026-04-04T14:05:22.622Z</time></trkpt><trkpt lat="45.065365" lon="7.5405718"><ele>322.5</ele><time>2026-04-04T14:05:23.623Z</time></trkpt><trkpt lat="45.0654184" lon="7.5404301"><ele>322.75</ele><time>2026-04-04T14:05:24.621Z</time></trkpt><trkpt lat="45.065486" lon="7.5402706"><ele>323.0</ele><time>2026-04-04T14:05:25.623Z</time></trkpt><trkpt lat="45.0655604" lon="7.5400987"><ele>323.5</ele><time>2026-04-04T14:05:26.621Z</time></trkpt><trkpt lat="45.065629" lon="7.5399451"><ele>324.0</ele><time>2026-04-04T14:05:27.623Z</time></trkpt><trkpt lat="45.0657112" lon="7.5397654"><ele>324.5</ele><time>2026-04-04T14:05:28.622Z</time></trkpt><trkpt lat="45.0657942" lon="7.5395904"><ele>325.0</ele><time>2026-04-04T14:05:29.622Z</time></trkpt><trkpt lat="45.0658783" lon="7.5394193"><ele>325.66666666666663</ele><time>2026-04-04T14:05:30.622Z</time></trkpt><trkpt lat="45.0659821" lon="7.5392217"><ele>326.3333333333333</ele><time>2026-04-04T14:05:31.622Z</time></trkpt><trkpt lat="45.0660794" lon="7.5390497"><ele>327.0</ele><time>2026-04-04T14:05:32.622Z</time></trkpt><trkpt lat="45.0661906" lon="7.5388677"><ele>326.3333333333333</ele><time>2026-04-04T14:05:33.621Z</time></trkpt><trkpt lat="45.0663098" lon="7.5386783"><ele>325.66666666666663</ele><time>2026-04-04T14:05:34.623Z</time></trkpt><trkpt lat="45.0664095" lon="7.5385171"><ele>325.0</ele><time>2026-04-04T14:05:35.623Z</time></trkpt><trkpt lat="45.0665122" lon="7.5383417"><ele>325.0</ele><time>2026-04-04T14:05:36.622Z</time></trkpt><trkpt lat="45.0665871" lon="7.5381952"><ele>325.0</ele><time>2026-04-04T14:05:37.622Z</time></trkpt><trkpt lat="45.0666533" lon="7.5380464"><ele>325.0</ele><time>2026-04-04T14:05:38.622Z</time></trkpt><trkpt lat="45.066704" lon="7.5378968"><ele>325.0</ele><time>2026-04-04T14:05:39.622Z</time></trkpt><trkpt lat="45.0667264" lon="7.5377749"><ele>325.66666666666663</ele><time>2026-04-04T14:05:40.623Z</time></trkpt><trkpt lat="45.0667332" lon="7.5376544"><ele>326.3333333333333</ele><time>2026-04-04T14:05:41.622Z</time></trkpt><trkpt lat="45.0667398" lon="7.5375463"><ele>327.0</ele><time>2026-04-04T14:05:42.623Z</time></trkpt><trkpt lat="45.0667535" lon="7.5374518"><ele>327.6666666666667</ele><time>2026-04-04T14:05:44.622Z</time></trkpt><trkpt lat="45.0668156" lon="7.537336"><ele>328.33333333333337</ele><time>2026-04-04T14:05:49.622Z</time></trkpt><trkpt lat="45.0668824" lon="7.537213"><ele>329.0</ele><time>2026-04-04T14:05:51.622Z</time></trkpt><trkpt lat="45.0669301" lon="7.5371188"><ele>329.0</ele><time>2026-04-04T14:05:52.622Z</time></trkpt><trkpt lat="45.0669835" lon="7.5370361"><ele>329.0</ele><time>2026-04-04T14:05:53.623Z</time></trkpt><trkpt lat="45.0670517" lon="7.5369396"><ele>329.0</ele><time>2026-04-04T14:05:54.622Z</time></trkpt><trkpt lat="45.0671235" lon="7.5368158"><ele>329.0</ele><time>2026-04-04T14:05:55.623Z</time></trkpt><trkpt lat="45.067182" lon="7.536685"><ele>329.0</ele><time>2026-04-04T14:05:56.622Z</time></trkpt><trkpt lat="45.0672446" lon="7.5365356"><ele>329.0</ele><time>2026-04-04T14:05:57.622Z</time></trkpt><trkpt lat="45.0673123" lon="7.5363734"><ele>329.0</ele><time>2026-04-04T14:05:58.623Z</time></trkpt><trkpt lat="45.0673759" lon="7.5362228"><ele>329.0</ele><time>2026-04-04T14:05:59.622Z</time></trkpt><trkpt lat="45.0674519" lon="7.5360453"><ele>329.0</ele><time>2026-04-04T14:06:00.623Z</time></trkpt><trkpt lat="45.0675244" lon="7.5358796"><ele>329.75</ele><time>2026-04-04T14:06:01.623Z</time></trkpt><trkpt lat="45.0675952" lon="7.5357257"><ele>330.5</ele><time>2026-04-04T14:06:02.622Z</time></trkpt><trkpt lat="45.0676755" lon="7.5355523"><ele>331.25</ele><time>2026-04-04T14:06:03.622Z</time></trkpt><trkpt lat="45.0677464" lon="7.5353977"><ele>332.0</ele><time>2026-04-04T14:06:04.622Z</time></trkpt><trkpt lat="45.067822" lon="7.5352336"><ele>332.5</ele><time>2026-04-04T14:06:05.622Z</time></trkpt><trkpt lat="45.0678989" lon="7.5350622"><ele>333.0</ele><time>2026-04-04T14:06:06.622Z</time></trkpt><trkpt lat="45.0679633" lon="7.534918"><ele>333.5</ele><time>2026-04-04T14:06:07.622Z</time></trkpt><trkpt lat="45.0680328" lon="7.5347649"><ele>334.0</ele><time>2026-04-04T14:06:08.622Z</time></trkpt><trkpt lat="45.0680908" lon="7.5346387"><ele>334.2</ele><time>2026-04-04T14:06:09.622Z</time></trkpt><trkpt lat="45.0681521" lon="7.5345077"><ele>334.4</ele><time>2026-04-04T14:06:10.623Z</time></trkpt><trkpt lat="45.0682121" lon="7.5343781"><ele>334.6</ele><time>2026-04-04T14:06:11.623Z</time></trkpt><trkpt lat="45.0682653" lon="7.5342664"><ele>334.8</ele><time>2026-04-04T14:06:12.621Z</time></trkpt><trkpt lat="45.0683187" lon="7.534153"><ele>335.0</ele><time>2026-04-04T14:06:13.622Z</time></trkpt><trkpt lat="45.0683757" lon="7.5340399"><ele>335.1666666666667</ele><time>2026-04-04T14:06:14.622Z</time></trkpt><trkpt lat="45.0684288" lon="7.5339614"><ele>335.33333333333337</ele><time>2026-04-04T14:06:15.623Z</time></trkpt><trkpt lat="45.0684956" lon="7.5338965"><ele>335.5</ele><time>2026-04-04T14:06:16.623Z</time></trkpt><trkpt lat="45.0685587" lon="7.5338267"><ele>335.6666666666667</ele><time>2026-04-04T14:06:17.623Z</time></trkpt><trkpt lat="45.0685984" lon="7.5337349"><ele>335.8333333333333</ele><time>2026-04-04T14:06:18.622Z</time></trkpt><trkpt lat="45.0686217" lon="7.5336056"><ele>336.0</ele><time>2026-04-04T14:06:19.623Z</time></trkpt><trkpt lat="45.0686594" lon="7.5334857"><ele>337.0</ele><time>2026-04-04T14:06:20.622Z</time></trkpt><trkpt lat="45.068716" lon="7.5333459"><ele>338.0</ele><time>2026-04-04T14:06:21.623Z</time></trkpt><trkpt lat="45.0687848" lon="7.5331899"><ele>339.0</ele><time>2026-04-04T14:06:22.622Z</time></trkpt><trkpt lat="45.0688557" lon="7.5330418"><ele>340.0</ele><time>2026-04-04T14:06:23.622Z</time></trkpt><trkpt lat="45.0689425" lon="7.5328597"><ele>341.0</ele><time>2026-04-04T14:06:24.622Z</time></trkpt><trkpt lat="45.0690209" lon="7.5326702"><ele>342.0</ele><time>2026-04-04T14:06:25.622Z</time></trkpt><trkpt lat="45.0691299" lon="7.5324589"><ele>343.0</ele><time>2026-04-04T14:06:26.622Z</time></trkpt><trkpt lat="45.0692293" lon="7.5322072"><ele>344.66666666666663</ele><time>2026-04-04T14:06:27.622Z</time></trkpt><trkpt lat="45.0693354" lon="7.5319847"><ele>346.3333333333333</ele><time>2026-04-04T14:06:28.623Z</time></trkpt><trkpt lat="45.0694445" lon="7.5317475"><ele>348.0</ele><time>2026-04-04T14:06:29.622Z</time></trkpt><trkpt lat="45.06954" lon="7.531541"><ele>348.0</ele><time>2026-04-04T14:06:30.621Z</time></trkpt><trkpt lat="45.069623" lon="7.5313668"><ele>348.0</ele><time>2026-04-04T14:06:31.622Z</time></trkpt><trkpt lat="45.0697143" lon="7.531195"><ele>348.0</ele><time>2026-04-04T14:06:32.622Z</time></trkpt><trkpt lat="45.0697951" lon="7.5310304"><ele>348.0</ele><time>2026-04-04T14:06:33.622Z</time></trkpt><trkpt lat="45.0698601" lon="7.530865"><ele>348.6666666666667</ele><time>2026-04-04T14:06:34.622Z</time></trkpt><trkpt lat="45.0699294" lon="7.5306666"><ele>349.33333333333337</ele><time>2026-04-04T14:06:35.622Z</time></trkpt><trkpt lat="45.0699927" lon="7.5304848"><ele>350.0</ele><time>2026-04-04T14:06:36.623Z</time></trkpt><trkpt lat="45.0700663" lon="7.5302796"><ele>351.0</ele><time>2026-04-04T14:06:37.621Z</time></trkpt><trkpt lat="45.070133" lon="7.5300988"><ele>352.0</ele><time>2026-04-04T14:06:38.621Z</time></trkpt><trkpt lat="45.0701902" lon="7.5299411"><ele>353.0</ele><time>2026-04-04T14:06:39.623Z</time></trkpt><trkpt lat="45.0702485" lon="7.5297755"><ele>354.0</ele><time>2026-04-04T14:06:40.622Z</time></trkpt><trkpt lat="45.0702942" lon="7.5296397"><ele>354.0</ele><time>2026-04-04T14:06:41.621Z</time></trkpt><trkpt lat="45.0703382" lon="7.5295074"><ele>354.0</ele><time>2026-04-04T14:06:42.623Z</time></trkpt><trkpt lat="45.0703784" lon="7.5293876"><ele>354.0</ele><time>2026-04-04T14:06:43.622Z</time></trkpt><trkpt lat="45.0704061" lon="7.5293035"><ele>354.0</ele><time>2026-04-04T14:06:44.623Z</time></trkpt><trkpt lat="45.0704509" lon="7.5291531"><ele>354.0</ele><time>2026-04-04T14:06:46.622Z</time></trkpt><trkpt lat="45.0704795" lon="7.5290594"><ele>354.0</ele><time>2026-04-04T14:06:48.622Z</time></trkpt><trkpt lat="45.0705255" lon="7.5289851"><ele>354.0</ele><time>2026-04-04T14:07:31.623Z</time></trkpt><trkpt lat="45.0705734" lon="7.5288683"><ele>354.0</ele><time>2026-04-04T14:07:33.623Z</time></trkpt><trkpt lat="45.0706214" lon="7.5287897"><ele>354.0</ele><time>2026-04-04T14:07:34.623Z</time></trkpt><trkpt lat="45.0706738" lon="7.5287199"><ele>354.0</ele><time>2026-04-04T14:07:35.622Z</time></trkpt><trkpt lat="45.0707325" lon="7.5286166"><ele>354.0</ele><time>2026-04-04T14:07:36.622Z</time></trkpt><trkpt lat="45.0707639" lon="7.5284859"><ele>354.25</ele><time>2026-04-04T14:07:37.622Z</time></trkpt><trkpt lat="45.0707732" lon="7.5283475"><ele>354.5</ele><time>2026-04-04T14:07:38.621Z</time></trkpt><trkpt lat="45.0707723" lon="7.5281768"><ele>354.75</ele><time>2026-04-04T14:07:39.621Z</time></trkpt><trkpt lat="45.0707672" lon="7.5280089"><ele>355.0</ele><time>2026-04-04T14:07:40.621Z</time></trkpt><trkpt lat="45.0707587" lon="7.5278147"><ele>355.3333333333333</ele><time>2026-04-04T14:07:41.621Z</time></trkpt><trkpt lat="45.0707483" lon="7.5275986"><ele>355.6666666666667</ele><time>2026-04-04T14:07:42.622Z</time></trkpt><trkpt lat="45.0707393" lon="7.5274013"><ele>356.0</ele><time>2026-04-04T14:07:43.621Z</time></trkpt><trkpt lat="45.0707287" lon="7.5271619"><ele>356.0</ele><time>2026-04-04T14:07:44.622Z</time></trkpt><trkpt lat="45.0707184" lon="7.5269407"><ele>356.0</ele><time>2026-04-04T14:07:45.621Z</time></trkpt><trkpt lat="45.0707074" lon="7.5266928"><ele>356.0</ele><time>2026-04-04T14:07:46.622Z</time></trkpt><trkpt lat="45.0706969" lon="7.5264212"><ele>356.6666666666667</ele><time>2026-04-04T14:07:47.621Z</time></trkpt><trkpt lat="45.0706859" lon="7.5261834"><ele>357.3333333333333</ele><time>2026-04-04T14:07:48.622Z</time></trkpt><trkpt lat="45.070675" lon="7.5259344"><ele>358.0</ele><time>2026-04-04T14:07:49.621Z</time></trkpt><trkpt lat="45.070663" lon="7.5256779"><ele>358.0</ele><time>2026-04-04T14:07:50.621Z</time></trkpt><trkpt lat="45.0706533" lon="7.5254704"><ele>358.0</ele><time>2026-04-04T14:07:51.62Z</time></trkpt><trkpt lat="45.0706444" lon="7.5252495"><ele>358.0</ele><time>2026-04-04T14:07:52.62Z</time></trkpt><trkpt lat="45.0706354" lon="7.5250614"><ele>358.0</ele><time>2026-04-04T14:07:53.62Z</time></trkpt><trkpt lat="45.0706286" lon="7.5248976"><ele>358.2</ele><time>2026-04-04T14:07:54.622Z</time></trkpt><trkpt lat="45.070621" lon="7.5247275"><ele>358.4</ele><time>2026-04-04T14:07:55.621Z</time></trkpt><trkpt lat="45.0706158" lon="7.5245948"><ele>358.59999999999997</ele><time>2026-04-04T14:07:56.622Z</time></trkpt><trkpt lat="45.0706095" lon="7.5244678"><ele>358.79999999999995</ele><time>2026-04-04T14:07:57.621Z</time></trkpt><trkpt lat="45.0706037" lon="7.5243545"><ele>359.0</ele><time>2026-04-04T14:07:58.621Z</time></trkpt><trkpt lat="45.0705988" lon="7.5242206"><ele>359.0</ele><time>2026-04-04T14:08:00.621Z</time></trkpt><trkpt lat="45.0705947" lon="7.5241253"><ele>359.0</ele><time>2026-04-04T14:08:04.62Z</time></trkpt><trkpt lat="45.0705886" lon="7.5239774"><ele>359.0</ele><time>2026-04-04T14:08:16.621Z</time></trkpt><trkpt lat="45.0705842" lon="7.5238768"><ele>359.0</ele><time>2026-04-04T14:08:17.62Z</time></trkpt><trkpt lat="45.0705782" lon="7.5237549"><ele>359.0</ele><time>2026-04-04T14:08:18.621Z</time></trkpt><trkpt lat="45.07057" lon="7.5236081"><ele>359.0</ele><time>2026-04-04T14:08:19.62Z</time></trkpt><trkpt lat="45.0705633" lon="7.5234726"><ele>359.0</ele><time>2026-04-04T14:08:20.621Z</time></trkpt><trkpt lat="45.0705572" lon="7.5233378"><ele>359.0</ele><time>2026-04-04T14:08:21.622Z</time></trkpt><trkpt lat="45.0705517" lon="7.5232041"><ele>359.0</ele><time>2026-04-04T14:08:22.622Z</time></trkpt><trkpt lat="45.0705464" lon="7.5230776"><ele>359.0</ele><time>2026-04-04T14:08:23.622Z</time></trkpt><trkpt lat="45.0705406" lon="7.5229365"><ele>359.0</ele><time>2026-04-04T14:08:24.621Z</time></trkpt><trkpt lat="45.070535" lon="7.5227851"><ele>359.0</ele><time>2026-04-04T14:08:25.622Z</time></trkpt><trkpt lat="45.0705289" lon="7.5226535"><ele>359.0</ele><time>2026-04-04T14:08:26.621Z</time></trkpt><trkpt lat="45.070521" lon="7.5225145"><ele>359.0</ele><time>2026-04-04T14:08:27.622Z</time></trkpt><trkpt lat="45.0705148" lon="7.5224036"><ele>359.0</ele><time>2026-04-04T14:08:28.622Z</time></trkpt><trkpt lat="45.0705088" lon="7.5222978"><ele>359.0</ele><time>2026-04-04T14:08:29.622Z</time></trkpt><trkpt lat="45.0705039" lon="7.5222045"><ele>359.0</ele><time>2026-04-04T14:08:30.622Z</time></trkpt><trkpt lat="45.070498" lon="7.5220619"><ele>358.6666666666667</ele><time>2026-04-04T14:08:32.621Z</time></trkpt><trkpt lat="45.0705035" lon="7.5219617"><ele>358.33333333333337</ele><time>2026-04-04T14:08:34.621Z</time></trkpt><trkpt lat="45.0705193" lon="7.5218665"><ele>358.0</ele><time>2026-04-04T14:08:36.62Z</time></trkpt><trkpt lat="45.0705358" lon="7.5217796"><ele>357.6666666666667</ele><time>2026-04-04T14:08:37.622Z</time></trkpt><trkpt lat="45.0705352" lon="7.5216554"><ele>357.3333333333333</ele><time>2026-04-04T14:08:38.62Z</time></trkpt><trkpt lat="45.0705248" lon="7.5215157"><ele>357.0</ele><time>2026-04-04T14:08:39.621Z</time></trkpt><trkpt lat="45.0705202" lon="7.5213231"><ele>357.20000000000005</ele><time>2026-04-04T14:08:40.621Z</time></trkpt><trkpt lat="45.0705223" lon="7.5211472"><ele>357.4</ele><time>2026-04-04T14:08:41.622Z</time></trkpt><trkpt lat="45.0705274" lon="7.5209875"><ele>357.6</ele><time>2026-04-04T14:08:42.621Z</time></trkpt><trkpt lat="45.0705375" lon="7.5208305"><ele>357.79999999999995</ele><time>2026-04-04T14:08:43.622Z</time></trkpt><trkpt lat="45.0705437" lon="7.5207117"><ele>358.0</ele><time>2026-04-04T14:08:44.62Z</time></trkpt><trkpt lat="45.0705404" lon="7.5206013"><ele>358.0</ele><time>2026-04-04T14:08:45.621Z</time></trkpt><trkpt lat="45.0705417" lon="7.5205041"><ele>358.0</ele><time>2026-04-04T14:08:46.622Z</time></trkpt><trkpt lat="45.0705477" lon="7.5203935"><ele>358.0</ele><time>2026-04-04T14:08:48.622Z</time></trkpt><trkpt lat="45.0705513" lon="7.5202722"><ele>358.0</ele><time>2026-04-04T14:08:55.622Z</time></trkpt><trkpt lat="45.0705859" lon="7.5201025"><ele>358.0</ele><time>2026-04-04T14:08:57.62Z</time></trkpt><trkpt lat="45.0706555" lon="7.5199711"><ele>358.16666666666663</ele><time>2026-04-04T14:08:59.622Z</time></trkpt><trkpt lat="45.0707537" lon="7.5199008"><ele>358.3333333333333</ele><time>2026-04-04T14:09:01.621Z</time></trkpt><trkpt lat="45.0708262" lon="7.5198758"><ele>358.5</ele><time>2026-04-04T14:09:02.62Z</time></trkpt><trkpt lat="45.0708943" lon="7.5198621"><ele>358.6666666666667</ele><time>2026-04-04T14:09:03.621Z</time></trkpt><trkpt lat="45.070968" lon="7.5198566"><ele>358.83333333333337</ele><time>2026-04-04T14:09:04.621Z</time></trkpt><trkpt lat="45.071089" lon="7.5198579"><ele>359.0</ele><time>2026-04-04T14:09:06.621Z</time></trkpt><trkpt lat="45.0711932" lon="7.5198532"><ele>359.0</ele><time>2026-04-04T14:09:08.622Z</time></trkpt><trkpt lat="45.0712971" lon="7.5198307"><ele>359.0</ele><time>2026-04-04T14:09:10.621Z</time></trkpt><trkpt lat="45.0714074" lon="7.5198222"><ele>359.0</ele><time>2026-04-04T14:09:12.621Z</time></trkpt><trkpt lat="45.0714737" lon="7.519825"><ele>359.0</ele><time>2026-04-04T14:09:14.621Z</time></trkpt><trkpt lat="45.0715798" lon="7.5198363"><ele>359.0</ele><time>2026-04-04T14:09:17.621Z</time></trkpt><trkpt lat="45.0716791" lon="7.5198395"><ele>358.8571428571429</ele><time>2026-04-04T14:09:19.621Z</time></trkpt><trkpt lat="45.0717439" lon="7.5198389"><ele>358.7142857142857</ele><time>2026-04-04T14:09:20.622Z</time></trkpt><trkpt lat="45.0718078" lon="7.5198388"><ele>358.57142857142856</ele><time>2026-04-04T14:09:21.62Z</time></trkpt><trkpt lat="45.0718844" lon="7.5198371"><ele>358.42857142857144</ele><time>2026-04-04T14:09:22.621Z</time></trkpt><trkpt lat="45.0719654" lon="7.5198333"><ele>358.2857142857143</ele><time>2026-04-04T14:09:23.621Z</time></trkpt><trkpt lat="45.0720359" lon="7.51983"><ele>358.14285714285717</ele><time>2026-04-04T14:09:24.621Z</time></trkpt><trkpt lat="45.0721224" lon="7.519828"><ele>358.0</ele><time>2026-04-04T14:09:25.621Z</time></trkpt><trkpt lat="45.0722372" lon="7.5198294"><ele>358.0</ele><time>2026-04-04T14:09:26.621Z</time></trkpt><trkpt lat="45.0723491" lon="7.5198273"><ele>358.0</ele><time>2026-04-04T14:09:27.621Z</time></trkpt><trkpt lat="45.0724771" lon="7.5198254"><ele>358.0</ele><time>2026-04-04T14:09:28.62Z</time></trkpt><trkpt lat="45.0726052" lon="7.5198243"><ele>358.0</ele><time>2026-04-04T14:09:29.621Z</time></trkpt><trkpt lat="45.0727326" lon="7.5198207"><ele>357.75</ele><time>2026-04-04T14:09:30.622Z</time></trkpt><trkpt lat="45.0728644" lon="7.5198187"><ele>357.5</ele><time>2026-04-04T14:09:31.621Z</time></trkpt><trkpt lat="45.0729909" lon="7.5198138"><ele>357.25</ele><time>2026-04-04T14:09:32.621Z</time></trkpt><trkpt lat="45.0731103" lon="7.5198146"><ele>357.0</ele><time>2026-04-04T14:09:33.621Z</time></trkpt><trkpt lat="45.0732187" lon="7.5198266"><ele>357.0</ele><time>2026-04-04T14:09:34.62Z</time></trkpt><trkpt lat="45.0733174" lon="7.5198233"><ele>357.0</ele><time>2026-04-04T14:09:35.621Z</time></trkpt><trkpt lat="45.0734039" lon="7.5198171"><ele>357.0</ele><time>2026-04-04T14:09:36.621Z</time></trkpt><trkpt lat="45.0734903" lon="7.5198156"><ele>357.0</ele><time>2026-04-04T14:09:37.621Z</time></trkpt><trkpt lat="45.0735877" lon="7.5198116"><ele>357.0</ele><time>2026-04-04T14:09:38.621Z</time></trkpt><trkpt lat="45.0736773" lon="7.5198032"><ele>357.0</ele><time>2026-04-04T14:09:39.62Z</time></trkpt><trkpt lat="45.0737685" lon="7.5198014"><ele>357.0</ele><time>2026-04-04T14:09:40.621Z</time></trkpt><trkpt lat="45.0738732" lon="7.5198082"><ele>357.0</ele><time>2026-04-04T14:09:41.621Z</time></trkpt><trkpt lat="45.0739829" lon="7.519819"><ele>357.0</ele><time>2026-04-04T14:09:42.621Z</time></trkpt><trkpt lat="45.0741011" lon="7.5198236"><ele>357.0</ele><time>2026-04-04T14:09:43.622Z</time></trkpt><trkpt lat="45.0742223" lon="7.5198205"><ele>356.5</ele><time>2026-04-04T14:09:44.621Z</time></trkpt><trkpt lat="45.074338" lon="7.5198226"><ele>356.0</ele><time>2026-04-04T14:09:45.621Z</time></trkpt><trkpt lat="45.0744504" lon="7.5198156"><ele>355.5</ele><time>2026-04-04T14:09:46.621Z</time></trkpt><trkpt lat="45.0745603" lon="7.5198128"><ele>355.0</ele><time>2026-04-04T14:09:47.621Z</time></trkpt><trkpt lat="45.0746729" lon="7.5198109"><ele>355.0</ele><time>2026-04-04T14:09:48.622Z</time></trkpt><trkpt lat="45.0747837" lon="7.5198088"><ele>355.0</ele><time>2026-04-04T14:09:49.622Z</time></trkpt><trkpt lat="45.0748865" lon="7.5198061"><ele>355.0</ele><time>2026-04-04T14:09:50.622Z</time></trkpt><trkpt lat="45.0749859" lon="7.5198039"><ele>355.0</ele><time>2026-04-04T14:09:51.621Z</time></trkpt><trkpt lat="45.0750828" lon="7.5198017"><ele>355.0</ele><time>2026-04-04T14:09:52.622Z</time></trkpt><trkpt lat="45.0751792" lon="7.5197993"><ele>354.7142857142857</ele><time>2026-04-04T14:09:53.622Z</time></trkpt><trkpt lat="45.0752672" lon="7.5197977"><ele>354.42857142857144</ele><time>2026-04-04T14:09:54.621Z</time></trkpt><trkpt lat="45.0753464" lon="7.5197897"><ele>354.1428571428571</ele><time>2026-04-04T14:09:55.621Z</time></trkpt><trkpt lat="45.0754124" lon="7.5197829"><ele>353.8571428571429</ele><time>2026-04-04T14:09:56.62Z</time></trkpt><trkpt lat="45.0754852" lon="7.5197848"><ele>353.5714285714286</ele><time>2026-04-04T14:09:59.621Z</time></trkpt><trkpt lat="45.0755512" lon="7.5197966"><ele>353.2857142857143</ele><time>2026-04-04T14:10:06.62Z</time></trkpt><trkpt lat="45.075604" lon="7.5198573"><ele>353.0</ele><time>2026-04-04T14:10:07.621Z</time></trkpt><trkpt lat="45.0756765" lon="7.5198977"><ele>353.0</ele><time>2026-04-04T14:10:08.621Z</time></trkpt><trkpt lat="45.0757553" lon="7.5198647"><ele>353.0</ele><time>2026-04-04T14:10:09.62Z</time></trkpt><trkpt lat="45.0758176" lon="7.5197772"><ele>353.0</ele><time>2026-04-04T14:10:10.621Z</time></trkpt><trkpt lat="45.0758556" lon="7.5196569"><ele>353.0</ele><time>2026-04-04T14:10:11.619Z</time></trkpt><trkpt lat="45.0758935" lon="7.5195179"><ele>353.0</ele><time>2026-04-04T14:10:12.62Z</time></trkpt><trkpt lat="45.0759483" lon="7.519389"><ele>353.0</ele><time>2026-04-04T14:10:13.62Z</time></trkpt><trkpt lat="45.075997" lon="7.5192788"><ele>353.0</ele><time>2026-04-04T14:10:14.621Z</time></trkpt><trkpt lat="45.0760415" lon="7.5191706"><ele>353.0</ele><time>2026-04-04T14:10:15.621Z</time></trkpt><trkpt lat="45.0760845" lon="7.5190702"><ele>353.0</ele><time>2026-04-04T14:10:16.62Z</time></trkpt><trkpt lat="45.0761247" lon="7.5189625"><ele>353.0</ele><time>2026-04-04T14:10:17.621Z</time></trkpt><trkpt lat="45.0761703" lon="7.5188498"><ele>353.0</ele><time>2026-04-04T14:10:18.621Z</time></trkpt><trkpt lat="45.0762178" lon="7.5187326"><ele>353.0</ele><time>2026-04-04T14:10:19.62Z</time></trkpt><trkpt lat="45.0762636" lon="7.5186201"><ele>353.0</ele><time>2026-04-04T14:10:20.621Z</time></trkpt><trkpt lat="45.0762986" lon="7.5185262"><ele>353.0</ele><time>2026-04-04T14:10:21.62Z</time></trkpt><trkpt lat="45.0763319" lon="7.5184312"><ele>353.0</ele><time>2026-04-04T14:10:22.62Z</time></trkpt><trkpt lat="45.0763714" lon="7.5183283"><ele>353.0</ele><time>2026-04-04T14:10:23.621Z</time></trkpt><trkpt lat="45.0764171" lon="7.5182165"><ele>353.0</ele><time>2026-04-04T14:10:24.62Z</time></trkpt><trkpt lat="45.0764616" lon="7.5180922"><ele>353.0</ele><time>2026-04-04T14:10:25.62Z</time></trkpt><trkpt lat="45.076512" lon="7.5179633"><ele>353.0</ele><time>2026-04-04T14:10:26.621Z</time></trkpt><trkpt lat="45.0765564" lon="7.5178497"><ele>353.0</ele><time>2026-04-04T14:10:27.62Z</time></trkpt><trkpt lat="45.076592" lon="7.5177572"><ele>353.0</ele><time>2026-04-04T14:10:28.62Z</time></trkpt><trkpt lat="45.0766224" lon="7.5176723"><ele>353.0</ele><time>2026-04-04T14:10:29.62Z</time></trkpt><trkpt lat="45.0766558" lon="7.5175755"><ele>353.0</ele><time>2026-04-04T14:10:30.621Z</time></trkpt><trkpt lat="45.076698" lon="7.5174698"><ele>353.4</ele><time>2026-04-04T14:10:31.62Z</time></trkpt><trkpt lat="45.0767352" lon="7.5173801"><ele>353.79999999999995</ele><time>2026-04-04T14:10:32.621Z</time></trkpt><trkpt lat="45.0767666" lon="7.5173024"><ele>354.2</ele><time>2026-04-04T14:10:33.62Z</time></trkpt><trkpt lat="45.0768187" lon="7.517172"><ele>354.6</ele><time>2026-04-04T14:10:35.62Z</time></trkpt><trkpt lat="45.0768665" lon="7.5170436"><ele>355.0</ele><time>2026-04-04T14:10:37.62Z</time></trkpt><trkpt lat="45.0769159" lon="7.516909"><ele>355.0</ele><time>2026-04-04T14:10:39.62Z</time></trkpt><trkpt lat="45.076961" lon="7.5167937"><ele>355.0</ele><time>2026-04-04T14:10:41.62Z</time></trkpt><trkpt lat="45.0770129" lon="7.5166661"><ele>355.0</ele><time>2026-04-04T14:10:43.62Z</time></trkpt><trkpt lat="45.0770692" lon="7.5165312"><ele>355.0</ele><time>2026-04-04T14:10:45.621Z</time></trkpt><trkpt lat="45.0771157" lon="7.5163996"><ele>355.0</ele><time>2026-04-04T14:10:47.62Z</time></trkpt><trkpt lat="45.0771608" lon="7.5162628"><ele>354.6</ele><time>2026-04-04T14:10:49.621Z</time></trkpt><trkpt lat="45.0772082" lon="7.516133"><ele>354.2</ele><time>2026-04-04T14:10:51.62Z</time></trkpt><trkpt lat="45.0772596" lon="7.5160104"><ele>353.79999999999995</ele><time>2026-04-04T14:10:53.62Z</time></trkpt><trkpt lat="45.0773095" lon="7.5158905"><ele>353.4</ele><time>2026-04-04T14:10:55.621Z</time></trkpt><trkpt lat="45.0773832" lon="7.5157775"><ele>353.0</ele><time>2026-04-04T14:10:57.621Z</time></trkpt><trkpt lat="45.0774901" lon="7.5157392"><ele>353.0</ele><time>2026-04-04T14:10:59.621Z</time></trkpt><trkpt lat="45.077549" lon="7.515694"><ele>353.0</ele><time>2026-04-04T14:11:00.62Z</time></trkpt><trkpt lat="45.0775917" lon="7.5156087"><ele>353.0</ele><time>2026-04-04T14:11:01.62Z</time></trkpt><trkpt lat="45.0776071" lon="7.5155087"><ele>353.0</ele><time>2026-04-04T14:11:02.619Z</time></trkpt><trkpt lat="45.0776136" lon="7.5153837"><ele>353.0</ele><time>2026-04-04T14:11:03.621Z</time></trkpt><trkpt lat="45.077643" lon="7.5152509"><ele>353.0</ele><time>2026-04-04T14:11:04.62Z</time></trkpt><trkpt lat="45.0776713" lon="7.5151055"><ele>353.0</ele><time>2026-04-04T14:11:05.62Z</time></trkpt><trkpt lat="45.0777115" lon="7.5149484"><ele>353.0</ele><time>2026-04-04T14:11:06.621Z</time></trkpt><trkpt lat="45.0777608" lon="7.5148158"><ele>353.0</ele><time>2026-04-04T14:11:07.619Z</time></trkpt><trkpt lat="45.0778061" lon="7.5146889"><ele>353.0</ele><time>2026-04-04T14:11:08.621Z</time></trkpt><trkpt lat="45.0778581" lon="7.5145681"><ele>353.0</ele><time>2026-04-04T14:11:09.62Z</time></trkpt><trkpt lat="45.0779184" lon="7.5144607"><ele>353.0</ele><time>2026-04-04T14:11:10.621Z</time></trkpt><trkpt lat="45.0779944" lon="7.5143819"><ele>353.0</ele><time>2026-04-04T14:11:11.62Z</time></trkpt><trkpt lat="45.0780541" lon="7.5142907"><ele>353.0</ele><time>2026-04-04T14:11:12.62Z</time></trkpt><trkpt lat="45.0780743" lon="7.5141818"><ele>353.0</ele><time>2026-04-04T14:11:13.621Z</time></trkpt><trkpt lat="45.0780766" lon="7.5140577"><ele>353.0</ele><time>2026-04-04T14:11:14.62Z</time></trkpt><trkpt lat="45.0780918" lon="7.5139161"><ele>353.0</ele><time>2026-04-04T14:11:15.621Z</time></trkpt><trkpt lat="45.078134" lon="7.5137647"><ele>353.0</ele><time>2026-04-04T14:11:16.621Z</time></trkpt><trkpt lat="45.0781848" lon="7.5136136"><ele>353.0</ele><time>2026-04-04T14:11:17.62Z</time></trkpt><trkpt lat="45.07824" lon="7.5134562"><ele>353.0</ele><time>2026-04-04T14:11:18.62Z</time></trkpt><trkpt lat="45.0782971" lon="7.5133008"><ele>353.0</ele><time>2026-04-04T14:11:19.62Z</time></trkpt><trkpt lat="45.0783513" lon="7.5131529"><ele>353.0</ele><time>2026-04-04T14:11:20.621Z</time></trkpt><trkpt lat="45.0784041" lon="7.5130067"><ele>353.0</ele><time>2026-04-04T14:11:21.619Z</time></trkpt><trkpt lat="45.0784536" lon="7.5128698"><ele>353.0</ele><time>2026-04-04T14:11:22.621Z</time></trkpt><trkpt lat="45.0785" lon="7.5127393"><ele>353.0</ele><time>2026-04-04T14:11:23.621Z</time></trkpt><trkpt lat="45.0785444" lon="7.5126233"><ele>353.0</ele><time>2026-04-04T14:11:24.62Z</time></trkpt><trkpt lat="45.0785832" lon="7.512528"><ele>353.0</ele><time>2026-04-04T14:11:25.621Z</time></trkpt><trkpt lat="45.0786434" lon="7.5123991"><ele>353.0</ele><time>2026-04-04T14:11:27.62Z</time></trkpt><trkpt lat="45.0787058" lon="7.5122909"><ele>353.0</ele><time>2026-04-04T14:11:29.619Z</time></trkpt><trkpt lat="45.0787485" lon="7.5121314"><ele>353.0</ele><time>2026-04-04T14:11:31.621Z</time></trkpt><trkpt lat="45.0787797" lon="7.511985"><ele>353.0</ele><time>2026-04-04T14:11:33.62Z</time></trkpt><trkpt lat="45.0788298" lon="7.5118422"><ele>353.0</ele><time>2026-04-04T14:11:35.62Z</time></trkpt><trkpt lat="45.0788622" lon="7.5117593"><ele>353.0</ele><time>2026-04-04T14:11:36.62Z</time></trkpt><trkpt lat="45.078894" lon="7.5116642"><ele>353.0</ele><time>2026-04-04T14:11:37.619Z</time></trkpt><trkpt lat="45.0789248" lon="7.5115614"><ele>353.0</ele><time>2026-04-04T14:11:38.621Z</time></trkpt><trkpt lat="45.0789571" lon="7.5114513"><ele>353.0</ele><time>2026-04-04T14:11:39.62Z</time></trkpt><trkpt lat="45.0789944" lon="7.5113468"><ele>353.0</ele><time>2026-04-04T14:11:40.621Z</time></trkpt><trkpt lat="45.0790316" lon="7.5112453"><ele>353.0</ele><time>2026-04-04T14:11:41.619Z</time></trkpt><trkpt lat="45.0790704" lon="7.5111452"><ele>353.0</ele><time>2026-04-04T14:11:42.62Z</time></trkpt><trkpt lat="45.0791082" lon="7.5110536"><ele>353.0</ele><time>2026-04-04T14:11:43.62Z</time></trkpt><trkpt lat="45.0791438" lon="7.5109601"><ele>353.0</ele><time>2026-04-04T14:11:44.62Z</time></trkpt><trkpt lat="45.0791793" lon="7.5108611"><ele>353.0</ele><time>2026-04-04T14:11:45.621Z</time></trkpt><trkpt lat="45.0792175" lon="7.5107545"><ele>353.0</ele><time>2026-04-04T14:11:46.619Z</time></trkpt><trkpt lat="45.0792615" lon="7.5106294"><ele>353.0</ele><time>2026-04-04T14:11:47.62Z</time></trkpt><trkpt lat="45.0793095" lon="7.5104913"><ele>353.0</ele><time>2026-04-04T14:11:48.62Z</time></trkpt><trkpt lat="45.0793645" lon="7.5103489"><ele>353.0</ele><time>2026-04-04T14:11:49.621Z</time></trkpt><trkpt lat="45.0794253" lon="7.5102006"><ele>353.0</ele><time>2026-04-04T14:11:50.621Z</time></trkpt><trkpt lat="45.0794855" lon="7.5100395"><ele>353.25</ele><time>2026-04-04T14:11:51.621Z</time></trkpt><trkpt lat="45.0795487" lon="7.5098713"><ele>353.5</ele><time>2026-04-04T14:11:52.62Z</time></trkpt><trkpt lat="45.0796115" lon="7.509705"><ele>353.75</ele><time>2026-04-04T14:11:53.62Z</time></trkpt><trkpt lat="45.0796702" lon="7.5095472"><ele>354.0</ele><time>2026-04-04T14:11:54.62Z</time></trkpt><trkpt lat="45.0797281" lon="7.5093968"><ele>354.2</ele><time>2026-04-04T14:11:55.62Z</time></trkpt><trkpt lat="45.0797833" lon="7.5092499"><ele>354.4</ele><time>2026-04-04T14:11:56.621Z</time></trkpt><trkpt lat="45.0798333" lon="7.5091143"><ele>354.6</ele><time>2026-04-04T14:11:57.621Z</time></trkpt><trkpt lat="45.0798783" lon="7.5089879"><ele>354.8</ele><time>2026-04-04T14:11:58.62Z</time></trkpt><trkpt lat="45.0799202" lon="7.5088716"><ele>355.0</ele><time>2026-04-04T14:11:59.619Z</time></trkpt><trkpt lat="45.0799555" lon="7.5087761"><ele>355.16666666666663</ele><time>2026-04-04T14:12:00.621Z</time></trkpt><trkpt lat="45.0799908" lon="7.5086813"><ele>355.3333333333333</ele><time>2026-04-04T14:12:02.62Z</time></trkpt><trkpt lat="45.0800497" lon="7.5085632"><ele>355.5</ele><time>2026-04-04T14:12:07.62Z</time></trkpt><trkpt lat="45.0800876" lon="7.5084733"><ele>355.6666666666667</ele><time>2026-04-04T14:12:09.62Z</time></trkpt><trkpt lat="45.0801197" lon="7.5083886"><ele>355.83333333333337</ele><time>2026-04-04T14:12:12.621Z</time></trkpt><trkpt lat="45.0801635" lon="7.5082995"><ele>356.0</ele><time>2026-04-04T14:12:16.62Z</time></trkpt><trkpt lat="45.0802206" lon="7.5081892"><ele>356.0</ele><time>2026-04-04T14:12:18.62Z</time></trkpt><trkpt lat="45.0802566" lon="7.5080184"><ele>356.0</ele><time>2026-04-04T14:12:20.62Z</time></trkpt><trkpt lat="45.0802928" lon="7.5079215"><ele>356.0</ele><time>2026-04-04T14:12:21.621Z</time></trkpt><trkpt lat="45.080353" lon="7.5077929"><ele>356.0</ele><time>2026-04-04T14:12:22.621Z</time></trkpt><trkpt lat="45.0804164" lon="7.5076334"><ele>356.0</ele><time>2026-04-04T14:12:23.619Z</time></trkpt><trkpt lat="45.0804901" lon="7.5074414"><ele>356.0</ele><time>2026-04-04T14:12:24.62Z</time></trkpt><trkpt lat="45.0805591" lon="7.5072374"><ele>356.0</ele><time>2026-04-04T14:12:25.62Z</time></trkpt><trkpt lat="45.0806361" lon="7.5070214"><ele>356.0</ele><time>2026-04-04T14:12:26.618Z</time></trkpt><trkpt lat="45.0807092" lon="7.5068131"><ele>355.75</ele><time>2026-04-04T14:12:27.618Z</time></trkpt><trkpt lat="45.0807854" lon="7.5066158"><ele>355.5</ele><time>2026-04-04T14:12:28.619Z</time></trkpt><trkpt lat="45.0808558" lon="7.5064289"><ele>355.25</ele><time>2026-04-04T14:12:29.619Z</time></trkpt><trkpt lat="45.0809193" lon="7.5062504"><ele>355.0</ele><time>2026-04-04T14:12:30.618Z</time></trkpt><trkpt lat="45.0809888" lon="7.5060718"><ele>356.25</ele><time>2026-04-04T14:12:31.62Z</time></trkpt><trkpt lat="45.0810586" lon="7.5059106"><ele>357.5</ele><time>2026-04-04T14:12:32.62Z</time></trkpt><trkpt lat="45.081127" lon="7.5057672"><ele>358.75</ele><time>2026-04-04T14:12:33.619Z</time></trkpt><trkpt lat="45.0811993" lon="7.5056261"><ele>360.0</ele><time>2026-04-04T14:12:34.619Z</time></trkpt><trkpt lat="45.0812726" lon="7.5055177"><ele>360.0</ele><time>2026-04-04T14:12:35.618Z</time></trkpt><trkpt lat="45.0813353" lon="7.505445"><ele>360.0</ele><time>2026-04-04T14:12:36.62Z</time></trkpt><trkpt lat="45.0813738" lon="7.5053493"><ele>360.0</ele><time>2026-04-04T14:12:37.619Z</time></trkpt><trkpt lat="45.0813829" lon="7.5052349"><ele>360.0</ele><time>2026-04-04T14:12:38.619Z</time></trkpt><trkpt lat="45.0813931" lon="7.5050942"><ele>360.0</ele><time>2026-04-04T14:12:39.619Z</time></trkpt><trkpt lat="45.0814309" lon="7.5049332"><ele>360.0</ele><time>2026-04-04T14:12:40.62Z</time></trkpt><trkpt lat="45.0814871" lon="7.5047611"><ele>360.0</ele><time>2026-04-04T14:12:41.619Z</time></trkpt><trkpt lat="45.0815585" lon="7.5045742"><ele>360.0</ele><time>2026-04-04T14:12:42.618Z</time></trkpt><trkpt lat="45.0816303" lon="7.5043825"><ele>360.0</ele><time>2026-04-04T14:12:43.62Z</time></trkpt><trkpt lat="45.0817071" lon="7.5041937"><ele>360.0</ele><time>2026-04-04T14:12:44.619Z</time></trkpt><trkpt lat="45.0817774" lon="7.5039892"><ele>360.0</ele><time>2026-04-04T14:12:45.619Z</time></trkpt><trkpt lat="45.0818642" lon="7.5037452"><ele>360.0</ele><time>2026-04-04T14:12:46.619Z</time></trkpt><trkpt lat="45.0819558" lon="7.5034682"><ele>360.0</ele><time>2026-04-04T14:12:47.619Z</time></trkpt><trkpt lat="45.0820516" lon="7.5032012"><ele>360.0</ele><time>2026-04-04T14:12:48.62Z</time></trkpt><trkpt lat="45.0821495" lon="7.5029365"><ele>360.0</ele><time>2026-04-04T14:12:49.618Z</time></trkpt><trkpt lat="45.0822448" lon="7.5026831"><ele>360.3333333333333</ele><time>2026-04-04T14:12:50.619Z</time></trkpt><trkpt lat="45.0823382" lon="7.5024395"><ele>360.66666666666663</ele><time>2026-04-04T14:12:51.619Z</time></trkpt><trkpt lat="45.0824303" lon="7.502207"><ele>361.0</ele><time>2026-04-04T14:12:52.618Z</time></trkpt><trkpt lat="45.0825231" lon="7.5019951"><ele>360.5</ele><time>2026-04-04T14:12:53.619Z</time></trkpt><trkpt lat="45.0826088" lon="7.5018099"><ele>360.0</ele><time>2026-04-04T14:12:54.62Z</time></trkpt><trkpt lat="45.0826781" lon="7.5016526"><ele>359.5</ele><time>2026-04-04T14:12:55.619Z</time></trkpt><trkpt lat="45.0827487" lon="7.5015107"><ele>359.0</ele><time>2026-04-04T14:12:56.618Z</time></trkpt><trkpt lat="45.0827857" lon="7.501363"><ele>359.0</ele><time>2026-04-04T14:12:57.619Z</time></trkpt><trkpt lat="45.0828204" lon="7.5012007"><ele>359.0</ele><time>2026-04-04T14:12:58.619Z</time></trkpt><trkpt lat="45.082884" lon="7.5010306"><ele>359.0</ele><time>2026-04-04T14:12:59.62Z</time></trkpt><trkpt lat="45.0829577" lon="7.5008551"><ele>359.0</ele><time>2026-04-04T14:13:00.619Z</time></trkpt><trkpt lat="45.0830327" lon="7.5006647"><ele>359.0</ele><time>2026-04-04T14:13:01.618Z</time></trkpt><trkpt lat="45.0831086" lon="7.5004655"><ele>359.0</ele><time>2026-04-04T14:13:02.62Z</time></trkpt><trkpt lat="45.08319" lon="7.5002551"><ele>359.0</ele><time>2026-04-04T14:13:03.619Z</time></trkpt><trkpt lat="45.0832761" lon="7.5000424"><ele>359.0</ele><time>2026-04-04T14:13:04.62Z</time></trkpt><trkpt lat="45.0833566" lon="7.4998243"><ele>359.0</ele><time>2026-04-04T14:13:05.618Z</time></trkpt><trkpt lat="45.0834402" lon="7.4996022"><ele>359.0</ele><time>2026-04-04T14:13:06.62Z</time></trkpt><trkpt lat="45.0835238" lon="7.4993714"><ele>359.0</ele><time>2026-04-04T14:13:07.618Z</time></trkpt><trkpt lat="45.0836146" lon="7.4991409"><ele>359.0</ele><time>2026-04-04T14:13:08.619Z</time></trkpt><trkpt lat="45.0837045" lon="7.498901"><ele>359.0</ele><time>2026-04-04T14:13:09.62Z</time></trkpt><trkpt lat="45.0837961" lon="7.4986471"><ele>361.0</ele><time>2026-04-04T14:13:10.619Z</time></trkpt><trkpt lat="45.0838913" lon="7.4983888"><ele>363.0</ele><time>2026-04-04T14:13:11.619Z</time></trkpt><trkpt lat="45.0839905" lon="7.4981272"><ele>365.0</ele><time>2026-04-04T14:13:12.62Z</time></trkpt><trkpt lat="45.0840835" lon="7.4978637"><ele>363.33333333333337</ele><time>2026-04-04T14:13:13.619Z</time></trkpt><trkpt lat="45.0841782" lon="7.4975965"><ele>361.6666666666667</ele><time>2026-04-04T14:13:14.62Z</time></trkpt><trkpt lat="45.0842601" lon="7.4973205"><ele>360.0</ele><time>2026-04-04T14:13:15.619Z</time></trkpt><trkpt lat="45.0843327" lon="7.4970377"><ele>360.0</ele><time>2026-04-04T14:13:16.619Z</time></trkpt><trkpt lat="45.0843875" lon="7.4967491"><ele>360.0</ele><time>2026-04-04T14:13:17.619Z</time></trkpt><trkpt lat="45.0844169" lon="7.4964625"><ele>360.0</ele><time>2026-04-04T14:13:18.619Z</time></trkpt><trkpt lat="45.0844338" lon="7.4961811"><ele>359.0</ele><time>2026-04-04T14:13:19.62Z</time></trkpt><trkpt lat="45.0844495" lon="7.4959029"><ele>358.0</ele><time>2026-04-04T14:13:20.62Z</time></trkpt><trkpt lat="45.0844593" lon="7.4956272"><ele>357.0</ele><time>2026-04-04T14:13:21.618Z</time></trkpt><trkpt lat="45.0844609" lon="7.495353"><ele>355.3333333333333</ele><time>2026-04-04T14:13:22.619Z</time></trkpt><trkpt lat="45.0844457" lon="7.4950825"><ele>353.66666666666663</ele><time>2026-04-04T14:13:23.62Z</time></trkpt><trkpt lat="45.0844104" lon="7.4948184"><ele>352.0</ele><time>2026-04-04T14:13:24.62Z</time></trkpt><trkpt lat="45.0843608" lon="7.4945599"><ele>350.0</ele><time>2026-04-04T14:13:25.62Z</time></trkpt><trkpt lat="45.0843093" lon="7.4943038"><ele>348.0</ele><time>2026-04-04T14:13:26.619Z</time></trkpt><trkpt lat="45.0842714" lon="7.4940435"><ele>346.0</ele><time>2026-04-04T14:13:27.62Z</time></trkpt><trkpt lat="45.084253" lon="7.4937822"><ele>344.3333333333333</ele><time>2026-04-04T14:13:28.619Z</time></trkpt><trkpt lat="45.0842578" lon="7.4935134"><ele>342.6666666666667</ele><time>2026-04-04T14:13:29.619Z</time></trkpt><trkpt lat="45.0842942" lon="7.4932422"><ele>341.0</ele><time>2026-04-04T14:13:30.62Z</time></trkpt><trkpt lat="45.0843584" lon="7.4929704"><ele>340.6666666666667</ele><time>2026-04-04T14:13:31.62Z</time></trkpt><trkpt lat="45.0844476" lon="7.4927099"><ele>340.3333333333333</ele><time>2026-04-04T14:13:32.62Z</time></trkpt><trkpt lat="45.0845501" lon="7.4924608"><ele>340.0</ele><time>2026-04-04T14:13:33.619Z</time></trkpt><trkpt lat="45.0846516" lon="7.4922075"><ele>340.0</ele><time>2026-04-04T14:13:34.619Z</time></trkpt><trkpt lat="45.0847541" lon="7.4919423"><ele>340.0</ele><time>2026-04-04T14:13:35.619Z</time></trkpt><trkpt lat="45.0848545" lon="7.4916793"><ele>340.0</ele><time>2026-04-04T14:13:36.62Z</time></trkpt><trkpt lat="45.0849412" lon="7.4914035"><ele>339.66666666666663</ele><time>2026-04-04T14:13:37.619Z</time></trkpt><trkpt lat="45.0850054" lon="7.4911229"><ele>339.3333333333333</ele><time>2026-04-04T14:13:38.618Z</time></trkpt><trkpt lat="45.0850517" lon="7.4908389"><ele>339.0</ele><time>2026-04-04T14:13:39.62Z</time></trkpt><trkpt lat="45.0850815" lon="7.4905513"><ele>338.6666666666667</ele><time>2026-04-04T14:13:40.619Z</time></trkpt><trkpt lat="45.0850954" lon="7.4902586"><ele>338.33333333333337</ele><time>2026-04-04T14:13:41.619Z</time></trkpt><trkpt lat="45.0850877" lon="7.4899685"><ele>338.0</ele><time>2026-04-04T14:13:42.62Z</time></trkpt><trkpt lat="45.0850753" lon="7.4896724"><ele>338.33333333333337</ele><time>2026-04-04T14:13:43.62Z</time></trkpt><trkpt lat="45.0850659" lon="7.4893749"><ele>338.6666666666667</ele><time>2026-04-04T14:13:44.619Z</time></trkpt><trkpt lat="45.0850609" lon="7.4890712"><ele>339.0</ele><time>2026-04-04T14:13:45.62Z</time></trkpt><trkpt lat="45.0850536" lon="7.4887612"><ele>338.6666666666667</ele><time>2026-04-04T14:13:46.619Z</time></trkpt><trkpt lat="45.0850454" lon="7.488448"><ele>338.33333333333337</ele><time>2026-04-04T14:13:47.619Z</time></trkpt><trkpt lat="45.0850371" lon="7.48813"><ele>338.0</ele><time>2026-04-04T14:13:48.62Z</time></trkpt><trkpt lat="45.0850279" lon="7.4878129"><ele>337.0</ele><time>2026-04-04T14:13:49.618Z</time></trkpt><trkpt lat="45.0850188" lon="7.4874905"><ele>336.0</ele><time>2026-04-04T14:13:50.62Z</time></trkpt><trkpt lat="45.0850074" lon="7.4871611"><ele>336.0</ele><time>2026-04-04T14:13:51.62Z</time></trkpt><trkpt lat="45.0849939" lon="7.4868296"><ele>336.0</ele><time>2026-04-04T14:13:52.618Z</time></trkpt><trkpt lat="45.0849823" lon="7.4864951"><ele>335.0</ele><time>2026-04-04T14:13:53.619Z</time></trkpt><trkpt lat="45.0849729" lon="7.4861621"><ele>334.0</ele><time>2026-04-04T14:13:54.619Z</time></trkpt><trkpt lat="45.0849648" lon="7.4858388"><ele>334.0</ele><time>2026-04-04T14:13:55.619Z</time></trkpt><trkpt lat="45.0849543" lon="7.4855195"><ele>334.0</ele><time>2026-04-04T14:13:56.619Z</time></trkpt><trkpt lat="45.0849439" lon="7.4852083"><ele>334.0</ele><time>2026-04-04T14:13:57.619Z</time></trkpt><trkpt lat="45.0849316" lon="7.4849081"><ele>334.0</ele><time>2026-04-04T14:13:58.619Z</time></trkpt><trkpt lat="45.0849213" lon="7.4846146"><ele>334.0</ele><time>2026-04-04T14:13:59.619Z</time></trkpt><trkpt lat="45.0849133" lon="7.4843337"><ele>334.0</ele><time>2026-04-04T14:14:00.619Z</time></trkpt><trkpt lat="45.0849105" lon="7.4840643"><ele>334.0</ele><time>2026-04-04T14:14:01.62Z</time></trkpt><trkpt lat="45.0849083" lon="7.4838102"><ele>334.0</ele><time>2026-04-04T14:14:02.618Z</time></trkpt><trkpt lat="45.0849014" lon="7.4835627"><ele>334.0</ele><time>2026-04-04T14:14:03.62Z</time></trkpt><trkpt lat="45.0848941" lon="7.4833281"><ele>333.25</ele><time>2026-04-04T14:14:04.62Z</time></trkpt><trkpt lat="45.0848905" lon="7.4831134"><ele>332.5</ele><time>2026-04-04T14:14:05.619Z</time></trkpt><trkpt lat="45.0848863" lon="7.4829364"><ele>331.75</ele><time>2026-04-04T14:14:06.62Z</time></trkpt><trkpt lat="45.0848819" lon="7.482771"><ele>331.0</ele><time>2026-04-04T14:14:07.62Z</time></trkpt><trkpt lat="45.0848884" lon="7.4826192"><ele>330.8</ele><time>2026-04-04T14:14:08.62Z</time></trkpt><trkpt lat="45.084903" lon="7.4824694"><ele>330.6</ele><time>2026-04-04T14:14:09.619Z</time></trkpt><trkpt lat="45.0849301" lon="7.4823372"><ele>330.4</ele><time>2026-04-04T14:14:10.619Z</time></trkpt><trkpt lat="45.0849619" lon="7.4822183"><ele>330.2</ele><time>2026-04-04T14:14:11.619Z</time></trkpt><trkpt lat="45.0849975" lon="7.482088"><ele>330.0</ele><time>2026-04-04T14:14:12.619Z</time></trkpt><trkpt lat="45.0850211" lon="7.4819402"><ele>330.0</ele><time>2026-04-04T14:14:13.618Z</time></trkpt><trkpt lat="45.0850145" lon="7.4817832"><ele>330.0</ele><time>2026-04-04T14:14:14.62Z</time></trkpt><trkpt lat="45.0849795" lon="7.4816268"><ele>330.0</ele><time>2026-04-04T14:14:15.619Z</time></trkpt><trkpt lat="45.0849213" lon="7.4814648"><ele>330.0</ele><time>2026-04-04T14:14:16.62Z</time></trkpt><trkpt lat="45.0848773" lon="7.4812733"><ele>331.0</ele><time>2026-04-04T14:14:17.62Z</time></trkpt><trkpt lat="45.0848501" lon="7.4810563"><ele>332.0</ele><time>2026-04-04T14:14:18.619Z</time></trkpt><trkpt lat="45.0848329" lon="7.4808108"><ele>333.0</ele><time>2026-04-04T14:14:19.619Z</time></trkpt><trkpt lat="45.084822" lon="7.4805588"><ele>333.0</ele><time>2026-04-04T14:14:20.62Z</time></trkpt><trkpt lat="45.0848149" lon="7.4802974"><ele>333.0</ele><time>2026-04-04T14:14:21.619Z</time></trkpt><trkpt lat="45.0848093" lon="7.4800112"><ele>333.0</ele><time>2026-04-04T14:14:22.619Z</time></trkpt><trkpt lat="45.0848038" lon="7.4797053"><ele>333.0</ele><time>2026-04-04T14:14:23.62Z</time></trkpt><trkpt lat="45.0847973" lon="7.4793877"><ele>333.0</ele><time>2026-04-04T14:14:24.62Z</time></trkpt><trkpt lat="45.0847889" lon="7.4790706"><ele>333.0</ele><time>2026-04-04T14:14:25.62Z</time></trkpt><trkpt lat="45.0847789" lon="7.4787403"><ele>333.0</ele><time>2026-04-04T14:14:26.619Z</time></trkpt><trkpt lat="45.0847701" lon="7.4783962"><ele>333.0</ele><time>2026-04-04T14:14:27.619Z</time></trkpt><trkpt lat="45.0847618" lon="7.4780343"><ele>332.5</ele><time>2026-04-04T14:14:28.62Z</time></trkpt><trkpt lat="45.0847527" lon="7.4776722"><ele>332.0</ele><time>2026-04-04T14:14:29.62Z</time></trkpt><trkpt lat="45.0847416" lon="7.4772948"><ele>332.5</ele><time>2026-04-04T14:14:30.619Z</time></trkpt><trkpt lat="45.0847305" lon="7.4769109"><ele>333.0</ele><time>2026-04-04T14:14:31.62Z</time></trkpt><trkpt lat="45.0847211" lon="7.4765174"><ele>332.0</ele><time>2026-04-04T14:14:32.62Z</time></trkpt><trkpt lat="45.0847115" lon="7.476121"><ele>331.0</ele><time>2026-04-04T14:14:33.62Z</time></trkpt><trkpt lat="45.0846999" lon="7.4757269"><ele>330.5</ele><time>2026-04-04T14:14:34.618Z</time></trkpt><trkpt lat="45.0846897" lon="7.4753349"><ele>330.0</ele><time>2026-04-04T14:14:35.619Z</time></trkpt><trkpt lat="45.0846776" lon="7.4749491"><ele>330.5</ele><time>2026-04-04T14:14:36.619Z</time></trkpt><trkpt lat="45.0846693" lon="7.4745728"><ele>331.0</ele><time>2026-04-04T14:14:37.618Z</time></trkpt><trkpt lat="45.0846597" lon="7.4742011"><ele>331.0</ele><time>2026-04-04T14:14:38.619Z</time></trkpt><trkpt lat="45.0846481" lon="7.4738332"><ele>331.0</ele><time>2026-04-04T14:14:39.619Z</time></trkpt><trkpt lat="45.0846379" lon="7.4734823"><ele>331.0</ele><time>2026-04-04T14:14:40.618Z</time></trkpt><trkpt lat="45.0846294" lon="7.4731724"><ele>331.0</ele><time>2026-04-04T14:14:41.62Z</time></trkpt><trkpt lat="45.0846215" lon="7.4728988"><ele>331.0</ele><time>2026-04-04T14:14:42.619Z</time></trkpt><trkpt lat="45.0846161" lon="7.4726609"><ele>331.0</ele><time>2026-04-04T14:14:43.619Z</time></trkpt><trkpt lat="45.0846107" lon="7.4724503"><ele>331.0</ele><time>2026-04-04T14:14:44.619Z</time></trkpt><trkpt lat="45.0846071" lon="7.4722671"><ele>331.0</ele><time>2026-04-04T14:14:45.62Z</time></trkpt><trkpt lat="45.0846028" lon="7.4721304"><ele>331.0</ele><time>2026-04-04T14:14:46.618Z</time></trkpt><trkpt lat="45.0845998" lon="7.4720395"><ele>331.0</ele><time>2026-04-04T14:14:47.619Z</time></trkpt><trkpt lat="45.0845866" lon="7.4718913"><ele>330.75</ele><time>2026-04-04T14:15:06.618Z</time></trkpt><trkpt lat="45.0845887" lon="7.4717659"><ele>330.5</ele><time>2026-04-04T14:15:07.617Z</time></trkpt><trkpt lat="45.0845882" lon="7.4716276"><ele>330.25</ele><time>2026-04-04T14:15:08.618Z</time></trkpt><trkpt lat="45.0845836" lon="7.4714502"><ele>330.0</ele><time>2026-04-04T14:15:09.618Z</time></trkpt><trkpt lat="45.0845752" lon="7.4712293"><ele>329.6666666666667</ele><time>2026-04-04T14:15:10.618Z</time></trkpt><trkpt lat="45.0845699" lon="7.4709932"><ele>329.33333333333337</ele><time>2026-04-04T14:15:11.619Z</time></trkpt><trkpt lat="45.0845634" lon="7.4707353"><ele>329.0</ele><time>2026-04-04T14:15:12.617Z</time></trkpt><trkpt lat="45.0845547" lon="7.47046"><ele>328.6666666666667</ele><time>2026-04-04T14:15:13.618Z</time></trkpt><trkpt lat="45.084548" lon="7.4701687"><ele>328.3333333333333</ele><time>2026-04-04T14:15:14.618Z</time></trkpt><trkpt lat="45.0845399" lon="7.4698545"><ele>328.0</ele><time>2026-04-04T14:15:15.618Z</time></trkpt><trkpt lat="45.084531" lon="7.4695147"><ele>330.0</ele><time>2026-04-04T14:15:16.619Z</time></trkpt><trkpt lat="45.0845289" lon="7.4691479"><ele>332.0</ele><time>2026-04-04T14:15:17.618Z</time></trkpt><trkpt lat="45.0845276" lon="7.4687296"><ele>332.0</ele><time>2026-04-04T14:15:18.618Z</time></trkpt><trkpt lat="45.0845206" lon="7.4683467"><ele>332.0</ele><time>2026-04-04T14:15:19.617Z</time></trkpt><trkpt lat="45.0845115" lon="7.4679386"><ele>332.0</ele><time>2026-04-04T14:15:20.619Z</time></trkpt><trkpt lat="45.0845009" lon="7.4675259"><ele>332.0</ele><time>2026-04-04T14:15:21.618Z</time></trkpt><trkpt lat="45.0844913" lon="7.4671784"><ele>331.5</ele><time>2026-04-04T14:15:22.618Z</time></trkpt><trkpt lat="45.0844807" lon="7.4668233"><ele>331.0</ele><time>2026-04-04T14:15:23.618Z</time></trkpt><trkpt lat="45.0844708" lon="7.4664832"><ele>331.5</ele><time>2026-04-04T14:15:24.617Z</time></trkpt><trkpt lat="45.0844591" lon="7.4661497"><ele>332.0</ele><time>2026-04-04T14:15:25.619Z</time></trkpt><trkpt lat="45.0844473" lon="7.465803"><ele>332.0</ele><time>2026-04-04T14:15:26.619Z</time></trkpt><trkpt lat="45.0844398" lon="7.4655065"><ele>332.0</ele><time>2026-04-04T14:15:27.618Z</time></trkpt><trkpt lat="45.0844337" lon="7.4652037"><ele>332.0</ele><time>2026-04-04T14:15:28.618Z</time></trkpt><trkpt lat="45.084427" lon="7.4649204"><ele>332.0</ele><time>2026-04-04T14:15:29.617Z</time></trkpt><trkpt lat="45.0844205" lon="7.4646505"><ele>332.0</ele><time>2026-04-04T14:15:30.618Z</time></trkpt><trkpt lat="45.084414" lon="7.4643917"><ele>332.0</ele><time>2026-04-04T14:15:31.617Z</time></trkpt><trkpt lat="45.0844074" lon="7.4641407"><ele>332.0</ele><time>2026-04-04T14:15:32.618Z</time></trkpt><trkpt lat="45.0844027" lon="7.4638924"><ele>332.0</ele><time>2026-04-04T14:15:33.618Z</time></trkpt><trkpt lat="45.084404" lon="7.463641"><ele>332.0</ele><time>2026-04-04T14:15:34.619Z</time></trkpt><trkpt lat="45.0844125" lon="7.4634353"><ele>331.5</ele><time>2026-04-04T14:15:35.618Z</time></trkpt><trkpt lat="45.0844325" lon="7.4632226"><ele>331.0</ele><time>2026-04-04T14:15:36.618Z</time></trkpt><trkpt lat="45.0844707" lon="7.4630134"><ele>330.5</ele><time>2026-04-04T14:15:37.618Z</time></trkpt><trkpt lat="45.0845042" lon="7.4628394"><ele>330.0</ele><time>2026-04-04T14:15:38.619Z</time></trkpt><trkpt lat="45.0845197" lon="7.4626638"><ele>329.75</ele><time>2026-04-04T14:15:39.618Z</time></trkpt><trkpt lat="45.0845026" lon="7.4624919"><ele>329.5</ele><time>2026-04-04T14:15:40.618Z</time></trkpt><trkpt lat="45.08445" lon="7.4623204"><ele>329.25</ele><time>2026-04-04T14:15:41.617Z</time></trkpt><trkpt lat="45.0843888" lon="7.4621269"><ele>329.0</ele><time>2026-04-04T14:15:42.619Z</time></trkpt><trkpt lat="45.0843429" lon="7.4619192"><ele>328.6666666666667</ele><time>2026-04-04T14:15:43.618Z</time></trkpt><trkpt lat="45.0843169" lon="7.4616753"><ele>328.3333333333333</ele><time>2026-04-04T14:15:44.619Z</time></trkpt><trkpt lat="45.084311" lon="7.4614157"><ele>328.0</ele><time>2026-04-04T14:15:45.618Z</time></trkpt><trkpt lat="45.0843131" lon="7.4611429"><ele>327.66666666666663</ele><time>2026-04-04T14:15:46.618Z</time></trkpt><trkpt lat="45.0843108" lon="7.4608638"><ele>327.3333333333333</ele><time>2026-04-04T14:15:47.618Z</time></trkpt><trkpt lat="45.0843037" lon="7.4605792"><ele>327.0</ele><time>2026-04-04T14:15:48.618Z</time></trkpt><trkpt lat="45.0842978" lon="7.4602842"><ele>327.0</ele><time>2026-04-04T14:15:49.619Z</time></trkpt><trkpt lat="45.0842915" lon="7.4599661"><ele>327.0</ele><time>2026-04-04T14:15:50.619Z</time></trkpt><trkpt lat="45.0842851" lon="7.4596781"><ele>327.0</ele><time>2026-04-04T14:15:51.618Z</time></trkpt><trkpt lat="45.0842772" lon="7.4593645"><ele>327.0</ele><time>2026-04-04T14:15:52.619Z</time></trkpt><trkpt lat="45.0842683" lon="7.4590287"><ele>327.0</ele><time>2026-04-04T14:15:53.619Z</time></trkpt><trkpt lat="45.0842606" lon="7.4587292"><ele>327.0</ele><time>2026-04-04T14:15:54.618Z</time></trkpt><trkpt lat="45.0842519" lon="7.4584031"><ele>327.5</ele><time>2026-04-04T14:15:55.618Z</time></trkpt><trkpt lat="45.0842427" lon="7.4580741"><ele>328.0</ele><time>2026-04-04T14:15:56.617Z</time></trkpt><trkpt lat="45.0842331" lon="7.4577331"><ele>328.5</ele><time>2026-04-04T14:15:57.618Z</time></trkpt><trkpt lat="45.0842232" lon="7.4573705"><ele>329.0</ele><time>2026-04-04T14:15:58.619Z</time></trkpt><trkpt lat="45.0842109" lon="7.4570441"><ele>330.0</ele><time>2026-04-04T14:15:59.619Z</time></trkpt><trkpt lat="45.0841915" lon="7.456689"><ele>331.0</ele><time>2026-04-04T14:16:00.618Z</time></trkpt><trkpt lat="45.0841739" lon="7.4563244"><ele>332.5</ele><time>2026-04-04T14:16:01.619Z</time></trkpt><trkpt lat="45.0841603" lon="7.4559439"><ele>334.0</ele><time>2026-04-04T14:16:02.618Z</time></trkpt><trkpt lat="45.0841515" lon="7.455552"><ele>334.0</ele><time>2026-04-04T14:16:03.619Z</time></trkpt><trkpt lat="45.0841481" lon="7.4551533"><ele>334.0</ele><time>2026-04-04T14:16:04.619Z</time></trkpt><trkpt lat="45.0841451" lon="7.454742"><ele>333.5</ele><time>2026-04-04T14:16:05.619Z</time></trkpt><trkpt lat="45.0841372" lon="7.4542975"><ele>333.0</ele><time>2026-04-04T14:16:06.619Z</time></trkpt><trkpt lat="45.0841268" lon="7.4539023"><ele>334.0</ele><time>2026-04-04T14:16:07.619Z</time></trkpt><trkpt lat="45.0841168" lon="7.4534836"><ele>335.0</ele><time>2026-04-04T14:16:08.618Z</time></trkpt><trkpt lat="45.0841089" lon="7.4530467"><ele>335.5</ele><time>2026-04-04T14:16:09.618Z</time></trkpt><trkpt lat="45.0841013" lon="7.4526701"><ele>336.0</ele><time>2026-04-04T14:16:10.618Z</time></trkpt><trkpt lat="45.0840934" lon="7.4522861"><ele>335.0</ele><time>2026-04-04T14:16:11.618Z</time></trkpt><trkpt lat="45.0840871" lon="7.4519244"><ele>334.0</ele><time>2026-04-04T14:16:12.618Z</time></trkpt><trkpt lat="45.0840831" lon="7.4515717"><ele>334.0</ele><time>2026-04-04T14:16:13.617Z</time></trkpt><trkpt lat="45.0840822" lon="7.4512087"><ele>334.0</ele><time>2026-04-04T14:16:14.619Z</time></trkpt><trkpt lat="45.0840837" lon="7.4508935"><ele>334.0</ele><time>2026-04-04T14:16:15.618Z</time></trkpt><trkpt lat="45.0840866" lon="7.4505696"><ele>334.0</ele><time>2026-04-04T14:16:16.619Z</time></trkpt><trkpt lat="45.084088" lon="7.4502602"><ele>334.0</ele><time>2026-04-04T14:16:17.619Z</time></trkpt><trkpt lat="45.084089" lon="7.4499653"><ele>334.3333333333333</ele><time>2026-04-04T14:16:18.618Z</time></trkpt><trkpt lat="45.0840914" lon="7.4496871"><ele>334.6666666666667</ele><time>2026-04-04T14:16:19.618Z</time></trkpt><trkpt lat="45.0840968" lon="7.4494275"><ele>335.0</ele><time>2026-04-04T14:16:20.618Z</time></trkpt><trkpt lat="45.0841071" lon="7.4491887"><ele>334.75</ele><time>2026-04-04T14:16:21.618Z</time></trkpt><trkpt lat="45.0841259" lon="7.4489606"><ele>334.5</ele><time>2026-04-04T14:16:22.617Z</time></trkpt><trkpt lat="45.0841417" lon="7.4487689"><ele>334.25</ele><time>2026-04-04T14:16:23.618Z</time></trkpt><trkpt lat="45.0841351" lon="7.4485657"><ele>334.0</ele><time>2026-04-04T14:16:24.619Z</time></trkpt><trkpt lat="45.0840921" lon="7.4483493"><ele>334.0</ele><time>2026-04-04T14:16:25.619Z</time></trkpt><trkpt lat="45.0840532" lon="7.4481335"><ele>334.0</ele><time>2026-04-04T14:16:26.618Z</time></trkpt><trkpt lat="45.0840253" lon="7.4478792"><ele>334.0</ele><time>2026-04-04T14:16:27.617Z</time></trkpt><trkpt lat="45.0840059" lon="7.447615"><ele>334.0</ele><time>2026-04-04T14:16:28.618Z</time></trkpt><trkpt lat="45.0839843" lon="7.4473297"><ele>334.0</ele><time>2026-04-04T14:16:29.617Z</time></trkpt><trkpt lat="45.0839637" lon="7.4470193"><ele>334.0</ele><time>2026-04-04T14:16:30.619Z</time></trkpt><trkpt lat="45.0839465" lon="7.4467318"><ele>334.0</ele><time>2026-04-04T14:16:31.618Z</time></trkpt><trkpt lat="45.0839271" lon="7.4464225"><ele>334.0</ele><time>2026-04-04T14:16:32.618Z</time></trkpt><trkpt lat="45.0839047" lon="7.4461085"><ele>334.0</ele><time>2026-04-04T14:16:33.619Z</time></trkpt><trkpt lat="45.0838787" lon="7.4457846"><ele>333.5</ele><time>2026-04-04T14:16:34.617Z</time></trkpt><trkpt lat="45.0838534" lon="7.4454511"><ele>333.0</ele><time>2026-04-04T14:16:35.619Z</time></trkpt><trkpt lat="45.0838347" lon="7.4451127"><ele>333.0</ele><time>2026-04-04T14:16:36.619Z</time></trkpt><trkpt lat="45.0838217" lon="7.4447676"><ele>333.0</ele><time>2026-04-04T14:16:37.619Z</time></trkpt><trkpt lat="45.0838108" lon="7.4443999"><ele>332.5</ele><time>2026-04-04T14:16:38.619Z</time></trkpt><trkpt lat="45.0838018" lon="7.4440728"><ele>332.0</ele><time>2026-04-04T14:16:39.618Z</time></trkpt><trkpt lat="45.0837923" lon="7.4437204"><ele>333.0</ele><time>2026-04-04T14:16:40.618Z</time></trkpt><trkpt lat="45.0837833" lon="7.4433491"><ele>334.0</ele><time>2026-04-04T14:16:41.619Z</time></trkpt><trkpt lat="45.0837738" lon="7.4430198"><ele>334.5</ele><time>2026-04-04T14:16:42.617Z</time></trkpt><trkpt lat="45.0837588" lon="7.4426673"><ele>335.0</ele><time>2026-04-04T14:16:43.618Z</time></trkpt><trkpt lat="45.083745" lon="7.442319"><ele>335.5</ele><time>2026-04-04T14:16:44.619Z</time></trkpt><trkpt lat="45.0837339" lon="7.4419683"><ele>336.0</ele><time>2026-04-04T14:16:45.619Z</time></trkpt><trkpt lat="45.0837239" lon="7.4415986"><ele>335.5</ele><time>2026-04-04T14:16:46.619Z</time></trkpt><trkpt lat="45.0837161" lon="7.4412708"><ele>335.0</ele><time>2026-04-04T14:16:47.619Z</time></trkpt><trkpt lat="45.0837111" lon="7.4409203"><ele>335.0</ele><time>2026-04-04T14:16:48.618Z</time></trkpt><trkpt lat="45.0837093" lon="7.4405742"><ele>335.0</ele><time>2026-04-04T14:16:49.618Z</time></trkpt><trkpt lat="45.0837063" lon="7.4402248"><ele>335.5</ele><time>2026-04-04T14:16:50.618Z</time></trkpt><trkpt lat="45.0837023" lon="7.4398753"><ele>336.0</ele><time>2026-04-04T14:16:51.617Z</time></trkpt><trkpt lat="45.0836959" lon="7.4395321"><ele>336.0</ele><time>2026-04-04T14:16:52.618Z</time></trkpt><trkpt lat="45.0836884" lon="7.4391997"><ele>336.0</ele><time>2026-04-04T14:16:53.618Z</time></trkpt><trkpt lat="45.0836809" lon="7.4388602"><ele>336.0</ele><time>2026-04-04T14:16:54.618Z</time></trkpt><trkpt lat="45.0836743" lon="7.4385677"><ele>336.0</ele><time>2026-04-04T14:16:55.617Z</time></trkpt><trkpt lat="45.0836671" lon="7.4382623"><ele>336.0</ele><time>2026-04-04T14:16:56.618Z</time></trkpt><trkpt lat="45.0836586" lon="7.437947"><ele>336.0</ele><time>2026-04-04T14:16:57.618Z</time></trkpt><trkpt lat="45.083651" lon="7.4376707"><ele>336.0</ele><time>2026-04-04T14:16:58.619Z</time></trkpt><trkpt lat="45.0836434" lon="7.4373807"><ele>336.0</ele><time>2026-04-04T14:16:59.619Z</time></trkpt><trkpt lat="45.0836367" lon="7.4370991"><ele>336.3333333333333</ele><time>2026-04-04T14:17:00.619Z</time></trkpt><trkpt lat="45.0836307" lon="7.4368237"><ele>336.66666666666663</ele><time>2026-04-04T14:17:01.617Z</time></trkpt><trkpt lat="45.0836241" lon="7.4365467"><ele>337.0</ele><time>2026-04-04T14:17:02.618Z</time></trkpt><trkpt lat="45.0836175" lon="7.4363148"><ele>336.66666666666663</ele><time>2026-04-04T14:17:03.618Z</time></trkpt><trkpt lat="45.0836077" lon="7.4360814"><ele>336.3333333333333</ele><time>2026-04-04T14:17:04.618Z</time></trkpt><trkpt lat="45.0835944" lon="7.435864"><ele>336.0</ele><time>2026-04-04T14:17:05.618Z</time></trkpt><trkpt lat="45.0835794" lon="7.4356557"><ele>337.0</ele><time>2026-04-04T14:17:06.618Z</time></trkpt><trkpt lat="45.0835654" lon="7.4354502"><ele>338.0</ele><time>2026-04-04T14:17:07.618Z</time></trkpt><trkpt lat="45.0835549" lon="7.4352499"><ele>339.0</ele><time>2026-04-04T14:17:08.618Z</time></trkpt><trkpt lat="45.0835466" lon="7.4350468"><ele>340.0</ele><time>2026-04-04T14:17:09.618Z</time></trkpt><trkpt lat="45.0835403" lon="7.4348291"><ele>339.66666666666663</ele><time>2026-04-04T14:17:10.618Z</time></trkpt><trkpt lat="45.0835358" lon="7.4346316"><ele>339.3333333333333</ele><time>2026-04-04T14:17:11.618Z</time></trkpt><trkpt lat="45.083532" lon="7.4344175"><ele>339.0</ele><time>2026-04-04T14:17:12.618Z</time></trkpt><trkpt lat="45.0835281" lon="7.4341909"><ele>339.0</ele><time>2026-04-04T14:17:13.618Z</time></trkpt><trkpt lat="45.0835242" lon="7.4339891"><ele>339.0</ele><time>2026-04-04T14:17:14.618Z</time></trkpt><trkpt lat="45.0835192" lon="7.4337725"><ele>339.0</ele><time>2026-04-04T14:17:15.618Z</time></trkpt><trkpt lat="45.0835129" lon="7.4335575"><ele>339.0</ele><time>2026-04-04T14:17:16.618Z</time></trkpt><trkpt lat="45.0835052" lon="7.433344"><ele>339.0</ele><time>2026-04-04T14:17:17.618Z</time></trkpt><trkpt lat="45.0834965" lon="7.4331249"><ele>339.0</ele><time>2026-04-04T14:17:18.618Z</time></trkpt><trkpt lat="45.0834909" lon="7.4329347"><ele>339.0</ele><time>2026-04-04T14:17:19.618Z</time></trkpt><trkpt lat="45.0834883" lon="7.4327478"><ele>339.0</ele><time>2026-04-04T14:17:20.619Z</time></trkpt><trkpt lat="45.0834871" lon="7.4325639"><ele>339.0</ele><time>2026-04-04T14:17:21.618Z</time></trkpt><trkpt lat="45.083485" lon="7.4323877"><ele>339.0</ele><time>2026-04-04T14:17:22.618Z</time></trkpt><trkpt lat="45.0834808" lon="7.4322186"><ele>339.0</ele><time>2026-04-04T14:17:23.619Z</time></trkpt><trkpt lat="45.0834765" lon="7.4320659"><ele>339.0</ele><time>2026-04-04T14:17:24.619Z</time></trkpt><trkpt lat="45.0834729" lon="7.4319231"><ele>339.0</ele><time>2026-04-04T14:17:25.619Z</time></trkpt><trkpt lat="45.0834699" lon="7.4317843"><ele>339.0</ele><time>2026-04-04T14:17:26.619Z</time></trkpt><trkpt lat="45.0834678" lon="7.4316708"><ele>339.0</ele><time>2026-04-04T14:17:27.618Z</time></trkpt><trkpt lat="45.0834654" lon="7.4315602"><ele>339.0</ele><time>2026-04-04T14:17:28.617Z</time></trkpt><trkpt lat="45.0834621" lon="7.431466"><ele>339.0</ele><time>2026-04-04T14:17:29.617Z</time></trkpt><trkpt lat="45.0834523" lon="7.4313345"><ele>339.0</ele><time>2026-04-04T14:18:00.617Z</time></trkpt><trkpt lat="45.08345" lon="7.4312448"><ele>339.0</ele><time>2026-04-04T14:18:01.617Z</time></trkpt><trkpt lat="45.083447" lon="7.4311398"><ele>339.0</ele><time>2026-04-04T14:18:02.617Z</time></trkpt><trkpt lat="45.0834435" lon="7.4310175"><ele>339.0</ele><time>2026-04-04T14:18:03.617Z</time></trkpt><trkpt lat="45.0834402" lon="7.4308791"><ele>339.0</ele><time>2026-04-04T14:18:04.617Z</time></trkpt><trkpt lat="45.0834362" lon="7.4307263"><ele>339.0</ele><time>2026-04-04T14:18:05.617Z</time></trkpt><trkpt lat="45.0834306" lon="7.4305502"><ele>339.0</ele><time>2026-04-04T14:18:06.618Z</time></trkpt><trkpt lat="45.0834251" lon="7.4303874"><ele>339.0</ele><time>2026-04-04T14:18:07.618Z</time></trkpt><trkpt lat="45.0834184" lon="7.4302005"><ele>339.0</ele><time>2026-04-04T14:18:08.616Z</time></trkpt><trkpt lat="45.0834121" lon="7.4300049"><ele>339.0</ele><time>2026-04-04T14:18:09.617Z</time></trkpt><trkpt lat="45.0834058" lon="7.4297985"><ele>339.0</ele><time>2026-04-04T14:18:10.617Z</time></trkpt><trkpt lat="45.0833987" lon="7.4295875"><ele>339.0</ele><time>2026-04-04T14:18:11.618Z</time></trkpt><trkpt lat="45.0833923" lon="7.4293803"><ele>339.0</ele><time>2026-04-04T14:18:12.618Z</time></trkpt><trkpt lat="45.083387" lon="7.4291768"><ele>339.0</ele><time>2026-04-04T14:18:13.618Z</time></trkpt><trkpt lat="45.0833814" lon="7.4289623"><ele>339.0</ele><time>2026-04-04T14:18:14.617Z</time></trkpt><trkpt lat="45.0833762" lon="7.4287833"><ele>339.0</ele><time>2026-04-04T14:18:15.617Z</time></trkpt><trkpt lat="45.0833709" lon="7.428593"><ele>339.0</ele><time>2026-04-04T14:18:16.616Z</time></trkpt><trkpt lat="45.0833636" lon="7.4283941"><ele>339.0</ele><time>2026-04-04T14:18:17.618Z</time></trkpt><trkpt lat="45.0833574" lon="7.4282165"><ele>339.0</ele><time>2026-04-04T14:18:18.618Z</time></trkpt><trkpt lat="45.083352" lon="7.4280225"><ele>339.0</ele><time>2026-04-04T14:18:19.617Z</time></trkpt><trkpt lat="45.0833471" lon="7.4278261"><ele>339.0</ele><time>2026-04-04T14:18:20.617Z</time></trkpt><trkpt lat="45.0833416" lon="7.4276242"><ele>339.0</ele><time>2026-04-04T14:18:21.618Z</time></trkpt><trkpt lat="45.0833358" lon="7.4274081"><ele>339.25</ele><time>2026-04-04T14:18:22.618Z</time></trkpt><trkpt lat="45.0833309" lon="7.4272304"><ele>339.5</ele><time>2026-04-04T14:18:23.618Z</time></trkpt><trkpt lat="45.083325" lon="7.4270384"><ele>339.75</ele><time>2026-04-04T14:18:24.618Z</time></trkpt><trkpt lat="45.08332" lon="7.4268747"><ele>340.0</ele><time>2026-04-04T14:18:25.617Z</time></trkpt><trkpt lat="45.0833138" lon="7.4266992"><ele>340.25</ele><time>2026-04-04T14:18:26.618Z</time></trkpt><trkpt lat="45.0833062" lon="7.4265041"><ele>340.5</ele><time>2026-04-04T14:18:27.617Z</time></trkpt><trkpt lat="45.0832945" lon="7.4263158"><ele>340.75</ele><time>2026-04-04T14:18:28.617Z</time></trkpt><trkpt lat="45.0832823" lon="7.4261008"><ele>341.0</ele><time>2026-04-04T14:18:29.617Z</time></trkpt><trkpt lat="45.0832767" lon="7.4258535"><ele>341.33333333333337</ele><time>2026-04-04T14:18:30.617Z</time></trkpt><trkpt lat="45.0832757" lon="7.4256218"><ele>341.6666666666667</ele><time>2026-04-04T14:18:31.618Z</time></trkpt><trkpt lat="45.0832757" lon="7.4253676"><ele>342.0</ele><time>2026-04-04T14:18:32.618Z</time></trkpt><trkpt lat="45.0832742" lon="7.4250973"><ele>341.3333333333333</ele><time>2026-04-04T14:18:33.617Z</time></trkpt><trkpt lat="45.0832686" lon="7.4248569"><ele>340.66666666666663</ele><time>2026-04-04T14:18:34.617Z</time></trkpt><trkpt lat="45.08326" lon="7.4245833"><ele>340.0</ele><time>2026-04-04T14:18:35.618Z</time></trkpt><trkpt lat="45.0832514" lon="7.4243359"><ele>340.0</ele><time>2026-04-04T14:18:36.618Z</time></trkpt><trkpt lat="45.0832449" lon="7.4240712"><ele>340.0</ele><time>2026-04-04T14:18:37.617Z</time></trkpt><trkpt lat="45.083239" lon="7.4237858"><ele>340.0</ele><time>2026-04-04T14:18:38.617Z</time></trkpt><trkpt lat="45.0832333" lon="7.4235346"><ele>339.66666666666663</ele><time>2026-04-04T14:18:39.616Z</time></trkpt><trkpt lat="45.0832264" lon="7.423253"><ele>339.3333333333333</ele><time>2026-04-04T14:18:40.617Z</time></trkpt><trkpt lat="45.0832199" lon="7.4230094"><ele>339.0</ele><time>2026-04-04T14:18:41.617Z</time></trkpt><trkpt lat="45.0832131" lon="7.4227575"><ele>339.0</ele><time>2026-04-04T14:18:42.617Z</time></trkpt><trkpt lat="45.0832058" lon="7.4224965"><ele>339.0</ele><time>2026-04-04T14:18:43.617Z</time></trkpt><trkpt lat="45.0831994" lon="7.4222651"><ele>339.0</ele><time>2026-04-04T14:18:44.617Z</time></trkpt><trkpt lat="45.0831926" lon="7.4220191"><ele>338.6666666666667</ele><time>2026-04-04T14:18:45.617Z</time></trkpt><trkpt lat="45.0831852" lon="7.4217534"><ele>338.33333333333337</ele><time>2026-04-04T14:18:46.617Z</time></trkpt><trkpt lat="45.0831784" lon="7.4215184"><ele>338.0</ele><time>2026-04-04T14:18:47.616Z</time></trkpt><trkpt lat="45.0831712" lon="7.4212581"><ele>338.0</ele><time>2026-04-04T14:18:48.617Z</time></trkpt><trkpt lat="45.0831631" lon="7.421015"><ele>338.0</ele><time>2026-04-04T14:18:49.617Z</time></trkpt><trkpt lat="45.0831566" lon="7.4207954"><ele>338.0</ele><time>2026-04-04T14:18:50.617Z</time></trkpt><trkpt lat="45.0831507" lon="7.4205616"><ele>337.75</ele><time>2026-04-04T14:18:51.617Z</time></trkpt><trkpt lat="45.0831458" lon="7.4203688"><ele>337.5</ele><time>2026-04-04T14:18:52.617Z</time></trkpt><trkpt lat="45.0831471" lon="7.4201765"><ele>337.25</ele><time>2026-04-04T14:18:53.616Z</time></trkpt><trkpt lat="45.0831703" lon="7.4199899"><ele>337.0</ele><time>2026-04-04T14:18:54.617Z</time></trkpt><trkpt lat="45.0832195" lon="7.4198377"><ele>337.5</ele><time>2026-04-04T14:18:55.618Z</time></trkpt><trkpt lat="45.0832906" lon="7.4196836"><ele>338.0</ele><time>2026-04-04T14:18:56.617Z</time></trkpt><trkpt lat="45.0833328" lon="7.4195415"><ele>338.5</ele><time>2026-04-04T14:18:57.617Z</time></trkpt><trkpt lat="45.0833475" lon="7.4193805"><ele>339.0</ele><time>2026-04-04T14:18:58.618Z</time></trkpt><trkpt lat="45.0833193" lon="7.4192086"><ele>339.5</ele><time>2026-04-04T14:18:59.617Z</time></trkpt><trkpt lat="45.0832565" lon="7.4190725"><ele>340.0</ele><time>2026-04-04T14:19:00.617Z</time></trkpt><trkpt lat="45.0831763" lon="7.4189232"><ele>340.5</ele><time>2026-04-04T14:19:01.618Z</time></trkpt><trkpt lat="45.0831159" lon="7.4187741"><ele>341.0</ele><time>2026-04-04T14:19:02.616Z</time></trkpt><trkpt lat="45.0830945" lon="7.4186164"><ele>341.0</ele><time>2026-04-04T14:19:03.618Z</time></trkpt><trkpt lat="45.0830844" lon="7.4184185"><ele>341.0</ele><time>2026-04-04T14:19:04.617Z</time></trkpt><trkpt lat="45.0830818" lon="7.4181998"><ele>341.0</ele><time>2026-04-04T14:19:05.617Z</time></trkpt><trkpt lat="45.0830856" lon="7.4179697"><ele>341.0</ele><time>2026-04-04T14:19:06.618Z</time></trkpt><trkpt lat="45.0831062" lon="7.417708"><ele>341.0</ele><time>2026-04-04T14:19:07.616Z</time></trkpt><trkpt lat="45.0831365" lon="7.4174761"><ele>341.0</ele><time>2026-04-04T14:19:08.617Z</time></trkpt><trkpt lat="45.0831734" lon="7.4172054"><ele>340.6666666666667</ele><time>2026-04-04T14:19:09.617Z</time></trkpt><trkpt lat="45.0832265" lon="7.4169672"><ele>340.3333333333333</ele><time>2026-04-04T14:19:10.617Z</time></trkpt><trkpt lat="45.0832802" lon="7.4167685"><ele>340.0</ele><time>2026-04-04T14:19:11.617Z</time></trkpt><trkpt lat="45.0833506" lon="7.4165474"><ele>340.0</ele><time>2026-04-04T14:19:12.617Z</time></trkpt><trkpt lat="45.0834224" lon="7.4163507"><ele>340.0</ele><time>2026-04-04T14:19:13.617Z</time></trkpt><trkpt lat="45.0835044" lon="7.4161359"><ele>340.0</ele><time>2026-04-04T14:19:14.618Z</time></trkpt><trkpt lat="45.0835946" lon="7.4159022"><ele>340.0</ele><time>2026-04-04T14:19:15.617Z</time></trkpt><trkpt lat="45.0836742" lon="7.4156901"><ele>340.0</ele><time>2026-04-04T14:19:16.617Z</time></trkpt><trkpt lat="45.0837604" lon="7.4154572"><ele>340.0</ele><time>2026-04-04T14:19:17.617Z</time></trkpt><trkpt lat="45.0838517" lon="7.4152093"><ele>340.0</ele><time>2026-04-04T14:19:18.617Z</time></trkpt><trkpt lat="45.0839323" lon="7.4149899"><ele>340.0</ele><time>2026-04-04T14:19:19.616Z</time></trkpt><trkpt lat="45.0840199" lon="7.4147499"><ele>340.0</ele><time>2026-04-04T14:19:20.617Z</time></trkpt><trkpt lat="45.0841007" lon="7.4145282"><ele>340.66666666666663</ele><time>2026-04-04T14:19:21.617Z</time></trkpt><trkpt lat="45.0841743" lon="7.4143276"><ele>341.3333333333333</ele><time>2026-04-04T14:19:22.617Z</time></trkpt><trkpt lat="45.0842546" lon="7.4141079"><ele>342.0</ele><time>2026-04-04T14:19:23.617Z</time></trkpt><trkpt lat="45.0843229" lon="7.4139193"><ele>341.75</ele><time>2026-04-04T14:19:24.618Z</time></trkpt><trkpt lat="45.0843936" lon="7.4137295"><ele>341.5</ele><time>2026-04-04T14:19:25.617Z</time></trkpt><trkpt lat="45.0844626" lon="7.4135451"><ele>341.25</ele><time>2026-04-04T14:19:26.617Z</time></trkpt><trkpt lat="45.08452" lon="7.4133997"><ele>341.0</ele><time>2026-04-04T14:19:27.616Z</time></trkpt><trkpt lat="45.0845822" lon="7.413259"><ele>341.0</ele><time>2026-04-04T14:19:28.618Z</time></trkpt><trkpt lat="45.0846368" lon="7.4131565"><ele>341.0</ele><time>2026-04-04T14:19:29.618Z</time></trkpt><trkpt lat="45.084698" lon="7.4130683"><ele>341.0</ele><time>2026-04-04T14:19:30.617Z</time></trkpt><trkpt lat="45.0847752" lon="7.4129951"><ele>341.0</ele><time>2026-04-04T14:19:31.616Z</time></trkpt><trkpt lat="45.0848565" lon="7.4129502"><ele>341.0</ele><time>2026-04-04T14:19:32.618Z</time></trkpt><trkpt lat="45.0849496" lon="7.4129058"><ele>340.8</ele><time>2026-04-04T14:19:33.618Z</time></trkpt><trkpt lat="45.0850441" lon="7.41284"><ele>340.6</ele><time>2026-04-04T14:19:34.617Z</time></trkpt><trkpt lat="45.0851174" lon="7.4127623"><ele>340.4</ele><time>2026-04-04T14:19:35.617Z</time></trkpt><trkpt lat="45.0851847" lon="7.4126589"><ele>340.2</ele><time>2026-04-04T14:19:36.617Z</time></trkpt><trkpt lat="45.0852283" lon="7.4125515"><ele>340.0</ele><time>2026-04-04T14:19:37.617Z</time></trkpt><trkpt lat="45.0852503" lon="7.4124553"><ele>340.0</ele><time>2026-04-04T14:19:38.618Z</time></trkpt><trkpt lat="45.085259" lon="7.4123532"><ele>340.0</ele><time>2026-04-04T14:19:39.618Z</time></trkpt><trkpt lat="45.0852454" lon="7.4122163"><ele>340.0</ele><time>2026-04-04T14:19:41.617Z</time></trkpt><trkpt lat="45.0852103" lon="7.412078"><ele>340.0</ele><time>2026-04-04T14:19:43.617Z</time></trkpt><trkpt lat="45.0851872" lon="7.4119828"><ele>340.0</ele><time>2026-04-04T14:19:44.617Z</time></trkpt><trkpt lat="45.0851713" lon="7.4118834"><ele>340.0</ele><time>2026-04-04T14:19:45.618Z</time></trkpt><trkpt lat="45.0851641" lon="7.4117685"><ele>340.0</ele><time>2026-04-04T14:19:46.617Z</time></trkpt><trkpt lat="45.0851702" lon="7.411648"><ele>340.0</ele><time>2026-04-04T14:19:47.618Z</time></trkpt><trkpt lat="45.0851884" lon="7.4115478"><ele>340.0</ele><time>2026-04-04T14:19:48.617Z</time></trkpt><trkpt lat="45.0852159" lon="7.4114434"><ele>340.0</ele><time>2026-04-04T14:19:49.617Z</time></trkpt><trkpt lat="45.0852501" lon="7.4113271"><ele>340.0</ele><time>2026-04-04T14:19:50.617Z</time></trkpt><trkpt lat="45.0852833" lon="7.4112179"><ele>340.0</ele><time>2026-04-04T14:19:51.618Z</time></trkpt><trkpt lat="45.085322" lon="7.4110894"><ele>339.8333333333333</ele><time>2026-04-04T14:19:52.618Z</time></trkpt><trkpt lat="45.0853581" lon="7.4109667"><ele>339.66666666666663</ele><time>2026-04-04T14:19:53.617Z</time></trkpt><trkpt lat="45.0853881" lon="7.4108637"><ele>339.5</ele><time>2026-04-04T14:19:54.618Z</time></trkpt><trkpt lat="45.0854221" lon="7.4107504"><ele>339.3333333333333</ele><time>2026-04-04T14:19:55.617Z</time></trkpt><trkpt lat="45.0854544" lon="7.4106429"><ele>339.1666666666667</ele><time>2026-04-04T14:19:56.618Z</time></trkpt><trkpt lat="45.0854899" lon="7.4105199"><ele>339.0</ele><time>2026-04-04T14:19:57.617Z</time></trkpt><trkpt lat="45.0855276" lon="7.410382"><ele>338.79999999999995</ele><time>2026-04-04T14:19:58.618Z</time></trkpt><trkpt lat="45.0855603" lon="7.410256"><ele>338.59999999999997</ele><time>2026-04-04T14:19:59.618Z</time></trkpt><trkpt lat="45.0855963" lon="7.4101127"><ele>338.4</ele><time>2026-04-04T14:20:00.616Z</time></trkpt><trkpt lat="45.0856276" lon="7.4099854"><ele>338.2</ele><time>2026-04-04T14:20:01.617Z</time></trkpt><trkpt lat="45.0856597" lon="7.4098498"><ele>338.0</ele><time>2026-04-04T14:20:02.617Z</time></trkpt><trkpt lat="45.0856922" lon="7.409709"><ele>338.0</ele><time>2026-04-04T14:20:03.617Z</time></trkpt><trkpt lat="45.0857181" lon="7.4095886"><ele>338.0</ele><time>2026-04-04T14:20:04.617Z</time></trkpt><trkpt lat="45.0857441" lon="7.409466"><ele>338.0</ele><time>2026-04-04T14:20:05.618Z</time></trkpt><trkpt lat="45.0857713" lon="7.4093409"><ele>338.0</ele><time>2026-04-04T14:20:06.618Z</time></trkpt><trkpt lat="45.0857938" lon="7.4092321"><ele>338.0</ele><time>2026-04-04T14:20:07.618Z</time></trkpt><trkpt lat="45.085817" lon="7.4091147"><ele>338.0</ele><time>2026-04-04T14:20:08.617Z</time></trkpt><trkpt lat="45.0858419" lon="7.408987"><ele>338.1666666666667</ele><time>2026-04-04T14:20:09.618Z</time></trkpt><trkpt lat="45.0858626" lon="7.4088735"><ele>338.33333333333337</ele><time>2026-04-04T14:20:10.618Z</time></trkpt><trkpt lat="45.0858862" lon="7.4087478"><ele>338.5</ele><time>2026-04-04T14:20:11.617Z</time></trkpt><trkpt lat="45.0859074" lon="7.4086393"><ele>338.6666666666667</ele><time>2026-04-04T14:20:12.617Z</time></trkpt><trkpt lat="45.0859294" lon="7.4085311"><ele>338.8333333333333</ele><time>2026-04-04T14:20:13.616Z</time></trkpt><trkpt lat="45.0859531" lon="7.4084194"><ele>339.0</ele><time>2026-04-04T14:20:14.616Z</time></trkpt><trkpt lat="45.0859735" lon="7.4083278"><ele>339.4</ele><time>2026-04-04T14:20:15.617Z</time></trkpt><trkpt lat="45.086005" lon="7.4082104"><ele>339.79999999999995</ele><time>2026-04-04T14:20:17.616Z</time></trkpt><trkpt lat="45.0860538" lon="7.4081015"><ele>340.20000000000005</ele><time>2026-04-04T14:20:20.616Z</time></trkpt><trkpt lat="45.0861687" lon="7.4079887"><ele>340.6</ele><time>2026-04-04T14:20:22.617Z</time></trkpt><trkpt lat="45.0862155" lon="7.4079167"><ele>341.0</ele><time>2026-04-04T14:20:23.617Z</time></trkpt><trkpt lat="45.0862454" lon="7.4078173"><ele>341.0</ele><time>2026-04-04T14:20:24.616Z</time></trkpt><trkpt lat="45.0862487" lon="7.4076881"><ele>341.0</ele><time>2026-04-04T14:20:25.616Z</time></trkpt><trkpt lat="45.0862323" lon="7.4075603"><ele>341.0</ele><time>2026-04-04T14:20:26.616Z</time></trkpt><trkpt lat="45.086221" lon="7.4073991"><ele>341.0</ele><time>2026-04-04T14:20:27.616Z</time></trkpt><trkpt lat="45.0862345" lon="7.4072494"><ele>341.0</ele><time>2026-04-04T14:20:28.616Z</time></trkpt><trkpt lat="45.0862673" lon="7.407082"><ele>341.0</ele><time>2026-04-04T14:20:29.615Z</time></trkpt><trkpt lat="45.0863148" lon="7.4068927"><ele>341.0</ele><time>2026-04-04T14:20:30.616Z</time></trkpt><trkpt lat="45.0863597" lon="7.4067156"><ele>341.0</ele><time>2026-04-04T14:20:31.616Z</time></trkpt><trkpt lat="45.0864102" lon="7.4065189"><ele>341.0</ele><time>2026-04-04T14:20:32.617Z</time></trkpt><trkpt lat="45.0864651" lon="7.4063127"><ele>341.0</ele><time>2026-04-04T14:20:33.616Z</time></trkpt><trkpt lat="45.0865239" lon="7.4061071"><ele>341.0</ele><time>2026-04-04T14:20:34.617Z</time></trkpt><trkpt lat="45.0865933" lon="7.4058876"><ele>341.0</ele><time>2026-04-04T14:20:35.616Z</time></trkpt><trkpt lat="45.0866621" lon="7.4056888"><ele>340.6666666666667</ele><time>2026-04-04T14:20:36.616Z</time></trkpt><trkpt lat="45.0867388" lon="7.4054724"><ele>340.3333333333333</ele><time>2026-04-04T14:20:37.616Z</time></trkpt><trkpt lat="45.0868225" lon="7.4052327"><ele>340.0</ele><time>2026-04-04T14:20:38.615Z</time></trkpt><trkpt lat="45.0868977" lon="7.4050169"><ele>340.0</ele><time>2026-04-04T14:20:39.617Z</time></trkpt><trkpt lat="45.0869772" lon="7.4047851"><ele>340.0</ele><time>2026-04-04T14:20:40.616Z</time></trkpt><trkpt lat="45.0870594" lon="7.4045355"><ele>340.0</ele><time>2026-04-04T14:20:41.616Z</time></trkpt><trkpt lat="45.0871282" lon="7.4043146"><ele>340.3333333333333</ele><time>2026-04-04T14:20:42.616Z</time></trkpt><trkpt lat="45.0872081" lon="7.404065"><ele>340.6666666666667</ele><time>2026-04-04T14:20:43.616Z</time></trkpt><trkpt lat="45.0872795" lon="7.4038519"><ele>341.0</ele><time>2026-04-04T14:20:44.615Z</time></trkpt><trkpt lat="45.0873547" lon="7.403635"><ele>340.6666666666667</ele><time>2026-04-04T14:20:45.617Z</time></trkpt><trkpt lat="45.0874339" lon="7.4034133"><ele>340.3333333333333</ele><time>2026-04-04T14:20:46.617Z</time></trkpt><trkpt lat="45.0875001" lon="7.4032285"><ele>340.0</ele><time>2026-04-04T14:20:47.616Z</time></trkpt><trkpt lat="45.0875662" lon="7.4030448"><ele>340.2</ele><time>2026-04-04T14:20:48.617Z</time></trkpt><trkpt lat="45.0876272" lon="7.4028721"><ele>340.4</ele><time>2026-04-04T14:20:49.615Z</time></trkpt><trkpt lat="45.087683" lon="7.4027147"><ele>340.6</ele><time>2026-04-04T14:20:50.616Z</time></trkpt><trkpt lat="45.0877327" lon="7.4025805"><ele>340.8</ele><time>2026-04-04T14:20:51.616Z</time></trkpt><trkpt lat="45.0877698" lon="7.4024852"><ele>341.0</ele><time>2026-04-04T14:20:52.617Z</time></trkpt><trkpt lat="45.0878213" lon="7.4023681"><ele>341.0</ele><time>2026-04-04T14:20:54.616Z</time></trkpt><trkpt lat="45.0878852" lon="7.4022484"><ele>341.0</ele><time>2026-04-04T14:20:57.616Z</time></trkpt><trkpt lat="45.0879302" lon="7.4021238"><ele>341.0</ele><time>2026-04-04T14:20:59.616Z</time></trkpt><trkpt lat="45.0879457" lon="7.4019594"><ele>341.0</ele><time>2026-04-04T14:21:01.616Z</time></trkpt><trkpt lat="45.087972" lon="7.401841"><ele>341.0</ele><time>2026-04-04T14:21:02.616Z</time></trkpt><trkpt lat="45.0880076" lon="7.4017218"><ele>341.25</ele><time>2026-04-04T14:21:03.617Z</time></trkpt><trkpt lat="45.0880571" lon="7.4015634"><ele>341.5</ele><time>2026-04-04T14:21:04.616Z</time></trkpt><trkpt lat="45.0881175" lon="7.4013728"><ele>341.75</ele><time>2026-04-04T14:21:05.616Z</time></trkpt><trkpt lat="45.0881938" lon="7.4011439"><ele>342.0</ele><time>2026-04-04T14:21:06.617Z</time></trkpt><trkpt lat="45.0882891" lon="7.4008601"><ele>342.5</ele><time>2026-04-04T14:21:07.616Z</time></trkpt><trkpt lat="45.0883722" lon="7.4005727"><ele>343.0</ele><time>2026-04-04T14:21:08.616Z</time></trkpt><trkpt lat="45.088448" lon="7.4002348"><ele>343.5</ele><time>2026-04-04T14:21:09.616Z</time></trkpt><trkpt lat="45.0885134" lon="7.3998415"><ele>344.0</ele><time>2026-04-04T14:21:10.617Z</time></trkpt><trkpt lat="45.0885568" lon="7.39947"><ele>344.0</ele><time>2026-04-04T14:21:11.617Z</time></trkpt><trkpt lat="45.0885904" lon="7.3990574"><ele>344.0</ele><time>2026-04-04T14:21:12.615Z</time></trkpt><trkpt lat="45.0886133" lon="7.3986117"><ele>344.5</ele><time>2026-04-04T14:21:13.615Z</time></trkpt><trkpt lat="45.0886232" lon="7.3982409"><ele>345.0</ele><time>2026-04-04T14:21:14.616Z</time></trkpt><trkpt lat="45.0886314" lon="7.3978376"><ele>345.0</ele><time>2026-04-04T14:21:15.616Z</time></trkpt><trkpt lat="45.0886384" lon="7.397507"><ele>345.0</ele><time>2026-04-04T14:21:16.616Z</time></trkpt><trkpt lat="45.0886485" lon="7.3971682"><ele>344.3333333333333</ele><time>2026-04-04T14:21:17.617Z</time></trkpt><trkpt lat="45.0886579" lon="7.3968318"><ele>343.66666666666663</ele><time>2026-04-04T14:21:18.616Z</time></trkpt><trkpt lat="45.088664" lon="7.3965542"><ele>343.0</ele><time>2026-04-04T14:21:19.616Z</time></trkpt><trkpt lat="45.088672" lon="7.3962773"><ele>343.0</ele><time>2026-04-04T14:21:20.615Z</time></trkpt><trkpt lat="45.0886792" lon="7.3960124"><ele>343.0</ele><time>2026-04-04T14:21:21.617Z</time></trkpt><trkpt lat="45.0886862" lon="7.3957638"><ele>343.0</ele><time>2026-04-04T14:21:22.615Z</time></trkpt><trkpt lat="45.0886945" lon="7.3955013"><ele>343.66666666666663</ele><time>2026-04-04T14:21:23.616Z</time></trkpt><trkpt lat="45.0887007" lon="7.3952697"><ele>344.3333333333333</ele><time>2026-04-04T14:21:24.616Z</time></trkpt><trkpt lat="45.0887038" lon="7.395017"><ele>345.0</ele><time>2026-04-04T14:21:25.617Z</time></trkpt><trkpt lat="45.0887057" lon="7.3947247"><ele>345.0</ele><time>2026-04-04T14:21:26.616Z</time></trkpt><trkpt lat="45.0887091" lon="7.3944543"><ele>345.0</ele><time>2026-04-04T14:21:27.615Z</time></trkpt><trkpt lat="45.088715" lon="7.3941805"><ele>345.0</ele><time>2026-04-04T14:21:28.616Z</time></trkpt><trkpt lat="45.0887161" lon="7.3939033"><ele>344.75</ele><time>2026-04-04T14:21:29.616Z</time></trkpt><trkpt lat="45.0887052" lon="7.3936874"><ele>344.5</ele><time>2026-04-04T14:21:30.616Z</time></trkpt><trkpt lat="45.0886945" lon="7.3934724"><ele>344.25</ele><time>2026-04-04T14:21:31.616Z</time></trkpt><trkpt lat="45.0886959" lon="7.393331"><ele>344.0</ele><time>2026-04-04T14:21:32.615Z</time></trkpt><trkpt lat="45.0887124" lon="7.3931816"><ele>344.25</ele><time>2026-04-04T14:21:33.616Z</time></trkpt><trkpt lat="45.0887199" lon="7.3930003"><ele>344.5</ele><time>2026-04-04T14:21:34.617Z</time></trkpt><trkpt lat="45.0886925" lon="7.3928373"><ele>344.75</ele><time>2026-04-04T14:21:35.616Z</time></trkpt><trkpt lat="45.0886695" lon="7.392659"><ele>345.0</ele><time>2026-04-04T14:21:36.615Z</time></trkpt><trkpt lat="45.0886742" lon="7.392482"><ele>345.0</ele><time>2026-04-04T14:21:37.616Z</time></trkpt><trkpt lat="45.0887159" lon="7.3923102"><ele>345.0</ele><time>2026-04-04T14:21:38.615Z</time></trkpt><trkpt lat="45.0887912" lon="7.3921082"><ele>345.0</ele><time>2026-04-04T14:21:39.617Z</time></trkpt><trkpt lat="45.0888706" lon="7.3919096"><ele>345.0</ele><time>2026-04-04T14:21:40.616Z</time></trkpt><trkpt lat="45.0889644" lon="7.3916816"><ele>345.0</ele><time>2026-04-04T14:21:41.616Z</time></trkpt><trkpt lat="45.0890687" lon="7.3914231"><ele>345.0</ele><time>2026-04-04T14:21:42.617Z</time></trkpt><trkpt lat="45.0891657" lon="7.3912049"><ele>345.0</ele><time>2026-04-04T14:21:43.616Z</time></trkpt><trkpt lat="45.0892689" lon="7.3909748"><ele>345.0</ele><time>2026-04-04T14:21:44.617Z</time></trkpt><trkpt lat="45.0893754" lon="7.390748"><ele>345.0</ele><time>2026-04-04T14:21:45.616Z</time></trkpt><trkpt lat="45.0894595" lon="7.3904883"><ele>345.0</ele><time>2026-04-04T14:21:46.617Z</time></trkpt><trkpt lat="45.0895622" lon="7.3902554"><ele>345.0</ele><time>2026-04-04T14:21:47.616Z</time></trkpt><trkpt lat="45.089647" lon="7.3900519"><ele>345.0</ele><time>2026-04-04T14:21:48.616Z</time></trkpt><trkpt lat="45.0897336" lon="7.3898481"><ele>345.0</ele><time>2026-04-04T14:21:49.615Z</time></trkpt><trkpt lat="45.0898206" lon="7.3896382"><ele>345.0</ele><time>2026-04-04T14:21:50.616Z</time></trkpt><trkpt lat="45.0898891" lon="7.3894696"><ele>345.0</ele><time>2026-04-04T14:21:51.616Z</time></trkpt><trkpt lat="45.0899527" lon="7.3893312"><ele>345.0</ele><time>2026-04-04T14:21:52.617Z</time></trkpt><trkpt lat="45.0900157" lon="7.3892347"><ele>345.0</ele><time>2026-04-04T14:21:53.616Z</time></trkpt><trkpt lat="45.0900799" lon="7.3891596"><ele>345.0</ele><time>2026-04-04T14:21:54.616Z</time></trkpt><trkpt lat="45.0901457" lon="7.3890783"><ele>345.0</ele><time>2026-04-04T14:21:55.617Z</time></trkpt><trkpt lat="45.0901939" lon="7.3889948"><ele>345.0</ele><time>2026-04-04T14:21:56.616Z</time></trkpt><trkpt lat="45.0902464" lon="7.3888875"><ele>345.0</ele><time>2026-04-04T14:21:57.615Z</time></trkpt><trkpt lat="45.0903126" lon="7.3887389"><ele>345.25</ele><time>2026-04-04T14:21:58.616Z</time></trkpt><trkpt lat="45.0903785" lon="7.3885898"><ele>345.5</ele><time>2026-04-04T14:21:59.616Z</time></trkpt><trkpt lat="45.0904478" lon="7.3884329"><ele>345.75</ele><time>2026-04-04T14:22:00.616Z</time></trkpt><trkpt lat="45.0905173" lon="7.3882786"><ele>346.0</ele><time>2026-04-04T14:22:01.617Z</time></trkpt><trkpt lat="45.0905793" lon="7.3881315"><ele>346.0</ele><time>2026-04-04T14:22:02.617Z</time></trkpt><trkpt lat="45.0906361" lon="7.3880076"><ele>346.0</ele><time>2026-04-04T14:22:03.617Z</time></trkpt><trkpt lat="45.0906873" lon="7.3878901"><ele>346.0</ele><time>2026-04-04T14:22:04.617Z</time></trkpt><trkpt lat="45.0907431" lon="7.3877683"><ele>346.0</ele><time>2026-04-04T14:22:05.617Z</time></trkpt><trkpt lat="45.0907992" lon="7.3876415"><ele>346.0</ele><time>2026-04-04T14:22:06.617Z</time></trkpt><trkpt lat="45.0908515" lon="7.3875207"><ele>346.0</ele><time>2026-04-04T14:22:07.617Z</time></trkpt><trkpt lat="45.0909024" lon="7.387397"><ele>346.0</ele><time>2026-04-04T14:22:08.617Z</time></trkpt><trkpt lat="45.0909567" lon="7.3872765"><ele>346.0</ele><time>2026-04-04T14:22:09.616Z</time></trkpt><trkpt lat="45.0910164" lon="7.3871402"><ele>346.0</ele><time>2026-04-04T14:22:10.616Z</time></trkpt><trkpt lat="45.0910815" lon="7.3869837"><ele>346.0</ele><time>2026-04-04T14:22:11.616Z</time></trkpt><trkpt lat="45.0911433" lon="7.3868391"><ele>346.25</ele><time>2026-04-04T14:22:12.616Z</time></trkpt><trkpt lat="45.0912069" lon="7.3866975"><ele>346.5</ele><time>2026-04-04T14:22:13.616Z</time></trkpt><trkpt lat="45.0912791" lon="7.3865349"><ele>346.75</ele><time>2026-04-04T14:22:14.616Z</time></trkpt><trkpt lat="45.0913558" lon="7.3863569"><ele>347.0</ele><time>2026-04-04T14:22:15.616Z</time></trkpt><trkpt lat="45.091436" lon="7.3861639"><ele>347.0</ele><time>2026-04-04T14:22:16.616Z</time></trkpt><trkpt lat="45.0915241" lon="7.3859579"><ele>347.0</ele><time>2026-04-04T14:22:17.616Z</time></trkpt><trkpt lat="45.0916145" lon="7.3857475"><ele>347.0</ele><time>2026-04-04T14:22:18.616Z</time></trkpt><trkpt lat="45.0917033" lon="7.3855315"><ele>346.6666666666667</ele><time>2026-04-04T14:22:19.617Z</time></trkpt><trkpt lat="45.0917837" lon="7.3853402"><ele>346.3333333333333</ele><time>2026-04-04T14:22:20.617Z</time></trkpt><trkpt lat="45.0918607" lon="7.385161"><ele>346.0</ele><time>2026-04-04T14:22:21.616Z</time></trkpt><trkpt lat="45.0919383" lon="7.3849778"><ele>346.0</ele><time>2026-04-04T14:22:22.616Z</time></trkpt><trkpt lat="45.0920163" lon="7.3848037"><ele>346.0</ele><time>2026-04-04T14:22:23.615Z</time></trkpt><trkpt lat="45.0920891" lon="7.3846328"><ele>346.0</ele><time>2026-04-04T14:22:24.616Z</time></trkpt><trkpt lat="45.0921539" lon="7.3844564"><ele>346.0</ele><time>2026-04-04T14:22:25.617Z</time></trkpt><trkpt lat="45.0922245" lon="7.3842767"><ele>346.0</ele><time>2026-04-04T14:22:26.617Z</time></trkpt><trkpt lat="45.0923116" lon="7.3841033"><ele>346.0</ele><time>2026-04-04T14:22:27.615Z</time></trkpt><trkpt lat="45.0923952" lon="7.3839219"><ele>346.0</ele><time>2026-04-04T14:22:28.615Z</time></trkpt><trkpt lat="45.0924778" lon="7.3837306"><ele>345.3333333333333</ele><time>2026-04-04T14:22:29.616Z</time></trkpt><trkpt lat="45.0925586" lon="7.3835409"><ele>344.6666666666667</ele><time>2026-04-04T14:22:30.616Z</time></trkpt><trkpt lat="45.0926364" lon="7.383346"><ele>344.0</ele><time>2026-04-04T14:22:31.616Z</time></trkpt><trkpt lat="45.0927157" lon="7.3831685"><ele>344.25</ele><time>2026-04-04T14:22:32.616Z</time></trkpt><trkpt lat="45.0927902" lon="7.3829933"><ele>344.5</ele><time>2026-04-04T14:22:33.616Z</time></trkpt><trkpt lat="45.0928694" lon="7.3828131"><ele>344.75</ele><time>2026-04-04T14:22:34.617Z</time></trkpt><trkpt lat="45.0929393" lon="7.3826402"><ele>345.0</ele><time>2026-04-04T14:22:35.617Z</time></trkpt><trkpt lat="45.0930029" lon="7.3824826"><ele>345.0</ele><time>2026-04-04T14:22:36.615Z</time></trkpt><trkpt lat="45.0930611" lon="7.3823424"><ele>345.0</ele><time>2026-04-04T14:22:37.615Z</time></trkpt><trkpt lat="45.0931146" lon="7.3822298"><ele>345.0</ele><time>2026-04-04T14:22:38.616Z</time></trkpt><trkpt lat="45.0931558" lon="7.3821201"><ele>345.0</ele><time>2026-04-04T14:22:39.616Z</time></trkpt><trkpt lat="45.0932051" lon="7.3820051"><ele>345.0</ele><time>2026-04-04T14:22:40.616Z</time></trkpt><trkpt lat="45.0932645" lon="7.3818663"><ele>345.75</ele><time>2026-04-04T14:22:41.616Z</time></trkpt><trkpt lat="45.0933302" lon="7.3817093"><ele>346.5</ele><time>2026-04-04T14:22:42.616Z</time></trkpt><trkpt lat="45.0934036" lon="7.3815395"><ele>347.25</ele><time>2026-04-04T14:22:43.616Z</time></trkpt><trkpt lat="45.0934804" lon="7.3813608"><ele>348.0</ele><time>2026-04-04T14:22:44.616Z</time></trkpt><trkpt lat="45.0935605" lon="7.381175"><ele>348.0</ele><time>2026-04-04T14:22:45.616Z</time></trkpt><trkpt lat="45.0936424" lon="7.3809857"><ele>348.0</ele><time>2026-04-04T14:22:46.616Z</time></trkpt><trkpt lat="45.0937285" lon="7.3807924"><ele>348.0</ele><time>2026-04-04T14:22:47.616Z</time></trkpt><trkpt lat="45.0938069" lon="7.380608"><ele>348.5</ele><time>2026-04-04T14:22:48.616Z</time></trkpt><trkpt lat="45.0938795" lon="7.3804402"><ele>349.0</ele><time>2026-04-04T14:22:49.616Z</time></trkpt><trkpt lat="45.0939429" lon="7.3802799"><ele>349.5</ele><time>2026-04-04T14:22:50.617Z</time></trkpt><trkpt lat="45.0940017" lon="7.3801397"><ele>350.0</ele><time>2026-04-04T14:22:51.616Z</time></trkpt><trkpt lat="45.0940612" lon="7.3800014"><ele>350.2</ele><time>2026-04-04T14:22:52.615Z</time></trkpt><trkpt lat="45.0941233" lon="7.379858"><ele>350.4</ele><time>2026-04-04T14:22:53.614Z</time></trkpt><trkpt lat="45.0941774" lon="7.3797273"><ele>350.6</ele><time>2026-04-04T14:22:54.615Z</time></trkpt><trkpt lat="45.0942263" lon="7.3796109"><ele>350.8</ele><time>2026-04-04T14:22:55.615Z</time></trkpt><trkpt lat="45.0942626" lon="7.3795098"><ele>351.0</ele><time>2026-04-04T14:22:56.615Z</time></trkpt><trkpt lat="45.0943037" lon="7.3794153"><ele>351.0</ele><time>2026-04-04T14:22:57.615Z</time></trkpt><trkpt lat="45.094343" lon="7.3793318"><ele>351.0</ele><time>2026-04-04T14:22:58.616Z</time></trkpt><trkpt lat="45.0943329" lon="7.3792211"><ele>351.0</ele><time>2026-04-04T14:23:00.615Z</time></trkpt><trkpt lat="45.0942515" lon="7.3791629"><ele>351.0</ele><time>2026-04-04T14:23:02.615Z</time></trkpt><trkpt lat="45.0941294" lon="7.3791188"><ele>351.0</ele><time>2026-04-04T14:23:04.615Z</time></trkpt><trkpt lat="45.0940478" lon="7.3790833"><ele>350.6</ele><time>2026-04-04T14:23:41.615Z</time></trkpt><trkpt lat="45.0939381" lon="7.3790555"><ele>350.20000000000005</ele><time>2026-04-04T14:23:47.615Z</time></trkpt><trkpt lat="45.0938353" lon="7.3790115"><ele>349.79999999999995</ele><time>2026-04-04T14:23:49.615Z</time></trkpt><trkpt lat="45.0938103" lon="7.3788942"><ele>349.4</ele><time>2026-04-04T14:23:51.615Z</time></trkpt><trkpt lat="45.0938741" lon="7.3787297"><ele>349.0</ele><time>2026-04-04T14:23:53.615Z</time></trkpt><trkpt lat="45.0939144" lon="7.3786345"><ele>349.0</ele><time>2026-04-04T14:23:54.615Z</time></trkpt><trkpt lat="45.0939599" lon="7.3785196"><ele>349.0</ele><time>2026-04-04T14:23:55.615Z</time></trkpt><trkpt lat="45.0940152" lon="7.3783908"><ele>349.0</ele><time>2026-04-04T14:23:56.615Z</time></trkpt><trkpt lat="45.094078" lon="7.3782514"><ele>349.0</ele><time>2026-04-04T14:23:57.615Z</time></trkpt><trkpt lat="45.0941416" lon="7.3780953"><ele>349.0</ele><time>2026-04-04T14:23:58.615Z</time></trkpt><trkpt lat="45.0942056" lon="7.3779411"><ele>349.0</ele><time>2026-04-04T14:23:59.615Z</time></trkpt><trkpt lat="45.0942666" lon="7.3778053"><ele>349.0</ele><time>2026-04-04T14:24:00.615Z</time></trkpt><trkpt lat="45.0943208" lon="7.3776769"><ele>349.0</ele><time>2026-04-04T14:24:01.615Z</time></trkpt><trkpt lat="45.0943706" lon="7.3775606"><ele>349.0</ele><time>2026-04-04T14:24:02.615Z</time></trkpt><trkpt lat="45.0944118" lon="7.3774547"><ele>349.0</ele><time>2026-04-04T14:24:03.615Z</time></trkpt><trkpt lat="45.0944538" lon="7.3773504"><ele>349.0</ele><time>2026-04-04T14:24:04.616Z</time></trkpt><trkpt lat="45.0944922" lon="7.3772543"><ele>349.0</ele><time>2026-04-04T14:24:05.615Z</time></trkpt><trkpt lat="45.09453" lon="7.3771679"><ele>349.0</ele><time>2026-04-04T14:24:06.615Z</time></trkpt><trkpt lat="45.0946152" lon="7.3770615"><ele>349.0</ele><time>2026-04-04T14:24:08.615Z</time></trkpt><trkpt lat="45.0947213" lon="7.3770725"><ele>349.0</ele><time>2026-04-04T14:24:10.616Z</time></trkpt><trkpt lat="45.094851" lon="7.3770995"><ele>349.16666666666663</ele><time>2026-04-04T14:24:12.614Z</time></trkpt><trkpt lat="45.0949295" lon="7.3771124"><ele>349.3333333333333</ele><time>2026-04-04T14:24:13.616Z</time></trkpt><trkpt lat="45.0950157" lon="7.3771262"><ele>349.5</ele><time>2026-04-04T14:24:14.615Z</time></trkpt><trkpt lat="45.0951102" lon="7.3771351"><ele>349.6666666666667</ele><time>2026-04-04T14:24:15.615Z</time></trkpt><trkpt lat="45.095198" lon="7.377105"><ele>349.83333333333337</ele><time>2026-04-04T14:24:16.614Z</time></trkpt><trkpt lat="45.0952876" lon="7.3770561"><ele>350.0</ele><time>2026-04-04T14:24:17.616Z</time></trkpt><trkpt lat="45.095385" lon="7.3769979"><ele>350.0</ele><time>2026-04-04T14:24:18.616Z</time></trkpt><trkpt lat="45.0954913" lon="7.3769408"><ele>350.0</ele><time>2026-04-04T14:24:19.616Z</time></trkpt><trkpt lat="45.0955984" lon="7.376883"><ele>350.0</ele><time>2026-04-04T14:24:20.615Z</time></trkpt><trkpt lat="45.0956958" lon="7.3768292"><ele>350.0</ele><time>2026-04-04T14:24:21.616Z</time></trkpt><trkpt lat="45.095789" lon="7.3767658"><ele>350.0</ele><time>2026-04-04T14:24:22.616Z</time></trkpt><trkpt lat="45.0958856" lon="7.3766835"><ele>349.75</ele><time>2026-04-04T14:24:23.616Z</time></trkpt><trkpt lat="45.0959846" lon="7.3765725"><ele>349.5</ele><time>2026-04-04T14:24:24.615Z</time></trkpt><trkpt lat="45.0960805" lon="7.3764554"><ele>349.25</ele><time>2026-04-04T14:24:25.616Z</time></trkpt><trkpt lat="45.0961797" lon="7.3763469"><ele>349.0</ele><time>2026-04-04T14:24:26.616Z</time></trkpt><trkpt lat="45.0962746" lon="7.3762601"><ele>349.0</ele><time>2026-04-04T14:24:27.616Z</time></trkpt><trkpt lat="45.0963617" lon="7.3761974"><ele>349.0</ele><time>2026-04-04T14:24:28.616Z</time></trkpt><trkpt lat="45.096448" lon="7.3761549"><ele>349.0</ele><time>2026-04-04T14:24:29.615Z</time></trkpt><trkpt lat="45.0965399" lon="7.3761424"><ele>349.0</ele><time>2026-04-04T14:24:30.615Z</time></trkpt><trkpt lat="45.0966277" lon="7.3761465"><ele>349.0</ele><time>2026-04-04T14:24:31.615Z</time></trkpt><trkpt lat="45.0967046" lon="7.3761247"><ele>349.0</ele><time>2026-04-04T14:24:32.614Z</time></trkpt><trkpt lat="45.0967666" lon="7.3760721"><ele>348.8333333333333</ele><time>2026-04-04T14:24:33.615Z</time></trkpt><trkpt lat="45.0968236" lon="7.3759856"><ele>348.66666666666663</ele><time>2026-04-04T14:24:34.615Z</time></trkpt><trkpt lat="45.0968755" lon="7.3759197"><ele>348.5</ele><time>2026-04-04T14:24:35.616Z</time></trkpt><trkpt lat="45.0969262" lon="7.3758658"><ele>348.3333333333333</ele><time>2026-04-04T14:24:36.615Z</time></trkpt><trkpt lat="45.0970224" lon="7.3758649"><ele>348.1666666666667</ele><time>2026-04-04T14:24:38.616Z</time></trkpt><trkpt lat="45.0971224" lon="7.3757852"><ele>348.0</ele><time>2026-04-04T14:24:40.615Z</time></trkpt><trkpt lat="45.0971695" lon="7.3757106"><ele>348.0</ele><time>2026-04-04T14:24:41.615Z</time></trkpt><trkpt lat="45.0972331" lon="7.3756325"><ele>348.0</ele><time>2026-04-04T14:24:42.616Z</time></trkpt><trkpt lat="45.0973157" lon="7.3755494"><ele>348.0</ele><time>2026-04-04T14:24:43.615Z</time></trkpt><trkpt lat="45.0974027" lon="7.3754693"><ele>348.0</ele><time>2026-04-04T14:24:44.615Z</time></trkpt><trkpt lat="45.0974875" lon="7.3753943"><ele>348.0</ele><time>2026-04-04T14:24:45.615Z</time></trkpt><trkpt lat="45.0975636" lon="7.3753144"><ele>348.4</ele><time>2026-04-04T14:24:46.616Z</time></trkpt><trkpt lat="45.0976309" lon="7.3752118"><ele>348.79999999999995</ele><time>2026-04-04T14:24:47.614Z</time></trkpt><trkpt lat="45.097693" lon="7.3750937"><ele>349.2</ele><time>2026-04-04T14:24:48.615Z</time></trkpt><trkpt lat="45.0977434" lon="7.3749796"><ele>349.6</ele><time>2026-04-04T14:24:49.615Z</time></trkpt><trkpt lat="45.0977904" lon="7.3748654"><ele>350.0</ele><time>2026-04-04T14:24:50.615Z</time></trkpt><trkpt lat="45.0978355" lon="7.3747441"><ele>350.33333333333337</ele><time>2026-04-04T14:24:51.615Z</time></trkpt><trkpt lat="45.0978772" lon="7.3746234"><ele>350.6666666666667</ele><time>2026-04-04T14:24:52.615Z</time></trkpt><trkpt lat="45.0979136" lon="7.3745126"><ele>351.0</ele><time>2026-04-04T14:24:53.615Z</time></trkpt><trkpt lat="45.0979447" lon="7.374413"><ele>351.3333333333333</ele><time>2026-04-04T14:24:54.614Z</time></trkpt><trkpt lat="45.0979776" lon="7.3743057"><ele>351.66666666666663</ele><time>2026-04-04T14:24:55.615Z</time></trkpt><trkpt lat="45.0980129" lon="7.3741982"><ele>352.0</ele><time>2026-04-04T14:24:56.615Z</time></trkpt><trkpt lat="45.0980495" lon="7.3740856"><ele>352.0</ele><time>2026-04-04T14:24:57.615Z</time></trkpt><trkpt lat="45.0980883" lon="7.3739697"><ele>352.0</ele><time>2026-04-04T14:24:58.614Z</time></trkpt><trkpt lat="45.0981283" lon="7.373853"><ele>352.0</ele><time>2026-04-04T14:24:59.614Z</time></trkpt><trkpt lat="45.0981687" lon="7.3737281"><ele>352.0</ele><time>2026-04-04T14:25:00.615Z</time></trkpt><trkpt lat="45.0982104" lon="7.3735946"><ele>352.0</ele><time>2026-04-04T14:25:01.615Z</time></trkpt><trkpt lat="45.0982498" lon="7.3734647"><ele>352.0</ele><time>2026-04-04T14:25:02.616Z</time></trkpt><trkpt lat="45.0982933" lon="7.3733328"><ele>352.0</ele><time>2026-04-04T14:25:03.616Z</time></trkpt><trkpt lat="45.098332" lon="7.3731977"><ele>352.0</ele><time>2026-04-04T14:25:04.616Z</time></trkpt><trkpt lat="45.098371" lon="7.3730757"><ele>352.0</ele><time>2026-04-04T14:25:05.615Z</time></trkpt><trkpt lat="45.0984019" lon="7.3729675"><ele>352.0</ele><time>2026-04-04T14:25:06.616Z</time></trkpt><trkpt lat="45.0984406" lon="7.3728562"><ele>352.0</ele><time>2026-04-04T14:25:07.616Z</time></trkpt><trkpt lat="45.0984661" lon="7.3727493"><ele>352.0</ele><time>2026-04-04T14:25:08.616Z</time></trkpt><trkpt lat="45.0984883" lon="7.3726568"><ele>352.0</ele><time>2026-04-04T14:25:09.616Z</time></trkpt><trkpt lat="45.0985138" lon="7.3725296"><ele>352.0</ele><time>2026-04-04T14:25:11.616Z</time></trkpt><trkpt lat="45.0985292" lon="7.3724104"><ele>352.0</ele><time>2026-04-04T14:25:22.616Z</time></trkpt><trkpt lat="45.0984366" lon="7.3722941"><ele>352.0</ele><time>2026-04-04T14:25:24.615Z</time></trkpt><trkpt lat="45.0983466" lon="7.3722453"><ele>352.0</ele><time>2026-04-04T14:25:25.614Z</time></trkpt><trkpt lat="45.0982605" lon="7.3721902"><ele>352.0</ele><time>2026-04-04T14:25:26.613Z</time></trkpt><trkpt lat="45.0981588" lon="7.3721197"><ele>352.0</ele><time>2026-04-04T14:25:27.613Z</time></trkpt><trkpt lat="45.0980489" lon="7.3720496"><ele>352.0</ele><time>2026-04-04T14:25:28.614Z</time></trkpt><trkpt lat="45.0979284" lon="7.3719752"><ele>351.66666666666663</ele><time>2026-04-04T14:25:29.614Z</time></trkpt><trkpt lat="45.0977909" lon="7.3718873"><ele>351.3333333333333</ele><time>2026-04-04T14:25:30.614Z</time></trkpt><trkpt lat="45.097639" lon="7.371789"><ele>351.0</ele><time>2026-04-04T14:25:31.613Z</time></trkpt><trkpt lat="45.0974824" lon="7.371674"><ele>351.0</ele><time>2026-04-04T14:25:32.613Z</time></trkpt><trkpt lat="45.0973266" lon="7.3715597"><ele>351.0</ele><time>2026-04-04T14:25:33.615Z</time></trkpt><trkpt lat="45.0971752" lon="7.3714401"><ele>351.0</ele><time>2026-04-04T14:25:34.615Z</time></trkpt><trkpt lat="45.0970263" lon="7.3713113"><ele>351.0</ele><time>2026-04-04T14:25:35.615Z</time></trkpt><trkpt lat="45.0968754" lon="7.3711824"><ele>351.0</ele><time>2026-04-04T14:25:36.614Z</time></trkpt><trkpt lat="45.0967293" lon="7.3710608"><ele>351.0</ele><time>2026-04-04T14:25:37.615Z</time></trkpt><trkpt lat="45.0965897" lon="7.3709499"><ele>351.0</ele><time>2026-04-04T14:25:38.615Z</time></trkpt><trkpt lat="45.096458" lon="7.3708397"><ele>351.0</ele><time>2026-04-04T14:25:39.614Z</time></trkpt><trkpt lat="45.0963276" lon="7.3707391"><ele>351.0</ele><time>2026-04-04T14:25:40.615Z</time></trkpt><trkpt lat="45.0962015" lon="7.3706493"><ele>351.0</ele><time>2026-04-04T14:25:41.614Z</time></trkpt><trkpt lat="45.0960776" lon="7.3705706"><ele>351.0</ele><time>2026-04-04T14:25:42.614Z</time></trkpt><trkpt lat="45.0959592" lon="7.370497"><ele>351.0</ele><time>2026-04-04T14:25:43.614Z</time></trkpt><trkpt lat="45.09585" lon="7.3704314"><ele>351.0</ele><time>2026-04-04T14:25:44.614Z</time></trkpt><trkpt lat="45.0957409" lon="7.3703692"><ele>351.0</ele><time>2026-04-04T14:25:45.614Z</time></trkpt><trkpt lat="45.0956358" lon="7.3703125"><ele>351.6</ele><time>2026-04-04T14:25:46.615Z</time></trkpt><trkpt lat="45.0955414" lon="7.3702335"><ele>352.20000000000005</ele><time>2026-04-04T14:25:47.613Z</time></trkpt><trkpt lat="45.0954607" lon="7.3701337"><ele>352.79999999999995</ele><time>2026-04-04T14:25:48.614Z</time></trkpt><trkpt lat="45.0954022" lon="7.3700091"><ele>353.4</ele><time>2026-04-04T14:25:49.614Z</time></trkpt><trkpt lat="45.0953712" lon="7.3698551"><ele>354.0</ele><time>2026-04-04T14:25:50.613Z</time></trkpt><trkpt lat="45.0953664" lon="7.3696852"><ele>354.25</ele><time>2026-04-04T14:25:51.614Z</time></trkpt><trkpt lat="45.0953929" lon="7.3695162"><ele>354.5</ele><time>2026-04-04T14:25:52.614Z</time></trkpt><trkpt lat="45.0954318" lon="7.3693332"><ele>354.75</ele><time>2026-04-04T14:25:53.614Z</time></trkpt><trkpt lat="45.0954766" lon="7.3691407"><ele>355.0</ele><time>2026-04-04T14:25:54.615Z</time></trkpt><trkpt lat="45.0955268" lon="7.368948"><ele>354.75</ele><time>2026-04-04T14:25:55.615Z</time></trkpt><trkpt lat="45.0955854" lon="7.3687578"><ele>354.5</ele><time>2026-04-04T14:25:56.614Z</time></trkpt><trkpt lat="45.095653" lon="7.3685713"><ele>354.25</ele><time>2026-04-04T14:25:57.614Z</time></trkpt><trkpt lat="45.095731" lon="7.3683949"><ele>354.0</ele><time>2026-04-04T14:25:58.614Z</time></trkpt><trkpt lat="45.09582" lon="7.3682269"><ele>354.0</ele><time>2026-04-04T14:25:59.615Z</time></trkpt><trkpt lat="45.0959156" lon="7.3680612"><ele>354.0</ele><time>2026-04-04T14:26:00.614Z</time></trkpt><trkpt lat="45.0960212" lon="7.367902"><ele>354.0</ele><time>2026-04-04T14:26:01.615Z</time></trkpt><trkpt lat="45.0961372" lon="7.3677539"><ele>354.0</ele><time>2026-04-04T14:26:02.614Z</time></trkpt><trkpt lat="45.09626" lon="7.3676151"><ele>354.0</ele><time>2026-04-04T14:26:03.614Z</time></trkpt><trkpt lat="45.0963894" lon="7.3674838"><ele>354.0</ele><time>2026-04-04T14:26:04.614Z</time></trkpt><trkpt lat="45.0965271" lon="7.3673613"><ele>354.0</ele><time>2026-04-04T14:26:05.615Z</time></trkpt><trkpt lat="45.0966722" lon="7.3672394"><ele>354.0</ele><time>2026-04-04T14:26:06.615Z</time></trkpt><trkpt lat="45.0968166" lon="7.3671138"><ele>354.0</ele><time>2026-04-04T14:26:07.615Z</time></trkpt><trkpt lat="45.0969555" lon="7.3669974"><ele>354.0</ele><time>2026-04-04T14:26:08.615Z</time></trkpt><trkpt lat="45.0970913" lon="7.3668827"><ele>354.0</ele><time>2026-04-04T14:26:09.615Z</time></trkpt><trkpt lat="45.0972224" lon="7.3667732"><ele>354.0</ele><time>2026-04-04T14:26:10.613Z</time></trkpt><trkpt lat="45.0973529" lon="7.3666646"><ele>353.6666666666667</ele><time>2026-04-04T14:26:11.614Z</time></trkpt><trkpt lat="45.0974828" lon="7.3665554"><ele>353.33333333333337</ele><time>2026-04-04T14:26:12.614Z</time></trkpt><trkpt lat="45.0976149" lon="7.3664426"><ele>353.0</ele><time>2026-04-04T14:26:13.613Z</time></trkpt><trkpt lat="45.0977464" lon="7.3663353"><ele>353.0</ele><time>2026-04-04T14:26:14.615Z</time></trkpt><trkpt lat="45.0978699" lon="7.3662311"><ele>353.0</ele><time>2026-04-04T14:26:15.613Z</time></trkpt><trkpt lat="45.0979902" lon="7.3661323"><ele>353.0</ele><time>2026-04-04T14:26:16.614Z</time></trkpt><trkpt lat="45.0981111" lon="7.3660356"><ele>353.0</ele><time>2026-04-04T14:26:17.614Z</time></trkpt><trkpt lat="45.0982321" lon="7.3659387"><ele>353.0</ele><time>2026-04-04T14:26:18.613Z</time></trkpt><trkpt lat="45.0983528" lon="7.3658439"><ele>353.0</ele><time>2026-04-04T14:26:19.614Z</time></trkpt><trkpt lat="45.0984746" lon="7.3657424"><ele>353.0</ele><time>2026-04-04T14:26:20.615Z</time></trkpt><trkpt lat="45.0985961" lon="7.3656387"><ele>353.0</ele><time>2026-04-04T14:26:21.613Z</time></trkpt><trkpt lat="45.0987142" lon="7.3655244"><ele>353.0</ele><time>2026-04-04T14:26:22.614Z</time></trkpt><trkpt lat="45.0988289" lon="7.3653981"><ele>353.0</ele><time>2026-04-04T14:26:23.614Z</time></trkpt><trkpt lat="45.0989404" lon="7.3652606"><ele>353.0</ele><time>2026-04-04T14:26:24.614Z</time></trkpt><trkpt lat="45.099042" lon="7.3651132"><ele>353.0</ele><time>2026-04-04T14:26:25.614Z</time></trkpt><trkpt lat="45.0991286" lon="7.3649595"><ele>353.0</ele><time>2026-04-04T14:26:26.614Z</time></trkpt><trkpt lat="45.0992098" lon="7.3648025"><ele>353.0</ele><time>2026-04-04T14:26:27.615Z</time></trkpt><trkpt lat="45.0992789" lon="7.3646487"><ele>353.0</ele><time>2026-04-04T14:26:28.614Z</time></trkpt><trkpt lat="45.0993398" lon="7.3644959"><ele>353.0</ele><time>2026-04-04T14:26:29.613Z</time></trkpt><trkpt lat="45.0993881" lon="7.3643453"><ele>353.25</ele><time>2026-04-04T14:26:30.614Z</time></trkpt><trkpt lat="45.0994323" lon="7.3642016"><ele>353.5</ele><time>2026-04-04T14:26:31.614Z</time></trkpt><trkpt lat="45.0994757" lon="7.3640529"><ele>353.75</ele><time>2026-04-04T14:26:32.614Z</time></trkpt><trkpt lat="45.0995199" lon="7.3638993"><ele>354.0</ele><time>2026-04-04T14:26:33.615Z</time></trkpt><trkpt lat="45.0995721" lon="7.3637391"><ele>354.0</ele><time>2026-04-04T14:26:34.613Z</time></trkpt><trkpt lat="45.0996235" lon="7.3635727"><ele>354.0</ele><time>2026-04-04T14:26:35.614Z</time></trkpt><trkpt lat="45.0996772" lon="7.3633981"><ele>354.0</ele><time>2026-04-04T14:26:36.614Z</time></trkpt><trkpt lat="45.0997327" lon="7.3632221"><ele>354.0</ele><time>2026-04-04T14:26:37.614Z</time></trkpt><trkpt lat="45.0997871" lon="7.3630472"><ele>354.25</ele><time>2026-04-04T14:26:38.614Z</time></trkpt><trkpt lat="45.0998411" lon="7.3628727"><ele>354.5</ele><time>2026-04-04T14:26:39.615Z</time></trkpt><trkpt lat="45.099895" lon="7.3626963"><ele>354.75</ele><time>2026-04-04T14:26:40.615Z</time></trkpt><trkpt lat="45.0999466" lon="7.3625216"><ele>355.0</ele><time>2026-04-04T14:26:41.614Z</time></trkpt><trkpt lat="45.0999976" lon="7.3623498"><ele>355.25</ele><time>2026-04-04T14:26:42.614Z</time></trkpt><trkpt lat="45.1000476" lon="7.3621923"><ele>355.5</ele><time>2026-04-04T14:26:43.614Z</time></trkpt><trkpt lat="45.1000935" lon="7.362039"><ele>355.75</ele><time>2026-04-04T14:26:44.613Z</time></trkpt><trkpt lat="45.1001386" lon="7.3618973"><ele>356.0</ele><time>2026-04-04T14:26:45.613Z</time></trkpt><trkpt lat="45.1001793" lon="7.3617556"><ele>356.0</ele><time>2026-04-04T14:26:46.613Z</time></trkpt><trkpt lat="45.1002226" lon="7.3616187"><ele>356.0</ele><time>2026-04-04T14:26:47.614Z</time></trkpt><trkpt lat="45.1002611" lon="7.3614916"><ele>356.0</ele><time>2026-04-04T14:26:48.615Z</time></trkpt><trkpt lat="45.1002985" lon="7.3613601"><ele>356.0</ele><time>2026-04-04T14:26:49.614Z</time></trkpt><trkpt lat="45.1003309" lon="7.3612213"><ele>356.0</ele><time>2026-04-04T14:26:50.615Z</time></trkpt><trkpt lat="45.1003662" lon="7.3610911"><ele>356.0</ele><time>2026-04-04T14:26:51.615Z</time></trkpt><trkpt lat="45.1004015" lon="7.3609682"><ele>356.0</ele><time>2026-04-04T14:26:52.614Z</time></trkpt><trkpt lat="45.1004395" lon="7.3608517"><ele>356.0</ele><time>2026-04-04T14:26:53.614Z</time></trkpt><trkpt lat="45.1004654" lon="7.3607606"><ele>356.0</ele><time>2026-04-04T14:26:54.615Z</time></trkpt><trkpt lat="45.1004997" lon="7.3606671"><ele>356.0</ele><time>2026-04-04T14:26:56.613Z</time></trkpt><trkpt lat="45.1005636" lon="7.360513"><ele>356.20000000000005</ele><time>2026-04-04T14:27:12.614Z</time></trkpt><trkpt lat="45.1006067" lon="7.3604277"><ele>356.40000000000003</ele><time>2026-04-04T14:27:13.614Z</time></trkpt><trkpt lat="45.1006615" lon="7.3603279"><ele>356.6</ele><time>2026-04-04T14:27:14.614Z</time></trkpt><trkpt lat="45.1007315" lon="7.3602169"><ele>356.8</ele><time>2026-04-04T14:27:15.613Z</time></trkpt><trkpt lat="45.100803" lon="7.3600999"><ele>357.0</ele><time>2026-04-04T14:27:16.615Z</time></trkpt><trkpt lat="45.1008864" lon="7.3599772"><ele>357.0</ele><time>2026-04-04T14:27:17.614Z</time></trkpt><trkpt lat="45.1009775" lon="7.359847"><ele>357.0</ele><time>2026-04-04T14:27:18.613Z</time></trkpt><trkpt lat="45.1010788" lon="7.3597056"><ele>357.0</ele><time>2026-04-04T14:27:19.614Z</time></trkpt><trkpt lat="45.1011827" lon="7.3595492"><ele>357.0</ele><time>2026-04-04T14:27:20.614Z</time></trkpt><trkpt lat="45.1012992" lon="7.3593834"><ele>357.3333333333333</ele><time>2026-04-04T14:27:21.614Z</time></trkpt><trkpt lat="45.101405" lon="7.3592324"><ele>357.66666666666663</ele><time>2026-04-04T14:27:22.614Z</time></trkpt><trkpt lat="45.1015252" lon="7.3590586"><ele>358.0</ele><time>2026-04-04T14:27:23.615Z</time></trkpt><trkpt lat="45.101633" lon="7.3588992"><ele>357.66666666666663</ele><time>2026-04-04T14:27:24.615Z</time></trkpt><trkpt lat="45.1017439" lon="7.3587154"><ele>357.3333333333333</ele><time>2026-04-04T14:27:25.615Z</time></trkpt><trkpt lat="45.1018458" lon="7.3585009"><ele>357.0</ele><time>2026-04-04T14:27:26.614Z</time></trkpt><trkpt lat="45.1019222" lon="7.3582923"><ele>357.0</ele><time>2026-04-04T14:27:27.614Z</time></trkpt><trkpt lat="45.1019941" lon="7.3580615"><ele>357.0</ele><time>2026-04-04T14:27:28.614Z</time></trkpt><trkpt lat="45.1020637" lon="7.357825"><ele>357.0</ele><time>2026-04-04T14:27:29.615Z</time></trkpt><trkpt lat="45.1021347" lon="7.3575829"><ele>357.0</ele><time>2026-04-04T14:27:30.614Z</time></trkpt><trkpt lat="45.1022092" lon="7.3573297"><ele>357.0</ele><time>2026-04-04T14:27:31.615Z</time></trkpt><trkpt lat="45.1022721" lon="7.3571096"><ele>357.0</ele><time>2026-04-04T14:27:32.614Z</time></trkpt><trkpt lat="45.102338" lon="7.3568719"><ele>357.0</ele><time>2026-04-04T14:27:33.614Z</time></trkpt><trkpt lat="45.1024109" lon="7.356616"><ele>357.0</ele><time>2026-04-04T14:27:34.614Z</time></trkpt><trkpt lat="45.1024775" lon="7.3563854"><ele>357.0</ele><time>2026-04-04T14:27:35.614Z</time></trkpt><trkpt lat="45.1025508" lon="7.3561365"><ele>357.3333333333333</ele><time>2026-04-04T14:27:36.614Z</time></trkpt><trkpt lat="45.1026308" lon="7.3558642"><ele>357.66666666666663</ele><time>2026-04-04T14:27:37.615Z</time></trkpt><trkpt lat="45.1027016" lon="7.3556208"><ele>358.0</ele><time>2026-04-04T14:27:38.615Z</time></trkpt><trkpt lat="45.1027824" lon="7.3553416"><ele>358.0</ele><time>2026-04-04T14:27:39.615Z</time></trkpt><trkpt lat="45.1028546" lon="7.3550905"><ele>358.0</ele><time>2026-04-04T14:27:40.614Z</time></trkpt><trkpt lat="45.1029324" lon="7.3548185"><ele>358.0</ele><time>2026-04-04T14:27:41.614Z</time></trkpt><trkpt lat="45.1030147" lon="7.3545285"><ele>358.0</ele><time>2026-04-04T14:27:42.613Z</time></trkpt><trkpt lat="45.103088" lon="7.3542732"><ele>358.0</ele><time>2026-04-04T14:27:43.614Z</time></trkpt><trkpt lat="45.1031647" lon="7.3540017"><ele>358.0</ele><time>2026-04-04T14:27:44.614Z</time></trkpt><trkpt lat="45.1032437" lon="7.3537282"><ele>358.0</ele><time>2026-04-04T14:27:45.615Z</time></trkpt><trkpt lat="45.1033226" lon="7.3534561"><ele>358.0</ele><time>2026-04-04T14:27:46.614Z</time></trkpt><trkpt lat="45.1034051" lon="7.3531714"><ele>358.0</ele><time>2026-04-04T14:27:47.615Z</time></trkpt><trkpt lat="45.1034786" lon="7.3529204"><ele>358.0</ele><time>2026-04-04T14:27:48.615Z</time></trkpt><trkpt lat="45.1035559" lon="7.3526546"><ele>358.0</ele><time>2026-04-04T14:27:49.614Z</time></trkpt><trkpt lat="45.1036364" lon="7.352376"><ele>358.0</ele><time>2026-04-04T14:27:50.615Z</time></trkpt><trkpt lat="45.1037075" lon="7.3521309"><ele>358.0</ele><time>2026-04-04T14:27:51.614Z</time></trkpt><trkpt lat="45.1037812" lon="7.351874"><ele>358.0</ele><time>2026-04-04T14:27:52.615Z</time></trkpt><trkpt lat="45.1038563" lon="7.3516104"><ele>358.0</ele><time>2026-04-04T14:27:53.615Z</time></trkpt><trkpt lat="45.1039199" lon="7.3513905"><ele>358.0</ele><time>2026-04-04T14:27:54.615Z</time></trkpt><trkpt lat="45.103987" lon="7.3511579"><ele>358.0</ele><time>2026-04-04T14:27:55.613Z</time></trkpt><trkpt lat="45.1040423" lon="7.350964"><ele>358.0</ele><time>2026-04-04T14:27:56.614Z</time></trkpt><trkpt lat="45.1040969" lon="7.3507694"><ele>358.0</ele><time>2026-04-04T14:27:57.613Z</time></trkpt><trkpt lat="45.1041526" lon="7.3505751"><ele>358.0</ele><time>2026-04-04T14:27:58.612Z</time></trkpt><trkpt lat="45.1041997" lon="7.3504156"><ele>358.0</ele><time>2026-04-04T14:27:59.613Z</time></trkpt><trkpt lat="45.1042531" lon="7.3502647"><ele>358.0</ele><time>2026-04-04T14:28:00.614Z</time></trkpt><trkpt lat="45.1043181" lon="7.3501388"><ele>358.79999999999995</ele><time>2026-04-04T14:28:01.614Z</time></trkpt><trkpt lat="45.1043892" lon="7.3500397"><ele>359.6</ele><time>2026-04-04T14:28:02.613Z</time></trkpt><trkpt lat="45.1044393" lon="7.3499334"><ele>360.4</ele><time>2026-04-04T14:28:03.613Z</time></trkpt><trkpt lat="45.1044594" lon="7.3498112"><ele>361.20000000000005</ele><time>2026-04-04T14:28:04.614Z</time></trkpt><trkpt lat="45.1044444" lon="7.3496803"><ele>362.0</ele><time>2026-04-04T14:28:05.613Z</time></trkpt><trkpt lat="45.1044226" lon="7.349524"><ele>362.0</ele><time>2026-04-04T14:28:06.613Z</time></trkpt><trkpt lat="45.1044236" lon="7.349376"><ele>362.0</ele><time>2026-04-04T14:28:07.613Z</time></trkpt><trkpt lat="45.1044411" lon="7.3492058"><ele>362.0</ele><time>2026-04-04T14:28:08.613Z</time></trkpt><trkpt lat="45.1044662" lon="7.3490068"><ele>362.0</ele><time>2026-04-04T14:28:09.612Z</time></trkpt><trkpt lat="45.1044852" lon="7.3488075"><ele>362.0</ele><time>2026-04-04T14:28:10.614Z</time></trkpt><trkpt lat="45.1045189" lon="7.3485462"><ele>362.0</ele><time>2026-04-04T14:28:11.613Z</time></trkpt><trkpt lat="45.1045367" lon="7.3483018"><ele>362.0</ele><time>2026-04-04T14:28:12.614Z</time></trkpt><trkpt lat="45.1045524" lon="7.3480403"><ele>362.0</ele><time>2026-04-04T14:28:13.614Z</time></trkpt><trkpt lat="45.1045721" lon="7.3477391"><ele>362.0</ele><time>2026-04-04T14:28:14.614Z</time></trkpt><trkpt lat="45.1045892" lon="7.3474624"><ele>362.0</ele><time>2026-04-04T14:28:15.613Z</time></trkpt><trkpt lat="45.1046067" lon="7.3471664"><ele>362.33333333333337</ele><time>2026-04-04T14:28:16.614Z</time></trkpt><trkpt lat="45.1046235" lon="7.3468554"><ele>362.6666666666667</ele><time>2026-04-04T14:28:17.613Z</time></trkpt><trkpt lat="45.1046412" lon="7.3465382"><ele>363.0</ele><time>2026-04-04T14:28:18.614Z</time></trkpt><trkpt lat="45.1046596" lon="7.3462125"><ele>362.0</ele><time>2026-04-04T14:28:19.614Z</time></trkpt><trkpt lat="45.104677" lon="7.3458902"><ele>361.0</ele><time>2026-04-04T14:28:20.613Z</time></trkpt><trkpt lat="45.1046951" lon="7.3455766"><ele>361.0</ele><time>2026-04-04T14:28:21.613Z</time></trkpt><trkpt lat="45.1047131" lon="7.3452459"><ele>361.0</ele><time>2026-04-04T14:28:22.613Z</time></trkpt><trkpt lat="45.1047283" lon="7.3449565"><ele>361.0</ele><time>2026-04-04T14:28:23.614Z</time></trkpt><trkpt lat="45.1047443" lon="7.3446534"><ele>361.0</ele><time>2026-04-04T14:28:24.614Z</time></trkpt><trkpt lat="45.1047617" lon="7.3443288"><ele>361.0</ele><time>2026-04-04T14:28:25.612Z</time></trkpt><trkpt lat="45.1047771" lon="7.3440488"><ele>361.0</ele><time>2026-04-04T14:28:26.614Z</time></trkpt><trkpt lat="45.1047941" lon="7.3437446"><ele>361.0</ele><time>2026-04-04T14:28:27.614Z</time></trkpt><trkpt lat="45.1048099" lon="7.3434399"><ele>361.0</ele><time>2026-04-04T14:28:28.614Z</time></trkpt><trkpt lat="45.1048249" lon="7.3431392"><ele>361.0</ele><time>2026-04-04T14:28:29.613Z</time></trkpt><trkpt lat="45.1048415" lon="7.3428159"><ele>361.66666666666663</ele><time>2026-04-04T14:28:30.614Z</time></trkpt><trkpt lat="45.1048567" lon="7.3425297"><ele>362.3333333333333</ele><time>2026-04-04T14:28:31.613Z</time></trkpt><trkpt lat="45.1048743" lon="7.3422277"><ele>363.0</ele><time>2026-04-04T14:28:32.614Z</time></trkpt><trkpt lat="45.1048941" lon="7.3419215"><ele>362.6666666666667</ele><time>2026-04-04T14:28:33.613Z</time></trkpt><trkpt lat="45.1049131" lon="7.3416181"><ele>362.33333333333337</ele><time>2026-04-04T14:28:34.612Z</time></trkpt><trkpt lat="45.1049312" lon="7.3413131"><ele>362.0</ele><time>2026-04-04T14:28:35.613Z</time></trkpt><trkpt lat="45.1049483" lon="7.3410086"><ele>362.0</ele><time>2026-04-04T14:28:36.614Z</time></trkpt><trkpt lat="45.1049641" lon="7.3407068"><ele>362.0</ele><time>2026-04-04T14:28:37.613Z</time></trkpt><trkpt lat="45.1049806" lon="7.3403835"><ele>362.0</ele><time>2026-04-04T14:28:38.613Z</time></trkpt><trkpt lat="45.1049949" lon="7.3400994"><ele>362.0</ele><time>2026-04-04T14:28:39.612Z</time></trkpt><trkpt lat="45.1050117" lon="7.3397999"><ele>362.0</ele><time>2026-04-04T14:28:40.613Z</time></trkpt><trkpt lat="45.1050296" lon="7.3394788"><ele>362.0</ele><time>2026-04-04T14:28:41.613Z</time></trkpt><trkpt lat="45.1050451" lon="7.3391997"><ele>362.0</ele><time>2026-04-04T14:28:42.614Z</time></trkpt><trkpt lat="45.1050611" lon="7.3389009"><ele>362.0</ele><time>2026-04-04T14:28:43.613Z</time></trkpt><trkpt lat="45.1050753" lon="7.3386028"><ele>362.0</ele><time>2026-04-04T14:28:44.614Z</time></trkpt><trkpt lat="45.105088" lon="7.3383089"><ele>362.0</ele><time>2026-04-04T14:28:45.614Z</time></trkpt><trkpt lat="45.1051019" lon="7.3379937"><ele>362.0</ele><time>2026-04-04T14:28:46.613Z</time></trkpt><trkpt lat="45.1051171" lon="7.3377195"><ele>362.0</ele><time>2026-04-04T14:28:47.613Z</time></trkpt><trkpt lat="45.1051346" lon="7.3374236"><ele>362.6666666666667</ele><time>2026-04-04T14:28:48.613Z</time></trkpt><trkpt lat="45.1051515" lon="7.3371299"><ele>363.3333333333333</ele><time>2026-04-04T14:28:49.613Z</time></trkpt><trkpt lat="45.1051667" lon="7.3368386"><ele>364.0</ele><time>2026-04-04T14:28:50.614Z</time></trkpt><trkpt lat="45.1051819" lon="7.3365465"><ele>363.66666666666663</ele><time>2026-04-04T14:28:51.612Z</time></trkpt><trkpt lat="45.1051974" lon="7.3362597"><ele>363.3333333333333</ele><time>2026-04-04T14:28:52.613Z</time></trkpt><trkpt lat="45.1052129" lon="7.3359801"><ele>363.0</ele><time>2026-04-04T14:28:53.613Z</time></trkpt><trkpt lat="45.105231" lon="7.3356812"><ele>363.3333333333333</ele><time>2026-04-04T14:28:54.613Z</time></trkpt><trkpt lat="45.105246" lon="7.335422"><ele>363.66666666666663</ele><time>2026-04-04T14:28:55.614Z</time></trkpt><trkpt lat="45.105262" lon="7.3351418"><ele>364.0</ele><time>2026-04-04T14:28:56.614Z</time></trkpt><trkpt lat="45.1052778" lon="7.3348456"><ele>363.66666666666663</ele><time>2026-04-04T14:28:57.612Z</time></trkpt><trkpt lat="45.1052913" lon="7.3345884"><ele>363.3333333333333</ele><time>2026-04-04T14:28:58.613Z</time></trkpt><trkpt lat="45.1053055" lon="7.3343158"><ele>363.0</ele><time>2026-04-04T14:28:59.613Z</time></trkpt><trkpt lat="45.1053192" lon="7.3340492"><ele>363.3333333333333</ele><time>2026-04-04T14:29:00.613Z</time></trkpt><trkpt lat="45.105333" lon="7.3337899"><ele>363.66666666666663</ele><time>2026-04-04T14:29:01.613Z</time></trkpt><trkpt lat="45.1053471" lon="7.3335126"><ele>364.0</ele><time>2026-04-04T14:29:02.613Z</time></trkpt><trkpt lat="45.1053591" lon="7.333267"><ele>363.66666666666663</ele><time>2026-04-04T14:29:03.614Z</time></trkpt><trkpt lat="45.1053727" lon="7.3330057"><ele>363.3333333333333</ele><time>2026-04-04T14:29:04.613Z</time></trkpt><trkpt lat="45.1053867" lon="7.3327501"><ele>363.0</ele><time>2026-04-04T14:29:05.613Z</time></trkpt><trkpt lat="45.1053996" lon="7.33251"><ele>363.0</ele><time>2026-04-04T14:29:06.612Z</time></trkpt><trkpt lat="45.1054116" lon="7.3322813"><ele>363.0</ele><time>2026-04-04T14:29:07.612Z</time></trkpt><trkpt lat="45.1054227" lon="7.3320644"><ele>363.0</ele><time>2026-04-04T14:29:08.613Z</time></trkpt><trkpt lat="45.1054327" lon="7.3318629"><ele>363.25</ele><time>2026-04-04T14:29:09.613Z</time></trkpt><trkpt lat="45.1054433" lon="7.3316609"><ele>363.5</ele><time>2026-04-04T14:29:10.613Z</time></trkpt><trkpt lat="45.1054509" lon="7.3315024"><ele>363.75</ele><time>2026-04-04T14:29:11.613Z</time></trkpt><trkpt lat="45.1054582" lon="7.3313507"><ele>364.0</ele><time>2026-04-04T14:29:12.614Z</time></trkpt><trkpt lat="45.105466" lon="7.3312151"><ele>364.0</ele><time>2026-04-04T14:29:13.614Z</time></trkpt><trkpt lat="45.105472" lon="7.3311187"><ele>364.0</ele><time>2026-04-04T14:29:14.614Z</time></trkpt><trkpt lat="45.1054829" lon="7.3309675"><ele>364.0</ele><time>2026-04-04T14:29:16.613Z</time></trkpt><trkpt lat="45.1054937" lon="7.3308262"><ele>364.0</ele><time>2026-04-04T14:29:18.614Z</time></trkpt><trkpt lat="45.1054967" lon="7.3307365"><ele>364.0</ele><time>2026-04-04T14:29:19.613Z</time></trkpt><trkpt lat="45.1054997" lon="7.3306185"><ele>364.0</ele><time>2026-04-04T14:29:20.613Z</time></trkpt><trkpt lat="45.1055044" lon="7.3304781"><ele>364.5</ele><time>2026-04-04T14:29:21.612Z</time></trkpt><trkpt lat="45.1055112" lon="7.330325"><ele>365.0</ele><time>2026-04-04T14:29:22.613Z</time></trkpt><trkpt lat="45.105518" lon="7.330155"><ele>365.5</ele><time>2026-04-04T14:29:23.613Z</time></trkpt><trkpt lat="45.1055241" lon="7.3299644"><ele>366.0</ele><time>2026-04-04T14:29:24.614Z</time></trkpt><trkpt lat="45.1055278" lon="7.3297449"><ele>366.0</ele><time>2026-04-04T14:29:25.613Z</time></trkpt><trkpt lat="45.1055327" lon="7.3294937"><ele>366.0</ele><time>2026-04-04T14:29:26.613Z</time></trkpt><trkpt lat="45.1055442" lon="7.3292615"><ele>366.0</ele><time>2026-04-04T14:29:27.614Z</time></trkpt><trkpt lat="45.1055601" lon="7.3290008"><ele>365.6666666666667</ele><time>2026-04-04T14:29:28.614Z</time></trkpt><trkpt lat="45.105577" lon="7.3287082"><ele>365.33333333333337</ele><time>2026-04-04T14:29:29.613Z</time></trkpt><trkpt lat="45.1055936" lon="7.3284436"><ele>365.0</ele><time>2026-04-04T14:29:30.613Z</time></trkpt><trkpt lat="45.1056116" lon="7.3281533"><ele>365.33333333333337</ele><time>2026-04-04T14:29:31.613Z</time></trkpt><trkpt lat="45.1056291" lon="7.3278686"><ele>365.6666666666667</ele><time>2026-04-04T14:29:32.613Z</time></trkpt><trkpt lat="45.1056458" lon="7.3275927"><ele>366.0</ele><time>2026-04-04T14:29:33.613Z</time></trkpt><trkpt lat="45.1056636" lon="7.3273063"><ele>366.3333333333333</ele><time>2026-04-04T14:29:34.612Z</time></trkpt><trkpt lat="45.1056786" lon="7.3270581"><ele>366.66666666666663</ele><time>2026-04-04T14:29:35.613Z</time></trkpt><trkpt lat="45.105693" lon="7.3267886"><ele>367.0</ele><time>2026-04-04T14:29:36.612Z</time></trkpt><trkpt lat="45.1057068" lon="7.3265199"><ele>367.3333333333333</ele><time>2026-04-04T14:29:37.613Z</time></trkpt><trkpt lat="45.1057204" lon="7.3262591"><ele>367.6666666666667</ele><time>2026-04-04T14:29:38.613Z</time></trkpt><trkpt lat="45.1057314" lon="7.3260347"><ele>368.0</ele><time>2026-04-04T14:29:39.613Z</time></trkpt><trkpt lat="45.1057408" lon="7.3258553"><ele>367.79999999999995</ele><time>2026-04-04T14:29:40.613Z</time></trkpt><trkpt lat="45.1057487" lon="7.3257081"><ele>367.6</ele><time>2026-04-04T14:29:41.614Z</time></trkpt><trkpt lat="45.105755" lon="7.3255937"><ele>367.4</ele><time>2026-04-04T14:29:42.614Z</time></trkpt><trkpt lat="45.1057604" lon="7.3254806"><ele>367.20000000000005</ele><time>2026-04-04T14:30:05.614Z</time></trkpt><trkpt lat="45.1057714" lon="7.3252737"><ele>367.0</ele><time>2026-04-04T14:30:07.613Z</time></trkpt><trkpt lat="45.1057795" lon="7.3251093"><ele>367.0</ele><time>2026-04-04T14:30:08.614Z</time></trkpt><trkpt lat="45.1057889" lon="7.3249182"><ele>367.0</ele><time>2026-04-04T14:30:09.613Z</time></trkpt><trkpt lat="45.1058006" lon="7.3247031"><ele>367.0</ele><time>2026-04-04T14:30:10.614Z</time></trkpt><trkpt lat="45.1058136" lon="7.3244687"><ele>367.0</ele><time>2026-04-04T14:30:11.614Z</time></trkpt><trkpt lat="45.1058263" lon="7.3242234"><ele>367.0</ele><time>2026-04-04T14:30:12.613Z</time></trkpt><trkpt lat="45.10584" lon="7.3239674"><ele>367.0</ele><time>2026-04-04T14:30:13.613Z</time></trkpt><trkpt lat="45.1058548" lon="7.3236978"><ele>367.3333333333333</ele><time>2026-04-04T14:30:14.613Z</time></trkpt><trkpt lat="45.1058681" lon="7.3234688"><ele>367.6666666666667</ele><time>2026-04-04T14:30:15.613Z</time></trkpt><trkpt lat="45.1058819" lon="7.3232263"><ele>368.0</ele><time>2026-04-04T14:30:16.606Z</time></trkpt><trkpt lat="45.105897" lon="7.3229748"><ele>368.0</ele><time>2026-04-04T14:30:17.614Z</time></trkpt><trkpt lat="45.1059104" lon="7.3227553"><ele>368.0</ele><time>2026-04-04T14:30:18.613Z</time></trkpt><trkpt lat="45.1059243" lon="7.322524"><ele>368.0</ele><time>2026-04-04T14:30:19.613Z</time></trkpt><trkpt lat="45.1059362" lon="7.3222975"><ele>368.0</ele><time>2026-04-04T14:30:20.612Z</time></trkpt><trkpt lat="45.1059475" lon="7.3220703"><ele>368.0</ele><time>2026-04-04T14:30:21.612Z</time></trkpt><trkpt lat="45.1059593" lon="7.3218294"><ele>368.0</ele><time>2026-04-04T14:30:22.613Z</time></trkpt><trkpt lat="45.1059693" lon="7.3216169"><ele>368.33333333333337</ele><time>2026-04-04T14:30:23.612Z</time></trkpt><trkpt lat="45.1059809" lon="7.3213828"><ele>368.6666666666667</ele><time>2026-04-04T14:30:24.614Z</time></trkpt><trkpt lat="45.105993" lon="7.321148"><ele>369.0</ele><time>2026-04-04T14:30:25.614Z</time></trkpt><trkpt lat="45.1060056" lon="7.320913"><ele>369.0</ele><time>2026-04-04T14:30:26.614Z</time></trkpt><trkpt lat="45.1060181" lon="7.3206816"><ele>369.0</ele><time>2026-04-04T14:30:27.613Z</time></trkpt><trkpt lat="45.106029" lon="7.3204608"><ele>369.0</ele><time>2026-04-04T14:30:28.614Z</time></trkpt><trkpt lat="45.1060397" lon="7.3202486"><ele>369.0</ele><time>2026-04-04T14:30:29.613Z</time></trkpt><trkpt lat="45.1060506" lon="7.3200364"><ele>369.0</ele><time>2026-04-04T14:30:30.614Z</time></trkpt><trkpt lat="45.1060589" lon="7.3198621"><ele>369.0</ele><time>2026-04-04T14:30:31.614Z</time></trkpt><trkpt lat="45.1060675" lon="7.319686"><ele>369.0</ele><time>2026-04-04T14:30:32.613Z</time></trkpt><trkpt lat="45.1060758" lon="7.3195026"><ele>369.0</ele><time>2026-04-04T14:30:33.613Z</time></trkpt><trkpt lat="45.1060843" lon="7.319336"><ele>369.0</ele><time>2026-04-04T14:30:34.613Z</time></trkpt><trkpt lat="45.1060942" lon="7.3191533"><ele>369.0</ele><time>2026-04-04T14:30:35.612Z</time></trkpt><trkpt lat="45.1061043" lon="7.3189697"><ele>369.0</ele><time>2026-04-04T14:30:36.612Z</time></trkpt><trkpt lat="45.1061136" lon="7.318785"><ele>369.0</ele><time>2026-04-04T14:30:37.613Z</time></trkpt><trkpt lat="45.106123" lon="7.3186015"><ele>369.0</ele><time>2026-04-04T14:30:38.612Z</time></trkpt><trkpt lat="45.1061321" lon="7.31842"><ele>369.0</ele><time>2026-04-04T14:30:39.612Z</time></trkpt><trkpt lat="45.1061416" lon="7.3182378"><ele>369.0</ele><time>2026-04-04T14:30:40.612Z</time></trkpt><trkpt lat="45.1061509" lon="7.3180581"><ele>368.75</ele><time>2026-04-04T14:30:41.613Z</time></trkpt><trkpt lat="45.1061603" lon="7.3178778"><ele>368.5</ele><time>2026-04-04T14:30:42.612Z</time></trkpt><trkpt lat="45.106169" lon="7.3177012"><ele>368.25</ele><time>2026-04-04T14:30:43.613Z</time></trkpt><trkpt lat="45.1061775" lon="7.317532"><ele>368.0</ele><time>2026-04-04T14:30:44.613Z</time></trkpt><trkpt lat="45.1061856" lon="7.3173658"><ele>368.25</ele><time>2026-04-04T14:30:45.612Z</time></trkpt><trkpt lat="45.1061946" lon="7.3171949"><ele>368.5</ele><time>2026-04-04T14:30:46.613Z</time></trkpt><trkpt lat="45.106202" lon="7.3170452"><ele>368.75</ele><time>2026-04-04T14:30:47.612Z</time></trkpt><trkpt lat="45.1062108" lon="7.3168861"><ele>369.0</ele><time>2026-04-04T14:30:48.612Z</time></trkpt><trkpt lat="45.10622" lon="7.3167121"><ele>369.0</ele><time>2026-04-04T14:30:49.612Z</time></trkpt><trkpt lat="45.1062284" lon="7.3165449"><ele>369.0</ele><time>2026-04-04T14:30:50.612Z</time></trkpt><trkpt lat="45.1062376" lon="7.3163586"><ele>369.0</ele><time>2026-04-04T14:30:51.612Z</time></trkpt><trkpt lat="45.1062474" lon="7.3161789"><ele>369.0</ele><time>2026-04-04T14:30:52.613Z</time></trkpt><trkpt lat="45.1062572" lon="7.3160041"><ele>369.0</ele><time>2026-04-04T14:30:53.613Z</time></trkpt><trkpt lat="45.1062667" lon="7.3158251"><ele>369.0</ele><time>2026-04-04T14:30:54.613Z</time></trkpt><trkpt lat="45.1062738" lon="7.3156653"><ele>369.0</ele><time>2026-04-04T14:30:55.611Z</time></trkpt><trkpt lat="45.1062812" lon="7.3154894"><ele>369.0</ele><time>2026-04-04T14:30:56.612Z</time></trkpt><trkpt lat="45.1062892" lon="7.3153091"><ele>369.0</ele><time>2026-04-04T14:30:57.612Z</time></trkpt><trkpt lat="45.1062986" lon="7.3151188"><ele>369.0</ele><time>2026-04-04T14:30:58.612Z</time></trkpt><trkpt lat="45.1063091" lon="7.3149183"><ele>369.0</ele><time>2026-04-04T14:30:59.612Z</time></trkpt><trkpt lat="45.1063204" lon="7.3147108"><ele>369.0</ele><time>2026-04-04T14:31:00.612Z</time></trkpt><trkpt lat="45.1063323" lon="7.3144976"><ele>369.0</ele><time>2026-04-04T14:31:01.613Z</time></trkpt><trkpt lat="45.1063441" lon="7.3142722"><ele>369.0</ele><time>2026-04-04T14:31:02.613Z</time></trkpt><trkpt lat="45.1063539" lon="7.3140722"><ele>369.0</ele><time>2026-04-04T14:31:03.611Z</time></trkpt><trkpt lat="45.106364" lon="7.3138595"><ele>368.75</ele><time>2026-04-04T14:31:04.611Z</time></trkpt><trkpt lat="45.1063741" lon="7.3136358"><ele>368.5</ele><time>2026-04-04T14:31:05.612Z</time></trkpt><trkpt lat="45.1063818" lon="7.3134369"><ele>368.25</ele><time>2026-04-04T14:31:06.612Z</time></trkpt><trkpt lat="45.1063931" lon="7.3132243"><ele>368.0</ele><time>2026-04-04T14:31:07.612Z</time></trkpt><trkpt lat="45.1064062" lon="7.3130159"><ele>368.75</ele><time>2026-04-04T14:31:08.611Z</time></trkpt><trkpt lat="45.1064182" lon="7.3128148"><ele>369.5</ele><time>2026-04-04T14:31:09.612Z</time></trkpt><trkpt lat="45.1064293" lon="7.312616"><ele>370.25</ele><time>2026-04-04T14:31:10.612Z</time></trkpt><trkpt lat="45.106438" lon="7.3124514"><ele>371.0</ele><time>2026-04-04T14:31:11.613Z</time></trkpt><trkpt lat="45.1064465" lon="7.3122873"><ele>371.20000000000005</ele><time>2026-04-04T14:31:12.612Z</time></trkpt><trkpt lat="45.1064539" lon="7.312136"><ele>371.40000000000003</ele><time>2026-04-04T14:31:13.612Z</time></trkpt><trkpt lat="45.1064603" lon="7.3119975"><ele>371.6</ele><time>2026-04-04T14:31:14.612Z</time></trkpt><trkpt lat="45.1064667" lon="7.3118726"><ele>371.8</ele><time>2026-04-04T14:31:15.611Z</time></trkpt><trkpt lat="45.1064736" lon="7.3117824"><ele>372.0</ele><time>2026-04-04T14:31:16.611Z</time></trkpt><trkpt lat="45.1065073" lon="7.3116432"><ele>371.6666666666667</ele><time>2026-04-04T14:31:18.612Z</time></trkpt><trkpt lat="45.1065816" lon="7.3115197"><ele>371.3333333333333</ele><time>2026-04-04T14:31:20.611Z</time></trkpt><trkpt lat="45.1066199" lon="7.3114305"><ele>371.0</ele><time>2026-04-04T14:31:21.613Z</time></trkpt><trkpt lat="45.1066344" lon="7.311338"><ele>370.66666666666663</ele><time>2026-04-04T14:31:22.613Z</time></trkpt><trkpt lat="45.1066245" lon="7.3112305"><ele>370.3333333333333</ele><time>2026-04-04T14:31:23.612Z</time></trkpt><trkpt lat="45.1065931" lon="7.311137"><ele>370.0</ele><time>2026-04-04T14:31:24.611Z</time></trkpt><trkpt lat="45.1065582" lon="7.3110307"><ele>370.0</ele><time>2026-04-04T14:31:25.612Z</time></trkpt><trkpt lat="45.106535" lon="7.3109047"><ele>370.0</ele><time>2026-04-04T14:31:26.612Z</time></trkpt><trkpt lat="45.1065284" lon="7.3107898"><ele>370.0</ele><time>2026-04-04T14:31:27.612Z</time></trkpt><trkpt lat="45.10653" lon="7.3106512"><ele>370.0</ele><time>2026-04-04T14:31:28.612Z</time></trkpt><trkpt lat="45.1065368" lon="7.3104902"><ele>370.0</ele><time>2026-04-04T14:31:29.613Z</time></trkpt><trkpt lat="45.1065462" lon="7.3103183"><ele>370.25</ele><time>2026-04-04T14:31:30.613Z</time></trkpt><trkpt lat="45.1065546" lon="7.3101337"><ele>370.5</ele><time>2026-04-04T14:31:31.612Z</time></trkpt><trkpt lat="45.1065638" lon="7.3099282"><ele>370.75</ele><time>2026-04-04T14:31:32.612Z</time></trkpt><trkpt lat="45.1065743" lon="7.3096929"><ele>371.0</ele><time>2026-04-04T14:31:33.612Z</time></trkpt><trkpt lat="45.1065821" lon="7.3094116"><ele>370.6666666666667</ele><time>2026-04-04T14:31:34.613Z</time></trkpt><trkpt lat="45.1065909" lon="7.3091328"><ele>370.3333333333333</ele><time>2026-04-04T14:31:35.612Z</time></trkpt><trkpt lat="45.1066071" lon="7.3088114"><ele>370.0</ele><time>2026-04-04T14:31:36.613Z</time></trkpt><trkpt lat="45.1066298" lon="7.3084558"><ele>370.0</ele><time>2026-04-04T14:31:37.612Z</time></trkpt><trkpt lat="45.1066523" lon="7.3081251"><ele>370.0</ele><time>2026-04-04T14:31:38.612Z</time></trkpt><trkpt lat="45.1066766" lon="7.3077461"><ele>370.0</ele><time>2026-04-04T14:31:39.612Z</time></trkpt><trkpt lat="45.1066971" lon="7.3074051"><ele>370.0</ele><time>2026-04-04T14:31:40.613Z</time></trkpt><trkpt lat="45.1067174" lon="7.3070444"><ele>370.0</ele><time>2026-04-04T14:31:41.612Z</time></trkpt><trkpt lat="45.1067378" lon="7.3066674"><ele>370.0</ele><time>2026-04-04T14:31:42.613Z</time></trkpt><trkpt lat="45.1067544" lon="7.3063357"><ele>370.5</ele><time>2026-04-04T14:31:43.612Z</time></trkpt><trkpt lat="45.1067712" lon="7.305987"><ele>371.0</ele><time>2026-04-04T14:31:44.612Z</time></trkpt><trkpt lat="45.106788" lon="7.3056449"><ele>372.5</ele><time>2026-04-04T14:31:45.612Z</time></trkpt><trkpt lat="45.1068055" lon="7.3053032"><ele>374.0</ele><time>2026-04-04T14:31:46.612Z</time></trkpt><trkpt lat="45.1068246" lon="7.3049679"><ele>374.5</ele><time>2026-04-04T14:31:47.612Z</time></trkpt><trkpt lat="45.1068436" lon="7.304631"><ele>375.0</ele><time>2026-04-04T14:31:48.612Z</time></trkpt><trkpt lat="45.1068605" lon="7.3042961"><ele>375.0</ele><time>2026-04-04T14:31:49.612Z</time></trkpt><trkpt lat="45.1068783" lon="7.3039454"><ele>375.0</ele><time>2026-04-04T14:31:50.612Z</time></trkpt><trkpt lat="45.1068936" lon="7.3036349"><ele>374.5</ele><time>2026-04-04T14:31:51.612Z</time></trkpt><trkpt lat="45.1069081" lon="7.3033084"><ele>374.0</ele><time>2026-04-04T14:31:52.612Z</time></trkpt><trkpt lat="45.1069225" lon="7.3029603"><ele>373.6666666666667</ele><time>2026-04-04T14:31:53.612Z</time></trkpt><trkpt lat="45.1069353" lon="7.3026555"><ele>373.3333333333333</ele><time>2026-04-04T14:31:54.612Z</time></trkpt><trkpt lat="45.1069493" lon="7.3023342"><ele>373.0</ele><time>2026-04-04T14:31:55.612Z</time></trkpt><trkpt lat="45.106964" lon="7.302011"><ele>373.0</ele><time>2026-04-04T14:31:56.612Z</time></trkpt><trkpt lat="45.1069794" lon="7.3016892"><ele>373.0</ele><time>2026-04-04T14:31:57.611Z</time></trkpt><trkpt lat="45.1069965" lon="7.3013514"><ele>373.0</ele><time>2026-04-04T14:31:58.611Z</time></trkpt><trkpt lat="45.1070115" lon="7.3010526"><ele>373.0</ele><time>2026-04-04T14:31:59.612Z</time></trkpt><trkpt lat="45.1070268" lon="7.3007357"><ele>373.0</ele><time>2026-04-04T14:32:00.612Z</time></trkpt><trkpt lat="45.1070417" lon="7.3004167"><ele>373.0</ele><time>2026-04-04T14:32:01.612Z</time></trkpt><trkpt lat="45.1070564" lon="7.3000975"><ele>373.0</ele><time>2026-04-04T14:32:02.612Z</time></trkpt><trkpt lat="45.1070716" lon="7.2997819"><ele>373.0</ele><time>2026-04-04T14:32:03.611Z</time></trkpt><trkpt lat="45.1070874" lon="7.2994664"><ele>373.0</ele><time>2026-04-04T14:32:04.612Z</time></trkpt><trkpt lat="45.107102" lon="7.2991617"><ele>373.0</ele><time>2026-04-04T14:32:05.612Z</time></trkpt><trkpt lat="45.1071153" lon="7.2988558"><ele>373.0</ele><time>2026-04-04T14:32:06.611Z</time></trkpt><trkpt lat="45.1071268" lon="7.2985944"><ele>372.66666666666663</ele><time>2026-04-04T14:32:07.613Z</time></trkpt><trkpt lat="45.1071384" lon="7.2983338"><ele>372.3333333333333</ele><time>2026-04-04T14:32:08.612Z</time></trkpt><trkpt lat="45.10715" lon="7.298066"><ele>372.0</ele><time>2026-04-04T14:32:09.612Z</time></trkpt><trkpt lat="45.1071601" lon="7.2978357"><ele>372.3333333333333</ele><time>2026-04-04T14:32:10.613Z</time></trkpt><trkpt lat="45.1071712" lon="7.2975953"><ele>372.66666666666663</ele><time>2026-04-04T14:32:11.613Z</time></trkpt><trkpt lat="45.1071824" lon="7.2973527"><ele>373.0</ele><time>2026-04-04T14:32:12.611Z</time></trkpt><trkpt lat="45.1071937" lon="7.2971089"><ele>373.0</ele><time>2026-04-04T14:32:13.612Z</time></trkpt><trkpt lat="45.1072062" lon="7.2968496"><ele>373.0</ele><time>2026-04-04T14:32:14.612Z</time></trkpt><trkpt lat="45.1072177" lon="7.2966164"><ele>373.0</ele><time>2026-04-04T14:32:15.612Z</time></trkpt><trkpt lat="45.1072297" lon="7.2963679"><ele>373.0</ele><time>2026-04-04T14:32:16.613Z</time></trkpt><trkpt lat="45.1072413" lon="7.2961183"><ele>373.0</ele><time>2026-04-04T14:32:17.612Z</time></trkpt><trkpt lat="45.1072526" lon="7.2958711"><ele>373.0</ele><time>2026-04-04T14:32:18.613Z</time></trkpt><trkpt lat="45.1072642" lon="7.2956302"><ele>373.0</ele><time>2026-04-04T14:32:19.613Z</time></trkpt><trkpt lat="45.1072752" lon="7.2953892"><ele>373.0</ele><time>2026-04-04T14:32:20.612Z</time></trkpt><trkpt lat="45.1072853" lon="7.2951506"><ele>373.0</ele><time>2026-04-04T14:32:21.612Z</time></trkpt><trkpt lat="45.1072952" lon="7.2949005"><ele>373.0</ele><time>2026-04-04T14:32:22.612Z</time></trkpt><trkpt lat="45.1073041" lon="7.2946795"><ele>373.0</ele><time>2026-04-04T14:32:23.613Z</time></trkpt><trkpt lat="45.1073145" lon="7.2944461"><ele>373.0</ele><time>2026-04-04T14:32:24.613Z</time></trkpt><trkpt lat="45.1073268" lon="7.2941942"><ele>373.0</ele><time>2026-04-04T14:32:25.613Z</time></trkpt><trkpt lat="45.1073375" lon="7.2939699"><ele>373.0</ele><time>2026-04-04T14:32:26.613Z</time></trkpt><trkpt lat="45.1073486" lon="7.2937297"><ele>373.0</ele><time>2026-04-04T14:32:27.613Z</time></trkpt><trkpt lat="45.1073601" lon="7.2934875"><ele>373.3333333333333</ele><time>2026-04-04T14:32:28.613Z</time></trkpt><trkpt lat="45.1073712" lon="7.2932494"><ele>373.6666666666667</ele><time>2026-04-04T14:32:29.613Z</time></trkpt><trkpt lat="45.1073829" lon="7.2930031"><ele>374.0</ele><time>2026-04-04T14:32:30.613Z</time></trkpt><trkpt lat="45.1073928" lon="7.2927878"><ele>374.0</ele><time>2026-04-04T14:32:31.612Z</time></trkpt><trkpt lat="45.1074028" lon="7.2925615"><ele>374.0</ele><time>2026-04-04T14:32:32.612Z</time></trkpt><trkpt lat="45.1074127" lon="7.2923308"><ele>374.0</ele><time>2026-04-04T14:32:33.612Z</time></trkpt><trkpt lat="45.1074225" lon="7.2920991"><ele>374.33333333333337</ele><time>2026-04-04T14:32:34.612Z</time></trkpt><trkpt lat="45.1074317" lon="7.2918713"><ele>374.6666666666667</ele><time>2026-04-04T14:32:35.612Z</time></trkpt><trkpt lat="45.1074407" lon="7.2916442"><ele>375.0</ele><time>2026-04-04T14:32:36.612Z</time></trkpt><trkpt lat="45.10745" lon="7.2914258"><ele>374.75</ele><time>2026-04-04T14:32:37.613Z</time></trkpt><trkpt lat="45.1074596" lon="7.291206"><ele>374.5</ele><time>2026-04-04T14:32:38.613Z</time></trkpt><trkpt lat="45.107467" lon="7.2910228"><ele>374.25</ele><time>2026-04-04T14:32:39.613Z</time></trkpt><trkpt lat="45.1074743" lon="7.2908415"><ele>374.0</ele><time>2026-04-04T14:32:40.611Z</time></trkpt><trkpt lat="45.1074819" lon="7.2906581"><ele>374.79999999999995</ele><time>2026-04-04T14:32:41.611Z</time></trkpt><trkpt lat="45.1074885" lon="7.2905016"><ele>375.59999999999997</ele><time>2026-04-04T14:32:42.612Z</time></trkpt><trkpt lat="45.107496" lon="7.2903421"><ele>376.4</ele><time>2026-04-04T14:32:43.612Z</time></trkpt><trkpt lat="45.1075034" lon="7.2901865"><ele>377.2</ele><time>2026-04-04T14:32:44.612Z</time></trkpt><trkpt lat="45.1075107" lon="7.2900362"><ele>378.0</ele><time>2026-04-04T14:32:45.613Z</time></trkpt><trkpt lat="45.1075184" lon="7.2898905"><ele>378.0</ele><time>2026-04-04T14:32:46.612Z</time></trkpt><trkpt lat="45.1075258" lon="7.2897831"><ele>378.0</ele><time>2026-04-04T14:32:47.612Z</time></trkpt><trkpt lat="45.1075331" lon="7.2896921"><ele>378.0</ele><time>2026-04-04T14:32:48.613Z</time></trkpt><trkpt lat="45.1075523" lon="7.2895494"><ele>378.0</ele><time>2026-04-04T14:32:50.612Z</time></trkpt><trkpt lat="45.1075759" lon="7.2894663"><ele>378.0</ele><time>2026-04-04T14:32:51.612Z</time></trkpt><trkpt lat="45.1076171" lon="7.2893826"><ele>378.0</ele><time>2026-04-04T14:32:52.612Z</time></trkpt><trkpt lat="45.1076613" lon="7.2892941"><ele>377.8333333333333</ele><time>2026-04-04T14:32:53.611Z</time></trkpt><trkpt lat="45.1076903" lon="7.2891896"><ele>377.6666666666667</ele><time>2026-04-04T14:32:54.612Z</time></trkpt><trkpt lat="45.1076913" lon="7.2890943"><ele>377.5</ele><time>2026-04-04T14:32:55.613Z</time></trkpt><trkpt lat="45.1076735" lon="7.2890008"><ele>377.33333333333337</ele><time>2026-04-04T14:32:56.613Z</time></trkpt><trkpt lat="45.1076412" lon="7.2888915"><ele>377.1666666666667</ele><time>2026-04-04T14:32:57.612Z</time></trkpt><trkpt lat="45.1076152" lon="7.2887734"><ele>377.0</ele><time>2026-04-04T14:32:58.612Z</time></trkpt><trkpt lat="45.1075994" lon="7.288624"><ele>377.0</ele><time>2026-04-04T14:32:59.612Z</time></trkpt><trkpt lat="45.1075945" lon="7.2884619"><ele>377.0</ele><time>2026-04-04T14:33:00.612Z</time></trkpt><trkpt lat="45.1075952" lon="7.2882851"><ele>377.0</ele><time>2026-04-04T14:33:01.613Z</time></trkpt><trkpt lat="45.1075999" lon="7.2880853"><ele>377.0</ele><time>2026-04-04T14:33:02.612Z</time></trkpt><trkpt lat="45.1076065" lon="7.2878973"><ele>377.0</ele><time>2026-04-04T14:33:03.612Z</time></trkpt><trkpt lat="45.1076154" lon="7.2876882"><ele>377.0</ele><time>2026-04-04T14:33:04.611Z</time></trkpt><trkpt lat="45.1076251" lon="7.2874832"><ele>377.0</ele><time>2026-04-04T14:33:05.611Z</time></trkpt><trkpt lat="45.1076334" lon="7.2872955"><ele>377.0</ele><time>2026-04-04T14:33:06.611Z</time></trkpt><trkpt lat="45.1076395" lon="7.2871261"><ele>377.0</ele><time>2026-04-04T14:33:07.612Z</time></trkpt><trkpt lat="45.1076436" lon="7.2869701"><ele>377.0</ele><time>2026-04-04T14:33:08.612Z</time></trkpt><trkpt lat="45.107646" lon="7.2868254"><ele>377.0</ele><time>2026-04-04T14:33:09.613Z</time></trkpt><trkpt lat="45.1076496" lon="7.286668"><ele>377.0</ele><time>2026-04-04T14:33:10.613Z</time></trkpt><trkpt lat="45.107657" lon="7.2865148"><ele>377.0</ele><time>2026-04-04T14:33:11.611Z</time></trkpt><trkpt lat="45.1076658" lon="7.2863447"><ele>376.75</ele><time>2026-04-04T14:33:12.61Z</time></trkpt><trkpt lat="45.107675" lon="7.2861477"><ele>376.5</ele><time>2026-04-04T14:33:13.611Z</time></trkpt><trkpt lat="45.1076818" lon="7.2859595"><ele>376.25</ele><time>2026-04-04T14:33:14.611Z</time></trkpt><trkpt lat="45.1076879" lon="7.2857467"><ele>376.0</ele><time>2026-04-04T14:33:15.61Z</time></trkpt><trkpt lat="45.1076965" lon="7.285513"><ele>376.0</ele><time>2026-04-04T14:33:16.611Z</time></trkpt><trkpt lat="45.1077044" lon="7.2852606"><ele>376.0</ele><time>2026-04-04T14:33:17.611Z</time></trkpt><trkpt lat="45.1077106" lon="7.2849815"><ele>376.0</ele><time>2026-04-04T14:33:18.611Z</time></trkpt><trkpt lat="45.1077209" lon="7.2847428"><ele>376.3333333333333</ele><time>2026-04-04T14:33:19.61Z</time></trkpt><trkpt lat="45.1077338" lon="7.2845042"><ele>376.6666666666667</ele><time>2026-04-04T14:33:20.612Z</time></trkpt><trkpt lat="45.1077475" lon="7.2842729"><ele>377.0</ele><time>2026-04-04T14:33:21.611Z</time></trkpt><trkpt lat="45.10776" lon="7.2840487"><ele>377.25</ele><time>2026-04-04T14:33:22.611Z</time></trkpt><trkpt lat="45.107772" lon="7.2838331"><ele>377.5</ele><time>2026-04-04T14:33:23.611Z</time></trkpt><trkpt lat="45.1077853" lon="7.2836283"><ele>377.75</ele><time>2026-04-04T14:33:24.611Z</time></trkpt><trkpt lat="45.1077991" lon="7.2834364"><ele>378.0</ele><time>2026-04-04T14:33:25.612Z</time></trkpt><trkpt lat="45.1078123" lon="7.2832556"><ele>378.0</ele><time>2026-04-04T14:33:26.611Z</time></trkpt><trkpt lat="45.1078229" lon="7.2831229"><ele>378.0</ele><time>2026-04-04T14:33:27.611Z</time></trkpt><trkpt lat="45.1078323" lon="7.2830004"><ele>378.0</ele><time>2026-04-04T14:33:28.611Z</time></trkpt><trkpt lat="45.1078395" lon="7.2828891"><ele>378.0</ele><time>2026-04-04T14:33:29.61Z</time></trkpt><trkpt lat="45.1078453" lon="7.2827772"><ele>378.0</ele><time>2026-04-04T14:33:31.611Z</time></trkpt><trkpt lat="45.1078498" lon="7.2826851"><ele>378.0</ele><time>2026-04-04T14:34:20.611Z</time></trkpt><trkpt lat="45.1078539" lon="7.2825857"><ele>378.2</ele><time>2026-04-04T14:34:21.611Z</time></trkpt><trkpt lat="45.1078602" lon="7.2824557"><ele>378.4</ele><time>2026-04-04T14:34:22.61Z</time></trkpt><trkpt lat="45.1078651" lon="7.2823204"><ele>378.59999999999997</ele><time>2026-04-04T14:34:23.611Z</time></trkpt><trkpt lat="45.1078707" lon="7.2821612"><ele>378.79999999999995</ele><time>2026-04-04T14:34:24.61Z</time></trkpt><trkpt lat="45.1078773" lon="7.2819908"><ele>379.0</ele><time>2026-04-04T14:34:25.611Z</time></trkpt><trkpt lat="45.1078836" lon="7.2818125"><ele>379.5</ele><time>2026-04-04T14:34:26.612Z</time></trkpt><trkpt lat="45.10789" lon="7.2816282"><ele>380.0</ele><time>2026-04-04T14:34:27.611Z</time></trkpt><trkpt lat="45.1078978" lon="7.2814338"><ele>380.5</ele><time>2026-04-04T14:34:28.612Z</time></trkpt><trkpt lat="45.1079062" lon="7.2812342"><ele>381.0</ele><time>2026-04-04T14:34:29.612Z</time></trkpt><trkpt lat="45.107915" lon="7.281017"><ele>381.0</ele><time>2026-04-04T14:34:30.611Z</time></trkpt><trkpt lat="45.1079228" lon="7.2808203"><ele>381.0</ele><time>2026-04-04T14:34:31.611Z</time></trkpt><trkpt lat="45.1079321" lon="7.2806078"><ele>381.0</ele><time>2026-04-04T14:34:32.611Z</time></trkpt><trkpt lat="45.107943" lon="7.2803749"><ele>381.0</ele><time>2026-04-04T14:34:33.612Z</time></trkpt><trkpt lat="45.1079528" lon="7.2801696"><ele>381.0</ele><time>2026-04-04T14:34:34.611Z</time></trkpt><trkpt lat="45.107963" lon="7.2799458"><ele>381.0</ele><time>2026-04-04T14:34:35.611Z</time></trkpt><trkpt lat="45.1079745" lon="7.27972"><ele>381.0</ele><time>2026-04-04T14:34:36.611Z</time></trkpt><trkpt lat="45.1079872" lon="7.2794904"><ele>381.0</ele><time>2026-04-04T14:34:37.611Z</time></trkpt><trkpt lat="45.1080052" lon="7.2792373"><ele>381.0</ele><time>2026-04-04T14:34:38.611Z</time></trkpt><trkpt lat="45.1080282" lon="7.2790113"><ele>381.0</ele><time>2026-04-04T14:34:39.611Z</time></trkpt><trkpt lat="45.1080633" lon="7.278771"><ele>381.0</ele><time>2026-04-04T14:34:40.611Z</time></trkpt><trkpt lat="45.1081105" lon="7.2785271"><ele>381.0</ele><time>2026-04-04T14:34:41.612Z</time></trkpt><trkpt lat="45.1081669" lon="7.2782864"><ele>381.3333333333333</ele><time>2026-04-04T14:34:42.611Z</time></trkpt><trkpt lat="45.1082282" lon="7.2780467"><ele>381.66666666666663</ele><time>2026-04-04T14:34:43.611Z</time></trkpt><trkpt lat="45.1082911" lon="7.2778054"><ele>382.0</ele><time>2026-04-04T14:34:44.611Z</time></trkpt><trkpt lat="45.1083515" lon="7.2775643"><ele>382.0</ele><time>2026-04-04T14:34:45.611Z</time></trkpt><trkpt lat="45.1084147" lon="7.2773014"><ele>382.0</ele><time>2026-04-04T14:34:46.612Z</time></trkpt><trkpt lat="45.1084669" lon="7.2770663"><ele>382.0</ele><time>2026-04-04T14:34:47.612Z</time></trkpt><trkpt lat="45.1085135" lon="7.2768126"><ele>382.3333333333333</ele><time>2026-04-04T14:34:48.61Z</time></trkpt><trkpt lat="45.108551" lon="7.2765341"><ele>382.6666666666667</ele><time>2026-04-04T14:34:49.611Z</time></trkpt><trkpt lat="45.1085743" lon="7.2762875"><ele>383.0</ele><time>2026-04-04T14:34:50.611Z</time></trkpt><trkpt lat="45.108593" lon="7.2760185"><ele>383.6666666666667</ele><time>2026-04-04T14:34:51.612Z</time></trkpt><trkpt lat="45.1086083" lon="7.2757482"><ele>384.33333333333337</ele><time>2026-04-04T14:34:52.611Z</time></trkpt><trkpt lat="45.1086226" lon="7.2754789"><ele>385.0</ele><time>2026-04-04T14:34:53.611Z</time></trkpt><trkpt lat="45.1086382" lon="7.2751891"><ele>385.0</ele><time>2026-04-04T14:34:54.611Z</time></trkpt><trkpt lat="45.1086503" lon="7.2749339"><ele>385.0</ele><time>2026-04-04T14:34:55.611Z</time></trkpt><trkpt lat="45.1086609" lon="7.274665"><ele>385.0</ele><time>2026-04-04T14:34:56.611Z</time></trkpt><trkpt lat="45.1086697" lon="7.2743929"><ele>384.6666666666667</ele><time>2026-04-04T14:34:57.612Z</time></trkpt><trkpt lat="45.108674" lon="7.2741332"><ele>384.33333333333337</ele><time>2026-04-04T14:34:58.612Z</time></trkpt><trkpt lat="45.1086724" lon="7.2738716"><ele>384.0</ele><time>2026-04-04T14:34:59.61Z</time></trkpt><trkpt lat="45.1086614" lon="7.2736087"><ele>383.6666666666667</ele><time>2026-04-04T14:35:00.611Z</time></trkpt><trkpt lat="45.1086411" lon="7.2733482"><ele>383.33333333333337</ele><time>2026-04-04T14:35:01.611Z</time></trkpt><trkpt lat="45.1086113" lon="7.2730689"><ele>383.0</ele><time>2026-04-04T14:35:02.612Z</time></trkpt><trkpt lat="45.1085813" lon="7.2728254"><ele>383.0</ele><time>2026-04-04T14:35:03.612Z</time></trkpt><trkpt lat="45.1085467" lon="7.2725628"><ele>383.0</ele><time>2026-04-04T14:35:04.612Z</time></trkpt><trkpt lat="45.1085098" lon="7.2722855"><ele>383.0</ele><time>2026-04-04T14:35:05.61Z</time></trkpt><trkpt lat="45.1084789" lon="7.272054"><ele>383.0</ele><time>2026-04-04T14:35:06.61Z</time></trkpt><trkpt lat="45.1084471" lon="7.2718149"><ele>383.0</ele><time>2026-04-04T14:35:07.611Z</time></trkpt><trkpt lat="45.1084172" lon="7.2715879"><ele>383.0</ele><time>2026-04-04T14:35:08.611Z</time></trkpt><trkpt lat="45.1083895" lon="7.271377"><ele>383.0</ele><time>2026-04-04T14:35:09.612Z</time></trkpt><trkpt lat="45.1083621" lon="7.2711627"><ele>383.0</ele><time>2026-04-04T14:35:10.611Z</time></trkpt><trkpt lat="45.1083393" lon="7.2709863"><ele>383.0</ele><time>2026-04-04T14:35:11.611Z</time></trkpt><trkpt lat="45.1083156" lon="7.2708043"><ele>383.0</ele><time>2026-04-04T14:35:12.611Z</time></trkpt><trkpt lat="45.1082924" lon="7.2706309"><ele>383.0</ele><time>2026-04-04T14:35:13.611Z</time></trkpt><trkpt lat="45.10827" lon="7.2704698"><ele>383.0</ele><time>2026-04-04T14:35:14.61Z</time></trkpt><trkpt lat="45.1082497" lon="7.270315"><ele>383.0</ele><time>2026-04-04T14:35:15.61Z</time></trkpt><trkpt lat="45.1082315" lon="7.2701699"><ele>383.0</ele><time>2026-04-04T14:35:16.611Z</time></trkpt><trkpt lat="45.1082151" lon="7.2700371"><ele>383.0</ele><time>2026-04-04T14:35:17.611Z</time></trkpt><trkpt lat="45.1081977" lon="7.2699092"><ele>383.1666666666667</ele><time>2026-04-04T14:35:18.611Z</time></trkpt><trkpt lat="45.1081845" lon="7.2698139"><ele>383.33333333333337</ele><time>2026-04-04T14:35:19.611Z</time></trkpt><trkpt lat="45.1081651" lon="7.2696803"><ele>383.5</ele><time>2026-04-04T14:35:21.612Z</time></trkpt><trkpt lat="45.1081517" lon="7.2695725"><ele>383.6666666666667</ele><time>2026-04-04T14:35:38.611Z</time></trkpt><trkpt lat="45.1081385" lon="7.2694766"><ele>383.8333333333333</ele><time>2026-04-04T14:35:39.611Z</time></trkpt><trkpt lat="45.1081226" lon="7.2693633"><ele>384.0</ele><time>2026-04-04T14:35:40.611Z</time></trkpt><trkpt lat="45.1081046" lon="7.2692325"><ele>384.0</ele><time>2026-04-04T14:35:41.611Z</time></trkpt><trkpt lat="45.1080842" lon="7.2690848"><ele>384.0</ele><time>2026-04-04T14:35:42.611Z</time></trkpt><trkpt lat="45.1080614" lon="7.2689259"><ele>384.0</ele><time>2026-04-04T14:35:43.611Z</time></trkpt><trkpt lat="45.1080372" lon="7.2687587"><ele>384.0</ele><time>2026-04-04T14:35:44.611Z</time></trkpt><trkpt lat="45.1080119" lon="7.2685827"><ele>383.75</ele><time>2026-04-04T14:35:45.612Z</time></trkpt><trkpt lat="45.1079849" lon="7.2683977"><ele>383.5</ele><time>2026-04-04T14:35:46.612Z</time></trkpt><trkpt lat="45.1079567" lon="7.2682009"><ele>383.25</ele><time>2026-04-04T14:35:47.612Z</time></trkpt><trkpt lat="45.1079278" lon="7.267995"><ele>383.0</ele><time>2026-04-04T14:35:48.611Z</time></trkpt><trkpt lat="45.1078982" lon="7.2677819"><ele>383.0</ele><time>2026-04-04T14:35:49.61Z</time></trkpt><trkpt lat="45.1078684" lon="7.2675601"><ele>383.0</ele><time>2026-04-04T14:35:50.609Z</time></trkpt><trkpt lat="45.1078392" lon="7.2673339"><ele>383.0</ele><time>2026-04-04T14:35:51.609Z</time></trkpt><trkpt lat="45.1078093" lon="7.2671041"><ele>383.0</ele><time>2026-04-04T14:35:52.611Z</time></trkpt><trkpt lat="45.1077759" lon="7.2668534"><ele>383.0</ele><time>2026-04-04T14:35:53.611Z</time></trkpt><trkpt lat="45.1077454" lon="7.2666294"><ele>383.0</ele><time>2026-04-04T14:35:54.609Z</time></trkpt><trkpt lat="45.1077119" lon="7.2663838"><ele>382.6666666666667</ele><time>2026-04-04T14:35:55.61Z</time></trkpt><trkpt lat="45.1076766" lon="7.2661327"><ele>382.3333333333333</ele><time>2026-04-04T14:35:56.61Z</time></trkpt><trkpt lat="45.1076419" lon="7.26588"><ele>382.0</ele><time>2026-04-04T14:35:57.61Z</time></trkpt><trkpt lat="45.1076076" lon="7.2656226"><ele>382.66666666666663</ele><time>2026-04-04T14:35:58.611Z</time></trkpt><trkpt lat="45.107574" lon="7.265368"><ele>383.3333333333333</ele><time>2026-04-04T14:35:59.61Z</time></trkpt><trkpt lat="45.1075386" lon="7.2651112"><ele>384.0</ele><time>2026-04-04T14:36:00.611Z</time></trkpt><trkpt lat="45.1075033" lon="7.2648579"><ele>384.33333333333337</ele><time>2026-04-04T14:36:01.609Z</time></trkpt><trkpt lat="45.1074681" lon="7.2646084"><ele>384.6666666666667</ele><time>2026-04-04T14:36:02.61Z</time></trkpt><trkpt lat="45.1074329" lon="7.264359"><ele>385.0</ele><time>2026-04-04T14:36:03.61Z</time></trkpt><trkpt lat="45.1073999" lon="7.2641188"><ele>385.5</ele><time>2026-04-04T14:36:04.611Z</time></trkpt><trkpt lat="45.10737" lon="7.2638955"><ele>386.0</ele><time>2026-04-04T14:36:05.611Z</time></trkpt><trkpt lat="45.1073436" lon="7.2636867"><ele>386.5</ele><time>2026-04-04T14:36:06.611Z</time></trkpt><trkpt lat="45.1073231" lon="7.2635105"><ele>387.0</ele><time>2026-04-04T14:36:07.61Z</time></trkpt><trkpt lat="45.1073128" lon="7.2633649"><ele>387.0</ele><time>2026-04-04T14:36:08.61Z</time></trkpt><trkpt lat="45.1073116" lon="7.2632506"><ele>387.0</ele><time>2026-04-04T14:36:09.609Z</time></trkpt><trkpt lat="45.1073194" lon="7.2631568"><ele>387.0</ele><time>2026-04-04T14:36:11.61Z</time></trkpt><trkpt lat="45.1073454" lon="7.2630636"><ele>387.0</ele><time>2026-04-04T14:36:15.611Z</time></trkpt><trkpt lat="45.1073849" lon="7.2628964"><ele>387.0</ele><time>2026-04-04T14:36:17.61Z</time></trkpt><trkpt lat="45.1073853" lon="7.2627926"><ele>387.0</ele><time>2026-04-04T14:36:18.61Z</time></trkpt><trkpt lat="45.1073849" lon="7.2626735"><ele>386.5</ele><time>2026-04-04T14:36:19.61Z</time></trkpt><trkpt lat="45.1074002" lon="7.26254"><ele>386.0</ele><time>2026-04-04T14:36:20.611Z</time></trkpt><trkpt lat="45.1074274" lon="7.2623908"><ele>385.5</ele><time>2026-04-04T14:36:21.61Z</time></trkpt><trkpt lat="45.1074685" lon="7.262218"><ele>385.0</ele><time>2026-04-04T14:36:22.61Z</time></trkpt><trkpt lat="45.1075208" lon="7.2620363"><ele>385.0</ele><time>2026-04-04T14:36:23.611Z</time></trkpt><trkpt lat="45.1075829" lon="7.2618509"><ele>385.0</ele><time>2026-04-04T14:36:24.61Z</time></trkpt><trkpt lat="45.1076481" lon="7.2616626"><ele>385.0</ele><time>2026-04-04T14:36:25.61Z</time></trkpt><trkpt lat="45.1077008" lon="7.2615118"><ele>385.0</ele><time>2026-04-04T14:36:26.609Z</time></trkpt><trkpt lat="45.1077528" lon="7.2613621"><ele>385.2</ele><time>2026-04-04T14:36:27.61Z</time></trkpt><trkpt lat="45.107797" lon="7.2612349"><ele>385.4</ele><time>2026-04-04T14:36:28.61Z</time></trkpt><trkpt lat="45.1078366" lon="7.2611181"><ele>385.6</ele><time>2026-04-04T14:36:29.609Z</time></trkpt><trkpt lat="45.1078787" lon="7.2609914"><ele>385.8</ele><time>2026-04-04T14:36:30.61Z</time></trkpt><trkpt lat="45.1079245" lon="7.2608478"><ele>386.0</ele><time>2026-04-04T14:36:31.61Z</time></trkpt><trkpt lat="45.1079782" lon="7.2606913"><ele>386.0</ele><time>2026-04-04T14:36:32.61Z</time></trkpt><trkpt lat="45.1080388" lon="7.2605231"><ele>386.0</ele><time>2026-04-04T14:36:33.609Z</time></trkpt><trkpt lat="45.1081027" lon="7.2603463"><ele>386.0</ele><time>2026-04-04T14:36:34.609Z</time></trkpt><trkpt lat="45.108171" lon="7.2601549"><ele>386.0</ele><time>2026-04-04T14:36:35.609Z</time></trkpt><trkpt lat="45.1082418" lon="7.2599561"><ele>386.0</ele><time>2026-04-04T14:36:36.61Z</time></trkpt><trkpt lat="45.1083139" lon="7.2597449"><ele>386.0</ele><time>2026-04-04T14:36:37.609Z</time></trkpt><trkpt lat="45.1083865" lon="7.259529"><ele>386.0</ele><time>2026-04-04T14:36:38.611Z</time></trkpt><trkpt lat="45.1084563" lon="7.2593209"><ele>386.0</ele><time>2026-04-04T14:36:39.61Z</time></trkpt><trkpt lat="45.1085287" lon="7.2591087"><ele>386.0</ele><time>2026-04-04T14:36:40.61Z</time></trkpt><trkpt lat="45.1086074" lon="7.2588804"><ele>386.0</ele><time>2026-04-04T14:36:41.609Z</time></trkpt><trkpt lat="45.1086771" lon="7.258677"><ele>386.3333333333333</ele><time>2026-04-04T14:36:42.61Z</time></trkpt><trkpt lat="45.1087532" lon="7.2584559"><ele>386.66666666666663</ele><time>2026-04-04T14:36:43.61Z</time></trkpt><trkpt lat="45.1088303" lon="7.2582341"><ele>387.0</ele><time>2026-04-04T14:36:44.61Z</time></trkpt><trkpt lat="45.1089077" lon="7.2580069"><ele>386.33333333333337</ele><time>2026-04-04T14:36:45.61Z</time></trkpt><trkpt lat="45.1089846" lon="7.2577781"><ele>385.6666666666667</ele><time>2026-04-04T14:36:46.609Z</time></trkpt><trkpt lat="45.1090607" lon="7.2575495"><ele>385.0</ele><time>2026-04-04T14:36:47.611Z</time></trkpt><trkpt lat="45.1091389" lon="7.2573179"><ele>385.6666666666667</ele><time>2026-04-04T14:36:48.61Z</time></trkpt><trkpt lat="45.1092177" lon="7.2570867"><ele>386.33333333333337</ele><time>2026-04-04T14:36:49.611Z</time></trkpt><trkpt lat="45.1092946" lon="7.256858"><ele>387.0</ele><time>2026-04-04T14:36:50.609Z</time></trkpt><trkpt lat="45.1093724" lon="7.2566278"><ele>387.0</ele><time>2026-04-04T14:36:51.61Z</time></trkpt><trkpt lat="45.1094503" lon="7.2564012"><ele>387.0</ele><time>2026-04-04T14:36:52.609Z</time></trkpt><trkpt lat="45.1095275" lon="7.256174"><ele>387.0</ele><time>2026-04-04T14:36:53.61Z</time></trkpt><trkpt lat="45.1096042" lon="7.2559488"><ele>387.0</ele><time>2026-04-04T14:36:54.61Z</time></trkpt><trkpt lat="45.1096795" lon="7.2557269"><ele>387.0</ele><time>2026-04-04T14:36:55.609Z</time></trkpt><trkpt lat="45.1097549" lon="7.255506"><ele>387.0</ele><time>2026-04-04T14:36:56.61Z</time></trkpt><trkpt lat="45.1098362" lon="7.2552671"><ele>386.66666666666663</ele><time>2026-04-04T14:36:57.609Z</time></trkpt><trkpt lat="45.1099094" lon="7.2550515"><ele>386.3333333333333</ele><time>2026-04-04T14:36:58.609Z</time></trkpt><trkpt lat="45.1099915" lon="7.2548091"><ele>386.0</ele><time>2026-04-04T14:36:59.61Z</time></trkpt><trkpt lat="45.1100737" lon="7.2545665"><ele>386.0</ele><time>2026-04-04T14:37:00.61Z</time></trkpt><trkpt lat="45.1101558" lon="7.2543227"><ele>386.0</ele><time>2026-04-04T14:37:01.609Z</time></trkpt><trkpt lat="45.1102354" lon="7.2540843"><ele>386.0</ele><time>2026-04-04T14:37:02.61Z</time></trkpt><trkpt lat="45.1103132" lon="7.2538531"><ele>386.0</ele><time>2026-04-04T14:37:03.61Z</time></trkpt><trkpt lat="45.1103918" lon="7.2536219"><ele>386.0</ele><time>2026-04-04T14:37:04.61Z</time></trkpt><trkpt lat="45.1104705" lon="7.2533883"><ele>386.0</ele><time>2026-04-04T14:37:05.609Z</time></trkpt><trkpt lat="45.11055" lon="7.2531546"><ele>386.0</ele><time>2026-04-04T14:37:06.61Z</time></trkpt><trkpt lat="45.1106318" lon="7.2529173"><ele>386.0</ele><time>2026-04-04T14:37:07.611Z</time></trkpt><trkpt lat="45.1107128" lon="7.2526814"><ele>386.0</ele><time>2026-04-04T14:37:08.61Z</time></trkpt><trkpt lat="45.1107941" lon="7.2524432"><ele>386.3333333333333</ele><time>2026-04-04T14:37:09.611Z</time></trkpt><trkpt lat="45.1108751" lon="7.2522053"><ele>386.66666666666663</ele><time>2026-04-04T14:37:10.61Z</time></trkpt><trkpt lat="45.1109548" lon="7.2519689"><ele>387.0</ele><time>2026-04-04T14:37:11.61Z</time></trkpt><trkpt lat="45.1110364" lon="7.2517265"><ele>387.0</ele><time>2026-04-04T14:37:12.611Z</time></trkpt><trkpt lat="45.1111253" lon="7.2514647"><ele>387.0</ele><time>2026-04-04T14:37:13.61Z</time></trkpt><trkpt lat="45.1112041" lon="7.2512311"><ele>387.0</ele><time>2026-04-04T14:37:14.61Z</time></trkpt><trkpt lat="45.1112903" lon="7.2509752"><ele>387.0</ele><time>2026-04-04T14:37:15.61Z</time></trkpt><trkpt lat="45.1113791" lon="7.2507175"><ele>387.0</ele><time>2026-04-04T14:37:16.61Z</time></trkpt><trkpt lat="45.111471" lon="7.2504541"><ele>387.0</ele><time>2026-04-04T14:37:17.611Z</time></trkpt><trkpt lat="45.1115648" lon="7.2501867"><ele>387.33333333333337</ele><time>2026-04-04T14:37:18.61Z</time></trkpt><trkpt lat="45.1116574" lon="7.2499185"><ele>387.6666666666667</ele><time>2026-04-04T14:37:19.61Z</time></trkpt><trkpt lat="45.1117506" lon="7.2496451"><ele>388.0</ele><time>2026-04-04T14:37:20.61Z</time></trkpt><trkpt lat="45.1118434" lon="7.249372"><ele>388.0</ele><time>2026-04-04T14:37:21.61Z</time></trkpt><trkpt lat="45.1119343" lon="7.2490978"><ele>388.0</ele><time>2026-04-04T14:37:22.611Z</time></trkpt><trkpt lat="45.1120265" lon="7.2488201"><ele>388.0</ele><time>2026-04-04T14:37:23.61Z</time></trkpt><trkpt lat="45.112119" lon="7.2485429"><ele>388.0</ele><time>2026-04-04T14:37:24.61Z</time></trkpt><trkpt lat="45.1122132" lon="7.248263"><ele>388.0</ele><time>2026-04-04T14:37:25.61Z</time></trkpt><trkpt lat="45.1123084" lon="7.2479821"><ele>388.0</ele><time>2026-04-04T14:37:26.61Z</time></trkpt><trkpt lat="45.1124021" lon="7.2477063"><ele>388.6666666666667</ele><time>2026-04-04T14:37:27.61Z</time></trkpt><trkpt lat="45.1124953" lon="7.2474336"><ele>389.33333333333337</ele><time>2026-04-04T14:37:28.61Z</time></trkpt><trkpt lat="45.1125894" lon="7.2471555"><ele>390.0</ele><time>2026-04-04T14:37:29.61Z</time></trkpt><trkpt lat="45.1126688" lon="7.2469236"><ele>390.0</ele><time>2026-04-04T14:37:30.611Z</time></trkpt><trkpt lat="45.1127528" lon="7.2466802"><ele>390.0</ele><time>2026-04-04T14:37:31.61Z</time></trkpt><trkpt lat="45.1128346" lon="7.2464439"><ele>390.0</ele><time>2026-04-04T14:37:32.609Z</time></trkpt><trkpt lat="45.1129161" lon="7.2462096"><ele>390.0</ele><time>2026-04-04T14:37:33.611Z</time></trkpt><trkpt lat="45.1129947" lon="7.245983"><ele>390.0</ele><time>2026-04-04T14:37:34.61Z</time></trkpt><trkpt lat="45.1130686" lon="7.2457665"><ele>390.0</ele><time>2026-04-04T14:37:35.611Z</time></trkpt><trkpt lat="45.11314" lon="7.2455545"><ele>390.0</ele><time>2026-04-04T14:37:36.61Z</time></trkpt><trkpt lat="45.1132116" lon="7.2453424"><ele>390.0</ele><time>2026-04-04T14:37:37.61Z</time></trkpt><trkpt lat="45.1132836" lon="7.2451302"><ele>390.0</ele><time>2026-04-04T14:37:38.61Z</time></trkpt><trkpt lat="45.1133575" lon="7.2449124"><ele>390.33333333333337</ele><time>2026-04-04T14:37:39.61Z</time></trkpt><trkpt lat="45.1134311" lon="7.2446935"><ele>390.6666666666667</ele><time>2026-04-04T14:37:40.609Z</time></trkpt><trkpt lat="45.1135059" lon="7.2444686"><ele>391.0</ele><time>2026-04-04T14:37:41.609Z</time></trkpt><trkpt lat="45.1135818" lon="7.2442406"><ele>391.0</ele><time>2026-04-04T14:37:42.61Z</time></trkpt><trkpt lat="45.1136588" lon="7.2440124"><ele>391.0</ele><time>2026-04-04T14:37:43.61Z</time></trkpt><trkpt lat="45.1137382" lon="7.2437789"><ele>391.0</ele><time>2026-04-04T14:37:44.61Z</time></trkpt><trkpt lat="45.1138233" lon="7.2435298"><ele>391.0</ele><time>2026-04-04T14:37:45.609Z</time></trkpt><trkpt lat="45.1138972" lon="7.2433108"><ele>391.0</ele><time>2026-04-04T14:37:46.61Z</time></trkpt><trkpt lat="45.1139763" lon="7.2430776"><ele>391.0</ele><time>2026-04-04T14:37:47.609Z</time></trkpt><trkpt lat="45.1140507" lon="7.2428558"><ele>391.0</ele><time>2026-04-04T14:37:48.61Z</time></trkpt><trkpt lat="45.1141229" lon="7.2426444"><ele>391.0</ele><time>2026-04-04T14:37:49.611Z</time></trkpt><trkpt lat="45.1141945" lon="7.2424368"><ele>391.0</ele><time>2026-04-04T14:37:50.61Z</time></trkpt><trkpt lat="45.1142639" lon="7.2422332"><ele>391.33333333333337</ele><time>2026-04-04T14:37:51.611Z</time></trkpt><trkpt lat="45.1143328" lon="7.2420272"><ele>391.66666666666663</ele><time>2026-04-04T14:37:52.61Z</time></trkpt><trkpt lat="45.1144029" lon="7.2418172"><ele>392.0</ele><time>2026-04-04T14:37:53.61Z</time></trkpt><trkpt lat="45.1144757" lon="7.2416073"><ele>393.0</ele><time>2026-04-04T14:37:54.61Z</time></trkpt><trkpt lat="45.1145549" lon="7.2413929"><ele>394.0</ele><time>2026-04-04T14:37:55.611Z</time></trkpt><trkpt lat="45.1146374" lon="7.2411778"><ele>395.0</ele><time>2026-04-04T14:37:56.609Z</time></trkpt><trkpt lat="45.1147259" lon="7.2409629"><ele>395.0</ele><time>2026-04-04T14:37:57.61Z</time></trkpt><trkpt lat="45.1148186" lon="7.2407554"><ele>395.0</ele><time>2026-04-04T14:37:58.61Z</time></trkpt><trkpt lat="45.1149149" lon="7.2405576"><ele>395.0</ele><time>2026-04-04T14:37:59.61Z</time></trkpt><trkpt lat="45.1150156" lon="7.2403614"><ele>394.66666666666663</ele><time>2026-04-04T14:38:00.61Z</time></trkpt><trkpt lat="45.1151256" lon="7.2401526"><ele>394.33333333333337</ele><time>2026-04-04T14:38:01.611Z</time></trkpt><trkpt lat="45.1152239" lon="7.2399739"><ele>394.0</ele><time>2026-04-04T14:38:02.611Z</time></trkpt><trkpt lat="45.1153326" lon="7.2397855"><ele>394.6666666666667</ele><time>2026-04-04T14:38:03.611Z</time></trkpt><trkpt lat="45.1154439" lon="7.239604"><ele>395.33333333333337</ele><time>2026-04-04T14:38:04.61Z</time></trkpt><trkpt lat="45.1155581" lon="7.2394246"><ele>396.0</ele><time>2026-04-04T14:38:05.61Z</time></trkpt><trkpt lat="45.1156703" lon="7.2392542"><ele>395.75</ele><time>2026-04-04T14:38:06.61Z</time></trkpt><trkpt lat="45.1157766" lon="7.2390975"><ele>395.5</ele><time>2026-04-04T14:38:07.61Z</time></trkpt><trkpt lat="45.1158793" lon="7.2389508"><ele>395.25</ele><time>2026-04-04T14:38:08.611Z</time></trkpt><trkpt lat="45.1159713" lon="7.2388236"><ele>395.0</ele><time>2026-04-04T14:38:09.61Z</time></trkpt><trkpt lat="45.1160498" lon="7.2387222"><ele>394.99999999999994</ele><time>2026-04-04T14:38:10.61Z</time></trkpt><trkpt lat="45.1161094" lon="7.2386548"><ele>395.0</ele><time>2026-04-04T14:38:11.61Z</time></trkpt><trkpt lat="45.1161765" lon="7.2385999"><ele>395.0</ele><time>2026-04-04T14:38:13.611Z</time></trkpt><trkpt lat="45.1162555" lon="7.2385778"><ele>395.0</ele><time>2026-04-04T14:38:15.609Z</time></trkpt><trkpt lat="45.1163241" lon="7.2385626"><ele>394.99999999999994</ele><time>2026-04-04T14:38:16.61Z</time></trkpt><trkpt lat="45.1164" lon="7.2385282"><ele>395.0</ele><time>2026-04-04T14:38:17.61Z</time></trkpt><trkpt lat="45.1164558" lon="7.2384679"><ele>394.99999999999994</ele><time>2026-04-04T14:38:18.61Z</time></trkpt><trkpt lat="45.1165014" lon="7.2383763"><ele>395.0</ele><time>2026-04-04T14:38:19.61Z</time></trkpt><trkpt lat="45.1165225" lon="7.2382644"><ele>395.0</ele><time>2026-04-04T14:38:20.61Z</time></trkpt><trkpt lat="45.1165206" lon="7.2381423"><ele>395.0</ele><time>2026-04-04T14:38:21.61Z</time></trkpt><trkpt lat="45.1165148" lon="7.2380124"><ele>394.99999999999994</ele><time>2026-04-04T14:38:22.61Z</time></trkpt><trkpt lat="45.1165318" lon="7.2378797"><ele>395.0</ele><time>2026-04-04T14:38:23.61Z</time></trkpt><trkpt lat="45.1165801" lon="7.237741"><ele>395.0</ele><time>2026-04-04T14:38:24.611Z</time></trkpt><trkpt lat="45.1166458" lon="7.2376124"><ele>395.0</ele><time>2026-04-04T14:38:25.61Z</time></trkpt><trkpt lat="45.1167217" lon="7.2374794"><ele>395.0</ele><time>2026-04-04T14:38:26.609Z</time></trkpt><trkpt lat="45.1168052" lon="7.2373409"><ele>395.0</ele><time>2026-04-04T14:38:27.61Z</time></trkpt><trkpt lat="45.1168938" lon="7.2371978"><ele>395.25</ele><time>2026-04-04T14:38:28.61Z</time></trkpt><trkpt lat="45.1169863" lon="7.2370456"><ele>395.5</ele><time>2026-04-04T14:38:29.61Z</time></trkpt><trkpt lat="45.1170821" lon="7.2368866"><ele>395.75</ele><time>2026-04-04T14:38:30.608Z</time></trkpt><trkpt lat="45.1171787" lon="7.2367272"><ele>396.0</ele><time>2026-04-04T14:38:31.608Z</time></trkpt><trkpt lat="45.1172792" lon="7.2365618"><ele>396.33333333333337</ele><time>2026-04-04T14:38:32.609Z</time></trkpt><trkpt lat="45.117389" lon="7.2363839"><ele>396.6666666666667</ele><time>2026-04-04T14:38:33.609Z</time></trkpt><trkpt lat="45.1174904" lon="7.2362205"><ele>397.0</ele><time>2026-04-04T14:38:34.609Z</time></trkpt><trkpt lat="45.1176012" lon="7.2360429"><ele>397.0</ele><time>2026-04-04T14:38:35.609Z</time></trkpt><trkpt lat="45.1177152" lon="7.2358635"><ele>397.0</ele><time>2026-04-04T14:38:36.608Z</time></trkpt><trkpt lat="45.1178309" lon="7.2356886"><ele>397.0</ele><time>2026-04-04T14:38:37.61Z</time></trkpt><trkpt lat="45.117943" lon="7.2355165"><ele>397.6666666666667</ele><time>2026-04-04T14:38:38.61Z</time></trkpt><trkpt lat="45.1180521" lon="7.2353448"><ele>398.33333333333337</ele><time>2026-04-04T14:38:39.609Z</time></trkpt><trkpt lat="45.1181599" lon="7.2351691"><ele>399.0</ele><time>2026-04-04T14:38:40.609Z</time></trkpt><trkpt lat="45.1182647" lon="7.2349915"><ele>399.0</ele><time>2026-04-04T14:38:41.609Z</time></trkpt><trkpt lat="45.1183685" lon="7.2348063"><ele>399.0</ele><time>2026-04-04T14:38:42.608Z</time></trkpt><trkpt lat="45.1184672" lon="7.2346087"><ele>399.0</ele><time>2026-04-04T14:38:43.609Z</time></trkpt><trkpt lat="45.1185578" lon="7.2343986"><ele>398.66666666666663</ele><time>2026-04-04T14:38:44.609Z</time></trkpt><trkpt lat="45.1186412" lon="7.2341744"><ele>398.3333333333333</ele><time>2026-04-04T14:38:45.609Z</time></trkpt><trkpt lat="45.1187199" lon="7.2339422"><ele>398.0</ele><time>2026-04-04T14:38:46.61Z</time></trkpt><trkpt lat="45.1187958" lon="7.2337074"><ele>399.0</ele><time>2026-04-04T14:38:47.608Z</time></trkpt><trkpt lat="45.1188728" lon="7.233467"><ele>400.0</ele><time>2026-04-04T14:38:48.609Z</time></trkpt><trkpt lat="45.1189533" lon="7.2332161"><ele>401.0</ele><time>2026-04-04T14:38:49.61Z</time></trkpt><trkpt lat="45.1190226" lon="7.2330001"><ele>401.0</ele><time>2026-04-04T14:38:50.609Z</time></trkpt><trkpt lat="45.1190924" lon="7.2327774"><ele>401.0</ele><time>2026-04-04T14:38:51.61Z</time></trkpt><trkpt lat="45.1191555" lon="7.2325653"><ele>401.0</ele><time>2026-04-04T14:38:52.61Z</time></trkpt><trkpt lat="45.119211" lon="7.2323569"><ele>401.5</ele><time>2026-04-04T14:38:53.61Z</time></trkpt><trkpt lat="45.1192582" lon="7.2321579"><ele>402.0</ele><time>2026-04-04T14:38:54.61Z</time></trkpt><trkpt lat="45.1193056" lon="7.2319749"><ele>402.5</ele><time>2026-04-04T14:38:55.609Z</time></trkpt><trkpt lat="45.1193624" lon="7.2318098"><ele>403.0</ele><time>2026-04-04T14:38:56.61Z</time></trkpt><trkpt lat="45.1194203" lon="7.2316638"><ele>403.0</ele><time>2026-04-04T14:38:57.61Z</time></trkpt><trkpt lat="45.1194611" lon="7.231523"><ele>403.0</ele><time>2026-04-04T14:38:58.609Z</time></trkpt><trkpt lat="45.1194704" lon="7.231387"><ele>403.0</ele><time>2026-04-04T14:38:59.609Z</time></trkpt><trkpt lat="45.1194485" lon="7.2312576"><ele>403.0</ele><time>2026-04-04T14:39:00.609Z</time></trkpt><trkpt lat="45.1194151" lon="7.2311148"><ele>403.0</ele><time>2026-04-04T14:39:01.61Z</time></trkpt><trkpt lat="45.1193939" lon="7.2309476"><ele>403.0</ele><time>2026-04-04T14:39:02.609Z</time></trkpt><trkpt lat="45.1193867" lon="7.2307678"><ele>403.0</ele><time>2026-04-04T14:39:03.61Z</time></trkpt><trkpt lat="45.1193887" lon="7.2305791"><ele>403.0</ele><time>2026-04-04T14:39:04.609Z</time></trkpt><trkpt lat="45.1193972" lon="7.230381"><ele>403.0</ele><time>2026-04-04T14:39:05.609Z</time></trkpt><trkpt lat="45.1194052" lon="7.2302087"><ele>403.0</ele><time>2026-04-04T14:39:06.609Z</time></trkpt><trkpt lat="45.1194127" lon="7.230028"><ele>403.0</ele><time>2026-04-04T14:39:07.609Z</time></trkpt><trkpt lat="45.1194185" lon="7.2298421"><ele>403.0</ele><time>2026-04-04T14:39:08.609Z</time></trkpt><trkpt lat="45.1194249" lon="7.2296415"><ele>403.0</ele><time>2026-04-04T14:39:09.609Z</time></trkpt><trkpt lat="45.1194355" lon="7.2294145"><ele>403.0</ele><time>2026-04-04T14:39:10.609Z</time></trkpt><trkpt lat="45.1194459" lon="7.2292093"><ele>403.0</ele><time>2026-04-04T14:39:11.61Z</time></trkpt><trkpt lat="45.1194566" lon="7.2289846"><ele>403.0</ele><time>2026-04-04T14:39:12.609Z</time></trkpt><trkpt lat="45.1194665" lon="7.2287571"><ele>403.6666666666667</ele><time>2026-04-04T14:39:13.608Z</time></trkpt><trkpt lat="45.1194762" lon="7.2285223"><ele>404.33333333333337</ele><time>2026-04-04T14:39:14.609Z</time></trkpt><trkpt lat="45.1194857" lon="7.2282829"><ele>405.0</ele><time>2026-04-04T14:39:15.609Z</time></trkpt><trkpt lat="45.1194947" lon="7.2280406"><ele>405.0</ele><time>2026-04-04T14:39:16.61Z</time></trkpt><trkpt lat="45.119504" lon="7.2277914"><ele>405.0</ele><time>2026-04-04T14:39:17.61Z</time></trkpt><trkpt lat="45.1195136" lon="7.2275257"><ele>405.0</ele><time>2026-04-04T14:39:18.61Z</time></trkpt><trkpt lat="45.1195196" lon="7.2272903"><ele>405.33333333333337</ele><time>2026-04-04T14:39:19.609Z</time></trkpt><trkpt lat="45.1195211" lon="7.2270354"><ele>405.6666666666667</ele><time>2026-04-04T14:39:20.609Z</time></trkpt><trkpt lat="45.1195155" lon="7.2267618"><ele>406.0</ele><time>2026-04-04T14:39:21.608Z</time></trkpt><trkpt lat="45.1195063" lon="7.226515"><ele>406.33333333333337</ele><time>2026-04-04T14:39:22.609Z</time></trkpt><trkpt lat="45.1194927" lon="7.2262456"><ele>406.66666666666663</ele><time>2026-04-04T14:39:23.609Z</time></trkpt><trkpt lat="45.1194779" lon="7.2259732"><ele>407.0</ele><time>2026-04-04T14:39:24.61Z</time></trkpt><trkpt lat="45.119463" lon="7.2256922"><ele>406.66666666666663</ele><time>2026-04-04T14:39:25.61Z</time></trkpt><trkpt lat="45.119447" lon="7.2253918"><ele>406.33333333333337</ele><time>2026-04-04T14:39:26.61Z</time></trkpt><trkpt lat="45.1194317" lon="7.2251208"><ele>406.0</ele><time>2026-04-04T14:39:27.61Z</time></trkpt><trkpt lat="45.1194142" lon="7.2248284"><ele>405.6666666666667</ele><time>2026-04-04T14:39:28.61Z</time></trkpt><trkpt lat="45.1193972" lon="7.2245363"><ele>405.33333333333337</ele><time>2026-04-04T14:39:29.609Z</time></trkpt><trkpt lat="45.1193809" lon="7.2242396"><ele>405.0</ele><time>2026-04-04T14:39:30.61Z</time></trkpt><trkpt lat="45.1193647" lon="7.2239409"><ele>405.66666666666663</ele><time>2026-04-04T14:39:31.61Z</time></trkpt><trkpt lat="45.1193511" lon="7.2236453"><ele>406.3333333333333</ele><time>2026-04-04T14:39:32.61Z</time></trkpt><trkpt lat="45.1193418" lon="7.2233484"><ele>407.0</ele><time>2026-04-04T14:39:33.609Z</time></trkpt><trkpt lat="45.1193357" lon="7.2230379"><ele>407.0</ele><time>2026-04-04T14:39:34.609Z</time></trkpt><trkpt lat="45.1193333" lon="7.2227644"><ele>407.0</ele><time>2026-04-04T14:39:35.609Z</time></trkpt><trkpt lat="45.1193334" lon="7.2224749"><ele>407.0</ele><time>2026-04-04T14:39:36.609Z</time></trkpt><trkpt lat="45.1193347" lon="7.2221709"><ele>407.0</ele><time>2026-04-04T14:39:37.609Z</time></trkpt><trkpt lat="45.1193373" lon="7.2219012"><ele>407.0</ele><time>2026-04-04T14:39:38.609Z</time></trkpt><trkpt lat="45.119339" lon="7.2216127"><ele>407.0</ele><time>2026-04-04T14:39:39.609Z</time></trkpt><trkpt lat="45.1193384" lon="7.2213258"><ele>407.0</ele><time>2026-04-04T14:39:40.609Z</time></trkpt><trkpt lat="45.1193317" lon="7.2210407"><ele>407.0</ele><time>2026-04-04T14:39:41.609Z</time></trkpt><trkpt lat="45.1193163" lon="7.2207496"><ele>407.0</ele><time>2026-04-04T14:39:42.609Z</time></trkpt><trkpt lat="45.1192969" lon="7.2204939"><ele>407.0</ele><time>2026-04-04T14:39:43.61Z</time></trkpt><trkpt lat="45.1192711" lon="7.220225"><ele>407.0</ele><time>2026-04-04T14:39:44.61Z</time></trkpt><trkpt lat="45.1192442" lon="7.2199653"><ele>407.0</ele><time>2026-04-04T14:39:45.609Z</time></trkpt><trkpt lat="45.1192143" lon="7.2197055"><ele>407.0</ele><time>2026-04-04T14:39:46.609Z</time></trkpt><trkpt lat="45.1191834" lon="7.2194451"><ele>407.0</ele><time>2026-04-04T14:39:47.61Z</time></trkpt><trkpt lat="45.1191543" lon="7.2191855"><ele>407.0</ele><time>2026-04-04T14:39:48.61Z</time></trkpt><trkpt lat="45.1191261" lon="7.2189219"><ele>407.0</ele><time>2026-04-04T14:39:49.609Z</time></trkpt><trkpt lat="45.119096" lon="7.2186443"><ele>407.0</ele><time>2026-04-04T14:39:50.609Z</time></trkpt><trkpt lat="45.1190692" lon="7.218403"><ele>407.0</ele><time>2026-04-04T14:39:51.609Z</time></trkpt><trkpt lat="45.1190405" lon="7.2181502"><ele>406.66666666666663</ele><time>2026-04-04T14:39:52.609Z</time></trkpt><trkpt lat="45.1190105" lon="7.2178875"><ele>406.33333333333337</ele><time>2026-04-04T14:39:53.609Z</time></trkpt><trkpt lat="45.118985" lon="7.2176548"><ele>406.0</ele><time>2026-04-04T14:39:54.608Z</time></trkpt><trkpt lat="45.1189578" lon="7.2174064"><ele>404.6666666666667</ele><time>2026-04-04T14:39:55.609Z</time></trkpt><trkpt lat="45.1189308" lon="7.2171605"><ele>403.33333333333337</ele><time>2026-04-04T14:39:56.608Z</time></trkpt><trkpt lat="45.1189028" lon="7.2169129"><ele>402.0</ele><time>2026-04-04T14:39:57.609Z</time></trkpt><trkpt lat="45.1188732" lon="7.2166522"><ele>402.0</ele><time>2026-04-04T14:39:58.609Z</time></trkpt><trkpt lat="45.1188469" lon="7.216421"><ele>402.0</ele><time>2026-04-04T14:39:59.608Z</time></trkpt><trkpt lat="45.1188189" lon="7.2161736"><ele>402.0</ele><time>2026-04-04T14:40:00.609Z</time></trkpt><trkpt lat="45.1187918" lon="7.215925"><ele>402.0</ele><time>2026-04-04T14:40:01.609Z</time></trkpt><trkpt lat="45.1187683" lon="7.2156706"><ele>402.0</ele><time>2026-04-04T14:40:02.609Z</time></trkpt><trkpt lat="45.1187516" lon="7.2154135"><ele>402.0</ele><time>2026-04-04T14:40:03.609Z</time></trkpt><trkpt lat="45.1187447" lon="7.2151568"><ele>402.0</ele><time>2026-04-04T14:40:04.609Z</time></trkpt><trkpt lat="45.1187467" lon="7.2149023"><ele>402.0</ele><time>2026-04-04T14:40:05.609Z</time></trkpt><trkpt lat="45.1187556" lon="7.2146433"><ele>402.0</ele><time>2026-04-04T14:40:06.609Z</time></trkpt><trkpt lat="45.1187659" lon="7.2144223"><ele>402.66666666666663</ele><time>2026-04-04T14:40:07.608Z</time></trkpt><trkpt lat="45.1187791" lon="7.2141923"><ele>403.3333333333333</ele><time>2026-04-04T14:40:08.609Z</time></trkpt><trkpt lat="45.1187931" lon="7.2139597"><ele>404.0</ele><time>2026-04-04T14:40:09.609Z</time></trkpt><trkpt lat="45.1188043" lon="7.2137692"><ele>404.79999999999995</ele><time>2026-04-04T14:40:10.609Z</time></trkpt><trkpt lat="45.1188143" lon="7.2135831"><ele>405.59999999999997</ele><time>2026-04-04T14:40:11.61Z</time></trkpt><trkpt lat="45.1188236" lon="7.2134192"><ele>406.4</ele><time>2026-04-04T14:40:12.609Z</time></trkpt><trkpt lat="45.1188313" lon="7.2132865"><ele>407.2</ele><time>2026-04-04T14:40:13.609Z</time></trkpt><trkpt lat="45.1188371" lon="7.2131917"><ele>408.0</ele><time>2026-04-04T14:40:14.61Z</time></trkpt><trkpt lat="45.11885" lon="7.2130685"><ele>408.8333333333333</ele><time>2026-04-04T14:40:37.608Z</time></trkpt><trkpt lat="45.1188594" lon="7.2129764"><ele>409.66666666666663</ele><time>2026-04-04T14:40:38.608Z</time></trkpt><trkpt lat="45.1188702" lon="7.2128722"><ele>410.5</ele><time>2026-04-04T14:40:39.609Z</time></trkpt><trkpt lat="45.1188829" lon="7.212748"><ele>411.3333333333333</ele><time>2026-04-04T14:40:40.609Z</time></trkpt><trkpt lat="45.1188997" lon="7.2125997"><ele>412.16666666666663</ele><time>2026-04-04T14:40:41.609Z</time></trkpt><trkpt lat="45.1189185" lon="7.2124638"><ele>413.0</ele><time>2026-04-04T14:40:42.609Z</time></trkpt><trkpt lat="45.1189405" lon="7.2123162"><ele>415.75</ele><time>2026-04-04T14:40:43.61Z</time></trkpt><trkpt lat="45.1189639" lon="7.212167"><ele>418.5</ele><time>2026-04-04T14:40:44.609Z</time></trkpt><trkpt lat="45.1189899" lon="7.2120144"><ele>421.25</ele><time>2026-04-04T14:40:45.609Z</time></trkpt><trkpt lat="45.1190176" lon="7.2118542"><ele>424.0</ele><time>2026-04-04T14:40:46.61Z</time></trkpt><trkpt lat="45.1190462" lon="7.2116869"><ele>420.25</ele><time>2026-04-04T14:40:47.608Z</time></trkpt><trkpt lat="45.1190759" lon="7.2115128"><ele>416.5</ele><time>2026-04-04T14:40:48.608Z</time></trkpt><trkpt lat="45.119106" lon="7.2113333"><ele>412.75</ele><time>2026-04-04T14:40:49.609Z</time></trkpt><trkpt lat="45.1191383" lon="7.2111447"><ele>409.0</ele><time>2026-04-04T14:40:50.61Z</time></trkpt><trkpt lat="45.1191753" lon="7.2109431"><ele>409.0</ele><time>2026-04-04T14:40:51.61Z</time></trkpt><trkpt lat="45.1192234" lon="7.2107341"><ele>409.0</ele><time>2026-04-04T14:40:52.609Z</time></trkpt><trkpt lat="45.1192894" lon="7.2105191"><ele>409.0</ele><time>2026-04-04T14:40:53.609Z</time></trkpt><trkpt lat="45.1193695" lon="7.2103008"><ele>412.6666666666667</ele><time>2026-04-04T14:40:54.609Z</time></trkpt><trkpt lat="45.119461" lon="7.2100808"><ele>416.33333333333337</ele><time>2026-04-04T14:40:55.608Z</time></trkpt><trkpt lat="45.1195582" lon="7.2098612"><ele>420.0</ele><time>2026-04-04T14:40:56.61Z</time></trkpt><trkpt lat="45.1196634" lon="7.2096209"><ele>418.33333333333337</ele><time>2026-04-04T14:40:57.61Z</time></trkpt><trkpt lat="45.119748" lon="7.2094064"><ele>416.6666666666667</ele><time>2026-04-04T14:40:58.609Z</time></trkpt><trkpt lat="45.1198298" lon="7.2091625"><ele>415.0</ele><time>2026-04-04T14:40:59.609Z</time></trkpt><trkpt lat="45.1199018" lon="7.2089101"><ele>415.0</ele><time>2026-04-04T14:41:00.609Z</time></trkpt><trkpt lat="45.1199684" lon="7.2086462"><ele>415.0</ele><time>2026-04-04T14:41:01.608Z</time></trkpt><trkpt lat="45.1200317" lon="7.2083764"><ele>415.0</ele><time>2026-04-04T14:41:02.609Z</time></trkpt><trkpt lat="45.1200953" lon="7.2081065"><ele>415.33333333333337</ele><time>2026-04-04T14:41:03.608Z</time></trkpt><trkpt lat="45.120157" lon="7.2078301"><ele>415.66666666666663</ele><time>2026-04-04T14:41:04.609Z</time></trkpt><trkpt lat="45.1202136" lon="7.2075479"><ele>416.0</ele><time>2026-04-04T14:41:05.61Z</time></trkpt><trkpt lat="45.1202655" lon="7.2072672"><ele>415.66666666666663</ele><time>2026-04-04T14:41:06.61Z</time></trkpt><trkpt lat="45.1203156" lon="7.2069782"><ele>415.33333333333337</ele><time>2026-04-04T14:41:07.609Z</time></trkpt><trkpt lat="45.1203656" lon="7.2066834"><ele>415.0</ele><time>2026-04-04T14:41:08.61Z</time></trkpt><trkpt lat="45.1204177" lon="7.2063796"><ele>415.0</ele><time>2026-04-04T14:41:09.609Z</time></trkpt><trkpt lat="45.1204736" lon="7.2060764"><ele>415.0</ele><time>2026-04-04T14:41:10.609Z</time></trkpt><trkpt lat="45.1205272" lon="7.2057752"><ele>415.0</ele><time>2026-04-04T14:41:11.609Z</time></trkpt><trkpt lat="45.1205799" lon="7.2054728"><ele>414.0</ele><time>2026-04-04T14:41:12.609Z</time></trkpt><trkpt lat="45.120637" lon="7.2051525"><ele>413.0</ele><time>2026-04-04T14:41:13.61Z</time></trkpt><trkpt lat="45.1206856" lon="7.2048739"><ele>412.0</ele><time>2026-04-04T14:41:14.608Z</time></trkpt><trkpt lat="45.1207371" lon="7.2045739"><ele>412.0</ele><time>2026-04-04T14:41:15.607Z</time></trkpt><trkpt lat="45.1207876" lon="7.2042775"><ele>412.0</ele><time>2026-04-04T14:41:16.608Z</time></trkpt><trkpt lat="45.1208386" lon="7.2039783"><ele>412.0</ele><time>2026-04-04T14:41:17.607Z</time></trkpt><trkpt lat="45.1208907" lon="7.2036796"><ele>413.6666666666667</ele><time>2026-04-04T14:41:18.609Z</time></trkpt><trkpt lat="45.1209422" lon="7.2033844"><ele>415.33333333333337</ele><time>2026-04-04T14:41:19.609Z</time></trkpt><trkpt lat="45.1209954" lon="7.2030857"><ele>417.0</ele><time>2026-04-04T14:41:20.608Z</time></trkpt><trkpt lat="45.1210486" lon="7.2027872"><ele>419.33333333333337</ele><time>2026-04-04T14:41:21.608Z</time></trkpt><trkpt lat="45.1211011" lon="7.2024893"><ele>421.6666666666667</ele><time>2026-04-04T14:41:22.608Z</time></trkpt><trkpt lat="45.1211532" lon="7.2021876"><ele>424.0</ele><time>2026-04-04T14:41:23.608Z</time></trkpt><trkpt lat="45.1212038" lon="7.2018904"><ele>426.6666666666667</ele><time>2026-04-04T14:41:24.608Z</time></trkpt><trkpt lat="45.1212548" lon="7.2015926"><ele>429.33333333333337</ele><time>2026-04-04T14:41:25.608Z</time></trkpt><trkpt lat="45.1213065" lon="7.201299"><ele>432.0</ele><time>2026-04-04T14:41:26.608Z</time></trkpt><trkpt lat="45.1213583" lon="7.2010101"><ele>433.66666666666663</ele><time>2026-04-04T14:41:27.608Z</time></trkpt><trkpt lat="45.1214095" lon="7.2007212"><ele>435.3333333333333</ele><time>2026-04-04T14:41:28.607Z</time></trkpt><trkpt lat="45.1214626" lon="7.2004232"><ele>437.0</ele><time>2026-04-04T14:41:29.607Z</time></trkpt><trkpt lat="45.1215046" lon="7.200177"><ele>438.0</ele><time>2026-04-04T14:41:30.607Z</time></trkpt><trkpt lat="45.1215436" lon="7.1999136"><ele>439.0</ele><time>2026-04-04T14:41:31.607Z</time></trkpt><trkpt lat="45.1215692" lon="7.199653"><ele>440.0</ele><time>2026-04-04T14:41:32.608Z</time></trkpt><trkpt lat="45.1215711" lon="7.1993832"><ele>440.0</ele><time>2026-04-04T14:41:33.607Z</time></trkpt><trkpt lat="45.1215508" lon="7.19911"><ele>440.0</ele><time>2026-04-04T14:41:34.607Z</time></trkpt><trkpt lat="45.1215231" lon="7.1988318"><ele>440.0</ele><time>2026-04-04T14:41:35.609Z</time></trkpt><trkpt lat="45.1214957" lon="7.1985447"><ele>437.66666666666663</ele><time>2026-04-04T14:41:36.609Z</time></trkpt><trkpt lat="45.1214674" lon="7.1982531"><ele>435.33333333333337</ele><time>2026-04-04T14:41:37.608Z</time></trkpt><trkpt lat="45.1214403" lon="7.1979606"><ele>433.0</ele><time>2026-04-04T14:41:38.609Z</time></trkpt><trkpt lat="45.1214185" lon="7.1976718"><ele>430.6666666666667</ele><time>2026-04-04T14:41:39.608Z</time></trkpt><trkpt lat="45.1214035" lon="7.1973883"><ele>428.33333333333337</ele><time>2026-04-04T14:41:40.608Z</time></trkpt><trkpt lat="45.1214021" lon="7.1971063"><ele>426.0</ele><time>2026-04-04T14:41:41.609Z</time></trkpt><trkpt lat="45.1214239" lon="7.1968264"><ele>426.0</ele><time>2026-04-04T14:41:42.608Z</time></trkpt><trkpt lat="45.1214736" lon="7.1965574"><ele>426.0</ele><time>2026-04-04T14:41:43.608Z</time></trkpt><trkpt lat="45.1215503" lon="7.1962963"><ele>426.0</ele><time>2026-04-04T14:41:44.609Z</time></trkpt><trkpt lat="45.1216499" lon="7.1960258"><ele>425.66666666666663</ele><time>2026-04-04T14:41:45.608Z</time></trkpt><trkpt lat="45.121746" lon="7.1957938"><ele>425.3333333333333</ele><time>2026-04-04T14:41:46.608Z</time></trkpt><trkpt lat="45.1218546" lon="7.1955449"><ele>425.0</ele><time>2026-04-04T14:41:47.608Z</time></trkpt><trkpt lat="45.1219659" lon="7.1953007"><ele>425.0</ele><time>2026-04-04T14:41:48.607Z</time></trkpt><trkpt lat="45.1220832" lon="7.1950604"><ele>425.0</ele><time>2026-04-04T14:41:49.608Z</time></trkpt><trkpt lat="45.1222097" lon="7.1948294"><ele>425.0</ele><time>2026-04-04T14:41:50.609Z</time></trkpt><trkpt lat="45.1223401" lon="7.1946114"><ele>425.0</ele><time>2026-04-04T14:41:51.608Z</time></trkpt><trkpt lat="45.1224716" lon="7.1943936"><ele>425.0</ele><time>2026-04-04T14:41:52.608Z</time></trkpt><trkpt lat="45.1226026" lon="7.1941773"><ele>425.0</ele><time>2026-04-04T14:41:53.607Z</time></trkpt><trkpt lat="45.12273" lon="7.1939607"><ele>427.0</ele><time>2026-04-04T14:41:54.608Z</time></trkpt><trkpt lat="45.122852" lon="7.1937354"><ele>429.0</ele><time>2026-04-04T14:41:55.607Z</time></trkpt><trkpt lat="45.1229636" lon="7.1935039"><ele>431.0</ele><time>2026-04-04T14:41:56.609Z</time></trkpt><trkpt lat="45.1230675" lon="7.1932626"><ele>432.3333333333333</ele><time>2026-04-04T14:41:57.608Z</time></trkpt><trkpt lat="45.1231651" lon="7.1930157"><ele>433.66666666666663</ele><time>2026-04-04T14:41:58.609Z</time></trkpt><trkpt lat="45.1232601" lon="7.1927713"><ele>435.0</ele><time>2026-04-04T14:41:59.608Z</time></trkpt><trkpt lat="45.1233544" lon="7.1925247"><ele>433.33333333333337</ele><time>2026-04-04T14:42:00.608Z</time></trkpt><trkpt lat="45.1234529" lon="7.1922615"><ele>431.6666666666667</ele><time>2026-04-04T14:42:01.607Z</time></trkpt><trkpt lat="45.1235397" lon="7.1920322"><ele>430.0</ele><time>2026-04-04T14:42:02.609Z</time></trkpt><trkpt lat="45.123634" lon="7.1917862"><ele>430.0</ele><time>2026-04-04T14:42:03.609Z</time></trkpt><trkpt lat="45.1237277" lon="7.1915413"><ele>430.0</ele><time>2026-04-04T14:42:04.607Z</time></trkpt><trkpt lat="45.1238204" lon="7.1912945"><ele>430.0</ele><time>2026-04-04T14:42:05.608Z</time></trkpt><trkpt lat="45.12391" lon="7.1910452"><ele>431.33333333333337</ele><time>2026-04-04T14:42:06.608Z</time></trkpt><trkpt lat="45.123994" lon="7.1907918"><ele>432.66666666666663</ele><time>2026-04-04T14:42:07.608Z</time></trkpt><trkpt lat="45.124074" lon="7.1905293"><ele>434.0</ele><time>2026-04-04T14:42:08.609Z</time></trkpt><trkpt lat="45.1241502" lon="7.1902603"><ele>434.3333333333333</ele><time>2026-04-04T14:42:09.609Z</time></trkpt><trkpt lat="45.1242199" lon="7.1899889"><ele>434.66666666666663</ele><time>2026-04-04T14:42:10.608Z</time></trkpt><trkpt lat="45.1242859" lon="7.1897134"><ele>435.0</ele><time>2026-04-04T14:42:11.608Z</time></trkpt><trkpt lat="45.1243476" lon="7.1894403"><ele>435.0</ele><time>2026-04-04T14:42:12.608Z</time></trkpt><trkpt lat="45.1244018" lon="7.1891624"><ele>435.0</ele><time>2026-04-04T14:42:13.608Z</time></trkpt><trkpt lat="45.1244425" lon="7.1888828"><ele>435.0</ele><time>2026-04-04T14:42:14.609Z</time></trkpt><trkpt lat="45.1244657" lon="7.1886038"><ele>434.33333333333337</ele><time>2026-04-04T14:42:15.608Z</time></trkpt><trkpt lat="45.1244769" lon="7.1883227"><ele>433.6666666666667</ele><time>2026-04-04T14:42:16.607Z</time></trkpt><trkpt lat="45.1244815" lon="7.1880224"><ele>433.0</ele><time>2026-04-04T14:42:17.608Z</time></trkpt><trkpt lat="45.1244844" lon="7.187761"><ele>432.33333333333337</ele><time>2026-04-04T14:42:18.607Z</time></trkpt><trkpt lat="45.1244877" lon="7.1874786"><ele>431.66666666666663</ele><time>2026-04-04T14:42:19.609Z</time></trkpt><trkpt lat="45.1244919" lon="7.1871979"><ele>431.0</ele><time>2026-04-04T14:42:20.609Z</time></trkpt><trkpt lat="45.1244962" lon="7.1869155"><ele>431.3333333333333</ele><time>2026-04-04T14:42:21.608Z</time></trkpt><trkpt lat="45.1245001" lon="7.1866347"><ele>431.66666666666663</ele><time>2026-04-04T14:42:22.608Z</time></trkpt><trkpt lat="45.1245023" lon="7.1863568"><ele>432.0</ele><time>2026-04-04T14:42:23.608Z</time></trkpt><trkpt lat="45.1245044" lon="7.1860808"><ele>432.0</ele><time>2026-04-04T14:42:24.608Z</time></trkpt><trkpt lat="45.1245078" lon="7.1858189"><ele>432.0</ele><time>2026-04-04T14:42:25.608Z</time></trkpt><trkpt lat="45.1245143" lon="7.1855705"><ele>432.0</ele><time>2026-04-04T14:42:26.608Z</time></trkpt><trkpt lat="45.1245289" lon="7.1853276"><ele>434.33333333333337</ele><time>2026-04-04T14:42:27.608Z</time></trkpt><trkpt lat="45.124559" lon="7.1850933"><ele>436.6666666666667</ele><time>2026-04-04T14:42:28.609Z</time></trkpt><trkpt lat="45.1246124" lon="7.1848716"><ele>439.0</ele><time>2026-04-04T14:42:29.608Z</time></trkpt><trkpt lat="45.1246883" lon="7.1846624"><ele>440.0</ele><time>2026-04-04T14:42:30.609Z</time></trkpt><trkpt lat="45.1247851" lon="7.1844702"><ele>441.0</ele><time>2026-04-04T14:42:31.608Z</time></trkpt><trkpt lat="45.1249027" lon="7.1843019"><ele>442.0</ele><time>2026-04-04T14:42:32.608Z</time></trkpt><trkpt lat="45.1250393" lon="7.1841394"><ele>443.6666666666667</ele><time>2026-04-04T14:42:33.609Z</time></trkpt><trkpt lat="45.1251625" lon="7.1840011"><ele>445.33333333333337</ele><time>2026-04-04T14:42:34.607Z</time></trkpt><trkpt lat="45.125295" lon="7.1838513"><ele>447.0</ele><time>2026-04-04T14:42:35.607Z</time></trkpt><trkpt lat="45.125426" lon="7.1837025"><ele>447.0</ele><time>2026-04-04T14:42:36.608Z</time></trkpt><trkpt lat="45.1255558" lon="7.1835555"><ele>447.0</ele><time>2026-04-04T14:42:37.608Z</time></trkpt><trkpt lat="45.1256889" lon="7.1834069"><ele>447.0</ele><time>2026-04-04T14:42:38.608Z</time></trkpt><trkpt lat="45.1258224" lon="7.1832596"><ele>446.0</ele><time>2026-04-04T14:42:39.608Z</time></trkpt><trkpt lat="45.1259578" lon="7.1831096"><ele>445.0</ele><time>2026-04-04T14:42:40.609Z</time></trkpt><trkpt lat="45.1260911" lon="7.182961"><ele>444.0</ele><time>2026-04-04T14:42:41.608Z</time></trkpt><trkpt lat="45.1262181" lon="7.1828206"><ele>444.0</ele><time>2026-04-04T14:42:42.609Z</time></trkpt><trkpt lat="45.1263362" lon="7.1826842"><ele>444.0</ele><time>2026-04-04T14:42:43.608Z</time></trkpt><trkpt lat="45.1264376" lon="7.1825441"><ele>444.0</ele><time>2026-04-04T14:42:44.609Z</time></trkpt><trkpt lat="45.1265188" lon="7.1823894"><ele>444.0</ele><time>2026-04-04T14:42:45.609Z</time></trkpt><trkpt lat="45.1265801" lon="7.1822109"><ele>442.33333333333337</ele><time>2026-04-04T14:42:46.609Z</time></trkpt><trkpt lat="45.1266277" lon="7.1820145"><ele>440.6666666666667</ele><time>2026-04-04T14:42:47.608Z</time></trkpt><trkpt lat="45.1266704" lon="7.181804"><ele>439.0</ele><time>2026-04-04T14:42:48.607Z</time></trkpt><trkpt lat="45.1267133" lon="7.1815706"><ele>439.0</ele><time>2026-04-04T14:42:49.609Z</time></trkpt><trkpt lat="45.1267514" lon="7.1813609"><ele>439.0</ele><time>2026-04-04T14:42:50.607Z</time></trkpt><trkpt lat="45.1267932" lon="7.1811293"><ele>439.0</ele><time>2026-04-04T14:42:51.608Z</time></trkpt><trkpt lat="45.1268355" lon="7.1808911"><ele>439.0</ele><time>2026-04-04T14:42:52.609Z</time></trkpt><trkpt lat="45.1268737" lon="7.1806515"><ele>439.0</ele><time>2026-04-04T14:42:53.609Z</time></trkpt><trkpt lat="45.126907" lon="7.1804023"><ele>439.0</ele><time>2026-04-04T14:42:54.609Z</time></trkpt><trkpt lat="45.1269328" lon="7.1801522"><ele>439.0</ele><time>2026-04-04T14:42:55.607Z</time></trkpt><trkpt lat="45.1269539" lon="7.1799133"><ele>439.0</ele><time>2026-04-04T14:42:56.608Z</time></trkpt><trkpt lat="45.1269706" lon="7.1796815"><ele>439.0</ele><time>2026-04-04T14:42:57.609Z</time></trkpt><trkpt lat="45.1269823" lon="7.1794603"><ele>438.6666666666667</ele><time>2026-04-04T14:42:58.609Z</time></trkpt><trkpt lat="45.1269903" lon="7.1792405"><ele>438.33333333333337</ele><time>2026-04-04T14:42:59.609Z</time></trkpt><trkpt lat="45.1269958" lon="7.1790227"><ele>438.0</ele><time>2026-04-04T14:43:00.608Z</time></trkpt><trkpt lat="45.1270013" lon="7.1788115"><ele>438.0</ele><time>2026-04-04T14:43:01.608Z</time></trkpt><trkpt lat="45.1270057" lon="7.1786018"><ele>438.0</ele><time>2026-04-04T14:43:02.608Z</time></trkpt><trkpt lat="45.1270113" lon="7.1783927"><ele>438.0</ele><time>2026-04-04T14:43:03.609Z</time></trkpt><trkpt lat="45.1270174" lon="7.1781856"><ele>438.0</ele><time>2026-04-04T14:43:04.608Z</time></trkpt><trkpt lat="45.1270251" lon="7.1779623"><ele>436.33333333333337</ele><time>2026-04-04T14:43:05.608Z</time></trkpt><trkpt lat="45.1270376" lon="7.1777619"><ele>434.6666666666667</ele><time>2026-04-04T14:43:06.607Z</time></trkpt><trkpt lat="45.1270633" lon="7.1775421"><ele>433.0</ele><time>2026-04-04T14:43:07.608Z</time></trkpt><trkpt lat="45.1271045" lon="7.177322"><ele>432.33333333333337</ele><time>2026-04-04T14:43:08.608Z</time></trkpt><trkpt lat="45.127162" lon="7.1771063"><ele>431.66666666666663</ele><time>2026-04-04T14:43:09.608Z</time></trkpt><trkpt lat="45.1272349" lon="7.1768928"><ele>431.0</ele><time>2026-04-04T14:43:10.609Z</time></trkpt><trkpt lat="45.1273192" lon="7.1766893"><ele>429.66666666666663</ele><time>2026-04-04T14:43:11.608Z</time></trkpt><trkpt lat="45.1274107" lon="7.1765053"><ele>428.33333333333337</ele><time>2026-04-04T14:43:12.608Z</time></trkpt><trkpt lat="45.1275092" lon="7.1763392"><ele>427.0</ele><time>2026-04-04T14:43:13.608Z</time></trkpt><trkpt lat="45.1276148" lon="7.1761872"><ele>427.0</ele><time>2026-04-04T14:43:14.608Z</time></trkpt><trkpt lat="45.1277291" lon="7.1760372"><ele>427.0</ele><time>2026-04-04T14:43:15.608Z</time></trkpt><trkpt lat="45.1278484" lon="7.1758827"><ele>427.0</ele><time>2026-04-04T14:43:16.608Z</time></trkpt><trkpt lat="45.12797" lon="7.1757235"><ele>427.0</ele><time>2026-04-04T14:43:17.608Z</time></trkpt><trkpt lat="45.1280923" lon="7.1755622"><ele>427.0</ele><time>2026-04-04T14:43:18.607Z</time></trkpt><trkpt lat="45.128215" lon="7.1753998"><ele>427.0</ele><time>2026-04-04T14:43:19.608Z</time></trkpt><trkpt lat="45.128334" lon="7.1752429"><ele>427.0</ele><time>2026-04-04T14:43:20.609Z</time></trkpt><trkpt lat="45.128463" lon="7.1750735"><ele>427.0</ele><time>2026-04-04T14:43:21.607Z</time></trkpt><trkpt lat="45.1285783" lon="7.1749224"><ele>427.0</ele><time>2026-04-04T14:43:22.608Z</time></trkpt><trkpt lat="45.1287073" lon="7.1747564"><ele>427.0</ele><time>2026-04-04T14:43:23.608Z</time></trkpt><trkpt lat="45.1288366" lon="7.1745902"><ele>427.0</ele><time>2026-04-04T14:43:24.609Z</time></trkpt><trkpt lat="45.1289605" lon="7.1744303"><ele>427.0</ele><time>2026-04-04T14:43:25.609Z</time></trkpt><trkpt lat="45.1290833" lon="7.1742722"><ele>427.0</ele><time>2026-04-04T14:43:26.608Z</time></trkpt><trkpt lat="45.1292063" lon="7.1741131"><ele>427.0</ele><time>2026-04-04T14:43:27.608Z</time></trkpt><trkpt lat="45.1293283" lon="7.1739553"><ele>427.0</ele><time>2026-04-04T14:43:28.608Z</time></trkpt><trkpt lat="45.1294501" lon="7.1737991"><ele>428.0</ele><time>2026-04-04T14:43:29.609Z</time></trkpt><trkpt lat="45.1295705" lon="7.1736454"><ele>429.0</ele><time>2026-04-04T14:43:30.609Z</time></trkpt><trkpt lat="45.1296904" lon="7.1734926"><ele>430.0</ele><time>2026-04-04T14:43:31.608Z</time></trkpt><trkpt lat="45.1298117" lon="7.1733372"><ele>429.33333333333337</ele><time>2026-04-04T14:43:32.607Z</time></trkpt><trkpt lat="45.1299304" lon="7.1731777"><ele>428.66666666666663</ele><time>2026-04-04T14:43:33.607Z</time></trkpt><trkpt lat="45.1300464" lon="7.1730039"><ele>428.0</ele><time>2026-04-04T14:43:34.608Z</time></trkpt><trkpt lat="45.1301557" lon="7.172813"><ele>428.0</ele><time>2026-04-04T14:43:35.608Z</time></trkpt><trkpt lat="45.1302512" lon="7.1726074"><ele>428.0</ele><time>2026-04-04T14:43:36.608Z</time></trkpt><trkpt lat="45.1303354" lon="7.1723843"><ele>428.0</ele><time>2026-04-04T14:43:37.608Z</time></trkpt><trkpt lat="45.1303951" lon="7.1721856"><ele>429.0</ele><time>2026-04-04T14:43:38.607Z</time></trkpt><trkpt lat="45.1304446" lon="7.1719696"><ele>430.0</ele><time>2026-04-04T14:43:39.608Z</time></trkpt><trkpt lat="45.1304837" lon="7.171746"><ele>431.0</ele><time>2026-04-04T14:43:40.608Z</time></trkpt><trkpt lat="45.1305172" lon="7.1715191"><ele>431.3333333333333</ele><time>2026-04-04T14:43:41.608Z</time></trkpt><trkpt lat="45.1305475" lon="7.1712854"><ele>431.66666666666663</ele><time>2026-04-04T14:43:42.608Z</time></trkpt><trkpt lat="45.1305799" lon="7.1710322"><ele>432.0</ele><time>2026-04-04T14:43:43.608Z</time></trkpt><trkpt lat="45.1306142" lon="7.1707708"><ele>432.66666666666663</ele><time>2026-04-04T14:43:44.608Z</time></trkpt><trkpt lat="45.130648" lon="7.1705152"><ele>433.3333333333333</ele><time>2026-04-04T14:43:45.608Z</time></trkpt><trkpt lat="45.1306811" lon="7.1702695"><ele>434.0</ele><time>2026-04-04T14:43:46.608Z</time></trkpt><trkpt lat="45.1307156" lon="7.1700165"><ele>432.3333333333333</ele><time>2026-04-04T14:43:47.608Z</time></trkpt><trkpt lat="45.1307516" lon="7.1697531"><ele>430.66666666666663</ele><time>2026-04-04T14:43:48.608Z</time></trkpt><trkpt lat="45.1307853" lon="7.1694839"><ele>429.0</ele><time>2026-04-04T14:43:49.608Z</time></trkpt><trkpt lat="45.1308203" lon="7.1691994"><ele>429.0</ele><time>2026-04-04T14:43:50.608Z</time></trkpt><trkpt lat="45.1308606" lon="7.1688948"><ele>429.0</ele><time>2026-04-04T14:43:51.609Z</time></trkpt><trkpt lat="45.1309091" lon="7.1685725"><ele>429.0</ele><time>2026-04-04T14:43:52.608Z</time></trkpt><trkpt lat="45.1309655" lon="7.1682012"><ele>429.0</ele><time>2026-04-04T14:43:53.608Z</time></trkpt><trkpt lat="45.1310142" lon="7.1678585"><ele>429.0</ele><time>2026-04-04T14:43:54.609Z</time></trkpt><trkpt lat="45.1310638" lon="7.1674903"><ele>429.0</ele><time>2026-04-04T14:43:55.609Z</time></trkpt><trkpt lat="45.13111" lon="7.1671271"><ele>430.0</ele><time>2026-04-04T14:43:56.608Z</time></trkpt><trkpt lat="45.131155" lon="7.1667772"><ele>431.0</ele><time>2026-04-04T14:43:57.608Z</time></trkpt><trkpt lat="45.1311998" lon="7.1664364"><ele>431.5</ele><time>2026-04-04T14:43:58.609Z</time></trkpt><trkpt lat="45.1312482" lon="7.1660994"><ele>432.0</ele><time>2026-04-04T14:43:59.609Z</time></trkpt><trkpt lat="45.1313049" lon="7.1657771"><ele>433.0</ele><time>2026-04-04T14:44:00.608Z</time></trkpt><trkpt lat="45.1313754" lon="7.1654639"><ele>434.0</ele><time>2026-04-04T14:44:01.608Z</time></trkpt><trkpt lat="45.1314633" lon="7.1651604"><ele>432.0</ele><time>2026-04-04T14:44:02.608Z</time></trkpt><trkpt lat="45.1315689" lon="7.164863"><ele>430.0</ele><time>2026-04-04T14:44:03.608Z</time></trkpt><trkpt lat="45.1316868" lon="7.1645621"><ele>430.0</ele><time>2026-04-04T14:44:04.607Z</time></trkpt><trkpt lat="45.1318063" lon="7.1642579"><ele>430.0</ele><time>2026-04-04T14:44:05.607Z</time></trkpt><trkpt lat="45.1319261" lon="7.1639522"><ele>431.5</ele><time>2026-04-04T14:44:06.607Z</time></trkpt><trkpt lat="45.1320469" lon="7.1636392"><ele>433.0</ele><time>2026-04-04T14:44:07.608Z</time></trkpt><trkpt lat="45.1321661" lon="7.163327"><ele>433.0</ele><time>2026-04-04T14:44:08.606Z</time></trkpt><trkpt lat="45.1322932" lon="7.1629925"><ele>433.0</ele><time>2026-04-04T14:44:09.608Z</time></trkpt><trkpt lat="45.1324029" lon="7.1627063"><ele>433.0</ele><time>2026-04-04T14:44:10.607Z</time></trkpt><trkpt lat="45.1325158" lon="7.162413"><ele>433.0</ele><time>2026-04-04T14:44:11.608Z</time></trkpt><trkpt lat="45.1326263" lon="7.1621264"><ele>432.33333333333337</ele><time>2026-04-04T14:44:12.607Z</time></trkpt><trkpt lat="45.1327319" lon="7.1618462"><ele>431.66666666666663</ele><time>2026-04-04T14:44:13.608Z</time></trkpt><trkpt lat="45.1328316" lon="7.1615715"><ele>431.0</ele><time>2026-04-04T14:44:14.608Z</time></trkpt><trkpt lat="45.1329207" lon="7.161309"><ele>431.0</ele><time>2026-04-04T14:44:15.607Z</time></trkpt><trkpt lat="45.1329983" lon="7.1610612"><ele>431.0</ele><time>2026-04-04T14:44:16.607Z</time></trkpt><trkpt lat="45.1330673" lon="7.1608254"><ele>431.0</ele><time>2026-04-04T14:44:17.607Z</time></trkpt><trkpt lat="45.1331286" lon="7.1606022"><ele>432.0</ele><time>2026-04-04T14:44:18.608Z</time></trkpt><trkpt lat="45.133184" lon="7.1603878"><ele>433.0</ele><time>2026-04-04T14:44:19.608Z</time></trkpt><trkpt lat="45.1332368" lon="7.1601752"><ele>434.0</ele><time>2026-04-04T14:44:20.607Z</time></trkpt><trkpt lat="45.1332894" lon="7.1599656"><ele>434.66666666666663</ele><time>2026-04-04T14:44:21.607Z</time></trkpt><trkpt lat="45.1333417" lon="7.1597596"><ele>435.33333333333337</ele><time>2026-04-04T14:44:22.606Z</time></trkpt><trkpt lat="45.133395" lon="7.1595538"><ele>436.0</ele><time>2026-04-04T14:44:23.607Z</time></trkpt><trkpt lat="45.1334486" lon="7.1593468"><ele>436.0</ele><time>2026-04-04T14:44:24.608Z</time></trkpt><trkpt lat="45.1335051" lon="7.159128"><ele>436.0</ele><time>2026-04-04T14:44:25.608Z</time></trkpt><trkpt lat="45.1335548" lon="7.1589334"><ele>436.0</ele><time>2026-04-04T14:44:26.607Z</time></trkpt><trkpt lat="45.1336073" lon="7.1587264"><ele>435.6666666666667</ele><time>2026-04-04T14:44:27.607Z</time></trkpt><trkpt lat="45.1336618" lon="7.1585178"><ele>435.33333333333337</ele><time>2026-04-04T14:44:28.607Z</time></trkpt><trkpt lat="45.1337178" lon="7.158311"><ele>435.0</ele><time>2026-04-04T14:44:29.607Z</time></trkpt><trkpt lat="45.1337773" lon="7.1581026"><ele>435.66666666666663</ele><time>2026-04-04T14:44:30.607Z</time></trkpt><trkpt lat="45.133843" lon="7.1578902"><ele>436.3333333333333</ele><time>2026-04-04T14:44:31.608Z</time></trkpt><trkpt lat="45.1339152" lon="7.1576751"><ele>437.0</ele><time>2026-04-04T14:44:32.608Z</time></trkpt><trkpt lat="45.1339916" lon="7.1574589"><ele>437.0</ele><time>2026-04-04T14:44:33.607Z</time></trkpt><trkpt lat="45.1340738" lon="7.1572367"><ele>437.0</ele><time>2026-04-04T14:44:34.607Z</time></trkpt><trkpt lat="45.1341592" lon="7.1570144"><ele>437.0</ele><time>2026-04-04T14:44:35.607Z</time></trkpt><trkpt lat="45.1342478" lon="7.1567886"><ele>437.0</ele><time>2026-04-04T14:44:36.608Z</time></trkpt><trkpt lat="45.1343347" lon="7.1565646"><ele>437.0</ele><time>2026-04-04T14:44:37.607Z</time></trkpt><trkpt lat="45.1344254" lon="7.1563308"><ele>437.0</ele><time>2026-04-04T14:44:38.606Z</time></trkpt><trkpt lat="45.1345058" lon="7.1561248"><ele>437.3333333333333</ele><time>2026-04-04T14:44:39.607Z</time></trkpt><trkpt lat="45.1345927" lon="7.1559037"><ele>437.66666666666663</ele><time>2026-04-04T14:44:40.606Z</time></trkpt><trkpt lat="45.1346861" lon="7.1556666"><ele>438.0</ele><time>2026-04-04T14:44:41.607Z</time></trkpt><trkpt lat="45.1347698" lon="7.1554505"><ele>438.0</ele><time>2026-04-04T14:44:42.607Z</time></trkpt><trkpt lat="45.1348591" lon="7.1552175"><ele>438.0</ele><time>2026-04-04T14:44:43.607Z</time></trkpt><trkpt lat="45.1349481" lon="7.1549863"><ele>438.0</ele><time>2026-04-04T14:44:44.607Z</time></trkpt><trkpt lat="45.1350325" lon="7.1547651"><ele>437.66666666666663</ele><time>2026-04-04T14:44:45.608Z</time></trkpt><trkpt lat="45.1351124" lon="7.1545422"><ele>437.3333333333333</ele><time>2026-04-04T14:44:46.608Z</time></trkpt><trkpt lat="45.1351724" lon="7.1543506"><ele>437.0</ele><time>2026-04-04T14:44:47.606Z</time></trkpt><trkpt lat="45.1352248" lon="7.1541559"><ele>437.25</ele><time>2026-04-04T14:44:48.606Z</time></trkpt><trkpt lat="45.1352648" lon="7.1539719"><ele>437.5</ele><time>2026-04-04T14:44:49.607Z</time></trkpt><trkpt lat="45.1352954" lon="7.1537958"><ele>437.75</ele><time>2026-04-04T14:44:50.606Z</time></trkpt><trkpt lat="45.1353179" lon="7.15363"><ele>438.0</ele><time>2026-04-04T14:44:51.607Z</time></trkpt><trkpt lat="45.1353343" lon="7.153473"><ele>438.0</ele><time>2026-04-04T14:44:52.606Z</time></trkpt><trkpt lat="45.1353471" lon="7.153323"><ele>438.0</ele><time>2026-04-04T14:44:53.608Z</time></trkpt><trkpt lat="45.1353579" lon="7.1531753"><ele>438.0</ele><time>2026-04-04T14:44:54.608Z</time></trkpt><trkpt lat="45.1353651" lon="7.1530582"><ele>438.0</ele><time>2026-04-04T14:44:55.606Z</time></trkpt><trkpt lat="45.1353724" lon="7.1529498"><ele>438.0</ele><time>2026-04-04T14:44:56.607Z</time></trkpt><trkpt lat="45.1353821" lon="7.1528496"><ele>438.0</ele><time>2026-04-04T14:44:57.607Z</time></trkpt><trkpt lat="45.1354264" lon="7.1526657"><ele>438.2</ele><time>2026-04-04T14:44:59.607Z</time></trkpt><trkpt lat="45.1354526" lon="7.1525526"><ele>438.4</ele><time>2026-04-04T14:45:00.607Z</time></trkpt><trkpt lat="45.1354608" lon="7.1524212"><ele>438.59999999999997</ele><time>2026-04-04T14:45:01.607Z</time></trkpt><trkpt lat="45.1354431" lon="7.15227"><ele>438.79999999999995</ele><time>2026-04-04T14:45:02.607Z</time></trkpt><trkpt lat="45.1354375" lon="7.1521223"><ele>439.0</ele><time>2026-04-04T14:45:03.606Z</time></trkpt><trkpt lat="45.1354449" lon="7.1519637"><ele>439.25</ele><time>2026-04-04T14:45:04.608Z</time></trkpt><trkpt lat="45.1354588" lon="7.1518055"><ele>439.5</ele><time>2026-04-04T14:45:05.607Z</time></trkpt><trkpt lat="45.1354719" lon="7.151646"><ele>439.75</ele><time>2026-04-04T14:45:06.607Z</time></trkpt><trkpt lat="45.1354631" lon="7.1514708"><ele>440.0</ele><time>2026-04-04T14:45:07.607Z</time></trkpt><trkpt lat="45.135468" lon="7.1512859"><ele>440.75</ele><time>2026-04-04T14:45:08.607Z</time></trkpt><trkpt lat="45.1354773" lon="7.1510889"><ele>441.5</ele><time>2026-04-04T14:45:09.608Z</time></trkpt><trkpt lat="45.1354873" lon="7.1508831"><ele>442.25</ele><time>2026-04-04T14:45:10.607Z</time></trkpt><trkpt lat="45.135495" lon="7.1507006"><ele>443.0</ele><time>2026-04-04T14:45:11.608Z</time></trkpt><trkpt lat="45.1355037" lon="7.1505056"><ele>443.0</ele><time>2026-04-04T14:45:12.606Z</time></trkpt><trkpt lat="45.135512" lon="7.1502946"><ele>443.0</ele><time>2026-04-04T14:45:13.608Z</time></trkpt><trkpt lat="45.1355202" lon="7.1501036"><ele>443.0</ele><time>2026-04-04T14:45:14.607Z</time></trkpt><trkpt lat="45.135531" lon="7.1498958"><ele>443.0</ele><time>2026-04-04T14:45:15.606Z</time></trkpt><trkpt lat="45.1355419" lon="7.1496891"><ele>443.25</ele><time>2026-04-04T14:45:16.607Z</time></trkpt><trkpt lat="45.1355526" lon="7.1494789"><ele>443.5</ele><time>2026-04-04T14:45:17.607Z</time></trkpt><trkpt lat="45.1355632" lon="7.149269"><ele>443.75</ele><time>2026-04-04T14:45:18.607Z</time></trkpt><trkpt lat="45.1355739" lon="7.1490617"><ele>444.0</ele><time>2026-04-04T14:45:19.607Z</time></trkpt><trkpt lat="45.1355842" lon="7.1488539"><ele>444.25</ele><time>2026-04-04T14:45:20.607Z</time></trkpt><trkpt lat="45.1355944" lon="7.1486485"><ele>444.5</ele><time>2026-04-04T14:45:21.606Z</time></trkpt><trkpt lat="45.1356052" lon="7.1484439"><ele>444.75</ele><time>2026-04-04T14:45:22.607Z</time></trkpt><trkpt lat="45.135615" lon="7.148242"><ele>445.0</ele><time>2026-04-04T14:45:23.607Z</time></trkpt><trkpt lat="45.1356246" lon="7.1480449"><ele>446.0</ele><time>2026-04-04T14:45:24.607Z</time></trkpt><trkpt lat="45.1356359" lon="7.1478493"><ele>447.0</ele><time>2026-04-04T14:45:25.608Z</time></trkpt><trkpt lat="45.1356482" lon="7.147658"><ele>448.0</ele><time>2026-04-04T14:45:26.607Z</time></trkpt><trkpt lat="45.1356595" lon="7.1474766"><ele>449.0</ele><time>2026-04-04T14:45:27.608Z</time></trkpt><trkpt lat="45.1356692" lon="7.147307"><ele>449.16666666666663</ele><time>2026-04-04T14:45:28.606Z</time></trkpt><trkpt lat="45.1356756" lon="7.1471428"><ele>449.3333333333333</ele><time>2026-04-04T14:45:29.607Z</time></trkpt><trkpt lat="45.1356759" lon="7.1470157"><ele>449.5</ele><time>2026-04-04T14:45:30.608Z</time></trkpt><trkpt lat="45.1356715" lon="7.1468944"><ele>449.66666666666663</ele><time>2026-04-04T14:45:31.607Z</time></trkpt><trkpt lat="45.1356653" lon="7.146789"><ele>449.8333333333333</ele><time>2026-04-04T14:45:32.608Z</time></trkpt><trkpt lat="45.1356626" lon="7.1466913"><ele>450.0</ele><time>2026-04-04T14:45:33.606Z</time></trkpt><trkpt lat="45.13567" lon="7.1465885"><ele>449.8</ele><time>2026-04-04T14:45:34.607Z</time></trkpt><trkpt lat="45.1356836" lon="7.1464754"><ele>449.6</ele><time>2026-04-04T14:45:35.606Z</time></trkpt><trkpt lat="45.1356943" lon="7.1463452"><ele>449.4</ele><time>2026-04-04T14:45:36.608Z</time></trkpt><trkpt lat="45.1357042" lon="7.1462043"><ele>449.2</ele><time>2026-04-04T14:45:37.607Z</time></trkpt><trkpt lat="45.135715" lon="7.1460568"><ele>449.0</ele><time>2026-04-04T14:45:38.607Z</time></trkpt><trkpt lat="45.1357258" lon="7.1458998"><ele>449.0</ele><time>2026-04-04T14:45:39.608Z</time></trkpt><trkpt lat="45.1357356" lon="7.1457376"><ele>449.0</ele><time>2026-04-04T14:45:40.608Z</time></trkpt><trkpt lat="45.1357438" lon="7.14557"><ele>449.0</ele><time>2026-04-04T14:45:41.607Z</time></trkpt><trkpt lat="45.1357516" lon="7.1454015"><ele>449.0</ele><time>2026-04-04T14:45:42.607Z</time></trkpt><trkpt lat="45.1357583" lon="7.1452294"><ele>449.0</ele><time>2026-04-04T14:45:43.607Z</time></trkpt><trkpt lat="45.1357658" lon="7.145049"><ele>449.0</ele><time>2026-04-04T14:45:44.608Z</time></trkpt><trkpt lat="45.1357743" lon="7.1448613"><ele>449.0</ele><time>2026-04-04T14:45:45.607Z</time></trkpt><trkpt lat="45.1357829" lon="7.1446684"><ele>449.0</ele><time>2026-04-04T14:45:46.607Z</time></trkpt><trkpt lat="45.1357914" lon="7.144475"><ele>449.25</ele><time>2026-04-04T14:45:47.607Z</time></trkpt><trkpt lat="45.1357996" lon="7.1442917"><ele>449.5</ele><time>2026-04-04T14:45:48.607Z</time></trkpt><trkpt lat="45.1358068" lon="7.1441148"><ele>449.75</ele><time>2026-04-04T14:45:49.607Z</time></trkpt><trkpt lat="45.1358116" lon="7.1439378"><ele>450.0</ele><time>2026-04-04T14:45:50.606Z</time></trkpt><trkpt lat="45.1358138" lon="7.1437634"><ele>450.0</ele><time>2026-04-04T14:45:51.607Z</time></trkpt><trkpt lat="45.1358124" lon="7.1435927"><ele>450.0</ele><time>2026-04-04T14:45:52.608Z</time></trkpt><trkpt lat="45.135807" lon="7.1434323"><ele>450.0</ele><time>2026-04-04T14:45:53.608Z</time></trkpt><trkpt lat="45.1357997" lon="7.1432828"><ele>450.0</ele><time>2026-04-04T14:45:54.607Z</time></trkpt><trkpt lat="45.1357895" lon="7.1431311"><ele>450.0</ele><time>2026-04-04T14:45:55.607Z</time></trkpt><trkpt lat="45.1357739" lon="7.1429743"><ele>450.5</ele><time>2026-04-04T14:45:56.607Z</time></trkpt><trkpt lat="45.1357556" lon="7.1428074"><ele>451.0</ele><time>2026-04-04T14:45:57.607Z</time></trkpt><trkpt lat="45.135736" lon="7.1426302"><ele>451.5</ele><time>2026-04-04T14:45:58.606Z</time></trkpt><trkpt lat="45.1357142" lon="7.1424465"><ele>452.0</ele><time>2026-04-04T14:45:59.608Z</time></trkpt><trkpt lat="45.1356907" lon="7.1422538"><ele>452.0</ele><time>2026-04-04T14:46:00.607Z</time></trkpt><trkpt lat="45.1356656" lon="7.1420564"><ele>452.0</ele><time>2026-04-04T14:46:01.608Z</time></trkpt><trkpt lat="45.1356449" lon="7.141888"><ele>452.0</ele><time>2026-04-04T14:46:02.608Z</time></trkpt><trkpt lat="45.1356224" lon="7.1417092"><ele>452.0</ele><time>2026-04-04T14:46:03.607Z</time></trkpt><trkpt lat="45.1356006" lon="7.1415341"><ele>452.25</ele><time>2026-04-04T14:46:04.607Z</time></trkpt><trkpt lat="45.135579" lon="7.1413576"><ele>452.5</ele><time>2026-04-04T14:46:05.606Z</time></trkpt><trkpt lat="45.1355564" lon="7.1411787"><ele>452.75</ele><time>2026-04-04T14:46:06.607Z</time></trkpt><trkpt lat="45.135533" lon="7.1409922"><ele>453.0</ele><time>2026-04-04T14:46:07.607Z</time></trkpt><trkpt lat="45.1355052" lon="7.14079"><ele>453.0</ele><time>2026-04-04T14:46:08.608Z</time></trkpt><trkpt lat="45.1354723" lon="7.1405758"><ele>453.0</ele><time>2026-04-04T14:46:09.608Z</time></trkpt><trkpt lat="45.1354364" lon="7.1403584"><ele>453.0</ele><time>2026-04-04T14:46:10.608Z</time></trkpt><trkpt lat="45.135397" lon="7.1401397"><ele>453.0</ele><time>2026-04-04T14:46:11.607Z</time></trkpt><trkpt lat="45.1353527" lon="7.13992"><ele>453.0</ele><time>2026-04-04T14:46:12.607Z</time></trkpt><trkpt lat="45.1353039" lon="7.1397031"><ele>453.0</ele><time>2026-04-04T14:46:13.607Z</time></trkpt><trkpt lat="45.1352518" lon="7.1394896"><ele>453.0</ele><time>2026-04-04T14:46:14.607Z</time></trkpt><trkpt lat="45.1352" lon="7.139283"><ele>453.0</ele><time>2026-04-04T14:46:15.607Z</time></trkpt><trkpt lat="45.1351484" lon="7.1390764"><ele>453.0</ele><time>2026-04-04T14:46:16.607Z</time></trkpt><trkpt lat="45.1350919" lon="7.1388583"><ele>452.5</ele><time>2026-04-04T14:46:17.607Z</time></trkpt><trkpt lat="45.1350423" lon="7.138674"><ele>452.0</ele><time>2026-04-04T14:46:18.608Z</time></trkpt><trkpt lat="45.1349877" lon="7.1384814"><ele>451.5</ele><time>2026-04-04T14:46:19.607Z</time></trkpt><trkpt lat="45.1349319" lon="7.1382893"><ele>451.0</ele><time>2026-04-04T14:46:20.607Z</time></trkpt><trkpt lat="45.1348744" lon="7.1380927"><ele>452.6666666666667</ele><time>2026-04-04T14:46:21.607Z</time></trkpt><trkpt lat="45.1348125" lon="7.1378824"><ele>454.33333333333337</ele><time>2026-04-04T14:46:22.607Z</time></trkpt><trkpt lat="45.1347488" lon="7.1376691"><ele>456.0</ele><time>2026-04-04T14:46:23.607Z</time></trkpt><trkpt lat="45.1346868" lon="7.1374595"><ele>455.0</ele><time>2026-04-04T14:46:24.607Z</time></trkpt><trkpt lat="45.1346215" lon="7.1372451"><ele>454.0</ele><time>2026-04-04T14:46:25.607Z</time></trkpt><trkpt lat="45.1345467" lon="7.1370147"><ele>453.0</ele><time>2026-04-04T14:46:26.608Z</time></trkpt><trkpt lat="45.1344665" lon="7.1367577"><ele>452.0</ele><time>2026-04-04T14:46:27.607Z</time></trkpt><trkpt lat="45.1343852" lon="7.1364912"><ele>451.0</ele><time>2026-04-04T14:46:28.607Z</time></trkpt><trkpt lat="45.1343072" lon="7.1362353"><ele>450.0</ele><time>2026-04-04T14:46:29.606Z</time></trkpt><trkpt lat="45.1342318" lon="7.1359903"><ele>450.0</ele><time>2026-04-04T14:46:30.607Z</time></trkpt><trkpt lat="45.1341559" lon="7.1357475"><ele>450.0</ele><time>2026-04-04T14:46:31.607Z</time></trkpt><trkpt lat="45.1340772" lon="7.1355028"><ele>450.0</ele><time>2026-04-04T14:46:32.607Z</time></trkpt><trkpt lat="45.1339861" lon="7.1352297"><ele>450.33333333333337</ele><time>2026-04-04T14:46:33.607Z</time></trkpt><trkpt lat="45.1339054" lon="7.1349795"><ele>450.6666666666667</ele><time>2026-04-04T14:46:34.607Z</time></trkpt><trkpt lat="45.1338183" lon="7.1346969"><ele>451.0</ele><time>2026-04-04T14:46:35.607Z</time></trkpt><trkpt lat="45.1337312" lon="7.1344068"><ele>451.0</ele><time>2026-04-04T14:46:36.606Z</time></trkpt><trkpt lat="45.1336474" lon="7.134122"><ele>451.0</ele><time>2026-04-04T14:46:37.607Z</time></trkpt><trkpt lat="45.1335686" lon="7.1338438"><ele>451.0</ele><time>2026-04-04T14:46:38.606Z</time></trkpt><trkpt lat="45.1335014" lon="7.1335732"><ele>451.0</ele><time>2026-04-04T14:46:39.607Z</time></trkpt><trkpt lat="45.1334453" lon="7.1332999"><ele>451.0</ele><time>2026-04-04T14:46:40.607Z</time></trkpt><trkpt lat="45.1333981" lon="7.1330181"><ele>451.0</ele><time>2026-04-04T14:46:41.607Z</time></trkpt><trkpt lat="45.1333585" lon="7.1327316"><ele>449.6666666666667</ele><time>2026-04-04T14:46:42.607Z</time></trkpt><trkpt lat="45.1333284" lon="7.1324336"><ele>448.33333333333337</ele><time>2026-04-04T14:46:43.607Z</time></trkpt><trkpt lat="45.1333087" lon="7.1321287"><ele>447.0</ele><time>2026-04-04T14:46:44.606Z</time></trkpt><trkpt lat="45.1332959" lon="7.1318192"><ele>445.5</ele><time>2026-04-04T14:46:45.607Z</time></trkpt><trkpt lat="45.1332886" lon="7.1315015"><ele>444.0</ele><time>2026-04-04T14:46:46.607Z</time></trkpt><trkpt lat="45.1332815" lon="7.1311757"><ele>444.0</ele><time>2026-04-04T14:46:47.607Z</time></trkpt><trkpt lat="45.1332714" lon="7.1308503"><ele>444.0</ele><time>2026-04-04T14:46:48.607Z</time></trkpt><trkpt lat="45.1332568" lon="7.130499"><ele>444.5</ele><time>2026-04-04T14:46:49.607Z</time></trkpt><trkpt lat="45.1332466" lon="7.1301907"><ele>445.0</ele><time>2026-04-04T14:46:50.607Z</time></trkpt><trkpt lat="45.133237" lon="7.1298564"><ele>445.5</ele><time>2026-04-04T14:46:51.606Z</time></trkpt><trkpt lat="45.1332274" lon="7.1295217"><ele>446.0</ele><time>2026-04-04T14:46:52.608Z</time></trkpt><trkpt lat="45.1332175" lon="7.1291895"><ele>451.5</ele><time>2026-04-04T14:46:53.607Z</time></trkpt><trkpt lat="45.1332051" lon="7.1288614"><ele>457.0</ele><time>2026-04-04T14:46:54.606Z</time></trkpt><trkpt lat="45.1331896" lon="7.1285462"><ele>457.0</ele><time>2026-04-04T14:46:55.607Z</time></trkpt><trkpt lat="45.1331648" lon="7.1282438"><ele>457.0</ele><time>2026-04-04T14:46:56.607Z</time></trkpt><trkpt lat="45.1331251" lon="7.1279421"><ele>457.0</ele><time>2026-04-04T14:46:57.607Z</time></trkpt><trkpt lat="45.1330688" lon="7.1276466"><ele>454.6666666666667</ele><time>2026-04-04T14:46:58.607Z</time></trkpt><trkpt lat="45.1329983" lon="7.1273611"><ele>452.33333333333337</ele><time>2026-04-04T14:46:59.607Z</time></trkpt><trkpt lat="45.1329149" lon="7.1270821"><ele>450.0</ele><time>2026-04-04T14:47:00.606Z</time></trkpt><trkpt lat="45.1328263" lon="7.1268217"><ele>450.0</ele><time>2026-04-04T14:47:01.605Z</time></trkpt><trkpt lat="45.1327373" lon="7.1265729"><ele>450.0</ele><time>2026-04-04T14:47:02.605Z</time></trkpt><trkpt lat="45.132645" lon="7.1263272"><ele>450.0</ele><time>2026-04-04T14:47:03.606Z</time></trkpt><trkpt lat="45.1325504" lon="7.12609"><ele>449.33333333333337</ele><time>2026-04-04T14:47:04.606Z</time></trkpt><trkpt lat="45.1324312" lon="7.1258475"><ele>448.6666666666667</ele><time>2026-04-04T14:47:05.607Z</time></trkpt><trkpt lat="45.1323112" lon="7.1256502"><ele>448.0</ele><time>2026-04-04T14:47:06.606Z</time></trkpt><trkpt lat="45.1321754" lon="7.1254509"><ele>448.0</ele><time>2026-04-04T14:47:07.607Z</time></trkpt><trkpt lat="45.1320358" lon="7.1252509"><ele>448.0</ele><time>2026-04-04T14:47:08.606Z</time></trkpt><trkpt lat="45.1319013" lon="7.1250464"><ele>448.0</ele><time>2026-04-04T14:47:09.606Z</time></trkpt><trkpt lat="45.1317846" lon="7.1248252"><ele>447.0</ele><time>2026-04-04T14:47:10.606Z</time></trkpt><trkpt lat="45.1316916" lon="7.1245917"><ele>446.0</ele><time>2026-04-04T14:47:11.607Z</time></trkpt><trkpt lat="45.1316208" lon="7.124344"><ele>445.0</ele><time>2026-04-04T14:47:12.606Z</time></trkpt><trkpt lat="45.1315707" lon="7.1240756"><ele>445.0</ele><time>2026-04-04T14:47:13.607Z</time></trkpt><trkpt lat="45.1315463" lon="7.1237967"><ele>445.0</ele><time>2026-04-04T14:47:14.606Z</time></trkpt><trkpt lat="45.1315512" lon="7.1235127"><ele>445.0</ele><time>2026-04-04T14:47:15.606Z</time></trkpt><trkpt lat="45.1315815" lon="7.1232243"><ele>445.0</ele><time>2026-04-04T14:47:16.606Z</time></trkpt><trkpt lat="45.1316278" lon="7.1229328"><ele>445.0</ele><time>2026-04-04T14:47:17.605Z</time></trkpt><trkpt lat="45.1316758" lon="7.1226408"><ele>445.0</ele><time>2026-04-04T14:47:18.606Z</time></trkpt><trkpt lat="45.131723" lon="7.1223438"><ele>445.6666666666667</ele><time>2026-04-04T14:47:19.607Z</time></trkpt><trkpt lat="45.1317694" lon="7.1220524"><ele>446.33333333333337</ele><time>2026-04-04T14:47:20.606Z</time></trkpt><trkpt lat="45.1318206" lon="7.1217446"><ele>447.0</ele><time>2026-04-04T14:47:21.606Z</time></trkpt><trkpt lat="45.1318637" lon="7.1214715"><ele>447.33333333333337</ele><time>2026-04-04T14:47:22.605Z</time></trkpt><trkpt lat="45.1319046" lon="7.1211802"><ele>447.6666666666667</ele><time>2026-04-04T14:47:23.607Z</time></trkpt><trkpt lat="45.1319351" lon="7.1208828"><ele>448.0</ele><time>2026-04-04T14:47:24.606Z</time></trkpt><trkpt lat="45.1319559" lon="7.1205804"><ele>448.0</ele><time>2026-04-04T14:47:25.606Z</time></trkpt><trkpt lat="45.1319682" lon="7.1202794"><ele>448.0</ele><time>2026-04-04T14:47:26.607Z</time></trkpt><trkpt lat="45.1319767" lon="7.1199743"><ele>448.0</ele><time>2026-04-04T14:47:27.607Z</time></trkpt><trkpt lat="45.1319837" lon="7.1196703"><ele>448.0</ele><time>2026-04-04T14:47:28.606Z</time></trkpt><trkpt lat="45.1319907" lon="7.1193623"><ele>448.0</ele><time>2026-04-04T14:47:29.607Z</time></trkpt><trkpt lat="45.1319967" lon="7.1190537"><ele>448.0</ele><time>2026-04-04T14:47:30.607Z</time></trkpt><trkpt lat="45.1320019" lon="7.118748"><ele>448.33333333333337</ele><time>2026-04-04T14:47:31.606Z</time></trkpt><trkpt lat="45.132013" lon="7.1184425"><ele>448.66666666666663</ele><time>2026-04-04T14:47:32.606Z</time></trkpt><trkpt lat="45.1320404" lon="7.1181404"><ele>449.0</ele><time>2026-04-04T14:47:33.606Z</time></trkpt><trkpt lat="45.1320919" lon="7.1178479"><ele>449.3333333333333</ele><time>2026-04-04T14:47:34.606Z</time></trkpt><trkpt lat="45.1321691" lon="7.1175623"><ele>449.66666666666663</ele><time>2026-04-04T14:47:35.607Z</time></trkpt><trkpt lat="45.1322588" lon="7.1172818"><ele>450.0</ele><time>2026-04-04T14:47:36.607Z</time></trkpt><trkpt lat="45.1323542" lon="7.1169845"><ele>450.33333333333337</ele><time>2026-04-04T14:47:37.606Z</time></trkpt><trkpt lat="45.1324377" lon="7.1167174"><ele>450.6666666666667</ele><time>2026-04-04T14:47:38.607Z</time></trkpt><trkpt lat="45.13252" lon="7.1164371"><ele>451.0</ele><time>2026-04-04T14:47:39.606Z</time></trkpt><trkpt lat="45.1325892" lon="7.1161561"><ele>451.0</ele><time>2026-04-04T14:47:40.606Z</time></trkpt><trkpt lat="45.1326367" lon="7.115874"><ele>451.0</ele><time>2026-04-04T14:47:41.607Z</time></trkpt><trkpt lat="45.1326614" lon="7.1155916"><ele>451.0</ele><time>2026-04-04T14:47:42.605Z</time></trkpt><trkpt lat="45.1326663" lon="7.1153068"><ele>451.6666666666667</ele><time>2026-04-04T14:47:43.606Z</time></trkpt><trkpt lat="45.1326512" lon="7.115022"><ele>452.33333333333337</ele><time>2026-04-04T14:47:44.607Z</time></trkpt><trkpt lat="45.1326225" lon="7.1147411"><ele>453.0</ele><time>2026-04-04T14:47:45.606Z</time></trkpt><trkpt lat="45.1325911" lon="7.1144696"><ele>453.66666666666663</ele><time>2026-04-04T14:47:46.606Z</time></trkpt><trkpt lat="45.1325618" lon="7.1142151"><ele>454.3333333333333</ele><time>2026-04-04T14:47:47.606Z</time></trkpt><trkpt lat="45.1325357" lon="7.1139733"><ele>455.0</ele><time>2026-04-04T14:47:48.606Z</time></trkpt><trkpt lat="45.1325118" lon="7.1137417"><ele>455.3333333333333</ele><time>2026-04-04T14:47:49.607Z</time></trkpt><trkpt lat="45.1324849" lon="7.1135078"><ele>455.66666666666663</ele><time>2026-04-04T14:47:50.606Z</time></trkpt><trkpt lat="45.1324594" lon="7.1133019"><ele>456.0</ele><time>2026-04-04T14:47:51.607Z</time></trkpt><trkpt lat="45.1324289" lon="7.1130736"><ele>456.33333333333337</ele><time>2026-04-04T14:47:52.606Z</time></trkpt><trkpt lat="45.1323936" lon="7.1128157"><ele>456.6666666666667</ele><time>2026-04-04T14:47:53.606Z</time></trkpt><trkpt lat="45.1323624" lon="7.1125733"><ele>457.0</ele><time>2026-04-04T14:47:54.607Z</time></trkpt><trkpt lat="45.132327" lon="7.1123019"><ele>458.0</ele><time>2026-04-04T14:47:55.607Z</time></trkpt><trkpt lat="45.132291" lon="7.1120276"><ele>459.0</ele><time>2026-04-04T14:47:56.606Z</time></trkpt><trkpt lat="45.1322536" lon="7.1117438"><ele>460.0</ele><time>2026-04-04T14:47:57.606Z</time></trkpt><trkpt lat="45.1322149" lon="7.1114581"><ele>460.0</ele><time>2026-04-04T14:47:58.607Z</time></trkpt><trkpt lat="45.1321774" lon="7.1111642"><ele>460.0</ele><time>2026-04-04T14:47:59.606Z</time></trkpt><trkpt lat="45.1321404" lon="7.110865"><ele>460.0</ele><time>2026-04-04T14:48:00.606Z</time></trkpt><trkpt lat="45.1321032" lon="7.1105658"><ele>459.6666666666667</ele><time>2026-04-04T14:48:01.605Z</time></trkpt><trkpt lat="45.1320654" lon="7.1102632"><ele>459.33333333333337</ele><time>2026-04-04T14:48:02.606Z</time></trkpt><trkpt lat="45.132028" lon="7.1099624"><ele>459.0</ele><time>2026-04-04T14:48:03.606Z</time></trkpt><trkpt lat="45.1319902" lon="7.1096661"><ele>459.0</ele><time>2026-04-04T14:48:04.607Z</time></trkpt><trkpt lat="45.1319537" lon="7.1093674"><ele>459.0</ele><time>2026-04-04T14:48:05.607Z</time></trkpt><trkpt lat="45.1319178" lon="7.1090538"><ele>459.0</ele><time>2026-04-04T14:48:06.607Z</time></trkpt><trkpt lat="45.1318923" lon="7.1087729"><ele>458.33333333333337</ele><time>2026-04-04T14:48:07.606Z</time></trkpt><trkpt lat="45.1318743" lon="7.108468"><ele>457.6666666666667</ele><time>2026-04-04T14:48:08.605Z</time></trkpt><trkpt lat="45.1318786" lon="7.1081398"><ele>457.0</ele><time>2026-04-04T14:48:09.606Z</time></trkpt><trkpt lat="45.131905" lon="7.1078467"><ele>456.0</ele><time>2026-04-04T14:48:10.605Z</time></trkpt><trkpt lat="45.1319499" lon="7.1075332"><ele>455.0</ele><time>2026-04-04T14:48:11.606Z</time></trkpt><trkpt lat="45.1320008" lon="7.1072236"><ele>454.5</ele><time>2026-04-04T14:48:12.607Z</time></trkpt><trkpt lat="45.1320509" lon="7.1069103"><ele>454.0</ele><time>2026-04-04T14:48:13.606Z</time></trkpt><trkpt lat="45.1320982" lon="7.1065994"><ele>454.33333333333337</ele><time>2026-04-04T14:48:14.607Z</time></trkpt><trkpt lat="45.132142" lon="7.1062933"><ele>454.66666666666663</ele><time>2026-04-04T14:48:15.606Z</time></trkpt><trkpt lat="45.1321811" lon="7.1059847"><ele>455.0</ele><time>2026-04-04T14:48:16.605Z</time></trkpt><trkpt lat="45.1322126" lon="7.1056809"><ele>455.3333333333333</ele><time>2026-04-04T14:48:17.606Z</time></trkpt><trkpt lat="45.1322367" lon="7.1053763"><ele>455.66666666666663</ele><time>2026-04-04T14:48:18.606Z</time></trkpt><trkpt lat="45.1322526" lon="7.1050631"><ele>456.0</ele><time>2026-04-04T14:48:19.606Z</time></trkpt><trkpt lat="45.1322565" lon="7.1047459"><ele>457.0</ele><time>2026-04-04T14:48:20.606Z</time></trkpt><trkpt lat="45.1322504" lon="7.1044151"><ele>458.0</ele><time>2026-04-04T14:48:21.606Z</time></trkpt><trkpt lat="45.1322368" lon="7.1040762"><ele>459.0</ele><time>2026-04-04T14:48:22.606Z</time></trkpt><trkpt lat="45.1322213" lon="7.1037369"><ele>460.0</ele><time>2026-04-04T14:48:23.606Z</time></trkpt><trkpt lat="45.1322102" lon="7.1033931"><ele>460.0</ele><time>2026-04-04T14:48:24.607Z</time></trkpt><trkpt lat="45.132205" lon="7.1030491"><ele>460.0</ele><time>2026-04-04T14:48:25.606Z</time></trkpt><trkpt lat="45.13221" lon="7.1027067"><ele>461.0</ele><time>2026-04-04T14:48:26.606Z</time></trkpt><trkpt lat="45.1322262" lon="7.1023606"><ele>462.0</ele><time>2026-04-04T14:48:27.605Z</time></trkpt><trkpt lat="45.1322531" lon="7.1020107"><ele>462.0</ele><time>2026-04-04T14:48:28.606Z</time></trkpt><trkpt lat="45.1322946" lon="7.1016463"><ele>462.0</ele><time>2026-04-04T14:48:29.606Z</time></trkpt><trkpt lat="45.132353" lon="7.1012731"><ele>462.0</ele><time>2026-04-04T14:48:30.607Z</time></trkpt><trkpt lat="45.1324323" lon="7.1008961"><ele>462.0</ele><time>2026-04-04T14:48:31.607Z</time></trkpt><trkpt lat="45.1325278" lon="7.1005104"><ele>462.0</ele><time>2026-04-04T14:48:32.605Z</time></trkpt><trkpt lat="45.1326327" lon="7.1001237"><ele>462.0</ele><time>2026-04-04T14:48:33.606Z</time></trkpt><trkpt lat="45.1327378" lon="7.0997414"><ele>463.0</ele><time>2026-04-04T14:48:34.605Z</time></trkpt><trkpt lat="45.1328312" lon="7.0993536"><ele>464.0</ele><time>2026-04-04T14:48:35.607Z</time></trkpt><trkpt lat="45.1329077" lon="7.0989657"><ele>464.5</ele><time>2026-04-04T14:48:36.607Z</time></trkpt><trkpt lat="45.1329711" lon="7.0985727"><ele>465.0</ele><time>2026-04-04T14:48:37.607Z</time></trkpt><trkpt lat="45.1330283" lon="7.0981808"><ele>466.0</ele><time>2026-04-04T14:48:38.606Z</time></trkpt><trkpt lat="45.1330826" lon="7.0977977"><ele>467.0</ele><time>2026-04-04T14:48:39.607Z</time></trkpt><trkpt lat="45.1331412" lon="7.0974281"><ele>467.0</ele><time>2026-04-04T14:48:40.606Z</time></trkpt><trkpt lat="45.1332229" lon="7.0970549"><ele>467.0</ele><time>2026-04-04T14:48:41.606Z</time></trkpt><trkpt lat="45.1333149" lon="7.0967456"><ele>467.5</ele><time>2026-04-04T14:48:42.605Z</time></trkpt><trkpt lat="45.1334281" lon="7.0964209"><ele>468.0</ele><time>2026-04-04T14:48:43.606Z</time></trkpt><trkpt lat="45.1335492" lon="7.0960998"><ele>468.0</ele><time>2026-04-04T14:48:44.606Z</time></trkpt><trkpt lat="45.1336715" lon="7.0957824"><ele>468.0</ele><time>2026-04-04T14:48:45.605Z</time></trkpt><trkpt lat="45.1337942" lon="7.0954567"><ele>469.0</ele><time>2026-04-04T14:48:46.606Z</time></trkpt><trkpt lat="45.1339142" lon="7.0951314"><ele>470.0</ele><time>2026-04-04T14:48:47.606Z</time></trkpt><trkpt lat="45.1340266" lon="7.0947962"><ele>470.0</ele><time>2026-04-04T14:48:48.607Z</time></trkpt><trkpt lat="45.1341259" lon="7.0944515"><ele>470.0</ele><time>2026-04-04T14:48:49.606Z</time></trkpt><trkpt lat="45.1342109" lon="7.0941022"><ele>468.5</ele><time>2026-04-04T14:48:50.607Z</time></trkpt><trkpt lat="45.1342825" lon="7.0937426"><ele>467.0</ele><time>2026-04-04T14:48:51.606Z</time></trkpt><trkpt lat="45.1343404" lon="7.093375"><ele>468.0</ele><time>2026-04-04T14:48:52.605Z</time></trkpt><trkpt lat="45.1343846" lon="7.0930067"><ele>469.0</ele><time>2026-04-04T14:48:53.607Z</time></trkpt><trkpt lat="45.1344203" lon="7.0926281"><ele>469.0</ele><time>2026-04-04T14:48:54.607Z</time></trkpt><trkpt lat="45.1344514" lon="7.0922441"><ele>469.0</ele><time>2026-04-04T14:48:55.607Z</time></trkpt><trkpt lat="45.1344822" lon="7.0918621"><ele>469.5</ele><time>2026-04-04T14:48:56.606Z</time></trkpt><trkpt lat="45.1345168" lon="7.0914489"><ele>470.0</ele><time>2026-04-04T14:48:57.607Z</time></trkpt><trkpt lat="45.1345468" lon="7.0910866"><ele>471.5</ele><time>2026-04-04T14:48:58.607Z</time></trkpt><trkpt lat="45.1345787" lon="7.0906949"><ele>473.0</ele><time>2026-04-04T14:48:59.606Z</time></trkpt><trkpt lat="45.1346096" lon="7.0903014"><ele>472.5</ele><time>2026-04-04T14:49:00.607Z</time></trkpt><trkpt lat="45.1346416" lon="7.0899094"><ele>472.0</ele><time>2026-04-04T14:49:01.606Z</time></trkpt><trkpt lat="45.1346749" lon="7.0895114"><ele>472.0</ele><time>2026-04-04T14:49:02.606Z</time></trkpt><trkpt lat="45.1347079" lon="7.0891088"><ele>472.0</ele><time>2026-04-04T14:49:03.606Z</time></trkpt><trkpt lat="45.1347405" lon="7.0887018"><ele>473.5</ele><time>2026-04-04T14:49:04.607Z</time></trkpt><trkpt lat="45.1347731" lon="7.0882816"><ele>475.0</ele><time>2026-04-04T14:49:05.606Z</time></trkpt><trkpt lat="45.1348061" lon="7.0878589"><ele>475.0</ele><time>2026-04-04T14:49:06.607Z</time></trkpt><trkpt lat="45.1348392" lon="7.0874489"><ele>475.0</ele><time>2026-04-04T14:49:07.606Z</time></trkpt><trkpt lat="45.1348731" lon="7.0870609"><ele>474.5</ele><time>2026-04-04T14:49:08.605Z</time></trkpt><trkpt lat="45.1349049" lon="7.0866987"><ele>474.0</ele><time>2026-04-04T14:49:09.605Z</time></trkpt><trkpt lat="45.1349339" lon="7.0863538"><ele>474.0</ele><time>2026-04-04T14:49:10.606Z</time></trkpt><trkpt lat="45.1349598" lon="7.0860262"><ele>474.0</ele><time>2026-04-04T14:49:11.607Z</time></trkpt><trkpt lat="45.1349817" lon="7.0857231"><ele>474.0</ele><time>2026-04-04T14:49:12.607Z</time></trkpt><trkpt lat="45.1350009" lon="7.085413"><ele>474.33333333333337</ele><time>2026-04-04T14:49:13.605Z</time></trkpt><trkpt lat="45.1350124" lon="7.0851646"><ele>474.6666666666667</ele><time>2026-04-04T14:49:14.606Z</time></trkpt><trkpt lat="45.1350195" lon="7.084932"><ele>475.0</ele><time>2026-04-04T14:49:15.606Z</time></trkpt><trkpt lat="45.135021" lon="7.0847324"><ele>475.1666666666667</ele><time>2026-04-04T14:49:16.606Z</time></trkpt><trkpt lat="45.1350181" lon="7.0845698"><ele>475.33333333333337</ele><time>2026-04-04T14:49:17.606Z</time></trkpt><trkpt lat="45.1350119" lon="7.0844476"><ele>475.5</ele><time>2026-04-04T14:49:18.607Z</time></trkpt><trkpt lat="45.135001" lon="7.0843202"><ele>475.66666666666663</ele><time>2026-04-04T14:49:20.605Z</time></trkpt><trkpt lat="45.1349909" lon="7.0842296"><ele>475.8333333333333</ele><time>2026-04-04T14:49:43.606Z</time></trkpt><trkpt lat="45.1349802" lon="7.084119"><ele>476.0</ele><time>2026-04-04T14:49:44.606Z</time></trkpt><trkpt lat="45.1349653" lon="7.0839733"><ele>476.0</ele><time>2026-04-04T14:49:45.607Z</time></trkpt><trkpt lat="45.1349476" lon="7.0838237"><ele>476.0</ele><time>2026-04-04T14:49:46.607Z</time></trkpt><trkpt lat="45.1349237" lon="7.0836446"><ele>476.0</ele><time>2026-04-04T14:49:47.606Z</time></trkpt><trkpt lat="45.1348933" lon="7.0834511"><ele>476.0</ele><time>2026-04-04T14:49:48.606Z</time></trkpt><trkpt lat="45.1348548" lon="7.0832469"><ele>477.0</ele><time>2026-04-04T14:49:49.605Z</time></trkpt><trkpt lat="45.1348053" lon="7.0830214"><ele>478.0</ele><time>2026-04-04T14:49:50.607Z</time></trkpt><trkpt lat="45.1347433" lon="7.0827702"><ele>479.0</ele><time>2026-04-04T14:49:51.606Z</time></trkpt><trkpt lat="45.1346695" lon="7.0824931"><ele>478.66666666666663</ele><time>2026-04-04T14:49:52.607Z</time></trkpt><trkpt lat="45.1345885" lon="7.0822002"><ele>478.33333333333337</ele><time>2026-04-04T14:49:53.605Z</time></trkpt><trkpt lat="45.1345022" lon="7.0819017"><ele>478.0</ele><time>2026-04-04T14:49:54.606Z</time></trkpt><trkpt lat="45.1344133" lon="7.0816016"><ele>476.5</ele><time>2026-04-04T14:49:55.606Z</time></trkpt><trkpt lat="45.1343266" lon="7.0813016"><ele>475.0</ele><time>2026-04-04T14:49:56.606Z</time></trkpt><trkpt lat="45.13424" lon="7.0809982"><ele>475.0</ele><time>2026-04-04T14:49:57.607Z</time></trkpt><trkpt lat="45.1341526" lon="7.0806968"><ele>475.0</ele><time>2026-04-04T14:49:58.604Z</time></trkpt><trkpt lat="45.1340679" lon="7.0804046"><ele>475.33333333333337</ele><time>2026-04-04T14:49:59.606Z</time></trkpt><trkpt lat="45.1339868" lon="7.0801147"><ele>475.66666666666663</ele><time>2026-04-04T14:50:00.606Z</time></trkpt><trkpt lat="45.1339087" lon="7.0798151"><ele>476.0</ele><time>2026-04-04T14:50:01.606Z</time></trkpt><trkpt lat="45.1338465" lon="7.0795491"><ele>476.0</ele><time>2026-04-04T14:50:02.605Z</time></trkpt><trkpt lat="45.1337847" lon="7.0792673"><ele>476.0</ele><time>2026-04-04T14:50:03.605Z</time></trkpt><trkpt lat="45.1337251" lon="7.0789905"><ele>476.0</ele><time>2026-04-04T14:50:04.604Z</time></trkpt><trkpt lat="45.1336662" lon="7.0787109"><ele>475.66666666666663</ele><time>2026-04-04T14:50:05.605Z</time></trkpt><trkpt lat="45.133606" lon="7.0784292"><ele>475.33333333333337</ele><time>2026-04-04T14:50:06.606Z</time></trkpt><trkpt lat="45.1335443" lon="7.0781459"><ele>475.0</ele><time>2026-04-04T14:50:07.605Z</time></trkpt><trkpt lat="45.133482" lon="7.0778558"><ele>474.6666666666667</ele><time>2026-04-04T14:50:08.605Z</time></trkpt><trkpt lat="45.1334254" lon="7.0775824"><ele>474.33333333333337</ele><time>2026-04-04T14:50:09.605Z</time></trkpt><trkpt lat="45.1333621" lon="7.0772744"><ele>474.0</ele><time>2026-04-04T14:50:10.604Z</time></trkpt><trkpt lat="45.1333007" lon="7.0769829"><ele>473.66666666666663</ele><time>2026-04-04T14:50:11.605Z</time></trkpt><trkpt lat="45.1332385" lon="7.0766913"><ele>473.3333333333333</ele><time>2026-04-04T14:50:12.606Z</time></trkpt><trkpt lat="45.1331741" lon="7.0763897"><ele>473.0</ele><time>2026-04-04T14:50:13.606Z</time></trkpt><trkpt lat="45.133109" lon="7.0760822"><ele>473.0</ele><time>2026-04-04T14:50:14.605Z</time></trkpt><trkpt lat="45.1330456" lon="7.0757739"><ele>473.0</ele><time>2026-04-04T14:50:15.605Z</time></trkpt><trkpt lat="45.1329864" lon="7.0754655"><ele>474.0</ele><time>2026-04-04T14:50:16.605Z</time></trkpt><trkpt lat="45.1329357" lon="7.0751689"><ele>475.0</ele><time>2026-04-04T14:50:17.606Z</time></trkpt><trkpt lat="45.132896" lon="7.0748887"><ele>476.0</ele><time>2026-04-04T14:50:18.606Z</time></trkpt><trkpt lat="45.1328658" lon="7.0746189"><ele>476.0</ele><time>2026-04-04T14:50:19.604Z</time></trkpt><trkpt lat="45.1328452" lon="7.0743612"><ele>476.0</ele><time>2026-04-04T14:50:20.605Z</time></trkpt><trkpt lat="45.1328334" lon="7.0741073"><ele>476.0</ele><time>2026-04-04T14:50:21.604Z</time></trkpt><trkpt lat="45.1328278" lon="7.0738594"><ele>476.0</ele><time>2026-04-04T14:50:22.606Z</time></trkpt><trkpt lat="45.1328248" lon="7.073618"><ele>476.0</ele><time>2026-04-04T14:50:23.605Z</time></trkpt><trkpt lat="45.132823" lon="7.0733803"><ele>476.0</ele><time>2026-04-04T14:50:24.605Z</time></trkpt><trkpt lat="45.1328223" lon="7.0731679"><ele>476.0</ele><time>2026-04-04T14:50:25.605Z</time></trkpt><trkpt lat="45.1328231" lon="7.072941"><ele>476.0</ele><time>2026-04-04T14:50:26.605Z</time></trkpt><trkpt lat="45.132823" lon="7.072733"><ele>476.0</ele><time>2026-04-04T14:50:27.605Z</time></trkpt><trkpt lat="45.1328223" lon="7.0725268"><ele>476.3333333333333</ele><time>2026-04-04T14:50:28.605Z</time></trkpt><trkpt lat="45.1328207" lon="7.0723186"><ele>476.66666666666663</ele><time>2026-04-04T14:50:29.605Z</time></trkpt><trkpt lat="45.132819" lon="7.0721029"><ele>477.0</ele><time>2026-04-04T14:50:30.605Z</time></trkpt><trkpt lat="45.1328165" lon="7.0718851"><ele>477.0</ele><time>2026-04-04T14:50:31.606Z</time></trkpt><trkpt lat="45.1328143" lon="7.0716654"><ele>477.0</ele><time>2026-04-04T14:50:32.606Z</time></trkpt><trkpt lat="45.1328128" lon="7.0714463"><ele>477.0</ele><time>2026-04-04T14:50:33.605Z</time></trkpt><trkpt lat="45.1328118" lon="7.0712292"><ele>477.33333333333337</ele><time>2026-04-04T14:50:34.605Z</time></trkpt><trkpt lat="45.1328114" lon="7.0710101"><ele>477.6666666666667</ele><time>2026-04-04T14:50:35.606Z</time></trkpt><trkpt lat="45.1328114" lon="7.0707907"><ele>478.0</ele><time>2026-04-04T14:50:36.606Z</time></trkpt><trkpt lat="45.1328113" lon="7.0705713"><ele>478.0</ele><time>2026-04-04T14:50:37.605Z</time></trkpt><trkpt lat="45.13281" lon="7.0703459"><ele>478.0</ele><time>2026-04-04T14:50:38.605Z</time></trkpt><trkpt lat="45.1328096" lon="7.070114"><ele>478.0</ele><time>2026-04-04T14:50:39.605Z</time></trkpt><trkpt lat="45.1328093" lon="7.069882"><ele>478.33333333333337</ele><time>2026-04-04T14:50:40.605Z</time></trkpt><trkpt lat="45.132809" lon="7.0696431"><ele>478.66666666666663</ele><time>2026-04-04T14:50:41.606Z</time></trkpt><trkpt lat="45.1328103" lon="7.0694034"><ele>479.0</ele><time>2026-04-04T14:50:42.606Z</time></trkpt><trkpt lat="45.1328115" lon="7.0691596"><ele>479.3333333333333</ele><time>2026-04-04T14:50:43.605Z</time></trkpt><trkpt lat="45.1328121" lon="7.0689128"><ele>479.66666666666663</ele><time>2026-04-04T14:50:44.605Z</time></trkpt><trkpt lat="45.1328124" lon="7.068666"><ele>480.0</ele><time>2026-04-04T14:50:45.606Z</time></trkpt><trkpt lat="45.1328127" lon="7.0684143"><ele>481.0</ele><time>2026-04-04T14:50:46.605Z</time></trkpt><trkpt lat="45.1328142" lon="7.0681602"><ele>482.0</ele><time>2026-04-04T14:50:47.605Z</time></trkpt><trkpt lat="45.1328158" lon="7.0679064"><ele>483.0</ele><time>2026-04-04T14:50:48.605Z</time></trkpt><trkpt lat="45.1328171" lon="7.0676404"><ele>484.0</ele><time>2026-04-04T14:50:49.605Z</time></trkpt><trkpt lat="45.1328163" lon="7.0674186"><ele>485.0</ele><time>2026-04-04T14:50:50.605Z</time></trkpt><trkpt lat="45.1328144" lon="7.0671865"><ele>486.0</ele><time>2026-04-04T14:50:51.605Z</time></trkpt><trkpt lat="45.1328128" lon="7.0669544"><ele>486.0</ele><time>2026-04-04T14:50:52.605Z</time></trkpt><trkpt lat="45.1328123" lon="7.0667234"><ele>486.0</ele><time>2026-04-04T14:50:53.606Z</time></trkpt><trkpt lat="45.1328125" lon="7.0664879"><ele>486.0</ele><time>2026-04-04T14:50:54.605Z</time></trkpt><trkpt lat="45.1328128" lon="7.0662501"><ele>486.33333333333337</ele><time>2026-04-04T14:50:55.605Z</time></trkpt><trkpt lat="45.1328135" lon="7.066012"><ele>486.6666666666667</ele><time>2026-04-04T14:50:56.605Z</time></trkpt><trkpt lat="45.1328165" lon="7.0657706"><ele>487.0</ele><time>2026-04-04T14:50:57.605Z</time></trkpt><trkpt lat="45.1328195" lon="7.0655264"><ele>486.33333333333337</ele><time>2026-04-04T14:50:58.606Z</time></trkpt><trkpt lat="45.1328199" lon="7.0652817"><ele>485.66666666666663</ele><time>2026-04-04T14:50:59.605Z</time></trkpt><trkpt lat="45.1328224" lon="7.0650294"><ele>485.0</ele><time>2026-04-04T14:51:00.604Z</time></trkpt><trkpt lat="45.132838" lon="7.0647783"><ele>485.0</ele><time>2026-04-04T14:51:01.605Z</time></trkpt><trkpt lat="45.132872" lon="7.064528"><ele>485.0</ele><time>2026-04-04T14:51:02.605Z</time></trkpt><trkpt lat="45.1329239" lon="7.0642858"><ele>485.0</ele><time>2026-04-04T14:51:03.606Z</time></trkpt><trkpt lat="45.1329874" lon="7.0640541"><ele>485.3333333333333</ele><time>2026-04-04T14:51:04.606Z</time></trkpt><trkpt lat="45.1330637" lon="7.0638082"><ele>485.66666666666663</ele><time>2026-04-04T14:51:05.605Z</time></trkpt><trkpt lat="45.1331361" lon="7.0635948"><ele>486.0</ele><time>2026-04-04T14:51:06.606Z</time></trkpt><trkpt lat="45.1332169" lon="7.0633697"><ele>485.33333333333337</ele><time>2026-04-04T14:51:07.606Z</time></trkpt><trkpt lat="45.1332988" lon="7.063144"><ele>484.6666666666667</ele><time>2026-04-04T14:51:08.604Z</time></trkpt><trkpt lat="45.1333812" lon="7.0629167"><ele>484.0</ele><time>2026-04-04T14:51:09.605Z</time></trkpt><trkpt lat="45.1334627" lon="7.0626895"><ele>484.0</ele><time>2026-04-04T14:51:10.605Z</time></trkpt><trkpt lat="45.1335454" lon="7.0624571"><ele>484.0</ele><time>2026-04-04T14:51:11.606Z</time></trkpt><trkpt lat="45.1336275" lon="7.062224"><ele>484.0</ele><time>2026-04-04T14:51:12.606Z</time></trkpt><trkpt lat="45.1337107" lon="7.0619865"><ele>484.0</ele><time>2026-04-04T14:51:13.605Z</time></trkpt><trkpt lat="45.133793" lon="7.0617494"><ele>484.0</ele><time>2026-04-04T14:51:14.605Z</time></trkpt><trkpt lat="45.1338712" lon="7.0615223"><ele>484.0</ele><time>2026-04-04T14:51:15.604Z</time></trkpt><trkpt lat="45.1339465" lon="7.0613075"><ele>483.6666666666667</ele><time>2026-04-04T14:51:16.606Z</time></trkpt><trkpt lat="45.1340188" lon="7.0611056"><ele>483.33333333333337</ele><time>2026-04-04T14:51:17.605Z</time></trkpt><trkpt lat="45.1340878" lon="7.0609171"><ele>483.0</ele><time>2026-04-04T14:51:18.605Z</time></trkpt><trkpt lat="45.134154" lon="7.060739"><ele>484.0</ele><time>2026-04-04T14:51:19.606Z</time></trkpt><trkpt lat="45.1342164" lon="7.0605718"><ele>485.0</ele><time>2026-04-04T14:51:20.606Z</time></trkpt><trkpt lat="45.1342798" lon="7.0604015"><ele>486.0</ele><time>2026-04-04T14:51:21.604Z</time></trkpt><trkpt lat="45.1343295" lon="7.060273"><ele>487.0</ele><time>2026-04-04T14:51:22.605Z</time></trkpt><trkpt lat="45.1343803" lon="7.0601579"><ele>487.0</ele><time>2026-04-04T14:51:23.605Z</time></trkpt><trkpt lat="45.1344361" lon="7.0600623"><ele>487.00000000000006</ele><time>2026-04-04T14:51:24.606Z</time></trkpt><trkpt lat="45.1344971" lon="7.0599909"><ele>487.00000000000006</ele><time>2026-04-04T14:51:25.606Z</time></trkpt><trkpt lat="45.1345617" lon="7.0599387"><ele>487.0</ele><time>2026-04-04T14:51:26.606Z</time></trkpt><trkpt lat="45.1346209" lon="7.0598765"><ele>487.0</ele><time>2026-04-04T14:51:27.605Z</time></trkpt><trkpt lat="45.1346484" lon="7.0596803"><ele>487.25</ele><time>2026-04-04T14:51:29.605Z</time></trkpt><trkpt lat="45.1346536" lon="7.0595374"><ele>487.5</ele><time>2026-04-04T14:51:30.605Z</time></trkpt><trkpt lat="45.1346775" lon="7.059377"><ele>487.75</ele><time>2026-04-04T14:51:31.604Z</time></trkpt><trkpt lat="45.1347237" lon="7.0592192"><ele>488.0</ele><time>2026-04-04T14:51:32.605Z</time></trkpt><trkpt lat="45.134778" lon="7.0590544"><ele>488.0</ele><time>2026-04-04T14:51:33.605Z</time></trkpt><trkpt lat="45.1348305" lon="7.0588578"><ele>488.0</ele><time>2026-04-04T14:51:34.605Z</time></trkpt><trkpt lat="45.1348941" lon="7.0586724"><ele>488.0</ele><time>2026-04-04T14:51:35.604Z</time></trkpt><trkpt lat="45.1349594" lon="7.0584797"><ele>488.0</ele><time>2026-04-04T14:51:36.605Z</time></trkpt><trkpt lat="45.1350333" lon="7.0582719"><ele>488.3333333333333</ele><time>2026-04-04T14:51:37.606Z</time></trkpt><trkpt lat="45.1351059" lon="7.0580874"><ele>488.66666666666663</ele><time>2026-04-04T14:51:38.605Z</time></trkpt><trkpt lat="45.1351849" lon="7.0578998"><ele>489.0</ele><time>2026-04-04T14:51:39.605Z</time></trkpt><trkpt lat="45.1352664" lon="7.0577102"><ele>489.0</ele><time>2026-04-04T14:51:40.604Z</time></trkpt><trkpt lat="45.1353463" lon="7.0575186"><ele>489.0</ele><time>2026-04-04T14:51:41.604Z</time></trkpt><trkpt lat="45.1354257" lon="7.0573247"><ele>489.0</ele><time>2026-04-04T14:51:42.605Z</time></trkpt><trkpt lat="45.135504" lon="7.0571246"><ele>489.0</ele><time>2026-04-04T14:51:43.606Z</time></trkpt><trkpt lat="45.13558" lon="7.0569205"><ele>489.0</ele><time>2026-04-04T14:51:44.605Z</time></trkpt><trkpt lat="45.1356535" lon="7.0567151"><ele>489.0</ele><time>2026-04-04T14:51:45.606Z</time></trkpt><trkpt lat="45.1357246" lon="7.0565087"><ele>489.0</ele><time>2026-04-04T14:51:46.606Z</time></trkpt><trkpt lat="45.1357927" lon="7.0563047"><ele>489.0</ele><time>2026-04-04T14:51:47.606Z</time></trkpt><trkpt lat="45.1358583" lon="7.0561044"><ele>489.0</ele><time>2026-04-04T14:51:48.606Z</time></trkpt><trkpt lat="45.135921" lon="7.0559008"><ele>492.0</ele><time>2026-04-04T14:51:49.605Z</time></trkpt><trkpt lat="45.1359781" lon="7.0556952"><ele>495.0</ele><time>2026-04-04T14:51:50.605Z</time></trkpt><trkpt lat="45.1360246" lon="7.0554841"><ele>498.0</ele><time>2026-04-04T14:51:51.606Z</time></trkpt><trkpt lat="45.1360585" lon="7.0552689"><ele>498.0</ele><time>2026-04-04T14:51:52.606Z</time></trkpt><trkpt lat="45.1360808" lon="7.055039"><ele>498.0</ele><time>2026-04-04T14:51:53.606Z</time></trkpt><trkpt lat="45.1360881" lon="7.0548351"><ele>498.0</ele><time>2026-04-04T14:51:54.605Z</time></trkpt><trkpt lat="45.1360745" lon="7.0546259"><ele>497.75</ele><time>2026-04-04T14:51:55.605Z</time></trkpt><trkpt lat="45.1360379" lon="7.0544347"><ele>497.5</ele><time>2026-04-04T14:51:56.604Z</time></trkpt><trkpt lat="45.1359828" lon="7.0542516"><ele>497.25</ele><time>2026-04-04T14:51:57.605Z</time></trkpt><trkpt lat="45.1359203" lon="7.0540745"><ele>497.0</ele><time>2026-04-04T14:51:58.605Z</time></trkpt><trkpt lat="45.1358558" lon="7.0539017"><ele>497.0</ele><time>2026-04-04T14:51:59.606Z</time></trkpt><trkpt lat="45.1357931" lon="7.0537394"><ele>497.00000000000006</ele><time>2026-04-04T14:52:00.605Z</time></trkpt><trkpt lat="45.1357343" lon="7.0536002"><ele>497.00000000000006</ele><time>2026-04-04T14:52:01.605Z</time></trkpt><trkpt lat="45.1356821" lon="7.0534834"><ele>497.0</ele><time>2026-04-04T14:52:02.606Z</time></trkpt><trkpt lat="45.1356405" lon="7.0533956"><ele>497.0</ele><time>2026-04-04T14:52:03.606Z</time></trkpt><trkpt lat="45.1355739" lon="7.0532555"><ele>496.99999999999994</ele><time>2026-04-04T14:52:05.605Z</time></trkpt><trkpt lat="45.1355149" lon="7.0531179"><ele>497.0</ele><time>2026-04-04T14:52:07.604Z</time></trkpt><trkpt lat="45.1354806" lon="7.0530336"><ele>497.0</ele><time>2026-04-04T14:52:08.604Z</time></trkpt><trkpt lat="45.1354412" lon="7.0529341"><ele>497.0</ele><time>2026-04-04T14:52:09.604Z</time></trkpt><trkpt lat="45.1354027" lon="7.052835"><ele>496.99999999999994</ele><time>2026-04-04T14:52:10.605Z</time></trkpt><trkpt lat="45.1353589" lon="7.0527201"><ele>497.0</ele><time>2026-04-04T14:52:11.604Z</time></trkpt><trkpt lat="45.1353136" lon="7.0525994"><ele>497.0</ele><time>2026-04-04T14:52:12.604Z</time></trkpt><trkpt lat="45.1352684" lon="7.0524748"><ele>497.00000000000006</ele><time>2026-04-04T14:52:13.605Z</time></trkpt><trkpt lat="45.1352233" lon="7.0523515"><ele>497.00000000000006</ele><time>2026-04-04T14:52:14.604Z</time></trkpt><trkpt lat="45.135179" lon="7.0522325"><ele>497.0</ele><time>2026-04-04T14:52:15.605Z</time></trkpt><trkpt lat="45.1351364" lon="7.052113"><ele>497.0</ele><time>2026-04-04T14:52:16.606Z</time></trkpt><trkpt lat="45.1350977" lon="7.0520032"><ele>497.20000000000005</ele><time>2026-04-04T14:52:17.604Z</time></trkpt><trkpt lat="45.135056" lon="7.0518807"><ele>497.40000000000003</ele><time>2026-04-04T14:52:18.605Z</time></trkpt><trkpt lat="45.1350168" lon="7.0517627"><ele>497.59999999999997</ele><time>2026-04-04T14:52:19.604Z</time></trkpt><trkpt lat="45.1349769" lon="7.05164"><ele>497.79999999999995</ele><time>2026-04-04T14:52:20.606Z</time></trkpt><trkpt lat="45.1349329" lon="7.0515099"><ele>498.0</ele><time>2026-04-04T14:52:21.605Z</time></trkpt><trkpt lat="45.1348843" lon="7.0513688"><ele>499.0</ele><time>2026-04-04T14:52:22.605Z</time></trkpt><trkpt lat="45.1348326" lon="7.0512212"><ele>500.0</ele><time>2026-04-04T14:52:23.606Z</time></trkpt><trkpt lat="45.1347733" lon="7.051053"><ele>501.0</ele><time>2026-04-04T14:52:24.604Z</time></trkpt><trkpt lat="45.1347108" lon="7.0508682"><ele>502.0</ele><time>2026-04-04T14:52:25.605Z</time></trkpt><trkpt lat="45.1346464" lon="7.0506737"><ele>502.5</ele><time>2026-04-04T14:52:26.605Z</time></trkpt><trkpt lat="45.134581" lon="7.0504771"><ele>503.0</ele><time>2026-04-04T14:52:27.604Z</time></trkpt><trkpt lat="45.1345182" lon="7.0502902"><ele>503.5</ele><time>2026-04-04T14:52:28.606Z</time></trkpt><trkpt lat="45.1344552" lon="7.0501064"><ele>504.0</ele><time>2026-04-04T14:52:29.605Z</time></trkpt><trkpt lat="45.1343925" lon="7.0499224"><ele>504.75</ele><time>2026-04-04T14:52:30.605Z</time></trkpt><trkpt lat="45.1343305" lon="7.0497399"><ele>505.5</ele><time>2026-04-04T14:52:31.605Z</time></trkpt><trkpt lat="45.1342671" lon="7.0495557"><ele>506.25</ele><time>2026-04-04T14:52:32.605Z</time></trkpt><trkpt lat="45.1342057" lon="7.0493794"><ele>507.0</ele><time>2026-04-04T14:52:33.605Z</time></trkpt><trkpt lat="45.1341356" lon="7.0491768"><ele>508.0</ele><time>2026-04-04T14:52:34.605Z</time></trkpt><trkpt lat="45.1340683" lon="7.0489801"><ele>509.0</ele><time>2026-04-04T14:52:35.605Z</time></trkpt><trkpt lat="45.134" lon="7.0487797"><ele>510.0</ele><time>2026-04-04T14:52:36.606Z</time></trkpt><trkpt lat="45.1339326" lon="7.0485856"><ele>511.25</ele><time>2026-04-04T14:52:37.606Z</time></trkpt><trkpt lat="45.1338687" lon="7.0484074"><ele>512.5</ele><time>2026-04-04T14:52:38.605Z</time></trkpt><trkpt lat="45.1338068" lon="7.0482492"><ele>513.75</ele><time>2026-04-04T14:52:39.605Z</time></trkpt><trkpt lat="45.1337447" lon="7.0481076"><ele>515.0</ele><time>2026-04-04T14:52:40.606Z</time></trkpt><trkpt lat="45.1336865" lon="7.0479816"><ele>515.0</ele><time>2026-04-04T14:52:41.605Z</time></trkpt><trkpt lat="45.1336329" lon="7.0478673"><ele>515.0</ele><time>2026-04-04T14:52:42.604Z</time></trkpt><trkpt lat="45.1335827" lon="7.0477611"><ele>515.0</ele><time>2026-04-04T14:52:43.605Z</time></trkpt><trkpt lat="45.1335391" lon="7.047675"><ele>515.0</ele><time>2026-04-04T14:52:44.606Z</time></trkpt><trkpt lat="45.1334794" lon="7.0475606"><ele>515.0</ele><time>2026-04-04T14:52:46.605Z</time></trkpt><trkpt lat="45.1334364" lon="7.0474822"><ele>515.0</ele><time>2026-04-04T14:53:10.605Z</time></trkpt><trkpt lat="45.1333855" lon="7.0473852"><ele>514.8333333333333</ele><time>2026-04-04T14:53:13.604Z</time></trkpt><trkpt lat="45.1333267" lon="7.0472679"><ele>514.6666666666666</ele><time>2026-04-04T14:53:15.604Z</time></trkpt><trkpt lat="45.1332893" lon="7.0471892"><ele>514.5</ele><time>2026-04-04T14:53:16.603Z</time></trkpt><trkpt lat="45.1332495" lon="7.0471019"><ele>514.3333333333334</ele><time>2026-04-04T14:53:17.604Z</time></trkpt><trkpt lat="45.1332017" lon="7.0470034"><ele>514.1666666666667</ele><time>2026-04-04T14:53:18.604Z</time></trkpt><trkpt lat="45.1331434" lon="7.046896"><ele>514.0</ele><time>2026-04-04T14:53:19.604Z</time></trkpt><trkpt lat="45.1330733" lon="7.0467819"><ele>515.75</ele><time>2026-04-04T14:53:20.604Z</time></trkpt><trkpt lat="45.132997" lon="7.0466722"><ele>517.5</ele><time>2026-04-04T14:53:21.603Z</time></trkpt><trkpt lat="45.132906" lon="7.0465526"><ele>519.25</ele><time>2026-04-04T14:53:22.604Z</time></trkpt><trkpt lat="45.1328159" lon="7.0464412"><ele>521.0</ele><time>2026-04-04T14:53:23.604Z</time></trkpt><trkpt lat="45.132724" lon="7.0463303"><ele>521.5</ele><time>2026-04-04T14:53:24.604Z</time></trkpt><trkpt lat="45.1326312" lon="7.0462207"><ele>522.0</ele><time>2026-04-04T14:53:25.604Z</time></trkpt><trkpt lat="45.1325369" lon="7.0461099"><ele>522.5</ele><time>2026-04-04T14:53:26.603Z</time></trkpt><trkpt lat="45.1324414" lon="7.0460009"><ele>523.0</ele><time>2026-04-04T14:53:27.604Z</time></trkpt><trkpt lat="45.1323437" lon="7.0458915"><ele>524.5</ele><time>2026-04-04T14:53:28.603Z</time></trkpt><trkpt lat="45.1322439" lon="7.0457808"><ele>526.0</ele><time>2026-04-04T14:53:29.604Z</time></trkpt><trkpt lat="45.1321457" lon="7.0456689"><ele>527.5</ele><time>2026-04-04T14:53:30.604Z</time></trkpt><trkpt lat="45.1320481" lon="7.0455528"><ele>529.0</ele><time>2026-04-04T14:53:31.605Z</time></trkpt><trkpt lat="45.1319571" lon="7.0454348"><ele>529.0</ele><time>2026-04-04T14:53:32.605Z</time></trkpt><trkpt lat="45.1318747" lon="7.0453153"><ele>529.0</ele><time>2026-04-04T14:53:33.605Z</time></trkpt><trkpt lat="45.1317969" lon="7.0451963"><ele>529.0</ele><time>2026-04-04T14:53:34.605Z</time></trkpt><trkpt lat="45.1317185" lon="7.0450948"><ele>529.0</ele><time>2026-04-04T14:53:35.605Z</time></trkpt><trkpt lat="45.1316309" lon="7.045035"><ele>529.0</ele><time>2026-04-04T14:53:36.603Z</time></trkpt><trkpt lat="45.1315449" lon="7.0450183"><ele>530.6</ele><time>2026-04-04T14:53:37.604Z</time></trkpt><trkpt lat="45.1314464" lon="7.0450337"><ele>532.2</ele><time>2026-04-04T14:53:38.603Z</time></trkpt><trkpt lat="45.1313478" lon="7.0450618"><ele>533.8000000000001</ele><time>2026-04-04T14:53:39.603Z</time></trkpt><trkpt lat="45.131241" lon="7.0450976"><ele>535.4</ele><time>2026-04-04T14:53:40.605Z</time></trkpt><trkpt lat="45.1311347" lon="7.0451476"><ele>537.0</ele><time>2026-04-04T14:53:41.604Z</time></trkpt><trkpt lat="45.1310359" lon="7.0452242"><ele>537.0</ele><time>2026-04-04T14:53:42.604Z</time></trkpt><trkpt lat="45.1309541" lon="7.0453297"><ele>537.0</ele><time>2026-04-04T14:53:43.605Z</time></trkpt><trkpt lat="45.130893" lon="7.0454624"><ele>537.0</ele><time>2026-04-04T14:53:44.605Z</time></trkpt><trkpt lat="45.1308569" lon="7.0456129"><ele>537.0</ele><time>2026-04-04T14:53:45.604Z</time></trkpt><trkpt lat="45.1308362" lon="7.0457754"><ele>537.75</ele><time>2026-04-04T14:53:46.604Z</time></trkpt><trkpt lat="45.1308158" lon="7.0459499"><ele>538.5</ele><time>2026-04-04T14:53:47.604Z</time></trkpt><trkpt lat="45.1307894" lon="7.0461233"><ele>539.25</ele><time>2026-04-04T14:53:48.604Z</time></trkpt><trkpt lat="45.1307565" lon="7.0462755"><ele>540.0</ele><time>2026-04-04T14:53:49.605Z</time></trkpt><trkpt lat="45.130713" lon="7.0463975"><ele>541.5</ele><time>2026-04-04T14:53:50.604Z</time></trkpt><trkpt lat="45.130655" lon="7.0464777"><ele>543.0</ele><time>2026-04-04T14:53:51.604Z</time></trkpt><trkpt lat="45.1305847" lon="7.0465076"><ele>544.5</ele><time>2026-04-04T14:53:52.605Z</time></trkpt><trkpt lat="45.1305164" lon="7.0465014"><ele>546.0</ele><time>2026-04-04T14:53:53.603Z</time></trkpt><trkpt lat="45.1304271" lon="7.0464842"><ele>547.5</ele><time>2026-04-04T14:53:54.604Z</time></trkpt><trkpt lat="45.1303323" lon="7.0464744"><ele>549.0</ele><time>2026-04-04T14:53:55.603Z</time></trkpt><trkpt lat="45.1302289" lon="7.0464738"><ele>549.0</ele><time>2026-04-04T14:53:56.605Z</time></trkpt><trkpt lat="45.1301193" lon="7.0464839"><ele>549.0</ele><time>2026-04-04T14:53:57.604Z</time></trkpt><trkpt lat="45.1300029" lon="7.0465017"><ele>549.0</ele><time>2026-04-04T14:53:58.604Z</time></trkpt><trkpt lat="45.1298871" lon="7.0465196"><ele>549.0</ele><time>2026-04-04T14:53:59.605Z</time></trkpt><trkpt lat="45.1297819" lon="7.0465402"><ele>551.1666666666666</ele><time>2026-04-04T14:54:00.604Z</time></trkpt><trkpt lat="45.1296895" lon="7.04657"><ele>553.3333333333334</ele><time>2026-04-04T14:54:01.604Z</time></trkpt><trkpt lat="45.1296206" lon="7.0466307"><ele>555.5</ele><time>2026-04-04T14:54:02.604Z</time></trkpt><trkpt lat="45.1295867" lon="7.0467248"><ele>557.6666666666667</ele><time>2026-04-04T14:54:03.604Z</time></trkpt><trkpt lat="45.1295927" lon="7.0468428"><ele>559.8333333333334</ele><time>2026-04-04T14:54:04.604Z</time></trkpt><trkpt lat="45.1296352" lon="7.0469715"><ele>562.0</ele><time>2026-04-04T14:54:05.603Z</time></trkpt><trkpt lat="45.1297047" lon="7.0471127"><ele>562.5</ele><time>2026-04-04T14:54:06.604Z</time></trkpt><trkpt lat="45.1297845" lon="7.0472627"><ele>563.0</ele><time>2026-04-04T14:54:07.604Z</time></trkpt><trkpt lat="45.1298702" lon="7.0474284"><ele>563.5</ele><time>2026-04-04T14:54:08.604Z</time></trkpt><trkpt lat="45.129954" lon="7.0476013"><ele>564.0</ele><time>2026-04-04T14:54:09.605Z</time></trkpt><trkpt lat="45.1300533" lon="7.047805"><ele>564.0</ele><time>2026-04-04T14:54:10.605Z</time></trkpt><trkpt lat="45.1301584" lon="7.0479949"><ele>564.0</ele><time>2026-04-04T14:54:11.604Z</time></trkpt><trkpt lat="45.1302698" lon="7.0481602"><ele>564.0</ele><time>2026-04-04T14:54:12.604Z</time></trkpt><trkpt lat="45.1303814" lon="7.0483003"><ele>566.6</ele><time>2026-04-04T14:54:13.604Z</time></trkpt><trkpt lat="45.1304851" lon="7.0484144"><ele>569.2</ele><time>2026-04-04T14:54:14.604Z</time></trkpt><trkpt lat="45.1305578" lon="7.0485042"><ele>571.8000000000001</ele><time>2026-04-04T14:54:15.604Z</time></trkpt><trkpt lat="45.1305913" lon="7.0485805"><ele>574.4</ele><time>2026-04-04T14:54:16.603Z</time></trkpt><trkpt lat="45.1305501" lon="7.0486776"><ele>577.0</ele><time>2026-04-04T14:54:18.604Z</time></trkpt><trkpt lat="45.1304361" lon="7.048617"><ele>577.0</ele><time>2026-04-04T14:54:20.603Z</time></trkpt><trkpt lat="45.1303619" lon="7.0485484"><ele>577.0</ele><time>2026-04-04T14:54:21.605Z</time></trkpt><trkpt lat="45.1302808" lon="7.0484733"><ele>577.0</ele><time>2026-04-04T14:54:22.604Z</time></trkpt><trkpt lat="45.1301829" lon="7.0483868"><ele>577.0</ele><time>2026-04-04T14:54:23.604Z</time></trkpt><trkpt lat="45.1300942" lon="7.0483003"><ele>577.0</ele><time>2026-04-04T14:54:24.605Z</time></trkpt><trkpt lat="45.1300085" lon="7.0482051"><ele>573.75</ele><time>2026-04-04T14:54:25.604Z</time></trkpt><trkpt lat="45.1299135" lon="7.0480901"><ele>570.5</ele><time>2026-04-04T14:54:26.604Z</time></trkpt><trkpt lat="45.1298303" lon="7.0479703"><ele>567.25</ele><time>2026-04-04T14:54:27.604Z</time></trkpt><trkpt lat="45.1297596" lon="7.0478393"><ele>564.0</ele><time>2026-04-04T14:54:28.605Z</time></trkpt><trkpt lat="45.1296979" lon="7.0477048"><ele>566.75</ele><time>2026-04-04T14:54:29.604Z</time></trkpt><trkpt lat="45.1296283" lon="7.04758"><ele>569.5</ele><time>2026-04-04T14:54:30.604Z</time></trkpt><trkpt lat="45.1295448" lon="7.0474667"><ele>572.25</ele><time>2026-04-04T14:54:31.603Z</time></trkpt><trkpt lat="45.1294498" lon="7.0473582"><ele>575.0</ele><time>2026-04-04T14:54:32.604Z</time></trkpt><trkpt lat="45.1293548" lon="7.0472438"><ele>575.0</ele><time>2026-04-04T14:54:33.603Z</time></trkpt><trkpt lat="45.1292666" lon="7.0471199"><ele>575.0</ele><time>2026-04-04T14:54:34.603Z</time></trkpt><trkpt lat="45.1291856" lon="7.0469836"><ele>575.0</ele><time>2026-04-04T14:54:35.604Z</time></trkpt><trkpt lat="45.129108" lon="7.0468456"><ele>575.0</ele><time>2026-04-04T14:54:36.605Z</time></trkpt><trkpt lat="45.1290243" lon="7.0467216"><ele>575.2</ele><time>2026-04-04T14:54:37.604Z</time></trkpt><trkpt lat="45.1289326" lon="7.0466128"><ele>575.4</ele><time>2026-04-04T14:54:38.604Z</time></trkpt><trkpt lat="45.1288419" lon="7.0465256"><ele>575.6</ele><time>2026-04-04T14:54:39.604Z</time></trkpt><trkpt lat="45.128749" lon="7.0464791"><ele>575.8</ele><time>2026-04-04T14:54:40.604Z</time></trkpt><trkpt lat="45.1286598" lon="7.0464872"><ele>576.0</ele><time>2026-04-04T14:54:41.604Z</time></trkpt><trkpt lat="45.1285516" lon="7.0465378"><ele>576.0</ele><time>2026-04-04T14:54:42.605Z</time></trkpt><trkpt lat="45.1284391" lon="7.0465969"><ele>576.0</ele><time>2026-04-04T14:54:43.605Z</time></trkpt><trkpt lat="45.1283151" lon="7.0466435"><ele>576.0</ele><time>2026-04-04T14:54:44.604Z</time></trkpt><trkpt lat="45.128185" lon="7.0466798"><ele>576.0</ele><time>2026-04-04T14:54:45.604Z</time></trkpt><trkpt lat="45.1280553" lon="7.0467123"><ele>579.0</ele><time>2026-04-04T14:54:46.603Z</time></trkpt><trkpt lat="45.1279232" lon="7.0467423"><ele>582.0</ele><time>2026-04-04T14:54:47.605Z</time></trkpt><trkpt lat="45.1277883" lon="7.0467776"><ele>585.0</ele><time>2026-04-04T14:54:48.603Z</time></trkpt><trkpt lat="45.1276565" lon="7.0468226"><ele>588.0</ele><time>2026-04-04T14:54:49.605Z</time></trkpt><trkpt lat="45.1275271" lon="7.0468713"><ele>588.0</ele><time>2026-04-04T14:54:50.604Z</time></trkpt><trkpt lat="45.1273953" lon="7.0469155"><ele>588.0</ele><time>2026-04-04T14:54:51.604Z</time></trkpt><trkpt lat="45.1272626" lon="7.0469474"><ele>588.0</ele><time>2026-04-04T14:54:52.604Z</time></trkpt><trkpt lat="45.1271319" lon="7.0469652"><ele>588.0</ele><time>2026-04-04T14:54:53.605Z</time></trkpt><trkpt lat="45.1270049" lon="7.0469746"><ele>588.6</ele><time>2026-04-04T14:54:54.604Z</time></trkpt><trkpt lat="45.1268905" lon="7.0469936"><ele>589.1999999999999</ele><time>2026-04-04T14:54:55.605Z</time></trkpt><trkpt lat="45.1267858" lon="7.0470336"><ele>589.8</ele><time>2026-04-04T14:54:56.605Z</time></trkpt><trkpt lat="45.1266978" lon="7.0470871"><ele>590.4</ele><time>2026-04-04T14:54:57.604Z</time></trkpt><trkpt lat="45.1266038" lon="7.0471585"><ele>591.0</ele><time>2026-04-04T14:54:58.604Z</time></trkpt><trkpt lat="45.1265072" lon="7.0472255"><ele>592.75</ele><time>2026-04-04T14:54:59.605Z</time></trkpt><trkpt lat="45.1263979" lon="7.0472755"><ele>594.5</ele><time>2026-04-04T14:55:00.604Z</time></trkpt><trkpt lat="45.1262794" lon="7.047285"><ele>596.25</ele><time>2026-04-04T14:55:01.604Z</time></trkpt><trkpt lat="45.1261598" lon="7.047239"><ele>598.0</ele><time>2026-04-04T14:55:02.604Z</time></trkpt><trkpt lat="45.1260478" lon="7.0471596"><ele>598.0</ele><time>2026-04-04T14:55:03.603Z</time></trkpt><trkpt lat="45.1259355" lon="7.0470685"><ele>598.0</ele><time>2026-04-04T14:55:04.603Z</time></trkpt><trkpt lat="45.1258209" lon="7.04698"><ele>598.0</ele><time>2026-04-04T14:55:05.603Z</time></trkpt><trkpt lat="45.1257005" lon="7.0469015"><ele>598.0</ele><time>2026-04-04T14:55:06.603Z</time></trkpt><trkpt lat="45.1255771" lon="7.0468282"><ele>601.25</ele><time>2026-04-04T14:55:07.604Z</time></trkpt><trkpt lat="45.1254586" lon="7.0467586"><ele>604.5</ele><time>2026-04-04T14:55:08.604Z</time></trkpt><trkpt lat="45.1253508" lon="7.0466906"><ele>607.75</ele><time>2026-04-04T14:55:09.604Z</time></trkpt><trkpt lat="45.1252599" lon="7.0466084"><ele>611.0</ele><time>2026-04-04T14:55:10.604Z</time></trkpt><trkpt lat="45.1251973" lon="7.0465038"><ele>611.0</ele><time>2026-04-04T14:55:11.604Z</time></trkpt><trkpt lat="45.1251774" lon="7.0463747"><ele>611.0</ele><time>2026-04-04T14:55:12.604Z</time></trkpt><trkpt lat="45.1251745" lon="7.0462383"><ele>611.0</ele><time>2026-04-04T14:55:13.605Z</time></trkpt><trkpt lat="45.1251656" lon="7.0460788"><ele>611.0</ele><time>2026-04-04T14:55:14.604Z</time></trkpt><trkpt lat="45.1251307" lon="7.0459364"><ele>611.0</ele><time>2026-04-04T14:55:15.605Z</time></trkpt><trkpt lat="45.1250667" lon="7.0458263"><ele>613.0</ele><time>2026-04-04T14:55:16.604Z</time></trkpt><trkpt lat="45.124978" lon="7.0457402"><ele>615.0</ele><time>2026-04-04T14:55:17.605Z</time></trkpt><trkpt lat="45.1248743" lon="7.0456721"><ele>617.0</ele><time>2026-04-04T14:55:18.604Z</time></trkpt><trkpt lat="45.1247614" lon="7.0455954"><ele>619.0</ele><time>2026-04-04T14:55:19.605Z</time></trkpt><trkpt lat="45.1246562" lon="7.0455044"><ele>621.25</ele><time>2026-04-04T14:55:20.604Z</time></trkpt><trkpt lat="45.124558" lon="7.045394"><ele>623.5</ele><time>2026-04-04T14:55:21.605Z</time></trkpt><trkpt lat="45.1244707" lon="7.045267"><ele>625.75</ele><time>2026-04-04T14:55:22.604Z</time></trkpt><trkpt lat="45.1243967" lon="7.0451201"><ele>628.0</ele><time>2026-04-04T14:55:23.604Z</time></trkpt><trkpt lat="45.1243309" lon="7.0449678"><ele>630.4</ele><time>2026-04-04T14:55:24.604Z</time></trkpt><trkpt lat="45.1242644" lon="7.0448343"><ele>632.8</ele><time>2026-04-04T14:55:25.605Z</time></trkpt><trkpt lat="45.1241839" lon="7.0447481"><ele>635.2</ele><time>2026-04-04T14:55:26.604Z</time></trkpt><trkpt lat="45.1240924" lon="7.0447239"><ele>637.6</ele><time>2026-04-04T14:55:27.604Z</time></trkpt><trkpt lat="45.1240056" lon="7.0447715"><ele>640.0</ele><time>2026-04-04T14:55:28.605Z</time></trkpt><trkpt lat="45.1239397" lon="7.0448673"><ele>644.0</ele><time>2026-04-04T14:55:29.603Z</time></trkpt><trkpt lat="45.1238841" lon="7.0450157"><ele>648.0</ele><time>2026-04-04T14:55:30.605Z</time></trkpt><trkpt lat="45.1238345" lon="7.0451749"><ele>652.0</ele><time>2026-04-04T14:55:31.603Z</time></trkpt><trkpt lat="45.1237757" lon="7.0453249"><ele>656.0</ele><time>2026-04-04T14:55:32.605Z</time></trkpt><trkpt lat="45.1237179" lon="7.0454597"><ele>656.0</ele><time>2026-04-04T14:55:33.603Z</time></trkpt><trkpt lat="45.12367" lon="7.0455752"><ele>656.0</ele><time>2026-04-04T14:55:34.604Z</time></trkpt><trkpt lat="45.1236256" lon="7.0456548"><ele>656.0</ele><time>2026-04-04T14:55:35.604Z</time></trkpt><trkpt lat="45.1235368" lon="7.04567"><ele>656.0</ele><time>2026-04-04T14:55:37.604Z</time></trkpt><trkpt lat="45.1235279" lon="7.0455332"><ele>656.0</ele><time>2026-04-04T14:55:39.604Z</time></trkpt><trkpt lat="45.1235543" lon="7.0454428"><ele>656.0</ele><time>2026-04-04T14:55:40.603Z</time></trkpt><trkpt lat="45.1235886" lon="7.045329"><ele>656.0</ele><time>2026-04-04T14:55:41.604Z</time></trkpt><trkpt lat="45.1236183" lon="7.045208"><ele>656.0</ele><time>2026-04-04T14:55:42.603Z</time></trkpt><trkpt lat="45.1236367" lon="7.0450864"><ele>656.0</ele><time>2026-04-04T14:55:43.603Z</time></trkpt><trkpt lat="45.1236294" lon="7.0449504"><ele>656.0</ele><time>2026-04-04T14:55:44.602Z</time></trkpt><trkpt lat="45.1236056" lon="7.044815"><ele>656.0</ele><time>2026-04-04T14:55:45.604Z</time></trkpt><trkpt lat="45.1235716" lon="7.0446524"><ele>656.0</ele><time>2026-04-04T14:55:46.602Z</time></trkpt><trkpt lat="45.1235368" lon="7.0444917"><ele>656.0</ele><time>2026-04-04T14:55:47.603Z</time></trkpt><trkpt lat="45.1234975" lon="7.044327"><ele>656.0</ele><time>2026-04-04T14:55:48.602Z</time></trkpt><trkpt lat="45.1234458" lon="7.0441681"><ele>656.0</ele><time>2026-04-04T14:55:49.603Z</time></trkpt><trkpt lat="45.1233727" lon="7.0440196"><ele>656.75</ele><time>2026-04-04T14:55:50.604Z</time></trkpt><trkpt lat="45.1232873" lon="7.0438852"><ele>657.5</ele><time>2026-04-04T14:55:51.603Z</time></trkpt><trkpt lat="45.1231958" lon="7.043754"><ele>658.25</ele><time>2026-04-04T14:55:52.604Z</time></trkpt><trkpt lat="45.1231048" lon="7.0436246"><ele>659.0</ele><time>2026-04-04T14:55:53.603Z</time></trkpt><trkpt lat="45.1230168" lon="7.0434987"><ele>661.25</ele><time>2026-04-04T14:55:54.603Z</time></trkpt><trkpt lat="45.1229349" lon="7.0433678"><ele>663.5</ele><time>2026-04-04T14:55:55.603Z</time></trkpt><trkpt lat="45.1228707" lon="7.0432263"><ele>665.75</ele><time>2026-04-04T14:55:56.603Z</time></trkpt><trkpt lat="45.1228188" lon="7.0430839"><ele>668.0</ele><time>2026-04-04T14:55:57.603Z</time></trkpt><trkpt lat="45.1227611" lon="7.0429573"><ele>669.2</ele><time>2026-04-04T14:55:58.603Z</time></trkpt><trkpt lat="45.1226868" lon="7.0428672"><ele>670.4</ele><time>2026-04-04T14:55:59.603Z</time></trkpt><trkpt lat="45.1226029" lon="7.0428342"><ele>671.6</ele><time>2026-04-04T14:56:00.602Z</time></trkpt><trkpt lat="45.1225276" lon="7.0428661"><ele>672.8000000000001</ele><time>2026-04-04T14:56:01.603Z</time></trkpt><trkpt lat="45.1224567" lon="7.0429623"><ele>674.0</ele><time>2026-04-04T14:56:02.603Z</time></trkpt><trkpt lat="45.1224039" lon="7.0430907"><ele>678.75</ele><time>2026-04-04T14:56:03.603Z</time></trkpt><trkpt lat="45.1223658" lon="7.0432474"><ele>683.5</ele><time>2026-04-04T14:56:04.603Z</time></trkpt><trkpt lat="45.1223519" lon="7.0434165"><ele>688.25</ele><time>2026-04-04T14:56:05.603Z</time></trkpt><trkpt lat="45.1223594" lon="7.0435783"><ele>693.0</ele><time>2026-04-04T14:56:06.604Z</time></trkpt><trkpt lat="45.1223606" lon="7.043718"><ele>693.0</ele><time>2026-04-04T14:56:07.603Z</time></trkpt><trkpt lat="45.1223357" lon="7.0438173"><ele>693.0</ele><time>2026-04-04T14:56:08.604Z</time></trkpt><trkpt lat="45.1222366" lon="7.0438363"><ele>693.0</ele><time>2026-04-04T14:56:10.603Z</time></trkpt><trkpt lat="45.1221927" lon="7.0437649"><ele>693.0</ele><time>2026-04-04T14:56:11.604Z</time></trkpt><trkpt lat="45.1221354" lon="7.0436659"><ele>693.0</ele><time>2026-04-04T14:56:12.603Z</time></trkpt><trkpt lat="45.1220636" lon="7.0435385"><ele>693.0</ele><time>2026-04-04T14:56:13.604Z</time></trkpt><trkpt lat="45.1219947" lon="7.0434081"><ele>694.25</ele><time>2026-04-04T14:56:14.603Z</time></trkpt><trkpt lat="45.1219371" lon="7.0432552"><ele>695.5</ele><time>2026-04-04T14:56:15.603Z</time></trkpt><trkpt lat="45.1219014" lon="7.0430911"><ele>696.75</ele><time>2026-04-04T14:56:16.604Z</time></trkpt><trkpt lat="45.1218895" lon="7.0429213"><ele>698.0</ele><time>2026-04-04T14:56:17.604Z</time></trkpt><trkpt lat="45.1218973" lon="7.0427157"><ele>698.0</ele><time>2026-04-04T14:56:18.603Z</time></trkpt><trkpt lat="45.1219181" lon="7.0425129"><ele>698.0</ele><time>2026-04-04T14:56:19.603Z</time></trkpt><trkpt lat="45.1219381" lon="7.042323"><ele>698.0</ele><time>2026-04-04T14:56:20.603Z</time></trkpt><trkpt lat="45.1219506" lon="7.0421504"><ele>698.0</ele><time>2026-04-04T14:56:21.604Z</time></trkpt><trkpt lat="45.1219379" lon="7.0419928"><ele>698.2</ele><time>2026-04-04T14:56:22.603Z</time></trkpt><trkpt lat="45.1218922" lon="7.0418553"><ele>698.4</ele><time>2026-04-04T14:56:23.604Z</time></trkpt><trkpt lat="45.1218238" lon="7.041729"><ele>698.6</ele><time>2026-04-04T14:56:24.603Z</time></trkpt><trkpt lat="45.1217507" lon="7.0416079"><ele>698.8000000000001</ele><time>2026-04-04T14:56:25.603Z</time></trkpt><trkpt lat="45.1216849" lon="7.0414996"><ele>699.0</ele><time>2026-04-04T14:56:26.604Z</time></trkpt><trkpt lat="45.121629" lon="7.0414067"><ele>699.0</ele><time>2026-04-04T14:56:27.603Z</time></trkpt><trkpt lat="45.1215761" lon="7.0413365"><ele>699.0</ele><time>2026-04-04T14:56:28.603Z</time></trkpt><trkpt lat="45.1214911" lon="7.041276"><ele>699.0</ele><time>2026-04-04T14:56:30.603Z</time></trkpt><trkpt lat="45.1214484" lon="7.0413528"><ele>699.0</ele><time>2026-04-04T14:56:33.603Z</time></trkpt><trkpt lat="45.1214804" lon="7.0414592"><ele>699.0</ele><time>2026-04-04T14:57:48.604Z</time></trkpt><trkpt lat="45.1215432" lon="7.0416136"><ele>699.0</ele><time>2026-04-04T14:57:50.603Z</time></trkpt><trkpt lat="45.1215866" lon="7.0417064"><ele>697.6</ele><time>2026-04-04T14:57:51.604Z</time></trkpt><trkpt lat="45.1216325" lon="7.0418092"><ele>696.2</ele><time>2026-04-04T14:57:52.603Z</time></trkpt><trkpt lat="45.1216628" lon="7.0419208"><ele>694.8000000000001</ele><time>2026-04-04T14:57:53.603Z</time></trkpt><trkpt lat="45.1216684" lon="7.0420449"><ele>693.4000000000001</ele><time>2026-04-04T14:57:54.602Z</time></trkpt><trkpt lat="45.1216464" lon="7.0421762"><ele>692.0</ele><time>2026-04-04T14:57:55.604Z</time></trkpt><trkpt lat="45.1216076" lon="7.0423089"><ele>699.0</ele><time>2026-04-04T14:57:56.604Z</time></trkpt><trkpt lat="45.1215615" lon="7.0424502"><ele>706.0</ele><time>2026-04-04T14:57:57.604Z</time></trkpt><trkpt lat="45.1215131" lon="7.0425977"><ele>713.0</ele><time>2026-04-04T14:57:58.603Z</time></trkpt><trkpt lat="45.121463" lon="7.0427558"><ele>720.0</ele><time>2026-04-04T14:57:59.604Z</time></trkpt><trkpt lat="45.1214107" lon="7.042918"><ele>722.5</ele><time>2026-04-04T14:58:00.604Z</time></trkpt><trkpt lat="45.121356" lon="7.0430761"><ele>725.0</ele><time>2026-04-04T14:58:01.602Z</time></trkpt><trkpt lat="45.1212945" lon="7.0432346"><ele>727.5</ele><time>2026-04-04T14:58:02.604Z</time></trkpt><trkpt lat="45.1212263" lon="7.0433905"><ele>730.0</ele><time>2026-04-04T14:58:03.604Z</time></trkpt><trkpt lat="45.1211471" lon="7.0435436"><ele>730.0</ele><time>2026-04-04T14:58:04.604Z</time></trkpt><trkpt lat="45.121054" lon="7.0436865"><ele>730.0</ele><time>2026-04-04T14:58:05.603Z</time></trkpt><trkpt lat="45.1209499" lon="7.0438086"><ele>730.0</ele><time>2026-04-04T14:58:06.603Z</time></trkpt><trkpt lat="45.1208346" lon="7.0439013"><ele>730.0</ele><time>2026-04-04T14:58:07.603Z</time></trkpt><trkpt lat="45.1207116" lon="7.043951"><ele>734.0</ele><time>2026-04-04T14:58:08.603Z</time></trkpt><trkpt lat="45.1205935" lon="7.0439604"><ele>738.0</ele><time>2026-04-04T14:58:09.603Z</time></trkpt><trkpt lat="45.1204651" lon="7.0439561"><ele>742.0</ele><time>2026-04-04T14:58:10.603Z</time></trkpt><trkpt lat="45.1203545" lon="7.0439658"><ele>746.0</ele><time>2026-04-04T14:58:11.604Z</time></trkpt><trkpt lat="45.120256" lon="7.0440106"><ele>746.0</ele><time>2026-04-04T14:58:12.603Z</time></trkpt><trkpt lat="45.1201791" lon="7.0440926"><ele>746.0</ele><time>2026-04-04T14:58:13.603Z</time></trkpt><trkpt lat="45.120132" lon="7.0442037"><ele>746.0</ele><time>2026-04-04T14:58:14.603Z</time></trkpt><trkpt lat="45.1200898" lon="7.0443041"><ele>746.0</ele><time>2026-04-04T14:58:15.602Z</time></trkpt><trkpt lat="45.1199895" lon="7.0443397"><ele>746.0</ele><time>2026-04-04T14:58:17.602Z</time></trkpt><trkpt lat="45.1199476" lon="7.0442653"><ele>746.0</ele><time>2026-04-04T14:58:18.603Z</time></trkpt><trkpt lat="45.1199161" lon="7.0441447"><ele>752.8</ele><time>2026-04-04T14:58:19.602Z</time></trkpt><trkpt lat="45.1198966" lon="7.0440101"><ele>759.5999999999999</ele><time>2026-04-04T14:58:20.602Z</time></trkpt><trkpt lat="45.1198718" lon="7.043879"><ele>766.4</ele><time>2026-04-04T14:58:21.603Z</time></trkpt><trkpt lat="45.119823" lon="7.0437883"><ele>773.2</ele><time>2026-04-04T14:58:22.602Z</time></trkpt><trkpt lat="45.1196967" lon="7.0437874"><ele>780.0</ele><time>2026-04-04T14:58:24.603Z</time></trkpt><trkpt lat="45.119626" lon="7.0438332"><ele>780.0</ele><time>2026-04-04T14:58:25.602Z</time></trkpt><trkpt lat="45.1195781" lon="7.0439415"><ele>780.0</ele><time>2026-04-04T14:58:26.603Z</time></trkpt><trkpt lat="45.1195731" lon="7.0440629"><ele>780.0</ele><time>2026-04-04T14:58:27.602Z</time></trkpt><trkpt lat="45.1196085" lon="7.0441905"><ele>780.0</ele><time>2026-04-04T14:58:28.603Z</time></trkpt><trkpt lat="45.1196716" lon="7.044321"><ele>780.0</ele><time>2026-04-04T14:58:29.602Z</time></trkpt><trkpt lat="45.1197472" lon="7.0444503"><ele>780.0</ele><time>2026-04-04T14:58:30.603Z</time></trkpt><trkpt lat="45.1198236" lon="7.0445823"><ele>780.0</ele><time>2026-04-04T14:58:31.603Z</time></trkpt><trkpt lat="45.1198968" lon="7.0447171"><ele>780.0</ele><time>2026-04-04T14:58:32.602Z</time></trkpt><trkpt lat="45.1199571" lon="7.0448717"><ele>780.0</ele><time>2026-04-04T14:58:33.603Z</time></trkpt><trkpt lat="45.1200063" lon="7.0450177"><ele>774.2</ele><time>2026-04-04T14:58:34.602Z</time></trkpt><trkpt lat="45.1200354" lon="7.0451849"><ele>768.4</ele><time>2026-04-04T14:58:35.602Z</time></trkpt><trkpt lat="45.1200834" lon="7.0453181"><ele>762.5999999999999</ele><time>2026-04-04T14:58:36.602Z</time></trkpt><trkpt lat="45.1201404" lon="7.0454712"><ele>756.8</ele><time>2026-04-04T14:58:37.601Z</time></trkpt><trkpt lat="45.1202031" lon="7.0455633"><ele>751.0</ele><time>2026-04-04T14:58:38.602Z</time></trkpt><trkpt lat="45.1202805" lon="7.0456625"><ele>751.0</ele><time>2026-04-04T14:58:39.601Z</time></trkpt><trkpt lat="45.1203635" lon="7.0457775"><ele>751.0</ele><time>2026-04-04T14:58:40.603Z</time></trkpt><trkpt lat="45.1204308" lon="7.0459059"><ele>751.0</ele><time>2026-04-04T14:58:41.601Z</time></trkpt><trkpt lat="45.1204921" lon="7.0460551"><ele>751.0</ele><time>2026-04-04T14:58:42.602Z</time></trkpt><trkpt lat="45.1205496" lon="7.0462478"><ele>755.4</ele><time>2026-04-04T14:58:43.601Z</time></trkpt><trkpt lat="45.1205955" lon="7.0464097"><ele>759.8</ele><time>2026-04-04T14:58:44.602Z</time></trkpt><trkpt lat="45.1206388" lon="7.0465462"><ele>764.1999999999999</ele><time>2026-04-04T14:58:45.603Z</time></trkpt><trkpt lat="45.1206766" lon="7.0466554"><ele>768.5999999999999</ele><time>2026-04-04T14:58:46.602Z</time></trkpt><trkpt lat="45.1207094" lon="7.0467494"><ele>773.0</ele><time>2026-04-04T14:58:47.602Z</time></trkpt><trkpt lat="45.120701" lon="7.0468699"><ele>773.0</ele><time>2026-04-04T14:58:49.603Z</time></trkpt><trkpt lat="45.1206164" lon="7.0468413"><ele>773.0</ele><time>2026-04-04T14:58:52.602Z</time></trkpt><trkpt lat="45.1205529" lon="7.0466672"><ele>773.0</ele><time>2026-04-04T14:58:54.602Z</time></trkpt><trkpt lat="45.1205164" lon="7.0465556"><ele>773.0</ele><time>2026-04-04T14:58:55.602Z</time></trkpt><trkpt lat="45.1204728" lon="7.0464443"><ele>773.0</ele><time>2026-04-04T14:58:56.602Z</time></trkpt><trkpt lat="45.1204235" lon="7.0463435"><ele>773.0</ele><time>2026-04-04T14:58:57.603Z</time></trkpt><trkpt lat="45.1203548" lon="7.0462326"><ele>773.0</ele><time>2026-04-04T14:58:58.603Z</time></trkpt><trkpt lat="45.1202769" lon="7.046145"><ele>773.0</ele><time>2026-04-04T14:58:59.603Z</time></trkpt><trkpt lat="45.1201849" lon="7.0460829"><ele>773.0</ele><time>2026-04-04T14:59:00.602Z</time></trkpt><trkpt lat="45.1200841" lon="7.0460494"><ele>773.0</ele><time>2026-04-04T14:59:01.602Z</time></trkpt><trkpt lat="45.1199806" lon="7.0460236"><ele>777.2</ele><time>2026-04-04T14:59:02.602Z</time></trkpt><trkpt lat="45.1198811" lon="7.0459708"><ele>781.4</ele><time>2026-04-04T14:59:03.603Z</time></trkpt><trkpt lat="45.1197948" lon="7.0458869"><ele>785.6</ele><time>2026-04-04T14:59:04.602Z</time></trkpt><trkpt lat="45.1197286" lon="7.0457715"><ele>789.8000000000001</ele><time>2026-04-04T14:59:05.603Z</time></trkpt><trkpt lat="45.119684" lon="7.0456397"><ele>794.0</ele><time>2026-04-04T14:59:06.602Z</time></trkpt><trkpt lat="45.1196414" lon="7.0455113"><ele>794.0</ele><time>2026-04-04T14:59:07.602Z</time></trkpt><trkpt lat="45.1195747" lon="7.0454166"><ele>794.0</ele><time>2026-04-04T14:59:08.601Z</time></trkpt><trkpt lat="45.1194911" lon="7.0453553"><ele>794.0</ele><time>2026-04-04T14:59:09.601Z</time></trkpt><trkpt lat="45.1194022" lon="7.0452987"><ele>794.0</ele><time>2026-04-04T14:59:10.603Z</time></trkpt><trkpt lat="45.1193278" lon="7.0452242"><ele>794.0</ele><time>2026-04-04T14:59:11.602Z</time></trkpt><trkpt lat="45.1192853" lon="7.0451287"><ele>794.0000000000001</ele><time>2026-04-04T14:59:12.602Z</time></trkpt><trkpt lat="45.1192706" lon="7.0450292"><ele>794.0</ele><time>2026-04-04T14:59:13.603Z</time></trkpt><trkpt lat="45.1192573" lon="7.0449238"><ele>794.0</ele><time>2026-04-04T14:59:14.602Z</time></trkpt><trkpt lat="45.1191763" lon="7.0448617"><ele>794.0</ele><time>2026-04-04T14:59:16.602Z</time></trkpt><trkpt lat="45.1191121" lon="7.0449651"><ele>794.0000000000001</ele><time>2026-04-04T14:59:18.603Z</time></trkpt><trkpt lat="45.1191037" lon="7.0450808"><ele>794.0</ele><time>2026-04-04T14:59:19.602Z</time></trkpt><trkpt lat="45.1191264" lon="7.0451834"><ele>794.0</ele><time>2026-04-04T14:59:20.603Z</time></trkpt><trkpt lat="45.1192057" lon="7.045297"><ele>794.0</ele><time>2026-04-04T14:59:21.602Z</time></trkpt><trkpt lat="45.1192763" lon="7.0453962"><ele>794.0</ele><time>2026-04-04T14:59:22.602Z</time></trkpt><trkpt lat="45.1193496" lon="7.0454842"><ele>794.0</ele><time>2026-04-04T14:59:23.602Z</time></trkpt><trkpt lat="45.1194002" lon="7.0455924"><ele>794.0</ele><time>2026-04-04T14:59:24.602Z</time></trkpt><trkpt lat="45.1194198" lon="7.0457182"><ele>799.0</ele><time>2026-04-04T14:59:25.602Z</time></trkpt><trkpt lat="45.119443" lon="7.0458492"><ele>804.0</ele><time>2026-04-04T14:59:26.602Z</time></trkpt><trkpt lat="45.1194923" lon="7.0459622"><ele>809.0</ele><time>2026-04-04T14:59:27.603Z</time></trkpt><trkpt lat="45.1195675" lon="7.0460634"><ele>814.0</ele><time>2026-04-04T14:59:28.602Z</time></trkpt><trkpt lat="45.1196465" lon="7.0461636"><ele>819.0</ele><time>2026-04-04T14:59:29.603Z</time></trkpt><trkpt lat="45.1197306" lon="7.046283"><ele>819.0</ele><time>2026-04-04T14:59:30.602Z</time></trkpt><trkpt lat="45.1197967" lon="7.0464191"><ele>819.0</ele><time>2026-04-04T14:59:31.603Z</time></trkpt><trkpt lat="45.1198481" lon="7.0465738"><ele>819.0</ele><time>2026-04-04T14:59:32.602Z</time></trkpt><trkpt lat="45.1198813" lon="7.0467402"><ele>819.0</ele><time>2026-04-04T14:59:33.602Z</time></trkpt><trkpt lat="45.1198957" lon="7.0468535"><ele>819.0</ele><time>2026-04-04T14:59:34.603Z</time></trkpt><trkpt lat="45.1198317" lon="7.0468239"><ele>819.0</ele><time>2026-04-04T14:59:39.601Z</time></trkpt><trkpt lat="45.1197866" lon="7.0466416"><ele>819.0</ele><time>2026-04-04T14:59:41.603Z</time></trkpt><trkpt lat="45.1197239" lon="7.0465535"><ele>819.0</ele><time>2026-04-04T14:59:42.602Z</time></trkpt><trkpt lat="45.1196405" lon="7.046472"><ele>819.0</ele><time>2026-04-04T14:59:43.602Z</time></trkpt><trkpt lat="45.1195409" lon="7.0463911"><ele>819.0</ele><time>2026-04-04T14:59:44.602Z</time></trkpt><trkpt lat="45.1194468" lon="7.0463074"><ele>819.0</ele><time>2026-04-04T14:59:45.602Z</time></trkpt><trkpt lat="45.1193465" lon="7.0462061"><ele>819.0</ele><time>2026-04-04T14:59:46.602Z</time></trkpt><trkpt lat="45.119255" lon="7.0461064"><ele>819.0</ele><time>2026-04-04T14:59:47.602Z</time></trkpt><trkpt lat="45.1191679" lon="7.0460064"><ele>819.0</ele><time>2026-04-04T14:59:48.601Z</time></trkpt><trkpt lat="45.1190839" lon="7.0459083"><ele>819.0</ele><time>2026-04-04T14:59:49.601Z</time></trkpt><trkpt lat="45.1190038" lon="7.0458125"><ele>819.0</ele><time>2026-04-04T14:59:50.602Z</time></trkpt><trkpt lat="45.1189301" lon="7.045712"><ele>819.0</ele><time>2026-04-04T14:59:51.603Z</time></trkpt><trkpt lat="45.1188648" lon="7.0456137"><ele>819.0</ele><time>2026-04-04T14:59:52.603Z</time></trkpt><trkpt lat="45.1187981" lon="7.0455384"><ele>819.0</ele><time>2026-04-04T14:59:53.602Z</time></trkpt><trkpt lat="45.1187248" lon="7.0455071"><ele>819.0</ele><time>2026-04-04T14:59:54.602Z</time></trkpt><trkpt lat="45.1186433" lon="7.0455307"><ele>819.0</ele><time>2026-04-04T14:59:55.602Z</time></trkpt><trkpt lat="45.1185597" lon="7.0455874"><ele>819.0</ele><time>2026-04-04T14:59:56.602Z</time></trkpt><trkpt lat="45.1184725" lon="7.0456572"><ele>819.0</ele><time>2026-04-04T14:59:57.602Z</time></trkpt><trkpt lat="45.1183773" lon="7.0457066"><ele>819.0</ele><time>2026-04-04T14:59:58.601Z</time></trkpt><trkpt lat="45.118275" lon="7.0457124"><ele>826.75</ele><time>2026-04-04T14:59:59.602Z</time></trkpt><trkpt lat="45.1181749" lon="7.0456678"><ele>834.5</ele><time>2026-04-04T15:00:00.602Z</time></trkpt><trkpt lat="45.1180855" lon="7.0455997"><ele>842.25</ele><time>2026-04-04T15:00:01.602Z</time></trkpt><trkpt lat="45.1179755" lon="7.0455199"><ele>850.0</ele><time>2026-04-04T15:00:02.603Z</time></trkpt><trkpt lat="45.1178619" lon="7.0454613"><ele>850.0</ele><time>2026-04-04T15:00:03.602Z</time></trkpt><trkpt lat="45.117743" lon="7.0454219"><ele>850.0</ele><time>2026-04-04T15:00:04.603Z</time></trkpt><trkpt lat="45.1176273" lon="7.0453808"><ele>850.0</ele><time>2026-04-04T15:00:05.603Z</time></trkpt><trkpt lat="45.1175277" lon="7.0453153"><ele>850.0</ele><time>2026-04-04T15:00:06.602Z</time></trkpt><trkpt lat="45.117449" lon="7.045214"><ele>865.25</ele><time>2026-04-04T15:00:07.603Z</time></trkpt><trkpt lat="45.1173974" lon="7.0450798"><ele>880.5</ele><time>2026-04-04T15:00:08.603Z</time></trkpt><trkpt lat="45.1173706" lon="7.0449271"><ele>895.75</ele><time>2026-04-04T15:00:09.601Z</time></trkpt><trkpt lat="45.1173649" lon="7.0447635"><ele>911.0</ele><time>2026-04-04T15:00:10.601Z</time></trkpt><trkpt lat="45.1173711" lon="7.0445949"><ele>912.0</ele><time>2026-04-04T15:00:11.602Z</time></trkpt><trkpt lat="45.1173855" lon="7.0444216"><ele>913.0</ele><time>2026-04-04T15:00:12.602Z</time></trkpt><trkpt lat="45.1174114" lon="7.0442443"><ele>914.0</ele><time>2026-04-04T15:00:13.603Z</time></trkpt><trkpt lat="45.1174375" lon="7.0440711"><ele>915.0</ele><time>2026-04-04T15:00:14.602Z</time></trkpt><trkpt lat="45.1174711" lon="7.0438985"><ele>915.6666666666666</ele><time>2026-04-04T15:00:15.601Z</time></trkpt><trkpt lat="45.1174836" lon="7.0437451"><ele>916.3333333333333</ele><time>2026-04-04T15:00:16.603Z</time></trkpt><trkpt lat="45.1174639" lon="7.0436265"><ele>917.0</ele><time>2026-04-04T15:00:17.602Z</time></trkpt><trkpt lat="45.1174115" lon="7.0435197"><ele>917.6666666666666</ele><time>2026-04-04T15:00:18.602Z</time></trkpt><trkpt lat="45.1173661" lon="7.0434256"><ele>918.3333333333333</ele><time>2026-04-04T15:00:19.602Z</time></trkpt><trkpt lat="45.1173493" lon="7.0433231"><ele>919.0</ele><time>2026-04-04T15:00:20.601Z</time></trkpt><trkpt lat="45.1173645" lon="7.0432188"><ele>911.0</ele><time>2026-04-04T15:00:21.601Z</time></trkpt><trkpt lat="45.1174105" lon="7.0431014"><ele>903.0</ele><time>2026-04-04T15:00:22.603Z</time></trkpt><trkpt lat="45.1174819" lon="7.0429821"><ele>895.0</ele><time>2026-04-04T15:00:23.603Z</time></trkpt><trkpt lat="45.1175596" lon="7.0428529"><ele>887.0</ele><time>2026-04-04T15:00:24.602Z</time></trkpt><trkpt lat="45.1176333" lon="7.0427075"><ele>887.0</ele><time>2026-04-04T15:00:25.602Z</time></trkpt><trkpt lat="45.1177012" lon="7.0425469"><ele>887.0</ele><time>2026-04-04T15:00:26.603Z</time></trkpt><trkpt lat="45.1177559" lon="7.0423768"><ele>887.0</ele><time>2026-04-04T15:00:27.602Z</time></trkpt><trkpt lat="45.1177907" lon="7.0421967"><ele>887.0</ele><time>2026-04-04T15:00:28.603Z</time></trkpt><trkpt lat="45.1178198" lon="7.0420337"><ele>888.8</ele><time>2026-04-04T15:00:29.602Z</time></trkpt><trkpt lat="45.1178624" lon="7.0418896"><ele>890.6</ele><time>2026-04-04T15:00:30.603Z</time></trkpt><trkpt lat="45.1179333" lon="7.0417754"><ele>892.3999999999999</ele><time>2026-04-04T15:00:31.602Z</time></trkpt><trkpt lat="45.1180244" lon="7.0416906"><ele>894.1999999999999</ele><time>2026-04-04T15:00:32.603Z</time></trkpt><trkpt lat="45.1181219" lon="7.0416241"><ele>896.0</ele><time>2026-04-04T15:00:33.603Z</time></trkpt><trkpt lat="45.1182394" lon="7.0415818"><ele>896.0</ele><time>2026-04-04T15:00:34.602Z</time></trkpt><trkpt lat="45.1183476" lon="7.0415738"><ele>895.9999999999999</ele><time>2026-04-04T15:00:35.601Z</time></trkpt><trkpt lat="45.1184483" lon="7.0415674"><ele>895.9999999999999</ele><time>2026-04-04T15:00:36.602Z</time></trkpt><trkpt lat="45.1185422" lon="7.0415302"><ele>896.0</ele><time>2026-04-04T15:00:37.6Z</time></trkpt><trkpt lat="45.1186325" lon="7.0414728"><ele>896.0</ele><time>2026-04-04T15:00:38.601Z</time></trkpt><trkpt lat="45.1187161" lon="7.0413827"><ele>896.0</ele><time>2026-04-04T15:00:39.602Z</time></trkpt><trkpt lat="45.1187938" lon="7.0412763"><ele>895.9999999999999</ele><time>2026-04-04T15:00:40.602Z</time></trkpt><trkpt lat="45.1188552" lon="7.0411543"><ele>895.9999999999999</ele><time>2026-04-04T15:00:41.601Z</time></trkpt><trkpt lat="45.1188866" lon="7.0410322"><ele>896.0</ele><time>2026-04-04T15:00:42.602Z</time></trkpt><trkpt lat="45.1188816" lon="7.0409044"><ele>896.0</ele><time>2026-04-04T15:00:43.601Z</time></trkpt><trkpt lat="45.1188406" lon="7.0407747"><ele>898.25</ele><time>2026-04-04T15:00:44.602Z</time></trkpt><trkpt lat="45.1187769" lon="7.0406427"><ele>900.5</ele><time>2026-04-04T15:00:45.601Z</time></trkpt><trkpt lat="45.1187007" lon="7.0405014"><ele>902.75</ele><time>2026-04-04T15:00:46.602Z</time></trkpt><trkpt lat="45.1186181" lon="7.0403562"><ele>905.0</ele><time>2026-04-04T15:00:47.601Z</time></trkpt><trkpt lat="45.1185358" lon="7.0402084"><ele>905.0</ele><time>2026-04-04T15:00:48.602Z</time></trkpt><trkpt lat="45.1184628" lon="7.040069"><ele>905.0</ele><time>2026-04-04T15:00:49.601Z</time></trkpt><trkpt lat="45.1183868" lon="7.0399133"><ele>905.0</ele><time>2026-04-04T15:00:50.601Z</time></trkpt><trkpt lat="45.1183286" lon="7.0397611"><ele>905.0</ele><time>2026-04-04T15:00:51.601Z</time></trkpt><trkpt lat="45.1182979" lon="7.0396104"><ele>909.0</ele><time>2026-04-04T15:00:52.6Z</time></trkpt><trkpt lat="45.1182997" lon="7.0394412"><ele>913.0</ele><time>2026-04-04T15:00:53.601Z</time></trkpt><trkpt lat="45.1183272" lon="7.0392732"><ele>917.0</ele><time>2026-04-04T15:00:54.601Z</time></trkpt><trkpt lat="45.1183711" lon="7.0391039"><ele>921.0</ele><time>2026-04-04T15:00:55.602Z</time></trkpt><trkpt lat="45.1184224" lon="7.0389256"><ele>928.5</ele><time>2026-04-04T15:00:56.6Z</time></trkpt><trkpt lat="45.1184757" lon="7.0387432"><ele>936.0</ele><time>2026-04-04T15:00:57.601Z</time></trkpt><trkpt lat="45.1185399" lon="7.0385653"><ele>943.5</ele><time>2026-04-04T15:00:58.601Z</time></trkpt><trkpt lat="45.1186081" lon="7.0383867"><ele>951.0</ele><time>2026-04-04T15:00:59.601Z</time></trkpt><trkpt lat="45.1186924" lon="7.0382251"><ele>958.5</ele><time>2026-04-04T15:01:00.6Z</time></trkpt><trkpt lat="45.118793" lon="7.038089"><ele>966.0</ele><time>2026-04-04T15:01:01.6Z</time></trkpt><trkpt lat="45.1189059" lon="7.0379766"><ele>973.5</ele><time>2026-04-04T15:01:02.6Z</time></trkpt><trkpt lat="45.1190068" lon="7.0378732"><ele>981.0</ele><time>2026-04-04T15:01:03.601Z</time></trkpt><trkpt lat="45.1191051" lon="7.0377627"><ele>971.0</ele><time>2026-04-04T15:01:04.6Z</time></trkpt><trkpt lat="45.1191813" lon="7.0376611"><ele>960.9999999999999</ele><time>2026-04-04T15:01:05.601Z</time></trkpt><trkpt lat="45.1192405" lon="7.0375327"><ele>950.9999999999999</ele><time>2026-04-04T15:01:06.602Z</time></trkpt><trkpt lat="45.1192658" lon="7.0373949"><ele>941.0</ele><time>2026-04-04T15:01:07.602Z</time></trkpt><trkpt lat="45.1192561" lon="7.0372541"><ele>931.0</ele><time>2026-04-04T15:01:08.601Z</time></trkpt><trkpt lat="45.1192099" lon="7.0370947"><ele>931.0</ele><time>2026-04-04T15:01:09.601Z</time></trkpt><trkpt lat="45.1191565" lon="7.03693"><ele>931.0</ele><time>2026-04-04T15:01:10.6Z</time></trkpt><trkpt lat="45.1191175" lon="7.0367568"><ele>931.0</ele><time>2026-04-04T15:01:11.602Z</time></trkpt><trkpt lat="45.1191048" lon="7.0365741"><ele>931.0</ele><time>2026-04-04T15:01:12.601Z</time></trkpt><trkpt lat="45.1191001" lon="7.036386"><ele>929.5</ele><time>2026-04-04T15:01:13.601Z</time></trkpt><trkpt lat="45.1190739" lon="7.0362042"><ele>928.0</ele><time>2026-04-04T15:01:14.601Z</time></trkpt><trkpt lat="45.1190232" lon="7.0360287"><ele>926.5</ele><time>2026-04-04T15:01:15.601Z</time></trkpt><trkpt lat="45.1189487" lon="7.0358659"><ele>925.0</ele><time>2026-04-04T15:01:16.602Z</time></trkpt><trkpt lat="45.1188667" lon="7.0357119"><ele>931.25</ele><time>2026-04-04T15:01:17.6Z</time></trkpt><trkpt lat="45.1187803" lon="7.0355707"><ele>937.5</ele><time>2026-04-04T15:01:18.601Z</time></trkpt><trkpt lat="45.1186872" lon="7.0354458"><ele>943.75</ele><time>2026-04-04T15:01:19.602Z</time></trkpt><trkpt lat="45.1185894" lon="7.0353284"><ele>950.0</ele><time>2026-04-04T15:01:20.602Z</time></trkpt><trkpt lat="45.1185071" lon="7.0352298"><ele>950.0</ele><time>2026-04-04T15:01:21.601Z</time></trkpt><trkpt lat="45.1184172" lon="7.0351625"><ele>950.0</ele><time>2026-04-04T15:01:22.602Z</time></trkpt><trkpt lat="45.1183282" lon="7.0351243"><ele>950.0</ele><time>2026-04-04T15:01:23.601Z</time></trkpt><trkpt lat="45.1182387" lon="7.0350785"><ele>950.0</ele><time>2026-04-04T15:01:24.6Z</time></trkpt><trkpt lat="45.1181652" lon="7.0349961"><ele>950.0</ele><time>2026-04-04T15:01:25.601Z</time></trkpt><trkpt lat="45.1181142" lon="7.0348693"><ele>962.75</ele><time>2026-04-04T15:01:26.602Z</time></trkpt><trkpt lat="45.118074" lon="7.034718"><ele>975.5</ele><time>2026-04-04T15:01:27.601Z</time></trkpt><trkpt lat="45.1180365" lon="7.0345412"><ele>988.25</ele><time>2026-04-04T15:01:28.601Z</time></trkpt><trkpt lat="45.118009" lon="7.034358"><ele>1001.0</ele><time>2026-04-04T15:01:29.601Z</time></trkpt><trkpt lat="45.1180046" lon="7.0341976"><ele>1003.8</ele><time>2026-04-04T15:01:30.6Z</time></trkpt><trkpt lat="45.1180149" lon="7.0340569"><ele>1006.5999999999999</ele><time>2026-04-04T15:01:31.602Z</time></trkpt><trkpt lat="45.1180335" lon="7.0339413"><ele>1009.4</ele><time>2026-04-04T15:01:32.601Z</time></trkpt><trkpt lat="45.118035" lon="7.0338184"><ele>1012.2</ele><time>2026-04-04T15:01:34.601Z</time></trkpt><trkpt lat="45.1179608" lon="7.033778"><ele>1015.0</ele><time>2026-04-04T15:01:36.601Z</time></trkpt><trkpt lat="45.1178986" lon="7.0339101"><ele>1015.0</ele><time>2026-04-04T15:01:38.602Z</time></trkpt><trkpt lat="45.1178743" lon="7.0340276"><ele>1015.0</ele><time>2026-04-04T15:01:39.602Z</time></trkpt><trkpt lat="45.1178521" lon="7.0341477"><ele>1015.0</ele><time>2026-04-04T15:01:40.601Z</time></trkpt><trkpt lat="45.1178256" lon="7.0342816"><ele>1015.0</ele><time>2026-04-04T15:01:41.601Z</time></trkpt><trkpt lat="45.1178039" lon="7.0344352"><ele>1015.0</ele><time>2026-04-04T15:01:42.602Z</time></trkpt><trkpt lat="45.1177914" lon="7.0345913"><ele>1011.5</ele><time>2026-04-04T15:01:43.6Z</time></trkpt><trkpt lat="45.1177879" lon="7.0347504"><ele>1008.0</ele><time>2026-04-04T15:01:44.602Z</time></trkpt><trkpt lat="45.117794" lon="7.0349085"><ele>1004.5</ele><time>2026-04-04T15:01:45.601Z</time></trkpt><trkpt lat="45.1178232" lon="7.0350627"><ele>1001.0</ele><time>2026-04-04T15:01:46.601Z</time></trkpt><trkpt lat="45.1178884" lon="7.0352158"><ele>1000.75</ele><time>2026-04-04T15:01:47.602Z</time></trkpt><trkpt lat="45.1179724" lon="7.0353651"><ele>1000.5</ele><time>2026-04-04T15:01:48.6Z</time></trkpt><trkpt lat="45.1180411" lon="7.0355349"><ele>1000.25</ele><time>2026-04-04T15:01:49.602Z</time></trkpt><trkpt lat="45.118088" lon="7.0357176"><ele>1000.0</ele><time>2026-04-04T15:01:50.601Z</time></trkpt><trkpt lat="45.1181287" lon="7.0358799"><ele>1001.9999999999999</ele><time>2026-04-04T15:01:51.601Z</time></trkpt><trkpt lat="45.1181743" lon="7.0360179"><ele>1004.0</ele><time>2026-04-04T15:01:52.602Z</time></trkpt><trkpt lat="45.1182225" lon="7.0361048"><ele>1006.0</ele><time>2026-04-04T15:01:53.601Z</time></trkpt><trkpt lat="45.1182548" lon="7.0361817"><ele>1008.0</ele><time>2026-04-04T15:01:54.601Z</time></trkpt><trkpt lat="45.1182184" lon="7.0362674"><ele>1009.9999999999999</ele><time>2026-04-04T15:01:56.601Z</time></trkpt><trkpt lat="45.1181428" lon="7.0362062"><ele>1012.0</ele><time>2026-04-04T15:01:58.602Z</time></trkpt><trkpt lat="45.1180906" lon="7.0361256"><ele>1012.0</ele><time>2026-04-04T15:01:59.601Z</time></trkpt><trkpt lat="45.1180217" lon="7.0360225"><ele>1012.0</ele><time>2026-04-04T15:02:00.601Z</time></trkpt><trkpt lat="45.1179551" lon="7.0359146"><ele>1012.0</ele><time>2026-04-04T15:02:01.602Z</time></trkpt><trkpt lat="45.1178721" lon="7.0357886"><ele>1012.0</ele><time>2026-04-04T15:02:02.601Z</time></trkpt><trkpt lat="45.1177703" lon="7.035681"><ele>1009.0</ele><time>2026-04-04T15:02:03.601Z</time></trkpt><trkpt lat="45.1176639" lon="7.035575"><ele>1006.0</ele><time>2026-04-04T15:02:04.601Z</time></trkpt><trkpt lat="45.1175647" lon="7.0354594"><ele>1003.0</ele><time>2026-04-04T15:02:05.6Z</time></trkpt><trkpt lat="45.1174748" lon="7.0353173"><ele>1000.0</ele><time>2026-04-04T15:02:06.601Z</time></trkpt><trkpt lat="45.1174023" lon="7.0351587"><ele>1013.25</ele><time>2026-04-04T15:02:07.6Z</time></trkpt><trkpt lat="45.1173511" lon="7.0349767"><ele>1026.5</ele><time>2026-04-04T15:02:08.602Z</time></trkpt><trkpt lat="45.1173154" lon="7.0347708"><ele>1039.75</ele><time>2026-04-04T15:02:09.601Z</time></trkpt><trkpt lat="45.1172957" lon="7.0345656"><ele>1053.0</ele><time>2026-04-04T15:02:10.601Z</time></trkpt><trkpt lat="45.1172875" lon="7.0343752"><ele>1054.6</ele><time>2026-04-04T15:02:11.602Z</time></trkpt><trkpt lat="45.1172941" lon="7.0342047"><ele>1056.1999999999998</ele><time>2026-04-04T15:02:12.601Z</time></trkpt><trkpt lat="45.1173056" lon="7.034056"><ele>1057.8</ele><time>2026-04-04T15:02:13.6Z</time></trkpt><trkpt lat="45.1173256" lon="7.0339282"><ele>1059.3999999999999</ele><time>2026-04-04T15:02:14.601Z</time></trkpt><trkpt lat="45.1173461" lon="7.0338248"><ele>1061.0</ele><time>2026-04-04T15:02:15.601Z</time></trkpt><trkpt lat="45.1173132" lon="7.0336923"><ele>1061.0</ele><time>2026-04-04T15:02:17.601Z</time></trkpt><trkpt lat="45.1172416" lon="7.0337718"><ele>1061.0</ele><time>2026-04-04T15:02:19.6Z</time></trkpt><trkpt lat="45.1172196" lon="7.0338688"><ele>1061.0</ele><time>2026-04-04T15:02:20.601Z</time></trkpt><trkpt lat="45.1171926" lon="7.0340055"><ele>1061.0</ele><time>2026-04-04T15:02:21.6Z</time></trkpt><trkpt lat="45.1171696" lon="7.0341562"><ele>1061.0</ele><time>2026-04-04T15:02:22.601Z</time></trkpt><trkpt lat="45.1171407" lon="7.0343296"><ele>1061.0</ele><time>2026-04-04T15:02:23.601Z</time></trkpt><trkpt lat="45.117115" lon="7.0345141"><ele>1061.0</ele><time>2026-04-04T15:02:24.6Z</time></trkpt><trkpt lat="45.1170902" lon="7.0346914"><ele>1061.0</ele><time>2026-04-04T15:02:25.601Z</time></trkpt><trkpt lat="45.1170622" lon="7.0348923"><ele>1061.0</ele><time>2026-04-04T15:02:26.601Z</time></trkpt><trkpt lat="45.117036" lon="7.0350814"><ele>1059.0</ele><time>2026-04-04T15:02:27.602Z</time></trkpt><trkpt lat="45.1170083" lon="7.0352625"><ele>1057.0</ele><time>2026-04-04T15:02:28.601Z</time></trkpt><trkpt lat="45.1169832" lon="7.0354381"><ele>1055.0</ele><time>2026-04-04T15:02:29.601Z</time></trkpt><trkpt lat="45.1169647" lon="7.0356047"><ele>1053.0</ele><time>2026-04-04T15:02:30.602Z</time></trkpt><trkpt lat="45.1169792" lon="7.0357726"><ele>1053.5</ele><time>2026-04-04T15:02:31.602Z</time></trkpt><trkpt lat="45.1170244" lon="7.0359376"><ele>1054.0</ele><time>2026-04-04T15:02:32.602Z</time></trkpt><trkpt lat="45.117101" lon="7.0361014"><ele>1054.5</ele><time>2026-04-04T15:02:33.601Z</time></trkpt><trkpt lat="45.1172004" lon="7.0362657"><ele>1055.0</ele><time>2026-04-04T15:02:34.601Z</time></trkpt><trkpt lat="45.1172966" lon="7.0364159"><ele>1055.0</ele><time>2026-04-04T15:02:35.6Z</time></trkpt><trkpt lat="45.1173843" lon="7.0365468"><ele>1055.0</ele><time>2026-04-04T15:02:36.601Z</time></trkpt><trkpt lat="45.1174334" lon="7.0366625"><ele>1055.0</ele><time>2026-04-04T15:02:37.601Z</time></trkpt><trkpt lat="45.1175198" lon="7.036757"><ele>1055.0</ele><time>2026-04-04T15:02:38.602Z</time></trkpt><trkpt lat="45.1175989" lon="7.0368355"><ele>1055.0</ele><time>2026-04-04T15:02:39.601Z</time></trkpt><trkpt lat="45.1176703" lon="7.0369188"><ele>1057.6</ele><time>2026-04-04T15:02:40.6Z</time></trkpt><trkpt lat="45.1177042" lon="7.0370085"><ele>1060.2</ele><time>2026-04-04T15:02:41.602Z</time></trkpt><trkpt lat="45.1176502" lon="7.0371343"><ele>1062.8</ele><time>2026-04-04T15:02:43.601Z</time></trkpt><trkpt lat="45.1175146" lon="7.0370726"><ele>1065.4</ele><time>2026-04-04T15:02:45.601Z</time></trkpt><trkpt lat="45.1174112" lon="7.0370341"><ele>1068.0</ele><time>2026-04-04T15:02:46.601Z</time></trkpt><trkpt lat="45.1173081" lon="7.0369998"><ele>1068.0</ele><time>2026-04-04T15:02:47.601Z</time></trkpt><trkpt lat="45.1171881" lon="7.0369502"><ele>1068.0</ele><time>2026-04-04T15:02:48.6Z</time></trkpt><trkpt lat="45.1170623" lon="7.0368845"><ele>1068.0</ele><time>2026-04-04T15:02:49.601Z</time></trkpt><trkpt lat="45.1169451" lon="7.0367771"><ele>1068.0</ele><time>2026-04-04T15:02:50.601Z</time></trkpt><trkpt lat="45.1168412" lon="7.0366369"><ele>1064.75</ele><time>2026-04-04T15:02:51.6Z</time></trkpt><trkpt lat="45.1167371" lon="7.0364888"><ele>1061.5</ele><time>2026-04-04T15:02:52.601Z</time></trkpt><trkpt lat="45.1166381" lon="7.0363369"><ele>1058.25</ele><time>2026-04-04T15:02:53.602Z</time></trkpt><trkpt lat="45.1165426" lon="7.0361853"><ele>1055.0</ele><time>2026-04-04T15:02:54.601Z</time></trkpt><trkpt lat="45.1164719" lon="7.0360124"><ele>1072.6666666666667</ele><time>2026-04-04T15:02:55.601Z</time></trkpt><trkpt lat="45.1164259" lon="7.0358057"><ele>1090.3333333333333</ele><time>2026-04-04T15:02:56.601Z</time></trkpt><trkpt lat="45.1163993" lon="7.0356027"><ele>1108.0</ele><time>2026-04-04T15:02:57.601Z</time></trkpt><trkpt lat="45.1163702" lon="7.0353548"><ele>1108.3333333333333</ele><time>2026-04-04T15:02:58.601Z</time></trkpt><trkpt lat="45.1163415" lon="7.0351255"><ele>1108.6666666666667</ele><time>2026-04-04T15:02:59.602Z</time></trkpt><trkpt lat="45.1163056" lon="7.0349079"><ele>1109.0</ele><time>2026-04-04T15:03:00.601Z</time></trkpt><trkpt lat="45.1162731" lon="7.0347001"><ele>1109.0</ele><time>2026-04-04T15:03:01.602Z</time></trkpt><trkpt lat="45.1162571" lon="7.0345017"><ele>1109.0</ele><time>2026-04-04T15:03:02.601Z</time></trkpt><trkpt lat="45.1162749" lon="7.0343038"><ele>1109.0</ele><time>2026-04-04T15:03:03.601Z</time></trkpt><trkpt lat="45.1163103" lon="7.034115"><ele>1109.0</ele><time>2026-04-04T15:03:04.601Z</time></trkpt><trkpt lat="45.1163618" lon="7.0339369"><ele>1110.6000000000001</ele><time>2026-04-04T15:03:05.601Z</time></trkpt><trkpt lat="45.1164261" lon="7.0337704"><ele>1112.2</ele><time>2026-04-04T15:03:06.601Z</time></trkpt><trkpt lat="45.1164828" lon="7.0336308"><ele>1113.8000000000002</ele><time>2026-04-04T15:03:07.6Z</time></trkpt><trkpt lat="45.1165222" lon="7.0335314"><ele>1115.4</ele><time>2026-04-04T15:03:08.6Z</time></trkpt><trkpt lat="45.1165218" lon="7.0334152"><ele>1117.0</ele><time>2026-04-04T15:03:10.6Z</time></trkpt><trkpt lat="45.1164245" lon="7.0333942"><ele>1117.0</ele><time>2026-04-04T15:03:12.6Z</time></trkpt><trkpt lat="45.1163545" lon="7.0334397"><ele>1117.0</ele><time>2026-04-04T15:03:13.6Z</time></trkpt><trkpt lat="45.1162572" lon="7.0335375"><ele>1117.0</ele><time>2026-04-04T15:03:14.6Z</time></trkpt><trkpt lat="45.1161601" lon="7.0336528"><ele>1117.0</ele><time>2026-04-04T15:03:15.6Z</time></trkpt><trkpt lat="45.1160554" lon="7.0337828"><ele>1117.0</ele><time>2026-04-04T15:03:16.6Z</time></trkpt><trkpt lat="45.1159665" lon="7.0339186"><ele>1117.0</ele><time>2026-04-04T15:03:17.601Z</time></trkpt><trkpt lat="45.1159068" lon="7.0340676"><ele>1117.0</ele><time>2026-04-04T15:03:18.6Z</time></trkpt><trkpt lat="45.1158719" lon="7.034233"><ele>1117.0</ele><time>2026-04-04T15:03:19.6Z</time></trkpt><trkpt lat="45.115847" lon="7.0344328"><ele>1114.3333333333333</ele><time>2026-04-04T15:03:20.6Z</time></trkpt><trkpt lat="45.1157947" lon="7.0346262"><ele>1111.6666666666667</ele><time>2026-04-04T15:03:21.6Z</time></trkpt><trkpt lat="45.1157582" lon="7.0348404"><ele>1109.0</ele><time>2026-04-04T15:03:22.599Z</time></trkpt><trkpt lat="45.1157359" lon="7.0350652"><ele>1131.0</ele><time>2026-04-04T15:03:23.6Z</time></trkpt><trkpt lat="45.1157187" lon="7.0353092"><ele>1153.0</ele><time>2026-04-04T15:03:24.6Z</time></trkpt><trkpt lat="45.1157067" lon="7.0355546"><ele>1175.0</ele><time>2026-04-04T15:03:25.6Z</time></trkpt><trkpt lat="45.1156937" lon="7.0357927"><ele>1172.75</ele><time>2026-04-04T15:03:26.601Z</time></trkpt><trkpt lat="45.1156996" lon="7.0360282"><ele>1170.5</ele><time>2026-04-04T15:03:27.6Z</time></trkpt><trkpt lat="45.1157236" lon="7.036238"><ele>1168.25</ele><time>2026-04-04T15:03:28.6Z</time></trkpt><trkpt lat="45.1157467" lon="7.0364127"><ele>1166.0</ele><time>2026-04-04T15:03:29.6Z</time></trkpt><trkpt lat="45.1157566" lon="7.036605"><ele>1163.25</ele><time>2026-04-04T15:03:30.6Z</time></trkpt><trkpt lat="45.115752" lon="7.0367825"><ele>1160.5</ele><time>2026-04-04T15:03:31.601Z</time></trkpt><trkpt lat="45.1157401" lon="7.0369663"><ele>1157.75</ele><time>2026-04-04T15:03:32.6Z</time></trkpt><trkpt lat="45.1157131" lon="7.0371464"><ele>1155.0</ele><time>2026-04-04T15:03:33.6Z</time></trkpt><trkpt lat="45.1156686" lon="7.0373154"><ele>1152.0</ele><time>2026-04-04T15:03:34.599Z</time></trkpt><trkpt lat="45.1155978" lon="7.0374695"><ele>1149.0</ele><time>2026-04-04T15:03:35.6Z</time></trkpt><trkpt lat="45.1155026" lon="7.0376081"><ele>1146.0</ele><time>2026-04-04T15:03:36.6Z</time></trkpt><trkpt lat="45.1154138" lon="7.0377591"><ele>1143.0</ele><time>2026-04-04T15:03:37.601Z</time></trkpt><trkpt lat="45.1153497" lon="7.0379175"><ele>1143.0</ele><time>2026-04-04T15:03:38.601Z</time></trkpt><trkpt lat="45.115322" lon="7.0380965"><ele>1143.0</ele><time>2026-04-04T15:03:39.6Z</time></trkpt><trkpt lat="45.1153101" lon="7.0382837"><ele>1143.0</ele><time>2026-04-04T15:03:40.6Z</time></trkpt><trkpt lat="45.1152809" lon="7.0384648"><ele>1143.0</ele><time>2026-04-04T15:03:41.601Z</time></trkpt><trkpt lat="45.1152318" lon="7.0386483"><ele>1143.25</ele><time>2026-04-04T15:03:42.6Z</time></trkpt><trkpt lat="45.1151668" lon="7.0388384"><ele>1143.5</ele><time>2026-04-04T15:03:43.601Z</time></trkpt><trkpt lat="45.1151008" lon="7.0390363"><ele>1143.75</ele><time>2026-04-04T15:03:44.6Z</time></trkpt><trkpt lat="45.1150361" lon="7.039215"><ele>1144.0</ele><time>2026-04-04T15:03:45.601Z</time></trkpt><trkpt lat="45.1149762" lon="7.0394364"><ele>1142.5</ele><time>2026-04-04T15:03:46.6Z</time></trkpt><trkpt lat="45.1149345" lon="7.0396249"><ele>1141.0</ele><time>2026-04-04T15:03:47.6Z</time></trkpt><trkpt lat="45.1149169" lon="7.0397974"><ele>1139.5</ele><time>2026-04-04T15:03:48.6Z</time></trkpt><trkpt lat="45.1149246" lon="7.0399458"><ele>1138.0</ele><time>2026-04-04T15:03:49.6Z</time></trkpt><trkpt lat="45.1149435" lon="7.0400606"><ele>1137.3333333333333</ele><time>2026-04-04T15:03:50.6Z</time></trkpt><trkpt lat="45.1149499" lon="7.0401622"><ele>1136.6666666666665</ele><time>2026-04-04T15:03:51.6Z</time></trkpt><trkpt lat="45.1149359" lon="7.040256"><ele>1136.0</ele><time>2026-04-04T15:03:52.6Z</time></trkpt><trkpt lat="45.1148879" lon="7.0403474"><ele>1135.3333333333333</ele><time>2026-04-04T15:03:53.6Z</time></trkpt><trkpt lat="45.1148198" lon="7.0404279"><ele>1134.6666666666667</ele><time>2026-04-04T15:03:54.6Z</time></trkpt><trkpt lat="45.114746" lon="7.0404952"><ele>1134.0</ele><time>2026-04-04T15:03:55.6Z</time></trkpt><trkpt lat="45.1146785" lon="7.0405303"><ele>1142.0</ele><time>2026-04-04T15:03:56.601Z</time></trkpt><trkpt lat="45.1146021" lon="7.0404582"><ele>1150.0</ele><time>2026-04-04T15:03:58.6Z</time></trkpt><trkpt lat="45.1146399" lon="7.0402924"><ele>1158.0</ele><time>2026-04-04T15:04:00.601Z</time></trkpt><trkpt lat="45.1146552" lon="7.0401913"><ele>1166.0</ele><time>2026-04-04T15:04:01.6Z</time></trkpt><trkpt lat="45.1146587" lon="7.0400583"><ele>1174.0</ele><time>2026-04-04T15:04:02.6Z</time></trkpt><trkpt lat="45.1146536" lon="7.0399266"><ele>1174.0</ele><time>2026-04-04T15:04:03.6Z</time></trkpt><trkpt lat="45.1146428" lon="7.0397836"><ele>1174.0</ele><time>2026-04-04T15:04:04.599Z</time></trkpt><trkpt lat="45.1146311" lon="7.0396021"><ele>1174.0</ele><time>2026-04-04T15:04:05.601Z</time></trkpt><trkpt lat="45.1146235" lon="7.0394381"><ele>1174.0</ele><time>2026-04-04T15:04:06.6Z</time></trkpt><trkpt lat="45.11461" lon="7.039265"><ele>1174.6000000000001</ele><time>2026-04-04T15:04:07.601Z</time></trkpt><trkpt lat="45.1145743" lon="7.039098"><ele>1175.2</ele><time>2026-04-04T15:04:08.6Z</time></trkpt><trkpt lat="45.114531" lon="7.0389577"><ele>1175.8000000000002</ele><time>2026-04-04T15:04:09.6Z</time></trkpt><trkpt lat="45.1144619" lon="7.0388489"><ele>1176.4</ele><time>2026-04-04T15:04:10.6Z</time></trkpt><trkpt lat="45.1143737" lon="7.0387711"><ele>1177.0</ele><time>2026-04-04T15:04:11.6Z</time></trkpt><trkpt lat="45.1142836" lon="7.0386817"><ele>1177.0</ele><time>2026-04-04T15:04:12.6Z</time></trkpt><trkpt lat="45.1142061" lon="7.0385784"><ele>1177.0</ele><time>2026-04-04T15:04:13.601Z</time></trkpt><trkpt lat="45.1141622" lon="7.0384588"><ele>1177.0</ele><time>2026-04-04T15:04:14.6Z</time></trkpt><trkpt lat="45.1141591" lon="7.0383305"><ele>1177.0</ele><time>2026-04-04T15:04:15.601Z</time></trkpt><trkpt lat="45.1142001" lon="7.0382149"><ele>1177.0</ele><time>2026-04-04T15:04:16.599Z</time></trkpt><trkpt lat="45.1142668" lon="7.0381318"><ele>1179.6</ele><time>2026-04-04T15:04:17.601Z</time></trkpt><trkpt lat="45.1143424" lon="7.038026"><ele>1182.2</ele><time>2026-04-04T15:04:18.6Z</time></trkpt><trkpt lat="45.1143842" lon="7.0379201"><ele>1184.8</ele><time>2026-04-04T15:04:19.6Z</time></trkpt><trkpt lat="45.1143906" lon="7.037805"><ele>1187.4</ele><time>2026-04-04T15:04:20.599Z</time></trkpt><trkpt lat="45.1143258" lon="7.0377109"><ele>1190.0</ele><time>2026-04-04T15:04:22.6Z</time></trkpt><trkpt lat="45.1142405" lon="7.037788"><ele>1190.0</ele><time>2026-04-04T15:04:24.599Z</time></trkpt><trkpt lat="45.1141954" lon="7.0378683"><ele>1190.0</ele><time>2026-04-04T15:04:25.601Z</time></trkpt><trkpt lat="45.1141352" lon="7.0379592"><ele>1190.0</ele><time>2026-04-04T15:04:26.6Z</time></trkpt><trkpt lat="45.1140524" lon="7.0380639"><ele>1190.0</ele><time>2026-04-04T15:04:27.6Z</time></trkpt><trkpt lat="45.1139564" lon="7.0381818"><ele>1190.0</ele><time>2026-04-04T15:04:28.6Z</time></trkpt><trkpt lat="45.1138661" lon="7.0383032"><ele>1194.8</ele><time>2026-04-04T15:04:29.6Z</time></trkpt><trkpt lat="45.1137881" lon="7.038434"><ele>1199.6</ele><time>2026-04-04T15:04:30.6Z</time></trkpt><trkpt lat="45.1137228" lon="7.038575"><ele>1204.4</ele><time>2026-04-04T15:04:31.599Z</time></trkpt><trkpt lat="45.1136826" lon="7.0387285"><ele>1209.2</ele><time>2026-04-04T15:04:32.601Z</time></trkpt><trkpt lat="45.1136528" lon="7.0388496"><ele>1214.0</ele><time>2026-04-04T15:04:33.599Z</time></trkpt><trkpt lat="45.1136444" lon="7.0390252"><ele>1214.5</ele><time>2026-04-04T15:04:34.601Z</time></trkpt><trkpt lat="45.1136274" lon="7.0391987"><ele>1215.0</ele><time>2026-04-04T15:04:35.6Z</time></trkpt><trkpt lat="45.1135926" lon="7.0393658"><ele>1215.5</ele><time>2026-04-04T15:04:36.601Z</time></trkpt><trkpt lat="45.1135644" lon="7.0395403"><ele>1216.0</ele><time>2026-04-04T15:04:37.6Z</time></trkpt><trkpt lat="45.1135528" lon="7.0397125"><ele>1216.0</ele><time>2026-04-04T15:04:38.6Z</time></trkpt><trkpt lat="45.1135699" lon="7.0398884"><ele>1216.0</ele><time>2026-04-04T15:04:39.6Z</time></trkpt><trkpt lat="45.1135976" lon="7.0400487"><ele>1216.0</ele><time>2026-04-04T15:04:40.6Z</time></trkpt><trkpt lat="45.1136145" lon="7.0401833"><ele>1216.0</ele><time>2026-04-04T15:04:41.6Z</time></trkpt><trkpt lat="45.1136122" lon="7.040284"><ele>1216.0</ele><time>2026-04-04T15:04:42.6Z</time></trkpt><trkpt lat="45.1135506" lon="7.040357"><ele>1216.0</ele><time>2026-04-04T15:04:44.6Z</time></trkpt><trkpt lat="45.1135089" lon="7.0402748"><ele>1216.0</ele><time>2026-04-04T15:04:46.601Z</time></trkpt><trkpt lat="45.1135011" lon="7.040179"><ele>1216.0</ele><time>2026-04-04T15:04:47.6Z</time></trkpt><trkpt lat="45.1134782" lon="7.0400569"><ele>1216.0</ele><time>2026-04-04T15:04:48.6Z</time></trkpt><trkpt lat="45.1134475" lon="7.0399475"><ele>1216.0</ele><time>2026-04-04T15:04:49.6Z</time></trkpt><trkpt lat="45.1134123" lon="7.0398311"><ele>1216.0</ele><time>2026-04-04T15:04:50.599Z</time></trkpt><trkpt lat="45.1133849" lon="7.0397159"><ele>1216.0</ele><time>2026-04-04T15:04:51.6Z</time></trkpt><trkpt lat="45.1133734" lon="7.0395848"><ele>1216.0</ele><time>2026-04-04T15:04:52.6Z</time></trkpt><trkpt lat="45.1133713" lon="7.0394398"><ele>1216.0</ele><time>2026-04-04T15:04:53.601Z</time></trkpt><trkpt lat="45.1133533" lon="7.0392892"><ele>1216.0</ele><time>2026-04-04T15:04:54.6Z</time></trkpt><trkpt lat="45.1133128" lon="7.0391226"><ele>1216.0</ele><time>2026-04-04T15:04:55.601Z</time></trkpt><trkpt lat="45.1132546" lon="7.0389549"><ele>1227.5</ele><time>2026-04-04T15:04:56.6Z</time></trkpt><trkpt lat="45.1131925" lon="7.0387915"><ele>1239.0</ele><time>2026-04-04T15:04:57.601Z</time></trkpt><trkpt lat="45.113135" lon="7.0386265"><ele>1250.5</ele><time>2026-04-04T15:04:58.599Z</time></trkpt><trkpt lat="45.1130999" lon="7.0384595"><ele>1262.0</ele><time>2026-04-04T15:04:59.6Z</time></trkpt><trkpt lat="45.1130945" lon="7.0382954"><ele>1262.6</ele><time>2026-04-04T15:05:00.6Z</time></trkpt><trkpt lat="45.1131169" lon="7.0381389"><ele>1263.2</ele><time>2026-04-04T15:05:01.6Z</time></trkpt><trkpt lat="45.1131674" lon="7.0380051"><ele>1263.8</ele><time>2026-04-04T15:05:02.601Z</time></trkpt><trkpt lat="45.1132185" lon="7.0378708"><ele>1264.4</ele><time>2026-04-04T15:05:03.6Z</time></trkpt><trkpt lat="45.1132436" lon="7.0377342"><ele>1265.0</ele><time>2026-04-04T15:05:04.6Z</time></trkpt><trkpt lat="45.1132352" lon="7.0375946"><ele>1264.25</ele><time>2026-04-04T15:05:05.601Z</time></trkpt><trkpt lat="45.1132013" lon="7.0374228"><ele>1263.5</ele><time>2026-04-04T15:05:06.6Z</time></trkpt><trkpt lat="45.113159" lon="7.0372454"><ele>1262.75</ele><time>2026-04-04T15:05:07.6Z</time></trkpt><trkpt lat="45.1131137" lon="7.0370591"><ele>1262.0</ele><time>2026-04-04T15:05:08.6Z</time></trkpt><trkpt lat="45.1130687" lon="7.0368684"><ele>1262.0</ele><time>2026-04-04T15:05:09.6Z</time></trkpt><trkpt lat="45.1130194" lon="7.0366833"><ele>1262.0</ele><time>2026-04-04T15:05:10.6Z</time></trkpt><trkpt lat="45.1129612" lon="7.0365045"><ele>1262.0</ele><time>2026-04-04T15:05:11.6Z</time></trkpt><trkpt lat="45.1128972" lon="7.0363311"><ele>1262.0</ele><time>2026-04-04T15:05:12.6Z</time></trkpt><trkpt lat="45.1128425" lon="7.0361551"><ele>1261.25</ele><time>2026-04-04T15:05:13.601Z</time></trkpt><trkpt lat="45.1128072" lon="7.0359741"><ele>1260.5</ele><time>2026-04-04T15:05:14.6Z</time></trkpt><trkpt lat="45.112802" lon="7.0357905"><ele>1259.75</ele><time>2026-04-04T15:05:15.6Z</time></trkpt><trkpt lat="45.1128279" lon="7.0356288"><ele>1259.0</ele><time>2026-04-04T15:05:16.601Z</time></trkpt><trkpt lat="45.1128892" lon="7.0355087"><ele>1259.0</ele><time>2026-04-04T15:05:17.6Z</time></trkpt><trkpt lat="45.1129699" lon="7.0354433"><ele>1259.0</ele><time>2026-04-04T15:05:18.6Z</time></trkpt><trkpt lat="45.1130551" lon="7.0353837"><ele>1259.0</ele><time>2026-04-04T15:05:19.6Z</time></trkpt><trkpt lat="45.1131134" lon="7.0353055"><ele>1259.0</ele><time>2026-04-04T15:05:20.601Z</time></trkpt><trkpt lat="45.1131382" lon="7.0352196"><ele>1259.0</ele><time>2026-04-04T15:05:21.6Z</time></trkpt><trkpt lat="45.1131229" lon="7.0351222"><ele>1259.0</ele><time>2026-04-04T15:05:22.6Z</time></trkpt><trkpt lat="45.1130738" lon="7.0350354"><ele>1260.0</ele><time>2026-04-04T15:05:23.599Z</time></trkpt><trkpt lat="45.1130089" lon="7.0349441"><ele>1261.0</ele><time>2026-04-04T15:05:24.6Z</time></trkpt><trkpt lat="45.112939" lon="7.0348403"><ele>1262.0</ele><time>2026-04-04T15:05:25.6Z</time></trkpt><trkpt lat="45.1128741" lon="7.034723"><ele>1263.0</ele><time>2026-04-04T15:05:26.601Z</time></trkpt><trkpt lat="45.1128258" lon="7.034587"><ele>1264.0</ele><time>2026-04-04T15:05:27.601Z</time></trkpt><trkpt lat="45.1128034" lon="7.0344328"><ele>1264.0</ele><time>2026-04-04T15:05:28.6Z</time></trkpt><trkpt lat="45.1128087" lon="7.0342801"><ele>1264.0</ele><time>2026-04-04T15:05:29.6Z</time></trkpt><trkpt lat="45.1128338" lon="7.034131"><ele>1264.0</ele><time>2026-04-04T15:05:30.6Z</time></trkpt><trkpt lat="45.1128666" lon="7.0339872"><ele>1264.0</ele><time>2026-04-04T15:05:31.599Z</time></trkpt><trkpt lat="45.1128901" lon="7.033858"><ele>1264.0</ele><time>2026-04-04T15:05:32.6Z</time></trkpt><trkpt lat="45.1128883" lon="7.0337112"><ele>1263.8</ele><time>2026-04-04T15:05:33.6Z</time></trkpt><trkpt lat="45.1128541" lon="7.0335998"><ele>1263.6000000000001</ele><time>2026-04-04T15:05:34.6Z</time></trkpt><trkpt lat="45.112792" lon="7.0335036"><ele>1263.4</ele><time>2026-04-04T15:05:35.6Z</time></trkpt><trkpt lat="45.1127156" lon="7.0334204"><ele>1263.2</ele><time>2026-04-04T15:05:36.6Z</time></trkpt><trkpt lat="45.112635" lon="7.033361"><ele>1263.0</ele><time>2026-04-04T15:05:37.6Z</time></trkpt><trkpt lat="45.1125337" lon="7.0333154"><ele>1261.4</ele><time>2026-04-04T15:05:38.6Z</time></trkpt><trkpt lat="45.1124338" lon="7.0332832"><ele>1259.8</ele><time>2026-04-04T15:05:39.6Z</time></trkpt><trkpt lat="45.1123344" lon="7.0332414"><ele>1258.2</ele><time>2026-04-04T15:05:40.6Z</time></trkpt><trkpt lat="45.112236" lon="7.0331891"><ele>1256.6</ele><time>2026-04-04T15:05:41.6Z</time></trkpt><trkpt lat="45.1121354" lon="7.0331271"><ele>1255.0</ele><time>2026-04-04T15:05:42.6Z</time></trkpt><trkpt lat="45.1120325" lon="7.0330481"><ele>1260.0</ele><time>2026-04-04T15:05:43.6Z</time></trkpt><trkpt lat="45.1119268" lon="7.0329658"><ele>1265.0</ele><time>2026-04-04T15:05:44.601Z</time></trkpt><trkpt lat="45.1118169" lon="7.0328772"><ele>1270.0</ele><time>2026-04-04T15:05:45.599Z</time></trkpt><trkpt lat="45.111697" lon="7.0327721"><ele>1275.0</ele><time>2026-04-04T15:05:46.6Z</time></trkpt><trkpt lat="45.1115708" lon="7.0326627"><ele>1280.3333333333333</ele><time>2026-04-04T15:05:47.6Z</time></trkpt><trkpt lat="45.1114482" lon="7.0325552"><ele>1285.6666666666665</ele><time>2026-04-04T15:05:48.599Z</time></trkpt><trkpt lat="45.1113158" lon="7.0324397"><ele>1291.0</ele><time>2026-04-04T15:05:49.6Z</time></trkpt><trkpt lat="45.1111876" lon="7.0323205"><ele>1291.0</ele><time>2026-04-04T15:05:50.599Z</time></trkpt><trkpt lat="45.1110637" lon="7.0321832"><ele>1291.0</ele><time>2026-04-04T15:05:51.599Z</time></trkpt><trkpt lat="45.1109677" lon="7.0320323"><ele>1291.0</ele><time>2026-04-04T15:05:52.599Z</time></trkpt><trkpt lat="45.1108803" lon="7.0318777"><ele>1291.0</ele><time>2026-04-04T15:05:53.6Z</time></trkpt><trkpt lat="45.1108013" lon="7.0317061"><ele>1295.5</ele><time>2026-04-04T15:05:54.599Z</time></trkpt><trkpt lat="45.1107288" lon="7.0315619"><ele>1300.0</ele><time>2026-04-04T15:05:55.599Z</time></trkpt><trkpt lat="45.11064" lon="7.0314541"><ele>1304.5</ele><time>2026-04-04T15:05:56.598Z</time></trkpt><trkpt lat="45.1105356" lon="7.0313775"><ele>1309.0</ele><time>2026-04-04T15:05:57.6Z</time></trkpt><trkpt lat="45.110426" lon="7.0313042"><ele>1309.0</ele><time>2026-04-04T15:05:58.599Z</time></trkpt><trkpt lat="45.1103279" lon="7.0312014"><ele>1309.0</ele><time>2026-04-04T15:05:59.598Z</time></trkpt><trkpt lat="45.1102522" lon="7.0310611"><ele>1309.0</ele><time>2026-04-04T15:06:00.598Z</time></trkpt><trkpt lat="45.1102016" lon="7.0308993"><ele>1309.0</ele><time>2026-04-04T15:06:01.6Z</time></trkpt><trkpt lat="45.1101671" lon="7.0307264"><ele>1307.5</ele><time>2026-04-04T15:06:02.599Z</time></trkpt><trkpt lat="45.1101262" lon="7.0305528"><ele>1306.0</ele><time>2026-04-04T15:06:03.6Z</time></trkpt><trkpt lat="45.1100766" lon="7.030381"><ele>1304.5</ele><time>2026-04-04T15:06:04.599Z</time></trkpt><trkpt lat="45.1100244" lon="7.030211"><ele>1303.0</ele><time>2026-04-04T15:06:05.599Z</time></trkpt><trkpt lat="45.1099643" lon="7.0300712"><ele>1304.0</ele><time>2026-04-04T15:06:06.598Z</time></trkpt><trkpt lat="45.1098864" lon="7.0299703"><ele>1305.0</ele><time>2026-04-04T15:06:07.598Z</time></trkpt><trkpt lat="45.1097941" lon="7.0299094"><ele>1306.0</ele><time>2026-04-04T15:06:08.6Z</time></trkpt><trkpt lat="45.1096978" lon="7.0298948"><ele>1307.0</ele><time>2026-04-04T15:06:09.599Z</time></trkpt><trkpt lat="45.1095876" lon="7.0299288"><ele>1308.0</ele><time>2026-04-04T15:06:10.6Z</time></trkpt><trkpt lat="45.1094829" lon="7.0300097"><ele>1308.0</ele><time>2026-04-04T15:06:11.599Z</time></trkpt><trkpt lat="45.1093812" lon="7.0301185"><ele>1308.0</ele><time>2026-04-04T15:06:12.6Z</time></trkpt><trkpt lat="45.1092763" lon="7.0302368"><ele>1308.0</ele><time>2026-04-04T15:06:13.598Z</time></trkpt><trkpt lat="45.1091608" lon="7.0303407"><ele>1308.0</ele><time>2026-04-04T15:06:14.6Z</time></trkpt><trkpt lat="45.1090357" lon="7.0304187"><ele>1310.25</ele><time>2026-04-04T15:06:15.598Z</time></trkpt><trkpt lat="45.1089038" lon="7.0304818"><ele>1312.5</ele><time>2026-04-04T15:06:16.6Z</time></trkpt><trkpt lat="45.1087689" lon="7.0305392"><ele>1314.75</ele><time>2026-04-04T15:06:17.599Z</time></trkpt><trkpt lat="45.1086343" lon="7.030594"><ele>1317.0</ele><time>2026-04-04T15:06:18.599Z</time></trkpt><trkpt lat="45.108498" lon="7.0306557"><ele>1317.0</ele><time>2026-04-04T15:06:19.599Z</time></trkpt><trkpt lat="45.1083679" lon="7.0307091"><ele>1317.0</ele><time>2026-04-04T15:06:20.599Z</time></trkpt><trkpt lat="45.108254" lon="7.0307511"><ele>1317.0</ele><time>2026-04-04T15:06:21.598Z</time></trkpt><trkpt lat="45.1081422" lon="7.0307716"><ele>1317.0</ele><time>2026-04-04T15:06:22.599Z</time></trkpt><trkpt lat="45.1080397" lon="7.0307459"><ele>1320.0</ele><time>2026-04-04T15:06:23.599Z</time></trkpt><trkpt lat="45.1079505" lon="7.0306769"><ele>1323.0</ele><time>2026-04-04T15:06:24.599Z</time></trkpt><trkpt lat="45.1078895" lon="7.0305721"><ele>1326.0</ele><time>2026-04-04T15:06:25.599Z</time></trkpt><trkpt lat="45.1078376" lon="7.0304292"><ele>1329.0</ele><time>2026-04-04T15:06:26.6Z</time></trkpt><trkpt lat="45.1077848" lon="7.0302993"><ele>1332.0</ele><time>2026-04-04T15:06:27.6Z</time></trkpt><trkpt lat="45.1077145" lon="7.0302004"><ele>1332.0</ele><time>2026-04-04T15:06:28.598Z</time></trkpt><trkpt lat="45.1076152" lon="7.0301344"><ele>1332.0</ele><time>2026-04-04T15:06:29.599Z</time></trkpt><trkpt lat="45.1075019" lon="7.0301101"><ele>1332.0</ele><time>2026-04-04T15:06:30.599Z</time></trkpt><trkpt lat="45.1073761" lon="7.0300894"><ele>1332.0</ele><time>2026-04-04T15:06:31.599Z</time></trkpt><trkpt lat="45.1072449" lon="7.0300455"><ele>1331.0</ele><time>2026-04-04T15:06:32.599Z</time></trkpt><trkpt lat="45.1071144" lon="7.0299808"><ele>1330.0</ele><time>2026-04-04T15:06:33.599Z</time></trkpt><trkpt lat="45.1069804" lon="7.0299354"><ele>1329.0</ele><time>2026-04-04T15:06:34.6Z</time></trkpt><trkpt lat="45.106842" lon="7.0299136"><ele>1328.0</ele><time>2026-04-04T15:06:35.6Z</time></trkpt><trkpt lat="45.1067063" lon="7.0299142"><ele>1332.0</ele><time>2026-04-04T15:06:36.599Z</time></trkpt><trkpt lat="45.1065483" lon="7.0299225"><ele>1336.0</ele><time>2026-04-04T15:06:37.599Z</time></trkpt><trkpt lat="45.1063936" lon="7.029902"><ele>1340.0</ele><time>2026-04-04T15:06:38.6Z</time></trkpt><trkpt lat="45.1062385" lon="7.0298595"><ele>1340.0</ele><time>2026-04-04T15:06:39.6Z</time></trkpt><trkpt lat="45.1060807" lon="7.0298076"><ele>1340.0</ele><time>2026-04-04T15:06:40.598Z</time></trkpt><trkpt lat="45.1059328" lon="7.0297611"><ele>1340.0</ele><time>2026-04-04T15:06:41.6Z</time></trkpt><trkpt lat="45.1057726" lon="7.0296775"><ele>1346.3333333333335</ele><time>2026-04-04T15:06:42.6Z</time></trkpt><trkpt lat="45.1056337" lon="7.0295665"><ele>1352.6666666666667</ele><time>2026-04-04T15:06:43.599Z</time></trkpt><trkpt lat="45.1055098" lon="7.0294435"><ele>1359.0</ele><time>2026-04-04T15:06:44.6Z</time></trkpt><trkpt lat="45.1053693" lon="7.0293043"><ele>1359.0</ele><time>2026-04-04T15:06:45.598Z</time></trkpt><trkpt lat="45.1052351" lon="7.0291757"><ele>1359.0</ele><time>2026-04-04T15:06:46.599Z</time></trkpt><trkpt lat="45.1050989" lon="7.0290551"><ele>1359.0</ele><time>2026-04-04T15:06:47.599Z</time></trkpt><trkpt lat="45.104959" lon="7.0289368"><ele>1362.0</ele><time>2026-04-04T15:06:48.599Z</time></trkpt><trkpt lat="45.1048185" lon="7.0288203"><ele>1365.0</ele><time>2026-04-04T15:06:49.598Z</time></trkpt><trkpt lat="45.104685" lon="7.0286948"><ele>1368.0</ele><time>2026-04-04T15:06:50.599Z</time></trkpt><trkpt lat="45.1045556" lon="7.0285552"><ele>1368.0</ele><time>2026-04-04T15:06:51.6Z</time></trkpt><trkpt lat="45.104443" lon="7.028412"><ele>1368.0</ele><time>2026-04-04T15:06:52.599Z</time></trkpt><trkpt lat="45.1043397" lon="7.0282295"><ele>1368.0</ele><time>2026-04-04T15:06:53.599Z</time></trkpt><trkpt lat="45.1042694" lon="7.0280361"><ele>1366.3333333333333</ele><time>2026-04-04T15:06:54.598Z</time></trkpt><trkpt lat="45.104226" lon="7.0278278"><ele>1364.6666666666665</ele><time>2026-04-04T15:06:55.598Z</time></trkpt><trkpt lat="45.1041989" lon="7.0276125"><ele>1363.0</ele><time>2026-04-04T15:06:56.599Z</time></trkpt><trkpt lat="45.1041768" lon="7.0274055"><ele>1362.3333333333333</ele><time>2026-04-04T15:06:57.599Z</time></trkpt><trkpt lat="45.1041424" lon="7.027169"><ele>1361.6666666666667</ele><time>2026-04-04T15:06:58.599Z</time></trkpt><trkpt lat="45.1040991" lon="7.0269512"><ele>1361.0</ele><time>2026-04-04T15:06:59.599Z</time></trkpt><trkpt lat="45.1040523" lon="7.0267532"><ele>1368.6666666666667</ele><time>2026-04-04T15:07:00.599Z</time></trkpt><trkpt lat="45.1039837" lon="7.0265455"><ele>1376.3333333333333</ele><time>2026-04-04T15:07:01.599Z</time></trkpt><trkpt lat="45.103901" lon="7.0263751"><ele>1384.0</ele><time>2026-04-04T15:07:02.599Z</time></trkpt><trkpt lat="45.1038039" lon="7.0262283"><ele>1384.0</ele><time>2026-04-04T15:07:03.6Z</time></trkpt><trkpt lat="45.103699" lon="7.0260987"><ele>1384.0</ele><time>2026-04-04T15:07:04.599Z</time></trkpt><trkpt lat="45.1035998" lon="7.0259872"><ele>1384.0</ele><time>2026-04-04T15:07:05.599Z</time></trkpt><trkpt lat="45.1035148" lon="7.0258976"><ele>1384.0</ele><time>2026-04-04T15:07:06.599Z</time></trkpt><trkpt lat="45.1034516" lon="7.025822"><ele>1386.0</ele><time>2026-04-04T15:07:07.599Z</time></trkpt><trkpt lat="45.1034054" lon="7.025679"><ele>1388.0</ele><time>2026-04-04T15:07:09.599Z</time></trkpt><trkpt lat="45.1034363" lon="7.02551"><ele>1390.0</ele><time>2026-04-04T15:07:11.6Z</time></trkpt><trkpt lat="45.1034677" lon="7.0254248"><ele>1392.0</ele><time>2026-04-04T15:07:12.599Z</time></trkpt><trkpt lat="45.1035175" lon="7.025363"><ele>1394.0</ele><time>2026-04-04T15:07:13.598Z</time></trkpt><trkpt lat="45.1035939" lon="7.0253243"><ele>1396.0</ele><time>2026-04-04T15:07:14.599Z</time></trkpt><trkpt lat="45.1036775" lon="7.0252972"><ele>1396.0</ele><time>2026-04-04T15:07:15.6Z</time></trkpt><trkpt lat="45.1037683" lon="7.025261"><ele>1396.0</ele><time>2026-04-04T15:07:16.598Z</time></trkpt><trkpt lat="45.1038764" lon="7.0252142"><ele>1396.0</ele><time>2026-04-04T15:07:17.599Z</time></trkpt><trkpt lat="45.1039717" lon="7.0251606"><ele>1396.0</ele><time>2026-04-04T15:07:18.599Z</time></trkpt><trkpt lat="45.1040452" lon="7.0250801"><ele>1396.0</ele><time>2026-04-04T15:07:19.6Z</time></trkpt><trkpt lat="45.1040874" lon="7.0249615"><ele>1391.75</ele><time>2026-04-04T15:07:20.599Z</time></trkpt><trkpt lat="45.1041116" lon="7.024806"><ele>1387.5</ele><time>2026-04-04T15:07:21.599Z</time></trkpt><trkpt lat="45.1041352" lon="7.0246244"><ele>1383.25</ele><time>2026-04-04T15:07:22.599Z</time></trkpt><trkpt lat="45.1041752" lon="7.024432"><ele>1379.0</ele><time>2026-04-04T15:07:23.598Z</time></trkpt><trkpt lat="45.1042333" lon="7.0242651"><ele>1381.0</ele><time>2026-04-04T15:07:24.599Z</time></trkpt><trkpt lat="45.1043138" lon="7.0240969"><ele>1383.0</ele><time>2026-04-04T15:07:25.6Z</time></trkpt><trkpt lat="45.1043837" lon="7.0239459"><ele>1385.0</ele><time>2026-04-04T15:07:26.599Z</time></trkpt><trkpt lat="45.1044286" lon="7.0237891"><ele>1387.0</ele><time>2026-04-04T15:07:27.599Z</time></trkpt><trkpt lat="45.1044464" lon="7.0236266"><ele>1387.0</ele><time>2026-04-04T15:07:28.599Z</time></trkpt><trkpt lat="45.1044375" lon="7.0234652"><ele>1387.0</ele><time>2026-04-04T15:07:29.6Z</time></trkpt><trkpt lat="45.1043971" lon="7.0232805"><ele>1387.0</ele><time>2026-04-04T15:07:30.599Z</time></trkpt><trkpt lat="45.1043381" lon="7.0231118"><ele>1387.0</ele><time>2026-04-04T15:07:31.6Z</time></trkpt><trkpt lat="45.1042724" lon="7.0229549"><ele>1386.75</ele><time>2026-04-04T15:07:32.599Z</time></trkpt><trkpt lat="45.1042167" lon="7.0227613"><ele>1386.5</ele><time>2026-04-04T15:07:33.599Z</time></trkpt><trkpt lat="45.1041974" lon="7.0225731"><ele>1386.25</ele><time>2026-04-04T15:07:34.598Z</time></trkpt><trkpt lat="45.104204" lon="7.0223778"><ele>1386.0</ele><time>2026-04-04T15:07:35.599Z</time></trkpt><trkpt lat="45.1042212" lon="7.0221778"><ele>1387.3333333333333</ele><time>2026-04-04T15:07:36.599Z</time></trkpt><trkpt lat="45.1042396" lon="7.0219706"><ele>1388.6666666666665</ele><time>2026-04-04T15:07:37.599Z</time></trkpt><trkpt lat="45.1042546" lon="7.0217571"><ele>1390.0</ele><time>2026-04-04T15:07:38.599Z</time></trkpt><trkpt lat="45.1042689" lon="7.0215415"><ele>1392.5</ele><time>2026-04-04T15:07:39.599Z</time></trkpt><trkpt lat="45.1042861" lon="7.0213278"><ele>1395.0</ele><time>2026-04-04T15:07:40.599Z</time></trkpt><trkpt lat="45.1043164" lon="7.0211284"><ele>1397.5</ele><time>2026-04-04T15:07:41.598Z</time></trkpt><trkpt lat="45.1043734" lon="7.0209619"><ele>1400.0</ele><time>2026-04-04T15:07:42.598Z</time></trkpt><trkpt lat="45.1044446" lon="7.0208201"><ele>1402.5</ele><time>2026-04-04T15:07:43.599Z</time></trkpt><trkpt lat="45.1044873" lon="7.0206684"><ele>1405.0</ele><time>2026-04-04T15:07:44.599Z</time></trkpt><trkpt lat="45.1044969" lon="7.0205118"><ele>1407.5</ele><time>2026-04-04T15:07:45.599Z</time></trkpt><trkpt lat="45.104481" lon="7.0203102"><ele>1410.0</ele><time>2026-04-04T15:07:46.599Z</time></trkpt><trkpt lat="45.1044619" lon="7.0201193"><ele>1413.75</ele><time>2026-04-04T15:07:47.599Z</time></trkpt><trkpt lat="45.1044352" lon="7.0199319"><ele>1417.5</ele><time>2026-04-04T15:07:48.6Z</time></trkpt><trkpt lat="45.1044155" lon="7.0197609"><ele>1421.25</ele><time>2026-04-04T15:07:49.599Z</time></trkpt><trkpt lat="45.1044059" lon="7.0195865"><ele>1425.0</ele><time>2026-04-04T15:07:50.599Z</time></trkpt><trkpt lat="45.1044253" lon="7.0194175"><ele>1425.0</ele><time>2026-04-04T15:07:51.599Z</time></trkpt><trkpt lat="45.1044722" lon="7.0192664"><ele>1425.0</ele><time>2026-04-04T15:07:52.599Z</time></trkpt><trkpt lat="45.104532" lon="7.0191121"><ele>1425.0</ele><time>2026-04-04T15:07:53.6Z</time></trkpt><trkpt lat="45.1045871" lon="7.0189396"><ele>1425.0</ele><time>2026-04-04T15:07:54.599Z</time></trkpt><trkpt lat="45.1046367" lon="7.0187486"><ele>1432.0</ele><time>2026-04-04T15:07:55.599Z</time></trkpt><trkpt lat="45.1046826" lon="7.01854"><ele>1439.0</ele><time>2026-04-04T15:07:56.6Z</time></trkpt><trkpt lat="45.1047249" lon="7.0183238"><ele>1446.0</ele><time>2026-04-04T15:07:57.598Z</time></trkpt><trkpt lat="45.1047707" lon="7.0181097"><ele>1444.25</ele><time>2026-04-04T15:07:58.599Z</time></trkpt><trkpt lat="45.1048271" lon="7.0179031"><ele>1442.5</ele><time>2026-04-04T15:07:59.599Z</time></trkpt><trkpt lat="45.1048749" lon="7.017698"><ele>1440.75</ele><time>2026-04-04T15:08:00.6Z</time></trkpt><trkpt lat="45.1049049" lon="7.017509"><ele>1439.0</ele><time>2026-04-04T15:08:01.598Z</time></trkpt><trkpt lat="45.1049457" lon="7.0172986"><ele>1439.0</ele><time>2026-04-04T15:08:02.599Z</time></trkpt><trkpt lat="45.1050049" lon="7.0171364"><ele>1439.0</ele><time>2026-04-04T15:08:03.599Z</time></trkpt><trkpt lat="45.1050831" lon="7.0170203"><ele>1439.0</ele><time>2026-04-04T15:08:04.598Z</time></trkpt><trkpt lat="45.1051663" lon="7.0169055"><ele>1439.0</ele><time>2026-04-04T15:08:05.6Z</time></trkpt><trkpt lat="45.105234" lon="7.0167715"><ele>1442.5</ele><time>2026-04-04T15:08:06.599Z</time></trkpt><trkpt lat="45.1052787" lon="7.0166116"><ele>1446.0</ele><time>2026-04-04T15:08:07.599Z</time></trkpt><trkpt lat="45.1053123" lon="7.0164282"><ele>1449.5</ele><time>2026-04-04T15:08:08.6Z</time></trkpt><trkpt lat="45.1053418" lon="7.0162243"><ele>1453.0</ele><time>2026-04-04T15:08:09.598Z</time></trkpt><trkpt lat="45.1053689" lon="7.0159953"><ele>1456.3333333333333</ele><time>2026-04-04T15:08:10.6Z</time></trkpt><trkpt lat="45.1053895" lon="7.0157481"><ele>1459.6666666666667</ele><time>2026-04-04T15:08:11.599Z</time></trkpt><trkpt lat="45.1054088" lon="7.0155034"><ele>1463.0</ele><time>2026-04-04T15:08:12.6Z</time></trkpt><trkpt lat="45.1054258" lon="7.0152575"><ele>1463.0</ele><time>2026-04-04T15:08:13.6Z</time></trkpt><trkpt lat="45.1054424" lon="7.0150148"><ele>1463.0</ele><time>2026-04-04T15:08:14.599Z</time></trkpt><trkpt lat="45.1054583" lon="7.0147825"><ele>1463.0</ele><time>2026-04-04T15:08:15.599Z</time></trkpt><trkpt lat="45.1054763" lon="7.014562"><ele>1464.25</ele><time>2026-04-04T15:08:16.598Z</time></trkpt><trkpt lat="45.1054937" lon="7.0143657"><ele>1465.5</ele><time>2026-04-04T15:08:17.6Z</time></trkpt><trkpt lat="45.1055163" lon="7.0141557"><ele>1466.75</ele><time>2026-04-04T15:08:18.6Z</time></trkpt><trkpt lat="45.1055584" lon="7.0139687"><ele>1468.0</ele><time>2026-04-04T15:08:19.599Z</time></trkpt><trkpt lat="45.1055961" lon="7.0137955"><ele>1468.0</ele><time>2026-04-04T15:08:20.599Z</time></trkpt><trkpt lat="45.1056276" lon="7.0136244"><ele>1468.0</ele><time>2026-04-04T15:08:21.6Z</time></trkpt><trkpt lat="45.1056371" lon="7.0134469"><ele>1468.0</ele><time>2026-04-04T15:08:22.598Z</time></trkpt><trkpt lat="45.1056201" lon="7.0132635"><ele>1468.0</ele><time>2026-04-04T15:08:23.599Z</time></trkpt><trkpt lat="45.1055807" lon="7.0130829"><ele>1466.25</ele><time>2026-04-04T15:08:24.599Z</time></trkpt><trkpt lat="45.1055258" lon="7.0128986"><ele>1464.5</ele><time>2026-04-04T15:08:25.599Z</time></trkpt><trkpt lat="45.1054648" lon="7.0127107"><ele>1462.75</ele><time>2026-04-04T15:08:26.599Z</time></trkpt><trkpt lat="45.1054015" lon="7.0125178"><ele>1461.0</ele><time>2026-04-04T15:08:27.599Z</time></trkpt><trkpt lat="45.1053399" lon="7.0123423"><ele>1459.0</ele><time>2026-04-04T15:08:28.599Z</time></trkpt><trkpt lat="45.1052519" lon="7.0121669"><ele>1457.0</ele><time>2026-04-04T15:08:29.6Z</time></trkpt><trkpt lat="45.1051485" lon="7.0120184"><ele>1455.0</ele><time>2026-04-04T15:08:30.599Z</time></trkpt><trkpt lat="45.1050417" lon="7.0118842"><ele>1453.0</ele><time>2026-04-04T15:08:31.6Z</time></trkpt><trkpt lat="45.1049312" lon="7.0117532"><ele>1461.75</ele><time>2026-04-04T15:08:32.598Z</time></trkpt><trkpt lat="45.104838" lon="7.0116418"><ele>1470.5</ele><time>2026-04-04T15:08:33.6Z</time></trkpt><trkpt lat="45.1047448" lon="7.0114994"><ele>1479.25</ele><time>2026-04-04T15:08:34.599Z</time></trkpt><trkpt lat="45.1046799" lon="7.0113504"><ele>1488.0</ele><time>2026-04-04T15:08:35.599Z</time></trkpt><trkpt lat="45.104632" lon="7.0111981"><ele>1488.0</ele><time>2026-04-04T15:08:36.599Z</time></trkpt><trkpt lat="45.1045895" lon="7.011012"><ele>1488.0</ele><time>2026-04-04T15:08:37.6Z</time></trkpt><trkpt lat="45.1045563" lon="7.0108276"><ele>1488.0</ele><time>2026-04-04T15:08:38.599Z</time></trkpt><trkpt lat="45.1045338" lon="7.0106353"><ele>1488.0</ele><time>2026-04-04T15:08:39.6Z</time></trkpt><trkpt lat="45.1045271" lon="7.0104458"><ele>1486.5</ele><time>2026-04-04T15:08:40.6Z</time></trkpt><trkpt lat="45.1045257" lon="7.0102532"><ele>1485.0</ele><time>2026-04-04T15:08:41.598Z</time></trkpt><trkpt lat="45.1045164" lon="7.0100644"><ele>1483.5</ele><time>2026-04-04T15:08:42.6Z</time></trkpt><trkpt lat="45.1044918" lon="7.0098802"><ele>1482.0</ele><time>2026-04-04T15:08:43.598Z</time></trkpt><trkpt lat="45.1044546" lon="7.0097037"><ele>1480.25</ele><time>2026-04-04T15:08:44.599Z</time></trkpt><trkpt lat="45.1044206" lon="7.0095093"><ele>1478.5</ele><time>2026-04-04T15:08:45.599Z</time></trkpt><trkpt lat="45.1044006" lon="7.0093346"><ele>1476.75</ele><time>2026-04-04T15:08:46.6Z</time></trkpt><trkpt lat="45.1043791" lon="7.0091714"><ele>1475.0</ele><time>2026-04-04T15:08:47.598Z</time></trkpt><trkpt lat="45.1043341" lon="7.0090233"><ele>1471.5</ele><time>2026-04-04T15:08:48.598Z</time></trkpt><trkpt lat="45.1042743" lon="7.0088894"><ele>1468.0</ele><time>2026-04-04T15:08:49.598Z</time></trkpt><trkpt lat="45.1041984" lon="7.0087365"><ele>1464.5</ele><time>2026-04-04T15:08:50.598Z</time></trkpt><trkpt lat="45.1041306" lon="7.0085911"><ele>1461.0</ele><time>2026-04-04T15:08:51.598Z</time></trkpt><trkpt lat="45.1040706" lon="7.0084546"><ele>1465.0</ele><time>2026-04-04T15:08:52.598Z</time></trkpt><trkpt lat="45.1040049" lon="7.0083165"><ele>1469.0</ele><time>2026-04-04T15:08:53.597Z</time></trkpt><trkpt lat="45.1039479" lon="7.0082094"><ele>1473.0</ele><time>2026-04-04T15:08:54.598Z</time></trkpt><trkpt lat="45.1038941" lon="7.0081221"><ele>1477.0</ele><time>2026-04-04T15:08:55.599Z</time></trkpt><trkpt lat="45.1038476" lon="7.008055"><ele>1481.0</ele><time>2026-04-04T15:08:56.598Z</time></trkpt><trkpt lat="45.1037626" lon="7.0080084"><ele>1481.0000000000002</ele><time>2026-04-04T15:08:58.597Z</time></trkpt><trkpt lat="45.1037061" lon="7.0080603"><ele>1481.0</ele><time>2026-04-04T15:09:00.597Z</time></trkpt><trkpt lat="45.1036639" lon="7.0081332"><ele>1481.0</ele><time>2026-04-04T15:09:03.598Z</time></trkpt><trkpt lat="45.1036849" lon="7.0080476"><ele>1481.0</ele><time>2026-04-04T15:11:24.598Z</time></trkpt><trkpt lat="45.1037513" lon="7.0080423"><ele>1481.0</ele><time>2026-04-04T15:11:28.599Z</time></trkpt><trkpt lat="45.1038139" lon="7.0080254"><ele>1481.0000000000002</ele><time>2026-04-04T15:14:22.598Z</time></trkpt><trkpt lat="45.1038745" lon="7.0080885"><ele>1481.0</ele><time>2026-04-04T15:14:25.598Z</time></trkpt><trkpt lat="45.1039571" lon="7.0082078"><ele>1481.0</ele><time>2026-04-04T15:14:27.598Z</time></trkpt><trkpt lat="45.1040007" lon="7.0082862"><ele>1481.0</ele><time>2026-04-04T15:14:28.597Z</time></trkpt><trkpt lat="45.1040447" lon="7.0083743"><ele>1481.0</ele><time>2026-04-04T15:14:29.597Z</time></trkpt><trkpt lat="45.1040892" lon="7.0084752"><ele>1481.0</ele><time>2026-04-04T15:14:30.597Z</time></trkpt><trkpt lat="45.1041334" lon="7.0085835"><ele>1481.0</ele><time>2026-04-04T15:14:31.597Z</time></trkpt><trkpt lat="45.1041831" lon="7.0086923"><ele>1481.0</ele><time>2026-04-04T15:14:32.597Z</time></trkpt><trkpt lat="45.10424" lon="7.0088043"><ele>1479.8</ele><time>2026-04-04T15:14:33.597Z</time></trkpt><trkpt lat="45.1042957" lon="7.0089188"><ele>1478.6</ele><time>2026-04-04T15:14:34.595Z</time></trkpt><trkpt lat="45.1043428" lon="7.0090444"><ele>1477.4</ele><time>2026-04-04T15:14:35.596Z</time></trkpt><trkpt lat="45.1043754" lon="7.0091795"><ele>1476.2</ele><time>2026-04-04T15:14:36.595Z</time></trkpt><trkpt lat="45.1043887" lon="7.0093151"><ele>1475.0</ele><time>2026-04-04T15:14:37.596Z</time></trkpt><trkpt lat="45.1043992" lon="7.0094562"><ele>1475.0</ele><time>2026-04-04T15:14:38.597Z</time></trkpt><trkpt lat="45.1044236" lon="7.0096003"><ele>1475.0</ele><time>2026-04-04T15:14:39.595Z</time></trkpt><trkpt lat="45.1044574" lon="7.0097337"><ele>1475.0</ele><time>2026-04-04T15:14:40.596Z</time></trkpt><trkpt lat="45.1044941" lon="7.0098661"><ele>1475.0</ele><time>2026-04-04T15:14:41.595Z</time></trkpt><trkpt lat="45.1045108" lon="7.0099992"><ele>1475.0</ele><time>2026-04-04T15:14:42.597Z</time></trkpt><trkpt lat="45.1045218" lon="7.0101437"><ele>1476.4</ele><time>2026-04-04T15:14:43.597Z</time></trkpt><trkpt lat="45.1045062" lon="7.0102895"><ele>1477.8</ele><time>2026-04-04T15:14:44.597Z</time></trkpt><trkpt lat="45.1045028" lon="7.0104319"><ele>1479.1999999999998</ele><time>2026-04-04T15:14:45.596Z</time></trkpt><trkpt lat="45.1045195" lon="7.0105718"><ele>1480.6</ele><time>2026-04-04T15:14:46.596Z</time></trkpt><trkpt lat="45.1045352" lon="7.0107074"><ele>1482.0</ele><time>2026-04-04T15:14:47.596Z</time></trkpt><trkpt lat="45.1045613" lon="7.0108507"><ele>1483.1999999999998</ele><time>2026-04-04T15:14:48.596Z</time></trkpt><trkpt lat="45.1045871" lon="7.0109994"><ele>1484.4</ele><time>2026-04-04T15:14:49.597Z</time></trkpt><trkpt lat="45.1046132" lon="7.0111312"><ele>1485.6</ele><time>2026-04-04T15:14:50.597Z</time></trkpt><trkpt lat="45.1046438" lon="7.0112668"><ele>1486.8000000000002</ele><time>2026-04-04T15:14:51.596Z</time></trkpt><trkpt lat="45.104686" lon="7.0114003"><ele>1488.0</ele><time>2026-04-04T15:14:52.596Z</time></trkpt><trkpt lat="45.1047446" lon="7.0115139"><ele>1488.0</ele><time>2026-04-04T15:14:53.596Z</time></trkpt><trkpt lat="45.1048235" lon="7.0116179"><ele>1488.0</ele><time>2026-04-04T15:14:54.596Z</time></trkpt><trkpt lat="45.1049094" lon="7.0117228"><ele>1488.0</ele><time>2026-04-04T15:14:55.596Z</time></trkpt><trkpt lat="45.1049989" lon="7.0118295"><ele>1488.0</ele><time>2026-04-04T15:14:56.595Z</time></trkpt><trkpt lat="45.1050824" lon="7.0119508"><ele>1481.25</ele><time>2026-04-04T15:14:57.597Z</time></trkpt><trkpt lat="45.1051698" lon="7.0120674"><ele>1474.5</ele><time>2026-04-04T15:14:58.596Z</time></trkpt><trkpt lat="45.1052488" lon="7.0121989"><ele>1467.75</ele><time>2026-04-04T15:14:59.596Z</time></trkpt><trkpt lat="45.1053207" lon="7.0123521"><ele>1461.0</ele><time>2026-04-04T15:15:00.596Z</time></trkpt><trkpt lat="45.1053792" lon="7.0125258"><ele>1461.0</ele><time>2026-04-04T15:15:01.596Z</time></trkpt><trkpt lat="45.1054423" lon="7.012709"><ele>1461.0</ele><time>2026-04-04T15:15:02.597Z</time></trkpt><trkpt lat="45.1055017" lon="7.0128835"><ele>1461.0</ele><time>2026-04-04T15:15:03.597Z</time></trkpt><trkpt lat="45.1055555" lon="7.0130562"><ele>1461.0</ele><time>2026-04-04T15:15:04.597Z</time></trkpt><trkpt lat="45.1056024" lon="7.0132301"><ele>1462.75</ele><time>2026-04-04T15:15:05.595Z</time></trkpt><trkpt lat="45.1056204" lon="7.0133966"><ele>1464.5</ele><time>2026-04-04T15:15:06.596Z</time></trkpt><trkpt lat="45.105618" lon="7.0135712"><ele>1466.25</ele><time>2026-04-04T15:15:07.596Z</time></trkpt><trkpt lat="45.1055945" lon="7.0137646"><ele>1468.0</ele><time>2026-04-04T15:15:08.596Z</time></trkpt><trkpt lat="45.105555" lon="7.0139661"><ele>1468.6666666666665</ele><time>2026-04-04T15:15:09.596Z</time></trkpt><trkpt lat="45.1055162" lon="7.014174"><ele>1469.3333333333333</ele><time>2026-04-04T15:15:10.596Z</time></trkpt><trkpt lat="45.1054852" lon="7.0143917"><ele>1470.0</ele><time>2026-04-04T15:15:11.597Z</time></trkpt><trkpt lat="45.1054659" lon="7.0146153"><ele>1470.0</ele><time>2026-04-04T15:15:12.597Z</time></trkpt><trkpt lat="45.105444" lon="7.0148344"><ele>1470.0</ele><time>2026-04-04T15:15:13.595Z</time></trkpt><trkpt lat="45.1054265" lon="7.0150517"><ele>1470.0</ele><time>2026-04-04T15:15:14.596Z</time></trkpt><trkpt lat="45.1054106" lon="7.0152644"><ele>1468.25</ele><time>2026-04-04T15:15:15.596Z</time></trkpt><trkpt lat="45.1053929" lon="7.015467"><ele>1466.5</ele><time>2026-04-04T15:15:16.595Z</time></trkpt><trkpt lat="45.1053859" lon="7.015662"><ele>1464.75</ele><time>2026-04-04T15:15:17.596Z</time></trkpt><trkpt lat="45.1053677" lon="7.0158485"><ele>1463.0</ele><time>2026-04-04T15:15:18.596Z</time></trkpt><trkpt lat="45.1053561" lon="7.0160273"><ele>1460.5</ele><time>2026-04-04T15:15:19.596Z</time></trkpt><trkpt lat="45.1053411" lon="7.0161997"><ele>1458.0</ele><time>2026-04-04T15:15:20.596Z</time></trkpt><trkpt lat="45.1053257" lon="7.0163635"><ele>1455.5</ele><time>2026-04-04T15:15:21.596Z</time></trkpt><trkpt lat="45.1053061" lon="7.0165234"><ele>1453.0</ele><time>2026-04-04T15:15:22.596Z</time></trkpt><trkpt lat="45.1052669" lon="7.0166764"><ele>1450.2</ele><time>2026-04-04T15:15:23.597Z</time></trkpt><trkpt lat="45.1052188" lon="7.0168182"><ele>1447.4</ele><time>2026-04-04T15:15:24.597Z</time></trkpt><trkpt lat="45.1051458" lon="7.016936"><ele>1444.6000000000001</ele><time>2026-04-04T15:15:25.595Z</time></trkpt><trkpt lat="45.1050584" lon="7.017036"><ele>1441.8000000000002</ele><time>2026-04-04T15:15:26.596Z</time></trkpt><trkpt lat="45.1049957" lon="7.0171694"><ele>1439.0</ele><time>2026-04-04T15:15:27.596Z</time></trkpt><trkpt lat="45.1049546" lon="7.0173248"><ele>1435.0</ele><time>2026-04-04T15:15:28.596Z</time></trkpt><trkpt lat="45.1049256" lon="7.0174939"><ele>1431.0</ele><time>2026-04-04T15:15:29.596Z</time></trkpt><trkpt lat="45.1048886" lon="7.0176768"><ele>1427.0</ele><time>2026-04-04T15:15:30.596Z</time></trkpt><trkpt lat="45.1048408" lon="7.0178559"><ele>1423.0</ele><time>2026-04-04T15:15:31.597Z</time></trkpt><trkpt lat="45.104796" lon="7.0180237"><ele>1428.75</ele><time>2026-04-04T15:15:32.599Z</time></trkpt><trkpt lat="45.1047602" lon="7.018206"><ele>1434.5</ele><time>2026-04-04T15:15:33.596Z</time></trkpt><trkpt lat="45.1047278" lon="7.0183801"><ele>1440.25</ele><time>2026-04-04T15:15:34.597Z</time></trkpt><trkpt lat="45.1046944" lon="7.0185507"><ele>1446.0</ele><time>2026-04-04T15:15:35.597Z</time></trkpt><trkpt lat="45.10466" lon="7.0187216"><ele>1446.0</ele><time>2026-04-04T15:15:36.596Z</time></trkpt><trkpt lat="45.1046173" lon="7.0188884"><ele>1446.0</ele><time>2026-04-04T15:15:37.596Z</time></trkpt><trkpt lat="45.1045672" lon="7.0190481"><ele>1446.0</ele><time>2026-04-04T15:15:38.596Z</time></trkpt><trkpt lat="45.1045111" lon="7.0191843"><ele>1446.0</ele><time>2026-04-04T15:15:39.596Z</time></trkpt><trkpt lat="45.1044607" lon="7.0193113"><ele>1441.8</ele><time>2026-04-04T15:15:40.596Z</time></trkpt><trkpt lat="45.1044272" lon="7.0194466"><ele>1437.6</ele><time>2026-04-04T15:15:41.596Z</time></trkpt><trkpt lat="45.1044143" lon="7.0195821"><ele>1433.4</ele><time>2026-04-04T15:15:42.596Z</time></trkpt><trkpt lat="45.1044208" lon="7.0197086"><ele>1429.2</ele><time>2026-04-04T15:15:43.596Z</time></trkpt><trkpt lat="45.1044341" lon="7.0198459"><ele>1425.0</ele><time>2026-04-04T15:15:44.596Z</time></trkpt><trkpt lat="45.1044535" lon="7.0199958"><ele>1422.0</ele><time>2026-04-04T15:15:45.596Z</time></trkpt><trkpt lat="45.104468" lon="7.0201425"><ele>1419.0</ele><time>2026-04-04T15:15:46.596Z</time></trkpt><trkpt lat="45.1044926" lon="7.0203026"><ele>1416.0</ele><time>2026-04-04T15:15:47.596Z</time></trkpt><trkpt lat="45.1045054" lon="7.0204587"><ele>1413.0</ele><time>2026-04-04T15:15:48.596Z</time></trkpt><trkpt lat="45.1044958" lon="7.0206046"><ele>1410.0</ele><time>2026-04-04T15:15:49.597Z</time></trkpt><trkpt lat="45.1044572" lon="7.0207387"><ele>1407.5</ele><time>2026-04-04T15:15:50.596Z</time></trkpt><trkpt lat="45.1043903" lon="7.0208682"><ele>1405.0</ele><time>2026-04-04T15:15:51.596Z</time></trkpt><trkpt lat="45.104325" lon="7.0210113"><ele>1402.5</ele><time>2026-04-04T15:15:52.596Z</time></trkpt><trkpt lat="45.1042858" lon="7.021183"><ele>1400.0</ele><time>2026-04-04T15:15:53.597Z</time></trkpt><trkpt lat="45.1042703" lon="7.0213708"><ele>1400.0</ele><time>2026-04-04T15:15:54.596Z</time></trkpt><trkpt lat="45.1042568" lon="7.0215665"><ele>1400.0</ele><time>2026-04-04T15:15:55.595Z</time></trkpt><trkpt lat="45.1042402" lon="7.0217688"><ele>1400.0</ele><time>2026-04-04T15:15:56.596Z</time></trkpt><trkpt lat="45.1042209" lon="7.021965"><ele>1400.0</ele><time>2026-04-04T15:15:57.596Z</time></trkpt><trkpt lat="45.1042003" lon="7.0221605"><ele>1397.5</ele><time>2026-04-04T15:15:58.597Z</time></trkpt><trkpt lat="45.1041828" lon="7.0223511"><ele>1395.0</ele><time>2026-04-04T15:15:59.597Z</time></trkpt><trkpt lat="45.1041748" lon="7.0225335"><ele>1392.5</ele><time>2026-04-04T15:16:00.596Z</time></trkpt><trkpt lat="45.1041972" lon="7.0227191"><ele>1390.0</ele><time>2026-04-04T15:16:01.595Z</time></trkpt><trkpt lat="45.1042532" lon="7.0229152"><ele>1389.25</ele><time>2026-04-04T15:16:02.595Z</time></trkpt><trkpt lat="45.1043294" lon="7.0230964"><ele>1388.5</ele><time>2026-04-04T15:16:03.596Z</time></trkpt><trkpt lat="45.1043837" lon="7.0232878"><ele>1387.75</ele><time>2026-04-04T15:16:04.596Z</time></trkpt><trkpt lat="45.104414" lon="7.0234855"><ele>1387.0</ele><time>2026-04-04T15:16:05.596Z</time></trkpt><trkpt lat="45.1044141" lon="7.0236769"><ele>1387.0</ele><time>2026-04-04T15:16:06.597Z</time></trkpt><trkpt lat="45.1043833" lon="7.0238522"><ele>1387.0</ele><time>2026-04-04T15:16:07.596Z</time></trkpt><trkpt lat="45.1043244" lon="7.0239981"><ele>1387.0</ele><time>2026-04-04T15:16:08.596Z</time></trkpt><trkpt lat="45.1042494" lon="7.0241527"><ele>1387.0</ele><time>2026-04-04T15:16:09.597Z</time></trkpt><trkpt lat="45.1041792" lon="7.0243346"><ele>1385.0</ele><time>2026-04-04T15:16:10.597Z</time></trkpt><trkpt lat="45.1041295" lon="7.0245345"><ele>1383.0</ele><time>2026-04-04T15:16:11.597Z</time></trkpt><trkpt lat="45.1041073" lon="7.0247254"><ele>1381.0</ele><time>2026-04-04T15:16:12.596Z</time></trkpt><trkpt lat="45.1040838" lon="7.0248859"><ele>1379.0</ele><time>2026-04-04T15:16:13.596Z</time></trkpt><trkpt lat="45.1040414" lon="7.0250163"><ele>1382.4</ele><time>2026-04-04T15:16:14.596Z</time></trkpt><trkpt lat="45.1039681" lon="7.0251126"><ele>1385.8000000000002</ele><time>2026-04-04T15:16:15.597Z</time></trkpt><trkpt lat="45.1038716" lon="7.0251694"><ele>1389.1999999999998</ele><time>2026-04-04T15:16:16.597Z</time></trkpt><trkpt lat="45.1037647" lon="7.0252138"><ele>1392.6</ele><time>2026-04-04T15:16:17.596Z</time></trkpt><trkpt lat="45.1036633" lon="7.0252494"><ele>1396.0</ele><time>2026-04-04T15:16:18.596Z</time></trkpt><trkpt lat="45.1035781" lon="7.0252792"><ele>1396.0</ele><time>2026-04-04T15:16:19.595Z</time></trkpt><trkpt lat="45.103504" lon="7.0253138"><ele>1396.0</ele><time>2026-04-04T15:16:20.596Z</time></trkpt><trkpt lat="45.1034251" lon="7.0254534"><ele>1396.0</ele><time>2026-04-04T15:16:22.596Z</time></trkpt><trkpt lat="45.1033983" lon="7.0255463"><ele>1396.0</ele><time>2026-04-04T15:16:23.597Z</time></trkpt><trkpt lat="45.1033798" lon="7.0256459"><ele>1396.0</ele><time>2026-04-04T15:16:24.596Z</time></trkpt><trkpt lat="45.1033949" lon="7.0257521"><ele>1396.0</ele><time>2026-04-04T15:16:25.595Z</time></trkpt><trkpt lat="45.1034371" lon="7.0258304"><ele>1393.6</ele><time>2026-04-04T15:16:26.597Z</time></trkpt><trkpt lat="45.1034975" lon="7.0259063"><ele>1391.1999999999998</ele><time>2026-04-04T15:16:27.596Z</time></trkpt><trkpt lat="45.1035741" lon="7.0259877"><ele>1388.8000000000002</ele><time>2026-04-04T15:16:28.596Z</time></trkpt><trkpt lat="45.1036586" lon="7.0260762"><ele>1386.4</ele><time>2026-04-04T15:16:29.596Z</time></trkpt><trkpt lat="45.1037398" lon="7.0261765"><ele>1384.0</ele><time>2026-04-04T15:16:30.596Z</time></trkpt><trkpt lat="45.1038182" lon="7.0262858"><ele>1384.0</ele><time>2026-04-04T15:16:31.595Z</time></trkpt><trkpt lat="45.1038918" lon="7.0264137"><ele>1384.0</ele><time>2026-04-04T15:16:32.595Z</time></trkpt><trkpt lat="45.1039582" lon="7.0265652"><ele>1384.0</ele><time>2026-04-04T15:16:33.597Z</time></trkpt><trkpt lat="45.10401" lon="7.0267183"><ele>1384.0</ele><time>2026-04-04T15:16:34.596Z</time></trkpt><trkpt lat="45.1040566" lon="7.0268854"><ele>1378.75</ele><time>2026-04-04T15:16:35.595Z</time></trkpt><trkpt lat="45.1040974" lon="7.0270703"><ele>1373.5</ele><time>2026-04-04T15:16:36.596Z</time></trkpt><trkpt lat="45.1041326" lon="7.027263"><ele>1368.25</ele><time>2026-04-04T15:16:37.596Z</time></trkpt><trkpt lat="45.104153" lon="7.0274478"><ele>1363.0</ele><time>2026-04-04T15:16:38.597Z</time></trkpt><trkpt lat="45.1041665" lon="7.0276316"><ele>1363.0</ele><time>2026-04-04T15:16:39.597Z</time></trkpt><trkpt lat="45.1041849" lon="7.0278125"><ele>1363.0</ele><time>2026-04-04T15:16:40.596Z</time></trkpt><trkpt lat="45.1042161" lon="7.0279845"><ele>1363.0</ele><time>2026-04-04T15:16:41.596Z</time></trkpt><trkpt lat="45.1042655" lon="7.0281483"><ele>1363.0</ele><time>2026-04-04T15:16:42.596Z</time></trkpt><trkpt lat="45.1043312" lon="7.0283029"><ele>1364.25</ele><time>2026-04-04T15:16:43.596Z</time></trkpt><trkpt lat="45.1044136" lon="7.0284387"><ele>1365.5</ele><time>2026-04-04T15:16:44.597Z</time></trkpt><trkpt lat="45.1045131" lon="7.0285553"><ele>1366.75</ele><time>2026-04-04T15:16:45.597Z</time></trkpt><trkpt lat="45.1046191" lon="7.0286651"><ele>1368.0</ele><time>2026-04-04T15:16:46.597Z</time></trkpt><trkpt lat="45.1047333" lon="7.0287745"><ele>1368.0</ele><time>2026-04-04T15:16:47.595Z</time></trkpt><trkpt lat="45.1048509" lon="7.0288827"><ele>1368.0</ele><time>2026-04-04T15:16:48.596Z</time></trkpt><trkpt lat="45.1049741" lon="7.0289802"><ele>1368.0</ele><time>2026-04-04T15:16:49.596Z</time></trkpt><trkpt lat="45.105095" lon="7.0290795"><ele>1368.0</ele><time>2026-04-04T15:16:50.595Z</time></trkpt><trkpt lat="45.1052121" lon="7.0291852"><ele>1365.75</ele><time>2026-04-04T15:16:51.596Z</time></trkpt><trkpt lat="45.1053244" lon="7.0292952"><ele>1363.5</ele><time>2026-04-04T15:16:52.597Z</time></trkpt><trkpt lat="45.1054362" lon="7.0294183"><ele>1361.25</ele><time>2026-04-04T15:16:53.596Z</time></trkpt><trkpt lat="45.1055465" lon="7.0295367"><ele>1359.0</ele><time>2026-04-04T15:16:54.596Z</time></trkpt><trkpt lat="45.1056659" lon="7.0296355"><ele>1354.25</ele><time>2026-04-04T15:16:55.596Z</time></trkpt><trkpt lat="45.1057932" lon="7.0297118"><ele>1349.5</ele><time>2026-04-04T15:16:56.596Z</time></trkpt><trkpt lat="45.1059372" lon="7.0297709"><ele>1344.75</ele><time>2026-04-04T15:16:57.597Z</time></trkpt><trkpt lat="45.1060807" lon="7.0298233"><ele>1340.0</ele><time>2026-04-04T15:16:58.596Z</time></trkpt><trkpt lat="45.106226" lon="7.0298743"><ele>1340.0</ele><time>2026-04-04T15:16:59.595Z</time></trkpt><trkpt lat="45.1063726" lon="7.0299056"><ele>1340.0</ele><time>2026-04-04T15:17:00.597Z</time></trkpt><trkpt lat="45.106515" lon="7.0299108"><ele>1340.0</ele><time>2026-04-04T15:17:01.597Z</time></trkpt><trkpt lat="45.1066544" lon="7.0299031"><ele>1340.0</ele><time>2026-04-04T15:17:02.596Z</time></trkpt><trkpt lat="45.106786" lon="7.0298987"><ele>1340.4</ele><time>2026-04-04T15:17:03.597Z</time></trkpt><trkpt lat="45.1069055" lon="7.0299206"><ele>1340.8</ele><time>2026-04-04T15:17:04.596Z</time></trkpt><trkpt lat="45.1070025" lon="7.0299566"><ele>1341.1999999999998</ele><time>2026-04-04T15:17:05.596Z</time></trkpt><trkpt lat="45.1070988" lon="7.0299966"><ele>1341.6</ele><time>2026-04-04T15:17:06.596Z</time></trkpt><trkpt lat="45.1072074" lon="7.0300513"><ele>1342.0</ele><time>2026-04-04T15:17:07.596Z</time></trkpt><trkpt lat="45.1073246" lon="7.0300976"><ele>1340.0</ele><time>2026-04-04T15:17:08.597Z</time></trkpt><trkpt lat="45.107432" lon="7.0301094"><ele>1338.0</ele><time>2026-04-04T15:17:09.597Z</time></trkpt><trkpt lat="45.1075452" lon="7.0301347"><ele>1336.0</ele><time>2026-04-04T15:17:10.596Z</time></trkpt><trkpt lat="45.1076514" lon="7.0301755"><ele>1334.0</ele><time>2026-04-04T15:17:11.597Z</time></trkpt><trkpt lat="45.1077303" lon="7.0302785"><ele>1332.0</ele><time>2026-04-04T15:17:12.597Z</time></trkpt><trkpt lat="45.1077876" lon="7.030416"><ele>1332.0</ele><time>2026-04-04T15:17:13.596Z</time></trkpt><trkpt lat="45.1078347" lon="7.0305533"><ele>1332.0</ele><time>2026-04-04T15:17:14.596Z</time></trkpt><trkpt lat="45.1079053" lon="7.0306716"><ele>1332.0</ele><time>2026-04-04T15:17:15.596Z</time></trkpt><trkpt lat="45.1079963" lon="7.0307502"><ele>1332.0</ele><time>2026-04-04T15:17:16.597Z</time></trkpt><trkpt lat="45.1080983" lon="7.0307875"><ele>1332.0</ele><time>2026-04-04T15:17:17.596Z</time></trkpt><trkpt lat="45.1082226" lon="7.0307749"><ele>1327.0</ele><time>2026-04-04T15:17:18.596Z</time></trkpt><trkpt lat="45.1083718" lon="7.0307251"><ele>1322.0</ele><time>2026-04-04T15:17:19.596Z</time></trkpt><trkpt lat="45.1085251" lon="7.0306677"><ele>1317.0</ele><time>2026-04-04T15:17:20.597Z</time></trkpt><trkpt lat="45.1086759" lon="7.0306065"><ele>1317.0</ele><time>2026-04-04T15:17:21.597Z</time></trkpt><trkpt lat="45.1088367" lon="7.0305317"><ele>1317.0</ele><time>2026-04-04T15:17:22.596Z</time></trkpt><trkpt lat="45.1089801" lon="7.0304646"><ele>1317.0</ele><time>2026-04-04T15:17:23.595Z</time></trkpt><trkpt lat="45.10913" lon="7.0303893"><ele>1314.75</ele><time>2026-04-04T15:17:24.597Z</time></trkpt><trkpt lat="45.1092377" lon="7.0302808"><ele>1312.5</ele><time>2026-04-04T15:17:25.596Z</time></trkpt><trkpt lat="45.1093499" lon="7.0301668"><ele>1310.25</ele><time>2026-04-04T15:17:26.596Z</time></trkpt><trkpt lat="45.1094541" lon="7.0300529"><ele>1308.0</ele><time>2026-04-04T15:17:27.597Z</time></trkpt><trkpt lat="45.1095607" lon="7.0299657"><ele>1308.0</ele><time>2026-04-04T15:17:28.595Z</time></trkpt><trkpt lat="45.1096633" lon="7.029927"><ele>1308.0</ele><time>2026-04-04T15:17:29.596Z</time></trkpt><trkpt lat="45.1097688" lon="7.0299274"><ele>1308.0</ele><time>2026-04-04T15:17:30.596Z</time></trkpt><trkpt lat="45.109867" lon="7.0299888"><ele>1308.0</ele><time>2026-04-04T15:17:31.597Z</time></trkpt><trkpt lat="45.1099532" lon="7.0301084"><ele>1308.0</ele><time>2026-04-04T15:17:32.597Z</time></trkpt><trkpt lat="45.1100197" lon="7.030273"><ele>1308.25</ele><time>2026-04-04T15:17:33.597Z</time></trkpt><trkpt lat="45.1100735" lon="7.0304546"><ele>1308.5</ele><time>2026-04-04T15:17:34.596Z</time></trkpt><trkpt lat="45.110111" lon="7.0306451"><ele>1308.75</ele><time>2026-04-04T15:17:35.596Z</time></trkpt><trkpt lat="45.1101447" lon="7.0308302"><ele>1309.0</ele><time>2026-04-04T15:17:36.597Z</time></trkpt><trkpt lat="45.110194" lon="7.0310064"><ele>1309.0</ele><time>2026-04-04T15:17:37.597Z</time></trkpt><trkpt lat="45.1102677" lon="7.0311631"><ele>1309.0</ele><time>2026-04-04T15:17:38.596Z</time></trkpt><trkpt lat="45.1103574" lon="7.031283"><ele>1309.0</ele><time>2026-04-04T15:17:39.596Z</time></trkpt><trkpt lat="45.1104621" lon="7.0313651"><ele>1309.0</ele><time>2026-04-04T15:17:40.596Z</time></trkpt><trkpt lat="45.1105848" lon="7.0314251"><ele>1309.0</ele><time>2026-04-04T15:17:41.596Z</time></trkpt><trkpt lat="45.1106773" lon="7.0315383"><ele>1309.0</ele><time>2026-04-04T15:17:42.596Z</time></trkpt><trkpt lat="45.1107442" lon="7.0316848"><ele>1309.0</ele><time>2026-04-04T15:17:43.596Z</time></trkpt><trkpt lat="45.1108216" lon="7.0318381"><ele>1309.0</ele><time>2026-04-04T15:17:44.596Z</time></trkpt><trkpt lat="45.1109221" lon="7.0320049"><ele>1308.0</ele><time>2026-04-04T15:17:45.596Z</time></trkpt><trkpt lat="45.1110448" lon="7.0321688"><ele>1307.0</ele><time>2026-04-04T15:17:46.596Z</time></trkpt><trkpt lat="45.1111848" lon="7.0323269"><ele>1306.0</ele><time>2026-04-04T15:17:47.596Z</time></trkpt><trkpt lat="45.1113327" lon="7.032483"><ele>1306.0</ele><time>2026-04-04T15:17:48.596Z</time></trkpt><trkpt lat="45.1114888" lon="7.0326334"><ele>1306.0</ele><time>2026-04-04T15:17:49.595Z</time></trkpt><trkpt lat="45.1116431" lon="7.0327744"><ele>1306.0</ele><time>2026-04-04T15:17:50.595Z</time></trkpt><trkpt lat="45.1117925" lon="7.032905"><ele>1295.6666666666665</ele><time>2026-04-04T15:17:51.595Z</time></trkpt><trkpt lat="45.1119426" lon="7.0330241"><ele>1285.3333333333333</ele><time>2026-04-04T15:17:52.595Z</time></trkpt><trkpt lat="45.1120928" lon="7.0331265"><ele>1275.0</ele><time>2026-04-04T15:17:53.595Z</time></trkpt><trkpt lat="45.1122445" lon="7.0332141"><ele>1275.0</ele><time>2026-04-04T15:17:54.596Z</time></trkpt><trkpt lat="45.1123957" lon="7.0332834"><ele>1275.0</ele><time>2026-04-04T15:17:55.596Z</time></trkpt><trkpt lat="45.1125467" lon="7.0333349"><ele>1275.0</ele><time>2026-04-04T15:17:56.596Z</time></trkpt><trkpt lat="45.1126732" lon="7.033409"><ele>1272.6</ele><time>2026-04-04T15:17:57.595Z</time></trkpt><trkpt lat="45.1127757" lon="7.0335009"><ele>1270.2</ele><time>2026-04-04T15:17:58.595Z</time></trkpt><trkpt lat="45.1128508" lon="7.0336158"><ele>1267.8</ele><time>2026-04-04T15:17:59.595Z</time></trkpt><trkpt lat="45.1128904" lon="7.0337378"><ele>1265.4</ele><time>2026-04-04T15:18:00.596Z</time></trkpt><trkpt lat="45.1128862" lon="7.0338821"><ele>1263.0</ele><time>2026-04-04T15:18:01.595Z</time></trkpt><trkpt lat="45.112845" lon="7.0340336"><ele>1263.25</ele><time>2026-04-04T15:18:02.594Z</time></trkpt><trkpt lat="45.1128053" lon="7.0341932"><ele>1263.5</ele><time>2026-04-04T15:18:03.596Z</time></trkpt><trkpt lat="45.1127892" lon="7.034353"><ele>1263.75</ele><time>2026-04-04T15:18:04.596Z</time></trkpt><trkpt lat="45.1127968" lon="7.0345071"><ele>1264.0</ele><time>2026-04-04T15:18:05.595Z</time></trkpt><trkpt lat="45.1128365" lon="7.0346562"><ele>1264.0</ele><time>2026-04-04T15:18:06.594Z</time></trkpt><trkpt lat="45.1128971" lon="7.0347861"><ele>1264.0</ele><time>2026-04-04T15:18:07.595Z</time></trkpt><trkpt lat="45.1129722" lon="7.0348929"><ele>1264.0</ele><time>2026-04-04T15:18:08.596Z</time></trkpt><trkpt lat="45.113048" lon="7.0349949"><ele>1264.0</ele><time>2026-04-04T15:18:09.594Z</time></trkpt><trkpt lat="45.1131109" lon="7.0351182"><ele>1264.0</ele><time>2026-04-04T15:18:10.595Z</time></trkpt><trkpt lat="45.1131272" lon="7.0352331"><ele>1263.1666666666665</ele><time>2026-04-04T15:18:11.594Z</time></trkpt><trkpt lat="45.113102" lon="7.0353274"><ele>1262.3333333333333</ele><time>2026-04-04T15:18:12.595Z</time></trkpt><trkpt lat="45.1130478" lon="7.0353805"><ele>1261.5</ele><time>2026-04-04T15:18:13.595Z</time></trkpt><trkpt lat="45.1129756" lon="7.0354056"><ele>1260.6666666666667</ele><time>2026-04-04T15:18:14.595Z</time></trkpt><trkpt lat="45.1128982" lon="7.0354626"><ele>1259.8333333333335</ele><time>2026-04-04T15:18:15.595Z</time></trkpt><trkpt lat="45.1128359" lon="7.0355652"><ele>1259.0</ele><time>2026-04-04T15:18:16.595Z</time></trkpt><trkpt lat="45.1127988" lon="7.0356939"><ele>1258.75</ele><time>2026-04-04T15:18:17.595Z</time></trkpt><trkpt lat="45.1127926" lon="7.0358428"><ele>1258.5</ele><time>2026-04-04T15:18:18.596Z</time></trkpt><trkpt lat="45.112808" lon="7.0360138"><ele>1258.25</ele><time>2026-04-04T15:18:19.596Z</time></trkpt><trkpt lat="45.1128544" lon="7.0361772"><ele>1258.0</ele><time>2026-04-04T15:18:20.595Z</time></trkpt><trkpt lat="45.1129183" lon="7.0363561"><ele>1258.0</ele><time>2026-04-04T15:18:21.595Z</time></trkpt><trkpt lat="45.1129816" lon="7.0365598"><ele>1258.0</ele><time>2026-04-04T15:18:22.596Z</time></trkpt><trkpt lat="45.1130392" lon="7.0367803"><ele>1258.0</ele><time>2026-04-04T15:18:23.595Z</time></trkpt><trkpt lat="45.113091" lon="7.0369968"><ele>1259.0</ele><time>2026-04-04T15:18:24.595Z</time></trkpt><trkpt lat="45.1131423" lon="7.0372009"><ele>1260.0</ele><time>2026-04-04T15:18:25.595Z</time></trkpt><trkpt lat="45.1131934" lon="7.0373931"><ele>1261.0</ele><time>2026-04-04T15:18:26.595Z</time></trkpt><trkpt lat="45.1132295" lon="7.0375642"><ele>1262.0</ele><time>2026-04-04T15:18:27.595Z</time></trkpt><trkpt lat="45.1132375" lon="7.037706"><ele>1262.0</ele><time>2026-04-04T15:18:28.595Z</time></trkpt><trkpt lat="45.1132113" lon="7.0378513"><ele>1262.0</ele><time>2026-04-04T15:18:29.595Z</time></trkpt><trkpt lat="45.1131607" lon="7.0379747"><ele>1262.0</ele><time>2026-04-04T15:18:30.596Z</time></trkpt><trkpt lat="45.1131146" lon="7.0380808"><ele>1262.0</ele><time>2026-04-04T15:18:31.596Z</time></trkpt><trkpt lat="45.1130903" lon="7.0382093"><ele>1262.0</ele><time>2026-04-04T15:18:32.595Z</time></trkpt><trkpt lat="45.1130842" lon="7.03835"><ele>1262.0</ele><time>2026-04-04T15:18:33.594Z</time></trkpt><trkpt lat="45.1131101" lon="7.0384968"><ele>1262.0</ele><time>2026-04-04T15:18:34.595Z</time></trkpt><trkpt lat="45.1131494" lon="7.0386389"><ele>1262.0</ele><time>2026-04-04T15:18:35.595Z</time></trkpt><trkpt lat="45.1132063" lon="7.0387972"><ele>1262.0</ele><time>2026-04-04T15:18:36.595Z</time></trkpt><trkpt lat="45.1132678" lon="7.0389523"><ele>1250.5</ele><time>2026-04-04T15:18:37.596Z</time></trkpt><trkpt lat="45.1133198" lon="7.0391234"><ele>1239.0</ele><time>2026-04-04T15:18:38.594Z</time></trkpt><trkpt lat="45.1133509" lon="7.0393047"><ele>1227.5</ele><time>2026-04-04T15:18:39.595Z</time></trkpt><trkpt lat="45.1133643" lon="7.0394874"><ele>1216.0</ele><time>2026-04-04T15:18:40.595Z</time></trkpt><trkpt lat="45.1133766" lon="7.0396694"><ele>1216.0</ele><time>2026-04-04T15:18:41.594Z</time></trkpt><trkpt lat="45.1134126" lon="7.0398399"><ele>1216.0</ele><time>2026-04-04T15:18:42.594Z</time></trkpt><trkpt lat="45.1134616" lon="7.0399949"><ele>1216.0</ele><time>2026-04-04T15:18:43.595Z</time></trkpt><trkpt lat="45.1134916" lon="7.0401356"><ele>1216.0</ele><time>2026-04-04T15:18:44.595Z</time></trkpt><trkpt lat="45.1135077" lon="7.0402704"><ele>1216.0</ele><time>2026-04-04T15:18:45.596Z</time></trkpt><trkpt lat="45.1135289" lon="7.0403686"><ele>1216.0</ele><time>2026-04-04T15:18:46.595Z</time></trkpt><trkpt lat="45.1136168" lon="7.0404323"><ele>1216.0</ele><time>2026-04-04T15:18:48.595Z</time></trkpt><trkpt lat="45.1136608" lon="7.0403257"><ele>1216.0</ele><time>2026-04-04T15:18:50.596Z</time></trkpt><trkpt lat="45.1136439" lon="7.0401363"><ele>1216.0</ele><time>2026-04-04T15:18:52.595Z</time></trkpt><trkpt lat="45.1136188" lon="7.0400149"><ele>1216.0</ele><time>2026-04-04T15:18:53.594Z</time></trkpt><trkpt lat="45.1135942" lon="7.0398816"><ele>1216.0</ele><time>2026-04-04T15:18:54.596Z</time></trkpt><trkpt lat="45.1135881" lon="7.0397416"><ele>1216.0</ele><time>2026-04-04T15:18:55.596Z</time></trkpt><trkpt lat="45.1136007" lon="7.0395921"><ele>1216.0</ele><time>2026-04-04T15:18:56.594Z</time></trkpt><trkpt lat="45.1136323" lon="7.0394486"><ele>1216.0</ele><time>2026-04-04T15:18:57.595Z</time></trkpt><trkpt lat="45.1136588" lon="7.0393037"><ele>1216.0</ele><time>2026-04-04T15:18:58.595Z</time></trkpt><trkpt lat="45.1136693" lon="7.0391495"><ele>1215.6</ele><time>2026-04-04T15:18:59.596Z</time></trkpt><trkpt lat="45.1136788" lon="7.0389985"><ele>1215.1999999999998</ele><time>2026-04-04T15:19:00.595Z</time></trkpt><trkpt lat="45.113691" lon="7.0388532"><ele>1214.8000000000002</ele><time>2026-04-04T15:19:01.594Z</time></trkpt><trkpt lat="45.1137235" lon="7.0387139"><ele>1214.4</ele><time>2026-04-04T15:19:02.595Z</time></trkpt><trkpt lat="45.1137769" lon="7.0385819"><ele>1214.0</ele><time>2026-04-04T15:19:03.595Z</time></trkpt><trkpt lat="45.1138381" lon="7.038452"><ele>1214.0</ele><time>2026-04-04T15:19:04.595Z</time></trkpt><trkpt lat="45.1139006" lon="7.0383321"><ele>1214.0</ele><time>2026-04-04T15:19:05.595Z</time></trkpt><trkpt lat="45.1139884" lon="7.038226"><ele>1214.0</ele><time>2026-04-04T15:19:06.595Z</time></trkpt><trkpt lat="45.1140733" lon="7.0381326"><ele>1214.0</ele><time>2026-04-04T15:19:07.595Z</time></trkpt><trkpt lat="45.1141552" lon="7.0380387"><ele>1214.0</ele><time>2026-04-04T15:19:08.594Z</time></trkpt><trkpt lat="45.1142223" lon="7.0379336"><ele>1210.0</ele><time>2026-04-04T15:19:09.595Z</time></trkpt><trkpt lat="45.1142722" lon="7.0378393"><ele>1206.0</ele><time>2026-04-04T15:19:10.596Z</time></trkpt><trkpt lat="45.1143178" lon="7.0377683"><ele>1202.0</ele><time>2026-04-04T15:19:11.595Z</time></trkpt><trkpt lat="45.1144056" lon="7.0377749"><ele>1198.0</ele><time>2026-04-04T15:19:13.595Z</time></trkpt><trkpt lat="45.1144023" lon="7.037922"><ele>1194.0</ele><time>2026-04-04T15:19:15.594Z</time></trkpt><trkpt lat="45.1143526" lon="7.0379983"><ele>1190.0</ele><time>2026-04-04T15:19:16.595Z</time></trkpt><trkpt lat="45.1142867" lon="7.0380734"><ele>1190.0</ele><time>2026-04-04T15:19:17.595Z</time></trkpt><trkpt lat="45.1142294" lon="7.0381529"><ele>1190.0</ele><time>2026-04-04T15:19:18.595Z</time></trkpt><trkpt lat="45.1141855" lon="7.0382479"><ele>1190.0</ele><time>2026-04-04T15:19:19.594Z</time></trkpt><trkpt lat="45.1141651" lon="7.0383582"><ele>1190.0</ele><time>2026-04-04T15:19:20.595Z</time></trkpt><trkpt lat="45.1141746" lon="7.0384755"><ele>1190.0</ele><time>2026-04-04T15:19:21.595Z</time></trkpt><trkpt lat="45.1142214" lon="7.038593"><ele>1190.0</ele><time>2026-04-04T15:19:22.595Z</time></trkpt><trkpt lat="45.1143094" lon="7.0386878"><ele>1187.4</ele><time>2026-04-04T15:19:23.595Z</time></trkpt><trkpt lat="45.1144056" lon="7.0387586"><ele>1184.8</ele><time>2026-04-04T15:19:24.595Z</time></trkpt><trkpt lat="45.114485" lon="7.0388662"><ele>1182.2</ele><time>2026-04-04T15:19:25.595Z</time></trkpt><trkpt lat="45.1145431" lon="7.0389953"><ele>1179.6</ele><time>2026-04-04T15:19:26.595Z</time></trkpt><trkpt lat="45.1145844" lon="7.0391556"><ele>1177.0</ele><time>2026-04-04T15:19:27.596Z</time></trkpt><trkpt lat="45.1146087" lon="7.0393359"><ele>1176.25</ele><time>2026-04-04T15:19:28.596Z</time></trkpt><trkpt lat="45.1146329" lon="7.039528"><ele>1175.5</ele><time>2026-04-04T15:19:29.595Z</time></trkpt><trkpt lat="45.1146585" lon="7.0397204"><ele>1174.75</ele><time>2026-04-04T15:19:30.595Z</time></trkpt><trkpt lat="45.11467" lon="7.0399093"><ele>1174.0</ele><time>2026-04-04T15:19:31.595Z</time></trkpt><trkpt lat="45.114665" lon="7.0400843"><ele>1174.0</ele><time>2026-04-04T15:19:32.596Z</time></trkpt><trkpt lat="45.1146494" lon="7.0402388"><ele>1174.0</ele><time>2026-04-04T15:19:33.595Z</time></trkpt><trkpt lat="45.1146166" lon="7.0403556"><ele>1174.0</ele><time>2026-04-04T15:19:34.595Z</time></trkpt><trkpt lat="45.1145964" lon="7.0404538"><ele>1174.0</ele><time>2026-04-04T15:19:35.595Z</time></trkpt><trkpt lat="45.1146506" lon="7.0405663"><ele>1174.0</ele><time>2026-04-04T15:19:37.596Z</time></trkpt><trkpt lat="45.1147533" lon="7.040532"><ele>1174.0</ele><time>2026-04-04T15:19:39.595Z</time></trkpt><trkpt lat="45.1148194" lon="7.0404852"><ele>1174.0</ele><time>2026-04-04T15:19:40.595Z</time></trkpt><trkpt lat="45.1148931" lon="7.0404252"><ele>1174.0</ele><time>2026-04-04T15:19:41.595Z</time></trkpt><trkpt lat="45.114952" lon="7.0403457"><ele>1174.0</ele><time>2026-04-04T15:19:42.595Z</time></trkpt><trkpt lat="45.1149852" lon="7.0402441"><ele>1174.0</ele><time>2026-04-04T15:19:43.596Z</time></trkpt><trkpt lat="45.1149909" lon="7.0401239"><ele>1174.0</ele><time>2026-04-04T15:19:44.595Z</time></trkpt><trkpt lat="45.1149755" lon="7.0400018"><ele>1165.0</ele><time>2026-04-04T15:19:45.595Z</time></trkpt><trkpt lat="45.1149687" lon="7.0398633"><ele>1156.0</ele><time>2026-04-04T15:19:46.595Z</time></trkpt><trkpt lat="45.1149929" lon="7.0397153"><ele>1147.0</ele><time>2026-04-04T15:19:47.595Z</time></trkpt><trkpt lat="45.1150307" lon="7.0395418"><ele>1138.0</ele><time>2026-04-04T15:19:48.595Z</time></trkpt><trkpt lat="45.1150781" lon="7.0393525"><ele>1138.0</ele><time>2026-04-04T15:19:49.594Z</time></trkpt><trkpt lat="45.1151389" lon="7.039155"><ele>1138.0</ele><time>2026-04-04T15:19:50.594Z</time></trkpt><trkpt lat="45.115202" lon="7.0389459"><ele>1138.0</ele><time>2026-04-04T15:19:51.596Z</time></trkpt><trkpt lat="45.115268" lon="7.0387533"><ele>1139.25</ele><time>2026-04-04T15:19:52.595Z</time></trkpt><trkpt lat="45.115319" lon="7.0385547"><ele>1140.5</ele><time>2026-04-04T15:19:53.594Z</time></trkpt><trkpt lat="45.1153593" lon="7.0383677"><ele>1141.75</ele><time>2026-04-04T15:19:54.595Z</time></trkpt><trkpt lat="45.1153673" lon="7.0381813"><ele>1143.0</ele><time>2026-04-04T15:19:55.595Z</time></trkpt><trkpt lat="45.1153688" lon="7.0380058"><ele>1143.0</ele><time>2026-04-04T15:19:56.595Z</time></trkpt><trkpt lat="45.1154012" lon="7.0378436"><ele>1143.0</ele><time>2026-04-04T15:19:57.595Z</time></trkpt><trkpt lat="45.1154726" lon="7.0377136"><ele>1143.0</ele><time>2026-04-04T15:19:58.595Z</time></trkpt><trkpt lat="45.1155569" lon="7.0376042"><ele>1143.0</ele><time>2026-04-04T15:19:59.595Z</time></trkpt><trkpt lat="45.1156355" lon="7.0374782"><ele>1146.0</ele><time>2026-04-04T15:20:00.595Z</time></trkpt><trkpt lat="45.115703" lon="7.037318"><ele>1149.0</ele><time>2026-04-04T15:20:01.595Z</time></trkpt><trkpt lat="45.1157479" lon="7.0371317"><ele>1152.0</ele><time>2026-04-04T15:20:02.595Z</time></trkpt><trkpt lat="45.1157865" lon="7.0369393"><ele>1155.0</ele><time>2026-04-04T15:20:03.595Z</time></trkpt><trkpt lat="45.1157787" lon="7.0367145"><ele>1158.6666666666667</ele><time>2026-04-04T15:20:04.596Z</time></trkpt><trkpt lat="45.1157669" lon="7.036501"><ele>1162.3333333333335</ele><time>2026-04-04T15:20:05.596Z</time></trkpt><trkpt lat="45.1157516" lon="7.0362876"><ele>1166.0</ele><time>2026-04-04T15:20:06.595Z</time></trkpt><trkpt lat="45.1157337" lon="7.0360635"><ele>1147.3333333333335</ele><time>2026-04-04T15:20:07.596Z</time></trkpt><trkpt lat="45.1157381" lon="7.0358258"><ele>1128.6666666666667</ele><time>2026-04-04T15:20:08.595Z</time></trkpt><trkpt lat="45.1157455" lon="7.035567"><ele>1110.0</ele><time>2026-04-04T15:20:09.595Z</time></trkpt><trkpt lat="45.1157523" lon="7.0353167"><ele>1110.0</ele><time>2026-04-04T15:20:10.594Z</time></trkpt><trkpt lat="45.1157765" lon="7.0350782"><ele>1110.0</ele><time>2026-04-04T15:20:11.595Z</time></trkpt><trkpt lat="45.1158054" lon="7.0348434"><ele>1110.0</ele><time>2026-04-04T15:20:12.595Z</time></trkpt><trkpt lat="45.115848" lon="7.0346221"><ele>1109.75</ele><time>2026-04-04T15:20:13.596Z</time></trkpt><trkpt lat="45.1158694" lon="7.0344093"><ele>1109.5</ele><time>2026-04-04T15:20:14.595Z</time></trkpt><trkpt lat="45.1158981" lon="7.0342283"><ele>1109.25</ele><time>2026-04-04T15:20:15.596Z</time></trkpt><trkpt lat="45.1159352" lon="7.0340724"><ele>1109.0</ele><time>2026-04-04T15:20:16.596Z</time></trkpt><trkpt lat="45.116004" lon="7.0339255"><ele>1111.0</ele><time>2026-04-04T15:20:17.595Z</time></trkpt><trkpt lat="45.1160815" lon="7.0337865"><ele>1113.0</ele><time>2026-04-04T15:20:18.595Z</time></trkpt><trkpt lat="45.1161828" lon="7.0336712"><ele>1115.0</ele><time>2026-04-04T15:20:19.595Z</time></trkpt><trkpt lat="45.1162732" lon="7.0335621"><ele>1117.0</ele><time>2026-04-04T15:20:20.595Z</time></trkpt><trkpt lat="45.1163512" lon="7.0334609"><ele>1117.0</ele><time>2026-04-04T15:20:21.595Z</time></trkpt><trkpt lat="45.1164161" lon="7.0334085"><ele>1117.0</ele><time>2026-04-04T15:20:22.595Z</time></trkpt><trkpt lat="45.1165197" lon="7.0334126"><ele>1117.0</ele><time>2026-04-04T15:20:24.595Z</time></trkpt><trkpt lat="45.1165173" lon="7.0335568"><ele>1117.0</ele><time>2026-04-04T15:20:26.594Z</time></trkpt><trkpt lat="45.1164777" lon="7.0336624"><ele>1117.0</ele><time>2026-04-04T15:20:27.594Z</time></trkpt><trkpt lat="45.1164194" lon="7.0337977"><ele>1117.0</ele><time>2026-04-04T15:20:28.595Z</time></trkpt><trkpt lat="45.1163648" lon="7.0339501"><ele>1117.0</ele><time>2026-04-04T15:20:29.595Z</time></trkpt><trkpt lat="45.1163182" lon="7.0341162"><ele>1117.0</ele><time>2026-04-04T15:20:30.595Z</time></trkpt><trkpt lat="45.1162859" lon="7.0342991"><ele>1117.0</ele><time>2026-04-04T15:20:31.596Z</time></trkpt><trkpt lat="45.1162789" lon="7.0344903"><ele>1114.6666666666665</ele><time>2026-04-04T15:20:32.596Z</time></trkpt><trkpt lat="45.1163026" lon="7.0346876"><ele>1112.3333333333333</ele><time>2026-04-04T15:20:33.595Z</time></trkpt><trkpt lat="45.1163422" lon="7.0349007"><ele>1110.0</ele><time>2026-04-04T15:20:34.595Z</time></trkpt><trkpt lat="45.1163731" lon="7.0351348"><ele>1110.0</ele><time>2026-04-04T15:20:35.595Z</time></trkpt><trkpt lat="45.1163974" lon="7.0353603"><ele>1110.0</ele><time>2026-04-04T15:20:36.594Z</time></trkpt><trkpt lat="45.1164191" lon="7.0355858"><ele>1110.0</ele><time>2026-04-04T15:20:37.594Z</time></trkpt><trkpt lat="45.1164448" lon="7.0357988"><ele>1109.3333333333333</ele><time>2026-04-04T15:20:38.594Z</time></trkpt><trkpt lat="45.1164887" lon="7.0360114"><ele>1108.6666666666665</ele><time>2026-04-04T15:20:39.594Z</time></trkpt><trkpt lat="45.1165579" lon="7.0361974"><ele>1108.0</ele><time>2026-04-04T15:20:40.596Z</time></trkpt><trkpt lat="45.1166506" lon="7.0363553"><ele>1098.0</ele><time>2026-04-04T15:20:41.595Z</time></trkpt><trkpt lat="45.1167435" lon="7.0365109"><ele>1088.0</ele><time>2026-04-04T15:20:42.595Z</time></trkpt><trkpt lat="45.1168309" lon="7.0366633"><ele>1078.0</ele><time>2026-04-04T15:20:43.596Z</time></trkpt><trkpt lat="45.1169336" lon="7.0368019"><ele>1068.0</ele><time>2026-04-04T15:20:44.595Z</time></trkpt><trkpt lat="45.1170451" lon="7.0369001"><ele>1068.0</ele><time>2026-04-04T15:20:45.595Z</time></trkpt><trkpt lat="45.1171615" lon="7.0369651"><ele>1068.0</ele><time>2026-04-04T15:20:46.595Z</time></trkpt><trkpt lat="45.1172753" lon="7.0370012"><ele>1068.0</ele><time>2026-04-04T15:20:47.595Z</time></trkpt><trkpt lat="45.1173895" lon="7.0370329"><ele>1068.0</ele><time>2026-04-04T15:20:48.596Z</time></trkpt><trkpt lat="45.1174972" lon="7.0370715"><ele>1061.6666666666667</ele><time>2026-04-04T15:20:49.595Z</time></trkpt><trkpt lat="45.1175884" lon="7.0371276"><ele>1055.3333333333333</ele><time>2026-04-04T15:20:50.595Z</time></trkpt><trkpt lat="45.1176547" lon="7.0371757"><ele>1049.0</ele><time>2026-04-04T15:20:51.594Z</time></trkpt><trkpt lat="45.1177193" lon="7.0371644"><ele>1042.6666666666665</ele><time>2026-04-04T15:20:52.595Z</time></trkpt><trkpt lat="45.1177435" lon="7.0370076"><ele>1036.3333333333333</ele><time>2026-04-04T15:20:54.595Z</time></trkpt><trkpt lat="45.1176954" lon="7.0369056"><ele>1030.0</ele><time>2026-04-04T15:20:55.594Z</time></trkpt><trkpt lat="45.1176148" lon="7.0368094"><ele>1030.0</ele><time>2026-04-04T15:20:56.595Z</time></trkpt><trkpt lat="45.1175248" lon="7.0367071"><ele>1030.0</ele><time>2026-04-04T15:20:57.594Z</time></trkpt><trkpt lat="45.1174312" lon="7.0365926"><ele>1030.0</ele><time>2026-04-04T15:20:58.595Z</time></trkpt><trkpt lat="45.1173447" lon="7.0364625"><ele>1030.0</ele><time>2026-04-04T15:20:59.595Z</time></trkpt><trkpt lat="45.1172594" lon="7.0363248"><ele>1035.75</ele><time>2026-04-04T15:21:00.596Z</time></trkpt><trkpt lat="45.1171803" lon="7.0361952"><ele>1041.5</ele><time>2026-04-04T15:21:01.594Z</time></trkpt><trkpt lat="45.1170932" lon="7.0360635"><ele>1047.25</ele><time>2026-04-04T15:21:02.595Z</time></trkpt><trkpt lat="45.1170412" lon="7.0359217"><ele>1053.0</ele><time>2026-04-04T15:21:03.596Z</time></trkpt><trkpt lat="45.1170077" lon="7.0357721"><ele>1053.0</ele><time>2026-04-04T15:21:04.596Z</time></trkpt><trkpt lat="45.1170046" lon="7.0356128"><ele>1053.0</ele><time>2026-04-04T15:21:05.595Z</time></trkpt><trkpt lat="45.1170042" lon="7.0354543"><ele>1053.0</ele><time>2026-04-04T15:21:06.594Z</time></trkpt><trkpt lat="45.1170396" lon="7.0352823"><ele>1053.0</ele><time>2026-04-04T15:21:07.595Z</time></trkpt><trkpt lat="45.1170788" lon="7.0350962"><ele>1055.0</ele><time>2026-04-04T15:21:08.595Z</time></trkpt><trkpt lat="45.1170958" lon="7.0348999"><ele>1057.0</ele><time>2026-04-04T15:21:09.595Z</time></trkpt><trkpt lat="45.1171255" lon="7.0347051"><ele>1059.0</ele><time>2026-04-04T15:21:10.596Z</time></trkpt><trkpt lat="45.1171558" lon="7.0345181"><ele>1061.0</ele><time>2026-04-04T15:21:11.595Z</time></trkpt><trkpt lat="45.1171749" lon="7.0343248"><ele>1061.0</ele><time>2026-04-04T15:21:12.595Z</time></trkpt><trkpt lat="45.1172053" lon="7.0341518"><ele>1061.0</ele><time>2026-04-04T15:21:13.595Z</time></trkpt><trkpt lat="45.1172346" lon="7.0339842"><ele>1061.0</ele><time>2026-04-04T15:21:14.596Z</time></trkpt><trkpt lat="45.1172576" lon="7.0338586"><ele>1061.0</ele><time>2026-04-04T15:21:15.596Z</time></trkpt><trkpt lat="45.1172811" lon="7.0337624"><ele>1061.0</ele><time>2026-04-04T15:21:16.595Z</time></trkpt><trkpt lat="45.1173616" lon="7.0337007"><ele>1061.0</ele><time>2026-04-04T15:21:18.596Z</time></trkpt><trkpt lat="45.1173947" lon="7.033804"><ele>1061.0</ele><time>2026-04-04T15:21:20.595Z</time></trkpt><trkpt lat="45.1173712" lon="7.0339767"><ele>1061.0</ele><time>2026-04-04T15:21:22.596Z</time></trkpt><trkpt lat="45.1173502" lon="7.0341844"><ele>1061.0</ele><time>2026-04-04T15:21:23.595Z</time></trkpt><trkpt lat="45.1173475" lon="7.0343471"><ele>1061.0</ele><time>2026-04-04T15:21:24.596Z</time></trkpt><trkpt lat="45.1173579" lon="7.0345356"><ele>1061.0</ele><time>2026-04-04T15:21:25.596Z</time></trkpt><trkpt lat="45.1173706" lon="7.0347295"><ele>1061.0</ele><time>2026-04-04T15:21:26.596Z</time></trkpt><trkpt lat="45.1173945" lon="7.0349222"><ele>1061.0</ele><time>2026-04-04T15:21:27.595Z</time></trkpt><trkpt lat="45.1174363" lon="7.0351084"><ele>1045.75</ele><time>2026-04-04T15:21:28.594Z</time></trkpt><trkpt lat="45.1175064" lon="7.0352684"><ele>1030.5</ele><time>2026-04-04T15:21:29.596Z</time></trkpt><trkpt lat="45.1175904" lon="7.0354106"><ele>1015.25</ele><time>2026-04-04T15:21:30.594Z</time></trkpt><trkpt lat="45.1176897" lon="7.0355378"><ele>1000.0</ele><time>2026-04-04T15:21:31.595Z</time></trkpt><trkpt lat="45.1177905" lon="7.0356393"><ele>1000.0</ele><time>2026-04-04T15:21:32.596Z</time></trkpt><trkpt lat="45.1178914" lon="7.0357624"><ele>1000.0</ele><time>2026-04-04T15:21:33.595Z</time></trkpt><trkpt lat="45.1179784" lon="7.0358949"><ele>1000.0</ele><time>2026-04-04T15:21:34.595Z</time></trkpt><trkpt lat="45.1180559" lon="7.03604"><ele>1000.0</ele><time>2026-04-04T15:21:35.595Z</time></trkpt><trkpt lat="45.118119" lon="7.0361579"><ele>1002.4</ele><time>2026-04-04T15:21:36.595Z</time></trkpt><trkpt lat="45.1181654" lon="7.0362582"><ele>1004.8</ele><time>2026-04-04T15:21:37.595Z</time></trkpt><trkpt lat="45.1182478" lon="7.0363335"><ele>1007.2</ele><time>2026-04-04T15:21:39.595Z</time></trkpt><trkpt lat="45.1182775" lon="7.0362231"><ele>1009.6</ele><time>2026-04-04T15:21:41.596Z</time></trkpt><trkpt lat="45.1182052" lon="7.0360442"><ele>1012.0</ele><time>2026-04-04T15:21:43.594Z</time></trkpt><trkpt lat="45.1181631" lon="7.0359208"><ele>1009.6</ele><time>2026-04-04T15:21:44.595Z</time></trkpt><trkpt lat="45.1181302" lon="7.035776"><ele>1007.2</ele><time>2026-04-04T15:21:45.596Z</time></trkpt><trkpt lat="45.1180997" lon="7.0356299"><ele>1004.8</ele><time>2026-04-04T15:21:46.595Z</time></trkpt><trkpt lat="45.1180525" lon="7.035499"><ele>1002.4</ele><time>2026-04-04T15:21:47.596Z</time></trkpt><trkpt lat="45.1179961" lon="7.0353926"><ele>1000.0</ele><time>2026-04-04T15:21:48.595Z</time></trkpt><trkpt lat="45.1179065" lon="7.0352963"><ele>1000.0</ele><time>2026-04-04T15:21:49.595Z</time></trkpt><trkpt lat="45.1178536" lon="7.0351794"><ele>1000.0</ele><time>2026-04-04T15:21:50.595Z</time></trkpt><trkpt lat="45.1178213" lon="7.0350371"><ele>1000.0</ele><time>2026-04-04T15:21:51.595Z</time></trkpt><trkpt lat="45.1178075" lon="7.0348806"><ele>1000.0</ele><time>2026-04-04T15:21:52.595Z</time></trkpt><trkpt lat="45.1177997" lon="7.0347021"><ele>1000.0</ele><time>2026-04-04T15:21:53.595Z</time></trkpt><trkpt lat="45.1178112" lon="7.0345171"><ele>1000.2</ele><time>2026-04-04T15:21:54.595Z</time></trkpt><trkpt lat="45.1178334" lon="7.0343387"><ele>1000.4</ele><time>2026-04-04T15:21:55.595Z</time></trkpt><trkpt lat="45.1178677" lon="7.0341675"><ele>1000.5999999999999</ele><time>2026-04-04T15:21:56.594Z</time></trkpt><trkpt lat="45.1179019" lon="7.0340189"><ele>1000.8</ele><time>2026-04-04T15:21:57.595Z</time></trkpt><trkpt lat="45.1179196" lon="7.0339055"><ele>1001.0</ele><time>2026-04-04T15:21:58.594Z</time></trkpt><trkpt lat="45.1179574" lon="7.0337862"><ele>1001.0</ele><time>2026-04-04T15:22:00.595Z</time></trkpt><trkpt lat="45.1180233" lon="7.0338381"><ele>1000.9999999999999</ele><time>2026-04-04T15:22:02.594Z</time></trkpt><trkpt lat="45.1180215" lon="7.0339591"><ele>1000.9999999999999</ele><time>2026-04-04T15:22:04.594Z</time></trkpt><trkpt lat="45.1179865" lon="7.0341229"><ele>1001.0</ele><time>2026-04-04T15:22:06.594Z</time></trkpt><trkpt lat="45.1179836" lon="7.0342499"><ele>1001.0</ele><time>2026-04-04T15:22:07.594Z</time></trkpt><trkpt lat="45.1179913" lon="7.0343702"><ele>1001.0</ele><time>2026-04-04T15:22:08.595Z</time></trkpt><trkpt lat="45.1180115" lon="7.0344994"><ele>1000.9999999999999</ele><time>2026-04-04T15:22:09.594Z</time></trkpt><trkpt lat="45.1180388" lon="7.0346314"><ele>1000.9999999999999</ele><time>2026-04-04T15:22:10.594Z</time></trkpt><trkpt lat="45.1180673" lon="7.0347643"><ele>1001.0</ele><time>2026-04-04T15:22:11.594Z</time></trkpt><trkpt lat="45.1180986" lon="7.0348939"><ele>1001.0</ele><time>2026-04-04T15:22:12.593Z</time></trkpt><trkpt lat="45.1181422" lon="7.0350149"><ele>1000.8</ele><time>2026-04-04T15:22:13.595Z</time></trkpt><trkpt lat="45.1182148" lon="7.0350975"><ele>1000.5999999999999</ele><time>2026-04-04T15:22:14.595Z</time></trkpt><trkpt lat="45.1182962" lon="7.035142"><ele>1000.4</ele><time>2026-04-04T15:22:15.595Z</time></trkpt><trkpt lat="45.1183877" lon="7.0351794"><ele>1000.2</ele><time>2026-04-04T15:22:16.593Z</time></trkpt><trkpt lat="45.1184847" lon="7.0352409"><ele>1000.0</ele><time>2026-04-04T15:22:17.594Z</time></trkpt><trkpt lat="45.1185705" lon="7.0353282"><ele>993.8</ele><time>2026-04-04T15:22:18.594Z</time></trkpt><trkpt lat="45.118642" lon="7.0354147"><ele>987.6</ele><time>2026-04-04T15:22:19.594Z</time></trkpt><trkpt lat="45.1187183" lon="7.0355036"><ele>981.4000000000001</ele><time>2026-04-04T15:22:20.595Z</time></trkpt><trkpt lat="45.1187864" lon="7.0355953"><ele>975.2</ele><time>2026-04-04T15:22:21.593Z</time></trkpt><trkpt lat="45.1188423" lon="7.0356997"><ele>969.0</ele><time>2026-04-04T15:22:22.595Z</time></trkpt><trkpt lat="45.1188966" lon="7.0358046"><ele>969.0</ele><time>2026-04-04T15:22:23.594Z</time></trkpt><trkpt lat="45.1189499" lon="7.0359126"><ele>969.0000000000001</ele><time>2026-04-04T15:22:24.595Z</time></trkpt><trkpt lat="45.1190003" lon="7.0360226"><ele>969.0000000000001</ele><time>2026-04-04T15:22:25.594Z</time></trkpt><trkpt lat="45.1190427" lon="7.0361418"><ele>969.0</ele><time>2026-04-04T15:22:26.594Z</time></trkpt><trkpt lat="45.1190701" lon="7.0362726"><ele>969.0</ele><time>2026-04-04T15:22:27.593Z</time></trkpt><trkpt lat="45.1190827" lon="7.036414"><ele>959.5</ele><time>2026-04-04T15:22:28.594Z</time></trkpt><trkpt lat="45.1190843" lon="7.0365662"><ele>950.0</ele><time>2026-04-04T15:22:29.594Z</time></trkpt><trkpt lat="45.1190858" lon="7.0367234"><ele>940.5</ele><time>2026-04-04T15:22:30.593Z</time></trkpt><trkpt lat="45.1191258" lon="7.0368767"><ele>931.0</ele><time>2026-04-04T15:22:31.594Z</time></trkpt><trkpt lat="45.1191817" lon="7.0370251"><ele>931.0</ele><time>2026-04-04T15:22:32.593Z</time></trkpt><trkpt lat="45.1192309" lon="7.0371667"><ele>930.9999999999999</ele><time>2026-04-04T15:22:33.594Z</time></trkpt><trkpt lat="45.1192601" lon="7.0373045"><ele>930.9999999999999</ele><time>2026-04-04T15:22:34.594Z</time></trkpt><trkpt lat="45.11926" lon="7.0374383"><ele>931.0</ele><time>2026-04-04T15:22:35.594Z</time></trkpt><trkpt lat="45.1192265" lon="7.0375676"><ele>931.0</ele><time>2026-04-04T15:22:36.595Z</time></trkpt><trkpt lat="45.1191615" lon="7.0376808"><ele>928.5</ele><time>2026-04-04T15:22:37.595Z</time></trkpt><trkpt lat="45.1190829" lon="7.0377816"><ele>926.0</ele><time>2026-04-04T15:22:38.594Z</time></trkpt><trkpt lat="45.1189975" lon="7.0378769"><ele>923.5</ele><time>2026-04-04T15:22:39.594Z</time></trkpt><trkpt lat="45.1188933" lon="7.037962"><ele>921.0</ele><time>2026-04-04T15:22:40.594Z</time></trkpt><trkpt lat="45.1187945" lon="7.0380635"><ele>928.5</ele><time>2026-04-04T15:22:41.595Z</time></trkpt><trkpt lat="45.1187069" lon="7.0381891"><ele>936.0</ele><time>2026-04-04T15:22:42.594Z</time></trkpt><trkpt lat="45.1186328" lon="7.0383252"><ele>943.5</ele><time>2026-04-04T15:22:43.595Z</time></trkpt><trkpt lat="45.1185689" lon="7.0384792"><ele>951.0</ele><time>2026-04-04T15:22:44.593Z</time></trkpt><trkpt lat="45.1185236" lon="7.0386517"><ele>951.0</ele><time>2026-04-04T15:22:45.594Z</time></trkpt><trkpt lat="45.1184752" lon="7.0388167"><ele>951.0</ele><time>2026-04-04T15:22:46.594Z</time></trkpt><trkpt lat="45.1184251" lon="7.0389766"><ele>951.0</ele><time>2026-04-04T15:22:47.594Z</time></trkpt><trkpt lat="45.118375" lon="7.0391288"><ele>951.0</ele><time>2026-04-04T15:22:48.594Z</time></trkpt><trkpt lat="45.1183337" lon="7.0392705"><ele>945.0</ele><time>2026-04-04T15:22:49.593Z</time></trkpt><trkpt lat="45.1183033" lon="7.0394098"><ele>938.9999999999999</ele><time>2026-04-04T15:22:50.593Z</time></trkpt><trkpt lat="45.1182953" lon="7.0395466"><ele>932.9999999999999</ele><time>2026-04-04T15:22:51.594Z</time></trkpt><trkpt lat="45.1183076" lon="7.0396833"><ele>927.0</ele><time>2026-04-04T15:22:52.594Z</time></trkpt><trkpt lat="45.1183383" lon="7.0398115"><ele>921.0</ele><time>2026-04-04T15:22:53.594Z</time></trkpt><trkpt lat="45.1183947" lon="7.0399366"><ele>917.8</ele><time>2026-04-04T15:22:54.594Z</time></trkpt><trkpt lat="45.1184594" lon="7.040059"><ele>914.5999999999999</ele><time>2026-04-04T15:22:55.594Z</time></trkpt><trkpt lat="45.1185232" lon="7.0401801"><ele>911.4</ele><time>2026-04-04T15:22:56.594Z</time></trkpt><trkpt lat="45.1185835" lon="7.0403015"><ele>908.2</ele><time>2026-04-04T15:22:57.595Z</time></trkpt><trkpt lat="45.1186388" lon="7.0404233"><ele>905.0</ele><time>2026-04-04T15:22:58.595Z</time></trkpt><trkpt lat="45.1186937" lon="7.0405397"><ele>905.0</ele><time>2026-04-04T15:22:59.594Z</time></trkpt><trkpt lat="45.1187575" lon="7.0406484"><ele>905.0</ele><time>2026-04-04T15:23:00.593Z</time></trkpt><trkpt lat="45.1188232" lon="7.0407478"><ele>905.0</ele><time>2026-04-04T15:23:01.594Z</time></trkpt><trkpt lat="45.1188723" lon="7.0408566"><ele>905.0</ele><time>2026-04-04T15:23:02.595Z</time></trkpt><trkpt lat="45.1188942" lon="7.0409774"><ele>905.0</ele><time>2026-04-04T15:23:03.594Z</time></trkpt><trkpt lat="45.1188863" lon="7.0410975"><ele>903.2</ele><time>2026-04-04T15:23:04.594Z</time></trkpt><trkpt lat="45.1188469" lon="7.0412001"><ele>901.4</ele><time>2026-04-04T15:23:05.594Z</time></trkpt><trkpt lat="45.118787" lon="7.0412963"><ele>899.5999999999999</ele><time>2026-04-04T15:23:06.593Z</time></trkpt><trkpt lat="45.1187155" lon="7.0414002"><ele>897.8</ele><time>2026-04-04T15:23:07.595Z</time></trkpt><trkpt lat="45.1186284" lon="7.041497"><ele>896.0</ele><time>2026-04-04T15:23:08.594Z</time></trkpt><trkpt lat="45.1185173" lon="7.0415506"><ele>896.0</ele><time>2026-04-04T15:23:09.595Z</time></trkpt><trkpt lat="45.1184023" lon="7.0415407"><ele>895.9999999999999</ele><time>2026-04-04T15:23:10.595Z</time></trkpt><trkpt lat="45.1182902" lon="7.0415438"><ele>895.9999999999999</ele><time>2026-04-04T15:23:11.595Z</time></trkpt><trkpt lat="45.1181867" lon="7.0415817"><ele>896.0</ele><time>2026-04-04T15:23:12.595Z</time></trkpt><trkpt lat="45.118088" lon="7.0416437"><ele>896.0</ele><time>2026-04-04T15:23:13.594Z</time></trkpt><trkpt lat="45.1179948" lon="7.0417167"><ele>899.0</ele><time>2026-04-04T15:23:14.594Z</time></trkpt><trkpt lat="45.1179117" lon="7.0418164"><ele>901.9999999999999</ele><time>2026-04-04T15:23:15.595Z</time></trkpt><trkpt lat="45.1178537" lon="7.0419448"><ele>904.9999999999999</ele><time>2026-04-04T15:23:16.595Z</time></trkpt><trkpt lat="45.1178247" lon="7.0420981"><ele>908.0</ele><time>2026-04-04T15:23:17.594Z</time></trkpt><trkpt lat="45.1178091" lon="7.042264"><ele>911.0</ele><time>2026-04-04T15:23:18.595Z</time></trkpt><trkpt lat="45.1177641" lon="7.0424306"><ele>905.0</ele><time>2026-04-04T15:23:19.594Z</time></trkpt><trkpt lat="45.1177022" lon="7.0425976"><ele>899.0</ele><time>2026-04-04T15:23:20.594Z</time></trkpt><trkpt lat="45.1176309" lon="7.0427547"><ele>893.0</ele><time>2026-04-04T15:23:21.593Z</time></trkpt><trkpt lat="45.1175549" lon="7.0428959"><ele>887.0</ele><time>2026-04-04T15:23:22.595Z</time></trkpt><trkpt lat="45.117472" lon="7.0430135"><ele>887.0000000000001</ele><time>2026-04-04T15:23:23.595Z</time></trkpt><trkpt lat="45.1174054" lon="7.0431236"><ele>887.0</ele><time>2026-04-04T15:23:24.593Z</time></trkpt><trkpt lat="45.1173661" lon="7.0432423"><ele>887.0</ele><time>2026-04-04T15:23:25.594Z</time></trkpt><trkpt lat="45.1173668" lon="7.0433656"><ele>887.0</ele><time>2026-04-04T15:23:26.595Z</time></trkpt><trkpt lat="45.1173976" lon="7.0434662"><ele>887.0000000000001</ele><time>2026-04-04T15:23:27.594Z</time></trkpt><trkpt lat="45.11745" lon="7.0435563"><ele>887.0</ele><time>2026-04-04T15:23:28.593Z</time></trkpt><trkpt lat="45.1174922" lon="7.0436518"><ele>882.4000000000001</ele><time>2026-04-04T15:23:29.595Z</time></trkpt><trkpt lat="45.1175003" lon="7.0437747"><ele>877.8000000000001</ele><time>2026-04-04T15:23:30.593Z</time></trkpt><trkpt lat="45.1174774" lon="7.0439149"><ele>873.2</ele><time>2026-04-04T15:23:31.594Z</time></trkpt><trkpt lat="45.1174498" lon="7.0440774"><ele>868.6</ele><time>2026-04-04T15:23:32.594Z</time></trkpt><trkpt lat="45.117424" lon="7.0442532"><ele>864.0</ele><time>2026-04-04T15:23:33.594Z</time></trkpt><trkpt lat="45.1174037" lon="7.0444274"><ele>860.5</ele><time>2026-04-04T15:23:34.594Z</time></trkpt><trkpt lat="45.1173856" lon="7.0445984"><ele>857.0</ele><time>2026-04-04T15:23:35.595Z</time></trkpt><trkpt lat="45.1173777" lon="7.0447706"><ele>853.5</ele><time>2026-04-04T15:23:36.594Z</time></trkpt><trkpt lat="45.1173802" lon="7.0449368"><ele>850.0</ele><time>2026-04-04T15:23:37.594Z</time></trkpt><trkpt lat="45.1174156" lon="7.0451022"><ele>850.0</ele><time>2026-04-04T15:23:38.593Z</time></trkpt><trkpt lat="45.117481" lon="7.045244"><ele>850.0</ele><time>2026-04-04T15:23:39.594Z</time></trkpt><trkpt lat="45.1175717" lon="7.045345"><ele>850.0</ele><time>2026-04-04T15:23:40.594Z</time></trkpt><trkpt lat="45.1176809" lon="7.0454012"><ele>850.0</ele><time>2026-04-04T15:23:41.595Z</time></trkpt><trkpt lat="45.1178008" lon="7.0454321"><ele>850.0</ele><time>2026-04-04T15:23:42.594Z</time></trkpt><trkpt lat="45.1179238" lon="7.0454958"><ele>850.0</ele><time>2026-04-04T15:23:43.594Z</time></trkpt><trkpt lat="45.1180347" lon="7.0455871"><ele>850.0</ele><time>2026-04-04T15:23:44.594Z</time></trkpt><trkpt lat="45.1181371" lon="7.0456628"><ele>850.0</ele><time>2026-04-04T15:23:45.593Z</time></trkpt><trkpt lat="45.1182377" lon="7.0457252"><ele>843.8</ele><time>2026-04-04T15:23:46.594Z</time></trkpt><trkpt lat="45.1183451" lon="7.045734"><ele>837.6</ele><time>2026-04-04T15:23:47.595Z</time></trkpt><trkpt lat="45.1184402" lon="7.0456988"><ele>831.4000000000001</ele><time>2026-04-04T15:23:48.594Z</time></trkpt><trkpt lat="45.118528" lon="7.0456339"><ele>825.2</ele><time>2026-04-04T15:23:49.595Z</time></trkpt><trkpt lat="45.1186189" lon="7.0455583"><ele>819.0</ele><time>2026-04-04T15:23:50.594Z</time></trkpt><trkpt lat="45.1187039" lon="7.0455134"><ele>819.0</ele><time>2026-04-04T15:23:51.594Z</time></trkpt><trkpt lat="45.118788" lon="7.0455231"><ele>819.0</ele><time>2026-04-04T15:23:52.593Z</time></trkpt><trkpt lat="45.1188591" lon="7.0455874"><ele>819.0</ele><time>2026-04-04T15:23:53.594Z</time></trkpt><trkpt lat="45.1189277" lon="7.0456877"><ele>819.0</ele><time>2026-04-04T15:23:54.594Z</time></trkpt><trkpt lat="45.1190102" lon="7.0458023"><ele>819.0</ele><time>2026-04-04T15:23:55.594Z</time></trkpt><trkpt lat="45.1191044" lon="7.0459229"><ele>819.0</ele><time>2026-04-04T15:23:56.594Z</time></trkpt><trkpt lat="45.1192023" lon="7.0460405"><ele>819.0</ele><time>2026-04-04T15:23:57.594Z</time></trkpt><trkpt lat="45.1192958" lon="7.0461542"><ele>819.0</ele><time>2026-04-04T15:23:58.594Z</time></trkpt><trkpt lat="45.1193931" lon="7.0462622"><ele>819.0</ele><time>2026-04-04T15:23:59.595Z</time></trkpt><trkpt lat="45.1194915" lon="7.0463559"><ele>819.0</ele><time>2026-04-04T15:24:00.594Z</time></trkpt><trkpt lat="45.1195958" lon="7.0464378"><ele>819.0</ele><time>2026-04-04T15:24:01.594Z</time></trkpt><trkpt lat="45.1196957" lon="7.0465242"><ele>819.0</ele><time>2026-04-04T15:24:02.594Z</time></trkpt><trkpt lat="45.119773" lon="7.046635"><ele>819.0</ele><time>2026-04-04T15:24:03.594Z</time></trkpt><trkpt lat="45.1198251" lon="7.0467558"><ele>819.0</ele><time>2026-04-04T15:24:04.594Z</time></trkpt><trkpt lat="45.1198515" lon="7.0468592"><ele>819.0</ele><time>2026-04-04T15:24:05.595Z</time></trkpt><trkpt lat="45.119921" lon="7.0469573"><ele>819.0</ele><time>2026-04-04T15:24:07.594Z</time></trkpt><trkpt lat="45.1199537" lon="7.0468548"><ele>819.0</ele><time>2026-04-04T15:24:09.594Z</time></trkpt><trkpt lat="45.1199452" lon="7.0466608"><ele>819.0</ele><time>2026-04-04T15:24:11.593Z</time></trkpt><trkpt lat="45.1199127" lon="7.0465473"><ele>819.0</ele><time>2026-04-04T15:24:12.594Z</time></trkpt><trkpt lat="45.1198578" lon="7.0464295"><ele>819.0</ele><time>2026-04-04T15:24:13.595Z</time></trkpt><trkpt lat="45.1197898" lon="7.0463207"><ele>819.0</ele><time>2026-04-04T15:24:14.594Z</time></trkpt><trkpt lat="45.1197129" lon="7.0462181"><ele>819.0</ele><time>2026-04-04T15:24:15.594Z</time></trkpt><trkpt lat="45.1196306" lon="7.0461245"><ele>819.0</ele><time>2026-04-04T15:24:16.593Z</time></trkpt><trkpt lat="45.1195617" lon="7.0460196"><ele>819.0</ele><time>2026-04-04T15:24:17.594Z</time></trkpt><trkpt lat="45.1195075" lon="7.0458943"><ele>814.0</ele><time>2026-04-04T15:24:18.595Z</time></trkpt><trkpt lat="45.1194778" lon="7.0457524"><ele>809.0</ele><time>2026-04-04T15:24:19.595Z</time></trkpt><trkpt lat="45.119452" lon="7.045616"><ele>804.0</ele><time>2026-04-04T15:24:20.593Z</time></trkpt><trkpt lat="45.1193907" lon="7.0455063"><ele>799.0</ele><time>2026-04-04T15:24:21.594Z</time></trkpt><trkpt lat="45.119317" lon="7.0454262"><ele>794.0</ele><time>2026-04-04T15:24:22.594Z</time></trkpt><trkpt lat="45.1192556" lon="7.045332"><ele>794.0000000000001</ele><time>2026-04-04T15:24:23.594Z</time></trkpt><trkpt lat="45.1192109" lon="7.0452285"><ele>794.0</ele><time>2026-04-04T15:24:24.593Z</time></trkpt><trkpt lat="45.1191757" lon="7.04512"><ele>794.0</ele><time>2026-04-04T15:24:25.594Z</time></trkpt><trkpt lat="45.1191617" lon="7.0449716"><ele>794.0</ele><time>2026-04-04T15:24:27.594Z</time></trkpt><trkpt lat="45.119234" lon="7.0449597"><ele>794.0000000000001</ele><time>2026-04-04T15:24:29.593Z</time></trkpt><trkpt lat="45.1192505" lon="7.0450998"><ele>794.0</ele><time>2026-04-04T15:24:31.594Z</time></trkpt><trkpt lat="45.119279" lon="7.0451883"><ele>794.0</ele><time>2026-04-04T15:24:32.594Z</time></trkpt><trkpt lat="45.1193307" lon="7.0452702"><ele>794.0</ele><time>2026-04-04T15:24:33.594Z</time></trkpt><trkpt lat="45.1194121" lon="7.0453211"><ele>794.0</ele><time>2026-04-04T15:24:34.595Z</time></trkpt><trkpt lat="45.1195083" lon="7.0453755"><ele>794.0</ele><time>2026-04-04T15:24:35.595Z</time></trkpt><trkpt lat="45.1195856" lon="7.045461"><ele>794.0</ele><time>2026-04-04T15:24:36.594Z</time></trkpt><trkpt lat="45.1196394" lon="7.0455789"><ele>794.0</ele><time>2026-04-04T15:24:37.595Z</time></trkpt><trkpt lat="45.1196671" lon="7.0457038"><ele>794.0</ele><time>2026-04-04T15:24:38.595Z</time></trkpt><trkpt lat="45.1197143" lon="7.0458166"><ele>794.0</ele><time>2026-04-04T15:24:39.595Z</time></trkpt><trkpt lat="45.1197704" lon="7.0459162"><ele>794.0</ele><time>2026-04-04T15:24:40.594Z</time></trkpt><trkpt lat="45.1198352" lon="7.0459916"><ele>794.0</ele><time>2026-04-04T15:24:41.594Z</time></trkpt><trkpt lat="45.1199231" lon="7.04604"><ele>789.8000000000001</ele><time>2026-04-04T15:24:42.594Z</time></trkpt><trkpt lat="45.120013" lon="7.0460666"><ele>785.6</ele><time>2026-04-04T15:24:43.594Z</time></trkpt><trkpt lat="45.1201171" lon="7.0460932"><ele>781.4</ele><time>2026-04-04T15:24:44.594Z</time></trkpt><trkpt lat="45.1202174" lon="7.0461442"><ele>777.2</ele><time>2026-04-04T15:24:45.594Z</time></trkpt><trkpt lat="45.1203107" lon="7.0462237"><ele>773.0</ele><time>2026-04-04T15:24:46.594Z</time></trkpt><trkpt lat="45.1203818" lon="7.0463273"><ele>773.0000000000001</ele><time>2026-04-04T15:24:47.594Z</time></trkpt><trkpt lat="45.1204444" lon="7.0464401"><ele>773.0</ele><time>2026-04-04T15:24:48.595Z</time></trkpt><trkpt lat="45.1204979" lon="7.0465587"><ele>773.0</ele><time>2026-04-04T15:24:49.594Z</time></trkpt><trkpt lat="45.1205348" lon="7.0466626"><ele>773.0</ele><time>2026-04-04T15:24:50.594Z</time></trkpt><trkpt lat="45.1205639" lon="7.0467537"><ele>773.0000000000001</ele><time>2026-04-04T15:24:51.594Z</time></trkpt><trkpt lat="45.1205911" lon="7.0468375"><ele>773.0</ele><time>2026-04-04T15:24:52.594Z</time></trkpt><trkpt lat="45.120632" lon="7.0469224"><ele>769.4</ele><time>2026-04-04T15:24:53.595Z</time></trkpt><trkpt lat="45.120693" lon="7.0469929"><ele>765.8</ele><time>2026-04-04T15:24:54.594Z</time></trkpt><trkpt lat="45.1207687" lon="7.0470884"><ele>762.2</ele><time>2026-04-04T15:24:55.594Z</time></trkpt><trkpt lat="45.1208394" lon="7.0472176"><ele>758.6</ele><time>2026-04-04T15:24:56.594Z</time></trkpt><trkpt lat="45.1209236" lon="7.0473284"><ele>755.0</ele><time>2026-04-04T15:24:57.595Z</time></trkpt><trkpt lat="45.1210183" lon="7.047419"><ele>758.8</ele><time>2026-04-04T15:24:58.594Z</time></trkpt><trkpt lat="45.1211133" lon="7.0475002"><ele>762.6</ele><time>2026-04-04T15:24:59.595Z</time></trkpt><trkpt lat="45.1212096" lon="7.0475683"><ele>766.4000000000001</ele><time>2026-04-04T15:25:00.595Z</time></trkpt><trkpt lat="45.1212932" lon="7.0476495"><ele>770.2</ele><time>2026-04-04T15:25:01.594Z</time></trkpt><trkpt lat="45.1213689" lon="7.0477498"><ele>774.0</ele><time>2026-04-04T15:25:02.595Z</time></trkpt><trkpt lat="45.1214321" lon="7.0478612"><ele>774.0</ele><time>2026-04-04T15:25:03.595Z</time></trkpt><trkpt lat="45.121479" lon="7.0479773"><ele>774.0</ele><time>2026-04-04T15:25:04.594Z</time></trkpt><trkpt lat="45.1214921" lon="7.0480698"><ele>774.0</ele><time>2026-04-04T15:25:05.593Z</time></trkpt><trkpt lat="45.1214728" lon="7.0481591"><ele>774.0</ele><time>2026-04-04T15:25:06.594Z</time></trkpt><trkpt lat="45.1214254" lon="7.0482439"><ele>774.0</ele><time>2026-04-04T15:25:07.594Z</time></trkpt><trkpt lat="45.1213702" lon="7.0483491"><ele>774.0</ele><time>2026-04-04T15:25:08.594Z</time></trkpt><trkpt lat="45.121331" lon="7.0484646"><ele>776.4000000000001</ele><time>2026-04-04T15:25:09.595Z</time></trkpt><trkpt lat="45.1213153" lon="7.0486054"><ele>778.8</ele><time>2026-04-04T15:25:10.594Z</time></trkpt><trkpt lat="45.1213073" lon="7.0487646"><ele>781.2</ele><time>2026-04-04T15:25:11.594Z</time></trkpt><trkpt lat="45.1212989" lon="7.0489311"><ele>783.5999999999999</ele><time>2026-04-04T15:25:12.594Z</time></trkpt><trkpt lat="45.1212843" lon="7.0490936"><ele>786.0</ele><time>2026-04-04T15:25:13.594Z</time></trkpt><trkpt lat="45.1212697" lon="7.0492544"><ele>786.0</ele><time>2026-04-04T15:25:14.594Z</time></trkpt><trkpt lat="45.1212558" lon="7.0494143"><ele>786.0</ele><time>2026-04-04T15:25:15.594Z</time></trkpt><trkpt lat="45.1212335" lon="7.0495743"><ele>786.0</ele><time>2026-04-04T15:25:16.594Z</time></trkpt><trkpt lat="45.121196" lon="7.0497341"><ele>786.0</ele><time>2026-04-04T15:25:17.595Z</time></trkpt><trkpt lat="45.1211406" lon="7.0498863"><ele>777.75</ele><time>2026-04-04T15:25:18.593Z</time></trkpt><trkpt lat="45.1210749" lon="7.0500329"><ele>769.5</ele><time>2026-04-04T15:25:19.593Z</time></trkpt><trkpt lat="45.1209942" lon="7.0501649"><ele>761.25</ele><time>2026-04-04T15:25:20.594Z</time></trkpt><trkpt lat="45.120899" lon="7.0502774"><ele>753.0</ele><time>2026-04-04T15:25:21.594Z</time></trkpt><trkpt lat="45.1208005" lon="7.0503804"><ele>761.2</ele><time>2026-04-04T15:25:22.594Z</time></trkpt><trkpt lat="45.1207061" lon="7.0504778"><ele>769.4</ele><time>2026-04-04T15:25:23.594Z</time></trkpt><trkpt lat="45.1206122" lon="7.0505583"><ele>777.6</ele><time>2026-04-04T15:25:24.593Z</time></trkpt><trkpt lat="45.1205218" lon="7.0506202"><ele>785.8000000000001</ele><time>2026-04-04T15:25:25.594Z</time></trkpt><trkpt lat="45.1204434" lon="7.0506762"><ele>794.0</ele><time>2026-04-04T15:25:26.594Z</time></trkpt><trkpt lat="45.1203875" lon="7.0507556"><ele>787.5714285714286</ele><time>2026-04-04T15:25:27.594Z</time></trkpt><trkpt lat="45.1203606" lon="7.0508543"><ele>781.1428571428571</ele><time>2026-04-04T15:25:28.594Z</time></trkpt><trkpt lat="45.1203498" lon="7.0509484"><ele>774.7142857142858</ele><time>2026-04-04T15:25:29.594Z</time></trkpt><trkpt lat="45.1203381" lon="7.051044"><ele>768.2857142857142</ele><time>2026-04-04T15:25:30.594Z</time></trkpt><trkpt lat="45.1203465" lon="7.0511508"><ele>761.8571428571429</ele><time>2026-04-04T15:25:31.593Z</time></trkpt><trkpt lat="45.1203776" lon="7.0512556"><ele>755.4285714285714</ele><time>2026-04-04T15:25:32.594Z</time></trkpt><trkpt lat="45.120446" lon="7.0513188"><ele>749.0</ele><time>2026-04-04T15:25:33.595Z</time></trkpt><trkpt lat="45.1205217" lon="7.0513518"><ele>749.0</ele><time>2026-04-04T15:25:34.594Z</time></trkpt><trkpt lat="45.1206442" lon="7.0513792"><ele>749.0</ele><time>2026-04-04T15:25:35.595Z</time></trkpt><trkpt lat="45.1207426" lon="7.0514376"><ele>749.0</ele><time>2026-04-04T15:25:36.595Z</time></trkpt><trkpt lat="45.1208" lon="7.0515271"><ele>749.0</ele><time>2026-04-04T15:25:37.594Z</time></trkpt><trkpt lat="45.1208689" lon="7.0516244"><ele>749.0</ele><time>2026-04-04T15:25:38.594Z</time></trkpt><trkpt lat="45.1209199" lon="7.0517403"><ele>745.2</ele><time>2026-04-04T15:25:39.593Z</time></trkpt><trkpt lat="45.1209357" lon="7.0518754"><ele>741.4000000000001</ele><time>2026-04-04T15:25:40.593Z</time></trkpt><trkpt lat="45.1209213" lon="7.0520215"><ele>737.6</ele><time>2026-04-04T15:25:41.595Z</time></trkpt><trkpt lat="45.1209057" lon="7.0521829"><ele>733.8</ele><time>2026-04-04T15:25:42.595Z</time></trkpt><trkpt lat="45.1208892" lon="7.0523582"><ele>730.0</ele><time>2026-04-04T15:25:43.595Z</time></trkpt><trkpt lat="45.1208776" lon="7.0525423"><ele>730.0</ele><time>2026-04-04T15:25:44.594Z</time></trkpt><trkpt lat="45.1208606" lon="7.0527255"><ele>730.0</ele><time>2026-04-04T15:25:45.594Z</time></trkpt><trkpt lat="45.1208458" lon="7.0529139"><ele>730.0</ele><time>2026-04-04T15:25:46.594Z</time></trkpt><trkpt lat="45.1208317" lon="7.0531014"><ele>730.0</ele><time>2026-04-04T15:25:47.594Z</time></trkpt><trkpt lat="45.1208098" lon="7.053291"><ele>728.3333333333334</ele><time>2026-04-04T15:25:48.593Z</time></trkpt><trkpt lat="45.1207631" lon="7.0534853"><ele>726.6666666666666</ele><time>2026-04-04T15:25:49.593Z</time></trkpt><trkpt lat="45.1206991" lon="7.0536854"><ele>725.0</ele><time>2026-04-04T15:25:50.593Z</time></trkpt><trkpt lat="45.1206248" lon="7.0538833"><ele>727.3333333333333</ele><time>2026-04-04T15:25:51.595Z</time></trkpt><trkpt lat="45.120551" lon="7.0540697"><ele>729.6666666666666</ele><time>2026-04-04T15:25:52.595Z</time></trkpt><trkpt lat="45.1204746" lon="7.0542531"><ele>732.0</ele><time>2026-04-04T15:25:53.593Z</time></trkpt><trkpt lat="45.1203993" lon="7.0544367"><ele>732.0</ele><time>2026-04-04T15:25:54.595Z</time></trkpt><trkpt lat="45.120323" lon="7.0546166"><ele>732.0</ele><time>2026-04-04T15:25:55.593Z</time></trkpt><trkpt lat="45.1202679" lon="7.0548005"><ele>732.0</ele><time>2026-04-04T15:25:56.594Z</time></trkpt><trkpt lat="45.1202421" lon="7.0549941"><ele>732.0</ele><time>2026-04-04T15:25:57.594Z</time></trkpt><trkpt lat="45.1202445" lon="7.0551918"><ele>731.0</ele><time>2026-04-04T15:25:58.595Z</time></trkpt><trkpt lat="45.1202649" lon="7.0553906"><ele>730.0</ele><time>2026-04-04T15:25:59.595Z</time></trkpt><trkpt lat="45.1203115" lon="7.0555697"><ele>729.0</ele><time>2026-04-04T15:26:00.594Z</time></trkpt><trkpt lat="45.1203802" lon="7.0557288"><ele>728.0</ele><time>2026-04-04T15:26:01.593Z</time></trkpt><trkpt lat="45.1204774" lon="7.0558548"><ele>728.0</ele><time>2026-04-04T15:26:02.595Z</time></trkpt><trkpt lat="45.1205938" lon="7.0559258"><ele>728.0</ele><time>2026-04-04T15:26:03.593Z</time></trkpt><trkpt lat="45.1207042" lon="7.0559539"><ele>728.0</ele><time>2026-04-04T15:26:04.593Z</time></trkpt><trkpt lat="45.1207953" lon="7.0560409"><ele>728.0</ele><time>2026-04-04T15:26:05.594Z</time></trkpt><trkpt lat="45.1208598" lon="7.0561578"><ele>723.5</ele><time>2026-04-04T15:26:06.595Z</time></trkpt><trkpt lat="45.1209011" lon="7.0563103"><ele>719.0</ele><time>2026-04-04T15:26:07.594Z</time></trkpt><trkpt lat="45.1209518" lon="7.0564844"><ele>714.5</ele><time>2026-04-04T15:26:08.594Z</time></trkpt><trkpt lat="45.12102" lon="7.0566495"><ele>710.0</ele><time>2026-04-04T15:26:09.594Z</time></trkpt><trkpt lat="45.1210915" lon="7.0568178"><ele>710.0</ele><time>2026-04-04T15:26:10.594Z</time></trkpt><trkpt lat="45.1211586" lon="7.0569739"><ele>710.0</ele><time>2026-04-04T15:26:11.594Z</time></trkpt><trkpt lat="45.1212086" lon="7.0571164"><ele>710.0</ele><time>2026-04-04T15:26:12.594Z</time></trkpt><trkpt lat="45.1212222" lon="7.0572813"><ele>710.0</ele><time>2026-04-04T15:26:13.594Z</time></trkpt><trkpt lat="45.1212222" lon="7.05745"><ele>711.5</ele><time>2026-04-04T15:26:14.594Z</time></trkpt><trkpt lat="45.1212271" lon="7.0576204"><ele>713.0</ele><time>2026-04-04T15:26:15.593Z</time></trkpt><trkpt lat="45.1212562" lon="7.0577842"><ele>714.5</ele><time>2026-04-04T15:26:16.593Z</time></trkpt><trkpt lat="45.1212915" lon="7.0579376"><ele>716.0</ele><time>2026-04-04T15:26:17.594Z</time></trkpt><trkpt lat="45.1213201" lon="7.0580854"><ele>716.0</ele><time>2026-04-04T15:26:18.593Z</time></trkpt><trkpt lat="45.1213275" lon="7.0582325"><ele>716.0</ele><time>2026-04-04T15:26:19.593Z</time></trkpt><trkpt lat="45.1213092" lon="7.058388"><ele>716.0</ele><time>2026-04-04T15:26:20.593Z</time></trkpt><trkpt lat="45.1212805" lon="7.0585426"><ele>716.0</ele><time>2026-04-04T15:26:21.594Z</time></trkpt><trkpt lat="45.1212438" lon="7.0587038"><ele>716.0</ele><time>2026-04-04T15:26:22.593Z</time></trkpt><trkpt lat="45.1212067" lon="7.0588619"><ele>716.5</ele><time>2026-04-04T15:26:23.593Z</time></trkpt><trkpt lat="45.1211659" lon="7.0590281"><ele>717.0</ele><time>2026-04-04T15:26:24.593Z</time></trkpt><trkpt lat="45.1211274" lon="7.0591958"><ele>717.5</ele><time>2026-04-04T15:26:25.594Z</time></trkpt><trkpt lat="45.121095" lon="7.0593575"><ele>718.0</ele><time>2026-04-04T15:26:26.593Z</time></trkpt><trkpt lat="45.1210686" lon="7.0595116"><ele>716.8333333333334</ele><time>2026-04-04T15:26:27.592Z</time></trkpt><trkpt lat="45.1210484" lon="7.0596569"><ele>715.6666666666667</ele><time>2026-04-04T15:26:28.593Z</time></trkpt><trkpt lat="45.1210263" lon="7.0597902"><ele>714.5</ele><time>2026-04-04T15:26:29.593Z</time></trkpt><trkpt lat="45.1210027" lon="7.059915"><ele>713.3333333333334</ele><time>2026-04-04T15:26:30.594Z</time></trkpt><trkpt lat="45.1209911" lon="7.0600104"><ele>712.1666666666666</ele><time>2026-04-04T15:26:31.593Z</time></trkpt><trkpt lat="45.1210309" lon="7.0601105"><ele>711.0</ele><time>2026-04-04T15:26:33.593Z</time></trkpt><trkpt lat="45.1210781" lon="7.0600474"><ele>711.0</ele><time>2026-04-04T15:26:35.593Z</time></trkpt><trkpt lat="45.1210919" lon="7.0599064"><ele>711.0</ele><time>2026-04-04T15:26:37.594Z</time></trkpt><trkpt lat="45.1211076" lon="7.0597997"><ele>711.0</ele><time>2026-04-04T15:26:38.593Z</time></trkpt><trkpt lat="45.1211303" lon="7.0596822"><ele>711.0</ele><time>2026-04-04T15:26:39.594Z</time></trkpt><trkpt lat="45.1211683" lon="7.0595513"><ele>711.0</ele><time>2026-04-04T15:26:40.592Z</time></trkpt><trkpt lat="45.1212194" lon="7.0594252"><ele>711.0</ele><time>2026-04-04T15:26:41.594Z</time></trkpt><trkpt lat="45.1212824" lon="7.0593055"><ele>711.0</ele><time>2026-04-04T15:26:42.593Z</time></trkpt><trkpt lat="45.12135" lon="7.0591877"><ele>711.0</ele><time>2026-04-04T15:26:43.593Z</time></trkpt><trkpt lat="45.121415" lon="7.059072"><ele>711.0</ele><time>2026-04-04T15:26:44.592Z</time></trkpt><trkpt lat="45.121474" lon="7.0589521"><ele>711.0</ele><time>2026-04-04T15:26:45.592Z</time></trkpt><trkpt lat="45.1215241" lon="7.0588214"><ele>712.75</ele><time>2026-04-04T15:26:46.592Z</time></trkpt><trkpt lat="45.1215637" lon="7.0586786"><ele>714.5</ele><time>2026-04-04T15:26:47.593Z</time></trkpt><trkpt lat="45.1215949" lon="7.0585156"><ele>716.25</ele><time>2026-04-04T15:26:48.593Z</time></trkpt><trkpt lat="45.121622" lon="7.0583431"><ele>718.0</ele><time>2026-04-04T15:26:49.593Z</time></trkpt><trkpt lat="45.1216525" lon="7.0581718"><ele>708.5</ele><time>2026-04-04T15:26:50.593Z</time></trkpt><trkpt lat="45.1216825" lon="7.0579998"><ele>699.0</ele><time>2026-04-04T15:26:51.593Z</time></trkpt><trkpt lat="45.1217089" lon="7.0578226"><ele>689.5</ele><time>2026-04-04T15:26:52.594Z</time></trkpt><trkpt lat="45.1217319" lon="7.0576452"><ele>680.0</ele><time>2026-04-04T15:26:53.593Z</time></trkpt><trkpt lat="45.1217472" lon="7.057469"><ele>680.4</ele><time>2026-04-04T15:26:54.594Z</time></trkpt><trkpt lat="45.1217569" lon="7.0573052"><ele>680.8</ele><time>2026-04-04T15:26:55.594Z</time></trkpt><trkpt lat="45.1217843" lon="7.0571583"><ele>681.2</ele><time>2026-04-04T15:26:56.594Z</time></trkpt><trkpt lat="45.1218339" lon="7.0570372"><ele>681.6</ele><time>2026-04-04T15:26:57.592Z</time></trkpt><trkpt lat="45.1219404" lon="7.0569786"><ele>682.0</ele><time>2026-04-04T15:26:58.594Z</time></trkpt><trkpt lat="45.1220413" lon="7.0569362"><ele>682.0</ele><time>2026-04-04T15:26:59.594Z</time></trkpt><trkpt lat="45.1221406" lon="7.0568918"><ele>682.0</ele><time>2026-04-04T15:27:00.594Z</time></trkpt><trkpt lat="45.1222192" lon="7.056859"><ele>682.0</ele><time>2026-04-04T15:27:01.594Z</time></trkpt><trkpt lat="45.1222822" lon="7.0568697"><ele>682.0</ele><time>2026-04-04T15:27:02.593Z</time></trkpt><trkpt lat="45.1223159" lon="7.0570212"><ele>682.0</ele><time>2026-04-04T15:27:04.593Z</time></trkpt><trkpt lat="45.1222879" lon="7.0571348"><ele>682.0</ele><time>2026-04-04T15:27:05.593Z</time></trkpt><trkpt lat="45.1222506" lon="7.0572648"><ele>682.0</ele><time>2026-04-04T15:27:06.594Z</time></trkpt><trkpt lat="45.1222087" lon="7.0573899"><ele>682.0</ele><time>2026-04-04T15:27:07.593Z</time></trkpt><trkpt lat="45.1221756" lon="7.0575261"><ele>682.0</ele><time>2026-04-04T15:27:08.594Z</time></trkpt><trkpt lat="45.1221607" lon="7.0576703"><ele>682.0</ele><time>2026-04-04T15:27:09.594Z</time></trkpt><trkpt lat="45.1221684" lon="7.0578101"><ele>682.0</ele><time>2026-04-04T15:27:10.593Z</time></trkpt><trkpt lat="45.1221915" lon="7.0579588"><ele>681.6</ele><time>2026-04-04T15:27:11.594Z</time></trkpt><trkpt lat="45.1222131" lon="7.0581144"><ele>681.2</ele><time>2026-04-04T15:27:12.593Z</time></trkpt><trkpt lat="45.1222369" lon="7.0582778"><ele>680.8</ele><time>2026-04-04T15:27:13.592Z</time></trkpt><trkpt lat="45.1222559" lon="7.0584284"><ele>680.4</ele><time>2026-04-04T15:27:14.592Z</time></trkpt><trkpt lat="45.1222789" lon="7.0585797"><ele>680.0</ele><time>2026-04-04T15:27:15.593Z</time></trkpt><trkpt lat="45.1223125" lon="7.0587242"><ele>679.75</ele><time>2026-04-04T15:27:16.592Z</time></trkpt><trkpt lat="45.1223606" lon="7.058869"><ele>679.5</ele><time>2026-04-04T15:27:17.594Z</time></trkpt><trkpt lat="45.1224221" lon="7.0590057"><ele>679.25</ele><time>2026-04-04T15:27:18.593Z</time></trkpt><trkpt lat="45.1224928" lon="7.0591255"><ele>679.0</ele><time>2026-04-04T15:27:19.594Z</time></trkpt><trkpt lat="45.1225678" lon="7.0592447"><ele>672.6</ele><time>2026-04-04T15:27:20.592Z</time></trkpt><trkpt lat="45.1226359" lon="7.0593625"><ele>666.2</ele><time>2026-04-04T15:27:21.592Z</time></trkpt><trkpt lat="45.1226876" lon="7.0594867"><ele>659.8000000000001</ele><time>2026-04-04T15:27:22.594Z</time></trkpt><trkpt lat="45.122722" lon="7.0596166"><ele>653.4000000000001</ele><time>2026-04-04T15:27:23.593Z</time></trkpt><trkpt lat="45.122749" lon="7.0597635"><ele>647.0</ele><time>2026-04-04T15:27:24.593Z</time></trkpt><trkpt lat="45.1227767" lon="7.0599177"><ele>647.2</ele><time>2026-04-04T15:27:25.594Z</time></trkpt><trkpt lat="45.1228055" lon="7.0600655"><ele>647.4000000000001</ele><time>2026-04-04T15:27:26.593Z</time></trkpt><trkpt lat="45.1228298" lon="7.0602113"><ele>647.5999999999999</ele><time>2026-04-04T15:27:27.593Z</time></trkpt><trkpt lat="45.1228489" lon="7.0603411"><ele>647.8</ele><time>2026-04-04T15:27:28.593Z</time></trkpt><trkpt lat="45.122873" lon="7.0604475"><ele>648.0</ele><time>2026-04-04T15:27:29.593Z</time></trkpt><trkpt lat="45.1229594" lon="7.0605376"><ele>648.0</ele><time>2026-04-04T15:27:31.593Z</time></trkpt><trkpt lat="45.1230404" lon="7.0604347"><ele>648.0</ele><time>2026-04-04T15:27:33.594Z</time></trkpt><trkpt lat="45.1230813" lon="7.0603325"><ele>648.0</ele><time>2026-04-04T15:27:34.593Z</time></trkpt><trkpt lat="45.1231323" lon="7.0602243"><ele>648.0</ele><time>2026-04-04T15:27:35.593Z</time></trkpt><trkpt lat="45.1231818" lon="7.0601273"><ele>648.0</ele><time>2026-04-04T15:27:36.593Z</time></trkpt><trkpt lat="45.1232247" lon="7.0600241"><ele>645.5</ele><time>2026-04-04T15:27:37.594Z</time></trkpt><trkpt lat="45.1232734" lon="7.0599348"><ele>643.0</ele><time>2026-04-04T15:27:38.594Z</time></trkpt><trkpt lat="45.1233412" lon="7.0598706"><ele>640.5</ele><time>2026-04-04T15:27:39.593Z</time></trkpt><trkpt lat="45.1234227" lon="7.059846"><ele>638.0</ele><time>2026-04-04T15:27:40.593Z</time></trkpt><trkpt lat="45.1235017" lon="7.0598752"><ele>635.5</ele><time>2026-04-04T15:27:41.594Z</time></trkpt><trkpt lat="45.1235738" lon="7.0599426"><ele>633.0</ele><time>2026-04-04T15:27:42.593Z</time></trkpt><trkpt lat="45.1236299" lon="7.0600407"><ele>632.6666666666666</ele><time>2026-04-04T15:27:43.593Z</time></trkpt><trkpt lat="45.123677" lon="7.0601547"><ele>632.3333333333334</ele><time>2026-04-04T15:27:44.592Z</time></trkpt><trkpt lat="45.1237232" lon="7.0602601"><ele>632.0</ele><time>2026-04-04T15:27:45.593Z</time></trkpt><trkpt lat="45.1237719" lon="7.0603396"><ele>631.6666666666667</ele><time>2026-04-04T15:27:46.593Z</time></trkpt><trkpt lat="45.1238289" lon="7.0603891"><ele>631.3333333333334</ele><time>2026-04-04T15:27:47.594Z</time></trkpt><trkpt lat="45.1238996" lon="7.060408"><ele>631.0</ele><time>2026-04-04T15:27:48.593Z</time></trkpt><trkpt lat="45.1239705" lon="7.0603939"><ele>631.0</ele><time>2026-04-04T15:27:49.593Z</time></trkpt><trkpt lat="45.1240381" lon="7.0602958"><ele>631.0</ele><time>2026-04-04T15:27:51.594Z</time></trkpt><trkpt lat="45.1240989" lon="7.0602628"><ele>631.0</ele><time>2026-04-04T15:27:53.593Z</time></trkpt><trkpt lat="45.1240998" lon="7.0603541"><ele>631.0</ele><time>2026-04-04T15:27:55.593Z</time></trkpt><trkpt lat="45.1240026" lon="7.0604754"><ele>631.0</ele><time>2026-04-04T15:27:57.594Z</time></trkpt><trkpt lat="45.1239326" lon="7.0605181"><ele>631.0</ele><time>2026-04-04T15:27:58.594Z</time></trkpt><trkpt lat="45.1238565" lon="7.0605518"><ele>631.0</ele><time>2026-04-04T15:27:59.594Z</time></trkpt><trkpt lat="45.1237814" lon="7.0605929"><ele>631.0</ele><time>2026-04-04T15:28:00.592Z</time></trkpt><trkpt lat="45.1237091" lon="7.0606465"><ele>631.0</ele><time>2026-04-04T15:28:01.593Z</time></trkpt><trkpt lat="45.1236568" lon="7.0607258"><ele>631.0</ele><time>2026-04-04T15:28:02.593Z</time></trkpt><trkpt lat="45.1236308" lon="7.0608221"><ele>631.0</ele><time>2026-04-04T15:28:03.593Z</time></trkpt><trkpt lat="45.1236173" lon="7.060925"><ele>631.0</ele><time>2026-04-04T15:28:04.593Z</time></trkpt><trkpt lat="45.1235869" lon="7.0610281"><ele>630.0</ele><time>2026-04-04T15:28:05.594Z</time></trkpt><trkpt lat="45.1235347" lon="7.0611082"><ele>629.0</ele><time>2026-04-04T15:28:06.594Z</time></trkpt><trkpt lat="45.1234687" lon="7.0611603"><ele>628.0</ele><time>2026-04-04T15:28:07.594Z</time></trkpt><trkpt lat="45.1234069" lon="7.061212"><ele>627.0</ele><time>2026-04-04T15:28:08.593Z</time></trkpt><trkpt lat="45.1233648" lon="7.0612828"><ele>626.0</ele><time>2026-04-04T15:28:09.593Z</time></trkpt><trkpt lat="45.123385" lon="7.0613927"><ele>625.0</ele><time>2026-04-04T15:28:11.594Z</time></trkpt><trkpt lat="45.1234912" lon="7.0614025"><ele>625.0</ele><time>2026-04-04T15:28:13.593Z</time></trkpt><trkpt lat="45.1235643" lon="7.0613892"><ele>625.0</ele><time>2026-04-04T15:28:14.593Z</time></trkpt><trkpt lat="45.1236472" lon="7.0613673"><ele>625.0</ele><time>2026-04-04T15:28:15.593Z</time></trkpt><trkpt lat="45.1237273" lon="7.0613515"><ele>625.0</ele><time>2026-04-04T15:28:16.592Z</time></trkpt><trkpt lat="45.1237988" lon="7.0613101"><ele>625.0</ele><time>2026-04-04T15:28:17.594Z</time></trkpt><trkpt lat="45.123863" lon="7.0612497"><ele>625.0</ele><time>2026-04-04T15:28:18.594Z</time></trkpt><trkpt lat="45.123921" lon="7.0611811"><ele>625.0</ele><time>2026-04-04T15:28:19.594Z</time></trkpt><trkpt lat="45.1239758" lon="7.0611148"><ele>625.0</ele><time>2026-04-04T15:28:20.592Z</time></trkpt><trkpt lat="45.1240304" lon="7.0610494"><ele>625.0</ele><time>2026-04-04T15:28:21.593Z</time></trkpt><trkpt lat="45.1240769" lon="7.0609871"><ele>625.0</ele><time>2026-04-04T15:28:22.593Z</time></trkpt><trkpt lat="45.1241214" lon="7.0609212"><ele>625.0</ele><time>2026-04-04T15:28:23.593Z</time></trkpt><trkpt lat="45.1242179" lon="7.0608456"><ele>625.0</ele><time>2026-04-04T15:28:25.594Z</time></trkpt><trkpt lat="45.1242553" lon="7.0609641"><ele>620.8333333333334</ele><time>2026-04-04T15:28:27.593Z</time></trkpt><trkpt lat="45.1242264" lon="7.0611638"><ele>616.6666666666667</ele><time>2026-04-04T15:28:29.593Z</time></trkpt><trkpt lat="45.124214" lon="7.0612822"><ele>612.5</ele><time>2026-04-04T15:28:30.594Z</time></trkpt><trkpt lat="45.1242006" lon="7.0613915"><ele>608.3333333333334</ele><time>2026-04-04T15:28:31.592Z</time></trkpt><trkpt lat="45.1241914" lon="7.0614996"><ele>604.1666666666666</ele><time>2026-04-04T15:28:32.594Z</time></trkpt><trkpt lat="45.1241726" lon="7.0615881"><ele>600.0</ele><time>2026-04-04T15:28:33.593Z</time></trkpt><trkpt lat="45.1241335" lon="7.0617222"><ele>599.1666666666666</ele><time>2026-04-04T15:28:35.592Z</time></trkpt><trkpt lat="45.1241669" lon="7.0618173"><ele>598.3333333333334</ele><time>2026-04-04T15:28:42.594Z</time></trkpt><trkpt lat="45.1242394" lon="7.0618058"><ele>597.5</ele><time>2026-04-04T15:28:44.593Z</time></trkpt><trkpt lat="45.1243052" lon="7.061828"><ele>596.6666666666667</ele><time>2026-04-04T15:28:45.594Z</time></trkpt><trkpt lat="45.1243699" lon="7.0618426"><ele>595.8333333333334</ele><time>2026-04-04T15:28:46.593Z</time></trkpt><trkpt lat="45.1244708" lon="7.0618537"><ele>595.0</ele><time>2026-04-04T15:28:47.593Z</time></trkpt><trkpt lat="45.1245518" lon="7.0618614"><ele>595.0</ele><time>2026-04-04T15:28:48.593Z</time></trkpt><trkpt lat="45.1246328" lon="7.0618841"><ele>595.0</ele><time>2026-04-04T15:28:49.592Z</time></trkpt><trkpt lat="45.1247189" lon="7.0619315"><ele>595.0</ele><time>2026-04-04T15:28:50.593Z</time></trkpt><trkpt lat="45.1248137" lon="7.0620134"><ele>595.0</ele><time>2026-04-04T15:28:51.594Z</time></trkpt><trkpt lat="45.1249154" lon="7.0621044"><ele>595.0</ele><time>2026-04-04T15:28:52.593Z</time></trkpt><trkpt lat="45.1250319" lon="7.0621906"><ele>592.0</ele><time>2026-04-04T15:28:53.594Z</time></trkpt><trkpt lat="45.1251574" lon="7.0622517"><ele>589.0</ele><time>2026-04-04T15:28:54.593Z</time></trkpt><trkpt lat="45.1252997" lon="7.0623115"><ele>586.0</ele><time>2026-04-04T15:28:55.593Z</time></trkpt><trkpt lat="45.1254363" lon="7.0623511"><ele>583.0</ele><time>2026-04-04T15:28:56.593Z</time></trkpt><trkpt lat="45.125578" lon="7.0623829"><ele>583.0</ele><time>2026-04-04T15:28:57.593Z</time></trkpt><trkpt lat="45.1257141" lon="7.0624089"><ele>583.0</ele><time>2026-04-04T15:28:58.593Z</time></trkpt><trkpt lat="45.1258509" lon="7.0624272"><ele>583.0</ele><time>2026-04-04T15:28:59.593Z</time></trkpt><trkpt lat="45.1259873" lon="7.0624289"><ele>583.0</ele><time>2026-04-04T15:29:00.594Z</time></trkpt><trkpt lat="45.1261366" lon="7.0624113"><ele>579.0</ele><time>2026-04-04T15:29:01.594Z</time></trkpt><trkpt lat="45.1262961" lon="7.0623786"><ele>575.0</ele><time>2026-04-04T15:29:02.594Z</time></trkpt><trkpt lat="45.1264549" lon="7.0623351"><ele>571.0</ele><time>2026-04-04T15:29:03.593Z</time></trkpt><trkpt lat="45.1266125" lon="7.0622855"><ele>567.3333333333334</ele><time>2026-04-04T15:29:04.594Z</time></trkpt><trkpt lat="45.1267706" lon="7.0622418"><ele>563.6666666666666</ele><time>2026-04-04T15:29:05.594Z</time></trkpt><trkpt lat="45.1269255" lon="7.0621991"><ele>560.0</ele><time>2026-04-04T15:29:06.594Z</time></trkpt><trkpt lat="45.1270601" lon="7.0621667"><ele>560.0</ele><time>2026-04-04T15:29:07.594Z</time></trkpt><trkpt lat="45.1271912" lon="7.0621673"><ele>560.0</ele><time>2026-04-04T15:29:08.593Z</time></trkpt><trkpt lat="45.1273223" lon="7.0622011"><ele>560.0</ele><time>2026-04-04T15:29:09.594Z</time></trkpt><trkpt lat="45.1274493" lon="7.0622657"><ele>560.0</ele><time>2026-04-04T15:29:10.593Z</time></trkpt><trkpt lat="45.1275716" lon="7.0623622"><ele>555.3333333333333</ele><time>2026-04-04T15:29:11.593Z</time></trkpt><trkpt lat="45.1276919" lon="7.0624844"><ele>550.6666666666666</ele><time>2026-04-04T15:29:12.593Z</time></trkpt><trkpt lat="45.1278043" lon="7.0626335"><ele>546.0</ele><time>2026-04-04T15:29:13.593Z</time></trkpt><trkpt lat="45.1279228" lon="7.0628005"><ele>546.0</ele><time>2026-04-04T15:29:14.593Z</time></trkpt><trkpt lat="45.1280394" lon="7.0629761"><ele>546.0</ele><time>2026-04-04T15:29:15.594Z</time></trkpt><trkpt lat="45.1281629" lon="7.0631529"><ele>546.0</ele><time>2026-04-04T15:29:16.593Z</time></trkpt><trkpt lat="45.1282871" lon="7.0633277"><ele>541.3333333333334</ele><time>2026-04-04T15:29:17.592Z</time></trkpt><trkpt lat="45.1284133" lon="7.0635042"><ele>536.6666666666667</ele><time>2026-04-04T15:29:18.593Z</time></trkpt><trkpt lat="45.1285442" lon="7.0636714"><ele>532.0</ele><time>2026-04-04T15:29:19.593Z</time></trkpt><trkpt lat="45.1286777" lon="7.0638221"><ele>532.0</ele><time>2026-04-04T15:29:20.593Z</time></trkpt><trkpt lat="45.1288209" lon="7.0639498"><ele>532.0</ele><time>2026-04-04T15:29:21.593Z</time></trkpt><trkpt lat="45.1289817" lon="7.06406"><ele>532.0</ele><time>2026-04-04T15:29:22.592Z</time></trkpt><trkpt lat="45.1291531" lon="7.0641401"><ele>529.0</ele><time>2026-04-04T15:29:23.593Z</time></trkpt><trkpt lat="45.1293345" lon="7.0641855"><ele>526.0</ele><time>2026-04-04T15:29:24.594Z</time></trkpt><trkpt lat="45.129521" lon="7.0642299"><ele>523.0</ele><time>2026-04-04T15:29:25.594Z</time></trkpt><trkpt lat="45.1296831" lon="7.0643099"><ele>523.0</ele><time>2026-04-04T15:29:26.594Z</time></trkpt><trkpt lat="45.1298201" lon="7.0644245"><ele>523.0</ele><time>2026-04-04T15:29:27.592Z</time></trkpt><trkpt lat="45.1299416" lon="7.0645824"><ele>523.0</ele><time>2026-04-04T15:29:28.593Z</time></trkpt><trkpt lat="45.1300481" lon="7.06476"><ele>524.25</ele><time>2026-04-04T15:29:29.594Z</time></trkpt><trkpt lat="45.1301462" lon="7.0649345"><ele>525.5</ele><time>2026-04-04T15:29:30.593Z</time></trkpt><trkpt lat="45.1302396" lon="7.0650899"><ele>526.75</ele><time>2026-04-04T15:29:31.593Z</time></trkpt><trkpt lat="45.1303328" lon="7.0652147"><ele>528.0</ele><time>2026-04-04T15:29:32.593Z</time></trkpt><trkpt lat="45.1304368" lon="7.0653006"><ele>523.5</ele><time>2026-04-04T15:29:33.593Z</time></trkpt><trkpt lat="45.1305613" lon="7.0653471"><ele>519.0</ele><time>2026-04-04T15:29:34.593Z</time></trkpt><trkpt lat="45.1306974" lon="7.0653914"><ele>514.5</ele><time>2026-04-04T15:29:35.592Z</time></trkpt><trkpt lat="45.1308414" lon="7.06544"><ele>510.0</ele><time>2026-04-04T15:29:36.594Z</time></trkpt><trkpt lat="45.1309868" lon="7.0654759"><ele>508.75</ele><time>2026-04-04T15:29:37.593Z</time></trkpt><trkpt lat="45.1311296" lon="7.0655117"><ele>507.5</ele><time>2026-04-04T15:29:38.593Z</time></trkpt><trkpt lat="45.1312717" lon="7.0655395"><ele>506.25</ele><time>2026-04-04T15:29:39.593Z</time></trkpt><trkpt lat="45.1314083" lon="7.0655453"><ele>505.0</ele><time>2026-04-04T15:29:40.593Z</time></trkpt><trkpt lat="45.1315473" lon="7.0654947"><ele>500.6666666666667</ele><time>2026-04-04T15:29:41.592Z</time></trkpt><trkpt lat="45.1316766" lon="7.0653921"><ele>496.33333333333337</ele><time>2026-04-04T15:29:42.593Z</time></trkpt><trkpt lat="45.1317901" lon="7.0652375"><ele>492.0</ele><time>2026-04-04T15:29:43.593Z</time></trkpt><trkpt lat="45.1318972" lon="7.0650552"><ele>492.33333333333337</ele><time>2026-04-04T15:29:44.593Z</time></trkpt><trkpt lat="45.1320008" lon="7.0648468"><ele>492.6666666666667</ele><time>2026-04-04T15:29:45.593Z</time></trkpt><trkpt lat="45.1321083" lon="7.0646393"><ele>493.0</ele><time>2026-04-04T15:29:46.592Z</time></trkpt><trkpt lat="45.1322194" lon="7.0644298"><ele>493.0</ele><time>2026-04-04T15:29:47.594Z</time></trkpt><trkpt lat="45.1323303" lon="7.064215"><ele>493.0</ele><time>2026-04-04T15:29:48.593Z</time></trkpt><trkpt lat="45.1324402" lon="7.0639917"><ele>493.0</ele><time>2026-04-04T15:29:49.593Z</time></trkpt><trkpt lat="45.1325557" lon="7.0637687"><ele>490.6666666666667</ele><time>2026-04-04T15:29:50.592Z</time></trkpt><trkpt lat="45.132664" lon="7.063562"><ele>488.33333333333337</ele><time>2026-04-04T15:29:51.593Z</time></trkpt><trkpt lat="45.1327683" lon="7.0633609"><ele>486.0</ele><time>2026-04-04T15:29:52.593Z</time></trkpt><trkpt lat="45.132866" lon="7.0631743"><ele>485.75</ele><time>2026-04-04T15:29:53.592Z</time></trkpt><trkpt lat="45.132953" lon="7.0629976"><ele>485.5</ele><time>2026-04-04T15:29:54.593Z</time></trkpt><trkpt lat="45.1330395" lon="7.0628304"><ele>485.25</ele><time>2026-04-04T15:29:55.593Z</time></trkpt><trkpt lat="45.1331181" lon="7.0626745"><ele>485.0</ele><time>2026-04-04T15:29:56.594Z</time></trkpt><trkpt lat="45.1331953" lon="7.062537"><ele>484.8333333333333</ele><time>2026-04-04T15:29:57.593Z</time></trkpt><trkpt lat="45.1332552" lon="7.0624285"><ele>484.66666666666663</ele><time>2026-04-04T15:29:58.594Z</time></trkpt><trkpt lat="45.1333172" lon="7.0623335"><ele>484.5</ele><time>2026-04-04T15:29:59.593Z</time></trkpt><trkpt lat="45.1333815" lon="7.0622969"><ele>484.33333333333337</ele><time>2026-04-04T15:30:00.592Z</time></trkpt><trkpt lat="45.133457" lon="7.0623288"><ele>484.1666666666667</ele><time>2026-04-04T15:30:02.592Z</time></trkpt><trkpt lat="45.1334913" lon="7.0624063"><ele>484.0</ele><time>2026-04-04T15:30:05.592Z</time></trkpt><trkpt lat="45.1334489" lon="7.0625614"><ele>484.0</ele><time>2026-04-04T15:30:07.592Z</time></trkpt><trkpt lat="45.1334062" lon="7.062676"><ele>484.0</ele><time>2026-04-04T15:30:08.593Z</time></trkpt><trkpt lat="45.1333629" lon="7.0628051"><ele>484.0</ele><time>2026-04-04T15:30:09.592Z</time></trkpt><trkpt lat="45.1333161" lon="7.0629489"><ele>484.0</ele><time>2026-04-04T15:30:10.592Z</time></trkpt><trkpt lat="45.1332616" lon="7.0631011"><ele>484.0</ele><time>2026-04-04T15:30:11.592Z</time></trkpt><trkpt lat="45.1332059" lon="7.063266"><ele>484.5</ele><time>2026-04-04T15:30:12.593Z</time></trkpt><trkpt lat="45.133146" lon="7.0634391"><ele>485.0</ele><time>2026-04-04T15:30:13.593Z</time></trkpt><trkpt lat="45.1330872" lon="7.0636125"><ele>485.5</ele><time>2026-04-04T15:30:14.591Z</time></trkpt><trkpt lat="45.1330271" lon="7.0637944"><ele>486.0</ele><time>2026-04-04T15:30:15.591Z</time></trkpt><trkpt lat="45.1329631" lon="7.0639828"><ele>485.66666666666663</ele><time>2026-04-04T15:30:16.592Z</time></trkpt><trkpt lat="45.1329054" lon="7.0641837"><ele>485.3333333333333</ele><time>2026-04-04T15:30:17.592Z</time></trkpt><trkpt lat="45.1328562" lon="7.0643952"><ele>485.0</ele><time>2026-04-04T15:30:18.592Z</time></trkpt><trkpt lat="45.1328247" lon="7.0646187"><ele>485.0</ele><time>2026-04-04T15:30:19.592Z</time></trkpt><trkpt lat="45.132807" lon="7.0648426"><ele>485.0</ele><time>2026-04-04T15:30:20.593Z</time></trkpt><trkpt lat="45.1327978" lon="7.0650714"><ele>485.0</ele><time>2026-04-04T15:30:21.591Z</time></trkpt><trkpt lat="45.1327934" lon="7.0652939"><ele>485.0</ele><time>2026-04-04T15:30:22.592Z</time></trkpt><trkpt lat="45.1327926" lon="7.0655253"><ele>485.0</ele><time>2026-04-04T15:30:23.593Z</time></trkpt><trkpt lat="45.1327927" lon="7.0657655"><ele>485.0</ele><time>2026-04-04T15:30:24.592Z</time></trkpt><trkpt lat="45.1327901" lon="7.0660089"><ele>485.3333333333333</ele><time>2026-04-04T15:30:25.593Z</time></trkpt><trkpt lat="45.1327897" lon="7.0662602"><ele>485.66666666666663</ele><time>2026-04-04T15:30:26.592Z</time></trkpt><trkpt lat="45.1327904" lon="7.0665125"><ele>486.0</ele><time>2026-04-04T15:30:27.593Z</time></trkpt><trkpt lat="45.1327906" lon="7.0667594"><ele>486.0</ele><time>2026-04-04T15:30:28.591Z</time></trkpt><trkpt lat="45.1327897" lon="7.0669953"><ele>486.0</ele><time>2026-04-04T15:30:29.592Z</time></trkpt><trkpt lat="45.1327861" lon="7.0672216"><ele>486.0</ele><time>2026-04-04T15:30:30.593Z</time></trkpt><trkpt lat="45.1327849" lon="7.0674559"><ele>485.0</ele><time>2026-04-04T15:30:31.592Z</time></trkpt><trkpt lat="45.1327869" lon="7.0676921"><ele>484.0</ele><time>2026-04-04T15:30:32.591Z</time></trkpt><trkpt lat="45.1327887" lon="7.0679396"><ele>483.0</ele><time>2026-04-04T15:30:33.592Z</time></trkpt><trkpt lat="45.1327937" lon="7.0681943"><ele>482.0</ele><time>2026-04-04T15:30:34.593Z</time></trkpt><trkpt lat="45.1327927" lon="7.0684458"><ele>481.0</ele><time>2026-04-04T15:30:35.593Z</time></trkpt><trkpt lat="45.132791" lon="7.0687062"><ele>480.0</ele><time>2026-04-04T15:30:36.593Z</time></trkpt><trkpt lat="45.1327857" lon="7.0689633"><ele>479.66666666666663</ele><time>2026-04-04T15:30:37.592Z</time></trkpt><trkpt lat="45.1327852" lon="7.0692246"><ele>479.3333333333333</ele><time>2026-04-04T15:30:38.591Z</time></trkpt><trkpt lat="45.1327846" lon="7.0694911"><ele>479.0</ele><time>2026-04-04T15:30:39.593Z</time></trkpt><trkpt lat="45.1327855" lon="7.0697545"><ele>478.66666666666663</ele><time>2026-04-04T15:30:40.593Z</time></trkpt><trkpt lat="45.1327878" lon="7.0700128"><ele>478.33333333333337</ele><time>2026-04-04T15:30:41.592Z</time></trkpt><trkpt lat="45.1327894" lon="7.0702579"><ele>478.0</ele><time>2026-04-04T15:30:42.593Z</time></trkpt><trkpt lat="45.1327916" lon="7.0704941"><ele>478.0</ele><time>2026-04-04T15:30:43.592Z</time></trkpt><trkpt lat="45.1327912" lon="7.070727"><ele>478.0</ele><time>2026-04-04T15:30:44.593Z</time></trkpt><trkpt lat="45.1327903" lon="7.0709645"><ele>478.0</ele><time>2026-04-04T15:30:45.593Z</time></trkpt><trkpt lat="45.1327884" lon="7.0712047"><ele>478.33333333333337</ele><time>2026-04-04T15:30:46.592Z</time></trkpt><trkpt lat="45.132786" lon="7.071441"><ele>478.66666666666663</ele><time>2026-04-04T15:30:47.593Z</time></trkpt><trkpt lat="45.1327851" lon="7.0716762"><ele>479.0</ele><time>2026-04-04T15:30:48.592Z</time></trkpt><trkpt lat="45.1327853" lon="7.0719136"><ele>478.0</ele><time>2026-04-04T15:30:49.592Z</time></trkpt><trkpt lat="45.1327861" lon="7.0721517"><ele>477.0</ele><time>2026-04-04T15:30:50.592Z</time></trkpt><trkpt lat="45.1327867" lon="7.0726353"><ele>476.66666666666663</ele><time>2026-04-04T15:30:52.592Z</time></trkpt><trkpt lat="45.1327843" lon="7.0728771"><ele>476.3333333333333</ele><time>2026-04-04T15:30:53.592Z</time></trkpt><trkpt lat="45.1327863" lon="7.073115"><ele>476.0</ele><time>2026-04-04T15:30:54.592Z</time></trkpt><trkpt lat="45.1327905" lon="7.0733534"><ele>476.0</ele><time>2026-04-04T15:30:55.593Z</time></trkpt><trkpt lat="45.1327937" lon="7.0735931"><ele>476.0</ele><time>2026-04-04T15:30:56.592Z</time></trkpt><trkpt lat="45.132798" lon="7.0738292"><ele>476.0</ele><time>2026-04-04T15:30:57.592Z</time></trkpt><trkpt lat="45.1328072" lon="7.0740672"><ele>476.0</ele><time>2026-04-04T15:30:58.593Z</time></trkpt><trkpt lat="45.1328193" lon="7.0743001"><ele>476.0</ele><time>2026-04-04T15:30:59.592Z</time></trkpt><trkpt lat="45.1328344" lon="7.07454"><ele>476.0</ele><time>2026-04-04T15:31:00.592Z</time></trkpt><trkpt lat="45.132859" lon="7.0747789"><ele>476.0</ele><time>2026-04-04T15:31:01.593Z</time></trkpt><trkpt lat="45.1328906" lon="7.0750226"><ele>476.0</ele><time>2026-04-04T15:31:02.592Z</time></trkpt><trkpt lat="45.1329287" lon="7.0752684"><ele>476.0</ele><time>2026-04-04T15:31:03.592Z</time></trkpt><trkpt lat="45.1329735" lon="7.0755124"><ele>476.0</ele><time>2026-04-04T15:31:04.591Z</time></trkpt><trkpt lat="45.1330209" lon="7.0757574"><ele>476.0</ele><time>2026-04-04T15:31:05.592Z</time></trkpt><trkpt lat="45.1330719" lon="7.0760053"><ele>476.0</ele><time>2026-04-04T15:31:06.592Z</time></trkpt><trkpt lat="45.1331237" lon="7.0762571"><ele>475.0</ele><time>2026-04-04T15:31:07.592Z</time></trkpt><trkpt lat="45.1331757" lon="7.0765099"><ele>474.0</ele><time>2026-04-04T15:31:08.593Z</time></trkpt><trkpt lat="45.1332279" lon="7.0767629"><ele>473.0</ele><time>2026-04-04T15:31:09.592Z</time></trkpt><trkpt lat="45.1332769" lon="7.0770026"><ele>473.0</ele><time>2026-04-04T15:31:10.593Z</time></trkpt><trkpt lat="45.133327" lon="7.0772432"><ele>473.0</ele><time>2026-04-04T15:31:11.592Z</time></trkpt><trkpt lat="45.1333767" lon="7.0774846"><ele>473.0</ele><time>2026-04-04T15:31:12.593Z</time></trkpt><trkpt lat="45.1334292" lon="7.0777232"><ele>473.3333333333333</ele><time>2026-04-04T15:31:13.592Z</time></trkpt><trkpt lat="45.1334779" lon="7.0779529"><ele>473.66666666666663</ele><time>2026-04-04T15:31:14.593Z</time></trkpt><trkpt lat="45.1335242" lon="7.0781819"><ele>474.0</ele><time>2026-04-04T15:31:15.592Z</time></trkpt><trkpt lat="45.1335718" lon="7.0784006"><ele>474.33333333333337</ele><time>2026-04-04T15:31:16.593Z</time></trkpt><trkpt lat="45.1336181" lon="7.0786061"><ele>474.6666666666667</ele><time>2026-04-04T15:31:17.592Z</time></trkpt><trkpt lat="45.1336663" lon="7.0788112"><ele>475.0</ele><time>2026-04-04T15:31:18.592Z</time></trkpt><trkpt lat="45.1337114" lon="7.0790229"><ele>475.33333333333337</ele><time>2026-04-04T15:31:19.592Z</time></trkpt><trkpt lat="45.1337591" lon="7.0792389"><ele>475.66666666666663</ele><time>2026-04-04T15:31:20.592Z</time></trkpt><trkpt lat="45.1338033" lon="7.0794614"><ele>476.0</ele><time>2026-04-04T15:31:21.592Z</time></trkpt><trkpt lat="45.1338488" lon="7.079684"><ele>476.0</ele><time>2026-04-04T15:31:22.593Z</time></trkpt><trkpt lat="45.1339022" lon="7.0799049"><ele>476.0</ele><time>2026-04-04T15:31:23.593Z</time></trkpt><trkpt lat="45.1339604" lon="7.0801185"><ele>476.0</ele><time>2026-04-04T15:31:24.591Z</time></trkpt><trkpt lat="45.1340176" lon="7.0803203"><ele>475.66666666666663</ele><time>2026-04-04T15:31:25.592Z</time></trkpt><trkpt lat="45.1340754" lon="7.0805244"><ele>475.33333333333337</ele><time>2026-04-04T15:31:26.593Z</time></trkpt><trkpt lat="45.1341357" lon="7.0807285"><ele>475.0</ele><time>2026-04-04T15:31:27.591Z</time></trkpt><trkpt lat="45.1341943" lon="7.0809339"><ele>475.0</ele><time>2026-04-04T15:31:28.591Z</time></trkpt><trkpt lat="45.1342496" lon="7.0811338"><ele>475.0</ele><time>2026-04-04T15:31:29.593Z</time></trkpt><trkpt lat="45.1343033" lon="7.0813318"><ele>475.0</ele><time>2026-04-04T15:31:30.592Z</time></trkpt><trkpt lat="45.1343591" lon="7.0815327"><ele>476.0</ele><time>2026-04-04T15:31:31.593Z</time></trkpt><trkpt lat="45.1344169" lon="7.0817374"><ele>477.0</ele><time>2026-04-04T15:31:32.592Z</time></trkpt><trkpt lat="45.1344774" lon="7.0819465"><ele>478.0</ele><time>2026-04-04T15:31:33.592Z</time></trkpt><trkpt lat="45.1345357" lon="7.0821544"><ele>478.0</ele><time>2026-04-04T15:31:34.592Z</time></trkpt><trkpt lat="45.1345913" lon="7.0823525"><ele>478.0</ele><time>2026-04-04T15:31:35.592Z</time></trkpt><trkpt lat="45.1346397" lon="7.0825319"><ele>478.0</ele><time>2026-04-04T15:31:36.592Z</time></trkpt><trkpt lat="45.1346834" lon="7.0827028"><ele>478.0</ele><time>2026-04-04T15:31:37.592Z</time></trkpt><trkpt lat="45.1347244" lon="7.0828714"><ele>478.25</ele><time>2026-04-04T15:31:38.592Z</time></trkpt><trkpt lat="45.1347637" lon="7.0830405"><ele>478.5</ele><time>2026-04-04T15:31:39.592Z</time></trkpt><trkpt lat="45.1347988" lon="7.0832045"><ele>478.75</ele><time>2026-04-04T15:31:40.592Z</time></trkpt><trkpt lat="45.1348245" lon="7.0833536"><ele>479.0</ele><time>2026-04-04T15:31:41.592Z</time></trkpt><trkpt lat="45.1348502" lon="7.0834859"><ele>479.16666666666663</ele><time>2026-04-04T15:31:42.592Z</time></trkpt><trkpt lat="45.1348672" lon="7.0835949"><ele>479.3333333333333</ele><time>2026-04-04T15:31:43.593Z</time></trkpt><trkpt lat="45.1348797" lon="7.0836902"><ele>479.5</ele><time>2026-04-04T15:31:44.593Z</time></trkpt><trkpt lat="45.1348965" lon="7.083817"><ele>479.66666666666663</ele><time>2026-04-04T15:31:46.592Z</time></trkpt><trkpt lat="45.1349163" lon="7.0839485"><ele>479.8333333333333</ele><time>2026-04-04T15:32:11.592Z</time></trkpt><trkpt lat="45.1349266" lon="7.0840648"><ele>480.0</ele><time>2026-04-04T15:32:12.592Z</time></trkpt><trkpt lat="45.1349362" lon="7.084182"><ele>479.4</ele><time>2026-04-04T15:32:13.591Z</time></trkpt><trkpt lat="45.1349473" lon="7.0843159"><ele>478.8</ele><time>2026-04-04T15:32:14.592Z</time></trkpt><trkpt lat="45.1349606" lon="7.0844714"><ele>478.20000000000005</ele><time>2026-04-04T15:32:15.592Z</time></trkpt><trkpt lat="45.1349705" lon="7.0846334"><ele>477.6</ele><time>2026-04-04T15:32:16.592Z</time></trkpt><trkpt lat="45.1349719" lon="7.0848063"><ele>477.0</ele><time>2026-04-04T15:32:17.592Z</time></trkpt><trkpt lat="45.1349703" lon="7.0849915"><ele>476.5</ele><time>2026-04-04T15:32:18.592Z</time></trkpt><trkpt lat="45.1349704" lon="7.0851874"><ele>476.0</ele><time>2026-04-04T15:32:19.591Z</time></trkpt><trkpt lat="45.1349669" lon="7.0854016"><ele>475.5</ele><time>2026-04-04T15:32:20.592Z</time></trkpt><trkpt lat="45.1349614" lon="7.0856281"><ele>475.0</ele><time>2026-04-04T15:32:21.592Z</time></trkpt><trkpt lat="45.1349437" lon="7.0858662"><ele>475.0</ele><time>2026-04-04T15:32:22.592Z</time></trkpt><trkpt lat="45.134923" lon="7.0861109"><ele>475.0</ele><time>2026-04-04T15:32:23.592Z</time></trkpt><trkpt lat="45.1349028" lon="7.0863684"><ele>475.0</ele><time>2026-04-04T15:32:24.592Z</time></trkpt><trkpt lat="45.1348823" lon="7.0866381"><ele>475.0</ele><time>2026-04-04T15:32:25.591Z</time></trkpt><trkpt lat="45.1348622" lon="7.0869208"><ele>475.0</ele><time>2026-04-04T15:32:26.592Z</time></trkpt><trkpt lat="45.1348381" lon="7.0872067"><ele>475.0</ele><time>2026-04-04T15:32:27.593Z</time></trkpt><trkpt lat="45.134814" lon="7.087501"><ele>475.0</ele><time>2026-04-04T15:32:28.591Z</time></trkpt><trkpt lat="45.1347896" lon="7.0878096"><ele>475.0</ele><time>2026-04-04T15:32:29.592Z</time></trkpt><trkpt lat="45.1347625" lon="7.0881284"><ele>475.0</ele><time>2026-04-04T15:32:30.591Z</time></trkpt><trkpt lat="45.1347346" lon="7.0884523"><ele>475.0</ele><time>2026-04-04T15:32:31.592Z</time></trkpt><trkpt lat="45.1347112" lon="7.0887679"><ele>475.0</ele><time>2026-04-04T15:32:32.593Z</time></trkpt><trkpt lat="45.1346853" lon="7.089068"><ele>475.0</ele><time>2026-04-04T15:32:33.592Z</time></trkpt><trkpt lat="45.1346585" lon="7.0893627"><ele>474.33333333333337</ele><time>2026-04-04T15:32:34.592Z</time></trkpt><trkpt lat="45.134632" lon="7.0896484"><ele>473.66666666666663</ele><time>2026-04-04T15:32:35.593Z</time></trkpt><trkpt lat="45.13461" lon="7.0899283"><ele>473.0</ele><time>2026-04-04T15:32:36.593Z</time></trkpt><trkpt lat="45.1345896" lon="7.0901993"><ele>473.0</ele><time>2026-04-04T15:32:37.593Z</time></trkpt><trkpt lat="45.1345679" lon="7.0904652"><ele>473.0</ele><time>2026-04-04T15:32:38.591Z</time></trkpt><trkpt lat="45.1345511" lon="7.0907131"><ele>473.0</ele><time>2026-04-04T15:32:39.591Z</time></trkpt><trkpt lat="45.1345339" lon="7.0909457"><ele>472.25</ele><time>2026-04-04T15:32:40.591Z</time></trkpt><trkpt lat="45.1345191" lon="7.0911627"><ele>471.5</ele><time>2026-04-04T15:32:41.591Z</time></trkpt><trkpt lat="45.1344996" lon="7.0913674"><ele>470.75</ele><time>2026-04-04T15:32:42.593Z</time></trkpt><trkpt lat="45.1344843" lon="7.0915681"><ele>470.0</ele><time>2026-04-04T15:32:43.592Z</time></trkpt><trkpt lat="45.1344707" lon="7.091753"><ele>469.66666666666663</ele><time>2026-04-04T15:32:44.592Z</time></trkpt><trkpt lat="45.1344628" lon="7.0919465"><ele>469.33333333333337</ele><time>2026-04-04T15:32:45.591Z</time></trkpt><trkpt lat="45.1344526" lon="7.0921678"><ele>469.0</ele><time>2026-04-04T15:32:46.593Z</time></trkpt><trkpt lat="45.1344332" lon="7.0924127"><ele>469.0</ele><time>2026-04-04T15:32:47.592Z</time></trkpt><trkpt lat="45.1344048" lon="7.092678"><ele>469.0</ele><time>2026-04-04T15:32:48.592Z</time></trkpt><trkpt lat="45.1343732" lon="7.0929602"><ele>469.0</ele><time>2026-04-04T15:32:49.592Z</time></trkpt><trkpt lat="45.1343363" lon="7.0932608"><ele>469.33333333333337</ele><time>2026-04-04T15:32:50.591Z</time></trkpt><trkpt lat="45.1342923" lon="7.0935586"><ele>469.66666666666663</ele><time>2026-04-04T15:32:51.592Z</time></trkpt><trkpt lat="45.1342389" lon="7.0938589"><ele>470.0</ele><time>2026-04-04T15:32:52.592Z</time></trkpt><trkpt lat="45.1341716" lon="7.0941668"><ele>470.0</ele><time>2026-04-04T15:32:53.591Z</time></trkpt><trkpt lat="45.1340896" lon="7.0944764"><ele>470.0</ele><time>2026-04-04T15:32:54.593Z</time></trkpt><trkpt lat="45.1339971" lon="7.0947882"><ele>470.0</ele><time>2026-04-04T15:32:55.592Z</time></trkpt><trkpt lat="45.1338961" lon="7.095101"><ele>470.0</ele><time>2026-04-04T15:32:56.593Z</time></trkpt><trkpt lat="45.1337811" lon="7.0954107"><ele>470.0</ele><time>2026-04-04T15:32:57.592Z</time></trkpt><trkpt lat="45.1336619" lon="7.0957181"><ele>470.0</ele><time>2026-04-04T15:32:58.592Z</time></trkpt><trkpt lat="45.133547" lon="7.0960216"><ele>469.3333333333333</ele><time>2026-04-04T15:32:59.593Z</time></trkpt><trkpt lat="45.1334405" lon="7.0963055"><ele>468.66666666666663</ele><time>2026-04-04T15:33:00.592Z</time></trkpt><trkpt lat="45.1333414" lon="7.0965824"><ele>468.0</ele><time>2026-04-04T15:33:01.592Z</time></trkpt><trkpt lat="45.133255" lon="7.0968706"><ele>468.5</ele><time>2026-04-04T15:33:02.592Z</time></trkpt><trkpt lat="45.1331795" lon="7.0971711"><ele>469.0</ele><time>2026-04-04T15:33:03.593Z</time></trkpt><trkpt lat="45.1331202" lon="7.0974823"><ele>468.0</ele><time>2026-04-04T15:33:04.592Z</time></trkpt><trkpt lat="45.1330715" lon="7.0978047"><ele>467.0</ele><time>2026-04-04T15:33:05.592Z</time></trkpt><trkpt lat="45.1330214" lon="7.0981353"><ele>466.0</ele><time>2026-04-04T15:33:06.593Z</time></trkpt><trkpt lat="45.1329673" lon="7.0984716"><ele>465.0</ele><time>2026-04-04T15:33:07.591Z</time></trkpt><trkpt lat="45.1329116" lon="7.0988084"><ele>464.5</ele><time>2026-04-04T15:33:08.591Z</time></trkpt><trkpt lat="45.1328471" lon="7.0991427"><ele>464.0</ele><time>2026-04-04T15:33:09.592Z</time></trkpt><trkpt lat="45.1327753" lon="7.0994762"><ele>464.0</ele><time>2026-04-04T15:33:10.591Z</time></trkpt><trkpt lat="45.1326941" lon="7.0998076"><ele>464.0</ele><time>2026-04-04T15:33:11.591Z</time></trkpt><trkpt lat="45.1326065" lon="7.1001369"><ele>463.0</ele><time>2026-04-04T15:33:12.591Z</time></trkpt><trkpt lat="45.1325161" lon="7.1004685"><ele>462.0</ele><time>2026-04-04T15:33:13.592Z</time></trkpt><trkpt lat="45.1324346" lon="7.1007998"><ele>462.5</ele><time>2026-04-04T15:33:14.591Z</time></trkpt><trkpt lat="45.1323619" lon="7.1011335"><ele>463.0</ele><time>2026-04-04T15:33:15.591Z</time></trkpt><trkpt lat="45.1323034" lon="7.1014633"><ele>462.5</ele><time>2026-04-04T15:33:16.591Z</time></trkpt><trkpt lat="45.1322574" lon="7.1017853"><ele>462.0</ele><time>2026-04-04T15:33:17.592Z</time></trkpt><trkpt lat="45.132217" lon="7.1021152"><ele>461.0</ele><time>2026-04-04T15:33:18.591Z</time></trkpt><trkpt lat="45.1321921" lon="7.1024446"><ele>460.0</ele><time>2026-04-04T15:33:19.591Z</time></trkpt><trkpt lat="45.1321832" lon="7.1027598"><ele>460.0</ele><time>2026-04-04T15:33:20.591Z</time></trkpt><trkpt lat="45.132184" lon="7.1030853"><ele>460.0</ele><time>2026-04-04T15:33:21.591Z</time></trkpt><trkpt lat="45.1321963" lon="7.103409"><ele>460.0</ele><time>2026-04-04T15:33:22.591Z</time></trkpt><trkpt lat="45.1322086" lon="7.1037219"><ele>460.0</ele><time>2026-04-04T15:33:23.591Z</time></trkpt><trkpt lat="45.1322219" lon="7.1040376"><ele>460.0</ele><time>2026-04-04T15:33:24.59Z</time></trkpt><trkpt lat="45.1322315" lon="7.1043475"><ele>459.0</ele><time>2026-04-04T15:33:25.592Z</time></trkpt><trkpt lat="45.1322377" lon="7.1046647"><ele>458.0</ele><time>2026-04-04T15:33:26.591Z</time></trkpt><trkpt lat="45.1322285" lon="7.1049852"><ele>457.0</ele><time>2026-04-04T15:33:27.592Z</time></trkpt><trkpt lat="45.1322131" lon="7.1053111"><ele>456.0</ele><time>2026-04-04T15:33:28.591Z</time></trkpt><trkpt lat="45.1321821" lon="7.1056399"><ele>455.5</ele><time>2026-04-04T15:33:29.591Z</time></trkpt><trkpt lat="45.1321403" lon="7.1059701"><ele>455.0</ele><time>2026-04-04T15:33:30.591Z</time></trkpt><trkpt lat="45.1320939" lon="7.1063002"><ele>454.5</ele><time>2026-04-04T15:33:31.591Z</time></trkpt><trkpt lat="45.1320514" lon="7.1066267"><ele>454.0</ele><time>2026-04-04T15:33:32.591Z</time></trkpt><trkpt lat="45.1320038" lon="7.1069429"><ele>454.0</ele><time>2026-04-04T15:33:33.591Z</time></trkpt><trkpt lat="45.131957" lon="7.1072612"><ele>454.0</ele><time>2026-04-04T15:33:34.591Z</time></trkpt><trkpt lat="45.1319103" lon="7.1075818"><ele>454.33333333333337</ele><time>2026-04-04T15:33:35.592Z</time></trkpt><trkpt lat="45.1318706" lon="7.107899"><ele>454.66666666666663</ele><time>2026-04-04T15:33:36.592Z</time></trkpt><trkpt lat="45.1318437" lon="7.1082089"><ele>455.0</ele><time>2026-04-04T15:33:37.591Z</time></trkpt><trkpt lat="45.1318427" lon="7.1085124"><ele>455.66666666666663</ele><time>2026-04-04T15:33:38.59Z</time></trkpt><trkpt lat="45.1318682" lon="7.1088161"><ele>456.33333333333337</ele><time>2026-04-04T15:33:39.591Z</time></trkpt><trkpt lat="45.1319061" lon="7.1091189"><ele>457.0</ele><time>2026-04-04T15:33:40.592Z</time></trkpt><trkpt lat="45.1319402" lon="7.109433"><ele>458.0</ele><time>2026-04-04T15:33:41.59Z</time></trkpt><trkpt lat="45.1319766" lon="7.1097481"><ele>459.0</ele><time>2026-04-04T15:33:42.59Z</time></trkpt><trkpt lat="45.1320155" lon="7.1100629"><ele>459.0</ele><time>2026-04-04T15:33:43.59Z</time></trkpt><trkpt lat="45.1320526" lon="7.1103746"><ele>459.0</ele><time>2026-04-04T15:33:44.592Z</time></trkpt><trkpt lat="45.13209" lon="7.1106841"><ele>459.0</ele><time>2026-04-04T15:33:45.591Z</time></trkpt><trkpt lat="45.1321266" lon="7.1109795"><ele>459.33333333333337</ele><time>2026-04-04T15:33:46.591Z</time></trkpt><trkpt lat="45.1321628" lon="7.1112669"><ele>459.6666666666667</ele><time>2026-04-04T15:33:47.591Z</time></trkpt><trkpt lat="45.1321954" lon="7.111545"><ele>460.0</ele><time>2026-04-04T15:33:48.591Z</time></trkpt><trkpt lat="45.1322276" lon="7.1118113"><ele>460.0</ele><time>2026-04-04T15:33:49.592Z</time></trkpt><trkpt lat="45.1322615" lon="7.1120788"><ele>460.0</ele><time>2026-04-04T15:33:50.592Z</time></trkpt><trkpt lat="45.1322967" lon="7.1123504"><ele>460.0</ele><time>2026-04-04T15:33:51.591Z</time></trkpt><trkpt lat="45.1323334" lon="7.1126284"><ele>460.33333333333337</ele><time>2026-04-04T15:33:52.591Z</time></trkpt><trkpt lat="45.1323681" lon="7.1129132"><ele>460.66666666666663</ele><time>2026-04-04T15:33:53.591Z</time></trkpt><trkpt lat="45.1324034" lon="7.113202"><ele>461.0</ele><time>2026-04-04T15:33:54.59Z</time></trkpt><trkpt lat="45.1324414" lon="7.1134952"><ele>459.3333333333333</ele><time>2026-04-04T15:33:55.592Z</time></trkpt><trkpt lat="45.1324799" lon="7.1137916"><ele>457.66666666666663</ele><time>2026-04-04T15:33:56.591Z</time></trkpt><trkpt lat="45.1325183" lon="7.114091"><ele>456.0</ele><time>2026-04-04T15:33:57.592Z</time></trkpt><trkpt lat="45.1325566" lon="7.1143883"><ele>455.66666666666663</ele><time>2026-04-04T15:33:58.591Z</time></trkpt><trkpt lat="45.1325936" lon="7.1146769"><ele>455.3333333333333</ele><time>2026-04-04T15:33:59.591Z</time></trkpt><trkpt lat="45.132624" lon="7.1149691"><ele>455.0</ele><time>2026-04-04T15:34:00.59Z</time></trkpt><trkpt lat="45.13264" lon="7.1152572"><ele>454.3333333333333</ele><time>2026-04-04T15:34:01.591Z</time></trkpt><trkpt lat="45.1326353" lon="7.1155497"><ele>453.66666666666663</ele><time>2026-04-04T15:34:02.591Z</time></trkpt><trkpt lat="45.1326107" lon="7.1158426"><ele>453.0</ele><time>2026-04-04T15:34:03.591Z</time></trkpt><trkpt lat="45.1325606" lon="7.1161347"><ele>452.33333333333337</ele><time>2026-04-04T15:34:04.591Z</time></trkpt><trkpt lat="45.132486" lon="7.1164236"><ele>451.6666666666667</ele><time>2026-04-04T15:34:05.591Z</time></trkpt><trkpt lat="45.1323988" lon="7.1167079"><ele>451.0</ele><time>2026-04-04T15:34:06.591Z</time></trkpt><trkpt lat="45.1323092" lon="7.1169899"><ele>451.0</ele><time>2026-04-04T15:34:07.592Z</time></trkpt><trkpt lat="45.132219" lon="7.1172732"><ele>451.0</ele><time>2026-04-04T15:34:08.592Z</time></trkpt><trkpt lat="45.1321353" lon="7.1175655"><ele>451.0</ele><time>2026-04-04T15:34:09.592Z</time></trkpt><trkpt lat="45.1320667" lon="7.1178646"><ele>450.6666666666667</ele><time>2026-04-04T15:34:10.591Z</time></trkpt><trkpt lat="45.1320193" lon="7.1181692"><ele>450.33333333333337</ele><time>2026-04-04T15:34:11.59Z</time></trkpt><trkpt lat="45.1319896" lon="7.1184756"><ele>450.0</ele><time>2026-04-04T15:34:12.592Z</time></trkpt><trkpt lat="45.1319776" lon="7.118792"><ele>449.0</ele><time>2026-04-04T15:34:13.59Z</time></trkpt><trkpt lat="45.131972" lon="7.1191109"><ele>448.0</ele><time>2026-04-04T15:34:14.592Z</time></trkpt><trkpt lat="45.1319644" lon="7.1194338"><ele>448.0</ele><time>2026-04-04T15:34:15.591Z</time></trkpt><trkpt lat="45.1319578" lon="7.1197613"><ele>448.0</ele><time>2026-04-04T15:34:16.591Z</time></trkpt><trkpt lat="45.1319539" lon="7.1200941"><ele>448.0</ele><time>2026-04-04T15:34:17.592Z</time></trkpt><trkpt lat="45.131942" lon="7.1204284"><ele>448.0</ele><time>2026-04-04T15:34:18.591Z</time></trkpt><trkpt lat="45.1319224" lon="7.1207633"><ele>448.0</ele><time>2026-04-04T15:34:19.59Z</time></trkpt><trkpt lat="45.1318891" lon="7.1210984"><ele>448.0</ele><time>2026-04-04T15:34:20.59Z</time></trkpt><trkpt lat="45.1318441" lon="7.1214297"><ele>447.5</ele><time>2026-04-04T15:34:21.591Z</time></trkpt><trkpt lat="45.1317877" lon="7.1217564"><ele>447.0</ele><time>2026-04-04T15:34:22.592Z</time></trkpt><trkpt lat="45.1317309" lon="7.1220887"><ele>446.0</ele><time>2026-04-04T15:34:23.59Z</time></trkpt><trkpt lat="45.1316799" lon="7.122423"><ele>445.0</ele><time>2026-04-04T15:34:24.591Z</time></trkpt><trkpt lat="45.1316296" lon="7.122748"><ele>445.0</ele><time>2026-04-04T15:34:25.59Z</time></trkpt><trkpt lat="45.1315796" lon="7.1230527"><ele>445.0</ele><time>2026-04-04T15:34:26.591Z</time></trkpt><trkpt lat="45.131544" lon="7.1233465"><ele>445.0</ele><time>2026-04-04T15:34:27.592Z</time></trkpt><trkpt lat="45.1315208" lon="7.1236416"><ele>445.0</ele><time>2026-04-04T15:34:28.59Z</time></trkpt><trkpt lat="45.1315219" lon="7.1239365"><ele>445.0</ele><time>2026-04-04T15:34:29.591Z</time></trkpt><trkpt lat="45.131562" lon="7.1242259"><ele>445.0</ele><time>2026-04-04T15:34:30.59Z</time></trkpt><trkpt lat="45.1316296" lon="7.124501"><ele>445.0</ele><time>2026-04-04T15:34:31.591Z</time></trkpt><trkpt lat="45.131727" lon="7.124766"><ele>445.0</ele><time>2026-04-04T15:34:32.591Z</time></trkpt><trkpt lat="45.1318538" lon="7.1250098"><ele>445.0</ele><time>2026-04-04T15:34:33.59Z</time></trkpt><trkpt lat="45.1320008" lon="7.1252398"><ele>445.6666666666667</ele><time>2026-04-04T15:34:34.59Z</time></trkpt><trkpt lat="45.1321521" lon="7.125469"><ele>446.33333333333337</ele><time>2026-04-04T15:34:35.591Z</time></trkpt><trkpt lat="45.1322979" lon="7.1257016"><ele>447.0</ele><time>2026-04-04T15:34:36.592Z</time></trkpt><trkpt lat="45.1324323" lon="7.1259427"><ele>447.0</ele><time>2026-04-04T15:34:37.591Z</time></trkpt><trkpt lat="45.1325523" lon="7.1262062"><ele>447.0</ele><time>2026-04-04T15:34:38.591Z</time></trkpt><trkpt lat="45.1326605" lon="7.1264841"><ele>447.0</ele><time>2026-04-04T15:34:39.591Z</time></trkpt><trkpt lat="45.1327579" lon="7.1267573"><ele>448.0</ele><time>2026-04-04T15:34:40.591Z</time></trkpt><trkpt lat="45.1328566" lon="7.1270281"><ele>449.0</ele><time>2026-04-04T15:34:41.592Z</time></trkpt><trkpt lat="45.1329331" lon="7.1273078"><ele>450.0</ele><time>2026-04-04T15:34:42.591Z</time></trkpt><trkpt lat="45.1330086" lon="7.1275823"><ele>451.33333333333337</ele><time>2026-04-04T15:34:43.591Z</time></trkpt><trkpt lat="45.1330716" lon="7.1278835"><ele>452.6666666666667</ele><time>2026-04-04T15:34:44.591Z</time></trkpt><trkpt lat="45.1331222" lon="7.1281949"><ele>454.0</ele><time>2026-04-04T15:34:45.591Z</time></trkpt><trkpt lat="45.1331503" lon="7.1285259"><ele>453.5</ele><time>2026-04-04T15:34:46.592Z</time></trkpt><trkpt lat="45.1331648" lon="7.1288632"><ele>453.0</ele><time>2026-04-04T15:34:47.591Z</time></trkpt><trkpt lat="45.1331787" lon="7.1292085"><ele>453.0</ele><time>2026-04-04T15:34:48.591Z</time></trkpt><trkpt lat="45.1331904" lon="7.1295546"><ele>453.0</ele><time>2026-04-04T15:34:49.591Z</time></trkpt><trkpt lat="45.1331981" lon="7.129897"><ele>449.5</ele><time>2026-04-04T15:34:50.591Z</time></trkpt><trkpt lat="45.1332106" lon="7.130238"><ele>446.0</ele><time>2026-04-04T15:34:51.591Z</time></trkpt><trkpt lat="45.133223" lon="7.1305814"><ele>445.0</ele><time>2026-04-04T15:34:52.59Z</time></trkpt><trkpt lat="45.1332354" lon="7.1309255"><ele>444.0</ele><time>2026-04-04T15:34:53.592Z</time></trkpt><trkpt lat="45.1332468" lon="7.1312624"><ele>443.5</ele><time>2026-04-04T15:34:54.592Z</time></trkpt><trkpt lat="45.1332582" lon="7.1315985"><ele>443.0</ele><time>2026-04-04T15:34:55.591Z</time></trkpt><trkpt lat="45.1332718" lon="7.1319274"><ele>443.0</ele><time>2026-04-04T15:34:56.591Z</time></trkpt><trkpt lat="45.1332887" lon="7.1322481"><ele>443.0</ele><time>2026-04-04T15:34:57.591Z</time></trkpt><trkpt lat="45.1333107" lon="7.1325637"><ele>444.3333333333333</ele><time>2026-04-04T15:34:58.591Z</time></trkpt><trkpt lat="45.1333496" lon="7.1328747"><ele>445.66666666666663</ele><time>2026-04-04T15:34:59.591Z</time></trkpt><trkpt lat="45.133396" lon="7.1331789"><ele>447.0</ele><time>2026-04-04T15:35:00.592Z</time></trkpt><trkpt lat="45.1334551" lon="7.1334735"><ele>448.33333333333337</ele><time>2026-04-04T15:35:01.59Z</time></trkpt><trkpt lat="45.1335243" lon="7.1337561"><ele>449.6666666666667</ele><time>2026-04-04T15:35:02.591Z</time></trkpt><trkpt lat="45.1336058" lon="7.1340336"><ele>451.0</ele><time>2026-04-04T15:35:03.591Z</time></trkpt><trkpt lat="45.133688" lon="7.1343135"><ele>451.0</ele><time>2026-04-04T15:35:04.592Z</time></trkpt><trkpt lat="45.1337745" lon="7.1345955"><ele>451.0</ele><time>2026-04-04T15:35:05.592Z</time></trkpt><trkpt lat="45.133858" lon="7.1348741"><ele>451.0</ele><time>2026-04-04T15:35:06.591Z</time></trkpt><trkpt lat="45.1339413" lon="7.1351541"><ele>451.33333333333337</ele><time>2026-04-04T15:35:07.59Z</time></trkpt><trkpt lat="45.1340243" lon="7.1354317"><ele>451.66666666666663</ele><time>2026-04-04T15:35:08.591Z</time></trkpt><trkpt lat="45.1341073" lon="7.1357093"><ele>452.0</ele><time>2026-04-04T15:35:09.591Z</time></trkpt><trkpt lat="45.1341921" lon="7.1359881"><ele>452.3333333333333</ele><time>2026-04-04T15:35:10.592Z</time></trkpt><trkpt lat="45.1342734" lon="7.1362612"><ele>452.66666666666663</ele><time>2026-04-04T15:35:11.591Z</time></trkpt><trkpt lat="45.1343581" lon="7.1365299"><ele>453.0</ele><time>2026-04-04T15:35:12.591Z</time></trkpt><trkpt lat="45.1344385" lon="7.1367955"><ele>453.0</ele><time>2026-04-04T15:35:13.592Z</time></trkpt><trkpt lat="45.1345133" lon="7.1370533"><ele>453.0</ele><time>2026-04-04T15:35:14.591Z</time></trkpt><trkpt lat="45.1345862" lon="7.1373078"><ele>453.0</ele><time>2026-04-04T15:35:15.591Z</time></trkpt><trkpt lat="45.134659" lon="7.1375666"><ele>454.0</ele><time>2026-04-04T15:35:16.592Z</time></trkpt><trkpt lat="45.1347304" lon="7.1378195"><ele>455.0</ele><time>2026-04-04T15:35:17.591Z</time></trkpt><trkpt lat="45.1348042" lon="7.1380543"><ele>456.0</ele><time>2026-04-04T15:35:18.59Z</time></trkpt><trkpt lat="45.1348754" lon="7.1383001"><ele>454.33333333333337</ele><time>2026-04-04T15:35:19.592Z</time></trkpt><trkpt lat="45.1349435" lon="7.1385371"><ele>452.6666666666667</ele><time>2026-04-04T15:35:20.591Z</time></trkpt><trkpt lat="45.1350139" lon="7.1387755"><ele>451.0</ele><time>2026-04-04T15:35:21.591Z</time></trkpt><trkpt lat="45.1350814" lon="7.1390196"><ele>451.6666666666667</ele><time>2026-04-04T15:35:22.591Z</time></trkpt><trkpt lat="45.1351534" lon="7.1392668"><ele>452.33333333333337</ele><time>2026-04-04T15:35:23.592Z</time></trkpt><trkpt lat="45.1352184" lon="7.1395146"><ele>453.0</ele><time>2026-04-04T15:35:24.591Z</time></trkpt><trkpt lat="45.13528" lon="7.1397698"><ele>453.0</ele><time>2026-04-04T15:35:25.591Z</time></trkpt><trkpt lat="45.1353358" lon="7.1400323"><ele>453.0</ele><time>2026-04-04T15:35:26.591Z</time></trkpt><trkpt lat="45.1353852" lon="7.1402955"><ele>453.0</ele><time>2026-04-04T15:35:27.591Z</time></trkpt><trkpt lat="45.1354293" lon="7.1405629"><ele>453.0</ele><time>2026-04-04T15:35:28.591Z</time></trkpt><trkpt lat="45.1354729" lon="7.1408383"><ele>453.0</ele><time>2026-04-04T15:35:29.59Z</time></trkpt><trkpt lat="45.1355059" lon="7.1411058"><ele>453.0</ele><time>2026-04-04T15:35:30.592Z</time></trkpt><trkpt lat="45.1355394" lon="7.1413737"><ele>452.66666666666663</ele><time>2026-04-04T15:35:31.591Z</time></trkpt><trkpt lat="45.1355743" lon="7.1416416"><ele>452.3333333333333</ele><time>2026-04-04T15:35:32.592Z</time></trkpt><trkpt lat="45.1356082" lon="7.1419021"><ele>452.0</ele><time>2026-04-04T15:35:33.592Z</time></trkpt><trkpt lat="45.1356424" lon="7.1421624"><ele>452.0</ele><time>2026-04-04T15:35:34.591Z</time></trkpt><trkpt lat="45.1356773" lon="7.1424248"><ele>452.0</ele><time>2026-04-04T15:35:35.591Z</time></trkpt><trkpt lat="45.1357103" lon="7.1426895"><ele>452.0</ele><time>2026-04-04T15:35:36.591Z</time></trkpt><trkpt lat="45.1357389" lon="7.1429556"><ele>451.3333333333333</ele><time>2026-04-04T15:35:37.591Z</time></trkpt><trkpt lat="45.1357603" lon="7.1432165"><ele>450.66666666666663</ele><time>2026-04-04T15:35:38.592Z</time></trkpt><trkpt lat="45.1357713" lon="7.143478"><ele>450.0</ele><time>2026-04-04T15:35:39.591Z</time></trkpt><trkpt lat="45.135777" lon="7.1437312"><ele>450.0</ele><time>2026-04-04T15:35:40.591Z</time></trkpt><trkpt lat="45.1357764" lon="7.1439771"><ele>450.0</ele><time>2026-04-04T15:35:41.591Z</time></trkpt><trkpt lat="45.1357686" lon="7.144221"><ele>450.0</ele><time>2026-04-04T15:35:42.592Z</time></trkpt><trkpt lat="45.1357612" lon="7.1444563"><ele>450.0</ele><time>2026-04-04T15:35:43.592Z</time></trkpt><trkpt lat="45.1357507" lon="7.1446908"><ele>450.0</ele><time>2026-04-04T15:35:44.591Z</time></trkpt><trkpt lat="45.1357405" lon="7.144921"><ele>450.0</ele><time>2026-04-04T15:35:45.591Z</time></trkpt><trkpt lat="45.1357303" lon="7.1451408"><ele>450.75</ele><time>2026-04-04T15:35:46.592Z</time></trkpt><trkpt lat="45.1357192" lon="7.1453473"><ele>451.5</ele><time>2026-04-04T15:35:47.591Z</time></trkpt><trkpt lat="45.135708" lon="7.1455409"><ele>452.25</ele><time>2026-04-04T15:35:48.591Z</time></trkpt><trkpt lat="45.1356962" lon="7.1457197"><ele>453.0</ele><time>2026-04-04T15:35:49.591Z</time></trkpt><trkpt lat="45.1356847" lon="7.145874"><ele>452.99999999999994</ele><time>2026-04-04T15:35:50.591Z</time></trkpt><trkpt lat="45.1356691" lon="7.1460031"><ele>453.0</ele><time>2026-04-04T15:35:51.591Z</time></trkpt><trkpt lat="45.1356485" lon="7.1461082"><ele>452.99999999999994</ele><time>2026-04-04T15:35:52.591Z</time></trkpt><trkpt lat="45.1356167" lon="7.1461934"><ele>452.99999999999994</ele><time>2026-04-04T15:35:53.592Z</time></trkpt><trkpt lat="45.1355768" lon="7.1462627"><ele>453.0</ele><time>2026-04-04T15:35:54.59Z</time></trkpt><trkpt lat="45.1355469" lon="7.1463423"><ele>452.99999999999994</ele><time>2026-04-04T15:35:55.592Z</time></trkpt><trkpt lat="45.1355356" lon="7.1464351"><ele>452.99999999999994</ele><time>2026-04-04T15:35:56.591Z</time></trkpt><trkpt lat="45.135554" lon="7.1465356"><ele>452.4</ele><time>2026-04-04T15:35:57.591Z</time></trkpt><trkpt lat="45.1355808" lon="7.1466643"><ele>451.79999999999995</ele><time>2026-04-04T15:35:58.592Z</time></trkpt><trkpt lat="45.1356071" lon="7.1468176"><ele>451.2</ele><time>2026-04-04T15:35:59.592Z</time></trkpt><trkpt lat="45.1356182" lon="7.1469854"><ele>450.6</ele><time>2026-04-04T15:36:00.591Z</time></trkpt><trkpt lat="45.1356182" lon="7.1471606"><ele>450.0</ele><time>2026-04-04T15:36:01.591Z</time></trkpt><trkpt lat="45.1356141" lon="7.1473521"><ele>449.75</ele><time>2026-04-04T15:36:02.592Z</time></trkpt><trkpt lat="45.1356052" lon="7.1475564"><ele>449.5</ele><time>2026-04-04T15:36:03.591Z</time></trkpt><trkpt lat="45.1355961" lon="7.1477522"><ele>449.25</ele><time>2026-04-04T15:36:04.591Z</time></trkpt><trkpt lat="45.1355892" lon="7.1479363"><ele>449.0</ele><time>2026-04-04T15:36:05.591Z</time></trkpt><trkpt lat="45.1355819" lon="7.148111"><ele>448.0</ele><time>2026-04-04T15:36:06.592Z</time></trkpt><trkpt lat="45.1355768" lon="7.1482867"><ele>447.0</ele><time>2026-04-04T15:36:07.591Z</time></trkpt><trkpt lat="45.1355727" lon="7.1484764"><ele>446.0</ele><time>2026-04-04T15:36:08.591Z</time></trkpt><trkpt lat="45.1355717" lon="7.1486786"><ele>445.0</ele><time>2026-04-04T15:36:09.59Z</time></trkpt><trkpt lat="45.1355546" lon="7.1488932"><ele>444.6666666666667</ele><time>2026-04-04T15:36:10.59Z</time></trkpt><trkpt lat="45.1355406" lon="7.1491195"><ele>444.33333333333337</ele><time>2026-04-04T15:36:11.59Z</time></trkpt><trkpt lat="45.1355275" lon="7.1493511"><ele>444.0</ele><time>2026-04-04T15:36:12.59Z</time></trkpt><trkpt lat="45.1355172" lon="7.149582"><ele>444.0</ele><time>2026-04-04T15:36:13.591Z</time></trkpt><trkpt lat="45.1355093" lon="7.1498245"><ele>444.0</ele><time>2026-04-04T15:36:14.591Z</time></trkpt><trkpt lat="45.135497" lon="7.150063"><ele>444.0</ele><time>2026-04-04T15:36:15.59Z</time></trkpt><trkpt lat="45.1354831" lon="7.1502935"><ele>443.75</ele><time>2026-04-04T15:36:16.59Z</time></trkpt><trkpt lat="45.1354704" lon="7.1505096"><ele>443.5</ele><time>2026-04-04T15:36:17.59Z</time></trkpt><trkpt lat="45.13546" lon="7.1507174"><ele>443.25</ele><time>2026-04-04T15:36:18.59Z</time></trkpt><trkpt lat="45.1354505" lon="7.1509151"><ele>443.0</ele><time>2026-04-04T15:36:19.591Z</time></trkpt><trkpt lat="45.1354373" lon="7.1511101"><ele>443.0</ele><time>2026-04-04T15:36:20.59Z</time></trkpt><trkpt lat="45.1354247" lon="7.1513"><ele>443.0</ele><time>2026-04-04T15:36:21.591Z</time></trkpt><trkpt lat="45.1354172" lon="7.1514774"><ele>443.0</ele><time>2026-04-04T15:36:22.59Z</time></trkpt><trkpt lat="45.1354093" lon="7.1516448"><ele>443.0</ele><time>2026-04-04T15:36:23.589Z</time></trkpt><trkpt lat="45.1353951" lon="7.1518118"><ele>442.4</ele><time>2026-04-04T15:36:24.589Z</time></trkpt><trkpt lat="45.135365" lon="7.1519739"><ele>441.79999999999995</ele><time>2026-04-04T15:36:25.59Z</time></trkpt><trkpt lat="45.1353188" lon="7.1521167"><ele>441.2</ele><time>2026-04-04T15:36:26.59Z</time></trkpt><trkpt lat="45.1352563" lon="7.1522288"><ele>440.6</ele><time>2026-04-04T15:36:27.59Z</time></trkpt><trkpt lat="45.1352034" lon="7.1523382"><ele>440.0</ele><time>2026-04-04T15:36:28.59Z</time></trkpt><trkpt lat="45.1351769" lon="7.1524592"><ele>439.8</ele><time>2026-04-04T15:36:29.59Z</time></trkpt><trkpt lat="45.1352016" lon="7.1525789"><ele>439.6</ele><time>2026-04-04T15:36:30.59Z</time></trkpt><trkpt lat="45.1352511" lon="7.15269"><ele>439.4</ele><time>2026-04-04T15:36:31.591Z</time></trkpt><trkpt lat="45.1352928" lon="7.1528339"><ele>439.2</ele><time>2026-04-04T15:36:32.591Z</time></trkpt><trkpt lat="45.1353047" lon="7.1529873"><ele>439.0</ele><time>2026-04-04T15:36:33.59Z</time></trkpt><trkpt lat="45.1353051" lon="7.1531593"><ele>438.75</ele><time>2026-04-04T15:36:34.589Z</time></trkpt><trkpt lat="45.1353018" lon="7.1533372"><ele>438.5</ele><time>2026-04-04T15:36:35.59Z</time></trkpt><trkpt lat="45.1352909" lon="7.1535224"><ele>438.25</ele><time>2026-04-04T15:36:36.591Z</time></trkpt><trkpt lat="45.1352649" lon="7.153716"><ele>438.0</ele><time>2026-04-04T15:36:37.589Z</time></trkpt><trkpt lat="45.1352304" lon="7.1539117"><ele>437.66666666666663</ele><time>2026-04-04T15:36:38.589Z</time></trkpt><trkpt lat="45.1351867" lon="7.1541143"><ele>437.3333333333333</ele><time>2026-04-04T15:36:39.591Z</time></trkpt><trkpt lat="45.1351338" lon="7.154317"><ele>437.0</ele><time>2026-04-04T15:36:40.591Z</time></trkpt><trkpt lat="45.1350701" lon="7.1545185"><ele>437.0</ele><time>2026-04-04T15:36:41.59Z</time></trkpt><trkpt lat="45.1349986" lon="7.1547162"><ele>437.0</ele><time>2026-04-04T15:36:42.591Z</time></trkpt><trkpt lat="45.1349217" lon="7.154922"><ele>437.0</ele><time>2026-04-04T15:36:43.591Z</time></trkpt><trkpt lat="45.1348438" lon="7.1551259"><ele>437.3333333333333</ele><time>2026-04-04T15:36:44.59Z</time></trkpt><trkpt lat="45.1347663" lon="7.1553304"><ele>437.66666666666663</ele><time>2026-04-04T15:36:45.59Z</time></trkpt><trkpt lat="45.1346887" lon="7.1555345"><ele>438.0</ele><time>2026-04-04T15:36:46.591Z</time></trkpt><trkpt lat="45.1346141" lon="7.1557411"><ele>438.0</ele><time>2026-04-04T15:36:47.589Z</time></trkpt><trkpt lat="45.1345356" lon="7.1559505"><ele>438.0</ele><time>2026-04-04T15:36:48.59Z</time></trkpt><trkpt lat="45.134454" lon="7.1561596"><ele>438.0</ele><time>2026-04-04T15:36:49.591Z</time></trkpt><trkpt lat="45.1343735" lon="7.1563693"><ele>437.66666666666663</ele><time>2026-04-04T15:36:50.59Z</time></trkpt><trkpt lat="45.1342908" lon="7.156578"><ele>437.3333333333333</ele><time>2026-04-04T15:36:51.59Z</time></trkpt><trkpt lat="45.134211" lon="7.156789"><ele>437.0</ele><time>2026-04-04T15:36:52.59Z</time></trkpt><trkpt lat="45.134129" lon="7.1569998"><ele>437.0</ele><time>2026-04-04T15:36:53.589Z</time></trkpt><trkpt lat="45.1340435" lon="7.1572166"><ele>437.0</ele><time>2026-04-04T15:36:54.591Z</time></trkpt><trkpt lat="45.1339671" lon="7.1574367"><ele>437.0</ele><time>2026-04-04T15:36:55.591Z</time></trkpt><trkpt lat="45.1338899" lon="7.1576572"><ele>437.0</ele><time>2026-04-04T15:36:56.59Z</time></trkpt><trkpt lat="45.1338113" lon="7.1578813"><ele>437.0</ele><time>2026-04-04T15:36:57.591Z</time></trkpt><trkpt lat="45.1337391" lon="7.158113"><ele>437.0</ele><time>2026-04-04T15:36:58.59Z</time></trkpt><trkpt lat="45.1336727" lon="7.1583452"><ele>436.66666666666663</ele><time>2026-04-04T15:36:59.59Z</time></trkpt><trkpt lat="45.1336076" lon="7.1585886"><ele>436.33333333333337</ele><time>2026-04-04T15:37:00.59Z</time></trkpt><trkpt lat="45.1335473" lon="7.1588335"><ele>436.0</ele><time>2026-04-04T15:37:01.59Z</time></trkpt><trkpt lat="45.1334906" lon="7.1590866"><ele>436.0</ele><time>2026-04-04T15:37:02.591Z</time></trkpt><trkpt lat="45.13343" lon="7.1593429"><ele>436.0</ele><time>2026-04-04T15:37:03.59Z</time></trkpt><trkpt lat="45.1333636" lon="7.1596067"><ele>436.0</ele><time>2026-04-04T15:37:04.59Z</time></trkpt><trkpt lat="45.1332947" lon="7.159877"><ele>435.33333333333337</ele><time>2026-04-04T15:37:05.59Z</time></trkpt><trkpt lat="45.1332238" lon="7.1601499"><ele>434.66666666666663</ele><time>2026-04-04T15:37:06.59Z</time></trkpt><trkpt lat="45.1331511" lon="7.1604248"><ele>434.0</ele><time>2026-04-04T15:37:07.589Z</time></trkpt><trkpt lat="45.1330731" lon="7.1606955"><ele>433.0</ele><time>2026-04-04T15:37:08.589Z</time></trkpt><trkpt lat="45.1329881" lon="7.1609801"><ele>432.0</ele><time>2026-04-04T15:37:09.59Z</time></trkpt><trkpt lat="45.1328997" lon="7.1612672"><ele>431.0</ele><time>2026-04-04T15:37:10.59Z</time></trkpt><trkpt lat="45.1327962" lon="7.1615601"><ele>431.0</ele><time>2026-04-04T15:37:11.591Z</time></trkpt><trkpt lat="45.1326862" lon="7.1618566"><ele>431.0</ele><time>2026-04-04T15:37:12.59Z</time></trkpt><trkpt lat="45.1325776" lon="7.162156"><ele>432.0</ele><time>2026-04-04T15:37:13.59Z</time></trkpt><trkpt lat="45.1324628" lon="7.1624667"><ele>433.0</ele><time>2026-04-04T15:37:14.59Z</time></trkpt><trkpt lat="45.1323458" lon="7.1627605"><ele>433.0</ele><time>2026-04-04T15:37:15.591Z</time></trkpt><trkpt lat="45.1322285" lon="7.1630509"><ele>433.0</ele><time>2026-04-04T15:37:16.59Z</time></trkpt><trkpt lat="45.1321196" lon="7.1633362"><ele>433.0</ele><time>2026-04-04T15:37:17.591Z</time></trkpt><trkpt lat="45.1320147" lon="7.1636147"><ele>433.0</ele><time>2026-04-04T15:37:18.59Z</time></trkpt><trkpt lat="45.1319121" lon="7.1638778"><ele>433.0</ele><time>2026-04-04T15:37:19.59Z</time></trkpt><trkpt lat="45.131812" lon="7.1641382"><ele>433.33333333333337</ele><time>2026-04-04T15:37:20.591Z</time></trkpt><trkpt lat="45.1317134" lon="7.1644"><ele>433.66666666666663</ele><time>2026-04-04T15:37:21.59Z</time></trkpt><trkpt lat="45.131622" lon="7.164663"><ele>434.0</ele><time>2026-04-04T15:37:22.59Z</time></trkpt><trkpt lat="45.1315242" lon="7.1649243"><ele>434.0</ele><time>2026-04-04T15:37:23.59Z</time></trkpt><trkpt lat="45.1314308" lon="7.165177"><ele>434.0</ele><time>2026-04-04T15:37:24.591Z</time></trkpt><trkpt lat="45.1313585" lon="7.1654318"><ele>434.0</ele><time>2026-04-04T15:37:25.59Z</time></trkpt><trkpt lat="45.1312992" lon="7.1656931"><ele>433.3333333333333</ele><time>2026-04-04T15:37:26.591Z</time></trkpt><trkpt lat="45.1312543" lon="7.1659593"><ele>432.66666666666663</ele><time>2026-04-04T15:37:27.59Z</time></trkpt><trkpt lat="45.1312193" lon="7.1662214"><ele>432.0</ele><time>2026-04-04T15:37:28.59Z</time></trkpt><trkpt lat="45.131185" lon="7.1664764"><ele>431.66666666666663</ele><time>2026-04-04T15:37:29.591Z</time></trkpt><trkpt lat="45.1311489" lon="7.1667315"><ele>431.3333333333333</ele><time>2026-04-04T15:37:30.59Z</time></trkpt><trkpt lat="45.1311143" lon="7.1669868"><ele>431.0</ele><time>2026-04-04T15:37:31.589Z</time></trkpt><trkpt lat="45.1310806" lon="7.1672373"><ele>430.3333333333333</ele><time>2026-04-04T15:37:32.591Z</time></trkpt><trkpt lat="45.1310451" lon="7.1674889"><ele>429.66666666666663</ele><time>2026-04-04T15:37:33.59Z</time></trkpt><trkpt lat="45.1310118" lon="7.1677398"><ele>429.0</ele><time>2026-04-04T15:37:34.59Z</time></trkpt><trkpt lat="45.1309768" lon="7.167987"><ele>429.0</ele><time>2026-04-04T15:37:35.591Z</time></trkpt><trkpt lat="45.1309419" lon="7.1682316"><ele>429.0</ele><time>2026-04-04T15:37:36.59Z</time></trkpt><trkpt lat="45.1309056" lon="7.1684569"><ele>429.0</ele><time>2026-04-04T15:37:37.59Z</time></trkpt><trkpt lat="45.1308714" lon="7.1686691"><ele>429.0</ele><time>2026-04-04T15:37:38.59Z</time></trkpt><trkpt lat="45.1308352" lon="7.1688695"><ele>429.0</ele><time>2026-04-04T15:37:39.59Z</time></trkpt><trkpt lat="45.1308066" lon="7.1690644"><ele>429.0</ele><time>2026-04-04T15:37:40.589Z</time></trkpt><trkpt lat="45.1307856" lon="7.1692491"><ele>429.0</ele><time>2026-04-04T15:37:41.59Z</time></trkpt><trkpt lat="45.1307702" lon="7.1694207"><ele>429.0</ele><time>2026-04-04T15:37:42.591Z</time></trkpt><trkpt lat="45.1307738" lon="7.1695865"><ele>429.0</ele><time>2026-04-04T15:37:43.59Z</time></trkpt><trkpt lat="45.1308124" lon="7.1697348"><ele>429.0</ele><time>2026-04-04T15:37:44.59Z</time></trkpt><trkpt lat="45.130887" lon="7.1698451"><ele>429.0</ele><time>2026-04-04T15:37:45.591Z</time></trkpt><trkpt lat="45.1309828" lon="7.1699078"><ele>429.0</ele><time>2026-04-04T15:37:46.589Z</time></trkpt><trkpt lat="45.1310975" lon="7.16995"><ele>428.75</ele><time>2026-04-04T15:37:47.591Z</time></trkpt><trkpt lat="45.1312117" lon="7.170034"><ele>428.5</ele><time>2026-04-04T15:37:48.591Z</time></trkpt><trkpt lat="45.1313078" lon="7.1701765"><ele>428.25</ele><time>2026-04-04T15:37:49.59Z</time></trkpt><trkpt lat="45.131411" lon="7.1703449"><ele>428.0</ele><time>2026-04-04T15:37:50.59Z</time></trkpt><trkpt lat="45.1315225" lon="7.1705243"><ele>427.3333333333333</ele><time>2026-04-04T15:37:51.591Z</time></trkpt><trkpt lat="45.1316408" lon="7.1707231"><ele>426.66666666666663</ele><time>2026-04-04T15:37:52.591Z</time></trkpt><trkpt lat="45.1317599" lon="7.1709287"><ele>426.0</ele><time>2026-04-04T15:37:53.591Z</time></trkpt><trkpt lat="45.1318856" lon="7.1711455"><ele>426.0</ele><time>2026-04-04T15:37:54.591Z</time></trkpt><trkpt lat="45.1320186" lon="7.17137"><ele>426.0</ele><time>2026-04-04T15:37:55.591Z</time></trkpt><trkpt lat="45.1321557" lon="7.1716036"><ele>426.0</ele><time>2026-04-04T15:37:56.59Z</time></trkpt><trkpt lat="45.1322934" lon="7.1718393"><ele>424.33333333333337</ele><time>2026-04-04T15:37:57.59Z</time></trkpt><trkpt lat="45.1324348" lon="7.1720733"><ele>422.6666666666667</ele><time>2026-04-04T15:37:58.59Z</time></trkpt><trkpt lat="45.1325751" lon="7.1723086"><ele>421.0</ele><time>2026-04-04T15:37:59.591Z</time></trkpt><trkpt lat="45.132706" lon="7.1725287"><ele>421.0</ele><time>2026-04-04T15:38:00.59Z</time></trkpt><trkpt lat="45.1328307" lon="7.1727359"><ele>421.0</ele><time>2026-04-04T15:38:01.59Z</time></trkpt><trkpt lat="45.1329479" lon="7.1729332"><ele>421.0</ele><time>2026-04-04T15:38:02.591Z</time></trkpt><trkpt lat="45.1330611" lon="7.1731047"><ele>420.6666666666667</ele><time>2026-04-04T15:38:03.591Z</time></trkpt><trkpt lat="45.1331756" lon="7.1732558"><ele>420.33333333333337</ele><time>2026-04-04T15:38:04.59Z</time></trkpt><trkpt lat="45.1333012" lon="7.1733868"><ele>420.0</ele><time>2026-04-04T15:38:05.59Z</time></trkpt><trkpt lat="45.1334432" lon="7.1735141"><ele>421.0</ele><time>2026-04-04T15:38:06.591Z</time></trkpt><trkpt lat="45.1336004" lon="7.1736365"><ele>422.0</ele><time>2026-04-04T15:38:07.589Z</time></trkpt><trkpt lat="45.1337679" lon="7.1737527"><ele>423.0</ele><time>2026-04-04T15:38:08.591Z</time></trkpt><trkpt lat="45.1339398" lon="7.1738667"><ele>423.33333333333337</ele><time>2026-04-04T15:38:09.59Z</time></trkpt><trkpt lat="45.1341078" lon="7.173971"><ele>423.6666666666667</ele><time>2026-04-04T15:38:10.59Z</time></trkpt><trkpt lat="45.1342714" lon="7.1740731"><ele>424.0</ele><time>2026-04-04T15:38:11.59Z</time></trkpt><trkpt lat="45.1344255" lon="7.1741748"><ele>424.0</ele><time>2026-04-04T15:38:12.59Z</time></trkpt><trkpt lat="45.1345709" lon="7.1742662"><ele>424.0</ele><time>2026-04-04T15:38:13.59Z</time></trkpt><trkpt lat="45.1347201" lon="7.1743549"><ele>424.0</ele><time>2026-04-04T15:38:14.589Z</time></trkpt><trkpt lat="45.1348628" lon="7.1744374"><ele>424.5</ele><time>2026-04-04T15:38:15.591Z</time></trkpt><trkpt lat="45.1349961" lon="7.1745152"><ele>425.0</ele><time>2026-04-04T15:38:16.591Z</time></trkpt><trkpt lat="45.1351172" lon="7.1745854"><ele>425.5</ele><time>2026-04-04T15:38:17.591Z</time></trkpt><trkpt lat="45.1352263" lon="7.1746677"><ele>426.0</ele><time>2026-04-04T15:38:18.59Z</time></trkpt><trkpt lat="45.1353136" lon="7.1747664"><ele>425.25</ele><time>2026-04-04T15:38:19.59Z</time></trkpt><trkpt lat="45.1353936" lon="7.1748809"><ele>424.5</ele><time>2026-04-04T15:38:20.59Z</time></trkpt><trkpt lat="45.1354583" lon="7.1750203"><ele>423.75</ele><time>2026-04-04T15:38:21.591Z</time></trkpt><trkpt lat="45.135513" lon="7.175182"><ele>423.0</ele><time>2026-04-04T15:38:22.591Z</time></trkpt><trkpt lat="45.1355574" lon="7.1753738"><ele>423.0</ele><time>2026-04-04T15:38:23.59Z</time></trkpt><trkpt lat="45.13559" lon="7.1755767"><ele>423.0</ele><time>2026-04-04T15:38:24.59Z</time></trkpt><trkpt lat="45.1356117" lon="7.1757835"><ele>423.0</ele><time>2026-04-04T15:38:25.589Z</time></trkpt><trkpt lat="45.1356245" lon="7.1759955"><ele>423.0</ele><time>2026-04-04T15:38:26.59Z</time></trkpt><trkpt lat="45.1356289" lon="7.1762057"><ele>422.33333333333337</ele><time>2026-04-04T15:38:27.591Z</time></trkpt><trkpt lat="45.135632" lon="7.1764165"><ele>421.6666666666667</ele><time>2026-04-04T15:38:28.589Z</time></trkpt><trkpt lat="45.1356257" lon="7.1766388"><ele>421.0</ele><time>2026-04-04T15:38:29.59Z</time></trkpt><trkpt lat="45.1356176" lon="7.1768659"><ele>421.0</ele><time>2026-04-04T15:38:30.591Z</time></trkpt><trkpt lat="45.1356007" lon="7.1770979"><ele>421.0</ele><time>2026-04-04T15:38:31.59Z</time></trkpt><trkpt lat="45.1355796" lon="7.1773412"><ele>421.0</ele><time>2026-04-04T15:38:32.59Z</time></trkpt><trkpt lat="45.1355543" lon="7.1775886"><ele>421.0</ele><time>2026-04-04T15:38:33.59Z</time></trkpt><trkpt lat="45.1355258" lon="7.1778399"><ele>421.0</ele><time>2026-04-04T15:38:34.59Z</time></trkpt><trkpt lat="45.1354944" lon="7.1780981"><ele>421.0</ele><time>2026-04-04T15:38:35.591Z</time></trkpt><trkpt lat="45.1354609" lon="7.1783641"><ele>421.0</ele><time>2026-04-04T15:38:36.591Z</time></trkpt><trkpt lat="45.1354232" lon="7.1786278"><ele>421.0</ele><time>2026-04-04T15:38:37.59Z</time></trkpt><trkpt lat="45.13538" lon="7.1788831"><ele>421.0</ele><time>2026-04-04T15:38:38.589Z</time></trkpt><trkpt lat="45.1353345" lon="7.1791281"><ele>421.5</ele><time>2026-04-04T15:38:39.59Z</time></trkpt><trkpt lat="45.135283" lon="7.1793684"><ele>422.0</ele><time>2026-04-04T15:38:40.591Z</time></trkpt><trkpt lat="45.1351757" lon="7.1798488"><ele>422.0</ele><time>2026-04-04T15:38:42.59Z</time></trkpt><trkpt lat="45.1351216" lon="7.1800887"><ele>422.0</ele><time>2026-04-04T15:38:43.589Z</time></trkpt><trkpt lat="45.1350686" lon="7.1803285"><ele>422.0</ele><time>2026-04-04T15:38:44.591Z</time></trkpt><trkpt lat="45.1350173" lon="7.1805699"><ele>421.66666666666663</ele><time>2026-04-04T15:38:45.591Z</time></trkpt><trkpt lat="45.1349645" lon="7.1808144"><ele>421.33333333333337</ele><time>2026-04-04T15:38:46.589Z</time></trkpt><trkpt lat="45.1349099" lon="7.1810555"><ele>421.0</ele><time>2026-04-04T15:38:47.59Z</time></trkpt><trkpt lat="45.1348563" lon="7.1812965"><ele>420.33333333333337</ele><time>2026-04-04T15:38:48.591Z</time></trkpt><trkpt lat="45.1348043" lon="7.1815355"><ele>419.66666666666663</ele><time>2026-04-04T15:38:49.59Z</time></trkpt><trkpt lat="45.1347541" lon="7.1817672"><ele>419.0</ele><time>2026-04-04T15:38:50.59Z</time></trkpt><trkpt lat="45.1347032" lon="7.1819889"><ele>419.0</ele><time>2026-04-04T15:38:51.591Z</time></trkpt><trkpt lat="45.1346578" lon="7.182195"><ele>419.0</ele><time>2026-04-04T15:38:52.59Z</time></trkpt><trkpt lat="45.1346133" lon="7.1823868"><ele>419.0</ele><time>2026-04-04T15:38:53.589Z</time></trkpt><trkpt lat="45.1345743" lon="7.182564"><ele>419.0</ele><time>2026-04-04T15:38:54.589Z</time></trkpt><trkpt lat="45.1345373" lon="7.1827139"><ele>418.99999999999994</ele><time>2026-04-04T15:38:55.589Z</time></trkpt><trkpt lat="45.1345018" lon="7.1828264"><ele>419.0</ele><time>2026-04-04T15:38:56.591Z</time></trkpt><trkpt lat="45.1344606" lon="7.1829013"><ele>419.0</ele><time>2026-04-04T15:38:57.591Z</time></trkpt><trkpt lat="45.134375" lon="7.1830056"><ele>419.0</ele><time>2026-04-04T15:38:59.591Z</time></trkpt><trkpt lat="45.1343217" lon="7.1831275"><ele>418.99999999999994</ele><time>2026-04-04T15:39:01.59Z</time></trkpt><trkpt lat="45.1343024" lon="7.1832235"><ele>419.0</ele><time>2026-04-04T15:43:39.588Z</time></trkpt><trkpt lat="45.1343056" lon="7.1833209"><ele>418.99999999999994</ele><time>2026-04-04T15:43:45.589Z</time></trkpt><trkpt lat="45.1342696" lon="7.1834041"><ele>419.0</ele><time>2026-04-04T15:43:49.593Z</time></trkpt><trkpt lat="45.1342694" lon="7.1835055"><ele>419.0</ele><time>2026-04-04T15:43:55.508Z</time></trkpt><trkpt lat="45.1342212" lon="7.1834188"><ele>419.0</ele><time>2026-04-04T15:44:35.588Z</time></trkpt><trkpt lat="45.1342759" lon="7.1833602"><ele>418.99999999999994</ele><time>2026-04-04T15:45:34.588Z</time></trkpt><trkpt lat="45.1342364" lon="7.1834827"><ele>419.0</ele><time>2026-04-04T15:49:58.586Z</time></trkpt><trkpt lat="45.1343036" lon="7.1835046"><ele>418.99999999999994</ele><time>2026-04-04T15:54:03.585Z</time></trkpt><trkpt lat="45.1343604" lon="7.1835506"><ele>419.0</ele><time>2026-04-04T15:54:06.585Z</time></trkpt><trkpt lat="45.134369" lon="7.183664"><ele>419.0</ele><time>2026-04-04T15:54:08.584Z</time></trkpt><trkpt lat="45.1343441" lon="7.1837551"><ele>419.0</ele><time>2026-04-04T15:54:09.584Z</time></trkpt><trkpt lat="45.1343138" lon="7.18388"><ele>418.99999999999994</ele><time>2026-04-04T15:54:10.584Z</time></trkpt><trkpt lat="45.1342854" lon="7.1840207"><ele>419.0</ele><time>2026-04-04T15:54:11.584Z</time></trkpt><trkpt lat="45.1342454" lon="7.184183"><ele>418.0</ele><time>2026-04-04T15:54:12.584Z</time></trkpt><trkpt lat="45.1341979" lon="7.1843685"><ele>417.0</ele><time>2026-04-04T15:54:13.584Z</time></trkpt><trkpt lat="45.1341487" lon="7.1845752"><ele>416.0</ele><time>2026-04-04T15:54:14.584Z</time></trkpt><trkpt lat="45.1340927" lon="7.184817"><ele>416.0</ele><time>2026-04-04T15:54:15.584Z</time></trkpt><trkpt lat="45.1340293" lon="7.1851096"><ele>416.0</ele><time>2026-04-04T15:54:16.584Z</time></trkpt><trkpt lat="45.1339566" lon="7.1854309"><ele>416.5</ele><time>2026-04-04T15:54:17.585Z</time></trkpt><trkpt lat="45.1338798" lon="7.1857763"><ele>417.0</ele><time>2026-04-04T15:54:18.585Z</time></trkpt><trkpt lat="45.1337948" lon="7.1861535"><ele>416.5</ele><time>2026-04-04T15:54:19.584Z</time></trkpt><trkpt lat="45.1337048" lon="7.1865453"><ele>416.0</ele><time>2026-04-04T15:54:20.583Z</time></trkpt><trkpt lat="45.1336098" lon="7.1869569"><ele>416.0</ele><time>2026-04-04T15:54:21.584Z</time></trkpt><trkpt lat="45.1335121" lon="7.187389"><ele>416.0</ele><time>2026-04-04T15:54:22.584Z</time></trkpt><trkpt lat="45.1334115" lon="7.1878233"><ele>416.5</ele><time>2026-04-04T15:54:23.584Z</time></trkpt><trkpt lat="45.1333138" lon="7.1882693"><ele>417.0</ele><time>2026-04-04T15:54:24.585Z</time></trkpt><trkpt lat="45.1332149" lon="7.1887179"><ele>415.5</ele><time>2026-04-04T15:54:25.585Z</time></trkpt><trkpt lat="45.1331156" lon="7.1891639"><ele>414.0</ele><time>2026-04-04T15:54:26.585Z</time></trkpt><trkpt lat="45.1330157" lon="7.189599"><ele>413.5</ele><time>2026-04-04T15:54:27.583Z</time></trkpt><trkpt lat="45.1329233" lon="7.1900103"><ele>413.0</ele><time>2026-04-04T15:54:28.585Z</time></trkpt><trkpt lat="45.1328361" lon="7.1904007"><ele>412.5</ele><time>2026-04-04T15:54:29.583Z</time></trkpt><trkpt lat="45.1327524" lon="7.1907744"><ele>412.0</ele><time>2026-04-04T15:54:30.585Z</time></trkpt><trkpt lat="45.1326731" lon="7.1911314"><ele>412.0</ele><time>2026-04-04T15:54:31.584Z</time></trkpt><trkpt lat="45.1325968" lon="7.1914807"><ele>412.0</ele><time>2026-04-04T15:54:32.584Z</time></trkpt><trkpt lat="45.1325229" lon="7.191821"><ele>412.0</ele><time>2026-04-04T15:54:33.583Z</time></trkpt><trkpt lat="45.1324446" lon="7.1921499"><ele>412.0</ele><time>2026-04-04T15:54:34.584Z</time></trkpt><trkpt lat="45.1323708" lon="7.192475"><ele>412.0</ele><time>2026-04-04T15:54:35.584Z</time></trkpt><trkpt lat="45.1322963" lon="7.1928002"><ele>412.0</ele><time>2026-04-04T15:54:36.585Z</time></trkpt><trkpt lat="45.1322226" lon="7.1931215"><ele>412.5</ele><time>2026-04-04T15:54:37.584Z</time></trkpt><trkpt lat="45.1321498" lon="7.1934452"><ele>413.0</ele><time>2026-04-04T15:54:38.585Z</time></trkpt><trkpt lat="45.1320806" lon="7.1937699"><ele>411.0</ele><time>2026-04-04T15:54:39.585Z</time></trkpt><trkpt lat="45.1320114" lon="7.1940963"><ele>409.0</ele><time>2026-04-04T15:54:40.583Z</time></trkpt><trkpt lat="45.1319388" lon="7.1944212"><ele>409.0</ele><time>2026-04-04T15:54:41.584Z</time></trkpt><trkpt lat="45.1318672" lon="7.1947463"><ele>409.0</ele><time>2026-04-04T15:54:42.584Z</time></trkpt><trkpt lat="45.1317939" lon="7.1950681"><ele>409.0</ele><time>2026-04-04T15:54:43.585Z</time></trkpt><trkpt lat="45.131722" lon="7.1953893"><ele>409.0</ele><time>2026-04-04T15:54:44.584Z</time></trkpt><trkpt lat="45.1316484" lon="7.1957151"><ele>409.5</ele><time>2026-04-04T15:54:45.583Z</time></trkpt><trkpt lat="45.1315732" lon="7.1960442"><ele>410.0</ele><time>2026-04-04T15:54:46.583Z</time></trkpt><trkpt lat="45.1314982" lon="7.1963746"><ele>411.0</ele><time>2026-04-04T15:54:47.584Z</time></trkpt><trkpt lat="45.131426" lon="7.196698"><ele>412.0</ele><time>2026-04-04T15:54:48.584Z</time></trkpt><trkpt lat="45.1313524" lon="7.1970268"><ele>412.5</ele><time>2026-04-04T15:54:49.584Z</time></trkpt><trkpt lat="45.1312791" lon="7.1973554"><ele>413.0</ele><time>2026-04-04T15:54:50.584Z</time></trkpt><trkpt lat="45.1312039" lon="7.1976829"><ele>413.0</ele><time>2026-04-04T15:54:51.583Z</time></trkpt><trkpt lat="45.1311289" lon="7.1980077"><ele>413.0</ele><time>2026-04-04T15:54:52.584Z</time></trkpt><trkpt lat="45.1310597" lon="7.19833"><ele>412.5</ele><time>2026-04-04T15:54:53.585Z</time></trkpt><trkpt lat="45.1309861" lon="7.1986571"><ele>412.0</ele><time>2026-04-04T15:54:54.584Z</time></trkpt><trkpt lat="45.1309126" lon="7.1989826"><ele>412.0</ele><time>2026-04-04T15:54:55.584Z</time></trkpt><trkpt lat="45.1308405" lon="7.1993054"><ele>412.0</ele><time>2026-04-04T15:54:56.585Z</time></trkpt><trkpt lat="45.1307673" lon="7.1996254"><ele>412.0</ele><time>2026-04-04T15:54:57.584Z</time></trkpt><trkpt lat="45.1306987" lon="7.1999424"><ele>412.0</ele><time>2026-04-04T15:54:58.584Z</time></trkpt><trkpt lat="45.1306312" lon="7.2002518"><ele>412.0</ele><time>2026-04-04T15:54:59.584Z</time></trkpt><trkpt lat="45.1305658" lon="7.2005583"><ele>412.0</ele><time>2026-04-04T15:55:00.584Z</time></trkpt><trkpt lat="45.1304986" lon="7.200861"><ele>412.0</ele><time>2026-04-04T15:55:01.585Z</time></trkpt><trkpt lat="45.1304287" lon="7.2011643"><ele>412.0</ele><time>2026-04-04T15:55:02.584Z</time></trkpt><trkpt lat="45.1303599" lon="7.2014667"><ele>412.0</ele><time>2026-04-04T15:55:03.584Z</time></trkpt><trkpt lat="45.1302923" lon="7.2017675"><ele>411.6666666666667</ele><time>2026-04-04T15:55:04.585Z</time></trkpt><trkpt lat="45.1302229" lon="7.2020651"><ele>411.33333333333337</ele><time>2026-04-04T15:55:05.585Z</time></trkpt><trkpt lat="45.1301577" lon="7.2023632"><ele>411.0</ele><time>2026-04-04T15:55:06.584Z</time></trkpt><trkpt lat="45.1300912" lon="7.2026615"><ele>410.66666666666663</ele><time>2026-04-04T15:55:07.584Z</time></trkpt><trkpt lat="45.1300271" lon="7.2029606"><ele>410.3333333333333</ele><time>2026-04-04T15:55:08.585Z</time></trkpt><trkpt lat="45.1299643" lon="7.2032608"><ele>410.0</ele><time>2026-04-04T15:55:09.585Z</time></trkpt><trkpt lat="45.1298972" lon="7.2035614"><ele>409.3333333333333</ele><time>2026-04-04T15:55:10.585Z</time></trkpt><trkpt lat="45.1298316" lon="7.2038536"><ele>408.66666666666663</ele><time>2026-04-04T15:55:11.585Z</time></trkpt><trkpt lat="45.1297639" lon="7.2041548"><ele>408.0</ele><time>2026-04-04T15:55:12.584Z</time></trkpt><trkpt lat="45.1296973" lon="7.2044558"><ele>408.0</ele><time>2026-04-04T15:55:13.584Z</time></trkpt><trkpt lat="45.1296346" lon="7.2047488"><ele>408.0</ele><time>2026-04-04T15:55:14.584Z</time></trkpt><trkpt lat="45.1295727" lon="7.2050414"><ele>408.0</ele><time>2026-04-04T15:55:15.584Z</time></trkpt><trkpt lat="45.1295108" lon="7.2053186"><ele>407.66666666666663</ele><time>2026-04-04T15:55:16.585Z</time></trkpt><trkpt lat="45.1294528" lon="7.2055841"><ele>407.3333333333333</ele><time>2026-04-04T15:55:17.584Z</time></trkpt><trkpt lat="45.1293934" lon="7.2058476"><ele>407.0</ele><time>2026-04-04T15:55:18.583Z</time></trkpt><trkpt lat="45.1293346" lon="7.2061028"><ele>407.0</ele><time>2026-04-04T15:55:19.583Z</time></trkpt><trkpt lat="45.1292769" lon="7.2063591"><ele>407.0</ele><time>2026-04-04T15:55:20.583Z</time></trkpt><trkpt lat="45.1292239" lon="7.2066048"><ele>407.0</ele><time>2026-04-04T15:55:21.584Z</time></trkpt><trkpt lat="45.1291738" lon="7.206847"><ele>407.0</ele><time>2026-04-04T15:55:22.584Z</time></trkpt><trkpt lat="45.1291251" lon="7.2070824"><ele>407.0</ele><time>2026-04-04T15:55:23.585Z</time></trkpt><trkpt lat="45.1290771" lon="7.2073051"><ele>407.0</ele><time>2026-04-04T15:55:24.584Z</time></trkpt><trkpt lat="45.1290284" lon="7.2075204"><ele>406.75</ele><time>2026-04-04T15:55:25.584Z</time></trkpt><trkpt lat="45.1289826" lon="7.2077178"><ele>406.5</ele><time>2026-04-04T15:55:26.585Z</time></trkpt><trkpt lat="45.128937" lon="7.2078938"><ele>406.25</ele><time>2026-04-04T15:55:27.584Z</time></trkpt><trkpt lat="45.128889" lon="7.2080461"><ele>406.0</ele><time>2026-04-04T15:55:28.585Z</time></trkpt><trkpt lat="45.1288347" lon="7.2081782"><ele>406.00000000000006</ele><time>2026-04-04T15:55:29.585Z</time></trkpt><trkpt lat="45.1287715" lon="7.2082838"><ele>406.0</ele><time>2026-04-04T15:55:30.585Z</time></trkpt><trkpt lat="45.128716" lon="7.2083719"><ele>406.0</ele><time>2026-04-04T15:55:31.585Z</time></trkpt><trkpt lat="45.1286768" lon="7.208455"><ele>406.0</ele><time>2026-04-04T15:55:32.584Z</time></trkpt><trkpt lat="45.1286648" lon="7.2085524"><ele>406.00000000000006</ele><time>2026-04-04T15:55:33.584Z</time></trkpt><trkpt lat="45.1286749" lon="7.2086477"><ele>406.0</ele><time>2026-04-04T15:55:34.584Z</time></trkpt><trkpt lat="45.1286914" lon="7.2088319"><ele>406.00000000000006</ele><time>2026-04-04T15:55:36.584Z</time></trkpt><trkpt lat="45.1286864" lon="7.2089336"><ele>406.0</ele><time>2026-04-04T15:55:37.585Z</time></trkpt><trkpt lat="45.1286746" lon="7.2090403"><ele>406.0</ele><time>2026-04-04T15:55:38.585Z</time></trkpt><trkpt lat="45.1286551" lon="7.2091493"><ele>406.0</ele><time>2026-04-04T15:55:39.584Z</time></trkpt><trkpt lat="45.1286349" lon="7.2092626"><ele>406.00000000000006</ele><time>2026-04-04T15:55:40.584Z</time></trkpt><trkpt lat="45.1286086" lon="7.2093776"><ele>406.0</ele><time>2026-04-04T15:55:41.585Z</time></trkpt><trkpt lat="45.1285823" lon="7.2094961"><ele>406.0</ele><time>2026-04-04T15:55:42.584Z</time></trkpt><trkpt lat="45.1285583" lon="7.2096205"><ele>406.0</ele><time>2026-04-04T15:55:43.583Z</time></trkpt><trkpt lat="45.1285335" lon="7.209749"><ele>406.0</ele><time>2026-04-04T15:55:44.585Z</time></trkpt><trkpt lat="45.1285072" lon="7.2098756"><ele>406.0</ele><time>2026-04-04T15:55:45.585Z</time></trkpt><trkpt lat="45.1284828" lon="7.2099978"><ele>406.0</ele><time>2026-04-04T15:55:46.585Z</time></trkpt><trkpt lat="45.1284552" lon="7.2101234"><ele>406.0</ele><time>2026-04-04T15:55:47.584Z</time></trkpt><trkpt lat="45.128422" lon="7.2102801"><ele>406.0</ele><time>2026-04-04T15:55:48.584Z</time></trkpt><trkpt lat="45.1283839" lon="7.2104594"><ele>406.0</ele><time>2026-04-04T15:55:49.584Z</time></trkpt><trkpt lat="45.1283402" lon="7.2106533"><ele>406.0</ele><time>2026-04-04T15:55:50.583Z</time></trkpt><trkpt lat="45.1282946" lon="7.2108586"><ele>406.0</ele><time>2026-04-04T15:55:51.585Z</time></trkpt><trkpt lat="45.1282452" lon="7.2111033"><ele>406.0</ele><time>2026-04-04T15:55:52.584Z</time></trkpt><trkpt lat="45.1281866" lon="7.2113811"><ele>406.0</ele><time>2026-04-04T15:55:53.584Z</time></trkpt><trkpt lat="45.1281171" lon="7.2116868"><ele>406.0</ele><time>2026-04-04T15:55:54.583Z</time></trkpt><trkpt lat="45.1280445" lon="7.2120241"><ele>406.0</ele><time>2026-04-04T15:55:55.584Z</time></trkpt><trkpt lat="45.1279672" lon="7.2123763"><ele>406.0</ele><time>2026-04-04T15:55:56.584Z</time></trkpt><trkpt lat="45.1278829" lon="7.2127527"><ele>406.0</ele><time>2026-04-04T15:55:57.585Z</time></trkpt><trkpt lat="45.1277924" lon="7.2131504"><ele>405.5</ele><time>2026-04-04T15:55:58.584Z</time></trkpt><trkpt lat="45.127703" lon="7.2135605"><ele>405.0</ele><time>2026-04-04T15:55:59.584Z</time></trkpt><trkpt lat="45.1276092" lon="7.2139753"><ele>404.5</ele><time>2026-04-04T15:56:00.584Z</time></trkpt><trkpt lat="45.1275107" lon="7.2143686"><ele>404.0</ele><time>2026-04-04T15:56:01.584Z</time></trkpt><trkpt lat="45.1274187" lon="7.2147416"><ele>403.5</ele><time>2026-04-04T15:56:02.584Z</time></trkpt><trkpt lat="45.1273351" lon="7.2151173"><ele>403.0</ele><time>2026-04-04T15:56:03.584Z</time></trkpt><trkpt lat="45.1272471" lon="7.2155085"><ele>403.0</ele><time>2026-04-04T15:56:04.585Z</time></trkpt><trkpt lat="45.1271561" lon="7.2159027"><ele>403.0</ele><time>2026-04-04T15:56:05.585Z</time></trkpt><trkpt lat="45.1270675" lon="7.2162935"><ele>402.5</ele><time>2026-04-04T15:56:06.584Z</time></trkpt><trkpt lat="45.1269827" lon="7.2166825"><ele>402.0</ele><time>2026-04-04T15:56:07.584Z</time></trkpt><trkpt lat="45.126899" lon="7.2170654"><ele>401.0</ele><time>2026-04-04T15:56:08.584Z</time></trkpt><trkpt lat="45.1268147" lon="7.2174414"><ele>400.0</ele><time>2026-04-04T15:56:09.585Z</time></trkpt><trkpt lat="45.1267314" lon="7.2178174"><ele>400.5</ele><time>2026-04-04T15:56:10.584Z</time></trkpt><trkpt lat="45.1266521" lon="7.2181858"><ele>401.0</ele><time>2026-04-04T15:56:11.584Z</time></trkpt><trkpt lat="45.1265709" lon="7.2185511"><ele>401.0</ele><time>2026-04-04T15:56:12.584Z</time></trkpt><trkpt lat="45.1264891" lon="7.2189134"><ele>401.0</ele><time>2026-04-04T15:56:13.583Z</time></trkpt><trkpt lat="45.1264097" lon="7.2192712"><ele>401.0</ele><time>2026-04-04T15:56:14.584Z</time></trkpt><trkpt lat="45.1263312" lon="7.2196301"><ele>401.0</ele><time>2026-04-04T15:56:15.583Z</time></trkpt><trkpt lat="45.1262506" lon="7.2199841"><ele>400.0</ele><time>2026-04-04T15:56:16.583Z</time></trkpt><trkpt lat="45.1261709" lon="7.2203335"><ele>399.0</ele><time>2026-04-04T15:56:17.582Z</time></trkpt><trkpt lat="45.1260939" lon="7.2206839"><ele>399.0</ele><time>2026-04-04T15:56:18.583Z</time></trkpt><trkpt lat="45.1260165" lon="7.2210291"><ele>399.0</ele><time>2026-04-04T15:56:19.584Z</time></trkpt><trkpt lat="45.1259412" lon="7.2213767"><ele>399.5</ele><time>2026-04-04T15:56:20.583Z</time></trkpt><trkpt lat="45.125867" lon="7.2217186"><ele>400.0</ele><time>2026-04-04T15:56:21.584Z</time></trkpt><trkpt lat="45.1257904" lon="7.2220599"><ele>401.5</ele><time>2026-04-04T15:56:22.583Z</time></trkpt><trkpt lat="45.1257133" lon="7.222403"><ele>403.0</ele><time>2026-04-04T15:56:23.583Z</time></trkpt><trkpt lat="45.1256352" lon="7.2227406"><ele>403.0</ele><time>2026-04-04T15:56:24.583Z</time></trkpt><trkpt lat="45.1255562" lon="7.2230749"><ele>403.0</ele><time>2026-04-04T15:56:25.584Z</time></trkpt><trkpt lat="45.1254797" lon="7.2234096"><ele>402.5</ele><time>2026-04-04T15:56:26.584Z</time></trkpt><trkpt lat="45.1254054" lon="7.2237416"><ele>402.0</ele><time>2026-04-04T15:56:27.582Z</time></trkpt><trkpt lat="45.1253315" lon="7.2240751"><ele>401.0</ele><time>2026-04-04T15:56:28.584Z</time></trkpt><trkpt lat="45.1252589" lon="7.2244008"><ele>400.0</ele><time>2026-04-04T15:56:29.583Z</time></trkpt><trkpt lat="45.1251856" lon="7.2247201"><ele>399.6666666666667</ele><time>2026-04-04T15:56:30.582Z</time></trkpt><trkpt lat="45.1251165" lon="7.2250296"><ele>399.33333333333337</ele><time>2026-04-04T15:56:31.583Z</time></trkpt><trkpt lat="45.1250512" lon="7.2253272"><ele>399.0</ele><time>2026-04-04T15:56:32.583Z</time></trkpt><trkpt lat="45.1249896" lon="7.2256105"><ele>399.0</ele><time>2026-04-04T15:56:33.583Z</time></trkpt><trkpt lat="45.1249304" lon="7.2258764"><ele>399.0</ele><time>2026-04-04T15:56:34.583Z</time></trkpt><trkpt lat="45.1248745" lon="7.2261344"><ele>399.0</ele><time>2026-04-04T15:56:35.583Z</time></trkpt><trkpt lat="45.1248193" lon="7.226375"><ele>398.75</ele><time>2026-04-04T15:56:36.584Z</time></trkpt><trkpt lat="45.1247717" lon="7.2265905"><ele>398.5</ele><time>2026-04-04T15:56:37.583Z</time></trkpt><trkpt lat="45.1247269" lon="7.2267689"><ele>398.25</ele><time>2026-04-04T15:56:38.582Z</time></trkpt><trkpt lat="45.1246831" lon="7.2269245"><ele>398.0</ele><time>2026-04-04T15:56:39.584Z</time></trkpt><trkpt lat="45.1246265" lon="7.2270558"><ele>398.0</ele><time>2026-04-04T15:56:40.583Z</time></trkpt><trkpt lat="45.1245625" lon="7.2271601"><ele>398.0</ele><time>2026-04-04T15:56:41.584Z</time></trkpt><trkpt lat="45.1245209" lon="7.2272885"><ele>398.0</ele><time>2026-04-04T15:56:42.583Z</time></trkpt><trkpt lat="45.1245133" lon="7.2274429"><ele>398.0</ele><time>2026-04-04T15:56:43.583Z</time></trkpt><trkpt lat="45.124515" lon="7.2276216"><ele>398.0</ele><time>2026-04-04T15:56:44.583Z</time></trkpt><trkpt lat="45.1244807" lon="7.2278296"><ele>398.0</ele><time>2026-04-04T15:56:45.583Z</time></trkpt><trkpt lat="45.124436" lon="7.2280446"><ele>398.0</ele><time>2026-04-04T15:56:46.583Z</time></trkpt><trkpt lat="45.12439" lon="7.2282643"><ele>398.0</ele><time>2026-04-04T15:56:47.583Z</time></trkpt><trkpt lat="45.1243436" lon="7.2284765"><ele>398.0</ele><time>2026-04-04T15:56:48.583Z</time></trkpt><trkpt lat="45.1243021" lon="7.2286707"><ele>398.0</ele><time>2026-04-04T15:56:49.583Z</time></trkpt><trkpt lat="45.1242622" lon="7.2288553"><ele>398.0</ele><time>2026-04-04T15:56:50.584Z</time></trkpt><trkpt lat="45.1242261" lon="7.2290318"><ele>398.0</ele><time>2026-04-04T15:56:51.583Z</time></trkpt><trkpt lat="45.1241939" lon="7.229182"><ele>397.8333333333333</ele><time>2026-04-04T15:56:52.584Z</time></trkpt><trkpt lat="45.1241651" lon="7.2293139"><ele>397.66666666666663</ele><time>2026-04-04T15:56:53.583Z</time></trkpt><trkpt lat="45.1241423" lon="7.2294342"><ele>397.5</ele><time>2026-04-04T15:56:54.582Z</time></trkpt><trkpt lat="45.1241193" lon="7.2295399"><ele>397.33333333333337</ele><time>2026-04-04T15:56:55.582Z</time></trkpt><trkpt lat="45.1240971" lon="7.2296359"><ele>397.1666666666667</ele><time>2026-04-04T15:56:56.582Z</time></trkpt><trkpt lat="45.1240772" lon="7.2297244"><ele>397.0</ele><time>2026-04-04T15:56:57.584Z</time></trkpt><trkpt lat="45.1240569" lon="7.2298118"><ele>397.00000000000006</ele><time>2026-04-04T15:56:58.584Z</time></trkpt><trkpt lat="45.1240347" lon="7.2299052"><ele>397.0</ele><time>2026-04-04T15:56:59.583Z</time></trkpt><trkpt lat="45.1240109" lon="7.23001"><ele>397.0</ele><time>2026-04-04T15:57:00.583Z</time></trkpt><trkpt lat="45.1239853" lon="7.2301253"><ele>397.0</ele><time>2026-04-04T15:57:01.583Z</time></trkpt><trkpt lat="45.1239598" lon="7.2302467"><ele>397.00000000000006</ele><time>2026-04-04T15:57:02.584Z</time></trkpt><trkpt lat="45.1239277" lon="7.230387"><ele>397.0</ele><time>2026-04-04T15:57:03.583Z</time></trkpt><trkpt lat="45.1238937" lon="7.2305408"><ele>397.25</ele><time>2026-04-04T15:57:04.583Z</time></trkpt><trkpt lat="45.1238605" lon="7.2307128"><ele>397.5</ele><time>2026-04-04T15:57:05.583Z</time></trkpt><trkpt lat="45.1238244" lon="7.2308983"><ele>397.75</ele><time>2026-04-04T15:57:06.582Z</time></trkpt><trkpt lat="45.1237814" lon="7.2310937"><ele>398.0</ele><time>2026-04-04T15:57:07.583Z</time></trkpt><trkpt lat="45.1237363" lon="7.2312959"><ele>397.66666666666663</ele><time>2026-04-04T15:57:08.583Z</time></trkpt><trkpt lat="45.1236889" lon="7.2315044"><ele>397.33333333333337</ele><time>2026-04-04T15:57:09.583Z</time></trkpt><trkpt lat="45.1236392" lon="7.231715"><ele>397.0</ele><time>2026-04-04T15:57:10.582Z</time></trkpt><trkpt lat="45.1235915" lon="7.2319288"><ele>397.0</ele><time>2026-04-04T15:57:11.583Z</time></trkpt><trkpt lat="45.1235462" lon="7.2321345"><ele>397.0</ele><time>2026-04-04T15:57:12.583Z</time></trkpt><trkpt lat="45.1234974" lon="7.2323326"><ele>397.0</ele><time>2026-04-04T15:57:13.584Z</time></trkpt><trkpt lat="45.1234536" lon="7.2325192"><ele>397.0</ele><time>2026-04-04T15:57:14.582Z</time></trkpt><trkpt lat="45.1234135" lon="7.2326965"><ele>397.0</ele><time>2026-04-04T15:57:15.583Z</time></trkpt><trkpt lat="45.1233759" lon="7.2328738"><ele>397.0</ele><time>2026-04-04T15:57:16.582Z</time></trkpt><trkpt lat="45.1233385" lon="7.2330581"><ele>397.0</ele><time>2026-04-04T15:57:17.584Z</time></trkpt><trkpt lat="45.1232952" lon="7.233256"><ele>397.0</ele><time>2026-04-04T15:57:18.583Z</time></trkpt><trkpt lat="45.12325" lon="7.2334469"><ele>397.0</ele><time>2026-04-04T15:57:19.583Z</time></trkpt><trkpt lat="45.1232082" lon="7.2336203"><ele>397.0</ele><time>2026-04-04T15:57:20.583Z</time></trkpt><trkpt lat="45.1231671" lon="7.2337868"><ele>397.0</ele><time>2026-04-04T15:57:21.583Z</time></trkpt><trkpt lat="45.1231275" lon="7.2339616"><ele>397.0</ele><time>2026-04-04T15:57:22.583Z</time></trkpt><trkpt lat="45.1230897" lon="7.2341479"><ele>397.0</ele><time>2026-04-04T15:57:23.583Z</time></trkpt><trkpt lat="45.1230516" lon="7.2343356"><ele>397.0</ele><time>2026-04-04T15:57:24.584Z</time></trkpt><trkpt lat="45.1230119" lon="7.2345197"><ele>397.0</ele><time>2026-04-04T15:57:25.582Z</time></trkpt><trkpt lat="45.1229662" lon="7.2347083"><ele>397.0</ele><time>2026-04-04T15:57:26.583Z</time></trkpt><trkpt lat="45.1229233" lon="7.2348886"><ele>397.25</ele><time>2026-04-04T15:57:27.582Z</time></trkpt><trkpt lat="45.1228841" lon="7.2350569"><ele>397.5</ele><time>2026-04-04T15:57:28.583Z</time></trkpt><trkpt lat="45.1228433" lon="7.2352221"><ele>397.75</ele><time>2026-04-04T15:57:29.584Z</time></trkpt><trkpt lat="45.122809" lon="7.2353843"><ele>398.0</ele><time>2026-04-04T15:57:30.584Z</time></trkpt><trkpt lat="45.1227745" lon="7.2355402"><ele>398.0</ele><time>2026-04-04T15:57:31.583Z</time></trkpt><trkpt lat="45.1227405" lon="7.2356902"><ele>398.0</ele><time>2026-04-04T15:57:32.584Z</time></trkpt><trkpt lat="45.1227077" lon="7.2358288"><ele>398.0</ele><time>2026-04-04T15:57:33.584Z</time></trkpt><trkpt lat="45.1226754" lon="7.2359568"><ele>398.0</ele><time>2026-04-04T15:57:34.583Z</time></trkpt><trkpt lat="45.1226389" lon="7.2360891"><ele>398.0</ele><time>2026-04-04T15:57:35.584Z</time></trkpt><trkpt lat="45.1226037" lon="7.2362239"><ele>398.0</ele><time>2026-04-04T15:57:36.582Z</time></trkpt><trkpt lat="45.1225657" lon="7.2363581"><ele>398.0</ele><time>2026-04-04T15:57:37.583Z</time></trkpt><trkpt lat="45.1225269" lon="7.2364964"><ele>398.0</ele><time>2026-04-04T15:57:38.583Z</time></trkpt><trkpt lat="45.1224832" lon="7.2366298"><ele>398.0</ele><time>2026-04-04T15:57:39.584Z</time></trkpt><trkpt lat="45.1224432" lon="7.236758"><ele>398.0</ele><time>2026-04-04T15:57:40.584Z</time></trkpt><trkpt lat="45.1224025" lon="7.2368794"><ele>397.79999999999995</ele><time>2026-04-04T15:57:41.583Z</time></trkpt><trkpt lat="45.1223615" lon="7.2370012"><ele>397.6</ele><time>2026-04-04T15:57:42.584Z</time></trkpt><trkpt lat="45.1223215" lon="7.2371188"><ele>397.4</ele><time>2026-04-04T15:57:43.584Z</time></trkpt><trkpt lat="45.122279" lon="7.2372314"><ele>397.20000000000005</ele><time>2026-04-04T15:57:44.584Z</time></trkpt><trkpt lat="45.122233" lon="7.2373471"><ele>397.0</ele><time>2026-04-04T15:57:45.583Z</time></trkpt><trkpt lat="45.1221882" lon="7.2374591"><ele>397.0</ele><time>2026-04-04T15:57:46.583Z</time></trkpt><trkpt lat="45.1221469" lon="7.2375697"><ele>397.0</ele><time>2026-04-04T15:57:47.584Z</time></trkpt><trkpt lat="45.1221028" lon="7.2376872"><ele>397.0</ele><time>2026-04-04T15:57:48.584Z</time></trkpt><trkpt lat="45.1220532" lon="7.237811"><ele>397.0</ele><time>2026-04-04T15:57:49.583Z</time></trkpt><trkpt lat="45.1219988" lon="7.2379275"><ele>397.0</ele><time>2026-04-04T15:57:50.583Z</time></trkpt><trkpt lat="45.1219441" lon="7.2380516"><ele>397.0</ele><time>2026-04-04T15:57:51.583Z</time></trkpt><trkpt lat="45.1218868" lon="7.2381747"><ele>397.0</ele><time>2026-04-04T15:57:52.583Z</time></trkpt><trkpt lat="45.121825" lon="7.238306"><ele>397.0</ele><time>2026-04-04T15:57:53.583Z</time></trkpt><trkpt lat="45.121757" lon="7.2384638"><ele>397.0</ele><time>2026-04-04T15:57:54.582Z</time></trkpt><trkpt lat="45.1216724" lon="7.2386329"><ele>397.0</ele><time>2026-04-04T15:57:55.582Z</time></trkpt><trkpt lat="45.1215819" lon="7.2387992"><ele>397.0</ele><time>2026-04-04T15:57:56.584Z</time></trkpt><trkpt lat="45.1214861" lon="7.2389537"><ele>397.0</ele><time>2026-04-04T15:57:57.583Z</time></trkpt><trkpt lat="45.1213883" lon="7.2390953"><ele>397.0</ele><time>2026-04-04T15:57:58.583Z</time></trkpt><trkpt lat="45.1212913" lon="7.2392279"><ele>396.5</ele><time>2026-04-04T15:57:59.584Z</time></trkpt><trkpt lat="45.1211916" lon="7.2393547"><ele>396.0</ele><time>2026-04-04T15:58:00.584Z</time></trkpt><trkpt lat="45.1210873" lon="7.2394812"><ele>395.5</ele><time>2026-04-04T15:58:01.583Z</time></trkpt><trkpt lat="45.1209725" lon="7.2396005"><ele>395.0</ele><time>2026-04-04T15:58:02.583Z</time></trkpt><trkpt lat="45.1208544" lon="7.2396964"><ele>395.0</ele><time>2026-04-04T15:58:03.584Z</time></trkpt><trkpt lat="45.1207315" lon="7.239777"><ele>395.0</ele><time>2026-04-04T15:58:04.584Z</time></trkpt><trkpt lat="45.1206011" lon="7.2398466"><ele>395.0</ele><time>2026-04-04T15:58:05.582Z</time></trkpt><trkpt lat="45.1204707" lon="7.2399126"><ele>395.0</ele><time>2026-04-04T15:58:06.583Z</time></trkpt><trkpt lat="45.120343" lon="7.2399682"><ele>395.2</ele><time>2026-04-04T15:58:07.583Z</time></trkpt><trkpt lat="45.1202258" lon="7.240009"><ele>395.4</ele><time>2026-04-04T15:58:08.583Z</time></trkpt><trkpt lat="45.1201215" lon="7.24003"><ele>395.6</ele><time>2026-04-04T15:58:09.583Z</time></trkpt><trkpt lat="45.1200236" lon="7.2400379"><ele>395.8</ele><time>2026-04-04T15:58:10.584Z</time></trkpt><trkpt lat="45.1199318" lon="7.2400209"><ele>396.0</ele><time>2026-04-04T15:58:11.582Z</time></trkpt><trkpt lat="45.1198398" lon="7.239986"><ele>395.6666666666667</ele><time>2026-04-04T15:58:12.582Z</time></trkpt><trkpt lat="45.1197508" lon="7.2399738"><ele>395.33333333333337</ele><time>2026-04-04T15:58:13.584Z</time></trkpt><trkpt lat="45.1196646" lon="7.240015"><ele>395.0</ele><time>2026-04-04T15:58:14.583Z</time></trkpt><trkpt lat="45.1196052" lon="7.2400959"><ele>394.6666666666667</ele><time>2026-04-04T15:58:15.583Z</time></trkpt><trkpt lat="45.1195771" lon="7.2401999"><ele>394.33333333333337</ele><time>2026-04-04T15:58:16.583Z</time></trkpt><trkpt lat="45.11958" lon="7.2403215"><ele>394.0</ele><time>2026-04-04T15:58:17.583Z</time></trkpt><trkpt lat="45.1195965" lon="7.2404515"><ele>394.0</ele><time>2026-04-04T15:58:18.584Z</time></trkpt><trkpt lat="45.1195839" lon="7.240606"><ele>394.0</ele><time>2026-04-04T15:58:19.582Z</time></trkpt><trkpt lat="45.1195379" lon="7.2407514"><ele>394.0</ele><time>2026-04-04T15:58:20.583Z</time></trkpt><trkpt lat="45.1194713" lon="7.2408741"><ele>394.0</ele><time>2026-04-04T15:58:21.584Z</time></trkpt><trkpt lat="45.1193846" lon="7.2410012"><ele>394.0</ele><time>2026-04-04T15:58:22.583Z</time></trkpt><trkpt lat="45.119283" lon="7.2411345"><ele>394.0</ele><time>2026-04-04T15:58:23.583Z</time></trkpt><trkpt lat="45.1191841" lon="7.2412877"><ele>394.0</ele><time>2026-04-04T15:58:24.583Z</time></trkpt><trkpt lat="45.1190888" lon="7.2414627"><ele>394.0</ele><time>2026-04-04T15:58:25.583Z</time></trkpt><trkpt lat="45.1189993" lon="7.2416599"><ele>394.0</ele><time>2026-04-04T15:58:26.584Z</time></trkpt><trkpt lat="45.1189127" lon="7.2418797"><ele>394.0</ele><time>2026-04-04T15:58:27.583Z</time></trkpt><trkpt lat="45.1188436" lon="7.2421238"><ele>394.0</ele><time>2026-04-04T15:58:28.583Z</time></trkpt><trkpt lat="45.1187859" lon="7.2423741"><ele>394.0</ele><time>2026-04-04T15:58:29.583Z</time></trkpt><trkpt lat="45.118742" lon="7.2426396"><ele>394.0</ele><time>2026-04-04T15:58:30.583Z</time></trkpt><trkpt lat="45.1187208" lon="7.2429148"><ele>394.0</ele><time>2026-04-04T15:58:31.583Z</time></trkpt><trkpt lat="45.1187164" lon="7.2431978"><ele>393.33333333333337</ele><time>2026-04-04T15:58:32.582Z</time></trkpt><trkpt lat="45.1187274" lon="7.243492"><ele>392.66666666666663</ele><time>2026-04-04T15:58:33.583Z</time></trkpt><trkpt lat="45.1187608" lon="7.2437852"><ele>392.0</ele><time>2026-04-04T15:58:34.583Z</time></trkpt><trkpt lat="45.118812" lon="7.2440824"><ele>392.0</ele><time>2026-04-04T15:58:35.584Z</time></trkpt><trkpt lat="45.1188635" lon="7.2443785"><ele>392.0</ele><time>2026-04-04T15:58:36.583Z</time></trkpt><trkpt lat="45.118911" lon="7.2446747"><ele>392.0</ele><time>2026-04-04T15:58:37.583Z</time></trkpt><trkpt lat="45.1189553" lon="7.2449515"><ele>392.3333333333333</ele><time>2026-04-04T15:58:38.583Z</time></trkpt><trkpt lat="45.1189945" lon="7.2452194"><ele>392.66666666666663</ele><time>2026-04-04T15:58:39.583Z</time></trkpt><trkpt lat="45.1190364" lon="7.245482"><ele>393.0</ele><time>2026-04-04T15:58:40.583Z</time></trkpt><trkpt lat="45.1190776" lon="7.2457406"><ele>392.66666666666663</ele><time>2026-04-04T15:58:41.583Z</time></trkpt><trkpt lat="45.1191212" lon="7.2459992"><ele>392.3333333333333</ele><time>2026-04-04T15:58:42.583Z</time></trkpt><trkpt lat="45.1191642" lon="7.2462611"><ele>392.0</ele><time>2026-04-04T15:58:43.583Z</time></trkpt><trkpt lat="45.11921" lon="7.2465229"><ele>392.0</ele><time>2026-04-04T15:58:44.583Z</time></trkpt><trkpt lat="45.1192526" lon="7.2467807"><ele>392.0</ele><time>2026-04-04T15:58:45.582Z</time></trkpt><trkpt lat="45.1192957" lon="7.2470481"><ele>392.0</ele><time>2026-04-04T15:58:46.583Z</time></trkpt><trkpt lat="45.1193386" lon="7.2473069"><ele>392.0</ele><time>2026-04-04T15:58:47.583Z</time></trkpt><trkpt lat="45.1193807" lon="7.2475616"><ele>392.0</ele><time>2026-04-04T15:58:48.584Z</time></trkpt><trkpt lat="45.1194225" lon="7.2478124"><ele>392.0</ele><time>2026-04-04T15:58:49.584Z</time></trkpt><trkpt lat="45.1194629" lon="7.2480609"><ele>391.66666666666663</ele><time>2026-04-04T15:58:50.584Z</time></trkpt><trkpt lat="45.1195027" lon="7.2483125"><ele>391.33333333333337</ele><time>2026-04-04T15:58:51.584Z</time></trkpt><trkpt lat="45.119538" lon="7.248559"><ele>391.0</ele><time>2026-04-04T15:58:52.582Z</time></trkpt><trkpt lat="45.1195634" lon="7.2488168"><ele>390.33333333333337</ele><time>2026-04-04T15:58:53.581Z</time></trkpt><trkpt lat="45.119575" lon="7.2490783"><ele>389.66666666666663</ele><time>2026-04-04T15:58:54.582Z</time></trkpt><trkpt lat="45.1195672" lon="7.2493347"><ele>389.0</ele><time>2026-04-04T15:58:55.582Z</time></trkpt><trkpt lat="45.1195404" lon="7.2495872"><ele>389.66666666666663</ele><time>2026-04-04T15:58:56.582Z</time></trkpt><trkpt lat="45.1194994" lon="7.2498418"><ele>390.33333333333337</ele><time>2026-04-04T15:58:57.583Z</time></trkpt><trkpt lat="45.1194376" lon="7.250094"><ele>391.0</ele><time>2026-04-04T15:58:58.582Z</time></trkpt><trkpt lat="45.119356" lon="7.2503295"><ele>391.0</ele><time>2026-04-04T15:58:59.582Z</time></trkpt><trkpt lat="45.1192591" lon="7.2505404"><ele>391.0</ele><time>2026-04-04T15:59:00.583Z</time></trkpt><trkpt lat="45.1191499" lon="7.250736"><ele>391.0</ele><time>2026-04-04T15:59:01.582Z</time></trkpt><trkpt lat="45.1190316" lon="7.2509249"><ele>391.0</ele><time>2026-04-04T15:59:02.581Z</time></trkpt><trkpt lat="45.1188995" lon="7.2511065"><ele>391.0</ele><time>2026-04-04T15:59:03.582Z</time></trkpt><trkpt lat="45.1187622" lon="7.2512818"><ele>391.0</ele><time>2026-04-04T15:59:04.582Z</time></trkpt><trkpt lat="45.1186282" lon="7.2514553"><ele>390.6666666666667</ele><time>2026-04-04T15:59:05.582Z</time></trkpt><trkpt lat="45.118487" lon="7.2516544"><ele>390.33333333333337</ele><time>2026-04-04T15:59:06.582Z</time></trkpt><trkpt lat="45.1183301" lon="7.251866"><ele>390.0</ele><time>2026-04-04T15:59:07.583Z</time></trkpt><trkpt lat="45.1181627" lon="7.2520787"><ele>389.0</ele><time>2026-04-04T15:59:08.582Z</time></trkpt><trkpt lat="45.1179838" lon="7.2522951"><ele>388.0</ele><time>2026-04-04T15:59:09.582Z</time></trkpt><trkpt lat="45.1178029" lon="7.2525181"><ele>388.0</ele><time>2026-04-04T15:59:10.583Z</time></trkpt><trkpt lat="45.1176216" lon="7.2527515"><ele>388.0</ele><time>2026-04-04T15:59:11.582Z</time></trkpt><trkpt lat="45.1174422" lon="7.2529798"><ele>387.5</ele><time>2026-04-04T15:59:12.582Z</time></trkpt><trkpt lat="45.1172605" lon="7.2532101"><ele>387.0</ele><time>2026-04-04T15:59:13.583Z</time></trkpt><trkpt lat="45.1170809" lon="7.2534433"><ele>387.0</ele><time>2026-04-04T15:59:14.582Z</time></trkpt><trkpt lat="45.1169008" lon="7.253678"><ele>387.0</ele><time>2026-04-04T15:59:15.581Z</time></trkpt><trkpt lat="45.1167204" lon="7.2539127"><ele>386.5</ele><time>2026-04-04T15:59:16.583Z</time></trkpt><trkpt lat="45.1165392" lon="7.2541453"><ele>386.0</ele><time>2026-04-04T15:59:17.581Z</time></trkpt><trkpt lat="45.1163577" lon="7.2543833"><ele>386.0</ele><time>2026-04-04T15:59:18.583Z</time></trkpt><trkpt lat="45.1161739" lon="7.254619"><ele>386.0</ele><time>2026-04-04T15:59:19.583Z</time></trkpt><trkpt lat="45.1159913" lon="7.2548556"><ele>387.0</ele><time>2026-04-04T15:59:20.583Z</time></trkpt><trkpt lat="45.115808" lon="7.2550951"><ele>388.0</ele><time>2026-04-04T15:59:21.582Z</time></trkpt><trkpt lat="45.1156204" lon="7.2553272"><ele>388.0</ele><time>2026-04-04T15:59:22.581Z</time></trkpt><trkpt lat="45.1154355" lon="7.2555631"><ele>388.0</ele><time>2026-04-04T15:59:23.583Z</time></trkpt><trkpt lat="45.1152539" lon="7.2558012"><ele>388.0</ele><time>2026-04-04T15:59:24.583Z</time></trkpt><trkpt lat="45.1150767" lon="7.2560456"><ele>388.0</ele><time>2026-04-04T15:59:25.582Z</time></trkpt><trkpt lat="45.1149096" lon="7.256301"><ele>386.5</ele><time>2026-04-04T15:59:26.582Z</time></trkpt><trkpt lat="45.1147583" lon="7.2565684"><ele>385.0</ele><time>2026-04-04T15:59:27.582Z</time></trkpt><trkpt lat="45.1146245" lon="7.2568547"><ele>385.0</ele><time>2026-04-04T15:59:28.582Z</time></trkpt><trkpt lat="45.1145053" lon="7.2571465"><ele>385.0</ele><time>2026-04-04T15:59:29.582Z</time></trkpt><trkpt lat="45.1144009" lon="7.2574376"><ele>385.6666666666667</ele><time>2026-04-04T15:59:30.582Z</time></trkpt><trkpt lat="45.114311" lon="7.2577194"><ele>386.33333333333337</ele><time>2026-04-04T15:59:31.582Z</time></trkpt><trkpt lat="45.1142214" lon="7.2579974"><ele>387.0</ele><time>2026-04-04T15:59:32.582Z</time></trkpt><trkpt lat="45.1141341" lon="7.2582771"><ele>385.5</ele><time>2026-04-04T15:59:33.581Z</time></trkpt><trkpt lat="45.1140478" lon="7.2585682"><ele>384.0</ele><time>2026-04-04T15:59:34.582Z</time></trkpt><trkpt lat="45.1139575" lon="7.2588668"><ele>385.5</ele><time>2026-04-04T15:59:35.583Z</time></trkpt><trkpt lat="45.1138654" lon="7.2591721"><ele>387.0</ele><time>2026-04-04T15:59:36.582Z</time></trkpt><trkpt lat="45.1137703" lon="7.2594742"><ele>387.0</ele><time>2026-04-04T15:59:37.582Z</time></trkpt><trkpt lat="45.1136732" lon="7.2597758"><ele>387.0</ele><time>2026-04-04T15:59:38.582Z</time></trkpt><trkpt lat="45.113579" lon="7.2600696"><ele>387.33333333333337</ele><time>2026-04-04T15:59:39.582Z</time></trkpt><trkpt lat="45.1134854" lon="7.2603618"><ele>387.6666666666667</ele><time>2026-04-04T15:59:40.582Z</time></trkpt><trkpt lat="45.1133981" lon="7.2606395"><ele>388.0</ele><time>2026-04-04T15:59:41.583Z</time></trkpt><trkpt lat="45.1133188" lon="7.2609144"><ele>386.33333333333337</ele><time>2026-04-04T15:59:42.582Z</time></trkpt><trkpt lat="45.1132522" lon="7.2611877"><ele>384.6666666666667</ele><time>2026-04-04T15:59:43.581Z</time></trkpt><trkpt lat="45.1132043" lon="7.2614599"><ele>383.0</ele><time>2026-04-04T15:59:44.583Z</time></trkpt><trkpt lat="45.1131693" lon="7.2617318"><ele>383.0</ele><time>2026-04-04T15:59:45.582Z</time></trkpt><trkpt lat="45.1131449" lon="7.2620103"><ele>383.0</ele><time>2026-04-04T15:59:46.582Z</time></trkpt><trkpt lat="45.1131316" lon="7.2622922"><ele>383.0</ele><time>2026-04-04T15:59:47.582Z</time></trkpt><trkpt lat="45.113128" lon="7.2625771"><ele>383.0</ele><time>2026-04-04T15:59:48.583Z</time></trkpt><trkpt lat="45.1131296" lon="7.2628507"><ele>383.0</ele><time>2026-04-04T15:59:49.583Z</time></trkpt><trkpt lat="45.1131319" lon="7.2631062"><ele>383.0</ele><time>2026-04-04T15:59:50.582Z</time></trkpt><trkpt lat="45.1131365" lon="7.2633547"><ele>383.0</ele><time>2026-04-04T15:59:51.582Z</time></trkpt><trkpt lat="45.1131373" lon="7.2636007"><ele>383.0</ele><time>2026-04-04T15:59:52.583Z</time></trkpt><trkpt lat="45.1131413" lon="7.2638505"><ele>383.0</ele><time>2026-04-04T15:59:53.583Z</time></trkpt><trkpt lat="45.1131502" lon="7.2640993"><ele>383.33333333333337</ele><time>2026-04-04T15:59:54.582Z</time></trkpt><trkpt lat="45.1131713" lon="7.264348"><ele>383.6666666666667</ele><time>2026-04-04T15:59:55.582Z</time></trkpt><trkpt lat="45.1132039" lon="7.2645925"><ele>384.0</ele><time>2026-04-04T15:59:56.582Z</time></trkpt><trkpt lat="45.1132454" lon="7.2648363"><ele>383.3333333333333</ele><time>2026-04-04T15:59:57.582Z</time></trkpt><trkpt lat="45.1132983" lon="7.2650887"><ele>382.66666666666663</ele><time>2026-04-04T15:59:58.582Z</time></trkpt><trkpt lat="45.1133676" lon="7.2653319"><ele>382.0</ele><time>2026-04-04T15:59:59.582Z</time></trkpt><trkpt lat="45.1134441" lon="7.2655638"><ele>382.3333333333333</ele><time>2026-04-04T16:00:00.582Z</time></trkpt><trkpt lat="45.11352" lon="7.2657959"><ele>382.6666666666667</ele><time>2026-04-04T16:00:01.581Z</time></trkpt><trkpt lat="45.1135953" lon="7.2660213"><ele>383.0</ele><time>2026-04-04T16:00:02.583Z</time></trkpt><trkpt lat="45.1136691" lon="7.2662356"><ele>383.0</ele><time>2026-04-04T16:00:03.581Z</time></trkpt><trkpt lat="45.1137387" lon="7.2664382"><ele>383.0</ele><time>2026-04-04T16:00:04.582Z</time></trkpt><trkpt lat="45.1138043" lon="7.266634"><ele>383.0</ele><time>2026-04-04T16:00:05.582Z</time></trkpt><trkpt lat="45.1138651" lon="7.2668198"><ele>382.79999999999995</ele><time>2026-04-04T16:00:06.582Z</time></trkpt><trkpt lat="45.1139185" lon="7.2669739"><ele>382.6</ele><time>2026-04-04T16:00:07.582Z</time></trkpt><trkpt lat="45.1139618" lon="7.2670995"><ele>382.4</ele><time>2026-04-04T16:00:08.582Z</time></trkpt><trkpt lat="45.1139964" lon="7.2671971"><ele>382.20000000000005</ele><time>2026-04-04T16:00:09.581Z</time></trkpt><trkpt lat="45.1140535" lon="7.267359"><ele>382.0</ele><time>2026-04-04T16:00:11.582Z</time></trkpt><trkpt lat="45.1140792" lon="7.2674637"><ele>382.0</ele><time>2026-04-04T16:00:12.582Z</time></trkpt><trkpt lat="45.114091" lon="7.2675566"><ele>382.0</ele><time>2026-04-04T16:00:13.583Z</time></trkpt><trkpt lat="45.1140836" lon="7.2677173"><ele>382.0</ele><time>2026-04-04T16:00:15.582Z</time></trkpt><trkpt lat="45.1141566" lon="7.2678595"><ele>382.0</ele><time>2026-04-04T16:00:17.583Z</time></trkpt><trkpt lat="45.1142273" lon="7.2679495"><ele>382.0</ele><time>2026-04-04T16:00:18.581Z</time></trkpt><trkpt lat="45.1142834" lon="7.2680643"><ele>382.0</ele><time>2026-04-04T16:00:19.582Z</time></trkpt><trkpt lat="45.1143353" lon="7.2681862"><ele>382.0</ele><time>2026-04-04T16:00:20.582Z</time></trkpt><trkpt lat="45.1144047" lon="7.2683438"><ele>382.0</ele><time>2026-04-04T16:00:21.583Z</time></trkpt><trkpt lat="45.1144786" lon="7.2685458"><ele>382.0</ele><time>2026-04-04T16:00:22.582Z</time></trkpt><trkpt lat="45.1145532" lon="7.2687953"><ele>382.0</ele><time>2026-04-04T16:00:23.581Z</time></trkpt><trkpt lat="45.1146442" lon="7.2690797"><ele>382.0</ele><time>2026-04-04T16:00:24.583Z</time></trkpt><trkpt lat="45.1147447" lon="7.2693857"><ele>382.0</ele><time>2026-04-04T16:00:25.583Z</time></trkpt><trkpt lat="45.1148542" lon="7.2697057"><ele>382.0</ele><time>2026-04-04T16:00:26.582Z</time></trkpt><trkpt lat="45.1149615" lon="7.2700223"><ele>381.5</ele><time>2026-04-04T16:00:27.583Z</time></trkpt><trkpt lat="45.1150622" lon="7.2703146"><ele>381.0</ele><time>2026-04-04T16:00:28.582Z</time></trkpt><trkpt lat="45.1151587" lon="7.270595"><ele>381.0</ele><time>2026-04-04T16:00:29.583Z</time></trkpt><trkpt lat="45.1152503" lon="7.2708549"><ele>381.0</ele><time>2026-04-04T16:00:30.582Z</time></trkpt><trkpt lat="45.1153393" lon="7.2711073"><ele>381.0</ele><time>2026-04-04T16:00:31.582Z</time></trkpt><trkpt lat="45.1154257" lon="7.2713607"><ele>381.0</ele><time>2026-04-04T16:00:32.582Z</time></trkpt><trkpt lat="45.1155133" lon="7.271611"><ele>381.0</ele><time>2026-04-04T16:00:33.582Z</time></trkpt><trkpt lat="45.1156001" lon="7.2718657"><ele>381.0</ele><time>2026-04-04T16:00:34.582Z</time></trkpt><trkpt lat="45.1156872" lon="7.2721215"><ele>381.6666666666667</ele><time>2026-04-04T16:00:35.582Z</time></trkpt><trkpt lat="45.1157759" lon="7.2723785"><ele>382.33333333333337</ele><time>2026-04-04T16:00:36.582Z</time></trkpt><trkpt lat="45.1158656" lon="7.2726425"><ele>383.0</ele><time>2026-04-04T16:00:37.582Z</time></trkpt><trkpt lat="45.1159651" lon="7.2729274"><ele>382.0</ele><time>2026-04-04T16:00:38.581Z</time></trkpt><trkpt lat="45.1160583" lon="7.2732075"><ele>381.0</ele><time>2026-04-04T16:00:39.583Z</time></trkpt><trkpt lat="45.1161416" lon="7.2734718"><ele>380.0</ele><time>2026-04-04T16:00:40.581Z</time></trkpt><trkpt lat="45.1162204" lon="7.2737392"><ele>379.0</ele><time>2026-04-04T16:00:41.581Z</time></trkpt><trkpt lat="45.1162947" lon="7.2740314"><ele>378.0</ele><time>2026-04-04T16:00:42.582Z</time></trkpt><trkpt lat="45.1163524" lon="7.2743438"><ele>377.0</ele><time>2026-04-04T16:00:43.582Z</time></trkpt><trkpt lat="45.116391" lon="7.2746443"><ele>376.6666666666667</ele><time>2026-04-04T16:00:44.583Z</time></trkpt><trkpt lat="45.1164157" lon="7.2749338"><ele>376.3333333333333</ele><time>2026-04-04T16:00:45.582Z</time></trkpt><trkpt lat="45.1164327" lon="7.2752363"><ele>376.0</ele><time>2026-04-04T16:00:46.582Z</time></trkpt><trkpt lat="45.1164394" lon="7.2755457"><ele>375.66666666666663</ele><time>2026-04-04T16:00:47.582Z</time></trkpt><trkpt lat="45.1164372" lon="7.2758538"><ele>375.3333333333333</ele><time>2026-04-04T16:00:48.582Z</time></trkpt><trkpt lat="45.1164265" lon="7.2761578"><ele>375.0</ele><time>2026-04-04T16:00:49.582Z</time></trkpt><trkpt lat="45.1164169" lon="7.276481"><ele>377.0</ele><time>2026-04-04T16:00:50.582Z</time></trkpt><trkpt lat="45.116406" lon="7.2768277"><ele>379.0</ele><time>2026-04-04T16:00:51.582Z</time></trkpt><trkpt lat="45.1163882" lon="7.2771918"><ele>378.5</ele><time>2026-04-04T16:00:52.583Z</time></trkpt><trkpt lat="45.1163676" lon="7.2775541"><ele>378.0</ele><time>2026-04-04T16:00:53.582Z</time></trkpt><trkpt lat="45.1163462" lon="7.2779123"><ele>377.5</ele><time>2026-04-04T16:00:54.583Z</time></trkpt><trkpt lat="45.1163244" lon="7.2782654"><ele>377.0</ele><time>2026-04-04T16:00:55.582Z</time></trkpt><trkpt lat="45.1163068" lon="7.2786153"><ele>377.0</ele><time>2026-04-04T16:00:56.582Z</time></trkpt><trkpt lat="45.116291" lon="7.2789631"><ele>377.0</ele><time>2026-04-04T16:00:57.583Z</time></trkpt><trkpt lat="45.1162732" lon="7.2793134"><ele>377.0</ele><time>2026-04-04T16:00:58.582Z</time></trkpt><trkpt lat="45.1162539" lon="7.2796652"><ele>377.0</ele><time>2026-04-04T16:00:59.583Z</time></trkpt><trkpt lat="45.1162366" lon="7.2800118"><ele>378.0</ele><time>2026-04-04T16:01:00.583Z</time></trkpt><trkpt lat="45.1162189" lon="7.2803606"><ele>379.0</ele><time>2026-04-04T16:01:01.582Z</time></trkpt><trkpt lat="45.1162042" lon="7.2807107"><ele>377.0</ele><time>2026-04-04T16:01:02.583Z</time></trkpt><trkpt lat="45.1161875" lon="7.2810692"><ele>375.0</ele><time>2026-04-04T16:01:03.581Z</time></trkpt><trkpt lat="45.1161689" lon="7.2814239"><ele>376.0</ele><time>2026-04-04T16:01:04.583Z</time></trkpt><trkpt lat="45.1161517" lon="7.2817881"><ele>377.0</ele><time>2026-04-04T16:01:05.582Z</time></trkpt><trkpt lat="45.1161376" lon="7.2821614"><ele>377.5</ele><time>2026-04-04T16:01:06.582Z</time></trkpt><trkpt lat="45.1161223" lon="7.2825453"><ele>378.0</ele><time>2026-04-04T16:01:07.582Z</time></trkpt><trkpt lat="45.1161087" lon="7.2829353"><ele>377.0</ele><time>2026-04-04T16:01:08.582Z</time></trkpt><trkpt lat="45.116093" lon="7.283333"><ele>376.0</ele><time>2026-04-04T16:01:09.581Z</time></trkpt><trkpt lat="45.1160718" lon="7.2837348"><ele>376.0</ele><time>2026-04-04T16:01:10.581Z</time></trkpt><trkpt lat="45.1160493" lon="7.2841193"><ele>376.0</ele><time>2026-04-04T16:01:11.583Z</time></trkpt><trkpt lat="45.1160304" lon="7.2844815"><ele>377.0</ele><time>2026-04-04T16:01:12.583Z</time></trkpt><trkpt lat="45.1160108" lon="7.2848237"><ele>378.0</ele><time>2026-04-04T16:01:13.582Z</time></trkpt><trkpt lat="45.1159934" lon="7.2851481"><ele>378.0</ele><time>2026-04-04T16:01:14.583Z</time></trkpt><trkpt lat="45.1159793" lon="7.2854505"><ele>378.0</ele><time>2026-04-04T16:01:15.582Z</time></trkpt><trkpt lat="45.1159649" lon="7.2857334"><ele>378.0</ele><time>2026-04-04T16:01:16.581Z</time></trkpt><trkpt lat="45.1159549" lon="7.2860022"><ele>377.6666666666667</ele><time>2026-04-04T16:01:17.582Z</time></trkpt><trkpt lat="45.1159436" lon="7.2862544"><ele>377.33333333333337</ele><time>2026-04-04T16:01:18.582Z</time></trkpt><trkpt lat="45.1159299" lon="7.2864894"><ele>377.0</ele><time>2026-04-04T16:01:19.582Z</time></trkpt><trkpt lat="45.1159174" lon="7.2867051"><ele>377.0</ele><time>2026-04-04T16:01:20.582Z</time></trkpt><trkpt lat="45.1158957" lon="7.2868949"><ele>377.0</ele><time>2026-04-04T16:01:21.582Z</time></trkpt><trkpt lat="45.1158679" lon="7.2870599"><ele>377.0</ele><time>2026-04-04T16:01:22.583Z</time></trkpt><trkpt lat="45.1158348" lon="7.287204"><ele>377.0</ele><time>2026-04-04T16:01:23.582Z</time></trkpt><trkpt lat="45.1158017" lon="7.2873278"><ele>376.8</ele><time>2026-04-04T16:01:24.582Z</time></trkpt><trkpt lat="45.1157895" lon="7.2874544"><ele>376.6</ele><time>2026-04-04T16:01:25.582Z</time></trkpt><trkpt lat="45.1158117" lon="7.2875988"><ele>376.40000000000003</ele><time>2026-04-04T16:01:26.582Z</time></trkpt><trkpt lat="45.1158406" lon="7.2877548"><ele>376.20000000000005</ele><time>2026-04-04T16:01:27.582Z</time></trkpt><trkpt lat="45.1158418" lon="7.2879142"><ele>376.0</ele><time>2026-04-04T16:01:28.583Z</time></trkpt><trkpt lat="45.1158439" lon="7.2880827"><ele>375.3333333333333</ele><time>2026-04-04T16:01:29.582Z</time></trkpt><trkpt lat="45.1158404" lon="7.288284"><ele>374.6666666666667</ele><time>2026-04-04T16:01:30.582Z</time></trkpt><trkpt lat="45.1158372" lon="7.2884978"><ele>374.0</ele><time>2026-04-04T16:01:31.582Z</time></trkpt><trkpt lat="45.1158273" lon="7.2887557"><ele>375.0</ele><time>2026-04-04T16:01:32.582Z</time></trkpt><trkpt lat="45.1158075" lon="7.2890315"><ele>376.0</ele><time>2026-04-04T16:01:33.582Z</time></trkpt><trkpt lat="45.1157919" lon="7.2893262"><ele>377.0</ele><time>2026-04-04T16:01:34.581Z</time></trkpt><trkpt lat="45.1157794" lon="7.2896325"><ele>377.33333333333337</ele><time>2026-04-04T16:01:35.582Z</time></trkpt><trkpt lat="45.1157646" lon="7.2899388"><ele>377.6666666666667</ele><time>2026-04-04T16:01:36.582Z</time></trkpt><trkpt lat="45.1157559" lon="7.2902493"><ele>378.0</ele><time>2026-04-04T16:01:37.581Z</time></trkpt><trkpt lat="45.115753" lon="7.2905623"><ele>377.0</ele><time>2026-04-04T16:01:38.583Z</time></trkpt><trkpt lat="45.1157545" lon="7.2908999"><ele>376.0</ele><time>2026-04-04T16:01:39.582Z</time></trkpt><trkpt lat="45.1157646" lon="7.2912607"><ele>376.5</ele><time>2026-04-04T16:01:40.583Z</time></trkpt><trkpt lat="45.1157745" lon="7.2916462"><ele>377.0</ele><time>2026-04-04T16:01:41.582Z</time></trkpt><trkpt lat="45.115784" lon="7.292057"><ele>377.0</ele><time>2026-04-04T16:01:42.582Z</time></trkpt><trkpt lat="45.115796" lon="7.29248"><ele>377.0</ele><time>2026-04-04T16:01:43.582Z</time></trkpt><trkpt lat="45.115804" lon="7.2928719"><ele>378.0</ele><time>2026-04-04T16:01:44.582Z</time></trkpt><trkpt lat="45.115811" lon="7.2932334"><ele>379.0</ele><time>2026-04-04T16:01:45.583Z</time></trkpt><trkpt lat="45.1158175" lon="7.293573"><ele>379.0</ele><time>2026-04-04T16:01:46.582Z</time></trkpt><trkpt lat="45.1158257" lon="7.29389"><ele>379.0</ele><time>2026-04-04T16:01:47.582Z</time></trkpt><trkpt lat="45.1158309" lon="7.2941848"><ele>379.0</ele><time>2026-04-04T16:01:48.581Z</time></trkpt><trkpt lat="45.1158305" lon="7.2944598"><ele>380.0</ele><time>2026-04-04T16:01:49.582Z</time></trkpt><trkpt lat="45.1158227" lon="7.2947188"><ele>381.0</ele><time>2026-04-04T16:01:50.582Z</time></trkpt><trkpt lat="45.1158098" lon="7.2949746"><ele>382.0</ele><time>2026-04-04T16:01:51.582Z</time></trkpt><trkpt lat="45.115795" lon="7.2952331"><ele>381.66666666666663</ele><time>2026-04-04T16:01:52.581Z</time></trkpt><trkpt lat="45.1157754" lon="7.2954944"><ele>381.3333333333333</ele><time>2026-04-04T16:01:53.581Z</time></trkpt><trkpt lat="45.1157546" lon="7.2957579"><ele>381.0</ele><time>2026-04-04T16:01:54.58Z</time></trkpt><trkpt lat="45.1157278" lon="7.2960212"><ele>381.0</ele><time>2026-04-04T16:01:55.581Z</time></trkpt><trkpt lat="45.1156959" lon="7.2962828"><ele>381.0</ele><time>2026-04-04T16:01:56.58Z</time></trkpt><trkpt lat="45.1156596" lon="7.296545"><ele>381.0</ele><time>2026-04-04T16:01:57.58Z</time></trkpt><trkpt lat="45.1156189" lon="7.2968078"><ele>381.6666666666667</ele><time>2026-04-04T16:01:58.581Z</time></trkpt><trkpt lat="45.1155796" lon="7.297065"><ele>382.33333333333337</ele><time>2026-04-04T16:01:59.582Z</time></trkpt><trkpt lat="45.1155382" lon="7.2973186"><ele>383.0</ele><time>2026-04-04T16:02:00.581Z</time></trkpt><trkpt lat="45.1154951" lon="7.297576"><ele>383.0</ele><time>2026-04-04T16:02:01.581Z</time></trkpt><trkpt lat="45.1154517" lon="7.2978334"><ele>383.0</ele><time>2026-04-04T16:02:02.581Z</time></trkpt><trkpt lat="45.1154096" lon="7.2980918"><ele>383.0</ele><time>2026-04-04T16:02:03.582Z</time></trkpt><trkpt lat="45.1153714" lon="7.2983404"><ele>384.33333333333337</ele><time>2026-04-04T16:02:04.58Z</time></trkpt><trkpt lat="45.1153342" lon="7.2986103"><ele>385.6666666666667</ele><time>2026-04-04T16:02:05.58Z</time></trkpt><trkpt lat="45.1152951" lon="7.2989016"><ele>387.0</ele><time>2026-04-04T16:02:06.582Z</time></trkpt><trkpt lat="45.1152512" lon="7.2991785"><ele>387.66666666666663</ele><time>2026-04-04T16:02:07.582Z</time></trkpt><trkpt lat="45.1152049" lon="7.2994511"><ele>388.3333333333333</ele><time>2026-04-04T16:02:08.581Z</time></trkpt><trkpt lat="45.115153" lon="7.2997057"><ele>389.0</ele><time>2026-04-04T16:02:09.581Z</time></trkpt><trkpt lat="45.1150978" lon="7.2999403"><ele>389.25</ele><time>2026-04-04T16:02:10.581Z</time></trkpt><trkpt lat="45.1150425" lon="7.3001581"><ele>389.5</ele><time>2026-04-04T16:02:11.581Z</time></trkpt><trkpt lat="45.1149865" lon="7.3003469"><ele>389.75</ele><time>2026-04-04T16:02:12.58Z</time></trkpt><trkpt lat="45.1149257" lon="7.3005115"><ele>390.0</ele><time>2026-04-04T16:02:13.581Z</time></trkpt><trkpt lat="45.1148595" lon="7.3006616"><ele>388.25</ele><time>2026-04-04T16:02:14.581Z</time></trkpt><trkpt lat="45.1148173" lon="7.3008151"><ele>386.5</ele><time>2026-04-04T16:02:15.581Z</time></trkpt><trkpt lat="45.1147977" lon="7.3009959"><ele>384.75</ele><time>2026-04-04T16:02:16.581Z</time></trkpt><trkpt lat="45.1147456" lon="7.3011889"><ele>383.0</ele><time>2026-04-04T16:02:17.581Z</time></trkpt><trkpt lat="45.114661" lon="7.3013872"><ele>383.6666666666667</ele><time>2026-04-04T16:02:18.581Z</time></trkpt><trkpt lat="45.1145615" lon="7.3016175"><ele>384.33333333333337</ele><time>2026-04-04T16:02:19.581Z</time></trkpt><trkpt lat="45.1144605" lon="7.3018575"><ele>385.0</ele><time>2026-04-04T16:02:20.581Z</time></trkpt><trkpt lat="45.1143541" lon="7.3021095"><ele>385.33333333333337</ele><time>2026-04-04T16:02:21.581Z</time></trkpt><trkpt lat="45.1142472" lon="7.3023621"><ele>385.66666666666663</ele><time>2026-04-04T16:02:22.581Z</time></trkpt><trkpt lat="45.1141385" lon="7.3026138"><ele>386.0</ele><time>2026-04-04T16:02:23.581Z</time></trkpt><trkpt lat="45.1140309" lon="7.3028722"><ele>384.3333333333333</ele><time>2026-04-04T16:02:24.581Z</time></trkpt><trkpt lat="45.1139188" lon="7.3031301"><ele>382.66666666666663</ele><time>2026-04-04T16:02:25.581Z</time></trkpt><trkpt lat="45.1138065" lon="7.3033908"><ele>381.0</ele><time>2026-04-04T16:02:26.581Z</time></trkpt><trkpt lat="45.1137032" lon="7.3036336"><ele>381.0</ele><time>2026-04-04T16:02:27.582Z</time></trkpt><trkpt lat="45.1135983" lon="7.3038742"><ele>381.0</ele><time>2026-04-04T16:02:28.581Z</time></trkpt><trkpt lat="45.1134924" lon="7.3041208"><ele>381.0</ele><time>2026-04-04T16:02:29.581Z</time></trkpt><trkpt lat="45.1133861" lon="7.3043711"><ele>381.3333333333333</ele><time>2026-04-04T16:02:30.58Z</time></trkpt><trkpt lat="45.1132721" lon="7.3046266"><ele>381.66666666666663</ele><time>2026-04-04T16:02:31.581Z</time></trkpt><trkpt lat="45.1131603" lon="7.3048898"><ele>382.0</ele><time>2026-04-04T16:02:32.581Z</time></trkpt><trkpt lat="45.1130414" lon="7.3051567"><ele>380.0</ele><time>2026-04-04T16:02:33.58Z</time></trkpt><trkpt lat="45.1129235" lon="7.3054306"><ele>378.0</ele><time>2026-04-04T16:02:34.58Z</time></trkpt><trkpt lat="45.1128035" lon="7.3057032"><ele>378.0</ele><time>2026-04-04T16:02:35.581Z</time></trkpt><trkpt lat="45.1126909" lon="7.3059631"><ele>378.0</ele><time>2026-04-04T16:02:36.581Z</time></trkpt><trkpt lat="45.112582" lon="7.306208"><ele>378.0</ele><time>2026-04-04T16:02:37.581Z</time></trkpt><trkpt lat="45.1124829" lon="7.3064401"><ele>376.6666666666667</ele><time>2026-04-04T16:02:38.581Z</time></trkpt><trkpt lat="45.1123849" lon="7.3066674"><ele>375.33333333333337</ele><time>2026-04-04T16:02:39.581Z</time></trkpt><trkpt lat="45.112285" lon="7.3068902"><ele>374.0</ele><time>2026-04-04T16:02:40.581Z</time></trkpt><trkpt lat="45.112182" lon="7.3071228"><ele>374.33333333333337</ele><time>2026-04-04T16:02:41.58Z</time></trkpt><trkpt lat="45.1120777" lon="7.3073561"><ele>374.6666666666667</ele><time>2026-04-04T16:02:42.581Z</time></trkpt><trkpt lat="45.1119755" lon="7.3075917"><ele>375.0</ele><time>2026-04-04T16:02:43.581Z</time></trkpt><trkpt lat="45.1118715" lon="7.3078311"><ele>375.0</ele><time>2026-04-04T16:02:44.58Z</time></trkpt><trkpt lat="45.1117653" lon="7.3080637"><ele>375.0</ele><time>2026-04-04T16:02:45.581Z</time></trkpt><trkpt lat="45.1116627" lon="7.3082976"><ele>375.0</ele><time>2026-04-04T16:02:46.58Z</time></trkpt><trkpt lat="45.1115608" lon="7.3085395"><ele>374.3333333333333</ele><time>2026-04-04T16:02:47.581Z</time></trkpt><trkpt lat="45.1114572" lon="7.3087793"><ele>373.66666666666663</ele><time>2026-04-04T16:02:48.581Z</time></trkpt><trkpt lat="45.1113516" lon="7.3090263"><ele>373.0</ele><time>2026-04-04T16:02:49.582Z</time></trkpt><trkpt lat="45.1112457" lon="7.3092719"><ele>372.3333333333333</ele><time>2026-04-04T16:02:50.581Z</time></trkpt><trkpt lat="45.111137" lon="7.3095248"><ele>371.6666666666667</ele><time>2026-04-04T16:02:51.581Z</time></trkpt><trkpt lat="45.1110271" lon="7.3097719"><ele>371.0</ele><time>2026-04-04T16:02:52.581Z</time></trkpt><trkpt lat="45.1109212" lon="7.3100164"><ele>370.33333333333337</ele><time>2026-04-04T16:02:53.581Z</time></trkpt><trkpt lat="45.1108147" lon="7.3102605"><ele>369.6666666666667</ele><time>2026-04-04T16:02:54.582Z</time></trkpt><trkpt lat="45.1107115" lon="7.3104976"><ele>369.0</ele><time>2026-04-04T16:02:55.58Z</time></trkpt><trkpt lat="45.1106132" lon="7.3107317"><ele>369.0</ele><time>2026-04-04T16:02:56.581Z</time></trkpt><trkpt lat="45.1105099" lon="7.3109633"><ele>369.0</ele><time>2026-04-04T16:02:57.582Z</time></trkpt><trkpt lat="45.1104096" lon="7.3111931"><ele>369.0</ele><time>2026-04-04T16:02:58.58Z</time></trkpt><trkpt lat="45.1103119" lon="7.3114202"><ele>369.0</ele><time>2026-04-04T16:02:59.58Z</time></trkpt><trkpt lat="45.110221" lon="7.3116399"><ele>369.0</ele><time>2026-04-04T16:03:00.581Z</time></trkpt><trkpt lat="45.1101268" lon="7.3118564"><ele>369.0</ele><time>2026-04-04T16:03:01.582Z</time></trkpt><trkpt lat="45.1100376" lon="7.3120565"><ele>369.3333333333333</ele><time>2026-04-04T16:03:02.581Z</time></trkpt><trkpt lat="45.1099578" lon="7.3122443"><ele>369.66666666666663</ele><time>2026-04-04T16:03:03.582Z</time></trkpt><trkpt lat="45.1098817" lon="7.3124277"><ele>370.0</ele><time>2026-04-04T16:03:04.58Z</time></trkpt><trkpt lat="45.1098086" lon="7.3126155"><ele>369.5</ele><time>2026-04-04T16:03:05.581Z</time></trkpt><trkpt lat="45.1097461" lon="7.3128042"><ele>369.0</ele><time>2026-04-04T16:03:06.581Z</time></trkpt><trkpt lat="45.1096937" lon="7.3129868"><ele>368.5</ele><time>2026-04-04T16:03:07.582Z</time></trkpt><trkpt lat="45.1096501" lon="7.3131696"><ele>368.0</ele><time>2026-04-04T16:03:08.581Z</time></trkpt><trkpt lat="45.1096191" lon="7.313344"><ele>368.0</ele><time>2026-04-04T16:03:09.581Z</time></trkpt><trkpt lat="45.1095993" lon="7.3135092"><ele>368.0</ele><time>2026-04-04T16:03:10.58Z</time></trkpt><trkpt lat="45.1095863" lon="7.3136486"><ele>368.0</ele><time>2026-04-04T16:03:11.581Z</time></trkpt><trkpt lat="45.1095774" lon="7.313774"><ele>368.0</ele><time>2026-04-04T16:03:12.581Z</time></trkpt><trkpt lat="45.1095733" lon="7.31388"><ele>368.0</ele><time>2026-04-04T16:03:13.581Z</time></trkpt><trkpt lat="45.1095687" lon="7.3140449"><ele>368.0</ele><time>2026-04-04T16:03:15.581Z</time></trkpt><trkpt lat="45.1095652" lon="7.3141697"><ele>368.0</ele><time>2026-04-04T16:03:17.581Z</time></trkpt><trkpt lat="45.1095573" lon="7.3142903"><ele>368.0</ele><time>2026-04-04T16:03:19.581Z</time></trkpt><trkpt lat="45.1095266" lon="7.3144376"><ele>368.0</ele><time>2026-04-04T16:03:21.581Z</time></trkpt><trkpt lat="45.1095003" lon="7.3145273"><ele>368.0</ele><time>2026-04-04T16:03:22.58Z</time></trkpt><trkpt lat="45.1094739" lon="7.3146162"><ele>368.0</ele><time>2026-04-04T16:03:23.581Z</time></trkpt><trkpt lat="45.109456" lon="7.3147079"><ele>368.2</ele><time>2026-04-04T16:03:24.581Z</time></trkpt><trkpt lat="45.1094658" lon="7.3148103"><ele>368.4</ele><time>2026-04-04T16:03:25.582Z</time></trkpt><trkpt lat="45.1094993" lon="7.3149287"><ele>368.59999999999997</ele><time>2026-04-04T16:03:26.582Z</time></trkpt><trkpt lat="45.1095385" lon="7.3150655"><ele>368.79999999999995</ele><time>2026-04-04T16:03:27.582Z</time></trkpt><trkpt lat="45.1095586" lon="7.3152131"><ele>369.0</ele><time>2026-04-04T16:03:28.582Z</time></trkpt><trkpt lat="45.1095758" lon="7.3153818"><ele>369.0</ele><time>2026-04-04T16:03:29.581Z</time></trkpt><trkpt lat="45.1095868" lon="7.3155551"><ele>369.0</ele><time>2026-04-04T16:03:30.582Z</time></trkpt><trkpt lat="45.1095935" lon="7.3157166"><ele>369.0</ele><time>2026-04-04T16:03:31.581Z</time></trkpt><trkpt lat="45.1095997" lon="7.3158806"><ele>369.0</ele><time>2026-04-04T16:03:32.581Z</time></trkpt><trkpt lat="45.109605" lon="7.3160585"><ele>369.0</ele><time>2026-04-04T16:03:33.581Z</time></trkpt><trkpt lat="45.1096116" lon="7.3162443"><ele>369.0</ele><time>2026-04-04T16:03:34.581Z</time></trkpt><trkpt lat="45.1096178" lon="7.31644"><ele>369.0</ele><time>2026-04-04T16:03:35.582Z</time></trkpt><trkpt lat="45.1096194" lon="7.3166421"><ele>369.0</ele><time>2026-04-04T16:03:36.581Z</time></trkpt><trkpt lat="45.1096234" lon="7.3168455"><ele>369.0</ele><time>2026-04-04T16:03:37.581Z</time></trkpt><trkpt lat="45.1096287" lon="7.3170462"><ele>369.0</ele><time>2026-04-04T16:03:38.581Z</time></trkpt><trkpt lat="45.1096338" lon="7.3172501"><ele>369.0</ele><time>2026-04-04T16:03:39.58Z</time></trkpt><trkpt lat="45.1096408" lon="7.3174594"><ele>369.0</ele><time>2026-04-04T16:03:40.582Z</time></trkpt><trkpt lat="45.1096457" lon="7.3176681"><ele>368.3333333333333</ele><time>2026-04-04T16:03:41.582Z</time></trkpt><trkpt lat="45.1096506" lon="7.3178817"><ele>367.66666666666663</ele><time>2026-04-04T16:03:42.581Z</time></trkpt><trkpt lat="45.1096573" lon="7.3181024"><ele>367.0</ele><time>2026-04-04T16:03:43.581Z</time></trkpt><trkpt lat="45.1096635" lon="7.3183216"><ele>366.66666666666663</ele><time>2026-04-04T16:03:44.582Z</time></trkpt><trkpt lat="45.1096774" lon="7.3185446"><ele>366.3333333333333</ele><time>2026-04-04T16:03:45.582Z</time></trkpt><trkpt lat="45.1097011" lon="7.3187719"><ele>366.0</ele><time>2026-04-04T16:03:46.581Z</time></trkpt><trkpt lat="45.1097288" lon="7.3190115"><ele>366.0</ele><time>2026-04-04T16:03:47.581Z</time></trkpt><trkpt lat="45.1097637" lon="7.3192489"><ele>366.0</ele><time>2026-04-04T16:03:48.581Z</time></trkpt><trkpt lat="45.1098051" lon="7.3194839"><ele>366.0</ele><time>2026-04-04T16:03:49.582Z</time></trkpt><trkpt lat="45.1098538" lon="7.319721"><ele>366.3333333333333</ele><time>2026-04-04T16:03:50.581Z</time></trkpt><trkpt lat="45.1099064" lon="7.3199534"><ele>366.66666666666663</ele><time>2026-04-04T16:03:51.581Z</time></trkpt><trkpt lat="45.1099658" lon="7.3201828"><ele>367.0</ele><time>2026-04-04T16:03:52.581Z</time></trkpt><trkpt lat="45.1100335" lon="7.3204051"><ele>367.0</ele><time>2026-04-04T16:03:53.581Z</time></trkpt><trkpt lat="45.110104" lon="7.3206256"><ele>367.0</ele><time>2026-04-04T16:03:54.581Z</time></trkpt><trkpt lat="45.1101885" lon="7.320845"><ele>367.0</ele><time>2026-04-04T16:03:55.581Z</time></trkpt><trkpt lat="45.1102747" lon="7.3210639"><ele>367.0</ele><time>2026-04-04T16:03:56.581Z</time></trkpt><trkpt lat="45.1103601" lon="7.3212769"><ele>367.0</ele><time>2026-04-04T16:03:57.581Z</time></trkpt><trkpt lat="45.1104441" lon="7.3214829"><ele>367.0</ele><time>2026-04-04T16:03:58.581Z</time></trkpt><trkpt lat="45.1105247" lon="7.3216862"><ele>366.66666666666663</ele><time>2026-04-04T16:03:59.582Z</time></trkpt><trkpt lat="45.1106053" lon="7.3218894"><ele>366.3333333333333</ele><time>2026-04-04T16:04:00.581Z</time></trkpt><trkpt lat="45.1106909" lon="7.3220868"><ele>366.0</ele><time>2026-04-04T16:04:01.581Z</time></trkpt><trkpt lat="45.1107736" lon="7.3222911"><ele>365.3333333333333</ele><time>2026-04-04T16:04:02.581Z</time></trkpt><trkpt lat="45.1108589" lon="7.3224917"><ele>364.66666666666663</ele><time>2026-04-04T16:04:03.582Z</time></trkpt><trkpt lat="45.1109431" lon="7.3226955"><ele>364.0</ele><time>2026-04-04T16:04:04.582Z</time></trkpt><trkpt lat="45.1110238" lon="7.3228953"><ele>364.5</ele><time>2026-04-04T16:04:05.582Z</time></trkpt><trkpt lat="45.1111034" lon="7.32309"><ele>365.0</ele><time>2026-04-04T16:04:06.58Z</time></trkpt><trkpt lat="45.1111764" lon="7.323267"><ele>365.5</ele><time>2026-04-04T16:04:07.581Z</time></trkpt><trkpt lat="45.1112453" lon="7.3234366"><ele>366.0</ele><time>2026-04-04T16:04:08.581Z</time></trkpt><trkpt lat="45.1113081" lon="7.3235906"><ele>366.0</ele><time>2026-04-04T16:04:09.581Z</time></trkpt><trkpt lat="45.1113717" lon="7.3237436"><ele>366.0</ele><time>2026-04-04T16:04:10.581Z</time></trkpt><trkpt lat="45.1114307" lon="7.3238874"><ele>366.0</ele><time>2026-04-04T16:04:11.58Z</time></trkpt><trkpt lat="45.1114885" lon="7.3240319"><ele>366.0</ele><time>2026-04-04T16:04:12.581Z</time></trkpt><trkpt lat="45.1115503" lon="7.3241892"><ele>366.3333333333333</ele><time>2026-04-04T16:04:13.58Z</time></trkpt><trkpt lat="45.1116256" lon="7.3243602"><ele>366.66666666666663</ele><time>2026-04-04T16:04:14.582Z</time></trkpt><trkpt lat="45.1117067" lon="7.3245467"><ele>367.0</ele><time>2026-04-04T16:04:15.581Z</time></trkpt><trkpt lat="45.1117877" lon="7.3247571"><ele>367.0</ele><time>2026-04-04T16:04:16.581Z</time></trkpt><trkpt lat="45.1118738" lon="7.3249808"><ele>367.0</ele><time>2026-04-04T16:04:17.581Z</time></trkpt><trkpt lat="45.1119689" lon="7.3252122"><ele>367.0</ele><time>2026-04-04T16:04:18.582Z</time></trkpt><trkpt lat="45.1120684" lon="7.3254523"><ele>366.0</ele><time>2026-04-04T16:04:19.582Z</time></trkpt><trkpt lat="45.1121602" lon="7.3256772"><ele>365.0</ele><time>2026-04-04T16:04:20.582Z</time></trkpt><trkpt lat="45.1122415" lon="7.3258842"><ele>364.0</ele><time>2026-04-04T16:04:21.58Z</time></trkpt><trkpt lat="45.1123166" lon="7.3260748"><ele>364.0</ele><time>2026-04-04T16:04:22.582Z</time></trkpt><trkpt lat="45.1123825" lon="7.3262464"><ele>364.0</ele><time>2026-04-04T16:04:23.581Z</time></trkpt><trkpt lat="45.1124458" lon="7.3264016"><ele>364.0</ele><time>2026-04-04T16:04:24.581Z</time></trkpt><trkpt lat="45.1124942" lon="7.3265211"><ele>364.0</ele><time>2026-04-04T16:04:25.581Z</time></trkpt><trkpt lat="45.1125408" lon="7.3266237"><ele>364.0</ele><time>2026-04-04T16:04:26.581Z</time></trkpt><trkpt lat="45.1125896" lon="7.3267117"><ele>364.0</ele><time>2026-04-04T16:04:27.58Z</time></trkpt><trkpt lat="45.1126402" lon="7.32679"><ele>364.0</ele><time>2026-04-04T16:04:28.581Z</time></trkpt><trkpt lat="45.1126885" lon="7.3268817"><ele>364.0</ele><time>2026-04-04T16:04:29.581Z</time></trkpt><trkpt lat="45.1127201" lon="7.3269869"><ele>364.0</ele><time>2026-04-04T16:04:30.582Z</time></trkpt><trkpt lat="45.1127445" lon="7.3271023"><ele>364.0</ele><time>2026-04-04T16:04:31.581Z</time></trkpt><trkpt lat="45.1127895" lon="7.3272217"><ele>364.0</ele><time>2026-04-04T16:04:32.581Z</time></trkpt><trkpt lat="45.1128429" lon="7.3273639"><ele>364.0</ele><time>2026-04-04T16:04:33.582Z</time></trkpt><trkpt lat="45.1128923" lon="7.3275304"><ele>364.0</ele><time>2026-04-04T16:04:34.581Z</time></trkpt><trkpt lat="45.1129448" lon="7.327705"><ele>364.0</ele><time>2026-04-04T16:04:35.581Z</time></trkpt><trkpt lat="45.1129893" lon="7.3278815"><ele>364.0</ele><time>2026-04-04T16:04:36.582Z</time></trkpt><trkpt lat="45.1130331" lon="7.3280648"><ele>364.0</ele><time>2026-04-04T16:04:37.58Z</time></trkpt><trkpt lat="45.113069" lon="7.3282487"><ele>364.0</ele><time>2026-04-04T16:04:38.58Z</time></trkpt><trkpt lat="45.1131" lon="7.3284516"><ele>364.0</ele><time>2026-04-04T16:04:39.581Z</time></trkpt><trkpt lat="45.1131323" lon="7.3286922"><ele>364.66666666666663</ele><time>2026-04-04T16:04:40.581Z</time></trkpt><trkpt lat="45.1131516" lon="7.3289647"><ele>365.3333333333333</ele><time>2026-04-04T16:04:41.582Z</time></trkpt><trkpt lat="45.1131515" lon="7.3292808"><ele>366.0</ele><time>2026-04-04T16:04:42.581Z</time></trkpt><trkpt lat="45.1131376" lon="7.3296097"><ele>366.5</ele><time>2026-04-04T16:04:43.58Z</time></trkpt><trkpt lat="45.1131102" lon="7.3299308"><ele>367.0</ele><time>2026-04-04T16:04:44.582Z</time></trkpt><trkpt lat="45.11307" lon="7.3302878"><ele>367.5</ele><time>2026-04-04T16:04:45.581Z</time></trkpt><trkpt lat="45.1130326" lon="7.3306493"><ele>368.0</ele><time>2026-04-04T16:04:46.582Z</time></trkpt><trkpt lat="45.1129987" lon="7.3310175"><ele>368.5</ele><time>2026-04-04T16:04:47.581Z</time></trkpt><trkpt lat="45.1129613" lon="7.3314046"><ele>369.0</ele><time>2026-04-04T16:04:48.582Z</time></trkpt><trkpt lat="45.1129249" lon="7.3318019"><ele>369.0</ele><time>2026-04-04T16:04:49.581Z</time></trkpt><trkpt lat="45.1128859" lon="7.3321849"><ele>369.0</ele><time>2026-04-04T16:04:50.581Z</time></trkpt><trkpt lat="45.1128516" lon="7.3325513"><ele>367.5</ele><time>2026-04-04T16:04:51.581Z</time></trkpt><trkpt lat="45.1128204" lon="7.3329011"><ele>366.0</ele><time>2026-04-04T16:04:52.581Z</time></trkpt><trkpt lat="45.1127959" lon="7.3332312"><ele>366.0</ele><time>2026-04-04T16:04:53.58Z</time></trkpt><trkpt lat="45.1127702" lon="7.3335515"><ele>366.0</ele><time>2026-04-04T16:04:54.579Z</time></trkpt><trkpt lat="45.1127527" lon="7.3338653"><ele>366.0</ele><time>2026-04-04T16:04:55.58Z</time></trkpt><trkpt lat="45.1127433" lon="7.3341868"><ele>366.0</ele><time>2026-04-04T16:04:56.58Z</time></trkpt><trkpt lat="45.1127421" lon="7.3345098"><ele>366.0</ele><time>2026-04-04T16:04:57.58Z</time></trkpt><trkpt lat="45.1127435" lon="7.334836"><ele>366.0</ele><time>2026-04-04T16:04:58.581Z</time></trkpt><trkpt lat="45.1127485" lon="7.335153"><ele>366.0</ele><time>2026-04-04T16:04:59.58Z</time></trkpt><trkpt lat="45.1127589" lon="7.335473"><ele>366.0</ele><time>2026-04-04T16:05:00.579Z</time></trkpt><trkpt lat="45.1127732" lon="7.335815"><ele>365.5</ele><time>2026-04-04T16:05:01.58Z</time></trkpt><trkpt lat="45.1127905" lon="7.3361802"><ele>365.0</ele><time>2026-04-04T16:05:02.58Z</time></trkpt><trkpt lat="45.1128068" lon="7.3365717"><ele>365.0</ele><time>2026-04-04T16:05:03.581Z</time></trkpt><trkpt lat="45.1128229" lon="7.3369798"><ele>365.0</ele><time>2026-04-04T16:05:04.581Z</time></trkpt><trkpt lat="45.1128355" lon="7.3374037"><ele>364.0</ele><time>2026-04-04T16:05:05.58Z</time></trkpt><trkpt lat="45.1128477" lon="7.3378189"><ele>363.0</ele><time>2026-04-04T16:05:06.58Z</time></trkpt><trkpt lat="45.1128568" lon="7.33821"><ele>362.5</ele><time>2026-04-04T16:05:07.579Z</time></trkpt><trkpt lat="45.112868" lon="7.33858"><ele>362.0</ele><time>2026-04-04T16:05:08.58Z</time></trkpt><trkpt lat="45.1128796" lon="7.3389255"><ele>361.0</ele><time>2026-04-04T16:05:09.58Z</time></trkpt><trkpt lat="45.1128966" lon="7.3392733"><ele>360.0</ele><time>2026-04-04T16:05:10.58Z</time></trkpt><trkpt lat="45.1129168" lon="7.339647"><ele>361.5</ele><time>2026-04-04T16:05:11.58Z</time></trkpt><trkpt lat="45.1129304" lon="7.3400431"><ele>363.0</ele><time>2026-04-04T16:05:12.579Z</time></trkpt><trkpt lat="45.1129386" lon="7.3404297"><ele>363.5</ele><time>2026-04-04T16:05:13.58Z</time></trkpt><trkpt lat="45.1129547" lon="7.3408172"><ele>364.0</ele><time>2026-04-04T16:05:14.581Z</time></trkpt><trkpt lat="45.1129706" lon="7.3412128"><ele>363.0</ele><time>2026-04-04T16:05:15.58Z</time></trkpt><trkpt lat="45.1129843" lon="7.3416109"><ele>362.0</ele><time>2026-04-04T16:05:16.58Z</time></trkpt><trkpt lat="45.1129992" lon="7.3420194"><ele>360.5</ele><time>2026-04-04T16:05:17.581Z</time></trkpt><trkpt lat="45.1130159" lon="7.3424405"><ele>359.0</ele><time>2026-04-04T16:05:18.581Z</time></trkpt><trkpt lat="45.1130351" lon="7.3428522"><ele>359.0</ele><time>2026-04-04T16:05:19.581Z</time></trkpt><trkpt lat="45.1130544" lon="7.3432814"><ele>359.0</ele><time>2026-04-04T16:05:20.58Z</time></trkpt><trkpt lat="45.1130695" lon="7.3437166"><ele>358.0</ele><time>2026-04-04T16:05:21.58Z</time></trkpt><trkpt lat="45.1130799" lon="7.3441438"><ele>357.0</ele><time>2026-04-04T16:05:22.58Z</time></trkpt><trkpt lat="45.1130949" lon="7.3445566"><ele>356.5</ele><time>2026-04-04T16:05:23.58Z</time></trkpt><trkpt lat="45.1131102" lon="7.3449639"><ele>356.0</ele><time>2026-04-04T16:05:24.581Z</time></trkpt><trkpt lat="45.1131241" lon="7.3453633"><ele>356.0</ele><time>2026-04-04T16:05:25.58Z</time></trkpt><trkpt lat="45.1131366" lon="7.3457531"><ele>356.0</ele><time>2026-04-04T16:05:26.579Z</time></trkpt><trkpt lat="45.1131527" lon="7.3461276"><ele>356.0</ele><time>2026-04-04T16:05:27.579Z</time></trkpt><trkpt lat="45.1131657" lon="7.3464958"><ele>356.0</ele><time>2026-04-04T16:05:28.581Z</time></trkpt><trkpt lat="45.1131793" lon="7.3468541"><ele>356.0</ele><time>2026-04-04T16:05:29.579Z</time></trkpt><trkpt lat="45.1131897" lon="7.3471978"><ele>356.0</ele><time>2026-04-04T16:05:30.58Z</time></trkpt><trkpt lat="45.1132036" lon="7.3475197"><ele>356.33333333333337</ele><time>2026-04-04T16:05:31.58Z</time></trkpt><trkpt lat="45.1132152" lon="7.3478307"><ele>356.6666666666667</ele><time>2026-04-04T16:05:32.58Z</time></trkpt><trkpt lat="45.1132259" lon="7.3481369"><ele>357.0</ele><time>2026-04-04T16:05:33.579Z</time></trkpt><trkpt lat="45.1132338" lon="7.3484431"><ele>357.0</ele><time>2026-04-04T16:05:34.581Z</time></trkpt><trkpt lat="45.1132422" lon="7.3487402"><ele>357.0</ele><time>2026-04-04T16:05:35.581Z</time></trkpt><trkpt lat="45.1132557" lon="7.3490377"><ele>357.0</ele><time>2026-04-04T16:05:36.581Z</time></trkpt><trkpt lat="45.1132688" lon="7.349342"><ele>357.0</ele><time>2026-04-04T16:05:37.581Z</time></trkpt><trkpt lat="45.1132784" lon="7.3496606"><ele>357.0</ele><time>2026-04-04T16:05:38.581Z</time></trkpt><trkpt lat="45.1132939" lon="7.349993"><ele>358.0</ele><time>2026-04-04T16:05:39.58Z</time></trkpt><trkpt lat="45.1133133" lon="7.3503466"><ele>359.0</ele><time>2026-04-04T16:05:40.581Z</time></trkpt><trkpt lat="45.1133258" lon="7.3507264"><ele>359.0</ele><time>2026-04-04T16:05:41.58Z</time></trkpt><trkpt lat="45.1133383" lon="7.3511376"><ele>359.0</ele><time>2026-04-04T16:05:42.58Z</time></trkpt><trkpt lat="45.11335" lon="7.3515676"><ele>358.5</ele><time>2026-04-04T16:05:43.581Z</time></trkpt><trkpt lat="45.1133617" lon="7.3520093"><ele>358.0</ele><time>2026-04-04T16:05:44.58Z</time></trkpt><trkpt lat="45.1133756" lon="7.3524506"><ele>358.0</ele><time>2026-04-04T16:05:45.581Z</time></trkpt><trkpt lat="45.1133946" lon="7.3528971"><ele>358.0</ele><time>2026-04-04T16:05:46.58Z</time></trkpt><trkpt lat="45.1134107" lon="7.3533407"><ele>357.5</ele><time>2026-04-04T16:05:47.581Z</time></trkpt><trkpt lat="45.1134287" lon="7.3537767"><ele>357.0</ele><time>2026-04-04T16:05:48.579Z</time></trkpt><trkpt lat="45.1134453" lon="7.3541939"><ele>357.0</ele><time>2026-04-04T16:05:49.579Z</time></trkpt><trkpt lat="45.1134598" lon="7.3545927"><ele>357.0</ele><time>2026-04-04T16:05:50.58Z</time></trkpt><trkpt lat="45.1134758" lon="7.3549751"><ele>357.0</ele><time>2026-04-04T16:05:51.58Z</time></trkpt><trkpt lat="45.1134908" lon="7.3553469"><ele>357.0</ele><time>2026-04-04T16:05:52.58Z</time></trkpt><trkpt lat="45.1135038" lon="7.3557089"><ele>357.5</ele><time>2026-04-04T16:05:53.579Z</time></trkpt><trkpt lat="45.1135136" lon="7.3560695"><ele>358.0</ele><time>2026-04-04T16:05:54.579Z</time></trkpt><trkpt lat="45.1135151" lon="7.3564143"><ele>357.0</ele><time>2026-04-04T16:05:55.58Z</time></trkpt><trkpt lat="45.1135008" lon="7.3567368"><ele>356.0</ele><time>2026-04-04T16:05:56.58Z</time></trkpt><trkpt lat="45.1134694" lon="7.3570573"><ele>356.0</ele><time>2026-04-04T16:05:57.58Z</time></trkpt><trkpt lat="45.1134215" lon="7.3573756"><ele>356.0</ele><time>2026-04-04T16:05:58.58Z</time></trkpt><trkpt lat="45.1133611" lon="7.3576809"><ele>356.0</ele><time>2026-04-04T16:05:59.58Z</time></trkpt><trkpt lat="45.1132973" lon="7.3579668"><ele>356.0</ele><time>2026-04-04T16:06:00.58Z</time></trkpt><trkpt lat="45.1132305" lon="7.3582341"><ele>356.0</ele><time>2026-04-04T16:06:01.58Z</time></trkpt><trkpt lat="45.113164" lon="7.3585015"><ele>356.6666666666667</ele><time>2026-04-04T16:06:02.579Z</time></trkpt><trkpt lat="45.1130994" lon="7.3587626"><ele>357.3333333333333</ele><time>2026-04-04T16:06:03.581Z</time></trkpt><trkpt lat="45.1130317" lon="7.3590238"><ele>358.0</ele><time>2026-04-04T16:06:04.58Z</time></trkpt><trkpt lat="45.1129649" lon="7.3592861"><ele>358.3333333333333</ele><time>2026-04-04T16:06:05.58Z</time></trkpt><trkpt lat="45.112901" lon="7.3595675"><ele>358.6666666666667</ele><time>2026-04-04T16:06:06.579Z</time></trkpt><trkpt lat="45.1128345" lon="7.3598753"><ele>359.0</ele><time>2026-04-04T16:06:07.58Z</time></trkpt><trkpt lat="45.1127431" lon="7.3601998"><ele>358.33333333333337</ele><time>2026-04-04T16:06:08.579Z</time></trkpt><trkpt lat="45.1126553" lon="7.3605039"><ele>357.6666666666667</ele><time>2026-04-04T16:06:09.581Z</time></trkpt><trkpt lat="45.1125809" lon="7.3607878"><ele>357.0</ele><time>2026-04-04T16:06:10.58Z</time></trkpt><trkpt lat="45.112513" lon="7.3610331"><ele>356.75</ele><time>2026-04-04T16:06:11.58Z</time></trkpt><trkpt lat="45.1124567" lon="7.3612459"><ele>356.5</ele><time>2026-04-04T16:06:12.58Z</time></trkpt><trkpt lat="45.1124144" lon="7.3614059"><ele>356.25</ele><time>2026-04-04T16:06:13.58Z</time></trkpt><trkpt lat="45.1123733" lon="7.3615348"><ele>356.0</ele><time>2026-04-04T16:06:14.581Z</time></trkpt><trkpt lat="45.1123241" lon="7.3616361"><ele>356.0</ele><time>2026-04-04T16:06:15.58Z</time></trkpt><trkpt lat="45.1122639" lon="7.3617241"><ele>356.0</ele><time>2026-04-04T16:06:16.58Z</time></trkpt><trkpt lat="45.1122107" lon="7.3617923"><ele>356.0</ele><time>2026-04-04T16:06:17.579Z</time></trkpt><trkpt lat="45.1121775" lon="7.3618924"><ele>356.0</ele><time>2026-04-04T16:06:18.581Z</time></trkpt><trkpt lat="45.1121836" lon="7.3620068"><ele>356.0</ele><time>2026-04-04T16:06:19.579Z</time></trkpt><trkpt lat="45.1121963" lon="7.3621504"><ele>356.0</ele><time>2026-04-04T16:06:20.581Z</time></trkpt><trkpt lat="45.1121791" lon="7.3623029"><ele>356.0</ele><time>2026-04-04T16:06:21.58Z</time></trkpt><trkpt lat="45.112148" lon="7.3624581"><ele>356.0</ele><time>2026-04-04T16:06:22.58Z</time></trkpt><trkpt lat="45.1121062" lon="7.3626152"><ele>356.0</ele><time>2026-04-04T16:06:23.581Z</time></trkpt><trkpt lat="45.1120617" lon="7.3627946"><ele>356.0</ele><time>2026-04-04T16:06:24.58Z</time></trkpt><trkpt lat="45.112006" lon="7.3630089"><ele>356.0</ele><time>2026-04-04T16:06:25.58Z</time></trkpt><trkpt lat="45.1119406" lon="7.3632689"><ele>356.0</ele><time>2026-04-04T16:06:26.579Z</time></trkpt><trkpt lat="45.111867" lon="7.3635676"><ele>356.0</ele><time>2026-04-04T16:06:27.58Z</time></trkpt><trkpt lat="45.1117819" lon="7.3638961"><ele>356.5</ele><time>2026-04-04T16:06:28.579Z</time></trkpt><trkpt lat="45.1116889" lon="7.3642459"><ele>357.0</ele><time>2026-04-04T16:06:29.58Z</time></trkpt><trkpt lat="45.1115875" lon="7.3646227"><ele>356.5</ele><time>2026-04-04T16:06:30.579Z</time></trkpt><trkpt lat="45.1114811" lon="7.3650171"><ele>356.0</ele><time>2026-04-04T16:06:31.58Z</time></trkpt><trkpt lat="45.1113754" lon="7.365427"><ele>355.5</ele><time>2026-04-04T16:06:32.581Z</time></trkpt><trkpt lat="45.1112653" lon="7.3658581"><ele>355.0</ele><time>2026-04-04T16:06:33.58Z</time></trkpt><trkpt lat="45.1111507" lon="7.3662946"><ele>356.5</ele><time>2026-04-04T16:06:34.581Z</time></trkpt><trkpt lat="45.1110351" lon="7.3667204"><ele>358.0</ele><time>2026-04-04T16:06:35.581Z</time></trkpt><trkpt lat="45.1109193" lon="7.3671173"><ele>358.0</ele><time>2026-04-04T16:06:36.58Z</time></trkpt><trkpt lat="45.1107806" lon="7.3675127"><ele>358.0</ele><time>2026-04-04T16:06:37.58Z</time></trkpt><trkpt lat="45.1106203" lon="7.3679005"><ele>355.5</ele><time>2026-04-04T16:06:38.581Z</time></trkpt><trkpt lat="45.1104328" lon="7.3682795"><ele>353.0</ele><time>2026-04-04T16:06:39.581Z</time></trkpt><trkpt lat="45.1102208" lon="7.3686478"><ele>354.0</ele><time>2026-04-04T16:06:40.581Z</time></trkpt><trkpt lat="45.1099882" lon="7.3689995"><ele>355.0</ele><time>2026-04-04T16:06:41.581Z</time></trkpt><trkpt lat="45.1097402" lon="7.3693334"><ele>355.0</ele><time>2026-04-04T16:06:42.58Z</time></trkpt><trkpt lat="45.1094791" lon="7.3696436"><ele>355.0</ele><time>2026-04-04T16:06:43.58Z</time></trkpt><trkpt lat="45.1092096" lon="7.3699159"><ele>358.5</ele><time>2026-04-04T16:06:44.581Z</time></trkpt><trkpt lat="45.1089425" lon="7.3701463"><ele>362.0</ele><time>2026-04-04T16:06:45.581Z</time></trkpt><trkpt lat="45.1086823" lon="7.3703332"><ele>362.0</ele><time>2026-04-04T16:06:46.579Z</time></trkpt><trkpt lat="45.1084291" lon="7.3705041"><ele>362.0</ele><time>2026-04-04T16:06:47.579Z</time></trkpt><trkpt lat="45.1081851" lon="7.3706384"><ele>362.0</ele><time>2026-04-04T16:06:48.58Z</time></trkpt><trkpt lat="45.1079484" lon="7.3707434"><ele>362.0</ele><time>2026-04-04T16:06:49.58Z</time></trkpt><trkpt lat="45.1077162" lon="7.3708225"><ele>362.0</ele><time>2026-04-04T16:06:50.58Z</time></trkpt><trkpt lat="45.1074893" lon="7.3708806"><ele>362.0</ele><time>2026-04-04T16:06:51.581Z</time></trkpt><trkpt lat="45.1072686" lon="7.3709185"><ele>360.6666666666667</ele><time>2026-04-04T16:06:52.58Z</time></trkpt><trkpt lat="45.1070589" lon="7.3709498"><ele>359.3333333333333</ele><time>2026-04-04T16:06:53.581Z</time></trkpt><trkpt lat="45.1068598" lon="7.3709748"><ele>358.0</ele><time>2026-04-04T16:06:54.579Z</time></trkpt><trkpt lat="45.1066704" lon="7.3709955"><ele>357.66666666666663</ele><time>2026-04-04T16:06:55.58Z</time></trkpt><trkpt lat="45.1064903" lon="7.3710175"><ele>357.3333333333333</ele><time>2026-04-04T16:06:56.579Z</time></trkpt><trkpt lat="45.1063197" lon="7.3710283"><ele>357.0</ele><time>2026-04-04T16:06:57.581Z</time></trkpt><trkpt lat="45.10615" lon="7.3710448"><ele>357.0</ele><time>2026-04-04T16:06:58.58Z</time></trkpt><trkpt lat="45.105974" lon="7.3710605"><ele>357.0</ele><time>2026-04-04T16:06:59.579Z</time></trkpt><trkpt lat="45.105795" lon="7.3710792"><ele>357.0</ele><time>2026-04-04T16:07:00.58Z</time></trkpt><trkpt lat="45.1056206" lon="7.371094"><ele>356.3333333333333</ele><time>2026-04-04T16:07:01.58Z</time></trkpt><trkpt lat="45.1054582" lon="7.3711141"><ele>355.66666666666663</ele><time>2026-04-04T16:07:02.58Z</time></trkpt><trkpt lat="45.1052959" lon="7.3711383"><ele>355.0</ele><time>2026-04-04T16:07:03.58Z</time></trkpt><trkpt lat="45.1051367" lon="7.3711862"><ele>355.0</ele><time>2026-04-04T16:07:04.58Z</time></trkpt><trkpt lat="45.1049878" lon="7.3712614"><ele>355.0</ele><time>2026-04-04T16:07:05.58Z</time></trkpt><trkpt lat="45.1048482" lon="7.3713637"><ele>355.0</ele><time>2026-04-04T16:07:06.58Z</time></trkpt><trkpt lat="45.1047169" lon="7.371474"><ele>354.5</ele><time>2026-04-04T16:07:07.581Z</time></trkpt><trkpt lat="45.104596" lon="7.3715895"><ele>354.0</ele><time>2026-04-04T16:07:08.58Z</time></trkpt><trkpt lat="45.1044836" lon="7.371703"><ele>353.5</ele><time>2026-04-04T16:07:09.58Z</time></trkpt><trkpt lat="45.104372" lon="7.371817"><ele>353.0</ele><time>2026-04-04T16:07:10.581Z</time></trkpt><trkpt lat="45.1042599" lon="7.3719312"><ele>353.0</ele><time>2026-04-04T16:07:11.579Z</time></trkpt><trkpt lat="45.1041518" lon="7.3720405"><ele>353.0</ele><time>2026-04-04T16:07:12.581Z</time></trkpt><trkpt lat="45.1040532" lon="7.3721451"><ele>353.0</ele><time>2026-04-04T16:07:13.581Z</time></trkpt><trkpt lat="45.1039652" lon="7.3722533"><ele>353.0</ele><time>2026-04-04T16:07:14.58Z</time></trkpt><trkpt lat="45.103893" lon="7.372361"><ele>352.59999999999997</ele><time>2026-04-04T16:07:15.581Z</time></trkpt><trkpt lat="45.1038319" lon="7.3724684"><ele>352.2</ele><time>2026-04-04T16:07:16.58Z</time></trkpt><trkpt lat="45.1037807" lon="7.3725726"><ele>351.8</ele><time>2026-04-04T16:07:17.58Z</time></trkpt><trkpt lat="45.1037297" lon="7.372681"><ele>351.4</ele><time>2026-04-04T16:07:18.58Z</time></trkpt><trkpt lat="45.1036737" lon="7.3727912"><ele>351.0</ele><time>2026-04-04T16:07:19.579Z</time></trkpt><trkpt lat="45.103608" lon="7.3728922"><ele>351.0</ele><time>2026-04-04T16:07:20.58Z</time></trkpt><trkpt lat="45.1035517" lon="7.3730033"><ele>351.0</ele><time>2026-04-04T16:07:21.581Z</time></trkpt><trkpt lat="45.1035165" lon="7.3731366"><ele>351.0</ele><time>2026-04-04T16:07:22.581Z</time></trkpt><trkpt lat="45.1034737" lon="7.3732663"><ele>351.0</ele><time>2026-04-04T16:07:23.581Z</time></trkpt><trkpt lat="45.1034267" lon="7.3733806"><ele>351.0</ele><time>2026-04-04T16:07:24.581Z</time></trkpt><trkpt lat="45.1033786" lon="7.3734957"><ele>351.0</ele><time>2026-04-04T16:07:25.581Z</time></trkpt><trkpt lat="45.103333" lon="7.3736449"><ele>351.0</ele><time>2026-04-04T16:07:26.581Z</time></trkpt><trkpt lat="45.103291" lon="7.3738092"><ele>351.0</ele><time>2026-04-04T16:07:27.58Z</time></trkpt><trkpt lat="45.1032614" lon="7.3739614"><ele>351.0</ele><time>2026-04-04T16:07:28.581Z</time></trkpt><trkpt lat="45.103213" lon="7.3740991"><ele>351.0</ele><time>2026-04-04T16:07:29.58Z</time></trkpt><trkpt lat="45.1031359" lon="7.3742154"><ele>351.0</ele><time>2026-04-04T16:07:30.58Z</time></trkpt><trkpt lat="45.1030583" lon="7.3742985"><ele>351.0</ele><time>2026-04-04T16:07:31.58Z</time></trkpt><trkpt lat="45.1030135" lon="7.3744131"><ele>351.0</ele><time>2026-04-04T16:07:32.58Z</time></trkpt><trkpt lat="45.1030083" lon="7.3745362"><ele>351.0</ele><time>2026-04-04T16:07:33.579Z</time></trkpt><trkpt lat="45.1030438" lon="7.3746601"><ele>351.25</ele><time>2026-04-04T16:07:34.581Z</time></trkpt><trkpt lat="45.1030832" lon="7.3748009"><ele>351.5</ele><time>2026-04-04T16:07:35.581Z</time></trkpt><trkpt lat="45.1031014" lon="7.3749567"><ele>351.75</ele><time>2026-04-04T16:07:36.58Z</time></trkpt><trkpt lat="45.1031085" lon="7.3751392"><ele>352.0</ele><time>2026-04-04T16:07:37.58Z</time></trkpt><trkpt lat="45.1031077" lon="7.3753534"><ele>351.66666666666663</ele><time>2026-04-04T16:07:38.58Z</time></trkpt><trkpt lat="45.1030982" lon="7.3755975"><ele>351.3333333333333</ele><time>2026-04-04T16:07:39.581Z</time></trkpt><trkpt lat="45.1030887" lon="7.3758686"><ele>351.0</ele><time>2026-04-04T16:07:40.58Z</time></trkpt><trkpt lat="45.103069" lon="7.3761488"><ele>351.0</ele><time>2026-04-04T16:07:41.579Z</time></trkpt><trkpt lat="45.1030373" lon="7.3764598"><ele>351.0</ele><time>2026-04-04T16:07:42.581Z</time></trkpt><trkpt lat="45.1030018" lon="7.3768028"><ele>351.0</ele><time>2026-04-04T16:07:43.58Z</time></trkpt><trkpt lat="45.1029615" lon="7.3771717"><ele>351.0</ele><time>2026-04-04T16:07:44.579Z</time></trkpt><trkpt lat="45.1029163" lon="7.3775703"><ele>351.0</ele><time>2026-04-04T16:07:45.58Z</time></trkpt><trkpt lat="45.1028729" lon="7.3779834"><ele>351.0</ele><time>2026-04-04T16:07:46.58Z</time></trkpt><trkpt lat="45.102828" lon="7.3784002"><ele>351.0</ele><time>2026-04-04T16:07:47.581Z</time></trkpt><trkpt lat="45.1027846" lon="7.3788063"><ele>351.0</ele><time>2026-04-04T16:07:48.58Z</time></trkpt><trkpt lat="45.1027437" lon="7.3791886"><ele>350.0</ele><time>2026-04-04T16:07:49.581Z</time></trkpt><trkpt lat="45.1027067" lon="7.3795646"><ele>349.0</ele><time>2026-04-04T16:07:50.58Z</time></trkpt><trkpt lat="45.1026668" lon="7.3799287"><ele>349.0</ele><time>2026-04-04T16:07:51.58Z</time></trkpt><trkpt lat="45.1026285" lon="7.3802942"><ele>349.0</ele><time>2026-04-04T16:07:52.58Z</time></trkpt><trkpt lat="45.1025922" lon="7.3806492"><ele>349.5</ele><time>2026-04-04T16:07:53.581Z</time></trkpt><trkpt lat="45.1025536" lon="7.3810016"><ele>350.0</ele><time>2026-04-04T16:07:54.58Z</time></trkpt><trkpt lat="45.1025208" lon="7.3813489"><ele>350.0</ele><time>2026-04-04T16:07:55.58Z</time></trkpt><trkpt lat="45.1024867" lon="7.381686"><ele>350.0</ele><time>2026-04-04T16:07:56.581Z</time></trkpt><trkpt lat="45.102449" lon="7.3820225"><ele>349.5</ele><time>2026-04-04T16:07:57.581Z</time></trkpt><trkpt lat="45.1024124" lon="7.3823513"><ele>349.0</ele><time>2026-04-04T16:07:58.581Z</time></trkpt><trkpt lat="45.1023793" lon="7.3826792"><ele>349.0</ele><time>2026-04-04T16:07:59.58Z</time></trkpt><trkpt lat="45.1023445" lon="7.3830038"><ele>349.0</ele><time>2026-04-04T16:08:00.58Z</time></trkpt><trkpt lat="45.1023079" lon="7.3833292"><ele>349.0</ele><time>2026-04-04T16:08:01.58Z</time></trkpt><trkpt lat="45.1022731" lon="7.3836576"><ele>349.0</ele><time>2026-04-04T16:08:02.58Z</time></trkpt><trkpt lat="45.1022401" lon="7.3839837"><ele>349.5</ele><time>2026-04-04T16:08:03.58Z</time></trkpt><trkpt lat="45.1022057" lon="7.3843075"><ele>350.0</ele><time>2026-04-04T16:08:04.581Z</time></trkpt><trkpt lat="45.1021708" lon="7.3846384"><ele>349.0</ele><time>2026-04-04T16:08:05.58Z</time></trkpt><trkpt lat="45.102136" lon="7.384962"><ele>348.0</ele><time>2026-04-04T16:08:06.579Z</time></trkpt><trkpt lat="45.1021026" lon="7.385285"><ele>348.5</ele><time>2026-04-04T16:08:07.58Z</time></trkpt><trkpt lat="45.1020698" lon="7.3856091"><ele>349.0</ele><time>2026-04-04T16:08:08.579Z</time></trkpt><trkpt lat="45.1020374" lon="7.3859299"><ele>349.0</ele><time>2026-04-04T16:08:09.579Z</time></trkpt><trkpt lat="45.1020039" lon="7.3862552"><ele>349.0</ele><time>2026-04-04T16:08:10.58Z</time></trkpt><trkpt lat="45.1019714" lon="7.3865782"><ele>348.5</ele><time>2026-04-04T16:08:11.579Z</time></trkpt><trkpt lat="45.1019387" lon="7.3868988"><ele>348.0</ele><time>2026-04-04T16:08:12.579Z</time></trkpt><trkpt lat="45.1019056" lon="7.3872182"><ele>348.0</ele><time>2026-04-04T16:08:13.579Z</time></trkpt><trkpt lat="45.1018684" lon="7.3875421"><ele>348.0</ele><time>2026-04-04T16:08:14.578Z</time></trkpt><trkpt lat="45.1018264" lon="7.3878612"><ele>347.6666666666667</ele><time>2026-04-04T16:08:15.579Z</time></trkpt><trkpt lat="45.1017807" lon="7.3881731"><ele>347.33333333333337</ele><time>2026-04-04T16:08:16.578Z</time></trkpt><trkpt lat="45.1017288" lon="7.388476"><ele>347.0</ele><time>2026-04-04T16:08:17.579Z</time></trkpt><trkpt lat="45.1016747" lon="7.3887676"><ele>347.0</ele><time>2026-04-04T16:08:18.58Z</time></trkpt><trkpt lat="45.1016162" lon="7.3890577"><ele>347.0</ele><time>2026-04-04T16:08:19.579Z</time></trkpt><trkpt lat="45.1015591" lon="7.3893448"><ele>347.0</ele><time>2026-04-04T16:08:20.579Z</time></trkpt><trkpt lat="45.1015013" lon="7.3896257"><ele>347.0</ele><time>2026-04-04T16:08:21.58Z</time></trkpt><trkpt lat="45.1014493" lon="7.3898956"><ele>347.0</ele><time>2026-04-04T16:08:22.579Z</time></trkpt><trkpt lat="45.1013962" lon="7.39015"><ele>347.0</ele><time>2026-04-04T16:08:23.58Z</time></trkpt><trkpt lat="45.1013486" lon="7.3903886"><ele>347.33333333333337</ele><time>2026-04-04T16:08:24.58Z</time></trkpt><trkpt lat="45.1012983" lon="7.3906205"><ele>347.6666666666667</ele><time>2026-04-04T16:08:25.579Z</time></trkpt><trkpt lat="45.1012519" lon="7.3908544"><ele>348.0</ele><time>2026-04-04T16:08:26.578Z</time></trkpt><trkpt lat="45.1012038" lon="7.3910903"><ele>348.0</ele><time>2026-04-04T16:08:27.58Z</time></trkpt><trkpt lat="45.1011556" lon="7.3913315"><ele>348.0</ele><time>2026-04-04T16:08:28.579Z</time></trkpt><trkpt lat="45.1011086" lon="7.3915726"><ele>348.0</ele><time>2026-04-04T16:08:29.579Z</time></trkpt><trkpt lat="45.101062" lon="7.391813"><ele>347.6666666666667</ele><time>2026-04-04T16:08:30.579Z</time></trkpt><trkpt lat="45.1010163" lon="7.3920419"><ele>347.33333333333337</ele><time>2026-04-04T16:08:31.579Z</time></trkpt><trkpt lat="45.1009687" lon="7.3922734"><ele>347.0</ele><time>2026-04-04T16:08:32.579Z</time></trkpt><trkpt lat="45.1009243" lon="7.392499"><ele>347.0</ele><time>2026-04-04T16:08:33.578Z</time></trkpt><trkpt lat="45.1008799" lon="7.392716"><ele>347.0</ele><time>2026-04-04T16:08:34.579Z</time></trkpt><trkpt lat="45.100838" lon="7.3929326"><ele>347.0</ele><time>2026-04-04T16:08:35.578Z</time></trkpt><trkpt lat="45.1007931" lon="7.3931509"><ele>346.6666666666667</ele><time>2026-04-04T16:08:36.579Z</time></trkpt><trkpt lat="45.1007473" lon="7.3933801"><ele>346.3333333333333</ele><time>2026-04-04T16:08:37.579Z</time></trkpt><trkpt lat="45.1007011" lon="7.393613"><ele>346.0</ele><time>2026-04-04T16:08:38.58Z</time></trkpt><trkpt lat="45.1006532" lon="7.3938511"><ele>346.0</ele><time>2026-04-04T16:08:39.579Z</time></trkpt><trkpt lat="45.1006022" lon="7.3940915"><ele>346.0</ele><time>2026-04-04T16:08:40.579Z</time></trkpt><trkpt lat="45.1005519" lon="7.394332"><ele>346.0</ele><time>2026-04-04T16:08:41.58Z</time></trkpt><trkpt lat="45.1004993" lon="7.3945673"><ele>346.0</ele><time>2026-04-04T16:08:42.578Z</time></trkpt><trkpt lat="45.1004434" lon="7.3947942"><ele>346.0</ele><time>2026-04-04T16:08:43.579Z</time></trkpt><trkpt lat="45.1003847" lon="7.3950184"><ele>346.0</ele><time>2026-04-04T16:08:44.579Z</time></trkpt><trkpt lat="45.1003201" lon="7.3952463"><ele>346.0</ele><time>2026-04-04T16:08:45.578Z</time></trkpt><trkpt lat="45.1002559" lon="7.3954674"><ele>346.0</ele><time>2026-04-04T16:08:46.58Z</time></trkpt><trkpt lat="45.1001923" lon="7.3956776"><ele>346.0</ele><time>2026-04-04T16:08:47.579Z</time></trkpt><trkpt lat="45.1001356" lon="7.3958662"><ele>346.0</ele><time>2026-04-04T16:08:48.579Z</time></trkpt><trkpt lat="45.1000832" lon="7.3960343"><ele>346.0</ele><time>2026-04-04T16:08:49.579Z</time></trkpt><trkpt lat="45.1000337" lon="7.3961894"><ele>346.0</ele><time>2026-04-04T16:08:50.579Z</time></trkpt><trkpt lat="45.0999817" lon="7.3963445"><ele>346.0</ele><time>2026-04-04T16:08:51.58Z</time></trkpt><trkpt lat="45.0999313" lon="7.3964997"><ele>346.25</ele><time>2026-04-04T16:08:52.578Z</time></trkpt><trkpt lat="45.0998819" lon="7.39666"><ele>346.5</ele><time>2026-04-04T16:08:53.579Z</time></trkpt><trkpt lat="45.0998292" lon="7.3968136"><ele>346.75</ele><time>2026-04-04T16:08:54.579Z</time></trkpt><trkpt lat="45.0997806" lon="7.3969569"><ele>347.0</ele><time>2026-04-04T16:08:55.58Z</time></trkpt><trkpt lat="45.0997333" lon="7.3970972"><ele>346.6</ele><time>2026-04-04T16:08:56.579Z</time></trkpt><trkpt lat="45.0996848" lon="7.3972371"><ele>346.20000000000005</ele><time>2026-04-04T16:08:57.579Z</time></trkpt><trkpt lat="45.0996406" lon="7.3973805"><ele>345.8</ele><time>2026-04-04T16:08:58.579Z</time></trkpt><trkpt lat="45.0995928" lon="7.3975184"><ele>345.4</ele><time>2026-04-04T16:08:59.578Z</time></trkpt><trkpt lat="45.0995445" lon="7.3976509"><ele>345.0</ele><time>2026-04-04T16:09:00.579Z</time></trkpt><trkpt lat="45.0994926" lon="7.3977788"><ele>345.0</ele><time>2026-04-04T16:09:01.579Z</time></trkpt><trkpt lat="45.0994326" lon="7.3979021"><ele>345.0</ele><time>2026-04-04T16:09:02.579Z</time></trkpt><trkpt lat="45.0993655" lon="7.3980163"><ele>345.0</ele><time>2026-04-04T16:09:03.58Z</time></trkpt><trkpt lat="45.0992872" lon="7.3981294"><ele>345.0</ele><time>2026-04-04T16:09:04.579Z</time></trkpt><trkpt lat="45.0991981" lon="7.3982415"><ele>345.0</ele><time>2026-04-04T16:09:05.579Z</time></trkpt><trkpt lat="45.099099" lon="7.3983594"><ele>344.75</ele><time>2026-04-04T16:09:06.58Z</time></trkpt><trkpt lat="45.0990082" lon="7.398508"><ele>344.5</ele><time>2026-04-04T16:09:07.579Z</time></trkpt><trkpt lat="45.0989441" lon="7.3986754"><ele>344.25</ele><time>2026-04-04T16:09:08.578Z</time></trkpt><trkpt lat="45.0989192" lon="7.3988552"><ele>344.0</ele><time>2026-04-04T16:09:09.579Z</time></trkpt><trkpt lat="45.0989213" lon="7.3990552"><ele>343.75</ele><time>2026-04-04T16:09:10.58Z</time></trkpt><trkpt lat="45.0989159" lon="7.3992629"><ele>343.5</ele><time>2026-04-04T16:09:11.579Z</time></trkpt><trkpt lat="45.0988808" lon="7.3994461"><ele>343.25</ele><time>2026-04-04T16:09:12.58Z</time></trkpt><trkpt lat="45.0988323" lon="7.3996174"><ele>343.0</ele><time>2026-04-04T16:09:13.579Z</time></trkpt><trkpt lat="45.0987649" lon="7.3997882"><ele>343.0</ele><time>2026-04-04T16:09:14.58Z</time></trkpt><trkpt lat="45.0986849" lon="7.3999528"><ele>343.0</ele><time>2026-04-04T16:09:15.578Z</time></trkpt><trkpt lat="45.0986038" lon="7.4000965"><ele>343.0</ele><time>2026-04-04T16:09:16.58Z</time></trkpt><trkpt lat="45.0985221" lon="7.4002371"><ele>343.0</ele><time>2026-04-04T16:09:17.579Z</time></trkpt><trkpt lat="45.0984382" lon="7.4003766"><ele>343.0</ele><time>2026-04-04T16:09:18.578Z</time></trkpt><trkpt lat="45.0983535" lon="7.4005154"><ele>343.0</ele><time>2026-04-04T16:09:19.579Z</time></trkpt><trkpt lat="45.0982662" lon="7.4006527"><ele>343.0</ele><time>2026-04-04T16:09:20.578Z</time></trkpt><trkpt lat="45.098178" lon="7.4007887"><ele>343.0</ele><time>2026-04-04T16:09:21.579Z</time></trkpt><trkpt lat="45.0980886" lon="7.4009246"><ele>343.0</ele><time>2026-04-04T16:09:22.579Z</time></trkpt><trkpt lat="45.0979996" lon="7.4010599"><ele>343.0</ele><time>2026-04-04T16:09:23.579Z</time></trkpt><trkpt lat="45.0979157" lon="7.4011935"><ele>343.0</ele><time>2026-04-04T16:09:24.58Z</time></trkpt><trkpt lat="45.0978277" lon="7.4013248"><ele>343.0</ele><time>2026-04-04T16:09:25.579Z</time></trkpt><trkpt lat="45.0977368" lon="7.4014569"><ele>343.0</ele><time>2026-04-04T16:09:26.58Z</time></trkpt><trkpt lat="45.0976452" lon="7.4015925"><ele>343.0</ele><time>2026-04-04T16:09:27.579Z</time></trkpt><trkpt lat="45.0975565" lon="7.4017293"><ele>343.0</ele><time>2026-04-04T16:09:28.579Z</time></trkpt><trkpt lat="45.0974644" lon="7.4018663"><ele>343.0</ele><time>2026-04-04T16:09:29.579Z</time></trkpt><trkpt lat="45.0973713" lon="7.4020067"><ele>343.0</ele><time>2026-04-04T16:09:30.58Z</time></trkpt><trkpt lat="45.0972793" lon="7.4021467"><ele>343.0</ele><time>2026-04-04T16:09:31.58Z</time></trkpt><trkpt lat="45.0971778" lon="7.4023073"><ele>343.0</ele><time>2026-04-04T16:09:32.578Z</time></trkpt><trkpt lat="45.0970632" lon="7.4024853"><ele>343.0</ele><time>2026-04-04T16:09:33.58Z</time></trkpt><trkpt lat="45.0969447" lon="7.4026609"><ele>343.0</ele><time>2026-04-04T16:09:34.578Z</time></trkpt><trkpt lat="45.096829" lon="7.4028303"><ele>343.0</ele><time>2026-04-04T16:09:35.579Z</time></trkpt><trkpt lat="45.0967182" lon="7.402991"><ele>343.0</ele><time>2026-04-04T16:09:36.58Z</time></trkpt><trkpt lat="45.0966132" lon="7.403146"><ele>343.0</ele><time>2026-04-04T16:09:37.578Z</time></trkpt><trkpt lat="45.0965142" lon="7.4032939"><ele>343.0</ele><time>2026-04-04T16:09:38.579Z</time></trkpt><trkpt lat="45.0964191" lon="7.403436"><ele>343.0</ele><time>2026-04-04T16:09:39.579Z</time></trkpt><trkpt lat="45.0963302" lon="7.4035649"><ele>342.79999999999995</ele><time>2026-04-04T16:09:40.578Z</time></trkpt><trkpt lat="45.0962502" lon="7.403688"><ele>342.6</ele><time>2026-04-04T16:09:41.58Z</time></trkpt><trkpt lat="45.0961736" lon="7.4038008"><ele>342.4</ele><time>2026-04-04T16:09:42.58Z</time></trkpt><trkpt lat="45.0961041" lon="7.4039089"><ele>342.20000000000005</ele><time>2026-04-04T16:09:43.579Z</time></trkpt><trkpt lat="45.0960474" lon="7.4040049"><ele>342.0</ele><time>2026-04-04T16:09:44.579Z</time></trkpt><trkpt lat="45.0959831" lon="7.4041264"><ele>342.0</ele><time>2026-04-04T16:09:46.579Z</time></trkpt><trkpt lat="45.0959386" lon="7.4041944"><ele>342.0</ele><time>2026-04-04T16:09:51.58Z</time></trkpt><trkpt lat="45.095838" lon="7.4042959"><ele>342.0</ele><time>2026-04-04T16:09:53.579Z</time></trkpt><trkpt lat="45.0957544" lon="7.40434"><ele>342.0</ele><time>2026-04-04T16:09:54.579Z</time></trkpt><trkpt lat="45.0956874" lon="7.4043923"><ele>342.0</ele><time>2026-04-04T16:09:55.579Z</time></trkpt><trkpt lat="45.09566" lon="7.4044821"><ele>342.0</ele><time>2026-04-04T16:09:56.579Z</time></trkpt><trkpt lat="45.0956575" lon="7.4045985"><ele>342.0</ele><time>2026-04-04T16:09:57.579Z</time></trkpt><trkpt lat="45.0956301" lon="7.4047355"><ele>342.0</ele><time>2026-04-04T16:09:58.579Z</time></trkpt><trkpt lat="45.0955767" lon="7.4049029"><ele>342.0</ele><time>2026-04-04T16:09:59.58Z</time></trkpt><trkpt lat="45.0955213" lon="7.4050891"><ele>342.0</ele><time>2026-04-04T16:10:00.58Z</time></trkpt><trkpt lat="45.0954686" lon="7.4052942"><ele>342.0</ele><time>2026-04-04T16:10:01.58Z</time></trkpt><trkpt lat="45.0954161" lon="7.4055171"><ele>342.0</ele><time>2026-04-04T16:10:02.579Z</time></trkpt><trkpt lat="45.0953705" lon="7.4057446"><ele>342.0</ele><time>2026-04-04T16:10:03.578Z</time></trkpt><trkpt lat="45.0953272" lon="7.4059816"><ele>342.0</ele><time>2026-04-04T16:10:04.579Z</time></trkpt><trkpt lat="45.0952819" lon="7.4062165"><ele>342.0</ele><time>2026-04-04T16:10:05.58Z</time></trkpt><trkpt lat="45.0952385" lon="7.4064437"><ele>342.0</ele><time>2026-04-04T16:10:06.579Z</time></trkpt><trkpt lat="45.0951961" lon="7.4066687"><ele>342.0</ele><time>2026-04-04T16:10:07.579Z</time></trkpt><trkpt lat="45.0951548" lon="7.4068887"><ele>342.0</ele><time>2026-04-04T16:10:08.579Z</time></trkpt><trkpt lat="45.0951131" lon="7.4071024"><ele>342.0</ele><time>2026-04-04T16:10:09.579Z</time></trkpt><trkpt lat="45.0950725" lon="7.4073179"><ele>342.0</ele><time>2026-04-04T16:10:10.579Z</time></trkpt><trkpt lat="45.0950326" lon="7.4075232"><ele>342.0</ele><time>2026-04-04T16:10:11.58Z</time></trkpt><trkpt lat="45.0949929" lon="7.4077249"><ele>342.0</ele><time>2026-04-04T16:10:12.579Z</time></trkpt><trkpt lat="45.0949545" lon="7.4079247"><ele>342.0</ele><time>2026-04-04T16:10:13.579Z</time></trkpt><trkpt lat="45.0949167" lon="7.4081271"><ele>342.0</ele><time>2026-04-04T16:10:14.58Z</time></trkpt><trkpt lat="45.0948782" lon="7.4083276"><ele>342.0</ele><time>2026-04-04T16:10:15.58Z</time></trkpt><trkpt lat="45.0948409" lon="7.408528"><ele>342.0</ele><time>2026-04-04T16:10:16.579Z</time></trkpt><trkpt lat="45.0948039" lon="7.4087279"><ele>342.0</ele><time>2026-04-04T16:10:17.579Z</time></trkpt><trkpt lat="45.0947715" lon="7.4089352"><ele>342.0</ele><time>2026-04-04T16:10:18.58Z</time></trkpt><trkpt lat="45.0947564" lon="7.4091488"><ele>342.0</ele><time>2026-04-04T16:10:19.579Z</time></trkpt><trkpt lat="45.0947551" lon="7.4093715"><ele>342.0</ele><time>2026-04-04T16:10:20.578Z</time></trkpt><trkpt lat="45.0947605" lon="7.4096004"><ele>341.6666666666667</ele><time>2026-04-04T16:10:21.58Z</time></trkpt><trkpt lat="45.0947698" lon="7.409835"><ele>341.33333333333337</ele><time>2026-04-04T16:10:22.579Z</time></trkpt><trkpt lat="45.0947782" lon="7.4100761"><ele>341.0</ele><time>2026-04-04T16:10:23.58Z</time></trkpt><trkpt lat="45.0947823" lon="7.4103224"><ele>341.0</ele><time>2026-04-04T16:10:24.579Z</time></trkpt><trkpt lat="45.094791" lon="7.4105774"><ele>341.0</ele><time>2026-04-04T16:10:25.579Z</time></trkpt><trkpt lat="45.0948082" lon="7.4108323"><ele>341.0</ele><time>2026-04-04T16:10:26.578Z</time></trkpt><trkpt lat="45.09483" lon="7.4110917"><ele>340.6666666666667</ele><time>2026-04-04T16:10:27.58Z</time></trkpt><trkpt lat="45.0948617" lon="7.4113556"><ele>340.3333333333333</ele><time>2026-04-04T16:10:28.578Z</time></trkpt><trkpt lat="45.0948932" lon="7.411622"><ele>340.0</ele><time>2026-04-04T16:10:29.578Z</time></trkpt><trkpt lat="45.0949276" lon="7.4118874"><ele>340.0</ele><time>2026-04-04T16:10:30.58Z</time></trkpt><trkpt lat="45.0949712" lon="7.4121561"><ele>340.0</ele><time>2026-04-04T16:10:31.58Z</time></trkpt><trkpt lat="45.0950101" lon="7.4124258"><ele>340.0</ele><time>2026-04-04T16:10:32.579Z</time></trkpt><trkpt lat="45.095047" lon="7.4126989"><ele>340.66666666666663</ele><time>2026-04-04T16:10:33.579Z</time></trkpt><trkpt lat="45.0950808" lon="7.4129755"><ele>341.3333333333333</ele><time>2026-04-04T16:10:34.579Z</time></trkpt><trkpt lat="45.0951099" lon="7.4132502"><ele>342.0</ele><time>2026-04-04T16:10:35.578Z</time></trkpt><trkpt lat="45.0951219" lon="7.4135328"><ele>342.0</ele><time>2026-04-04T16:10:36.579Z</time></trkpt><trkpt lat="45.0951219" lon="7.4138087"><ele>342.0</ele><time>2026-04-04T16:10:37.579Z</time></trkpt><trkpt lat="45.0951146" lon="7.4140962"><ele>342.0</ele><time>2026-04-04T16:10:38.579Z</time></trkpt><trkpt lat="45.0951011" lon="7.4143965"><ele>340.6666666666667</ele><time>2026-04-04T16:10:39.578Z</time></trkpt><trkpt lat="45.0950888" lon="7.4146999"><ele>339.33333333333337</ele><time>2026-04-04T16:10:40.579Z</time></trkpt><trkpt lat="45.0950797" lon="7.4149982"><ele>338.0</ele><time>2026-04-04T16:10:41.579Z</time></trkpt><trkpt lat="45.095068" lon="7.4152856"><ele>338.0</ele><time>2026-04-04T16:10:42.578Z</time></trkpt><trkpt lat="45.0950559" lon="7.4155617"><ele>338.0</ele><time>2026-04-04T16:10:43.58Z</time></trkpt><trkpt lat="45.0950455" lon="7.4158299"><ele>338.0</ele><time>2026-04-04T16:10:44.579Z</time></trkpt><trkpt lat="45.0950334" lon="7.4160855"><ele>338.0</ele><time>2026-04-04T16:10:45.579Z</time></trkpt><trkpt lat="45.0950172" lon="7.4163369"><ele>338.0</ele><time>2026-04-04T16:10:46.579Z</time></trkpt><trkpt lat="45.0950009" lon="7.416578"><ele>338.0</ele><time>2026-04-04T16:10:47.579Z</time></trkpt><trkpt lat="45.094983" lon="7.4168037"><ele>338.0</ele><time>2026-04-04T16:10:48.578Z</time></trkpt><trkpt lat="45.0949631" lon="7.4170164"><ele>338.0</ele><time>2026-04-04T16:10:49.579Z</time></trkpt><trkpt lat="45.0949373" lon="7.4172174"><ele>338.0</ele><time>2026-04-04T16:10:50.578Z</time></trkpt><trkpt lat="45.0949027" lon="7.4174049"><ele>338.0</ele><time>2026-04-04T16:10:51.58Z</time></trkpt><trkpt lat="45.0948619" lon="7.4175838"><ele>338.0</ele><time>2026-04-04T16:10:52.58Z</time></trkpt><trkpt lat="45.0948183" lon="7.4177211"><ele>338.0</ele><time>2026-04-04T16:10:53.579Z</time></trkpt><trkpt lat="45.0947611" lon="7.4178242"><ele>338.0</ele><time>2026-04-04T16:10:54.579Z</time></trkpt><trkpt lat="45.0946859" lon="7.4178998"><ele>338.0</ele><time>2026-04-04T16:10:55.579Z</time></trkpt><trkpt lat="45.0946153" lon="7.4179714"><ele>338.0</ele><time>2026-04-04T16:10:56.58Z</time></trkpt><trkpt lat="45.0945684" lon="7.4180706"><ele>337.4</ele><time>2026-04-04T16:10:57.578Z</time></trkpt><trkpt lat="45.0945441" lon="7.4181937"><ele>336.79999999999995</ele><time>2026-04-04T16:10:58.579Z</time></trkpt><trkpt lat="45.0945537" lon="7.4183245"><ele>336.2</ele><time>2026-04-04T16:10:59.579Z</time></trkpt><trkpt lat="45.0946052" lon="7.4184464"><ele>335.6</ele><time>2026-04-04T16:11:00.579Z</time></trkpt><trkpt lat="45.0946881" lon="7.4185415"><ele>335.0</ele><time>2026-04-04T16:11:01.578Z</time></trkpt><trkpt lat="45.0947809" lon="7.4186375"><ele>335.0</ele><time>2026-04-04T16:11:02.577Z</time></trkpt><trkpt lat="45.094836" lon="7.4187678"><ele>335.0</ele><time>2026-04-04T16:11:03.578Z</time></trkpt><trkpt lat="45.094861" lon="7.4189333"><ele>335.0</ele><time>2026-04-04T16:11:04.579Z</time></trkpt><trkpt lat="45.0948729" lon="7.4191399"><ele>335.0</ele><time>2026-04-04T16:11:05.578Z</time></trkpt><trkpt lat="45.0948699" lon="7.4193551"><ele>335.6666666666667</ele><time>2026-04-04T16:11:06.578Z</time></trkpt><trkpt lat="45.0948617" lon="7.4195915"><ele>336.3333333333333</ele><time>2026-04-04T16:11:07.578Z</time></trkpt><trkpt lat="45.0948538" lon="7.419844"><ele>337.0</ele><time>2026-04-04T16:11:08.579Z</time></trkpt><trkpt lat="45.0948437" lon="7.4201087"><ele>337.0</ele><time>2026-04-04T16:11:09.578Z</time></trkpt><trkpt lat="45.0948324" lon="7.4203759"><ele>337.0</ele><time>2026-04-04T16:11:10.578Z</time></trkpt><trkpt lat="45.0948184" lon="7.4206516"><ele>337.0</ele><time>2026-04-04T16:11:11.578Z</time></trkpt><trkpt lat="45.0948057" lon="7.4209285"><ele>337.0</ele><time>2026-04-04T16:11:12.578Z</time></trkpt><trkpt lat="45.0947938" lon="7.4212068"><ele>337.0</ele><time>2026-04-04T16:11:13.578Z</time></trkpt><trkpt lat="45.0947828" lon="7.4214799"><ele>337.0</ele><time>2026-04-04T16:11:14.579Z</time></trkpt><trkpt lat="45.0947702" lon="7.4217487"><ele>337.3333333333333</ele><time>2026-04-04T16:11:15.578Z</time></trkpt><trkpt lat="45.0947592" lon="7.4220151"><ele>337.6666666666667</ele><time>2026-04-04T16:11:16.578Z</time></trkpt><trkpt lat="45.0947479" lon="7.4222795"><ele>338.0</ele><time>2026-04-04T16:11:17.579Z</time></trkpt><trkpt lat="45.0947373" lon="7.4225409"><ele>338.33333333333337</ele><time>2026-04-04T16:11:18.579Z</time></trkpt><trkpt lat="45.0947267" lon="7.4228004"><ele>338.6666666666667</ele><time>2026-04-04T16:11:19.578Z</time></trkpt><trkpt lat="45.0947147" lon="7.4230521"><ele>339.0</ele><time>2026-04-04T16:11:20.578Z</time></trkpt><trkpt lat="45.0947033" lon="7.4232911"><ele>339.0</ele><time>2026-04-04T16:11:21.578Z</time></trkpt><trkpt lat="45.0946917" lon="7.4235164"><ele>339.0</ele><time>2026-04-04T16:11:22.578Z</time></trkpt><trkpt lat="45.0946817" lon="7.4237356"><ele>339.0</ele><time>2026-04-04T16:11:23.577Z</time></trkpt><trkpt lat="45.0946735" lon="7.4239458"><ele>338.75</ele><time>2026-04-04T16:11:24.579Z</time></trkpt><trkpt lat="45.0946642" lon="7.4241529"><ele>338.5</ele><time>2026-04-04T16:11:25.579Z</time></trkpt><trkpt lat="45.0946535" lon="7.4243587"><ele>338.25</ele><time>2026-04-04T16:11:26.577Z</time></trkpt><trkpt lat="45.094646" lon="7.4245614"><ele>338.0</ele><time>2026-04-04T16:11:27.578Z</time></trkpt><trkpt lat="45.0946392" lon="7.4247575"><ele>337.75</ele><time>2026-04-04T16:11:28.579Z</time></trkpt><trkpt lat="45.0946311" lon="7.4249518"><ele>337.5</ele><time>2026-04-04T16:11:29.579Z</time></trkpt><trkpt lat="45.0946207" lon="7.425148"><ele>337.25</ele><time>2026-04-04T16:11:30.579Z</time></trkpt><trkpt lat="45.0946126" lon="7.4253464"><ele>337.0</ele><time>2026-04-04T16:11:31.577Z</time></trkpt><trkpt lat="45.094604" lon="7.4255479"><ele>337.0</ele><time>2026-04-04T16:11:32.579Z</time></trkpt><trkpt lat="45.0945966" lon="7.4257529"><ele>337.0</ele><time>2026-04-04T16:11:33.578Z</time></trkpt><trkpt lat="45.0945901" lon="7.4259541"><ele>337.0</ele><time>2026-04-04T16:11:34.577Z</time></trkpt><trkpt lat="45.0945795" lon="7.4261463"><ele>337.0</ele><time>2026-04-04T16:11:35.578Z</time></trkpt><trkpt lat="45.094568" lon="7.4263354"><ele>337.25</ele><time>2026-04-04T16:11:36.578Z</time></trkpt><trkpt lat="45.094559" lon="7.4265142"><ele>337.5</ele><time>2026-04-04T16:11:37.577Z</time></trkpt><trkpt lat="45.0945529" lon="7.4266942"><ele>337.75</ele><time>2026-04-04T16:11:38.578Z</time></trkpt><trkpt lat="45.0945451" lon="7.4268861"><ele>338.0</ele><time>2026-04-04T16:11:39.578Z</time></trkpt><trkpt lat="45.0945365" lon="7.4270789"><ele>337.5</ele><time>2026-04-04T16:11:40.578Z</time></trkpt><trkpt lat="45.0945268" lon="7.4272789"><ele>337.0</ele><time>2026-04-04T16:11:41.578Z</time></trkpt><trkpt lat="45.0945169" lon="7.4274856"><ele>336.5</ele><time>2026-04-04T16:11:42.578Z</time></trkpt><trkpt lat="45.0945067" lon="7.4276937"><ele>336.0</ele><time>2026-04-04T16:11:43.578Z</time></trkpt><trkpt lat="45.094498" lon="7.4278794"><ele>335.5</ele><time>2026-04-04T16:11:44.578Z</time></trkpt><trkpt lat="45.0944925" lon="7.4280388"><ele>335.0</ele><time>2026-04-04T16:11:45.578Z</time></trkpt><trkpt lat="45.0944889" lon="7.4281903"><ele>334.5</ele><time>2026-04-04T16:11:46.578Z</time></trkpt><trkpt lat="45.0944841" lon="7.4283597"><ele>334.0</ele><time>2026-04-04T16:11:47.578Z</time></trkpt><trkpt lat="45.0944845" lon="7.4285686"><ele>334.0</ele><time>2026-04-04T16:11:48.578Z</time></trkpt><trkpt lat="45.0944742" lon="7.4288046"><ele>334.0</ele><time>2026-04-04T16:11:49.578Z</time></trkpt><trkpt lat="45.0944595" lon="7.4290564"><ele>334.0</ele><time>2026-04-04T16:11:50.578Z</time></trkpt><trkpt lat="45.0944499" lon="7.4293418"><ele>333.66666666666663</ele><time>2026-04-04T16:11:51.578Z</time></trkpt><trkpt lat="45.0944346" lon="7.4296478"><ele>333.3333333333333</ele><time>2026-04-04T16:11:52.579Z</time></trkpt><trkpt lat="45.0944149" lon="7.429951"><ele>333.0</ele><time>2026-04-04T16:11:53.579Z</time></trkpt><trkpt lat="45.0943997" lon="7.4302339"><ele>333.3333333333333</ele><time>2026-04-04T16:11:54.578Z</time></trkpt><trkpt lat="45.0943864" lon="7.4304996"><ele>333.66666666666663</ele><time>2026-04-04T16:11:55.577Z</time></trkpt><trkpt lat="45.0943726" lon="7.4307525"><ele>334.0</ele><time>2026-04-04T16:11:56.578Z</time></trkpt><trkpt lat="45.0943607" lon="7.430993"><ele>334.0</ele><time>2026-04-04T16:11:57.579Z</time></trkpt><trkpt lat="45.0943533" lon="7.4312322"><ele>334.0</ele><time>2026-04-04T16:11:58.578Z</time></trkpt><trkpt lat="45.0943457" lon="7.4314965"><ele>334.0</ele><time>2026-04-04T16:11:59.577Z</time></trkpt><trkpt lat="45.0943401" lon="7.4317875"><ele>334.0</ele><time>2026-04-04T16:12:00.579Z</time></trkpt><trkpt lat="45.0943284" lon="7.4320951"><ele>334.0</ele><time>2026-04-04T16:12:01.579Z</time></trkpt><trkpt lat="45.0943112" lon="7.4324192"><ele>334.0</ele><time>2026-04-04T16:12:02.579Z</time></trkpt><trkpt lat="45.0943001" lon="7.4327468"><ele>334.0</ele><time>2026-04-04T16:12:03.579Z</time></trkpt><trkpt lat="45.0943007" lon="7.4330574"><ele>334.0</ele><time>2026-04-04T16:12:04.579Z</time></trkpt><trkpt lat="45.0943088" lon="7.4333549"><ele>334.0</ele><time>2026-04-04T16:12:05.578Z</time></trkpt><trkpt lat="45.0943221" lon="7.4336419"><ele>334.0</ele><time>2026-04-04T16:12:06.578Z</time></trkpt><trkpt lat="45.0943407" lon="7.4339169"><ele>334.0</ele><time>2026-04-04T16:12:07.579Z</time></trkpt><trkpt lat="45.0943622" lon="7.4341768"><ele>334.0</ele><time>2026-04-04T16:12:08.578Z</time></trkpt><trkpt lat="45.0943885" lon="7.4344143"><ele>333.5</ele><time>2026-04-04T16:12:09.578Z</time></trkpt><trkpt lat="45.0944087" lon="7.4346395"><ele>333.0</ele><time>2026-04-04T16:12:10.578Z</time></trkpt><trkpt lat="45.0944085" lon="7.4348467"><ele>332.5</ele><time>2026-04-04T16:12:11.579Z</time></trkpt><trkpt lat="45.0943901" lon="7.435025"><ele>332.0</ele><time>2026-04-04T16:12:12.578Z</time></trkpt><trkpt lat="45.0943741" lon="7.4351875"><ele>332.0</ele><time>2026-04-04T16:12:13.579Z</time></trkpt><trkpt lat="45.0943974" lon="7.4353444"><ele>332.0</ele><time>2026-04-04T16:12:14.579Z</time></trkpt><trkpt lat="45.0944621" lon="7.4355027"><ele>332.0</ele><time>2026-04-04T16:12:15.577Z</time></trkpt><trkpt lat="45.0945396" lon="7.4356987"><ele>332.0</ele><time>2026-04-04T16:12:16.578Z</time></trkpt><trkpt lat="45.0945967" lon="7.4359486"><ele>332.33333333333337</ele><time>2026-04-04T16:12:17.578Z</time></trkpt><trkpt lat="45.0946464" lon="7.436209"><ele>332.6666666666667</ele><time>2026-04-04T16:12:18.578Z</time></trkpt><trkpt lat="45.0946971" lon="7.4364928"><ele>333.0</ele><time>2026-04-04T16:12:19.578Z</time></trkpt><trkpt lat="45.0947502" lon="7.4367974"><ele>333.0</ele><time>2026-04-04T16:12:20.578Z</time></trkpt><trkpt lat="45.094804" lon="7.4371203"><ele>333.0</ele><time>2026-04-04T16:12:21.579Z</time></trkpt><trkpt lat="45.0948601" lon="7.4374459"><ele>333.0</ele><time>2026-04-04T16:12:22.578Z</time></trkpt><trkpt lat="45.0949144" lon="7.4377761"><ele>333.0</ele><time>2026-04-04T16:12:23.577Z</time></trkpt><trkpt lat="45.0949702" lon="7.4381147"><ele>332.5</ele><time>2026-04-04T16:12:24.578Z</time></trkpt><trkpt lat="45.0950295" lon="7.4384585"><ele>332.0</ele><time>2026-04-04T16:12:25.577Z</time></trkpt><trkpt lat="45.0950864" lon="7.4387821"><ele>332.0</ele><time>2026-04-04T16:12:26.579Z</time></trkpt><trkpt lat="45.0951384" lon="7.4390926"><ele>332.0</ele><time>2026-04-04T16:12:27.577Z</time></trkpt><trkpt lat="45.0951852" lon="7.4393897"><ele>332.0</ele><time>2026-04-04T16:12:28.577Z</time></trkpt><trkpt lat="45.0952319" lon="7.4396751"><ele>331.5</ele><time>2026-04-04T16:12:29.578Z</time></trkpt><trkpt lat="45.0952846" lon="7.4399785"><ele>331.0</ele><time>2026-04-04T16:12:30.579Z</time></trkpt><trkpt lat="45.0953437" lon="7.4403038"><ele>330.5</ele><time>2026-04-04T16:12:31.579Z</time></trkpt><trkpt lat="45.0954036" lon="7.4406553"><ele>330.0</ele><time>2026-04-04T16:12:32.577Z</time></trkpt><trkpt lat="45.0954656" lon="7.4410196"><ele>330.0</ele><time>2026-04-04T16:12:33.578Z</time></trkpt><trkpt lat="45.0955288" lon="7.4413951"><ele>330.0</ele><time>2026-04-04T16:12:34.578Z</time></trkpt><trkpt lat="45.0955914" lon="7.4417657"><ele>330.0</ele><time>2026-04-04T16:12:35.578Z</time></trkpt><trkpt lat="45.0956562" lon="7.4421432"><ele>330.0</ele><time>2026-04-04T16:12:36.578Z</time></trkpt><trkpt lat="45.0957175" lon="7.4425339"><ele>330.0</ele><time>2026-04-04T16:12:37.578Z</time></trkpt><trkpt lat="45.0957729" lon="7.4429431"><ele>330.0</ele><time>2026-04-04T16:12:38.577Z</time></trkpt><trkpt lat="45.0958208" lon="7.4433617"><ele>330.0</ele><time>2026-04-04T16:12:39.578Z</time></trkpt><trkpt lat="45.0958564" lon="7.4437922"><ele>330.0</ele><time>2026-04-04T16:12:40.578Z</time></trkpt><trkpt lat="45.0958782" lon="7.4442403"><ele>329.5</ele><time>2026-04-04T16:12:41.578Z</time></trkpt><trkpt lat="45.0958893" lon="7.4446983"><ele>329.0</ele><time>2026-04-04T16:12:42.579Z</time></trkpt><trkpt lat="45.0958913" lon="7.4451528"><ele>329.5</ele><time>2026-04-04T16:12:43.579Z</time></trkpt><trkpt lat="45.09589" lon="7.4456098"><ele>330.0</ele><time>2026-04-04T16:12:44.578Z</time></trkpt><trkpt lat="45.095888" lon="7.4460725"><ele>330.5</ele><time>2026-04-04T16:12:45.578Z</time></trkpt><trkpt lat="45.0958872" lon="7.4465402"><ele>331.0</ele><time>2026-04-04T16:12:46.578Z</time></trkpt><trkpt lat="45.095885" lon="7.4470221"><ele>331.0</ele><time>2026-04-04T16:12:47.578Z</time></trkpt><trkpt lat="45.0958809" lon="7.4475139"><ele>331.0</ele><time>2026-04-04T16:12:48.577Z</time></trkpt><trkpt lat="45.0958795" lon="7.4480062"><ele>331.5</ele><time>2026-04-04T16:12:49.577Z</time></trkpt><trkpt lat="45.0958757" lon="7.4484787"><ele>332.0</ele><time>2026-04-04T16:12:50.578Z</time></trkpt><trkpt lat="45.0958751" lon="7.4489381"><ele>332.0</ele><time>2026-04-04T16:12:51.579Z</time></trkpt><trkpt lat="45.0958786" lon="7.4493956"><ele>332.0</ele><time>2026-04-04T16:12:52.579Z</time></trkpt><trkpt lat="45.0958891" lon="7.449828"><ele>332.0</ele><time>2026-04-04T16:12:53.578Z</time></trkpt><trkpt lat="45.0959126" lon="7.4502446"><ele>332.0</ele><time>2026-04-04T16:12:54.579Z</time></trkpt><trkpt lat="45.095941" lon="7.4506658"><ele>333.0</ele><time>2026-04-04T16:12:55.579Z</time></trkpt><trkpt lat="45.0959711" lon="7.4510934"><ele>334.0</ele><time>2026-04-04T16:12:56.579Z</time></trkpt><trkpt lat="45.095999" lon="7.4515052"><ele>334.0</ele><time>2026-04-04T16:12:57.578Z</time></trkpt><trkpt lat="45.0960249" lon="7.4518965"><ele>334.0</ele><time>2026-04-04T16:12:58.578Z</time></trkpt><trkpt lat="45.0960454" lon="7.4522962"><ele>334.0</ele><time>2026-04-04T16:12:59.577Z</time></trkpt><trkpt lat="45.0960709" lon="7.4527055"><ele>334.0</ele><time>2026-04-04T16:13:00.577Z</time></trkpt><trkpt lat="45.0961027" lon="7.4531292"><ele>333.0</ele><time>2026-04-04T16:13:01.578Z</time></trkpt><trkpt lat="45.0961517" lon="7.4535576"><ele>332.0</ele><time>2026-04-04T16:13:02.578Z</time></trkpt><trkpt lat="45.0962212" lon="7.4539841"><ele>332.0</ele><time>2026-04-04T16:13:03.579Z</time></trkpt><trkpt lat="45.096293" lon="7.454388"><ele>332.0</ele><time>2026-04-04T16:13:04.578Z</time></trkpt><trkpt lat="45.0963658" lon="7.4547594"><ele>332.0</ele><time>2026-04-04T16:13:05.579Z</time></trkpt><trkpt lat="45.0964258" lon="7.4550734"><ele>332.0</ele><time>2026-04-04T16:13:06.579Z</time></trkpt><trkpt lat="45.0964776" lon="7.4553503"><ele>332.0</ele><time>2026-04-04T16:13:07.579Z</time></trkpt><trkpt lat="45.0965312" lon="7.4556116"><ele>331.6666666666667</ele><time>2026-04-04T16:13:08.577Z</time></trkpt><trkpt lat="45.0965855" lon="7.4558635"><ele>331.3333333333333</ele><time>2026-04-04T16:13:09.578Z</time></trkpt><trkpt lat="45.0966397" lon="7.4561092"><ele>331.0</ele><time>2026-04-04T16:13:10.578Z</time></trkpt><trkpt lat="45.0966896" lon="7.456343"><ele>330.66666666666663</ele><time>2026-04-04T16:13:11.577Z</time></trkpt><trkpt lat="45.0967323" lon="7.4565691"><ele>330.3333333333333</ele><time>2026-04-04T16:13:12.577Z</time></trkpt><trkpt lat="45.096774" lon="7.4567921"><ele>330.0</ele><time>2026-04-04T16:13:13.579Z</time></trkpt><trkpt lat="45.0968108" lon="7.4570122"><ele>330.3333333333333</ele><time>2026-04-04T16:13:14.578Z</time></trkpt><trkpt lat="45.0968458" lon="7.4572397"><ele>330.66666666666663</ele><time>2026-04-04T16:13:15.578Z</time></trkpt><trkpt lat="45.0968704" lon="7.457454"><ele>331.0</ele><time>2026-04-04T16:13:16.579Z</time></trkpt><trkpt lat="45.0968909" lon="7.4576659"><ele>331.0</ele><time>2026-04-04T16:13:17.578Z</time></trkpt><trkpt lat="45.0969089" lon="7.4578729"><ele>331.0</ele><time>2026-04-04T16:13:18.579Z</time></trkpt><trkpt lat="45.0969216" lon="7.4580875"><ele>331.0</ele><time>2026-04-04T16:13:19.577Z</time></trkpt><trkpt lat="45.0969306" lon="7.4582904"><ele>331.0</ele><time>2026-04-04T16:13:20.577Z</time></trkpt><trkpt lat="45.0969338" lon="7.4584883"><ele>331.5</ele><time>2026-04-04T16:13:21.577Z</time></trkpt><trkpt lat="45.0969331" lon="7.4586932"><ele>332.0</ele><time>2026-04-04T16:13:22.578Z</time></trkpt><trkpt lat="45.0969234" lon="7.458903"><ele>332.5</ele><time>2026-04-04T16:13:23.578Z</time></trkpt><trkpt lat="45.0969065" lon="7.4591179"><ele>333.0</ele><time>2026-04-04T16:13:24.579Z</time></trkpt><trkpt lat="45.0968889" lon="7.4593304"><ele>333.6666666666667</ele><time>2026-04-04T16:13:25.579Z</time></trkpt><trkpt lat="45.0968608" lon="7.4595498"><ele>334.33333333333337</ele><time>2026-04-04T16:13:26.578Z</time></trkpt><trkpt lat="45.0968325" lon="7.4597681"><ele>335.0</ele><time>2026-04-04T16:13:27.578Z</time></trkpt><trkpt lat="45.0968042" lon="7.4599902"><ele>336.33333333333337</ele><time>2026-04-04T16:13:28.579Z</time></trkpt><trkpt lat="45.0967738" lon="7.4602086"><ele>337.6666666666667</ele><time>2026-04-04T16:13:29.578Z</time></trkpt><trkpt lat="45.096744" lon="7.4604212"><ele>339.0</ele><time>2026-04-04T16:13:30.579Z</time></trkpt><trkpt lat="45.0967114" lon="7.4606246"><ele>339.75</ele><time>2026-04-04T16:13:31.578Z</time></trkpt><trkpt lat="45.0966821" lon="7.4608199"><ele>340.5</ele><time>2026-04-04T16:13:32.577Z</time></trkpt><trkpt lat="45.0966568" lon="7.4610112"><ele>341.25</ele><time>2026-04-04T16:13:33.578Z</time></trkpt><trkpt lat="45.0966324" lon="7.4612047"><ele>342.0</ele><time>2026-04-04T16:13:34.578Z</time></trkpt><trkpt lat="45.0966033" lon="7.4613997"><ele>341.25</ele><time>2026-04-04T16:13:35.578Z</time></trkpt><trkpt lat="45.0965754" lon="7.4615918"><ele>340.5</ele><time>2026-04-04T16:13:36.578Z</time></trkpt><trkpt lat="45.0965508" lon="7.4617641"><ele>339.75</ele><time>2026-04-04T16:13:37.578Z</time></trkpt><trkpt lat="45.0965292" lon="7.4619224"><ele>339.0</ele><time>2026-04-04T16:13:38.578Z</time></trkpt><trkpt lat="45.0965099" lon="7.4620717"><ele>339.6</ele><time>2026-04-04T16:13:39.578Z</time></trkpt><trkpt lat="45.0964932" lon="7.4622099"><ele>340.2</ele><time>2026-04-04T16:13:40.579Z</time></trkpt><trkpt lat="45.0964748" lon="7.4623433"><ele>340.8</ele><time>2026-04-04T16:13:41.578Z</time></trkpt><trkpt lat="45.0964552" lon="7.4624866"><ele>341.40000000000003</ele><time>2026-04-04T16:13:42.577Z</time></trkpt><trkpt lat="45.0964345" lon="7.4626393"><ele>342.0</ele><time>2026-04-04T16:13:43.578Z</time></trkpt><trkpt lat="45.0964146" lon="7.4628083"><ele>342.0</ele><time>2026-04-04T16:13:44.578Z</time></trkpt><trkpt lat="45.0963972" lon="7.462993"><ele>342.0</ele><time>2026-04-04T16:13:45.579Z</time></trkpt><trkpt lat="45.0963871" lon="7.4631823"><ele>342.0</ele><time>2026-04-04T16:13:46.577Z</time></trkpt><trkpt lat="45.0963871" lon="7.4633793"><ele>342.0</ele><time>2026-04-04T16:13:47.578Z</time></trkpt><trkpt lat="45.0963939" lon="7.4635709"><ele>342.0</ele><time>2026-04-04T16:13:48.578Z</time></trkpt><trkpt lat="45.0964014" lon="7.4637623"><ele>342.0</ele><time>2026-04-04T16:13:49.578Z</time></trkpt><trkpt lat="45.0964157" lon="7.4639466"><ele>342.0</ele><time>2026-04-04T16:13:50.578Z</time></trkpt><trkpt lat="45.0964388" lon="7.4641303"><ele>342.0</ele><time>2026-04-04T16:13:51.578Z</time></trkpt><trkpt lat="45.0964661" lon="7.4643149"><ele>342.3333333333333</ele><time>2026-04-04T16:13:52.578Z</time></trkpt><trkpt lat="45.0965022" lon="7.4645037"><ele>342.66666666666663</ele><time>2026-04-04T16:13:53.578Z</time></trkpt><trkpt lat="45.0965521" lon="7.4646994"><ele>343.0</ele><time>2026-04-04T16:13:54.577Z</time></trkpt><trkpt lat="45.096615" lon="7.4649188"><ele>343.0</ele><time>2026-04-04T16:13:55.577Z</time></trkpt><trkpt lat="45.0966769" lon="7.4651109"><ele>343.0</ele><time>2026-04-04T16:13:56.578Z</time></trkpt><trkpt lat="45.096734" lon="7.4652677"><ele>343.0</ele><time>2026-04-04T16:13:57.577Z</time></trkpt><trkpt lat="45.0967895" lon="7.4654017"><ele>343.0</ele><time>2026-04-04T16:13:58.578Z</time></trkpt><trkpt lat="45.0968459" lon="7.465528"><ele>342.59999999999997</ele><time>2026-04-04T16:13:59.578Z</time></trkpt><trkpt lat="45.0969043" lon="7.4656564"><ele>342.2</ele><time>2026-04-04T16:14:00.579Z</time></trkpt><trkpt lat="45.0969667" lon="7.4657726"><ele>341.8</ele><time>2026-04-04T16:14:01.578Z</time></trkpt><trkpt lat="45.0970275" lon="7.4658976"><ele>341.4</ele><time>2026-04-04T16:14:02.578Z</time></trkpt><trkpt lat="45.0970912" lon="7.4660249"><ele>341.0</ele><time>2026-04-04T16:14:03.579Z</time></trkpt><trkpt lat="45.0971599" lon="7.4661632"><ele>340.75</ele><time>2026-04-04T16:14:04.578Z</time></trkpt><trkpt lat="45.0972296" lon="7.4663009"><ele>340.5</ele><time>2026-04-04T16:14:05.578Z</time></trkpt><trkpt lat="45.0972985" lon="7.4664354"><ele>340.25</ele><time>2026-04-04T16:14:06.577Z</time></trkpt><trkpt lat="45.0973653" lon="7.4665642"><ele>340.0</ele><time>2026-04-04T16:14:07.577Z</time></trkpt><trkpt lat="45.0974411" lon="7.4667041"><ele>340.0</ele><time>2026-04-04T16:14:08.577Z</time></trkpt><trkpt lat="45.0975259" lon="7.4668574"><ele>340.0</ele><time>2026-04-04T16:14:09.578Z</time></trkpt><trkpt lat="45.0976274" lon="7.4670383"><ele>340.0</ele><time>2026-04-04T16:14:10.578Z</time></trkpt><trkpt lat="45.0977439" lon="7.4672584"><ele>340.3333333333333</ele><time>2026-04-04T16:14:11.577Z</time></trkpt><trkpt lat="45.097864" lon="7.4675046"><ele>340.6666666666667</ele><time>2026-04-04T16:14:12.577Z</time></trkpt><trkpt lat="45.097989" lon="7.4677588"><ele>341.0</ele><time>2026-04-04T16:14:13.577Z</time></trkpt><trkpt lat="45.0981298" lon="7.4680186"><ele>340.5</ele><time>2026-04-04T16:14:14.578Z</time></trkpt><trkpt lat="45.0982727" lon="7.4682712"><ele>340.0</ele><time>2026-04-04T16:14:15.577Z</time></trkpt><trkpt lat="45.0984183" lon="7.4685284"><ele>339.5</ele><time>2026-04-04T16:14:16.576Z</time></trkpt><trkpt lat="45.0985638" lon="7.468784"><ele>339.0</ele><time>2026-04-04T16:14:17.577Z</time></trkpt><trkpt lat="45.0987079" lon="7.4690315"><ele>339.0</ele><time>2026-04-04T16:14:18.577Z</time></trkpt><trkpt lat="45.0988568" lon="7.4692791"><ele>339.0</ele><time>2026-04-04T16:14:19.576Z</time></trkpt><trkpt lat="45.0990095" lon="7.4695247"><ele>338.5</ele><time>2026-04-04T16:14:20.577Z</time></trkpt><trkpt lat="45.0991619" lon="7.4697632"><ele>338.0</ele><time>2026-04-04T16:14:21.577Z</time></trkpt><trkpt lat="45.0993247" lon="7.4700098"><ele>338.0</ele><time>2026-04-04T16:14:22.578Z</time></trkpt><trkpt lat="45.0994927" lon="7.4702695"><ele>338.0</ele><time>2026-04-04T16:14:23.577Z</time></trkpt><trkpt lat="45.0996718" lon="7.47054"><ele>337.5</ele><time>2026-04-04T16:14:24.574Z</time></trkpt><trkpt lat="45.0998554" lon="7.4708224"><ele>337.0</ele><time>2026-04-04T16:14:25.577Z</time></trkpt><trkpt lat="45.10003" lon="7.4710905"><ele>336.5</ele><time>2026-04-04T16:14:26.578Z</time></trkpt><trkpt lat="45.1001935" lon="7.471345"><ele>336.0</ele><time>2026-04-04T16:14:27.578Z</time></trkpt><trkpt lat="45.100356" lon="7.471595"><ele>336.0</ele><time>2026-04-04T16:14:28.577Z</time></trkpt><trkpt lat="45.1005191" lon="7.4718466"><ele>336.0</ele><time>2026-04-04T16:14:29.576Z</time></trkpt><trkpt lat="45.1006882" lon="7.4721082"><ele>338.0</ele><time>2026-04-04T16:14:30.577Z</time></trkpt><trkpt lat="45.1008514" lon="7.4723636"><ele>340.0</ele><time>2026-04-04T16:14:31.578Z</time></trkpt><trkpt lat="45.101008" lon="7.4726036"><ele>340.0</ele><time>2026-04-04T16:14:32.578Z</time></trkpt><trkpt lat="45.1011609" lon="7.4728313"><ele>340.0</ele><time>2026-04-04T16:14:33.577Z</time></trkpt><trkpt lat="45.1013242" lon="7.4730487"><ele>340.0</ele><time>2026-04-04T16:14:34.576Z</time></trkpt><trkpt lat="45.1015039" lon="7.4732404"><ele>341.0</ele><time>2026-04-04T16:14:35.577Z</time></trkpt><trkpt lat="45.1016974" lon="7.4734038"><ele>342.0</ele><time>2026-04-04T16:14:36.577Z</time></trkpt><trkpt lat="45.1019001" lon="7.4735356"><ele>343.0</ele><time>2026-04-04T16:14:37.576Z</time></trkpt><trkpt lat="45.1020978" lon="7.4736444"><ele>343.0</ele><time>2026-04-04T16:14:38.577Z</time></trkpt><trkpt lat="45.1022799" lon="7.4737379"><ele>343.0</ele><time>2026-04-04T16:14:39.578Z</time></trkpt><trkpt lat="45.1024504" lon="7.4738186"><ele>343.0</ele><time>2026-04-04T16:14:40.577Z</time></trkpt><trkpt lat="45.1026033" lon="7.4738957"><ele>343.3333333333333</ele><time>2026-04-04T16:14:41.577Z</time></trkpt><trkpt lat="45.1027437" lon="7.4739802"><ele>343.6666666666667</ele><time>2026-04-04T16:14:42.577Z</time></trkpt><trkpt lat="45.1028733" lon="7.4740895"><ele>344.0</ele><time>2026-04-04T16:14:43.577Z</time></trkpt><trkpt lat="45.1030058" lon="7.4742346"><ele>344.0</ele><time>2026-04-04T16:14:44.577Z</time></trkpt><trkpt lat="45.1031429" lon="7.4744197"><ele>344.0</ele><time>2026-04-04T16:14:45.577Z</time></trkpt><trkpt lat="45.103276" lon="7.4746422"><ele>344.0</ele><time>2026-04-04T16:14:46.577Z</time></trkpt><trkpt lat="45.1033922" lon="7.4749028"><ele>343.5</ele><time>2026-04-04T16:14:47.577Z</time></trkpt><trkpt lat="45.1035041" lon="7.475178"><ele>343.0</ele><time>2026-04-04T16:14:48.577Z</time></trkpt><trkpt lat="45.1036142" lon="7.4754621"><ele>342.0</ele><time>2026-04-04T16:14:49.577Z</time></trkpt><trkpt lat="45.1037264" lon="7.475746"><ele>341.0</ele><time>2026-04-04T16:14:50.576Z</time></trkpt><trkpt lat="45.1038369" lon="7.4760335"><ele>339.5</ele><time>2026-04-04T16:14:51.577Z</time></trkpt><trkpt lat="45.103954" lon="7.4763272"><ele>338.0</ele><time>2026-04-04T16:14:52.578Z</time></trkpt><trkpt lat="45.1040732" lon="7.4766223"><ele>339.0</ele><time>2026-04-04T16:14:53.577Z</time></trkpt><trkpt lat="45.1041943" lon="7.4769255"><ele>340.0</ele><time>2026-04-04T16:14:54.577Z</time></trkpt><trkpt lat="45.104315" lon="7.4772337"><ele>340.0</ele><time>2026-04-04T16:14:55.578Z</time></trkpt><trkpt lat="45.1044283" lon="7.4775484"><ele>340.0</ele><time>2026-04-04T16:14:56.578Z</time></trkpt><trkpt lat="45.1045235" lon="7.4778577"><ele>339.0</ele><time>2026-04-04T16:14:57.577Z</time></trkpt><trkpt lat="45.1046024" lon="7.4781614"><ele>338.0</ele><time>2026-04-04T16:14:58.577Z</time></trkpt><trkpt lat="45.1046659" lon="7.4784615"><ele>337.0</ele><time>2026-04-04T16:14:59.577Z</time></trkpt><trkpt lat="45.1047169" lon="7.4787721"><ele>336.0</ele><time>2026-04-04T16:15:00.578Z</time></trkpt><trkpt lat="45.1047522" lon="7.4790896"><ele>336.0</ele><time>2026-04-04T16:15:01.577Z</time></trkpt><trkpt lat="45.1047763" lon="7.4794214"><ele>336.0</ele><time>2026-04-04T16:15:02.578Z</time></trkpt><trkpt lat="45.1047898" lon="7.4797628"><ele>336.0</ele><time>2026-04-04T16:15:03.578Z</time></trkpt><trkpt lat="45.1047981" lon="7.4801125"><ele>336.0</ele><time>2026-04-04T16:15:04.577Z</time></trkpt><trkpt lat="45.1048048" lon="7.4804642"><ele>335.5</ele><time>2026-04-04T16:15:05.577Z</time></trkpt><trkpt lat="45.1048125" lon="7.4807954"><ele>335.0</ele><time>2026-04-04T16:15:06.577Z</time></trkpt><trkpt lat="45.1048176" lon="7.4811122"><ele>335.0</ele><time>2026-04-04T16:15:07.577Z</time></trkpt><trkpt lat="45.1048239" lon="7.4814126"><ele>335.0</ele><time>2026-04-04T16:15:08.578Z</time></trkpt><trkpt lat="45.1048291" lon="7.4816837"><ele>335.0</ele><time>2026-04-04T16:15:09.577Z</time></trkpt><trkpt lat="45.1048355" lon="7.4819286"><ele>335.0</ele><time>2026-04-04T16:15:10.578Z</time></trkpt><trkpt lat="45.1048391" lon="7.4821681"><ele>335.0</ele><time>2026-04-04T16:15:11.576Z</time></trkpt><trkpt lat="45.1048447" lon="7.4824152"><ele>335.0</ele><time>2026-04-04T16:15:12.577Z</time></trkpt><trkpt lat="45.1048496" lon="7.4826809"><ele>335.33333333333337</ele><time>2026-04-04T16:15:13.577Z</time></trkpt><trkpt lat="45.1048562" lon="7.4829672"><ele>335.6666666666667</ele><time>2026-04-04T16:15:14.577Z</time></trkpt><trkpt lat="45.1048629" lon="7.483272"><ele>336.0</ele><time>2026-04-04T16:15:15.577Z</time></trkpt><trkpt lat="45.1048697" lon="7.483589"><ele>336.0</ele><time>2026-04-04T16:15:16.577Z</time></trkpt><trkpt lat="45.1048802" lon="7.4839038"><ele>336.0</ele><time>2026-04-04T16:15:17.577Z</time></trkpt><trkpt lat="45.1048891" lon="7.4842197"><ele>336.0</ele><time>2026-04-04T16:15:18.576Z</time></trkpt><trkpt lat="45.1049116" lon="7.4845386"><ele>338.6666666666667</ele><time>2026-04-04T16:15:19.577Z</time></trkpt><trkpt lat="45.1049519" lon="7.4848519"><ele>341.33333333333337</ele><time>2026-04-04T16:15:20.577Z</time></trkpt><trkpt lat="45.1050136" lon="7.4851577"><ele>344.0</ele><time>2026-04-04T16:15:21.578Z</time></trkpt><trkpt lat="45.1050856" lon="7.4854598"><ele>344.0</ele><time>2026-04-04T16:15:22.577Z</time></trkpt><trkpt lat="45.1051564" lon="7.4857596"><ele>344.0</ele><time>2026-04-04T16:15:23.576Z</time></trkpt><trkpt lat="45.1052295" lon="7.4860579"><ele>344.0</ele><time>2026-04-04T16:15:24.577Z</time></trkpt><trkpt lat="45.1053034" lon="7.4863557"><ele>342.6666666666667</ele><time>2026-04-04T16:15:25.577Z</time></trkpt><trkpt lat="45.1053746" lon="7.4866479"><ele>341.3333333333333</ele><time>2026-04-04T16:15:26.577Z</time></trkpt><trkpt lat="45.1054513" lon="7.4869376"><ele>340.0</ele><time>2026-04-04T16:15:27.576Z</time></trkpt><trkpt lat="45.105522" lon="7.4872188"><ele>339.3333333333333</ele><time>2026-04-04T16:15:28.578Z</time></trkpt><trkpt lat="45.1055882" lon="7.4874808"><ele>338.6666666666667</ele><time>2026-04-04T16:15:29.578Z</time></trkpt><trkpt lat="45.1056525" lon="7.4877411"><ele>338.0</ele><time>2026-04-04T16:15:30.576Z</time></trkpt><trkpt lat="45.1057216" lon="7.4880098"><ele>341.33333333333337</ele><time>2026-04-04T16:15:31.577Z</time></trkpt><trkpt lat="45.1057988" lon="7.4882927"><ele>344.6666666666667</ele><time>2026-04-04T16:15:32.576Z</time></trkpt><trkpt lat="45.1058718" lon="7.488593"><ele>348.0</ele><time>2026-04-04T16:15:33.577Z</time></trkpt><trkpt lat="45.1059322" lon="7.4889063"><ele>348.0</ele><time>2026-04-04T16:15:34.576Z</time></trkpt><trkpt lat="45.1059855" lon="7.4892295"><ele>348.0</ele><time>2026-04-04T16:15:35.577Z</time></trkpt><trkpt lat="45.1060342" lon="7.4895594"><ele>348.5</ele><time>2026-04-04T16:15:36.577Z</time></trkpt><trkpt lat="45.106087" lon="7.4898938"><ele>349.0</ele><time>2026-04-04T16:15:37.577Z</time></trkpt><trkpt lat="45.106136" lon="7.4902325"><ele>349.5</ele><time>2026-04-04T16:15:38.576Z</time></trkpt><trkpt lat="45.1061865" lon="7.4905567"><ele>350.0</ele><time>2026-04-04T16:15:39.577Z</time></trkpt><trkpt lat="45.1062359" lon="7.4908633"><ele>350.0</ele><time>2026-04-04T16:15:40.577Z</time></trkpt><trkpt lat="45.1062877" lon="7.4911636"><ele>350.0</ele><time>2026-04-04T16:15:41.577Z</time></trkpt><trkpt lat="45.1063398" lon="7.4914555"><ele>350.0</ele><time>2026-04-04T16:15:42.577Z</time></trkpt><trkpt lat="45.106393" lon="7.4917424"><ele>350.6666666666667</ele><time>2026-04-04T16:15:43.577Z</time></trkpt><trkpt lat="45.1064513" lon="7.4920236"><ele>351.3333333333333</ele><time>2026-04-04T16:15:44.577Z</time></trkpt><trkpt lat="45.1065191" lon="7.492296"><ele>352.0</ele><time>2026-04-04T16:15:45.576Z</time></trkpt><trkpt lat="45.1065932" lon="7.4925666"><ele>354.3333333333333</ele><time>2026-04-04T16:15:46.578Z</time></trkpt><trkpt lat="45.1066709" lon="7.4928347"><ele>356.6666666666667</ele><time>2026-04-04T16:15:47.576Z</time></trkpt><trkpt lat="45.106748" lon="7.4930869"><ele>359.0</ele><time>2026-04-04T16:15:48.577Z</time></trkpt><trkpt lat="45.1068268" lon="7.4933299"><ele>359.0</ele><time>2026-04-04T16:15:49.578Z</time></trkpt><trkpt lat="45.1069008" lon="7.4935502"><ele>359.0</ele><time>2026-04-04T16:15:50.577Z</time></trkpt><trkpt lat="45.1069647" lon="7.493757"><ele>359.0</ele><time>2026-04-04T16:15:51.577Z</time></trkpt><trkpt lat="45.107013" lon="7.4939458"><ele>358.75</ele><time>2026-04-04T16:15:52.578Z</time></trkpt><trkpt lat="45.1070629" lon="7.4941266"><ele>358.5</ele><time>2026-04-04T16:15:53.577Z</time></trkpt><trkpt lat="45.1071283" lon="7.4943051"><ele>358.25</ele><time>2026-04-04T16:15:54.576Z</time></trkpt><trkpt lat="45.1072127" lon="7.4944717"><ele>358.0</ele><time>2026-04-04T16:15:55.577Z</time></trkpt><trkpt lat="45.1072946" lon="7.4946503"><ele>358.0</ele><time>2026-04-04T16:15:56.578Z</time></trkpt><trkpt lat="45.1073642" lon="7.4948435"><ele>358.0</ele><time>2026-04-04T16:15:57.577Z</time></trkpt><trkpt lat="45.1074337" lon="7.4950485"><ele>358.0</ele><time>2026-04-04T16:15:58.577Z</time></trkpt><trkpt lat="45.1075042" lon="7.4952632"><ele>358.0</ele><time>2026-04-04T16:15:59.577Z</time></trkpt><trkpt lat="45.1075672" lon="7.4954864"><ele>358.0</ele><time>2026-04-04T16:16:00.578Z</time></trkpt><trkpt lat="45.1076226" lon="7.4957173"><ele>358.0</ele><time>2026-04-04T16:16:01.576Z</time></trkpt><trkpt lat="45.1076637" lon="7.495964"><ele>358.0</ele><time>2026-04-04T16:16:02.578Z</time></trkpt><trkpt lat="45.1076925" lon="7.4962213"><ele>358.0</ele><time>2026-04-04T16:16:03.577Z</time></trkpt><trkpt lat="45.1077033" lon="7.4964865"><ele>358.0</ele><time>2026-04-04T16:16:04.576Z</time></trkpt><trkpt lat="45.1076906" lon="7.4967584"><ele>357.66666666666663</ele><time>2026-04-04T16:16:05.577Z</time></trkpt><trkpt lat="45.1076576" lon="7.4970236"><ele>357.3333333333333</ele><time>2026-04-04T16:16:06.577Z</time></trkpt><trkpt lat="45.1076108" lon="7.4972792"><ele>357.0</ele><time>2026-04-04T16:16:07.576Z</time></trkpt><trkpt lat="45.1075657" lon="7.4975294"><ele>356.3333333333333</ele><time>2026-04-04T16:16:08.577Z</time></trkpt><trkpt lat="45.1075248" lon="7.4977678"><ele>355.66666666666663</ele><time>2026-04-04T16:16:09.577Z</time></trkpt><trkpt lat="45.1074834" lon="7.4979997"><ele>355.0</ele><time>2026-04-04T16:16:10.577Z</time></trkpt><trkpt lat="45.107439" lon="7.4982263"><ele>356.0</ele><time>2026-04-04T16:16:11.577Z</time></trkpt><trkpt lat="45.1073962" lon="7.4984459"><ele>357.0</ele><time>2026-04-04T16:16:12.577Z</time></trkpt><trkpt lat="45.1073555" lon="7.4986609"><ele>358.0</ele><time>2026-04-04T16:16:13.577Z</time></trkpt><trkpt lat="45.1073159" lon="7.4988761"><ele>358.0</ele><time>2026-04-04T16:16:14.577Z</time></trkpt><trkpt lat="45.1072772" lon="7.4991016"><ele>358.0</ele><time>2026-04-04T16:16:15.577Z</time></trkpt><trkpt lat="45.1072334" lon="7.4993524"><ele>358.0</ele><time>2026-04-04T16:16:16.577Z</time></trkpt><trkpt lat="45.1071808" lon="7.49962"><ele>356.3333333333333</ele><time>2026-04-04T16:16:17.577Z</time></trkpt><trkpt lat="45.1071289" lon="7.4998709"><ele>354.6666666666667</ele><time>2026-04-04T16:16:18.578Z</time></trkpt><trkpt lat="45.1070825" lon="7.5001061"><ele>353.0</ele><time>2026-04-04T16:16:19.577Z</time></trkpt><trkpt lat="45.1070322" lon="7.5003273"><ele>352.75</ele><time>2026-04-04T16:16:20.577Z</time></trkpt><trkpt lat="45.1069782" lon="7.5005303"><ele>352.5</ele><time>2026-04-04T16:16:21.577Z</time></trkpt><trkpt lat="45.1069211" lon="7.500714"><ele>352.25</ele><time>2026-04-04T16:16:22.577Z</time></trkpt><trkpt lat="45.1068637" lon="7.5008775"><ele>352.0</ele><time>2026-04-04T16:16:23.577Z</time></trkpt><trkpt lat="45.1068081" lon="7.5010132"><ele>352.0</ele><time>2026-04-04T16:16:24.578Z</time></trkpt><trkpt lat="45.1067432" lon="7.501112"><ele>352.0</ele><time>2026-04-04T16:16:25.576Z</time></trkpt><trkpt lat="45.106663" lon="7.5011725"><ele>352.0</ele><time>2026-04-04T16:16:26.577Z</time></trkpt><trkpt lat="45.1065628" lon="7.5012145"><ele>352.0</ele><time>2026-04-04T16:16:27.576Z</time></trkpt><trkpt lat="45.1064621" lon="7.5012861"><ele>352.0</ele><time>2026-04-04T16:16:28.577Z</time></trkpt><trkpt lat="45.106386" lon="7.5014134"><ele>351.25</ele><time>2026-04-04T16:16:29.577Z</time></trkpt><trkpt lat="45.1063082" lon="7.5015729"><ele>350.5</ele><time>2026-04-04T16:16:30.578Z</time></trkpt><trkpt lat="45.1062192" lon="7.501737"><ele>349.75</ele><time>2026-04-04T16:16:31.577Z</time></trkpt><trkpt lat="45.1061372" lon="7.5018845"><ele>349.0</ele><time>2026-04-04T16:16:32.577Z</time></trkpt><trkpt lat="45.1060635" lon="7.5020305"><ele>349.2</ele><time>2026-04-04T16:16:33.578Z</time></trkpt><trkpt lat="45.1060058" lon="7.5021675"><ele>349.4</ele><time>2026-04-04T16:16:34.577Z</time></trkpt><trkpt lat="45.1059781" lon="7.5023061"><ele>349.6</ele><time>2026-04-04T16:16:35.578Z</time></trkpt><trkpt lat="45.105991" lon="7.5024364"><ele>349.8</ele><time>2026-04-04T16:16:36.577Z</time></trkpt><trkpt lat="45.1060375" lon="7.5025252"><ele>350.0</ele><time>2026-04-04T16:16:37.577Z</time></trkpt><trkpt lat="45.1061081" lon="7.5025779"><ele>350.0</ele><time>2026-04-04T16:16:38.578Z</time></trkpt><trkpt lat="45.1061959" lon="7.5025923"><ele>350.0</ele><time>2026-04-04T16:16:39.577Z</time></trkpt><trkpt lat="45.1062952" lon="7.5025701"><ele>350.0</ele><time>2026-04-04T16:16:40.578Z</time></trkpt><trkpt lat="45.1064052" lon="7.5025382"><ele>350.0</ele><time>2026-04-04T16:16:41.577Z</time></trkpt><trkpt lat="45.1065231" lon="7.5025598"><ele>350.0</ele><time>2026-04-04T16:16:42.578Z</time></trkpt><trkpt lat="45.1066253" lon="7.5026304"><ele>349.6666666666667</ele><time>2026-04-04T16:16:43.577Z</time></trkpt><trkpt lat="45.1067185" lon="7.50276"><ele>349.3333333333333</ele><time>2026-04-04T16:16:44.578Z</time></trkpt><trkpt lat="45.1068172" lon="7.5029339"><ele>349.0</ele><time>2026-04-04T16:16:45.577Z</time></trkpt><trkpt lat="45.1069233" lon="7.5031162"><ele>349.66666666666663</ele><time>2026-04-04T16:16:46.577Z</time></trkpt><trkpt lat="45.1070315" lon="7.5032898"><ele>350.3333333333333</ele><time>2026-04-04T16:16:47.577Z</time></trkpt><trkpt lat="45.1071363" lon="7.5034526"><ele>351.0</ele><time>2026-04-04T16:16:48.578Z</time></trkpt><trkpt lat="45.1072416" lon="7.5036168"><ele>350.6666666666667</ele><time>2026-04-04T16:16:49.577Z</time></trkpt><trkpt lat="45.1073532" lon="7.5037771"><ele>350.33333333333337</ele><time>2026-04-04T16:16:50.577Z</time></trkpt><trkpt lat="45.1074639" lon="7.5039471"><ele>350.0</ele><time>2026-04-04T16:16:51.576Z</time></trkpt><trkpt lat="45.1075848" lon="7.5041218"><ele>349.6666666666667</ele><time>2026-04-04T16:16:52.577Z</time></trkpt><trkpt lat="45.1077156" lon="7.5043036"><ele>349.3333333333333</ele><time>2026-04-04T16:16:53.578Z</time></trkpt><trkpt lat="45.1078632" lon="7.5045044"><ele>349.0</ele><time>2026-04-04T16:16:54.577Z</time></trkpt><trkpt lat="45.1080141" lon="7.5047208"><ele>349.0</ele><time>2026-04-04T16:16:55.578Z</time></trkpt><trkpt lat="45.108172" lon="7.5049507"><ele>349.0</ele><time>2026-04-04T16:16:56.577Z</time></trkpt><trkpt lat="45.1083353" lon="7.50519"><ele>349.0</ele><time>2026-04-04T16:16:57.577Z</time></trkpt><trkpt lat="45.108503" lon="7.5054434"><ele>349.0</ele><time>2026-04-04T16:16:58.577Z</time></trkpt><trkpt lat="45.1086792" lon="7.5057059"><ele>349.0</ele><time>2026-04-04T16:16:59.577Z</time></trkpt><trkpt lat="45.1088616" lon="7.5059722"><ele>349.0</ele><time>2026-04-04T16:17:00.577Z</time></trkpt><trkpt lat="45.1090423" lon="7.5062343"><ele>350.5</ele><time>2026-04-04T16:17:01.576Z</time></trkpt><trkpt lat="45.1092229" lon="7.5064924"><ele>352.0</ele><time>2026-04-04T16:17:02.578Z</time></trkpt><trkpt lat="45.1093937" lon="7.5067332"><ele>352.0</ele><time>2026-04-04T16:17:03.577Z</time></trkpt><trkpt lat="45.109556" lon="7.5069639"><ele>352.0</ele><time>2026-04-04T16:17:04.577Z</time></trkpt><trkpt lat="45.1097092" lon="7.5071804"><ele>352.0</ele><time>2026-04-04T16:17:05.577Z</time></trkpt><trkpt lat="45.1098546" lon="7.5073855"><ele>350.3333333333333</ele><time>2026-04-04T16:17:06.578Z</time></trkpt><trkpt lat="45.1099954" lon="7.5075858"><ele>348.6666666666667</ele><time>2026-04-04T16:17:07.577Z</time></trkpt><trkpt lat="45.1101269" lon="7.507773"><ele>347.0</ele><time>2026-04-04T16:17:08.577Z</time></trkpt><trkpt lat="45.1102539" lon="7.5079521"><ele>346.6666666666667</ele><time>2026-04-04T16:17:09.577Z</time></trkpt><trkpt lat="45.1103751" lon="7.5081239"><ele>346.3333333333333</ele><time>2026-04-04T16:17:10.578Z</time></trkpt><trkpt lat="45.1104898" lon="7.5082857"><ele>346.0</ele><time>2026-04-04T16:17:11.577Z</time></trkpt><trkpt lat="45.1105955" lon="7.5084375"><ele>346.0</ele><time>2026-04-04T16:17:12.577Z</time></trkpt><trkpt lat="45.110694" lon="7.5085738"><ele>346.0</ele><time>2026-04-04T16:17:13.577Z</time></trkpt><trkpt lat="45.1107846" lon="7.508699"><ele>346.0</ele><time>2026-04-04T16:17:14.577Z</time></trkpt><trkpt lat="45.110868" lon="7.5088135"><ele>346.0</ele><time>2026-04-04T16:17:15.576Z</time></trkpt><trkpt lat="45.1109427" lon="7.5089161"><ele>345.8333333333333</ele><time>2026-04-04T16:17:16.577Z</time></trkpt><trkpt lat="45.1110096" lon="7.5090057"><ele>345.66666666666663</ele><time>2026-04-04T16:17:17.577Z</time></trkpt><trkpt lat="45.1110592" lon="7.5090828"><ele>345.5</ele><time>2026-04-04T16:17:18.578Z</time></trkpt><trkpt lat="45.1111084" lon="7.5091538"><ele>345.3333333333333</ele><time>2026-04-04T16:17:20.577Z</time></trkpt><trkpt lat="45.1111654" lon="7.5092438"><ele>345.1666666666667</ele><time>2026-04-04T16:17:25.576Z</time></trkpt><trkpt lat="45.1112228" lon="7.5093311"><ele>345.0</ele><time>2026-04-04T16:17:26.576Z</time></trkpt><trkpt lat="45.1112916" lon="7.5094303"><ele>345.0</ele><time>2026-04-04T16:17:27.576Z</time></trkpt><trkpt lat="45.1113763" lon="7.5095467"><ele>345.0</ele><time>2026-04-04T16:17:28.576Z</time></trkpt><trkpt lat="45.1114758" lon="7.509686"><ele>345.0</ele><time>2026-04-04T16:17:29.577Z</time></trkpt><trkpt lat="45.1115935" lon="7.5098522"><ele>345.0</ele><time>2026-04-04T16:17:30.577Z</time></trkpt><trkpt lat="45.1117188" lon="7.5100318"><ele>345.3333333333333</ele><time>2026-04-04T16:17:31.576Z</time></trkpt><trkpt lat="45.1118587" lon="7.5102303"><ele>345.66666666666663</ele><time>2026-04-04T16:17:32.576Z</time></trkpt><trkpt lat="45.1120058" lon="7.5104357"><ele>346.0</ele><time>2026-04-04T16:17:33.576Z</time></trkpt><trkpt lat="45.1121517" lon="7.5106322"><ele>346.0</ele><time>2026-04-04T16:17:34.577Z</time></trkpt><trkpt lat="45.1123059" lon="7.5108321"><ele>346.0</ele><time>2026-04-04T16:17:35.576Z</time></trkpt><trkpt lat="45.1124748" lon="7.5110357"><ele>346.0</ele><time>2026-04-04T16:17:36.577Z</time></trkpt><trkpt lat="45.1126507" lon="7.5112341"><ele>348.0</ele><time>2026-04-04T16:17:37.575Z</time></trkpt><trkpt lat="45.112871" lon="7.5114597"><ele>350.0</ele><time>2026-04-04T16:17:38.576Z</time></trkpt><trkpt lat="45.1130882" lon="7.5116664"><ele>349.0</ele><time>2026-04-04T16:17:39.576Z</time></trkpt><trkpt lat="45.1133127" lon="7.5118541"><ele>348.0</ele><time>2026-04-04T16:17:40.576Z</time></trkpt><trkpt lat="45.1135376" lon="7.5120377"><ele>348.5</ele><time>2026-04-04T16:17:41.576Z</time></trkpt><trkpt lat="45.1137586" lon="7.512203"><ele>349.0</ele><time>2026-04-04T16:17:42.577Z</time></trkpt><trkpt lat="45.1139702" lon="7.5123592"><ele>348.0</ele><time>2026-04-04T16:17:43.577Z</time></trkpt><trkpt lat="45.1141741" lon="7.512498"><ele>347.0</ele><time>2026-04-04T16:17:44.577Z</time></trkpt><trkpt lat="45.1143669" lon="7.5126272"><ele>346.0</ele><time>2026-04-04T16:17:45.577Z</time></trkpt><trkpt lat="45.1145497" lon="7.5127444"><ele>346.0</ele><time>2026-04-04T16:17:46.575Z</time></trkpt><trkpt lat="45.1147177" lon="7.5128599"><ele>346.0</ele><time>2026-04-04T16:17:47.576Z</time></trkpt><trkpt lat="45.1148661" lon="7.5129618"><ele>346.0</ele><time>2026-04-04T16:17:48.576Z</time></trkpt><trkpt lat="45.1150035" lon="7.5130521"><ele>346.4</ele><time>2026-04-04T16:17:49.576Z</time></trkpt><trkpt lat="45.115124" lon="7.5131319"><ele>346.8</ele><time>2026-04-04T16:17:50.576Z</time></trkpt><trkpt lat="45.1152248" lon="7.513201"><ele>347.2</ele><time>2026-04-04T16:17:51.577Z</time></trkpt><trkpt lat="45.1153032" lon="7.5132634"><ele>347.59999999999997</ele><time>2026-04-04T16:17:52.577Z</time></trkpt><trkpt lat="45.1153619" lon="7.5133165"><ele>348.0</ele><time>2026-04-04T16:17:53.577Z</time></trkpt><trkpt lat="45.1154455" lon="7.5133963"><ele>348.0</ele><time>2026-04-04T16:17:55.577Z</time></trkpt><trkpt lat="45.115503" lon="7.5134911"><ele>348.0</ele><time>2026-04-04T16:17:57.576Z</time></trkpt><trkpt lat="45.115553" lon="7.5136343"><ele>348.0</ele><time>2026-04-04T16:17:59.576Z</time></trkpt><trkpt lat="45.1155835" lon="7.5137474"><ele>348.0</ele><time>2026-04-04T16:18:00.576Z</time></trkpt><trkpt lat="45.1156279" lon="7.5138683"><ele>348.0</ele><time>2026-04-04T16:18:01.576Z</time></trkpt><trkpt lat="45.1157031" lon="7.5139754"><ele>347.5</ele><time>2026-04-04T16:18:02.577Z</time></trkpt><trkpt lat="45.1158093" lon="7.51404"><ele>347.0</ele><time>2026-04-04T16:18:03.575Z</time></trkpt><trkpt lat="45.1159307" lon="7.5140494"><ele>346.5</ele><time>2026-04-04T16:18:04.576Z</time></trkpt><trkpt lat="45.1160509" lon="7.5140035"><ele>346.0</ele><time>2026-04-04T16:18:05.576Z</time></trkpt><trkpt lat="45.1161752" lon="7.5139619"><ele>346.0</ele><time>2026-04-04T16:18:06.577Z</time></trkpt><trkpt lat="45.1162958" lon="7.5139865"><ele>346.0</ele><time>2026-04-04T16:18:07.576Z</time></trkpt><trkpt lat="45.1164157" lon="7.5140559"><ele>346.0</ele><time>2026-04-04T16:18:08.577Z</time></trkpt><trkpt lat="45.1165274" lon="7.5141551"><ele>346.0</ele><time>2026-04-04T16:18:09.576Z</time></trkpt><trkpt lat="45.1166493" lon="7.5142596"><ele>346.0</ele><time>2026-04-04T16:18:10.576Z</time></trkpt><trkpt lat="45.1167984" lon="7.5143939"><ele>346.0</ele><time>2026-04-04T16:18:11.576Z</time></trkpt><trkpt lat="45.116964" lon="7.5145726"><ele>346.0</ele><time>2026-04-04T16:18:12.576Z</time></trkpt><trkpt lat="45.1171286" lon="7.5147709"><ele>346.0</ele><time>2026-04-04T16:18:13.576Z</time></trkpt><trkpt lat="45.1172901" lon="7.5149652"><ele>346.0</ele><time>2026-04-04T16:18:14.576Z</time></trkpt><trkpt lat="45.1174543" lon="7.5151658"><ele>346.0</ele><time>2026-04-04T16:18:15.576Z</time></trkpt><trkpt lat="45.1176191" lon="7.5153578"><ele>344.0</ele><time>2026-04-04T16:18:16.577Z</time></trkpt><trkpt lat="45.1177808" lon="7.5155429"><ele>342.0</ele><time>2026-04-04T16:18:17.576Z</time></trkpt><trkpt lat="45.1179415" lon="7.515725"><ele>340.0</ele><time>2026-04-04T16:18:18.576Z</time></trkpt><trkpt lat="45.1181128" lon="7.5159146"><ele>340.0</ele><time>2026-04-04T16:18:19.576Z</time></trkpt><trkpt lat="45.1182744" lon="7.5161136"><ele>340.0</ele><time>2026-04-04T16:18:20.576Z</time></trkpt><trkpt lat="45.1184348" lon="7.5163183"><ele>340.0</ele><time>2026-04-04T16:18:21.576Z</time></trkpt><trkpt lat="45.1185958" lon="7.516532"><ele>340.0</ele><time>2026-04-04T16:18:22.577Z</time></trkpt><trkpt lat="45.1187637" lon="7.5167446"><ele>340.0</ele><time>2026-04-04T16:18:23.576Z</time></trkpt><trkpt lat="45.1189279" lon="7.5169688"><ele>338.0</ele><time>2026-04-04T16:18:24.576Z</time></trkpt><trkpt lat="45.1190908" lon="7.5172039"><ele>336.0</ele><time>2026-04-04T16:18:25.575Z</time></trkpt><trkpt lat="45.119249" lon="7.5174516"><ele>336.0</ele><time>2026-04-04T16:18:26.575Z</time></trkpt><trkpt lat="45.1194073" lon="7.5177117"><ele>336.0</ele><time>2026-04-04T16:18:27.576Z</time></trkpt><trkpt lat="45.1195512" lon="7.5179755"><ele>336.0</ele><time>2026-04-04T16:18:28.577Z</time></trkpt><trkpt lat="45.1196846" lon="7.5182368"><ele>336.0</ele><time>2026-04-04T16:18:29.577Z</time></trkpt><trkpt lat="45.1197961" lon="7.5184934"><ele>336.0</ele><time>2026-04-04T16:18:30.576Z</time></trkpt><trkpt lat="45.1198999" lon="7.5187551"><ele>335.6666666666667</ele><time>2026-04-04T16:18:31.576Z</time></trkpt><trkpt lat="45.1199926" lon="7.5190237"><ele>335.33333333333337</ele><time>2026-04-04T16:18:32.576Z</time></trkpt><trkpt lat="45.1200775" lon="7.5192936"><ele>335.0</ele><time>2026-04-04T16:18:33.575Z</time></trkpt><trkpt lat="45.1201544" lon="7.5195663"><ele>334.6666666666667</ele><time>2026-04-04T16:18:34.576Z</time></trkpt><trkpt lat="45.1202252" lon="7.51984"><ele>334.3333333333333</ele><time>2026-04-04T16:18:35.577Z</time></trkpt><trkpt lat="45.1202857" lon="7.5201243"><ele>334.0</ele><time>2026-04-04T16:18:36.576Z</time></trkpt><trkpt lat="45.1203313" lon="7.5204101"><ele>334.0</ele><time>2026-04-04T16:18:37.576Z</time></trkpt><trkpt lat="45.1203701" lon="7.5207013"><ele>334.0</ele><time>2026-04-04T16:18:38.576Z</time></trkpt><trkpt lat="45.1203992" lon="7.5210006"><ele>334.0</ele><time>2026-04-04T16:18:39.577Z</time></trkpt><trkpt lat="45.1204253" lon="7.5213216"><ele>333.5</ele><time>2026-04-04T16:18:40.576Z</time></trkpt><trkpt lat="45.1204458" lon="7.5216725"><ele>333.0</ele><time>2026-04-04T16:18:41.576Z</time></trkpt><trkpt lat="45.1204588" lon="7.5220431"><ele>332.5</ele><time>2026-04-04T16:18:42.576Z</time></trkpt><trkpt lat="45.1204596" lon="7.5224373"><ele>332.0</ele><time>2026-04-04T16:18:43.575Z</time></trkpt><trkpt lat="45.1204558" lon="7.5228493"><ele>332.0</ele><time>2026-04-04T16:18:44.576Z</time></trkpt><trkpt lat="45.120453" lon="7.5232746"><ele>332.0</ele><time>2026-04-04T16:18:45.576Z</time></trkpt><trkpt lat="45.1204534" lon="7.5237134"><ele>332.0</ele><time>2026-04-04T16:18:46.575Z</time></trkpt><trkpt lat="45.1204538" lon="7.5241586"><ele>332.0</ele><time>2026-04-04T16:18:47.576Z</time></trkpt><trkpt lat="45.1204563" lon="7.5246088"><ele>331.5</ele><time>2026-04-04T16:18:48.576Z</time></trkpt><trkpt lat="45.1204572" lon="7.5250699"><ele>331.0</ele><time>2026-04-04T16:18:49.577Z</time></trkpt><trkpt lat="45.120456" lon="7.5255398"><ele>330.5</ele><time>2026-04-04T16:18:50.577Z</time></trkpt><trkpt lat="45.1204566" lon="7.5260152"><ele>330.0</ele><time>2026-04-04T16:18:51.576Z</time></trkpt><trkpt lat="45.1204547" lon="7.5264888"><ele>329.5</ele><time>2026-04-04T16:18:52.575Z</time></trkpt><trkpt lat="45.1204562" lon="7.5269488"><ele>329.0</ele><time>2026-04-04T16:18:53.576Z</time></trkpt><trkpt lat="45.1204558" lon="7.5273949"><ele>329.0</ele><time>2026-04-04T16:18:54.577Z</time></trkpt><trkpt lat="45.120459" lon="7.5278245"><ele>329.0</ele><time>2026-04-04T16:18:55.577Z</time></trkpt><trkpt lat="45.1204631" lon="7.5282293"><ele>328.0</ele><time>2026-04-04T16:18:56.576Z</time></trkpt><trkpt lat="45.1204689" lon="7.5286155"><ele>327.0</ele><time>2026-04-04T16:18:57.577Z</time></trkpt><trkpt lat="45.1204809" lon="7.5289799"><ele>326.0</ele><time>2026-04-04T16:18:58.576Z</time></trkpt><trkpt lat="45.1205047" lon="7.5293232"><ele>325.0</ele><time>2026-04-04T16:18:59.575Z</time></trkpt><trkpt lat="45.1205365" lon="7.5296531"><ele>324.66666666666663</ele><time>2026-04-04T16:19:00.576Z</time></trkpt><trkpt lat="45.1205773" lon="7.5299599"><ele>324.3333333333333</ele><time>2026-04-04T16:19:01.576Z</time></trkpt><trkpt lat="45.1206208" lon="7.5302473"><ele>324.0</ele><time>2026-04-04T16:19:02.576Z</time></trkpt><trkpt lat="45.1206681" lon="7.5305104"><ele>324.6666666666667</ele><time>2026-04-04T16:19:03.577Z</time></trkpt><trkpt lat="45.1207066" lon="7.5307493"><ele>325.33333333333337</ele><time>2026-04-04T16:19:04.576Z</time></trkpt><trkpt lat="45.1207349" lon="7.5309617"><ele>326.0</ele><time>2026-04-04T16:19:05.576Z</time></trkpt><trkpt lat="45.1207497" lon="7.5311555"><ele>326.0</ele><time>2026-04-04T16:19:06.577Z</time></trkpt><trkpt lat="45.120745" lon="7.5313469"><ele>326.0</ele><time>2026-04-04T16:19:07.577Z</time></trkpt><trkpt lat="45.1207213" lon="7.5315359"><ele>326.0</ele><time>2026-04-04T16:19:08.576Z</time></trkpt><trkpt lat="45.1207136" lon="7.5317165"><ele>326.0</ele><time>2026-04-04T16:19:09.577Z</time></trkpt><trkpt lat="45.1207598" lon="7.5318707"><ele>325.75</ele><time>2026-04-04T16:19:10.576Z</time></trkpt><trkpt lat="45.1208375" lon="7.5320085"><ele>325.5</ele><time>2026-04-04T16:19:11.576Z</time></trkpt><trkpt lat="45.1209449" lon="7.5321349"><ele>325.25</ele><time>2026-04-04T16:19:12.577Z</time></trkpt><trkpt lat="45.1210329" lon="7.5323068"><ele>325.0</ele><time>2026-04-04T16:19:13.576Z</time></trkpt><trkpt lat="45.1210998" lon="7.5325297"><ele>325.0</ele><time>2026-04-04T16:19:14.576Z</time></trkpt><trkpt lat="45.1211639" lon="7.5327844"><ele>325.0</ele><time>2026-04-04T16:19:15.577Z</time></trkpt><trkpt lat="45.121225" lon="7.5330553"><ele>325.0</ele><time>2026-04-04T16:19:16.575Z</time></trkpt><trkpt lat="45.1212842" lon="7.5333411"><ele>324.66666666666663</ele><time>2026-04-04T16:19:17.576Z</time></trkpt><trkpt lat="45.1213376" lon="7.5336414"><ele>324.3333333333333</ele><time>2026-04-04T16:19:18.576Z</time></trkpt><trkpt lat="45.1213792" lon="7.5339509"><ele>324.0</ele><time>2026-04-04T16:19:19.577Z</time></trkpt><trkpt lat="45.1214142" lon="7.5342745"><ele>322.5</ele><time>2026-04-04T16:19:20.576Z</time></trkpt><trkpt lat="45.1214364" lon="7.5346121"><ele>321.0</ele><time>2026-04-04T16:19:21.575Z</time></trkpt><trkpt lat="45.1214483" lon="7.534965"><ele>321.0</ele><time>2026-04-04T16:19:22.576Z</time></trkpt><trkpt lat="45.1214452" lon="7.5353193"><ele>321.0</ele><time>2026-04-04T16:19:23.577Z</time></trkpt><trkpt lat="45.1214281" lon="7.5356831"><ele>320.5</ele><time>2026-04-04T16:19:24.575Z</time></trkpt><trkpt lat="45.1213878" lon="7.5360531"><ele>320.0</ele><time>2026-04-04T16:19:25.576Z</time></trkpt><trkpt lat="45.1213399" lon="7.536422"><ele>320.5</ele><time>2026-04-04T16:19:26.577Z</time></trkpt><trkpt lat="45.1212759" lon="7.5367942"><ele>321.0</ele><time>2026-04-04T16:19:27.576Z</time></trkpt><trkpt lat="45.1211962" lon="7.5371676"><ele>321.0</ele><time>2026-04-04T16:19:28.576Z</time></trkpt><trkpt lat="45.1211001" lon="7.5375397"><ele>321.0</ele><time>2026-04-04T16:19:29.577Z</time></trkpt><trkpt lat="45.1209866" lon="7.5379087"><ele>320.5</ele><time>2026-04-04T16:19:30.576Z</time></trkpt><trkpt lat="45.1208546" lon="7.5382719"><ele>320.0</ele><time>2026-04-04T16:19:31.576Z</time></trkpt><trkpt lat="45.1207011" lon="7.5386215"><ele>319.0</ele><time>2026-04-04T16:19:32.576Z</time></trkpt><trkpt lat="45.1205323" lon="7.5389651"><ele>318.0</ele><time>2026-04-04T16:19:33.575Z</time></trkpt><trkpt lat="45.1203463" lon="7.5392877"><ele>318.0</ele><time>2026-04-04T16:19:34.575Z</time></trkpt><trkpt lat="45.1201607" lon="7.5395749"><ele>318.0</ele><time>2026-04-04T16:19:35.576Z</time></trkpt><trkpt lat="45.1199797" lon="7.5398398"><ele>319.5</ele><time>2026-04-04T16:19:36.575Z</time></trkpt><trkpt lat="45.1198024" lon="7.5400914"><ele>321.0</ele><time>2026-04-04T16:19:37.577Z</time></trkpt><trkpt lat="45.1196278" lon="7.5403256"><ele>320.5</ele><time>2026-04-04T16:19:38.577Z</time></trkpt><trkpt lat="45.1194604" lon="7.540553"><ele>320.0</ele><time>2026-04-04T16:19:39.576Z</time></trkpt><trkpt lat="45.1193002" lon="7.5407706"><ele>320.0</ele><time>2026-04-04T16:19:40.576Z</time></trkpt><trkpt lat="45.1191466" lon="7.5409774"><ele>320.0</ele><time>2026-04-04T16:19:41.575Z</time></trkpt><trkpt lat="45.1190029" lon="7.5411729"><ele>320.0</ele><time>2026-04-04T16:19:42.577Z</time></trkpt><trkpt lat="45.1188641" lon="7.5413561"><ele>320.6666666666667</ele><time>2026-04-04T16:19:43.577Z</time></trkpt><trkpt lat="45.1187345" lon="7.5415324"><ele>321.3333333333333</ele><time>2026-04-04T16:19:44.576Z</time></trkpt><trkpt lat="45.1186127" lon="7.5416953"><ele>322.0</ele><time>2026-04-04T16:19:45.576Z</time></trkpt><trkpt lat="45.1185018" lon="7.5418391"><ele>322.0</ele><time>2026-04-04T16:19:46.575Z</time></trkpt><trkpt lat="45.1184" lon="7.54196"><ele>322.0</ele><time>2026-04-04T16:19:47.576Z</time></trkpt><trkpt lat="45.1183072" lon="7.542047"><ele>322.0</ele><time>2026-04-04T16:19:48.577Z</time></trkpt><trkpt lat="45.1182142" lon="7.5421062"><ele>322.0</ele><time>2026-04-04T16:19:49.577Z</time></trkpt><trkpt lat="45.1181162" lon="7.5421412"><ele>322.0</ele><time>2026-04-04T16:19:50.576Z</time></trkpt><trkpt lat="45.118008" lon="7.5421673"><ele>322.20000000000005</ele><time>2026-04-04T16:19:51.575Z</time></trkpt><trkpt lat="45.1179069" lon="7.5422096"><ele>322.4</ele><time>2026-04-04T16:19:52.576Z</time></trkpt><trkpt lat="45.1178283" lon="7.5422828"><ele>322.6</ele><time>2026-04-04T16:19:53.576Z</time></trkpt><trkpt lat="45.1177669" lon="7.5423837"><ele>322.79999999999995</ele><time>2026-04-04T16:19:54.575Z</time></trkpt><trkpt lat="45.1177241" lon="7.5425092"><ele>323.0</ele><time>2026-04-04T16:19:55.575Z</time></trkpt><trkpt lat="45.1177136" lon="7.5426505"><ele>323.0</ele><time>2026-04-04T16:19:56.576Z</time></trkpt><trkpt lat="45.1177206" lon="7.5428019"><ele>323.0</ele><time>2026-04-04T16:19:57.576Z</time></trkpt><trkpt lat="45.1177256" lon="7.5429555"><ele>323.0</ele><time>2026-04-04T16:19:58.575Z</time></trkpt><trkpt lat="45.1177141" lon="7.54312"><ele>323.0</ele><time>2026-04-04T16:19:59.576Z</time></trkpt><trkpt lat="45.1177002" lon="7.5433017"><ele>322.25</ele><time>2026-04-04T16:20:00.575Z</time></trkpt><trkpt lat="45.1176803" lon="7.5434977"><ele>321.5</ele><time>2026-04-04T16:20:01.576Z</time></trkpt><trkpt lat="45.117663" lon="7.5436994"><ele>320.75</ele><time>2026-04-04T16:20:02.577Z</time></trkpt><trkpt lat="45.1176461" lon="7.5439113"><ele>320.0</ele><time>2026-04-04T16:20:03.577Z</time></trkpt><trkpt lat="45.1176321" lon="7.5441298"><ele>319.6666666666667</ele><time>2026-04-04T16:20:04.576Z</time></trkpt><trkpt lat="45.1176225" lon="7.5443584"><ele>319.3333333333333</ele><time>2026-04-04T16:20:05.575Z</time></trkpt><trkpt lat="45.1176157" lon="7.54459"><ele>319.0</ele><time>2026-04-04T16:20:06.576Z</time></trkpt><trkpt lat="45.1176093" lon="7.5448301"><ele>318.0</ele><time>2026-04-04T16:20:07.576Z</time></trkpt><trkpt lat="45.1176017" lon="7.5450792"><ele>317.0</ele><time>2026-04-04T16:20:08.576Z</time></trkpt><trkpt lat="45.1175946" lon="7.5453301"><ele>316.0</ele><time>2026-04-04T16:20:09.576Z</time></trkpt><trkpt lat="45.1175852" lon="7.545583"><ele>315.66666666666663</ele><time>2026-04-04T16:20:10.576Z</time></trkpt><trkpt lat="45.117579" lon="7.5458366"><ele>315.3333333333333</ele><time>2026-04-04T16:20:11.577Z</time></trkpt><trkpt lat="45.1175712" lon="7.5460936"><ele>315.0</ele><time>2026-04-04T16:20:12.576Z</time></trkpt><trkpt lat="45.1175613" lon="7.5463613"><ele>315.6666666666667</ele><time>2026-04-04T16:20:13.575Z</time></trkpt><trkpt lat="45.1175513" lon="7.5466266"><ele>316.33333333333337</ele><time>2026-04-04T16:20:14.576Z</time></trkpt><trkpt lat="45.1175373" lon="7.5468919"><ele>317.0</ele><time>2026-04-04T16:20:15.576Z</time></trkpt><trkpt lat="45.1175179" lon="7.5471559"><ele>317.6666666666667</ele><time>2026-04-04T16:20:16.576Z</time></trkpt><trkpt lat="45.1174937" lon="7.547418"><ele>318.3333333333333</ele><time>2026-04-04T16:20:17.577Z</time></trkpt><trkpt lat="45.1174623" lon="7.5476812"><ele>319.0</ele><time>2026-04-04T16:20:18.577Z</time></trkpt><trkpt lat="45.117423" lon="7.547952"><ele>318.0</ele><time>2026-04-04T16:20:19.577Z</time></trkpt><trkpt lat="45.1173746" lon="7.5482232"><ele>317.0</ele><time>2026-04-04T16:20:20.576Z</time></trkpt><trkpt lat="45.1173196" lon="7.5484936"><ele>316.0</ele><time>2026-04-04T16:20:21.575Z</time></trkpt><trkpt lat="45.1172574" lon="7.5487618"><ele>316.0</ele><time>2026-04-04T16:20:22.576Z</time></trkpt><trkpt lat="45.1171844" lon="7.5490246"><ele>316.0</ele><time>2026-04-04T16:20:23.576Z</time></trkpt><trkpt lat="45.1171099" lon="7.549288"><ele>316.0</ele><time>2026-04-04T16:20:24.577Z</time></trkpt><trkpt lat="45.1170305" lon="7.5495505"><ele>315.0</ele><time>2026-04-04T16:20:25.576Z</time></trkpt><trkpt lat="45.1169498" lon="7.5498098"><ele>314.0</ele><time>2026-04-04T16:20:26.576Z</time></trkpt><trkpt lat="45.1168655" lon="7.5500646"><ele>313.0</ele><time>2026-04-04T16:20:27.577Z</time></trkpt><trkpt lat="45.1167817" lon="7.5503208"><ele>313.0</ele><time>2026-04-04T16:20:28.575Z</time></trkpt><trkpt lat="45.1166987" lon="7.5505775"><ele>313.0</ele><time>2026-04-04T16:20:29.577Z</time></trkpt><trkpt lat="45.116614" lon="7.5508383"><ele>313.0</ele><time>2026-04-04T16:20:30.576Z</time></trkpt><trkpt lat="45.1165305" lon="7.5510983"><ele>312.66666666666663</ele><time>2026-04-04T16:20:31.576Z</time></trkpt><trkpt lat="45.1164451" lon="7.5513631"><ele>312.3333333333333</ele><time>2026-04-04T16:20:32.577Z</time></trkpt><trkpt lat="45.1163626" lon="7.5516146"><ele>312.0</ele><time>2026-04-04T16:20:33.576Z</time></trkpt><trkpt lat="45.1162816" lon="7.5518522"><ele>311.6666666666667</ele><time>2026-04-04T16:20:34.576Z</time></trkpt><trkpt lat="45.1162034" lon="7.5520861"><ele>311.33333333333337</ele><time>2026-04-04T16:20:35.575Z</time></trkpt><trkpt lat="45.116126" lon="7.5523027"><ele>311.0</ele><time>2026-04-04T16:20:36.575Z</time></trkpt><trkpt lat="45.1160576" lon="7.5525092"><ele>311.0</ele><time>2026-04-04T16:20:37.576Z</time></trkpt><trkpt lat="45.1159867" lon="7.5527112"><ele>311.0</ele><time>2026-04-04T16:20:38.575Z</time></trkpt><trkpt lat="45.1159126" lon="7.5529124"><ele>311.0</ele><time>2026-04-04T16:20:39.575Z</time></trkpt><trkpt lat="45.1158335" lon="7.5531177"><ele>310.6666666666667</ele><time>2026-04-04T16:20:40.576Z</time></trkpt><trkpt lat="45.1157522" lon="7.5533228"><ele>310.3333333333333</ele><time>2026-04-04T16:20:41.576Z</time></trkpt><trkpt lat="45.1156625" lon="7.5535291"><ele>310.0</ele><time>2026-04-04T16:20:42.575Z</time></trkpt><trkpt lat="45.1155837" lon="7.553719"><ele>310.66666666666663</ele><time>2026-04-04T16:20:43.576Z</time></trkpt><trkpt lat="45.1154945" lon="7.5539096"><ele>311.3333333333333</ele><time>2026-04-04T16:20:44.575Z</time></trkpt><trkpt lat="45.1154067" lon="7.5541015"><ele>312.0</ele><time>2026-04-04T16:20:45.576Z</time></trkpt><trkpt lat="45.1153177" lon="7.5542963"><ele>312.0</ele><time>2026-04-04T16:20:46.575Z</time></trkpt><trkpt lat="45.1152255" lon="7.5544847"><ele>312.0</ele><time>2026-04-04T16:20:47.575Z</time></trkpt><trkpt lat="45.1151325" lon="7.5546663"><ele>312.0</ele><time>2026-04-04T16:20:48.575Z</time></trkpt><trkpt lat="45.1150445" lon="7.5548427"><ele>311.3333333333333</ele><time>2026-04-04T16:20:49.576Z</time></trkpt><trkpt lat="45.1149513" lon="7.5550188"><ele>310.66666666666663</ele><time>2026-04-04T16:20:50.576Z</time></trkpt><trkpt lat="45.1148532" lon="7.5551962"><ele>310.0</ele><time>2026-04-04T16:20:51.575Z</time></trkpt><trkpt lat="45.1147488" lon="7.5553768"><ele>309.66666666666663</ele><time>2026-04-04T16:20:52.574Z</time></trkpt><trkpt lat="45.1146476" lon="7.5555557"><ele>309.3333333333333</ele><time>2026-04-04T16:20:53.576Z</time></trkpt><trkpt lat="45.1145481" lon="7.5557373"><ele>309.0</ele><time>2026-04-04T16:20:54.574Z</time></trkpt><trkpt lat="45.1144507" lon="7.5559222"><ele>309.0</ele><time>2026-04-04T16:20:55.575Z</time></trkpt><trkpt lat="45.1143546" lon="7.5560964"><ele>309.0</ele><time>2026-04-04T16:20:56.576Z</time></trkpt><trkpt lat="45.1142629" lon="7.5562691"><ele>309.0</ele><time>2026-04-04T16:20:57.575Z</time></trkpt><trkpt lat="45.1141673" lon="7.5564454"><ele>309.0</ele><time>2026-04-04T16:20:58.574Z</time></trkpt><trkpt lat="45.1140636" lon="7.5566434"><ele>309.0</ele><time>2026-04-04T16:20:59.575Z</time></trkpt><trkpt lat="45.1139494" lon="7.5568671"><ele>309.0</ele><time>2026-04-04T16:21:00.575Z</time></trkpt><trkpt lat="45.1138243" lon="7.5571083"><ele>308.6666666666667</ele><time>2026-04-04T16:21:01.576Z</time></trkpt><trkpt lat="45.1136933" lon="7.5573474"><ele>308.33333333333337</ele><time>2026-04-04T16:21:02.575Z</time></trkpt><trkpt lat="45.113564" lon="7.5575805"><ele>308.0</ele><time>2026-04-04T16:21:03.576Z</time></trkpt><trkpt lat="45.1134399" lon="7.5578012"><ele>308.0</ele><time>2026-04-04T16:21:04.576Z</time></trkpt><trkpt lat="45.1133214" lon="7.5580128"><ele>308.0</ele><time>2026-04-04T16:21:05.576Z</time></trkpt><trkpt lat="45.1132073" lon="7.5582215"><ele>308.0</ele><time>2026-04-04T16:21:06.576Z</time></trkpt><trkpt lat="45.1130958" lon="7.5584266"><ele>308.0</ele><time>2026-04-04T16:21:07.576Z</time></trkpt><trkpt lat="45.1129853" lon="7.5586311"><ele>308.0</ele><time>2026-04-04T16:21:08.575Z</time></trkpt><trkpt lat="45.112875" lon="7.5588341"><ele>308.0</ele><time>2026-04-04T16:21:09.575Z</time></trkpt><trkpt lat="45.112769" lon="7.5590361"><ele>308.0</ele><time>2026-04-04T16:21:10.575Z</time></trkpt><trkpt lat="45.112667" lon="7.5592351"><ele>308.0</ele><time>2026-04-04T16:21:11.576Z</time></trkpt><trkpt lat="45.1125709" lon="7.5594419"><ele>308.0</ele><time>2026-04-04T16:21:12.575Z</time></trkpt><trkpt lat="45.1124803" lon="7.5596469"><ele>307.6666666666667</ele><time>2026-04-04T16:21:13.574Z</time></trkpt><trkpt lat="45.1123948" lon="7.5598572"><ele>307.3333333333333</ele><time>2026-04-04T16:21:14.575Z</time></trkpt><trkpt lat="45.1123124" lon="7.5600692"><ele>307.0</ele><time>2026-04-04T16:21:15.574Z</time></trkpt><trkpt lat="45.1122328" lon="7.5602836"><ele>307.0</ele><time>2026-04-04T16:21:16.575Z</time></trkpt><trkpt lat="45.1121603" lon="7.5604967"><ele>307.0</ele><time>2026-04-04T16:21:17.575Z</time></trkpt><trkpt lat="45.1120934" lon="7.5607111"><ele>307.0</ele><time>2026-04-04T16:21:18.575Z</time></trkpt><trkpt lat="45.1120315" lon="7.5609267"><ele>307.0</ele><time>2026-04-04T16:21:19.575Z</time></trkpt><trkpt lat="45.1119732" lon="7.5611383"><ele>307.0</ele><time>2026-04-04T16:21:20.575Z</time></trkpt><trkpt lat="45.1119262" lon="7.5613416"><ele>307.0</ele><time>2026-04-04T16:21:21.575Z</time></trkpt><trkpt lat="45.1118788" lon="7.561563"><ele>306.0</ele><time>2026-04-04T16:21:22.575Z</time></trkpt><trkpt lat="45.1118275" lon="7.5617942"><ele>305.0</ele><time>2026-04-04T16:21:23.575Z</time></trkpt><trkpt lat="45.1117773" lon="7.5620502"><ele>304.0</ele><time>2026-04-04T16:21:24.575Z</time></trkpt><trkpt lat="45.11172" lon="7.5623279"><ele>303.5</ele><time>2026-04-04T16:21:25.575Z</time></trkpt><trkpt lat="45.1116579" lon="7.5626286"><ele>303.0</ele><time>2026-04-04T16:21:26.575Z</time></trkpt><trkpt lat="45.1115927" lon="7.5629489"><ele>302.5</ele><time>2026-04-04T16:21:27.575Z</time></trkpt><trkpt lat="45.1115259" lon="7.5632636"><ele>302.0</ele><time>2026-04-04T16:21:28.575Z</time></trkpt><trkpt lat="45.1114582" lon="7.5635608"><ele>301.6666666666667</ele><time>2026-04-04T16:21:29.576Z</time></trkpt><trkpt lat="45.1113939" lon="7.5638439"><ele>301.3333333333333</ele><time>2026-04-04T16:21:30.576Z</time></trkpt><trkpt lat="45.1113342" lon="7.5641157"><ele>301.0</ele><time>2026-04-04T16:21:31.575Z</time></trkpt><trkpt lat="45.1112779" lon="7.564369"><ele>301.3333333333333</ele><time>2026-04-04T16:21:32.575Z</time></trkpt><trkpt lat="45.1112284" lon="7.5646065"><ele>301.6666666666667</ele><time>2026-04-04T16:21:33.576Z</time></trkpt><trkpt lat="45.1111782" lon="7.564821"><ele>302.0</ele><time>2026-04-04T16:21:34.576Z</time></trkpt><trkpt lat="45.111138" lon="7.565004"><ele>302.0</ele><time>2026-04-04T16:21:35.575Z</time></trkpt><trkpt lat="45.1110978" lon="7.5651544"><ele>302.0</ele><time>2026-04-04T16:21:36.575Z</time></trkpt><trkpt lat="45.1110703" lon="7.565278"><ele>302.0</ele><time>2026-04-04T16:21:37.576Z</time></trkpt><trkpt lat="45.1110434" lon="7.565389"><ele>302.0</ele><time>2026-04-04T16:21:38.575Z</time></trkpt><trkpt lat="45.1110146" lon="7.5654886"><ele>302.0</ele><time>2026-04-04T16:21:39.574Z</time></trkpt><trkpt lat="45.1109891" lon="7.5655795"><ele>302.0</ele><time>2026-04-04T16:21:40.575Z</time></trkpt><trkpt lat="45.1109238" lon="7.5657441"><ele>301.6</ele><time>2026-04-04T16:21:42.575Z</time></trkpt><trkpt lat="45.1108584" lon="7.5658616"><ele>301.2</ele><time>2026-04-04T16:21:44.575Z</time></trkpt><trkpt lat="45.1107587" lon="7.5659498"><ele>300.8</ele><time>2026-04-04T16:21:46.576Z</time></trkpt><trkpt lat="45.1106682" lon="7.5659838"><ele>300.4</ele><time>2026-04-04T16:21:47.575Z</time></trkpt><trkpt lat="45.1105802" lon="7.5660426"><ele>300.0</ele><time>2026-04-04T16:21:48.576Z</time></trkpt><trkpt lat="45.1105119" lon="7.5661413"><ele>300.1666666666667</ele><time>2026-04-04T16:21:49.576Z</time></trkpt><trkpt lat="45.1104709" lon="7.5662606"><ele>300.3333333333333</ele><time>2026-04-04T16:21:50.575Z</time></trkpt><trkpt lat="45.1104603" lon="7.5663841"><ele>300.5</ele><time>2026-04-04T16:21:51.575Z</time></trkpt><trkpt lat="45.1104791" lon="7.5665026"><ele>300.66666666666663</ele><time>2026-04-04T16:21:52.576Z</time></trkpt><trkpt lat="45.1105184" lon="7.5666151"><ele>300.8333333333333</ele><time>2026-04-04T16:21:53.575Z</time></trkpt><trkpt lat="45.1105773" lon="7.566704"><ele>301.0</ele><time>2026-04-04T16:21:54.576Z</time></trkpt><trkpt lat="45.1106561" lon="7.5667657"><ele>300.8</ele><time>2026-04-04T16:21:55.575Z</time></trkpt><trkpt lat="45.1107508" lon="7.5668092"><ele>300.6</ele><time>2026-04-04T16:21:56.574Z</time></trkpt><trkpt lat="45.1108473" lon="7.5668743"><ele>300.4</ele><time>2026-04-04T16:21:57.575Z</time></trkpt><trkpt lat="45.1109305" lon="7.5669844"><ele>300.2</ele><time>2026-04-04T16:21:58.576Z</time></trkpt><trkpt lat="45.1109885" lon="7.5671346"><ele>300.0</ele><time>2026-04-04T16:21:59.575Z</time></trkpt><trkpt lat="45.1110038" lon="7.567318"><ele>300.0</ele><time>2026-04-04T16:22:00.575Z</time></trkpt><trkpt lat="45.1109902" lon="7.567523"><ele>300.0</ele><time>2026-04-04T16:22:01.575Z</time></trkpt><trkpt lat="45.1109742" lon="7.5677354"><ele>300.0</ele><time>2026-04-04T16:22:02.575Z</time></trkpt><trkpt lat="45.110957" lon="7.5679682"><ele>299.3333333333333</ele><time>2026-04-04T16:22:03.574Z</time></trkpt><trkpt lat="45.1109415" lon="7.5682212"><ele>298.66666666666663</ele><time>2026-04-04T16:22:04.576Z</time></trkpt><trkpt lat="45.1109312" lon="7.568482"><ele>298.0</ele><time>2026-04-04T16:22:05.575Z</time></trkpt><trkpt lat="45.1109339" lon="7.5687318"><ele>297.66666666666663</ele><time>2026-04-04T16:22:06.576Z</time></trkpt><trkpt lat="45.1109435" lon="7.5689814"><ele>297.3333333333333</ele><time>2026-04-04T16:22:07.576Z</time></trkpt><trkpt lat="45.1109659" lon="7.5692172"><ele>297.0</ele><time>2026-04-04T16:22:08.575Z</time></trkpt><trkpt lat="45.1109963" lon="7.5694502"><ele>297.0</ele><time>2026-04-04T16:22:09.575Z</time></trkpt><trkpt lat="45.111048" lon="7.5696804"><ele>297.0</ele><time>2026-04-04T16:22:10.576Z</time></trkpt><trkpt lat="45.111109" lon="7.5699097"><ele>297.0</ele><time>2026-04-04T16:22:11.575Z</time></trkpt><trkpt lat="45.1111609" lon="7.5701409"><ele>296.0</ele><time>2026-04-04T16:22:12.575Z</time></trkpt><trkpt lat="45.1112021" lon="7.570372"><ele>295.0</ele><time>2026-04-04T16:22:13.576Z</time></trkpt><trkpt lat="45.1112303" lon="7.5706032"><ele>294.0</ele><time>2026-04-04T16:22:14.576Z</time></trkpt><trkpt lat="45.1112528" lon="7.5708355"><ele>294.0</ele><time>2026-04-04T16:22:15.575Z</time></trkpt><trkpt lat="45.1112728" lon="7.5710717"><ele>294.0</ele><time>2026-04-04T16:22:16.575Z</time></trkpt><trkpt lat="45.1112879" lon="7.5713148"><ele>294.0</ele><time>2026-04-04T16:22:17.576Z</time></trkpt><trkpt lat="45.1113029" lon="7.5715605"><ele>293.3333333333333</ele><time>2026-04-04T16:22:18.575Z</time></trkpt><trkpt lat="45.1113217" lon="7.5718179"><ele>292.66666666666663</ele><time>2026-04-04T16:22:19.575Z</time></trkpt><trkpt lat="45.111338" lon="7.5720822"><ele>292.0</ele><time>2026-04-04T16:22:20.576Z</time></trkpt><trkpt lat="45.1113615" lon="7.5723547"><ele>291.66666666666663</ele><time>2026-04-04T16:22:21.575Z</time></trkpt><trkpt lat="45.1113892" lon="7.5726293"><ele>291.3333333333333</ele><time>2026-04-04T16:22:22.574Z</time></trkpt><trkpt lat="45.1114229" lon="7.5729107"><ele>291.0</ele><time>2026-04-04T16:22:23.576Z</time></trkpt><trkpt lat="45.1114646" lon="7.5731975"><ele>290.6666666666667</ele><time>2026-04-04T16:22:24.576Z</time></trkpt><trkpt lat="45.1115123" lon="7.5734861"><ele>290.33333333333337</ele><time>2026-04-04T16:22:25.576Z</time></trkpt><trkpt lat="45.111573" lon="7.5737789"><ele>290.0</ele><time>2026-04-04T16:22:26.575Z</time></trkpt><trkpt lat="45.1116481" lon="7.574068"><ele>289.6666666666667</ele><time>2026-04-04T16:22:27.575Z</time></trkpt><trkpt lat="45.111732" lon="7.5743522"><ele>289.3333333333333</ele><time>2026-04-04T16:22:28.575Z</time></trkpt><trkpt lat="45.111824" lon="7.5746305"><ele>289.0</ele><time>2026-04-04T16:22:29.575Z</time></trkpt><trkpt lat="45.1119189" lon="7.5748985"><ele>289.66666666666663</ele><time>2026-04-04T16:22:30.576Z</time></trkpt><trkpt lat="45.1120162" lon="7.5751697"><ele>290.3333333333333</ele><time>2026-04-04T16:22:31.575Z</time></trkpt><trkpt lat="45.1121149" lon="7.5754462"><ele>291.0</ele><time>2026-04-04T16:22:32.575Z</time></trkpt><trkpt lat="45.1122107" lon="7.5757225"><ele>291.0</ele><time>2026-04-04T16:22:33.575Z</time></trkpt><trkpt lat="45.1123069" lon="7.5759987"><ele>291.0</ele><time>2026-04-04T16:22:34.576Z</time></trkpt><trkpt lat="45.1124045" lon="7.5762727"><ele>291.0</ele><time>2026-04-04T16:22:35.576Z</time></trkpt><trkpt lat="45.112498" lon="7.5765316"><ele>289.3333333333333</ele><time>2026-04-04T16:22:36.576Z</time></trkpt><trkpt lat="45.1125857" lon="7.5767791"><ele>287.66666666666663</ele><time>2026-04-04T16:22:37.574Z</time></trkpt><trkpt lat="45.1126657" lon="7.5770231"><ele>286.0</ele><time>2026-04-04T16:22:38.575Z</time></trkpt><trkpt lat="45.1127454" lon="7.577265"><ele>286.0</ele><time>2026-04-04T16:22:39.574Z</time></trkpt><trkpt lat="45.1128197" lon="7.5775099"><ele>286.0</ele><time>2026-04-04T16:22:40.575Z</time></trkpt><trkpt lat="45.1128867" lon="7.5777607"><ele>286.0</ele><time>2026-04-04T16:22:41.576Z</time></trkpt><trkpt lat="45.1129483" lon="7.5780128"><ele>286.0</ele><time>2026-04-04T16:22:42.575Z</time></trkpt><trkpt lat="45.1130075" lon="7.5782637"><ele>286.0</ele><time>2026-04-04T16:22:43.575Z</time></trkpt><trkpt lat="45.1130675" lon="7.5785062"><ele>286.0</ele><time>2026-04-04T16:22:44.575Z</time></trkpt><trkpt lat="45.1131255" lon="7.5787433"><ele>286.0</ele><time>2026-04-04T16:22:45.575Z</time></trkpt><trkpt lat="45.1131862" lon="7.5789788"><ele>286.0</ele><time>2026-04-04T16:22:46.575Z</time></trkpt><trkpt lat="45.113246" lon="7.5792122"><ele>286.0</ele><time>2026-04-04T16:22:47.575Z</time></trkpt><trkpt lat="45.1133025" lon="7.5794445"><ele>286.0</ele><time>2026-04-04T16:22:48.575Z</time></trkpt><trkpt lat="45.1133575" lon="7.5796713"><ele>286.0</ele><time>2026-04-04T16:22:49.575Z</time></trkpt><trkpt lat="45.1134091" lon="7.579884"><ele>286.0</ele><time>2026-04-04T16:22:50.574Z</time></trkpt><trkpt lat="45.1134607" lon="7.5800905"><ele>286.0</ele><time>2026-04-04T16:22:51.574Z</time></trkpt><trkpt lat="45.1135106" lon="7.5802966"><ele>286.0</ele><time>2026-04-04T16:22:52.574Z</time></trkpt><trkpt lat="45.1135598" lon="7.5804937"><ele>286.0</ele><time>2026-04-04T16:22:53.575Z</time></trkpt><trkpt lat="45.113604" lon="7.5806761"><ele>286.0</ele><time>2026-04-04T16:22:54.575Z</time></trkpt><trkpt lat="45.1136409" lon="7.5808388"><ele>285.6</ele><time>2026-04-04T16:22:55.574Z</time></trkpt><trkpt lat="45.1136666" lon="7.5809805"><ele>285.20000000000005</ele><time>2026-04-04T16:22:56.575Z</time></trkpt><trkpt lat="45.113684" lon="7.5811072"><ele>284.79999999999995</ele><time>2026-04-04T16:22:57.576Z</time></trkpt><trkpt lat="45.1136924" lon="7.5812327"><ele>284.4</ele><time>2026-04-04T16:22:58.575Z</time></trkpt><trkpt lat="45.1136938" lon="7.5813568"><ele>284.0</ele><time>2026-04-04T16:22:59.576Z</time></trkpt><trkpt lat="45.1137119" lon="7.5814725"><ele>284.0</ele><time>2026-04-04T16:23:00.575Z</time></trkpt><trkpt lat="45.1137654" lon="7.5815423"><ele>284.0</ele><time>2026-04-04T16:23:01.575Z</time></trkpt><trkpt lat="45.1138355" lon="7.5815882"><ele>284.0</ele><time>2026-04-04T16:23:02.575Z</time></trkpt><trkpt lat="45.1139052" lon="7.5816406"><ele>284.0</ele><time>2026-04-04T16:23:03.576Z</time></trkpt><trkpt lat="45.1139773" lon="7.5817061"><ele>284.0</ele><time>2026-04-04T16:23:04.575Z</time></trkpt><trkpt lat="45.1140431" lon="7.581787"><ele>284.0</ele><time>2026-04-04T16:23:05.576Z</time></trkpt><trkpt lat="45.1141127" lon="7.5818846"><ele>284.0</ele><time>2026-04-04T16:23:06.575Z</time></trkpt><trkpt lat="45.114191" lon="7.581995"><ele>284.0</ele><time>2026-04-04T16:23:07.576Z</time></trkpt><trkpt lat="45.1142761" lon="7.582114"><ele>284.0</ele><time>2026-04-04T16:23:08.575Z</time></trkpt><trkpt lat="45.1143605" lon="7.5822437"><ele>284.0</ele><time>2026-04-04T16:23:09.575Z</time></trkpt><trkpt lat="45.1144436" lon="7.5823775"><ele>284.0</ele><time>2026-04-04T16:23:10.575Z</time></trkpt><trkpt lat="45.1145275" lon="7.5825202"><ele>284.0</ele><time>2026-04-04T16:23:11.576Z</time></trkpt><trkpt lat="45.1146116" lon="7.5826782"><ele>284.0</ele><time>2026-04-04T16:23:12.576Z</time></trkpt><trkpt lat="45.1147044" lon="7.5828443"><ele>284.0</ele><time>2026-04-04T16:23:13.575Z</time></trkpt><trkpt lat="45.1148029" lon="7.5830243"><ele>283.33333333333337</ele><time>2026-04-04T16:23:14.575Z</time></trkpt><trkpt lat="45.1149065" lon="7.5832166"><ele>282.6666666666667</ele><time>2026-04-04T16:23:15.575Z</time></trkpt><trkpt lat="45.1150205" lon="7.5834215"><ele>282.0</ele><time>2026-04-04T16:23:16.575Z</time></trkpt><trkpt lat="45.1151514" lon="7.583656"><ele>282.0</ele><time>2026-04-04T16:23:17.576Z</time></trkpt><trkpt lat="45.1152958" lon="7.5839173"><ele>282.0</ele><time>2026-04-04T16:23:18.575Z</time></trkpt><trkpt lat="45.1154513" lon="7.5842134"><ele>282.0</ele><time>2026-04-04T16:23:19.575Z</time></trkpt><trkpt lat="45.1156131" lon="7.5845314"><ele>282.0</ele><time>2026-04-04T16:23:20.575Z</time></trkpt><trkpt lat="45.1157768" lon="7.5848685"><ele>282.5</ele><time>2026-04-04T16:23:21.575Z</time></trkpt><trkpt lat="45.1159344" lon="7.5852342"><ele>283.0</ele><time>2026-04-04T16:23:22.575Z</time></trkpt><trkpt lat="45.1160817" lon="7.5856206"><ele>283.0</ele><time>2026-04-04T16:23:23.575Z</time></trkpt><trkpt lat="45.1162114" lon="7.5860089"><ele>283.0</ele><time>2026-04-04T16:23:24.575Z</time></trkpt><trkpt lat="45.1163279" lon="7.5863778"><ele>283.0</ele><time>2026-04-04T16:23:25.574Z</time></trkpt><trkpt lat="45.1164361" lon="7.5867232"><ele>283.0</ele><time>2026-04-04T16:23:26.575Z</time></trkpt><trkpt lat="45.1165404" lon="7.5870513"><ele>281.5</ele><time>2026-04-04T16:23:27.574Z</time></trkpt><trkpt lat="45.1166391" lon="7.5873626"><ele>280.0</ele><time>2026-04-04T16:23:28.574Z</time></trkpt><trkpt lat="45.11674" lon="7.5876721"><ele>281.0</ele><time>2026-04-04T16:23:29.575Z</time></trkpt><trkpt lat="45.1168432" lon="7.5879927"><ele>282.0</ele><time>2026-04-04T16:23:30.575Z</time></trkpt><trkpt lat="45.1169271" lon="7.5883244"><ele>282.0</ele><time>2026-04-04T16:23:31.575Z</time></trkpt><trkpt lat="45.1169966" lon="7.5886408"><ele>282.0</ele><time>2026-04-04T16:23:32.575Z</time></trkpt><trkpt lat="45.1170402" lon="7.5889314"><ele>282.0</ele><time>2026-04-04T16:23:33.575Z</time></trkpt><trkpt lat="45.1170692" lon="7.5891905"><ele>282.0</ele><time>2026-04-04T16:23:34.575Z</time></trkpt><trkpt lat="45.1170839" lon="7.5894064"><ele>282.0</ele><time>2026-04-04T16:23:35.575Z</time></trkpt><trkpt lat="45.1170733" lon="7.5895827"><ele>282.0</ele><time>2026-04-04T16:23:36.574Z</time></trkpt><trkpt lat="45.1170415" lon="7.5897136"><ele>282.0</ele><time>2026-04-04T16:23:37.576Z</time></trkpt><trkpt lat="45.1169822" lon="7.5898174"><ele>281.5</ele><time>2026-04-04T16:23:38.576Z</time></trkpt><trkpt lat="45.1169085" lon="7.5899091"><ele>281.0</ele><time>2026-04-04T16:23:39.575Z</time></trkpt><trkpt lat="45.1168086" lon="7.5899977"><ele>280.5</ele><time>2026-04-04T16:23:40.576Z</time></trkpt><trkpt lat="45.1166761" lon="7.5900743"><ele>280.0</ele><time>2026-04-04T16:23:41.575Z</time></trkpt><trkpt lat="45.1165179" lon="7.5901324"><ele>280.0</ele><time>2026-04-04T16:23:42.575Z</time></trkpt><trkpt lat="45.1163385" lon="7.5901912"><ele>280.0</ele><time>2026-04-04T16:23:43.575Z</time></trkpt><trkpt lat="45.1161412" lon="7.5902491"><ele>280.0</ele><time>2026-04-04T16:23:44.574Z</time></trkpt><trkpt lat="45.1159301" lon="7.5903021"><ele>280.3333333333333</ele><time>2026-04-04T16:23:45.574Z</time></trkpt><trkpt lat="45.1157131" lon="7.5903591"><ele>280.6666666666667</ele><time>2026-04-04T16:23:46.574Z</time></trkpt><trkpt lat="45.1154925" lon="7.5904351"><ele>281.0</ele><time>2026-04-04T16:23:47.574Z</time></trkpt><trkpt lat="45.1152758" lon="7.5905331"><ele>281.0</ele><time>2026-04-04T16:23:48.574Z</time></trkpt><trkpt lat="45.11506" lon="7.5906316"><ele>281.0</ele><time>2026-04-04T16:23:49.574Z</time></trkpt><trkpt lat="45.1148468" lon="7.5907268"><ele>281.0</ele><time>2026-04-04T16:23:50.574Z</time></trkpt><trkpt lat="45.1146275" lon="7.59083"><ele>281.0</ele><time>2026-04-04T16:23:51.573Z</time></trkpt><trkpt lat="45.1144048" lon="7.5909303"><ele>281.0</ele><time>2026-04-04T16:23:52.573Z</time></trkpt><trkpt lat="45.1141763" lon="7.591031"><ele>281.0</ele><time>2026-04-04T16:23:53.574Z</time></trkpt><trkpt lat="45.1139378" lon="7.5911359"><ele>280.0</ele><time>2026-04-04T16:23:54.574Z</time></trkpt><trkpt lat="45.1136997" lon="7.591246"><ele>279.0</ele><time>2026-04-04T16:23:55.575Z</time></trkpt><trkpt lat="45.1134558" lon="7.5913511"><ele>280.5</ele><time>2026-04-04T16:23:56.574Z</time></trkpt><trkpt lat="45.1132085" lon="7.5914607"><ele>282.0</ele><time>2026-04-04T16:23:57.575Z</time></trkpt><trkpt lat="45.1129821" lon="7.5915614"><ele>282.0</ele><time>2026-04-04T16:23:58.574Z</time></trkpt><trkpt lat="45.112769" lon="7.5916521"><ele>282.0</ele><time>2026-04-04T16:23:59.574Z</time></trkpt><trkpt lat="45.1125664" lon="7.5917437"><ele>282.0</ele><time>2026-04-04T16:24:00.574Z</time></trkpt><trkpt lat="45.1123795" lon="7.5918269"><ele>282.3333333333333</ele><time>2026-04-04T16:24:01.575Z</time></trkpt><trkpt lat="45.1122072" lon="7.5919013"><ele>282.66666666666663</ele><time>2026-04-04T16:24:02.575Z</time></trkpt><trkpt lat="45.1120359" lon="7.5919777"><ele>283.0</ele><time>2026-04-04T16:24:03.575Z</time></trkpt><trkpt lat="45.1118476" lon="7.5920683"><ele>283.0</ele><time>2026-04-04T16:24:04.575Z</time></trkpt><trkpt lat="45.1116402" lon="7.5921655"><ele>283.0</ele><time>2026-04-04T16:24:05.574Z</time></trkpt><trkpt lat="45.1114366" lon="7.59227"><ele>283.0</ele><time>2026-04-04T16:24:06.574Z</time></trkpt><trkpt lat="45.1112477" lon="7.5923861"><ele>282.5</ele><time>2026-04-04T16:24:07.574Z</time></trkpt><trkpt lat="45.1110531" lon="7.5925279"><ele>282.0</ele><time>2026-04-04T16:24:08.574Z</time></trkpt><trkpt lat="45.1108401" lon="7.5926988"><ele>281.5</ele><time>2026-04-04T16:24:09.574Z</time></trkpt><trkpt lat="45.1106146" lon="7.5928932"><ele>281.0</ele><time>2026-04-04T16:24:10.574Z</time></trkpt><trkpt lat="45.1103815" lon="7.5931128"><ele>281.0</ele><time>2026-04-04T16:24:11.573Z</time></trkpt><trkpt lat="45.110168" lon="7.593339"><ele>281.0</ele><time>2026-04-04T16:24:12.573Z</time></trkpt><trkpt lat="45.1099723" lon="7.5935512"><ele>281.0</ele><time>2026-04-04T16:24:13.574Z</time></trkpt><trkpt lat="45.1097908" lon="7.5937517"><ele>281.0</ele><time>2026-04-04T16:24:14.574Z</time></trkpt><trkpt lat="45.1096221" lon="7.5939394"><ele>281.0</ele><time>2026-04-04T16:24:15.574Z</time></trkpt><trkpt lat="45.1094653" lon="7.5941145"><ele>281.0</ele><time>2026-04-04T16:24:16.574Z</time></trkpt><trkpt lat="45.1093258" lon="7.5942732"><ele>281.0</ele><time>2026-04-04T16:24:17.575Z</time></trkpt><trkpt lat="45.1091961" lon="7.5944208"><ele>281.0</ele><time>2026-04-04T16:24:18.574Z</time></trkpt><trkpt lat="45.1090762" lon="7.5945472"><ele>281.40000000000003</ele><time>2026-04-04T16:24:19.574Z</time></trkpt><trkpt lat="45.1089742" lon="7.5946385"><ele>281.8</ele><time>2026-04-04T16:24:20.573Z</time></trkpt><trkpt lat="45.1088947" lon="7.5946971"><ele>282.20000000000005</ele><time>2026-04-04T16:24:21.574Z</time></trkpt><trkpt lat="45.1088336" lon="7.594726"><ele>282.6</ele><time>2026-04-04T16:24:22.575Z</time></trkpt><trkpt lat="45.1086941" lon="7.5947383"><ele>283.0</ele><time>2026-04-04T16:24:24.574Z</time></trkpt><trkpt lat="45.1086143" lon="7.59475"><ele>283.0</ele><time>2026-04-04T16:24:25.574Z</time></trkpt><trkpt lat="45.108541" lon="7.5947949"><ele>283.0</ele><time>2026-04-04T16:24:26.575Z</time></trkpt><trkpt lat="45.1084879" lon="7.5948665"><ele>283.0</ele><time>2026-04-04T16:24:27.573Z</time></trkpt><trkpt lat="45.1084569" lon="7.5949582"><ele>283.0</ele><time>2026-04-04T16:24:28.575Z</time></trkpt><trkpt lat="45.1084458" lon="7.5950576"><ele>283.0</ele><time>2026-04-04T16:24:29.573Z</time></trkpt><trkpt lat="45.1084487" lon="7.5951569"><ele>283.0</ele><time>2026-04-04T16:24:30.573Z</time></trkpt><trkpt lat="45.1084463" lon="7.5952547"><ele>283.0</ele><time>2026-04-04T16:24:31.573Z</time></trkpt><trkpt lat="45.1084155" lon="7.595375"><ele>282.8</ele><time>2026-04-04T16:24:32.575Z</time></trkpt><trkpt lat="45.1083552" lon="7.5954854"><ele>282.6</ele><time>2026-04-04T16:24:33.574Z</time></trkpt><trkpt lat="45.1082686" lon="7.5955835"><ele>282.4</ele><time>2026-04-04T16:24:34.574Z</time></trkpt><trkpt lat="45.1081721" lon="7.5956693"><ele>282.2</ele><time>2026-04-04T16:24:35.574Z</time></trkpt><trkpt lat="45.1080657" lon="7.5957576"><ele>282.0</ele><time>2026-04-04T16:24:36.574Z</time></trkpt><trkpt lat="45.1079507" lon="7.5958471"><ele>281.75</ele><time>2026-04-04T16:24:37.575Z</time></trkpt><trkpt lat="45.1078279" lon="7.5959389"><ele>281.5</ele><time>2026-04-04T16:24:38.574Z</time></trkpt><trkpt lat="45.1077085" lon="7.5960354"><ele>281.25</ele><time>2026-04-04T16:24:39.575Z</time></trkpt><trkpt lat="45.1075963" lon="7.5961364"><ele>281.0</ele><time>2026-04-04T16:24:40.574Z</time></trkpt><trkpt lat="45.107487" lon="7.59624"><ele>281.25</ele><time>2026-04-04T16:24:41.574Z</time></trkpt><trkpt lat="45.1073772" lon="7.5963616"><ele>281.5</ele><time>2026-04-04T16:24:42.574Z</time></trkpt><trkpt lat="45.1072654" lon="7.5964972"><ele>281.75</ele><time>2026-04-04T16:24:43.574Z</time></trkpt><trkpt lat="45.107157" lon="7.5966437"><ele>282.0</ele><time>2026-04-04T16:24:44.574Z</time></trkpt><trkpt lat="45.1070421" lon="7.5968019"><ele>282.0</ele><time>2026-04-04T16:24:45.575Z</time></trkpt><trkpt lat="45.1069221" lon="7.5969687"><ele>282.0</ele><time>2026-04-04T16:24:46.575Z</time></trkpt><trkpt lat="45.1068007" lon="7.597143"><ele>282.0</ele><time>2026-04-04T16:24:47.573Z</time></trkpt><trkpt lat="45.1066772" lon="7.5973211"><ele>282.3333333333333</ele><time>2026-04-04T16:24:48.575Z</time></trkpt><trkpt lat="45.1065509" lon="7.5974996"><ele>282.66666666666663</ele><time>2026-04-04T16:24:49.573Z</time></trkpt><trkpt lat="45.1064256" lon="7.5976793"><ele>283.0</ele><time>2026-04-04T16:24:50.574Z</time></trkpt><trkpt lat="45.1063028" lon="7.5978576"><ele>283.0</ele><time>2026-04-04T16:24:51.574Z</time></trkpt><trkpt lat="45.1061824" lon="7.5980357"><ele>283.0</ele><time>2026-04-04T16:24:52.574Z</time></trkpt><trkpt lat="45.1060639" lon="7.5982152"><ele>283.0</ele><time>2026-04-04T16:24:53.575Z</time></trkpt><trkpt lat="45.1059499" lon="7.5984023"><ele>283.0</ele><time>2026-04-04T16:24:54.574Z</time></trkpt><trkpt lat="45.1058483" lon="7.5985984"><ele>283.0</ele><time>2026-04-04T16:24:55.574Z</time></trkpt><trkpt lat="45.105753" lon="7.5988068"><ele>283.0</ele><time>2026-04-04T16:24:56.575Z</time></trkpt><trkpt lat="45.1057022" lon="7.5990381"><ele>282.3333333333333</ele><time>2026-04-04T16:24:57.573Z</time></trkpt><trkpt lat="45.1056694" lon="7.5992767"><ele>281.6666666666667</ele><time>2026-04-04T16:24:58.574Z</time></trkpt><trkpt lat="45.1056548" lon="7.59952"><ele>281.0</ele><time>2026-04-04T16:24:59.574Z</time></trkpt><trkpt lat="45.1056572" lon="7.5997643"><ele>280.33333333333337</ele><time>2026-04-04T16:25:00.574Z</time></trkpt><trkpt lat="45.1056581" lon="7.5999994"><ele>279.6666666666667</ele><time>2026-04-04T16:25:01.574Z</time></trkpt><trkpt lat="45.1056529" lon="7.6002362"><ele>279.0</ele><time>2026-04-04T16:25:02.575Z</time></trkpt><trkpt lat="45.1056362" lon="7.6004678"><ele>279.0</ele><time>2026-04-04T16:25:03.574Z</time></trkpt><trkpt lat="45.1056063" lon="7.6006955"><ele>279.0</ele><time>2026-04-04T16:25:04.573Z</time></trkpt><trkpt lat="45.1055607" lon="7.6009309"><ele>279.0</ele><time>2026-04-04T16:25:05.574Z</time></trkpt><trkpt lat="45.1055057" lon="7.6011648"><ele>278.3333333333333</ele><time>2026-04-04T16:25:06.574Z</time></trkpt><trkpt lat="45.1054398" lon="7.6014187"><ele>277.66666666666663</ele><time>2026-04-04T16:25:07.574Z</time></trkpt><trkpt lat="45.105369" lon="7.6016806"><ele>277.0</ele><time>2026-04-04T16:25:08.573Z</time></trkpt><trkpt lat="45.1052963" lon="7.6019421"><ele>277.0</ele><time>2026-04-04T16:25:09.573Z</time></trkpt><trkpt lat="45.1052107" lon="7.6022652"><ele>277.0</ele><time>2026-04-04T16:25:10.574Z</time></trkpt><trkpt lat="45.1051049" lon="7.6026855"><ele>276.5</ele><time>2026-04-04T16:25:11.574Z</time></trkpt><trkpt lat="45.1049986" lon="7.6030347"><ele>276.0</ele><time>2026-04-04T16:25:12.574Z</time></trkpt><trkpt lat="45.1048888" lon="7.6033973"><ele>275.5</ele><time>2026-04-04T16:25:13.574Z</time></trkpt><trkpt lat="45.1047971" lon="7.603769"><ele>275.0</ele><time>2026-04-04T16:25:14.575Z</time></trkpt><trkpt lat="45.1047257" lon="7.6041603"><ele>275.5</ele><time>2026-04-04T16:25:15.575Z</time></trkpt><trkpt lat="45.1046826" lon="7.6045572"><ele>276.0</ele><time>2026-04-04T16:25:16.574Z</time></trkpt><trkpt lat="45.1046527" lon="7.6049411"><ele>276.0</ele><time>2026-04-04T16:25:17.573Z</time></trkpt><trkpt lat="45.1046024" lon="7.6053205"><ele>276.0</ele><time>2026-04-04T16:25:18.575Z</time></trkpt><trkpt lat="45.1045372" lon="7.6056944"><ele>276.0</ele><time>2026-04-04T16:25:19.575Z</time></trkpt><trkpt lat="45.1044642" lon="7.6060527"><ele>276.0</ele><time>2026-04-04T16:25:20.574Z</time></trkpt><trkpt lat="45.1043993" lon="7.6064051"><ele>274.5</ele><time>2026-04-04T16:25:21.575Z</time></trkpt><trkpt lat="45.1043471" lon="7.6067579"><ele>273.0</ele><time>2026-04-04T16:25:22.575Z</time></trkpt><trkpt lat="45.1043025" lon="7.6071103"><ele>273.0</ele><time>2026-04-04T16:25:23.573Z</time></trkpt><trkpt lat="45.1042666" lon="7.6074695"><ele>273.0</ele><time>2026-04-04T16:25:24.574Z</time></trkpt><trkpt lat="45.1042395" lon="7.607832"><ele>273.0</ele><time>2026-04-04T16:25:25.574Z</time></trkpt><trkpt lat="45.1042193" lon="7.6081933"><ele>273.0</ele><time>2026-04-04T16:25:26.575Z</time></trkpt><trkpt lat="45.1041975" lon="7.6085399"><ele>273.0</ele><time>2026-04-04T16:25:27.573Z</time></trkpt><trkpt lat="45.1041794" lon="7.6088696"><ele>273.0</ele><time>2026-04-04T16:25:28.575Z</time></trkpt><trkpt lat="45.1041691" lon="7.6091879"><ele>273.0</ele><time>2026-04-04T16:25:29.574Z</time></trkpt><trkpt lat="45.1041592" lon="7.6094939"><ele>273.0</ele><time>2026-04-04T16:25:30.574Z</time></trkpt><trkpt lat="45.1041458" lon="7.6098026"><ele>273.0</ele><time>2026-04-04T16:25:31.574Z</time></trkpt><trkpt lat="45.1041314" lon="7.6101105"><ele>273.0</ele><time>2026-04-04T16:25:32.575Z</time></trkpt><trkpt lat="45.1041043" lon="7.6104102"><ele>273.0</ele><time>2026-04-04T16:25:33.575Z</time></trkpt><trkpt lat="45.1040583" lon="7.6106907"><ele>273.0</ele><time>2026-04-04T16:25:34.574Z</time></trkpt><trkpt lat="45.1040022" lon="7.6109566"><ele>273.0</ele><time>2026-04-04T16:25:35.574Z</time></trkpt><trkpt lat="45.1039273" lon="7.6112159"><ele>273.0</ele><time>2026-04-04T16:25:36.575Z</time></trkpt><trkpt lat="45.1038289" lon="7.6114546"><ele>273.0</ele><time>2026-04-04T16:25:37.575Z</time></trkpt><trkpt lat="45.1037086" lon="7.6116819"><ele>273.0</ele><time>2026-04-04T16:25:38.575Z</time></trkpt><trkpt lat="45.1035731" lon="7.6118942"><ele>273.0</ele><time>2026-04-04T16:25:39.574Z</time></trkpt><trkpt lat="45.1034276" lon="7.6120927"><ele>273.0</ele><time>2026-04-04T16:25:40.574Z</time></trkpt><trkpt lat="45.1032676" lon="7.6122728"><ele>272.3333333333333</ele><time>2026-04-04T16:25:41.575Z</time></trkpt><trkpt lat="45.1031014" lon="7.6124464"><ele>271.66666666666663</ele><time>2026-04-04T16:25:42.575Z</time></trkpt><trkpt lat="45.1029341" lon="7.6126189"><ele>271.0</ele><time>2026-04-04T16:25:43.574Z</time></trkpt><trkpt lat="45.1027795" lon="7.6127885"><ele>271.0</ele><time>2026-04-04T16:25:44.574Z</time></trkpt><trkpt lat="45.102628" lon="7.6129508"><ele>271.0</ele><time>2026-04-04T16:25:45.574Z</time></trkpt><trkpt lat="45.1024773" lon="7.6131066"><ele>271.0</ele><time>2026-04-04T16:25:46.575Z</time></trkpt><trkpt lat="45.1023274" lon="7.6132644"><ele>271.3333333333333</ele><time>2026-04-04T16:25:47.574Z</time></trkpt><trkpt lat="45.1021753" lon="7.6134251"><ele>271.6666666666667</ele><time>2026-04-04T16:25:48.574Z</time></trkpt><trkpt lat="45.1020191" lon="7.6135827"><ele>272.0</ele><time>2026-04-04T16:25:49.575Z</time></trkpt><trkpt lat="45.1018592" lon="7.613736"><ele>272.0</ele><time>2026-04-04T16:25:50.574Z</time></trkpt><trkpt lat="45.1016989" lon="7.6138913"><ele>272.0</ele><time>2026-04-04T16:25:51.574Z</time></trkpt><trkpt lat="45.1015373" lon="7.6140502"><ele>272.0</ele><time>2026-04-04T16:25:52.575Z</time></trkpt><trkpt lat="45.1013701" lon="7.6142131"><ele>272.0</ele><time>2026-04-04T16:25:53.574Z</time></trkpt><trkpt lat="45.1012105" lon="7.6143793"><ele>272.0</ele><time>2026-04-04T16:25:54.575Z</time></trkpt><trkpt lat="45.1010566" lon="7.6145505"><ele>272.0</ele><time>2026-04-04T16:25:55.574Z</time></trkpt><trkpt lat="45.10091" lon="7.6147178"><ele>272.33333333333337</ele><time>2026-04-04T16:25:56.573Z</time></trkpt><trkpt lat="45.1007691" lon="7.6148848"><ele>272.6666666666667</ele><time>2026-04-04T16:25:57.575Z</time></trkpt><trkpt lat="45.1006379" lon="7.6150549"><ele>273.0</ele><time>2026-04-04T16:25:58.574Z</time></trkpt><trkpt lat="45.1003949" lon="7.6154135"><ele>271.5</ele><time>2026-04-04T16:26:00.657Z</time></trkpt><trkpt lat="45.100205" lon="7.6157509"><ele>270.0</ele><time>2026-04-04T16:26:02.574Z</time></trkpt><trkpt lat="45.1001171" lon="7.615922"><ele>270.0</ele><time>2026-04-04T16:26:03.574Z</time></trkpt><trkpt lat="45.1000305" lon="7.6161081"><ele>270.0</ele><time>2026-04-04T16:26:04.574Z</time></trkpt><trkpt lat="45.0999499" lon="7.6162865"><ele>270.0</ele><time>2026-04-04T16:26:05.575Z</time></trkpt><trkpt lat="45.0998767" lon="7.6164647"><ele>270.0</ele><time>2026-04-04T16:26:06.574Z</time></trkpt><trkpt lat="45.0998056" lon="7.6166382"><ele>270.0</ele><time>2026-04-04T16:26:07.574Z</time></trkpt><trkpt lat="45.0997349" lon="7.6168109"><ele>270.0</ele><time>2026-04-04T16:26:08.574Z</time></trkpt><trkpt lat="45.099673" lon="7.6169869"><ele>270.0</ele><time>2026-04-04T16:26:09.574Z</time></trkpt><trkpt lat="45.0995997" lon="7.6171751"><ele>270.0</ele><time>2026-04-04T16:26:10.574Z</time></trkpt><trkpt lat="45.099521" lon="7.6173589"><ele>270.0</ele><time>2026-04-04T16:26:11.573Z</time></trkpt><trkpt lat="45.0994461" lon="7.6175425"><ele>270.0</ele><time>2026-04-04T16:26:12.574Z</time></trkpt><trkpt lat="45.0993725" lon="7.6177224"><ele>270.0</ele><time>2026-04-04T16:26:13.574Z</time></trkpt><trkpt lat="45.0993053" lon="7.6178958"><ele>269.75</ele><time>2026-04-04T16:26:14.575Z</time></trkpt><trkpt lat="45.0992371" lon="7.618066"><ele>269.5</ele><time>2026-04-04T16:26:15.573Z</time></trkpt><trkpt lat="45.0991697" lon="7.6182358"><ele>269.25</ele><time>2026-04-04T16:26:16.574Z</time></trkpt><trkpt lat="45.0991027" lon="7.6184018"><ele>269.0</ele><time>2026-04-04T16:26:17.574Z</time></trkpt><trkpt lat="45.0990368" lon="7.6185637"><ele>268.75</ele><time>2026-04-04T16:26:18.574Z</time></trkpt><trkpt lat="45.0989733" lon="7.6187267"><ele>268.5</ele><time>2026-04-04T16:26:19.574Z</time></trkpt><trkpt lat="45.0989055" lon="7.6188875"><ele>268.25</ele><time>2026-04-04T16:26:20.575Z</time></trkpt><trkpt lat="45.0988442" lon="7.6190478"><ele>268.0</ele><time>2026-04-04T16:26:21.575Z</time></trkpt><trkpt lat="45.0987831" lon="7.6192033"><ele>268.0</ele><time>2026-04-04T16:26:22.575Z</time></trkpt><trkpt lat="45.0987219" lon="7.6193579"><ele>268.0</ele><time>2026-04-04T16:26:23.573Z</time></trkpt><trkpt lat="45.0986569" lon="7.6195232"><ele>268.0</ele><time>2026-04-04T16:26:24.575Z</time></trkpt><trkpt lat="45.0985904" lon="7.6196953"><ele>268.0</ele><time>2026-04-04T16:26:25.574Z</time></trkpt><trkpt lat="45.0985267" lon="7.619859"><ele>268.0</ele><time>2026-04-04T16:26:26.574Z</time></trkpt><trkpt lat="45.0984588" lon="7.6200186"><ele>268.0</ele><time>2026-04-04T16:26:27.573Z</time></trkpt><trkpt lat="45.0983837" lon="7.6201844"><ele>268.0</ele><time>2026-04-04T16:26:28.573Z</time></trkpt><trkpt lat="45.0983055" lon="7.6203556"><ele>268.0</ele><time>2026-04-04T16:26:29.575Z</time></trkpt><trkpt lat="45.0982258" lon="7.6205356"><ele>268.0</ele><time>2026-04-04T16:26:30.574Z</time></trkpt><trkpt lat="45.0981457" lon="7.6207119"><ele>268.0</ele><time>2026-04-04T16:26:31.574Z</time></trkpt><trkpt lat="45.098062" lon="7.62089"><ele>268.0</ele><time>2026-04-04T16:26:32.573Z</time></trkpt><trkpt lat="45.0979682" lon="7.6210552"><ele>268.0</ele><time>2026-04-04T16:26:33.573Z</time></trkpt><trkpt lat="45.0978675" lon="7.6212125"><ele>267.0</ele><time>2026-04-04T16:26:34.574Z</time></trkpt><trkpt lat="45.0977493" lon="7.6213641"><ele>266.0</ele><time>2026-04-04T16:26:35.574Z</time></trkpt><trkpt lat="45.097619" lon="7.6215074"><ele>265.0</ele><time>2026-04-04T16:26:36.575Z</time></trkpt><trkpt lat="45.0974763" lon="7.6216276"><ele>263.0</ele><time>2026-04-04T16:26:37.575Z</time></trkpt><trkpt lat="45.097329" lon="7.6217123"><ele>261.0</ele><time>2026-04-04T16:26:38.574Z</time></trkpt><trkpt lat="45.0971782" lon="7.6217556"><ele>259.0</ele><time>2026-04-04T16:26:39.574Z</time></trkpt><trkpt lat="45.0970254" lon="7.6217502"><ele>259.0</ele><time>2026-04-04T16:26:40.574Z</time></trkpt><trkpt lat="45.0968692" lon="7.6217129"><ele>259.0</ele><time>2026-04-04T16:26:41.574Z</time></trkpt><trkpt lat="45.0967154" lon="7.6216489"><ele>259.0</ele><time>2026-04-04T16:26:42.574Z</time></trkpt><trkpt lat="45.0965665" lon="7.6215571"><ele>258.66666666666663</ele><time>2026-04-04T16:26:43.575Z</time></trkpt><trkpt lat="45.0964324" lon="7.621453"><ele>258.3333333333333</ele><time>2026-04-04T16:26:44.574Z</time></trkpt><trkpt lat="45.096304" lon="7.621336"><ele>258.0</ele><time>2026-04-04T16:26:45.573Z</time></trkpt><trkpt lat="45.0961784" lon="7.6212038"><ele>258.0</ele><time>2026-04-04T16:26:46.574Z</time></trkpt><trkpt lat="45.0960502" lon="7.621056"><ele>258.0</ele><time>2026-04-04T16:26:47.574Z</time></trkpt><trkpt lat="45.0959102" lon="7.620899"><ele>258.0</ele><time>2026-04-04T16:26:48.574Z</time></trkpt><trkpt lat="45.0957558" lon="7.6207365"><ele>257.3333333333333</ele><time>2026-04-04T16:26:49.575Z</time></trkpt><trkpt lat="45.0955909" lon="7.620559"><ele>256.66666666666663</ele><time>2026-04-04T16:26:50.574Z</time></trkpt><trkpt lat="45.0954264" lon="7.620362"><ele>256.0</ele><time>2026-04-04T16:26:51.575Z</time></trkpt><trkpt lat="45.0952604" lon="7.6201431"><ele>256.0</ele><time>2026-04-04T16:26:52.574Z</time></trkpt><trkpt lat="45.0950975" lon="7.6199207"><ele>256.0</ele><time>2026-04-04T16:26:53.574Z</time></trkpt><trkpt lat="45.0949296" lon="7.6196873"><ele>256.5</ele><time>2026-04-04T16:26:54.574Z</time></trkpt><trkpt lat="45.0947573" lon="7.6194486"><ele>257.0</ele><time>2026-04-04T16:26:55.575Z</time></trkpt><trkpt lat="45.0945818" lon="7.6192097"><ele>257.0</ele><time>2026-04-04T16:26:56.574Z</time></trkpt><trkpt lat="45.0944075" lon="7.6189652"><ele>257.0</ele><time>2026-04-04T16:26:57.574Z</time></trkpt><trkpt lat="45.0942323" lon="7.6187126"><ele>256.0</ele><time>2026-04-04T16:26:58.574Z</time></trkpt><trkpt lat="45.0940616" lon="7.618468"><ele>255.0</ele><time>2026-04-04T16:26:59.574Z</time></trkpt><trkpt lat="45.0938871" lon="7.6182241"><ele>255.0</ele><time>2026-04-04T16:27:00.574Z</time></trkpt><trkpt lat="45.0937114" lon="7.6179785"><ele>255.0</ele><time>2026-04-04T16:27:01.574Z</time></trkpt><trkpt lat="45.093539" lon="7.6177342"><ele>255.0</ele><time>2026-04-04T16:27:02.576Z</time></trkpt><trkpt lat="45.0933604" lon="7.6174927"><ele>255.0</ele><time>2026-04-04T16:27:03.574Z</time></trkpt><trkpt lat="45.0931755" lon="7.6172598"><ele>255.0</ele><time>2026-04-04T16:27:04.574Z</time></trkpt><trkpt lat="45.0929873" lon="7.617034"><ele>255.0</ele><time>2026-04-04T16:27:05.574Z</time></trkpt><trkpt lat="45.0927889" lon="7.6168207"><ele>256.0</ele><time>2026-04-04T16:27:06.574Z</time></trkpt><trkpt lat="45.0925903" lon="7.6166145"><ele>257.0</ele><time>2026-04-04T16:27:07.575Z</time></trkpt><trkpt lat="45.0923874" lon="7.6164135"><ele>257.0</ele><time>2026-04-04T16:27:08.574Z</time></trkpt><trkpt lat="45.0921835" lon="7.6162208"><ele>257.0</ele><time>2026-04-04T16:27:09.575Z</time></trkpt><trkpt lat="45.0919705" lon="7.6160392"><ele>257.0</ele><time>2026-04-04T16:27:10.574Z</time></trkpt><trkpt lat="45.0917567" lon="7.6158691"><ele>257.0</ele><time>2026-04-04T16:27:11.575Z</time></trkpt><trkpt lat="45.0915384" lon="7.6157088"><ele>258.5</ele><time>2026-04-04T16:27:12.574Z</time></trkpt><trkpt lat="45.0913205" lon="7.6155609"><ele>260.0</ele><time>2026-04-04T16:27:13.575Z</time></trkpt><trkpt lat="45.0911031" lon="7.6154174"><ele>260.0</ele><time>2026-04-04T16:27:14.574Z</time></trkpt><trkpt lat="45.090884" lon="7.6152902"><ele>260.0</ele><time>2026-04-04T16:27:15.574Z</time></trkpt><trkpt lat="45.090664" lon="7.6151685"><ele>261.0</ele><time>2026-04-04T16:27:16.574Z</time></trkpt><trkpt lat="45.0904395" lon="7.6150542"><ele>262.0</ele><time>2026-04-04T16:27:17.574Z</time></trkpt><trkpt lat="45.0902085" lon="7.6149499"><ele>262.0</ele><time>2026-04-04T16:27:18.574Z</time></trkpt><trkpt lat="45.0899785" lon="7.6148557"><ele>262.0</ele><time>2026-04-04T16:27:19.574Z</time></trkpt><trkpt lat="45.0897428" lon="7.6147728"><ele>264.0</ele><time>2026-04-04T16:27:20.575Z</time></trkpt><trkpt lat="45.0895061" lon="7.6146981"><ele>266.0</ele><time>2026-04-04T16:27:21.573Z</time></trkpt><trkpt lat="45.0892677" lon="7.6146347"><ele>270.0</ele><time>2026-04-04T16:27:22.575Z</time></trkpt><trkpt lat="45.0890268" lon="7.6145799"><ele>274.0</ele><time>2026-04-04T16:27:23.575Z</time></trkpt><trkpt lat="45.0887829" lon="7.6145299"><ele>274.0</ele><time>2026-04-04T16:27:24.573Z</time></trkpt><trkpt lat="45.0885407" lon="7.6144908"><ele>274.0</ele><time>2026-04-04T16:27:25.574Z</time></trkpt><trkpt lat="45.0882936" lon="7.6144632"><ele>275.0</ele><time>2026-04-04T16:27:26.575Z</time></trkpt><trkpt lat="45.0880467" lon="7.6144449"><ele>276.0</ele><time>2026-04-04T16:27:27.574Z</time></trkpt><trkpt lat="45.0877983" lon="7.6144322"><ele>276.0</ele><time>2026-04-04T16:27:28.573Z</time></trkpt><trkpt lat="45.0875489" lon="7.614423"><ele>276.0</ele><time>2026-04-04T16:27:29.574Z</time></trkpt><trkpt lat="45.0872992" lon="7.6144088"><ele>276.0</ele><time>2026-04-04T16:27:30.573Z</time></trkpt><trkpt lat="45.08705" lon="7.6143877"><ele>276.0</ele><time>2026-04-04T16:27:31.574Z</time></trkpt><trkpt lat="45.0868019" lon="7.6143576"><ele>275.5</ele><time>2026-04-04T16:27:32.574Z</time></trkpt><trkpt lat="45.0865562" lon="7.6143219"><ele>275.0</ele><time>2026-04-04T16:27:33.574Z</time></trkpt><trkpt lat="45.0863131" lon="7.6142892"><ele>275.0</ele><time>2026-04-04T16:27:34.575Z</time></trkpt><trkpt lat="45.0860777" lon="7.6142578"><ele>275.0</ele><time>2026-04-04T16:27:35.573Z</time></trkpt><trkpt lat="45.0858478" lon="7.6142299"><ele>275.33333333333337</ele><time>2026-04-04T16:27:36.574Z</time></trkpt><trkpt lat="45.0856234" lon="7.6142007"><ele>275.6666666666667</ele><time>2026-04-04T16:27:37.574Z</time></trkpt><trkpt lat="45.0854009" lon="7.6141769"><ele>276.0</ele><time>2026-04-04T16:27:38.574Z</time></trkpt><trkpt lat="45.0851781" lon="7.6141615"><ele>276.0</ele><time>2026-04-04T16:27:39.574Z</time></trkpt><trkpt lat="45.0849514" lon="7.6141575"><ele>276.0</ele><time>2026-04-04T16:27:40.574Z</time></trkpt><trkpt lat="45.0847267" lon="7.6141579"><ele>276.0</ele><time>2026-04-04T16:27:41.574Z</time></trkpt><trkpt lat="45.0844994" lon="7.6141569"><ele>276.0</ele><time>2026-04-04T16:27:42.574Z</time></trkpt><trkpt lat="45.0842739" lon="7.6141643"><ele>275.6666666666667</ele><time>2026-04-04T16:27:43.575Z</time></trkpt><trkpt lat="45.0840518" lon="7.6141677"><ele>275.33333333333337</ele><time>2026-04-04T16:27:44.573Z</time></trkpt><trkpt lat="45.083834" lon="7.6141736"><ele>275.0</ele><time>2026-04-04T16:27:45.575Z</time></trkpt><trkpt lat="45.0836195" lon="7.6141778"><ele>275.0</ele><time>2026-04-04T16:27:46.574Z</time></trkpt><trkpt lat="45.0834141" lon="7.6141757"><ele>275.0</ele><time>2026-04-04T16:27:47.573Z</time></trkpt><trkpt lat="45.08322" lon="7.6141704"><ele>275.0</ele><time>2026-04-04T16:27:48.575Z</time></trkpt><trkpt lat="45.0830372" lon="7.6141591"><ele>275.6666666666667</ele><time>2026-04-04T16:27:49.573Z</time></trkpt><trkpt lat="45.0828655" lon="7.6141525"><ele>276.3333333333333</ele><time>2026-04-04T16:27:50.574Z</time></trkpt><trkpt lat="45.0827133" lon="7.6141496"><ele>277.0</ele><time>2026-04-04T16:27:51.574Z</time></trkpt><trkpt lat="45.0825806" lon="7.6141469"><ele>277.0</ele><time>2026-04-04T16:27:52.574Z</time></trkpt><trkpt lat="45.0824721" lon="7.6141485"><ele>277.0</ele><time>2026-04-04T16:27:53.574Z</time></trkpt><trkpt lat="45.0823808" lon="7.6141544"><ele>277.0</ele><time>2026-04-04T16:27:54.574Z</time></trkpt><trkpt lat="45.0823032" lon="7.614137"><ele>277.0</ele><time>2026-04-04T16:27:55.575Z</time></trkpt><trkpt lat="45.0822457" lon="7.6140787"><ele>277.0</ele><time>2026-04-04T16:27:56.574Z</time></trkpt><trkpt lat="45.0822219" lon="7.6139732"><ele>277.0</ele><time>2026-04-04T16:27:57.574Z</time></trkpt><trkpt lat="45.0822245" lon="7.6138164"><ele>277.25</ele><time>2026-04-04T16:27:58.575Z</time></trkpt><trkpt lat="45.0822259" lon="7.6136292"><ele>277.5</ele><time>2026-04-04T16:27:59.575Z</time></trkpt><trkpt lat="45.0822314" lon="7.6134466"><ele>277.75</ele><time>2026-04-04T16:28:00.574Z</time></trkpt><trkpt lat="45.0822369" lon="7.6132439"><ele>278.0</ele><time>2026-04-04T16:28:01.574Z</time></trkpt><trkpt lat="45.0822489" lon="7.613034"><ele>278.6666666666667</ele><time>2026-04-04T16:28:02.574Z</time></trkpt><trkpt lat="45.0822667" lon="7.6128142"><ele>279.3333333333333</ele><time>2026-04-04T16:28:03.573Z</time></trkpt><trkpt lat="45.0822843" lon="7.6126016"><ele>280.0</ele><time>2026-04-04T16:28:04.573Z</time></trkpt><trkpt lat="45.0823012" lon="7.6123969"><ele>280.0</ele><time>2026-04-04T16:28:05.574Z</time></trkpt><trkpt lat="45.0823129" lon="7.612202"><ele>280.0</ele><time>2026-04-04T16:28:06.574Z</time></trkpt><trkpt lat="45.0823284" lon="7.6120205"><ele>280.0</ele><time>2026-04-04T16:28:07.574Z</time></trkpt><trkpt lat="45.082345" lon="7.6118496"><ele>280.0</ele><time>2026-04-04T16:28:08.574Z</time></trkpt><trkpt lat="45.0823698" lon="7.6117009"><ele>280.0</ele><time>2026-04-04T16:28:09.574Z</time></trkpt><trkpt lat="45.0824029" lon="7.6115643"><ele>280.0</ele><time>2026-04-04T16:28:10.575Z</time></trkpt><trkpt lat="45.0824483" lon="7.6114463"><ele>280.0</ele><time>2026-04-04T16:28:11.574Z</time></trkpt><trkpt lat="45.0825022" lon="7.6113278"><ele>280.0</ele><time>2026-04-04T16:28:12.574Z</time></trkpt><trkpt lat="45.0825409" lon="7.6111807"><ele>280.0</ele><time>2026-04-04T16:28:13.575Z</time></trkpt><trkpt lat="45.0825567" lon="7.611004"><ele>279.66666666666663</ele><time>2026-04-04T16:28:14.574Z</time></trkpt><trkpt lat="45.0825632" lon="7.6107984"><ele>279.3333333333333</ele><time>2026-04-04T16:28:15.574Z</time></trkpt><trkpt lat="45.0825762" lon="7.6105791"><ele>279.0</ele><time>2026-04-04T16:28:16.575Z</time></trkpt><trkpt lat="45.0826103" lon="7.6103456"><ele>278.0</ele><time>2026-04-04T16:28:17.574Z</time></trkpt><trkpt lat="45.0826503" lon="7.610108"><ele>277.0</ele><time>2026-04-04T16:28:18.574Z</time></trkpt><trkpt lat="45.0826818" lon="7.6098556"><ele>276.0</ele><time>2026-04-04T16:28:19.573Z</time></trkpt><trkpt lat="45.082697" lon="7.6095897"><ele>276.0</ele><time>2026-04-04T16:28:20.574Z</time></trkpt><trkpt lat="45.0826935" lon="7.6093149"><ele>276.0</ele><time>2026-04-04T16:28:21.574Z</time></trkpt><trkpt lat="45.0826742" lon="7.6090283"><ele>276.0</ele><time>2026-04-04T16:28:22.574Z</time></trkpt><trkpt lat="45.0826435" lon="7.6087226"><ele>275.5</ele><time>2026-04-04T16:28:23.574Z</time></trkpt><trkpt lat="45.0826041" lon="7.608399"><ele>275.0</ele><time>2026-04-04T16:28:24.573Z</time></trkpt><trkpt lat="45.082564" lon="7.6080762"><ele>275.5</ele><time>2026-04-04T16:28:25.573Z</time></trkpt><trkpt lat="45.0825217" lon="7.6077495"><ele>276.0</ele><time>2026-04-04T16:28:26.575Z</time></trkpt><trkpt lat="45.0824757" lon="7.6074163"><ele>276.5</ele><time>2026-04-04T16:28:27.574Z</time></trkpt><trkpt lat="45.0824272" lon="7.6070766"><ele>277.0</ele><time>2026-04-04T16:28:28.574Z</time></trkpt><trkpt lat="45.0823849" lon="7.6067457"><ele>277.5</ele><time>2026-04-04T16:28:29.573Z</time></trkpt><trkpt lat="45.0823373" lon="7.6064247"><ele>278.0</ele><time>2026-04-04T16:28:30.574Z</time></trkpt><trkpt lat="45.0822886" lon="7.6061194"><ele>278.0</ele><time>2026-04-04T16:28:31.574Z</time></trkpt><trkpt lat="45.082234" lon="7.6058265"><ele>278.0</ele><time>2026-04-04T16:28:32.574Z</time></trkpt><trkpt lat="45.0821649" lon="7.6055433"><ele>278.0</ele><time>2026-04-04T16:28:33.574Z</time></trkpt><trkpt lat="45.0820826" lon="7.6052668"><ele>279.33333333333337</ele><time>2026-04-04T16:28:34.574Z</time></trkpt><trkpt lat="45.0819862" lon="7.6049984"><ele>280.6666666666667</ele><time>2026-04-04T16:28:35.573Z</time></trkpt><trkpt lat="45.0818721" lon="7.6047423"><ele>282.0</ele><time>2026-04-04T16:28:36.574Z</time></trkpt><trkpt lat="45.0817477" lon="7.6044919"><ele>282.0</ele><time>2026-04-04T16:28:37.574Z</time></trkpt><trkpt lat="45.0816154" lon="7.604247"><ele>282.0</ele><time>2026-04-04T16:28:38.574Z</time></trkpt><trkpt lat="45.0814788" lon="7.6039991"><ele>282.0</ele><time>2026-04-04T16:28:39.573Z</time></trkpt><trkpt lat="45.0813379" lon="7.6037502"><ele>281.3333333333333</ele><time>2026-04-04T16:28:40.574Z</time></trkpt><trkpt lat="45.0811985" lon="7.6035063"><ele>280.66666666666663</ele><time>2026-04-04T16:28:41.574Z</time></trkpt><trkpt lat="45.081066" lon="7.603268"><ele>280.0</ele><time>2026-04-04T16:28:42.573Z</time></trkpt><trkpt lat="45.0809403" lon="7.6030395"><ele>280.3333333333333</ele><time>2026-04-04T16:28:43.575Z</time></trkpt><trkpt lat="45.0808188" lon="7.602821"><ele>280.6666666666667</ele><time>2026-04-04T16:28:44.574Z</time></trkpt><trkpt lat="45.0806967" lon="7.6026015"><ele>281.0</ele><time>2026-04-04T16:28:45.575Z</time></trkpt><trkpt lat="45.0805748" lon="7.6023746"><ele>281.0</ele><time>2026-04-04T16:28:46.574Z</time></trkpt><trkpt lat="45.0804598" lon="7.6021391"><ele>281.0</ele><time>2026-04-04T16:28:47.574Z</time></trkpt><trkpt lat="45.0803509" lon="7.601891"><ele>281.0</ele><time>2026-04-04T16:28:48.574Z</time></trkpt><trkpt lat="45.0802533" lon="7.6016329"><ele>281.6666666666667</ele><time>2026-04-04T16:28:49.574Z</time></trkpt><trkpt lat="45.0801603" lon="7.6013726"><ele>282.3333333333333</ele><time>2026-04-04T16:28:50.574Z</time></trkpt><trkpt lat="45.0800921" lon="7.601094"><ele>283.0</ele><time>2026-04-04T16:28:51.574Z</time></trkpt><trkpt lat="45.0800348" lon="7.6008145"><ele>283.0</ele><time>2026-04-04T16:28:52.575Z</time></trkpt><trkpt lat="45.0799865" lon="7.6005399"><ele>283.0</ele><time>2026-04-04T16:28:53.575Z</time></trkpt><trkpt lat="45.0799595" lon="7.6002723"><ele>283.0</ele><time>2026-04-04T16:28:54.574Z</time></trkpt><trkpt lat="45.0799469" lon="7.6000315"><ele>283.0</ele><time>2026-04-04T16:28:55.574Z</time></trkpt><trkpt lat="45.0799405" lon="7.5998213"><ele>283.0</ele><time>2026-04-04T16:28:56.574Z</time></trkpt><trkpt lat="45.0799447" lon="7.5996515"><ele>283.0</ele><time>2026-04-04T16:28:57.574Z</time></trkpt><trkpt lat="45.0799676" lon="7.5995101"><ele>283.0</ele><time>2026-04-04T16:28:58.574Z</time></trkpt><trkpt lat="45.0800115" lon="7.5993975"><ele>283.2</ele><time>2026-04-04T16:28:59.574Z</time></trkpt><trkpt lat="45.0800756" lon="7.5992962"><ele>283.4</ele><time>2026-04-04T16:29:00.573Z</time></trkpt><trkpt lat="45.0801258" lon="7.5991732"><ele>283.59999999999997</ele><time>2026-04-04T16:29:01.573Z</time></trkpt><trkpt lat="45.0801412" lon="7.5990432"><ele>283.8</ele><time>2026-04-04T16:29:02.574Z</time></trkpt><trkpt lat="45.0801297" lon="7.5989237"><ele>284.0</ele><time>2026-04-04T16:29:03.573Z</time></trkpt><trkpt lat="45.0800885" lon="7.5988057"><ele>284.0</ele><time>2026-04-04T16:29:04.573Z</time></trkpt><trkpt lat="45.0800141" lon="7.5987184"><ele>284.0</ele><time>2026-04-04T16:29:05.573Z</time></trkpt><trkpt lat="45.0799253" lon="7.5986758"><ele>284.0</ele><time>2026-04-04T16:29:06.574Z</time></trkpt><trkpt lat="45.0798305" lon="7.5986798"><ele>284.0</ele><time>2026-04-04T16:29:07.573Z</time></trkpt><trkpt lat="45.0797385" lon="7.5987238"><ele>284.0</ele><time>2026-04-04T16:29:08.574Z</time></trkpt><trkpt lat="45.0796459" lon="7.5987963"><ele>285.0</ele><time>2026-04-04T16:29:09.573Z</time></trkpt><trkpt lat="45.0795388" lon="7.5988468"><ele>286.0</ele><time>2026-04-04T16:29:10.573Z</time></trkpt><trkpt lat="45.0794237" lon="7.5988448"><ele>287.0</ele><time>2026-04-04T16:29:11.573Z</time></trkpt><trkpt lat="45.0793073" lon="7.5988202"><ele>288.0</ele><time>2026-04-04T16:29:12.573Z</time></trkpt><trkpt lat="45.0791859" lon="7.598805"><ele>287.5</ele><time>2026-04-04T16:29:13.573Z</time></trkpt><trkpt lat="45.0790664" lon="7.5987912"><ele>287.0</ele><time>2026-04-04T16:29:14.574Z</time></trkpt><trkpt lat="45.0789489" lon="7.5987666"><ele>286.5</ele><time>2026-04-04T16:29:15.574Z</time></trkpt><trkpt lat="45.0788284" lon="7.5987399"><ele>286.0</ele><time>2026-04-04T16:29:16.573Z</time></trkpt><trkpt lat="45.0787004" lon="7.5987108"><ele>286.0</ele><time>2026-04-04T16:29:17.573Z</time></trkpt><trkpt lat="45.0785735" lon="7.5986815"><ele>286.0</ele><time>2026-04-04T16:29:18.574Z</time></trkpt><trkpt lat="45.0784542" lon="7.5986488"><ele>286.0</ele><time>2026-04-04T16:29:19.573Z</time></trkpt><trkpt lat="45.0783373" lon="7.5986212"><ele>286.0</ele><time>2026-04-04T16:29:20.573Z</time></trkpt><trkpt lat="45.0782271" lon="7.5985958"><ele>286.0</ele><time>2026-04-04T16:29:21.573Z</time></trkpt><trkpt lat="45.0781256" lon="7.5985765"><ele>286.0</ele><time>2026-04-04T16:29:22.573Z</time></trkpt><trkpt lat="45.0780368" lon="7.5985585"><ele>286.0</ele><time>2026-04-04T16:29:23.573Z</time></trkpt><trkpt lat="45.0779778" lon="7.5985115"><ele>286.0</ele><time>2026-04-04T16:29:24.573Z</time></trkpt><trkpt lat="45.0779531" lon="7.5983209"><ele>286.0</ele><time>2026-04-04T16:29:26.574Z</time></trkpt><trkpt lat="45.077962" lon="7.5981819"><ele>286.0</ele><time>2026-04-04T16:29:27.574Z</time></trkpt><trkpt lat="45.0779708" lon="7.5980121"><ele>286.0</ele><time>2026-04-04T16:29:28.574Z</time></trkpt><trkpt lat="45.0779821" lon="7.597835"><ele>286.0</ele><time>2026-04-04T16:29:29.573Z</time></trkpt><trkpt lat="45.0779927" lon="7.5976568"><ele>286.0</ele><time>2026-04-04T16:29:30.574Z</time></trkpt><trkpt lat="45.0780035" lon="7.5974873"><ele>286.0</ele><time>2026-04-04T16:29:31.573Z</time></trkpt><trkpt lat="45.078009" lon="7.5973216"><ele>286.0</ele><time>2026-04-04T16:29:32.573Z</time></trkpt><trkpt lat="45.0780184" lon="7.59716"><ele>286.0</ele><time>2026-04-04T16:29:33.572Z</time></trkpt><trkpt lat="45.0780282" lon="7.5970052"><ele>286.0</ele><time>2026-04-04T16:29:34.574Z</time></trkpt><trkpt lat="45.0780371" lon="7.5968592"><ele>286.0</ele><time>2026-04-04T16:29:35.574Z</time></trkpt><trkpt lat="45.0780479" lon="7.5967246"><ele>286.5</ele><time>2026-04-04T16:29:36.573Z</time></trkpt><trkpt lat="45.0780561" lon="7.5966041"><ele>287.0</ele><time>2026-04-04T16:29:37.573Z</time></trkpt><trkpt lat="45.0780607" lon="7.5965009"><ele>287.5</ele><time>2026-04-04T16:29:38.574Z</time></trkpt><trkpt lat="45.0780659" lon="7.5963725"><ele>288.0</ele><time>2026-04-04T16:29:40.573Z</time></trkpt><trkpt lat="45.0780717" lon="7.5962748"><ele>288.5</ele><time>2026-04-04T16:29:44.573Z</time></trkpt><trkpt lat="45.077993" lon="7.5961846"><ele>289.0</ele><time>2026-04-04T16:29:47.574Z</time></trkpt><trkpt lat="45.0779131" lon="7.59618"><ele>289.25</ele><time>2026-04-04T16:29:48.572Z</time></trkpt><trkpt lat="45.0777984" lon="7.5961691"><ele>289.5</ele><time>2026-04-04T16:29:49.574Z</time></trkpt><trkpt lat="45.0776789" lon="7.5961533"><ele>289.75</ele><time>2026-04-04T16:29:50.573Z</time></trkpt><trkpt lat="45.0775624" lon="7.5961363"><ele>290.0</ele><time>2026-04-04T16:29:51.573Z</time></trkpt><trkpt lat="45.0774218" lon="7.5961119"><ele>290.0</ele><time>2026-04-04T16:29:52.573Z</time></trkpt><trkpt lat="45.0772761" lon="7.5960791"><ele>290.0</ele><time>2026-04-04T16:29:53.573Z</time></trkpt><trkpt lat="45.077123" lon="7.5960396"><ele>290.0</ele><time>2026-04-04T16:29:54.573Z</time></trkpt><trkpt lat="45.0769632" lon="7.5960017"><ele>290.0</ele><time>2026-04-04T16:29:55.573Z</time></trkpt><trkpt lat="45.0768132" lon="7.5959627"><ele>290.0</ele><time>2026-04-04T16:29:56.573Z</time></trkpt><trkpt lat="45.0766725" lon="7.5959343"><ele>290.0</ele><time>2026-04-04T16:29:57.573Z</time></trkpt><trkpt lat="45.0765362" lon="7.5959066"><ele>290.0</ele><time>2026-04-04T16:29:58.572Z</time></trkpt><trkpt lat="45.076398" lon="7.5958774"><ele>290.25</ele><time>2026-04-04T16:29:59.574Z</time></trkpt><trkpt lat="45.0762629" lon="7.5958478"><ele>290.5</ele><time>2026-04-04T16:30:00.573Z</time></trkpt><trkpt lat="45.0761348" lon="7.595822"><ele>290.75</ele><time>2026-04-04T16:30:01.573Z</time></trkpt><trkpt lat="45.0760182" lon="7.5957981"><ele>291.0</ele><time>2026-04-04T16:30:02.573Z</time></trkpt><trkpt lat="45.0759255" lon="7.5957781"><ele>291.0</ele><time>2026-04-04T16:30:03.573Z</time></trkpt><trkpt lat="45.0758491" lon="7.5957616"><ele>291.0</ele><time>2026-04-04T16:30:04.574Z</time></trkpt><trkpt lat="45.0757706" lon="7.5957468"><ele>291.0</ele><time>2026-04-04T16:30:05.573Z</time></trkpt><trkpt lat="45.0756856" lon="7.5957311"><ele>291.0</ele><time>2026-04-04T16:30:06.572Z</time></trkpt><trkpt lat="45.075594" lon="7.5957094"><ele>291.0</ele><time>2026-04-04T16:30:07.573Z</time></trkpt><trkpt lat="45.0754964" lon="7.5956916"><ele>291.0</ele><time>2026-04-04T16:30:08.573Z</time></trkpt><trkpt lat="45.0754079" lon="7.5956815"><ele>291.0</ele><time>2026-04-04T16:30:09.573Z</time></trkpt><trkpt lat="45.0753286" lon="7.5956665"><ele>291.0</ele><time>2026-04-04T16:30:10.573Z</time></trkpt><trkpt lat="45.0752569" lon="7.5956395"><ele>291.0</ele><time>2026-04-04T16:30:11.573Z</time></trkpt><trkpt lat="45.0751925" lon="7.5956221"><ele>291.0</ele><time>2026-04-04T16:30:12.573Z</time></trkpt><trkpt lat="45.0751198" lon="7.5956233"><ele>291.0</ele><time>2026-04-04T16:30:13.574Z</time></trkpt><trkpt lat="45.0750394" lon="7.5956214"><ele>291.0</ele><time>2026-04-04T16:30:14.573Z</time></trkpt><trkpt lat="45.0749509" lon="7.5956111"><ele>290.6</ele><time>2026-04-04T16:30:15.573Z</time></trkpt><trkpt lat="45.0748563" lon="7.595599"><ele>290.20000000000005</ele><time>2026-04-04T16:30:16.573Z</time></trkpt><trkpt lat="45.0747565" lon="7.5955775"><ele>289.79999999999995</ele><time>2026-04-04T16:30:17.573Z</time></trkpt><trkpt lat="45.0746579" lon="7.5955615"><ele>289.4</ele><time>2026-04-04T16:30:18.572Z</time></trkpt><trkpt lat="45.0745612" lon="7.595544"><ele>289.0</ele><time>2026-04-04T16:30:19.572Z</time></trkpt><trkpt lat="45.0744706" lon="7.5955245"><ele>289.0</ele><time>2026-04-04T16:30:20.572Z</time></trkpt><trkpt lat="45.0743925" lon="7.595508"><ele>289.0</ele><time>2026-04-04T16:30:21.574Z</time></trkpt><trkpt lat="45.074327" lon="7.5954975"><ele>289.0</ele><time>2026-04-04T16:30:22.574Z</time></trkpt><trkpt lat="45.0742244" lon="7.5954765"><ele>289.0</ele><time>2026-04-04T16:30:24.573Z</time></trkpt><trkpt lat="45.0741238" lon="7.5954559"><ele>289.0</ele><time>2026-04-04T16:30:26.573Z</time></trkpt><trkpt lat="45.0740408" lon="7.5954458"><ele>289.0</ele><time>2026-04-04T16:30:28.574Z</time></trkpt><trkpt lat="45.0739384" lon="7.5954239"><ele>289.16666666666663</ele><time>2026-04-04T16:30:30.573Z</time></trkpt><trkpt lat="45.0738468" lon="7.5953485"><ele>289.3333333333333</ele><time>2026-04-04T16:30:32.572Z</time></trkpt><trkpt lat="45.0737974" lon="7.5951923"><ele>289.5</ele><time>2026-04-04T16:30:34.572Z</time></trkpt><trkpt lat="45.0737458" lon="7.5951363"><ele>289.6666666666667</ele><time>2026-04-04T16:30:35.573Z</time></trkpt><trkpt lat="45.0736854" lon="7.5950923"><ele>289.83333333333337</ele><time>2026-04-04T16:30:36.574Z</time></trkpt><trkpt lat="45.0736341" lon="7.5950343"><ele>290.0</ele><time>2026-04-04T16:30:37.573Z</time></trkpt><trkpt lat="45.0735958" lon="7.5949424"><ele>290.0</ele><time>2026-04-04T16:30:38.573Z</time></trkpt><trkpt lat="45.0735754" lon="7.5948159"><ele>290.0</ele><time>2026-04-04T16:30:39.572Z</time></trkpt><trkpt lat="45.0735669" lon="7.5946687"><ele>290.0</ele><time>2026-04-04T16:30:40.574Z</time></trkpt><trkpt lat="45.0735604" lon="7.5945037"><ele>290.0</ele><time>2026-04-04T16:30:41.573Z</time></trkpt><trkpt lat="45.0735563" lon="7.5943492"><ele>290.0</ele><time>2026-04-04T16:30:42.573Z</time></trkpt><trkpt lat="45.0735524" lon="7.5941941"><ele>290.0</ele><time>2026-04-04T16:30:43.573Z</time></trkpt><trkpt lat="45.0735458" lon="7.5940466"><ele>290.0</ele><time>2026-04-04T16:30:44.573Z</time></trkpt><trkpt lat="45.07354" lon="7.5938967"><ele>290.0</ele><time>2026-04-04T16:30:45.572Z</time></trkpt><trkpt lat="45.0735292" lon="7.5937478"><ele>290.0</ele><time>2026-04-04T16:30:46.573Z</time></trkpt><trkpt lat="45.0735102" lon="7.5935918"><ele>290.0</ele><time>2026-04-04T16:30:47.574Z</time></trkpt><trkpt lat="45.0734994" lon="7.5934252"><ele>290.4</ele><time>2026-04-04T16:30:48.574Z</time></trkpt><trkpt lat="45.0734899" lon="7.59325"><ele>290.8</ele><time>2026-04-04T16:30:49.574Z</time></trkpt><trkpt lat="45.0734836" lon="7.5930905"><ele>291.2</ele><time>2026-04-04T16:30:50.572Z</time></trkpt><trkpt lat="45.0734761" lon="7.5929442"><ele>291.6</ele><time>2026-04-04T16:30:51.573Z</time></trkpt><trkpt lat="45.0734692" lon="7.5927943"><ele>292.0</ele><time>2026-04-04T16:30:52.573Z</time></trkpt><trkpt lat="45.0734613" lon="7.5926455"><ele>292.0</ele><time>2026-04-04T16:30:53.573Z</time></trkpt><trkpt lat="45.0734526" lon="7.5924999"><ele>292.0</ele><time>2026-04-04T16:30:54.573Z</time></trkpt><trkpt lat="45.0734433" lon="7.5923428"><ele>292.0</ele><time>2026-04-04T16:30:55.573Z</time></trkpt><trkpt lat="45.0734347" lon="7.5921786"><ele>292.0</ele><time>2026-04-04T16:30:56.573Z</time></trkpt><trkpt lat="45.0734275" lon="7.592013"><ele>292.0</ele><time>2026-04-04T16:30:57.574Z</time></trkpt><trkpt lat="45.0734221" lon="7.5918466"><ele>292.0</ele><time>2026-04-04T16:30:58.573Z</time></trkpt><trkpt lat="45.0734176" lon="7.5916819"><ele>292.0</ele><time>2026-04-04T16:30:59.573Z</time></trkpt><trkpt lat="45.0734119" lon="7.591522"><ele>292.0</ele><time>2026-04-04T16:31:00.573Z</time></trkpt><trkpt lat="45.0734045" lon="7.5913625"><ele>292.0</ele><time>2026-04-04T16:31:01.574Z</time></trkpt><trkpt lat="45.0733994" lon="7.5911972"><ele>292.25</ele><time>2026-04-04T16:31:02.573Z</time></trkpt><trkpt lat="45.0733908" lon="7.5910339"><ele>292.5</ele><time>2026-04-04T16:31:03.573Z</time></trkpt><trkpt lat="45.0733843" lon="7.5908706"><ele>292.75</ele><time>2026-04-04T16:31:04.573Z</time></trkpt><trkpt lat="45.0733737" lon="7.5907103"><ele>293.0</ele><time>2026-04-04T16:31:05.573Z</time></trkpt><trkpt lat="45.0733658" lon="7.5905466"><ele>293.0</ele><time>2026-04-04T16:31:06.573Z</time></trkpt><trkpt lat="45.0733596" lon="7.5903786"><ele>293.0</ele><time>2026-04-04T16:31:07.574Z</time></trkpt><trkpt lat="45.0733505" lon="7.5902127"><ele>293.0</ele><time>2026-04-04T16:31:08.573Z</time></trkpt><trkpt lat="45.0733436" lon="7.5900511"><ele>293.0</ele><time>2026-04-04T16:31:09.573Z</time></trkpt><trkpt lat="45.0733412" lon="7.58989"><ele>292.75</ele><time>2026-04-04T16:31:10.573Z</time></trkpt><trkpt lat="45.0733305" lon="7.5897326"><ele>292.5</ele><time>2026-04-04T16:31:11.574Z</time></trkpt><trkpt lat="45.07332" lon="7.5895695"><ele>292.25</ele><time>2026-04-04T16:31:12.574Z</time></trkpt><trkpt lat="45.0733106" lon="7.5894079"><ele>292.0</ele><time>2026-04-04T16:31:13.572Z</time></trkpt><trkpt lat="45.0733058" lon="7.5892456"><ele>292.0</ele><time>2026-04-04T16:31:14.572Z</time></trkpt><trkpt lat="45.0732999" lon="7.5890851"><ele>292.0</ele><time>2026-04-04T16:31:15.573Z</time></trkpt><trkpt lat="45.0732949" lon="7.5889252"><ele>292.0</ele><time>2026-04-04T16:31:16.573Z</time></trkpt><trkpt lat="45.0732875" lon="7.5887634"><ele>292.0</ele><time>2026-04-04T16:31:17.574Z</time></trkpt><trkpt lat="45.0732804" lon="7.5886007"><ele>292.25</ele><time>2026-04-04T16:31:18.572Z</time></trkpt><trkpt lat="45.0732713" lon="7.5884426"><ele>292.5</ele><time>2026-04-04T16:31:19.573Z</time></trkpt><trkpt lat="45.0732667" lon="7.588281"><ele>292.75</ele><time>2026-04-04T16:31:20.573Z</time></trkpt><trkpt lat="45.0732598" lon="7.5881234"><ele>293.0</ele><time>2026-04-04T16:31:21.573Z</time></trkpt><trkpt lat="45.0732521" lon="7.5879524"><ele>293.0</ele><time>2026-04-04T16:31:22.573Z</time></trkpt><trkpt lat="45.0732448" lon="7.5877668"><ele>293.0</ele><time>2026-04-04T16:31:23.573Z</time></trkpt><trkpt lat="45.0732403" lon="7.5875777"><ele>293.0</ele><time>2026-04-04T16:31:24.573Z</time></trkpt><trkpt lat="45.0732329" lon="7.5873772"><ele>293.0</ele><time>2026-04-04T16:31:25.573Z</time></trkpt><trkpt lat="45.0732249" lon="7.5871632"><ele>293.0</ele><time>2026-04-04T16:31:26.573Z</time></trkpt><trkpt lat="45.073218" lon="7.5869486"><ele>293.0</ele><time>2026-04-04T16:31:27.573Z</time></trkpt><trkpt lat="45.0732091" lon="7.58673"><ele>293.0</ele><time>2026-04-04T16:31:28.572Z</time></trkpt><trkpt lat="45.0731981" lon="7.5865159"><ele>293.0</ele><time>2026-04-04T16:31:29.574Z</time></trkpt><trkpt lat="45.0731865" lon="7.5863044"><ele>293.0</ele><time>2026-04-04T16:31:30.574Z</time></trkpt><trkpt lat="45.0731803" lon="7.5860957"><ele>293.0</ele><time>2026-04-04T16:31:31.573Z</time></trkpt><trkpt lat="45.0731718" lon="7.5858938"><ele>293.0</ele><time>2026-04-04T16:31:32.574Z</time></trkpt><trkpt lat="45.0731654" lon="7.5856942"><ele>293.25</ele><time>2026-04-04T16:31:33.573Z</time></trkpt><trkpt lat="45.0731573" lon="7.5854991"><ele>293.5</ele><time>2026-04-04T16:31:34.573Z</time></trkpt><trkpt lat="45.0731499" lon="7.5853074"><ele>293.75</ele><time>2026-04-04T16:31:35.574Z</time></trkpt><trkpt lat="45.0731418" lon="7.5851153"><ele>294.0</ele><time>2026-04-04T16:31:36.574Z</time></trkpt><trkpt lat="45.0731332" lon="7.5849284"><ele>294.25</ele><time>2026-04-04T16:31:37.573Z</time></trkpt><trkpt lat="45.073128" lon="7.5847456"><ele>294.5</ele><time>2026-04-04T16:31:38.572Z</time></trkpt><trkpt lat="45.0731219" lon="7.5845725"><ele>294.75</ele><time>2026-04-04T16:31:39.572Z</time></trkpt><trkpt lat="45.0731152" lon="7.5844152"><ele>295.0</ele><time>2026-04-04T16:31:40.574Z</time></trkpt><trkpt lat="45.0731108" lon="7.5842718"><ele>295.0</ele><time>2026-04-04T16:31:41.573Z</time></trkpt><trkpt lat="45.0731047" lon="7.58415"><ele>295.0</ele><time>2026-04-04T16:31:42.573Z</time></trkpt><trkpt lat="45.0730987" lon="7.5840474"><ele>295.0</ele><time>2026-04-04T16:31:43.572Z</time></trkpt><trkpt lat="45.0730935" lon="7.5839318"><ele>295.0</ele><time>2026-04-04T16:31:45.573Z</time></trkpt><trkpt lat="45.0730597" lon="7.5837811"><ele>295.0</ele><time>2026-04-04T16:32:55.571Z</time></trkpt><trkpt lat="45.0730067" lon="7.5837132"><ele>295.0</ele><time>2026-04-04T16:32:56.573Z</time></trkpt><trkpt lat="45.0729342" lon="7.5836862"><ele>295.0</ele><time>2026-04-04T16:32:57.572Z</time></trkpt><trkpt lat="45.0728707" lon="7.5837008"><ele>295.0</ele><time>2026-04-04T16:32:58.573Z</time></trkpt><trkpt lat="45.0728088" lon="7.5837511"><ele>295.0</ele><time>2026-04-04T16:32:59.572Z</time></trkpt><trkpt lat="45.0727491" lon="7.5838339"><ele>295.0</ele><time>2026-04-04T16:33:00.572Z</time></trkpt><trkpt lat="45.0726867" lon="7.5839336"><ele>295.0</ele><time>2026-04-04T16:33:01.572Z</time></trkpt><trkpt lat="45.0726244" lon="7.584042"><ele>295.0</ele><time>2026-04-04T16:33:02.572Z</time></trkpt><trkpt lat="45.0725537" lon="7.584158"><ele>295.0</ele><time>2026-04-04T16:33:03.572Z</time></trkpt><trkpt lat="45.0724813" lon="7.5842827"><ele>295.0</ele><time>2026-04-04T16:33:04.571Z</time></trkpt><trkpt lat="45.0724043" lon="7.5844158"><ele>295.0</ele><time>2026-04-04T16:33:05.572Z</time></trkpt><trkpt lat="45.0723249" lon="7.5845463"><ele>295.0</ele><time>2026-04-04T16:33:06.572Z</time></trkpt><trkpt lat="45.0722446" lon="7.5846761"><ele>295.0</ele><time>2026-04-04T16:33:07.572Z</time></trkpt><trkpt lat="45.0721714" lon="7.5848081"><ele>295.0</ele><time>2026-04-04T16:33:08.572Z</time></trkpt><trkpt lat="45.0720974" lon="7.5849291"><ele>295.0</ele><time>2026-04-04T16:33:09.572Z</time></trkpt><trkpt lat="45.072027" lon="7.5850371"><ele>295.0</ele><time>2026-04-04T16:33:10.573Z</time></trkpt><trkpt lat="45.0719626" lon="7.5851391"><ele>295.0</ele><time>2026-04-04T16:33:11.571Z</time></trkpt><trkpt lat="45.0719015" lon="7.5852381"><ele>295.0</ele><time>2026-04-04T16:33:12.572Z</time></trkpt><trkpt lat="45.0718405" lon="7.5853199"><ele>295.0</ele><time>2026-04-04T16:33:13.573Z</time></trkpt><trkpt lat="45.0717645" lon="7.5853687"><ele>295.0</ele><time>2026-04-04T16:33:14.572Z</time></trkpt><trkpt lat="45.0716776" lon="7.5853774"><ele>295.0</ele><time>2026-04-04T16:33:15.573Z</time></trkpt><trkpt lat="45.0715797" lon="7.5853709"><ele>295.0</ele><time>2026-04-04T16:33:16.572Z</time></trkpt><trkpt lat="45.0714711" lon="7.5853757"><ele>294.5</ele><time>2026-04-04T16:33:17.572Z</time></trkpt><trkpt lat="45.0713587" lon="7.5853843"><ele>294.0</ele><time>2026-04-04T16:33:18.573Z</time></trkpt><trkpt lat="45.0712431" lon="7.5853914"><ele>293.5</ele><time>2026-04-04T16:33:19.572Z</time></trkpt><trkpt lat="45.0711236" lon="7.5853946"><ele>293.0</ele><time>2026-04-04T16:33:20.573Z</time></trkpt><trkpt lat="45.0710079" lon="7.5853991"><ele>293.0</ele><time>2026-04-04T16:33:21.572Z</time></trkpt><trkpt lat="45.0708859" lon="7.5854028"><ele>293.0</ele><time>2026-04-04T16:33:22.572Z</time></trkpt><trkpt lat="45.070763" lon="7.5854052"><ele>293.0</ele><time>2026-04-04T16:33:23.573Z</time></trkpt><trkpt lat="45.0706359" lon="7.5854088"><ele>293.0</ele><time>2026-04-04T16:33:24.573Z</time></trkpt><trkpt lat="45.0705073" lon="7.5853999"><ele>293.25</ele><time>2026-04-04T16:33:25.572Z</time></trkpt><trkpt lat="45.0703761" lon="7.5853906"><ele>293.5</ele><time>2026-04-04T16:33:26.572Z</time></trkpt><trkpt lat="45.0702409" lon="7.5853747"><ele>293.75</ele><time>2026-04-04T16:33:27.573Z</time></trkpt><trkpt lat="45.0701064" lon="7.5853636"><ele>294.0</ele><time>2026-04-04T16:33:28.572Z</time></trkpt><trkpt lat="45.0699748" lon="7.585344"><ele>294.0</ele><time>2026-04-04T16:33:29.572Z</time></trkpt><trkpt lat="45.0698569" lon="7.5853252"><ele>294.0</ele><time>2026-04-04T16:33:30.572Z</time></trkpt><trkpt lat="45.0697484" lon="7.5853114"><ele>294.0</ele><time>2026-04-04T16:33:31.572Z</time></trkpt><trkpt lat="45.0696434" lon="7.5852982"><ele>294.0</ele><time>2026-04-04T16:33:32.572Z</time></trkpt><trkpt lat="45.0695328" lon="7.5852812"><ele>294.0</ele><time>2026-04-04T16:33:33.572Z</time></trkpt><trkpt lat="45.069415" lon="7.5852657"><ele>294.0</ele><time>2026-04-04T16:33:34.572Z</time></trkpt><trkpt lat="45.0692877" lon="7.5852472"><ele>294.0</ele><time>2026-04-04T16:33:35.572Z</time></trkpt><trkpt lat="45.0691605" lon="7.585229"><ele>294.0</ele><time>2026-04-04T16:33:36.573Z</time></trkpt><trkpt lat="45.0690309" lon="7.5852142"><ele>294.0</ele><time>2026-04-04T16:33:37.573Z</time></trkpt><trkpt lat="45.0689055" lon="7.5851918"><ele>294.0</ele><time>2026-04-04T16:33:38.573Z</time></trkpt><trkpt lat="45.0687834" lon="7.5851722"><ele>294.0</ele><time>2026-04-04T16:33:39.571Z</time></trkpt><trkpt lat="45.0686645" lon="7.5851485"><ele>294.0</ele><time>2026-04-04T16:33:40.572Z</time></trkpt><trkpt lat="45.0685462" lon="7.5851295"><ele>294.0</ele><time>2026-04-04T16:33:41.572Z</time></trkpt><trkpt lat="45.0684348" lon="7.5851096"><ele>294.0</ele><time>2026-04-04T16:33:42.572Z</time></trkpt><trkpt lat="45.0683265" lon="7.5850905"><ele>294.0</ele><time>2026-04-04T16:33:43.571Z</time></trkpt><trkpt lat="45.0682253" lon="7.5850719"><ele>294.0</ele><time>2026-04-04T16:33:44.572Z</time></trkpt><trkpt lat="45.0681341" lon="7.5850574"><ele>294.0</ele><time>2026-04-04T16:33:45.571Z</time></trkpt><trkpt lat="45.0680488" lon="7.5850456"><ele>294.0</ele><time>2026-04-04T16:33:46.571Z</time></trkpt><trkpt lat="45.0679724" lon="7.5850303"><ele>294.1666666666667</ele><time>2026-04-04T16:33:47.572Z</time></trkpt><trkpt lat="45.0678695" lon="7.5850177"><ele>294.3333333333333</ele><time>2026-04-04T16:33:49.573Z</time></trkpt><trkpt lat="45.0677997" lon="7.585013"><ele>294.5</ele><time>2026-04-04T16:34:05.572Z</time></trkpt><trkpt lat="45.067733" lon="7.5850086"><ele>294.66666666666663</ele><time>2026-04-04T16:34:06.572Z</time></trkpt><trkpt lat="45.0676693" lon="7.5849922"><ele>294.8333333333333</ele><time>2026-04-04T16:34:07.571Z</time></trkpt><trkpt lat="45.0675502" lon="7.5849726"><ele>295.0</ele><time>2026-04-04T16:34:09.572Z</time></trkpt><trkpt lat="45.0674848" lon="7.5849642"><ele>295.0</ele><time>2026-04-04T16:34:10.572Z</time></trkpt><trkpt lat="45.0674035" lon="7.5849434"><ele>295.0</ele><time>2026-04-04T16:34:11.572Z</time></trkpt><trkpt lat="45.0673189" lon="7.5849246"><ele>295.0</ele><time>2026-04-04T16:34:12.571Z</time></trkpt><trkpt lat="45.0672244" lon="7.5849095"><ele>295.0</ele><time>2026-04-04T16:34:13.572Z</time></trkpt><trkpt lat="45.0671278" lon="7.5848906"><ele>295.0</ele><time>2026-04-04T16:34:14.573Z</time></trkpt><trkpt lat="45.0670225" lon="7.5848729"><ele>295.0</ele><time>2026-04-04T16:34:15.572Z</time></trkpt><trkpt lat="45.0669134" lon="7.584855"><ele>295.0</ele><time>2026-04-04T16:34:16.571Z</time></trkpt><trkpt lat="45.0668091" lon="7.5848302"><ele>295.0</ele><time>2026-04-04T16:34:17.571Z</time></trkpt><trkpt lat="45.0666943" lon="7.5848158"><ele>295.0</ele><time>2026-04-04T16:34:18.572Z</time></trkpt><trkpt lat="45.0665822" lon="7.5847999"><ele>295.0</ele><time>2026-04-04T16:34:19.572Z</time></trkpt><trkpt lat="45.0664767" lon="7.5847819"><ele>294.8</ele><time>2026-04-04T16:34:20.572Z</time></trkpt><trkpt lat="45.0663674" lon="7.5847613"><ele>294.6</ele><time>2026-04-04T16:34:21.573Z</time></trkpt><trkpt lat="45.0662713" lon="7.584747"><ele>294.4</ele><time>2026-04-04T16:34:22.571Z</time></trkpt><trkpt lat="45.0661885" lon="7.58474"><ele>294.2</ele><time>2026-04-04T16:34:23.572Z</time></trkpt><trkpt lat="45.0660875" lon="7.5847304"><ele>294.0</ele><time>2026-04-04T16:34:24.572Z</time></trkpt><trkpt lat="45.0659956" lon="7.5847272"><ele>294.0</ele><time>2026-04-04T16:34:25.573Z</time></trkpt><trkpt lat="45.0658928" lon="7.5847183"><ele>294.0</ele><time>2026-04-04T16:34:26.572Z</time></trkpt><trkpt lat="45.0658008" lon="7.5847096"><ele>294.0</ele><time>2026-04-04T16:34:27.572Z</time></trkpt><trkpt lat="45.065721" lon="7.5847016"><ele>294.0</ele><time>2026-04-04T16:34:28.572Z</time></trkpt><trkpt lat="45.0656409" lon="7.5846933"><ele>294.0</ele><time>2026-04-04T16:34:29.571Z</time></trkpt><trkpt lat="45.0655776" lon="7.5846867"><ele>294.0</ele><time>2026-04-04T16:34:30.573Z</time></trkpt><trkpt lat="45.0654718" lon="7.5846739"><ele>293.6666666666667</ele><time>2026-04-04T16:34:32.572Z</time></trkpt><trkpt lat="45.0653983" lon="7.5846637"><ele>293.3333333333333</ele><time>2026-04-04T16:34:34.573Z</time></trkpt><trkpt lat="45.065315" lon="7.58465"><ele>293.0</ele><time>2026-04-04T16:34:36.571Z</time></trkpt><trkpt lat="45.0652431" lon="7.5847412"><ele>292.66666666666663</ele><time>2026-04-04T16:34:38.572Z</time></trkpt><trkpt lat="45.0652107" lon="7.5848269"><ele>292.3333333333333</ele><time>2026-04-04T16:34:39.573Z</time></trkpt><trkpt lat="45.0651845" lon="7.5849516"><ele>292.0</ele><time>2026-04-04T16:34:40.573Z</time></trkpt><trkpt lat="45.0651609" lon="7.5850759"><ele>292.0</ele><time>2026-04-04T16:34:41.572Z</time></trkpt><trkpt lat="45.0651298" lon="7.5852334"><ele>292.0</ele><time>2026-04-04T16:34:42.572Z</time></trkpt><trkpt lat="45.0650969" lon="7.5853915"><ele>292.0</ele><time>2026-04-04T16:34:43.572Z</time></trkpt><trkpt lat="45.0650625" lon="7.5855511"><ele>292.0</ele><time>2026-04-04T16:34:44.571Z</time></trkpt><trkpt lat="45.0650221" lon="7.5857447"><ele>291.66666666666663</ele><time>2026-04-04T16:34:45.573Z</time></trkpt><trkpt lat="45.0649799" lon="7.5859411"><ele>291.3333333333333</ele><time>2026-04-04T16:34:46.573Z</time></trkpt><trkpt lat="45.0649401" lon="7.5861363"><ele>291.0</ele><time>2026-04-04T16:34:47.572Z</time></trkpt><trkpt lat="45.0648934" lon="7.5863609"><ele>290.75</ele><time>2026-04-04T16:34:48.571Z</time></trkpt><trkpt lat="45.0648503" lon="7.5865698"><ele>290.5</ele><time>2026-04-04T16:34:49.573Z</time></trkpt><trkpt lat="45.0648114" lon="7.5867592"><ele>290.25</ele><time>2026-04-04T16:34:50.572Z</time></trkpt><trkpt lat="45.0647689" lon="7.5869655"><ele>290.0</ele><time>2026-04-04T16:34:51.571Z</time></trkpt><trkpt lat="45.0647338" lon="7.5871385"><ele>290.0</ele><time>2026-04-04T16:34:52.572Z</time></trkpt><trkpt lat="45.0646959" lon="7.5873196"><ele>290.0</ele><time>2026-04-04T16:34:53.572Z</time></trkpt><trkpt lat="45.0646627" lon="7.5874801"><ele>290.0</ele><time>2026-04-04T16:34:54.572Z</time></trkpt><trkpt lat="45.0646345" lon="7.5876164"><ele>290.0</ele><time>2026-04-04T16:34:55.572Z</time></trkpt><trkpt lat="45.064606" lon="7.5877556"><ele>289.8</ele><time>2026-04-04T16:34:56.571Z</time></trkpt><trkpt lat="45.0645826" lon="7.5878646"><ele>289.6</ele><time>2026-04-04T16:34:57.573Z</time></trkpt><trkpt lat="45.0645477" lon="7.5879757"><ele>289.4</ele><time>2026-04-04T16:34:58.571Z</time></trkpt><trkpt lat="45.0644852" lon="7.5880643"><ele>289.2</ele><time>2026-04-04T16:34:59.572Z</time></trkpt><trkpt lat="45.0644012" lon="7.5881353"><ele>289.0</ele><time>2026-04-04T16:35:00.572Z</time></trkpt><trkpt lat="45.0642912" lon="7.5881664"><ele>289.0</ele><time>2026-04-04T16:35:01.573Z</time></trkpt><trkpt lat="45.0641814" lon="7.5881597"><ele>289.0</ele><time>2026-04-04T16:35:02.572Z</time></trkpt><trkpt lat="45.0640711" lon="7.588141"><ele>289.0</ele><time>2026-04-04T16:35:03.573Z</time></trkpt><trkpt lat="45.0639497" lon="7.588119"><ele>289.0</ele><time>2026-04-04T16:35:04.572Z</time></trkpt><trkpt lat="45.0638388" lon="7.5880993"><ele>289.4</ele><time>2026-04-04T16:35:05.572Z</time></trkpt><trkpt lat="45.0637439" lon="7.5880797"><ele>289.79999999999995</ele><time>2026-04-04T16:35:06.571Z</time></trkpt><trkpt lat="45.0636399" lon="7.5880598"><ele>290.20000000000005</ele><time>2026-04-04T16:35:07.573Z</time></trkpt><trkpt lat="45.0635459" lon="7.5880509"><ele>290.6</ele><time>2026-04-04T16:35:08.573Z</time></trkpt><trkpt lat="45.0634385" lon="7.5880442"><ele>291.0</ele><time>2026-04-04T16:35:09.572Z</time></trkpt><trkpt lat="45.0633382" lon="7.5880329"><ele>290.6</ele><time>2026-04-04T16:35:10.572Z</time></trkpt><trkpt lat="45.0632381" lon="7.5880192"><ele>290.20000000000005</ele><time>2026-04-04T16:35:11.572Z</time></trkpt><trkpt lat="45.0631193" lon="7.587999"><ele>289.79999999999995</ele><time>2026-04-04T16:35:12.573Z</time></trkpt><trkpt lat="45.0630115" lon="7.5879785"><ele>289.4</ele><time>2026-04-04T16:35:13.572Z</time></trkpt><trkpt lat="45.0628923" lon="7.5879568"><ele>289.0</ele><time>2026-04-04T16:35:14.571Z</time></trkpt><trkpt lat="45.0627638" lon="7.5879338"><ele>289.0</ele><time>2026-04-04T16:35:15.571Z</time></trkpt><trkpt lat="45.0626493" lon="7.5879139"><ele>289.0</ele><time>2026-04-04T16:35:16.57Z</time></trkpt><trkpt lat="45.0625175" lon="7.5878904"><ele>289.0</ele><time>2026-04-04T16:35:17.571Z</time></trkpt><trkpt lat="45.0623939" lon="7.5878672"><ele>289.0</ele><time>2026-04-04T16:35:18.572Z</time></trkpt><trkpt lat="45.0622787" lon="7.5878447"><ele>289.0</ele><time>2026-04-04T16:35:19.571Z</time></trkpt><trkpt lat="45.0621455" lon="7.5878216"><ele>289.0</ele><time>2026-04-04T16:35:20.572Z</time></trkpt><trkpt lat="45.062022" lon="7.5877995"><ele>289.0</ele><time>2026-04-04T16:35:21.572Z</time></trkpt><trkpt lat="45.061905" lon="7.5877786"><ele>289.0</ele><time>2026-04-04T16:35:22.572Z</time></trkpt><trkpt lat="45.0617758" lon="7.5877556"><ele>289.0</ele><time>2026-04-04T16:35:23.571Z</time></trkpt><trkpt lat="45.061678" lon="7.5877388"><ele>289.0</ele><time>2026-04-04T16:35:24.57Z</time></trkpt><trkpt lat="45.061588" lon="7.5877219"><ele>289.0</ele><time>2026-04-04T16:35:25.571Z</time></trkpt><trkpt lat="45.0615245" lon="7.5877092"><ele>289.0</ele><time>2026-04-04T16:35:26.572Z</time></trkpt><trkpt lat="45.0614157" lon="7.5876911"><ele>289.0</ele><time>2026-04-04T16:35:28.571Z</time></trkpt><trkpt lat="45.0612921" lon="7.587669"><ele>289.0</ele><time>2026-04-04T16:35:30.571Z</time></trkpt><trkpt lat="45.0612046" lon="7.5876534"><ele>289.0</ele><time>2026-04-04T16:35:31.572Z</time></trkpt><trkpt lat="45.0611173" lon="7.5876364"><ele>289.0</ele><time>2026-04-04T16:35:32.571Z</time></trkpt><trkpt lat="45.0610035" lon="7.5876153"><ele>289.0</ele><time>2026-04-04T16:35:33.572Z</time></trkpt><trkpt lat="45.0608941" lon="7.587596"><ele>289.0</ele><time>2026-04-04T16:35:34.571Z</time></trkpt><trkpt lat="45.0607835" lon="7.5875755"><ele>289.0</ele><time>2026-04-04T16:35:35.572Z</time></trkpt><trkpt lat="45.060651" lon="7.5875528"><ele>289.0</ele><time>2026-04-04T16:35:36.571Z</time></trkpt><trkpt lat="45.0605201" lon="7.5875301"><ele>289.0</ele><time>2026-04-04T16:35:37.572Z</time></trkpt><trkpt lat="45.0603953" lon="7.5875086"><ele>289.0</ele><time>2026-04-04T16:35:38.572Z</time></trkpt><trkpt lat="45.0602561" lon="7.5874838"><ele>289.0</ele><time>2026-04-04T16:35:39.572Z</time></trkpt><trkpt lat="45.0601346" lon="7.5874627"><ele>289.0</ele><time>2026-04-04T16:35:40.571Z</time></trkpt><trkpt lat="45.0599965" lon="7.5874364"><ele>289.0</ele><time>2026-04-04T16:35:41.57Z</time></trkpt><trkpt lat="45.0598624" lon="7.5874106"><ele>289.0</ele><time>2026-04-04T16:35:42.57Z</time></trkpt><trkpt lat="45.0597341" lon="7.5873857"><ele>288.25</ele><time>2026-04-04T16:35:43.571Z</time></trkpt><trkpt lat="45.0595864" lon="7.5873581"><ele>287.5</ele><time>2026-04-04T16:35:44.571Z</time></trkpt><trkpt lat="45.0594537" lon="7.5873346"><ele>286.75</ele><time>2026-04-04T16:35:45.572Z</time></trkpt><trkpt lat="45.0593097" lon="7.5873092"><ele>286.0</ele><time>2026-04-04T16:35:46.572Z</time></trkpt><trkpt lat="45.0591562" lon="7.5872796"><ele>285.75</ele><time>2026-04-04T16:35:47.57Z</time></trkpt><trkpt lat="45.0590194" lon="7.5872514"><ele>285.5</ele><time>2026-04-04T16:35:48.571Z</time></trkpt><trkpt lat="45.0588751" lon="7.5872204"><ele>285.25</ele><time>2026-04-04T16:35:49.57Z</time></trkpt><trkpt lat="45.0587253" lon="7.5871885"><ele>285.0</ele><time>2026-04-04T16:35:50.57Z</time></trkpt><trkpt lat="45.0585962" lon="7.5871648"><ele>285.0</ele><time>2026-04-04T16:35:51.572Z</time></trkpt><trkpt lat="45.0584565" lon="7.58714"><ele>285.0</ele><time>2026-04-04T16:35:52.572Z</time></trkpt><trkpt lat="45.0583334" lon="7.5871175"><ele>285.0</ele><time>2026-04-04T16:35:53.571Z</time></trkpt><trkpt lat="45.0582218" lon="7.5870962"><ele>285.0</ele><time>2026-04-04T16:35:54.571Z</time></trkpt><trkpt lat="45.0581106" lon="7.5870747"><ele>284.8333333333333</ele><time>2026-04-04T16:35:55.572Z</time></trkpt><trkpt lat="45.0580207" lon="7.5870548"><ele>284.6666666666667</ele><time>2026-04-04T16:35:56.57Z</time></trkpt><trkpt lat="45.0579408" lon="7.5870298"><ele>284.5</ele><time>2026-04-04T16:35:57.571Z</time></trkpt><trkpt lat="45.0578675" lon="7.5869986"><ele>284.33333333333337</ele><time>2026-04-04T16:35:58.571Z</time></trkpt><trkpt lat="45.0577477" lon="7.5869355"><ele>284.1666666666667</ele><time>2026-04-04T16:36:00.571Z</time></trkpt><trkpt lat="45.0576831" lon="7.5869189"><ele>284.0</ele><time>2026-04-04T16:36:01.571Z</time></trkpt><trkpt lat="45.0575983" lon="7.5869323"><ele>284.2</ele><time>2026-04-04T16:36:02.57Z</time></trkpt><trkpt lat="45.0574986" lon="7.5869165"><ele>284.4</ele><time>2026-04-04T16:36:03.571Z</time></trkpt><trkpt lat="45.0573952" lon="7.5868902"><ele>284.6</ele><time>2026-04-04T16:36:04.572Z</time></trkpt><trkpt lat="45.0572835" lon="7.5868604"><ele>284.8</ele><time>2026-04-04T16:36:05.571Z</time></trkpt><trkpt lat="45.0571661" lon="7.5868339"><ele>285.0</ele><time>2026-04-04T16:36:06.571Z</time></trkpt><trkpt lat="45.05706" lon="7.5868245"><ele>285.0</ele><time>2026-04-04T16:36:07.571Z</time></trkpt><trkpt lat="45.0569395" lon="7.5868198"><ele>285.0</ele><time>2026-04-04T16:36:08.571Z</time></trkpt><trkpt lat="45.0568364" lon="7.5868186"><ele>285.0</ele><time>2026-04-04T16:36:09.571Z</time></trkpt><trkpt lat="45.0567503" lon="7.5868172"><ele>285.0</ele><time>2026-04-04T16:36:10.57Z</time></trkpt><trkpt lat="45.0566689" lon="7.5868093"><ele>285.0</ele><time>2026-04-04T16:36:11.571Z</time></trkpt><trkpt lat="45.056579" lon="7.5867555"><ele>284.8333333333333</ele><time>2026-04-04T16:36:12.571Z</time></trkpt><trkpt lat="45.0565079" lon="7.586748"><ele>284.6666666666667</ele><time>2026-04-04T16:36:13.57Z</time></trkpt><trkpt lat="45.0564259" lon="7.5867377"><ele>284.5</ele><time>2026-04-04T16:36:14.571Z</time></trkpt><trkpt lat="45.0563479" lon="7.5867267"><ele>284.33333333333337</ele><time>2026-04-04T16:36:15.572Z</time></trkpt><trkpt lat="45.0562525" lon="7.5867131"><ele>284.1666666666667</ele><time>2026-04-04T16:36:16.571Z</time></trkpt><trkpt lat="45.0561696" lon="7.5866791"><ele>284.0</ele><time>2026-04-04T16:36:17.571Z</time></trkpt><trkpt lat="45.0560926" lon="7.586605"><ele>284.0</ele><time>2026-04-04T16:36:18.57Z</time></trkpt><trkpt lat="45.0560279" lon="7.5864835"><ele>284.0</ele><time>2026-04-04T16:36:19.572Z</time></trkpt><trkpt lat="45.0559785" lon="7.5863709"><ele>284.0</ele><time>2026-04-04T16:36:20.572Z</time></trkpt><trkpt lat="45.0559297" lon="7.5862506"><ele>284.0</ele><time>2026-04-04T16:36:21.571Z</time></trkpt><trkpt lat="45.0558839" lon="7.5861163"><ele>284.0</ele><time>2026-04-04T16:36:22.57Z</time></trkpt><trkpt lat="45.0558574" lon="7.5859829"><ele>283.5</ele><time>2026-04-04T16:36:23.571Z</time></trkpt><trkpt lat="45.0558398" lon="7.5858168"><ele>283.0</ele><time>2026-04-04T16:36:24.571Z</time></trkpt><trkpt lat="45.0558309" lon="7.5856516"><ele>282.5</ele><time>2026-04-04T16:36:25.571Z</time></trkpt><trkpt lat="45.0558196" lon="7.5854935"><ele>282.0</ele><time>2026-04-04T16:36:26.571Z</time></trkpt><trkpt lat="45.0557989" lon="7.5853159"><ele>282.2</ele><time>2026-04-04T16:36:27.571Z</time></trkpt><trkpt lat="45.0557749" lon="7.5851656"><ele>282.4</ele><time>2026-04-04T16:36:28.57Z</time></trkpt><trkpt lat="45.0557601" lon="7.5849965"><ele>282.6</ele><time>2026-04-04T16:36:29.571Z</time></trkpt><trkpt lat="45.0557622" lon="7.5848535"><ele>282.8</ele><time>2026-04-04T16:36:30.57Z</time></trkpt><trkpt lat="45.0557706" lon="7.5847304"><ele>283.0</ele><time>2026-04-04T16:36:31.572Z</time></trkpt><trkpt lat="45.0557834" lon="7.5845944"><ele>283.2</ele><time>2026-04-04T16:36:32.57Z</time></trkpt><trkpt lat="45.0557944" lon="7.5844681"><ele>283.4</ele><time>2026-04-04T16:36:33.571Z</time></trkpt><trkpt lat="45.0558063" lon="7.5843223"><ele>283.59999999999997</ele><time>2026-04-04T16:36:34.571Z</time></trkpt><trkpt lat="45.0558369" lon="7.5841534"><ele>283.8</ele><time>2026-04-04T16:36:35.571Z</time></trkpt><trkpt lat="45.0558802" lon="7.5839995"><ele>284.0</ele><time>2026-04-04T16:36:36.571Z</time></trkpt><trkpt lat="45.0559203" lon="7.583819"><ele>283.5</ele><time>2026-04-04T16:36:37.571Z</time></trkpt><trkpt lat="45.0559542" lon="7.5836119"><ele>283.0</ele><time>2026-04-04T16:36:38.571Z</time></trkpt><trkpt lat="45.055978" lon="7.5834332"><ele>282.5</ele><time>2026-04-04T16:36:39.572Z</time></trkpt><trkpt lat="45.0559949" lon="7.5832339"><ele>282.0</ele><time>2026-04-04T16:36:40.571Z</time></trkpt><trkpt lat="45.056007" lon="7.5830533"><ele>282.0</ele><time>2026-04-04T16:36:41.571Z</time></trkpt><trkpt lat="45.0560336" lon="7.5828945"><ele>282.0</ele><time>2026-04-04T16:36:42.571Z</time></trkpt><trkpt lat="45.0560801" lon="7.5827258"><ele>282.0</ele><time>2026-04-04T16:36:43.57Z</time></trkpt><trkpt lat="45.0561232" lon="7.5825866"><ele>282.0</ele><time>2026-04-04T16:36:44.571Z</time></trkpt><trkpt lat="45.0561761" lon="7.5824291"><ele>282.0</ele><time>2026-04-04T16:36:45.571Z</time></trkpt><trkpt lat="45.0562299" lon="7.5822766"><ele>282.0</ele><time>2026-04-04T16:36:46.572Z</time></trkpt><trkpt lat="45.0562793" lon="7.5821283"><ele>282.0</ele><time>2026-04-04T16:36:47.571Z</time></trkpt><trkpt lat="45.0563302" lon="7.5819438"><ele>282.0</ele><time>2026-04-04T16:36:48.57Z</time></trkpt><trkpt lat="45.0563763" lon="7.5817731"><ele>282.0</ele><time>2026-04-04T16:36:49.572Z</time></trkpt><trkpt lat="45.0564282" lon="7.5815937"><ele>282.0</ele><time>2026-04-04T16:36:50.571Z</time></trkpt><trkpt lat="45.056472" lon="7.5814388"><ele>282.0</ele><time>2026-04-04T16:36:51.572Z</time></trkpt><trkpt lat="45.0565034" lon="7.581345"><ele>282.0</ele><time>2026-04-04T16:36:52.572Z</time></trkpt><trkpt lat="45.0565481" lon="7.5812738"><ele>282.0</ele><time>2026-04-04T16:36:53.571Z</time></trkpt><trkpt lat="45.0566469" lon="7.5812692"><ele>282.2</ele><time>2026-04-04T16:36:55.571Z</time></trkpt><trkpt lat="45.0567513" lon="7.5813405"><ele>282.4</ele><time>2026-04-04T16:36:57.571Z</time></trkpt><trkpt lat="45.0568533" lon="7.5813752"><ele>282.6</ele><time>2026-04-04T16:36:59.572Z</time></trkpt><trkpt lat="45.0569217" lon="7.5813609"><ele>282.8</ele><time>2026-04-04T16:37:53.571Z</time></trkpt><trkpt lat="45.0569944" lon="7.5813958"><ele>283.0</ele><time>2026-04-04T16:37:56.571Z</time></trkpt><trkpt lat="45.0568977" lon="7.5813689"><ele>283.0</ele><time>2026-04-04T16:38:07.572Z</time></trkpt><trkpt lat="45.0569741" lon="7.5813788"><ele>283.0</ele><time>2026-04-04T16:38:56.57Z</time></trkpt><trkpt lat="45.0569884" lon="7.5814729"><ele>283.0</ele><time>2026-04-04T16:39:22.57Z</time></trkpt><trkpt lat="45.0570134" lon="7.5815585"><ele>283.0</ele><time>2026-04-04T16:39:26.571Z</time></trkpt><trkpt lat="45.0569935" lon="7.5814689"><ele>283.0</ele><time>2026-04-04T16:39:54.57Z</time></trkpt><trkpt lat="45.0570601" lon="7.5814442"><ele>283.0</ele><time>2026-04-04T16:40:08.571Z</time></trkpt><trkpt lat="45.0571112" lon="7.5813857"><ele>283.0</ele><time>2026-04-04T16:40:19.57Z</time></trkpt><trkpt lat="45.0571847" lon="7.5813939"><ele>283.0</ele><time>2026-04-04T16:40:58.569Z</time></trkpt><trkpt lat="45.0572412" lon="7.5814492"><ele>283.0</ele><time>2026-04-04T16:41:07.571Z</time></trkpt><trkpt lat="45.057144" lon="7.5813939"><ele>283.0</ele><time>2026-04-04T16:42:17.507Z</time></trkpt><trkpt lat="45.057219" lon="7.5815412"><ele>283.0</ele><time>2026-04-04T16:42:29.569Z</time></trkpt><trkpt lat="45.057212" lon="7.5812788"><ele>283.0</ele><time>2026-04-04T16:42:30.569Z</time></trkpt><trkpt lat="45.0571404" lon="7.581306"><ele>283.0</ele><time>2026-04-04T16:42:31.569Z</time></trkpt><trkpt lat="45.0567171" lon="7.5810577"><ele>283.0</ele><time>2026-04-04T16:42:32.57Z</time></trkpt><trkpt lat="45.0572204" lon="7.5812974"><ele>283.0</ele><time>2026-04-04T16:43:22.569Z</time></trkpt><trkpt lat="45.0571522" lon="7.5812164"><ele>283.0</ele><time>2026-04-04T16:43:31.569Z</time></trkpt><trkpt lat="45.0570796" lon="7.5812323"><ele>283.0</ele><time>2026-04-04T16:43:34.569Z</time></trkpt><trkpt lat="45.0569849" lon="7.5812314"><ele>283.0</ele><time>2026-04-04T16:43:36.569Z</time></trkpt><trkpt lat="45.0569639" lon="7.5813202"><ele>283.0</ele><time>2026-04-04T16:43:45.568Z</time></trkpt><trkpt lat="45.0569998" lon="7.581401"><ele>283.0</ele><time>2026-04-04T16:43:50.57Z</time></trkpt><trkpt lat="45.0570549" lon="7.5814461"><ele>283.0</ele><time>2026-04-04T16:43:55.569Z</time></trkpt><trkpt lat="45.057102" lon="7.5813834"><ele>283.0</ele><time>2026-04-04T16:44:08.568Z</time></trkpt><trkpt lat="45.0571448" lon="7.5813059"><ele>283.0</ele><time>2026-04-04T16:44:21.57Z</time></trkpt><trkpt lat="45.0571947" lon="7.5814403"><ele>283.0</ele><time>2026-04-04T16:44:30.569Z</time></trkpt><trkpt lat="45.0571262" lon="7.5813474"><ele>283.0</ele><time>2026-04-04T16:45:23.568Z</time></trkpt><trkpt lat="45.0570653" lon="7.5813091"><ele>283.0</ele><time>2026-04-04T16:45:31.568Z</time></trkpt><trkpt lat="45.0570043" lon="7.581272"><ele>283.0</ele><time>2026-04-04T16:46:42.568Z</time></trkpt><trkpt lat="45.0569588" lon="7.5813497"><ele>283.0</ele><time>2026-04-04T16:51:02.566Z</time></trkpt><trkpt lat="45.0569428" lon="7.5814401"><ele>283.0</ele><time>2026-04-04T16:52:21.567Z</time></trkpt><trkpt lat="45.0568796" lon="7.5814471"><ele>283.0</ele><time>2026-04-04T16:52:24.565Z</time></trkpt><trkpt lat="45.056916" lon="7.5813479"><ele>283.0</ele><time>2026-04-04T16:54:23.565Z</time></trkpt><trkpt lat="45.0569425" lon="7.581265"><ele>283.0</ele><time>2026-04-04T16:54:25.564Z</time></trkpt><trkpt lat="45.0569686" lon="7.581135"><ele>283.0</ele><time>2026-04-04T16:54:27.564Z</time></trkpt><trkpt lat="45.0569127" lon="7.5810082"><ele>282.8333333333333</ele><time>2026-04-04T16:54:29.565Z</time></trkpt><trkpt lat="45.0568398" lon="7.5809593"><ele>282.66666666666663</ele><time>2026-04-04T16:54:30.566Z</time></trkpt><trkpt lat="45.0567648" lon="7.5809106"><ele>282.5</ele><time>2026-04-04T16:54:31.564Z</time></trkpt><trkpt lat="45.0567038" lon="7.5808776"><ele>282.3333333333333</ele><time>2026-04-04T16:54:32.565Z</time></trkpt><trkpt lat="45.05658" lon="7.5808778"><ele>282.1666666666667</ele><time>2026-04-04T16:54:34.565Z</time></trkpt><trkpt lat="45.0565295" lon="7.5809524"><ele>282.0</ele><time>2026-04-04T16:54:35.566Z</time></trkpt><trkpt lat="45.0564985" lon="7.5810376"><ele>282.3333333333333</ele><time>2026-04-04T16:54:36.566Z</time></trkpt><trkpt lat="45.0564359" lon="7.5810922"><ele>282.6666666666667</ele><time>2026-04-04T16:54:37.566Z</time></trkpt><trkpt lat="45.0563679" lon="7.5810939"><ele>283.0</ele><time>2026-04-04T16:54:38.565Z</time></trkpt><trkpt lat="45.0562746" lon="7.5810023"><ele>283.33333333333337</ele><time>2026-04-04T16:54:40.565Z</time></trkpt><trkpt lat="45.056239" lon="7.5809121"><ele>283.6666666666667</ele><time>2026-04-04T16:54:41.565Z</time></trkpt><trkpt lat="45.0561812" lon="7.5808482"><ele>284.0</ele><time>2026-04-04T16:54:42.565Z</time></trkpt><trkpt lat="45.0561111" lon="7.580821"><ele>284.0</ele><time>2026-04-04T16:54:43.565Z</time></trkpt><trkpt lat="45.0560392" lon="7.5808355"><ele>284.0</ele><time>2026-04-04T16:54:44.564Z</time></trkpt><trkpt lat="45.0559862" lon="7.5808998"><ele>284.0</ele><time>2026-04-04T16:54:45.565Z</time></trkpt><trkpt lat="45.0559657" lon="7.5809915"><ele>284.0</ele><time>2026-04-04T16:54:46.565Z</time></trkpt><trkpt lat="45.0559776" lon="7.5811065"><ele>284.0</ele><time>2026-04-04T16:54:47.565Z</time></trkpt><trkpt lat="45.0560179" lon="7.5812273"><ele>284.0</ele><time>2026-04-04T16:54:48.565Z</time></trkpt><trkpt lat="45.0560484" lon="7.5813685"><ele>283.75</ele><time>2026-04-04T16:54:49.565Z</time></trkpt><trkpt lat="45.0560513" lon="7.5815276"><ele>283.5</ele><time>2026-04-04T16:54:50.565Z</time></trkpt><trkpt lat="45.0560118" lon="7.5817154"><ele>283.25</ele><time>2026-04-04T16:54:51.566Z</time></trkpt><trkpt lat="45.055952" lon="7.5819301"><ele>283.0</ele><time>2026-04-04T16:54:52.565Z</time></trkpt><trkpt lat="45.0558872" lon="7.5821515"><ele>283.0</ele><time>2026-04-04T16:54:53.566Z</time></trkpt><trkpt lat="45.055819" lon="7.5823747"><ele>283.0</ele><time>2026-04-04T16:54:54.565Z</time></trkpt><trkpt lat="45.0557612" lon="7.5825871"><ele>283.0</ele><time>2026-04-04T16:54:55.565Z</time></trkpt><trkpt lat="45.0557083" lon="7.5827913"><ele>282.5</ele><time>2026-04-04T16:54:56.565Z</time></trkpt><trkpt lat="45.0556624" lon="7.5829856"><ele>282.0</ele><time>2026-04-04T16:54:57.566Z</time></trkpt><trkpt lat="45.0556073" lon="7.5831516"><ele>281.5</ele><time>2026-04-04T16:54:58.565Z</time></trkpt><trkpt lat="45.0555396" lon="7.5832801"><ele>281.0</ele><time>2026-04-04T16:54:59.565Z</time></trkpt><trkpt lat="45.0554687" lon="7.583382"><ele>281.0</ele><time>2026-04-04T16:55:00.565Z</time></trkpt><trkpt lat="45.0553898" lon="7.5834451"><ele>281.0</ele><time>2026-04-04T16:55:01.565Z</time></trkpt><trkpt lat="45.0553219" lon="7.5834917"><ele>281.0</ele><time>2026-04-04T16:55:02.565Z</time></trkpt><trkpt lat="45.0552712" lon="7.5835512"><ele>281.0</ele><time>2026-04-04T16:55:03.566Z</time></trkpt><trkpt lat="45.0552429" lon="7.5837046"><ele>281.0</ele><time>2026-04-04T16:55:05.564Z</time></trkpt><trkpt lat="45.0552963" lon="7.5838478"><ele>281.1666666666667</ele><time>2026-04-04T16:55:07.566Z</time></trkpt><trkpt lat="45.0553341" lon="7.5839196"><ele>281.33333333333337</ele><time>2026-04-04T16:55:08.566Z</time></trkpt><trkpt lat="45.0553734" lon="7.5840023"><ele>281.5</ele><time>2026-04-04T16:55:09.566Z</time></trkpt><trkpt lat="45.0554039" lon="7.5840985"><ele>281.6666666666667</ele><time>2026-04-04T16:55:10.566Z</time></trkpt><trkpt lat="45.0554233" lon="7.5842177"><ele>281.8333333333333</ele><time>2026-04-04T16:55:11.565Z</time></trkpt><trkpt lat="45.0554334" lon="7.584354"><ele>282.0</ele><time>2026-04-04T16:55:12.565Z</time></trkpt><trkpt lat="45.0554364" lon="7.584496"><ele>282.2</ele><time>2026-04-04T16:55:13.565Z</time></trkpt><trkpt lat="45.0554361" lon="7.5846365"><ele>282.4</ele><time>2026-04-04T16:55:14.565Z</time></trkpt><trkpt lat="45.0554339" lon="7.584769"><ele>282.6</ele><time>2026-04-04T16:55:15.565Z</time></trkpt><trkpt lat="45.0554301" lon="7.5849008"><ele>282.8</ele><time>2026-04-04T16:55:16.566Z</time></trkpt><trkpt lat="45.0554262" lon="7.5850281"><ele>283.0</ele><time>2026-04-04T16:55:17.565Z</time></trkpt><trkpt lat="45.0554255" lon="7.5851516"><ele>283.0</ele><time>2026-04-04T16:55:18.564Z</time></trkpt><trkpt lat="45.0554266" lon="7.5852718"><ele>283.0</ele><time>2026-04-04T16:55:19.565Z</time></trkpt><trkpt lat="45.0554318" lon="7.5853877"><ele>283.0</ele><time>2026-04-04T16:55:20.565Z</time></trkpt><trkpt lat="45.0554356" lon="7.5855032"><ele>283.0</ele><time>2026-04-04T16:55:21.566Z</time></trkpt><trkpt lat="45.055441" lon="7.5856082"><ele>283.0</ele><time>2026-04-04T16:55:22.565Z</time></trkpt><trkpt lat="45.0554515" lon="7.5857122"><ele>283.0</ele><time>2026-04-04T16:55:24.564Z</time></trkpt><trkpt lat="45.0554566" lon="7.5858186"><ele>283.4</ele><time>2026-04-04T16:55:28.565Z</time></trkpt><trkpt lat="45.055465" lon="7.5859639"><ele>283.8</ele><time>2026-04-04T16:55:31.565Z</time></trkpt><trkpt lat="45.0554813" lon="7.5861299"><ele>284.2</ele><time>2026-04-04T16:55:33.565Z</time></trkpt><trkpt lat="45.0554885" lon="7.5862843"><ele>284.6</ele><time>2026-04-04T16:55:35.565Z</time></trkpt><trkpt lat="45.0554485" lon="7.5864381"><ele>285.0</ele><time>2026-04-04T16:55:37.566Z</time></trkpt><trkpt lat="45.0554205" lon="7.586526"><ele>286.0</ele><time>2026-04-04T16:55:38.565Z</time></trkpt><trkpt lat="45.055415" lon="7.5866344"><ele>287.0</ele><time>2026-04-04T16:55:39.566Z</time></trkpt><trkpt lat="45.0554327" lon="7.5867423"><ele>288.0</ele><time>2026-04-04T16:55:40.566Z</time></trkpt><trkpt lat="45.0554794" lon="7.5868462"><ele>289.0</ele><time>2026-04-04T16:55:41.565Z</time></trkpt><trkpt lat="45.0555585" lon="7.5869639"><ele>290.0</ele><time>2026-04-04T16:55:42.564Z</time></trkpt><trkpt lat="45.0556277" lon="7.5871088"><ele>286.33333333333337</ele><time>2026-04-04T16:55:43.565Z</time></trkpt><trkpt lat="45.0556849" lon="7.5873016"><ele>282.6666666666667</ele><time>2026-04-04T16:55:44.565Z</time></trkpt><trkpt lat="45.0557532" lon="7.5875356"><ele>279.0</ele><time>2026-04-04T16:55:45.566Z</time></trkpt><trkpt lat="45.0558319" lon="7.5877963"><ele>278.0</ele><time>2026-04-04T16:55:46.565Z</time></trkpt><trkpt lat="45.0559227" lon="7.5880796"><ele>277.0</ele><time>2026-04-04T16:55:47.565Z</time></trkpt><trkpt lat="45.0560232" lon="7.5883686"><ele>276.0</ele><time>2026-04-04T16:55:48.565Z</time></trkpt><trkpt lat="45.0561306" lon="7.5886411"><ele>276.6666666666667</ele><time>2026-04-04T16:55:49.565Z</time></trkpt><trkpt lat="45.056241" lon="7.5888903"><ele>277.33333333333337</ele><time>2026-04-04T16:55:50.565Z</time></trkpt><trkpt lat="45.0563547" lon="7.589113"><ele>278.0</ele><time>2026-04-04T16:55:51.565Z</time></trkpt><trkpt lat="45.0564692" lon="7.5893193"><ele>278.0</ele><time>2026-04-04T16:55:52.565Z</time></trkpt><trkpt lat="45.0565841" lon="7.5894958"><ele>278.0</ele><time>2026-04-04T16:55:53.565Z</time></trkpt><trkpt lat="45.0566919" lon="7.5896455"><ele>278.0</ele><time>2026-04-04T16:55:54.565Z</time></trkpt><trkpt lat="45.0567835" lon="7.5897926"><ele>279.5</ele><time>2026-04-04T16:55:55.566Z</time></trkpt><trkpt lat="45.0568418" lon="7.5899376"><ele>281.0</ele><time>2026-04-04T16:55:56.565Z</time></trkpt><trkpt lat="45.056868" lon="7.590088"><ele>282.5</ele><time>2026-04-04T16:55:57.565Z</time></trkpt><trkpt lat="45.056849" lon="7.5902469"><ele>284.0</ele><time>2026-04-04T16:55:58.564Z</time></trkpt><trkpt lat="45.0567853" lon="7.5904071"><ele>284.0</ele><time>2026-04-04T16:55:59.564Z</time></trkpt><trkpt lat="45.0567003" lon="7.5906001"><ele>284.0</ele><time>2026-04-04T16:56:00.565Z</time></trkpt><trkpt lat="45.056607" lon="7.5908032"><ele>284.0</ele><time>2026-04-04T16:56:01.565Z</time></trkpt><trkpt lat="45.0565104" lon="7.5910095"><ele>284.0</ele><time>2026-04-04T16:56:02.564Z</time></trkpt><trkpt lat="45.0564106" lon="7.5912186"><ele>284.0</ele><time>2026-04-04T16:56:03.565Z</time></trkpt><trkpt lat="45.0563155" lon="7.5914162"><ele>284.0</ele><time>2026-04-04T16:56:04.566Z</time></trkpt><trkpt lat="45.0562234" lon="7.5916034"><ele>284.0</ele><time>2026-04-04T16:56:05.565Z</time></trkpt><trkpt lat="45.0561359" lon="7.5917771"><ele>284.0</ele><time>2026-04-04T16:56:06.566Z</time></trkpt><trkpt lat="45.0560605" lon="7.5919255"><ele>284.0</ele><time>2026-04-04T16:56:07.565Z</time></trkpt><trkpt lat="45.055986" lon="7.592062"><ele>284.0</ele><time>2026-04-04T16:56:08.566Z</time></trkpt><trkpt lat="45.0559158" lon="7.5921911"><ele>283.5</ele><time>2026-04-04T16:56:09.566Z</time></trkpt><trkpt lat="45.0558362" lon="7.5923246"><ele>283.0</ele><time>2026-04-04T16:56:10.565Z</time></trkpt><trkpt lat="45.0557533" lon="7.5924596"><ele>282.5</ele><time>2026-04-04T16:56:11.566Z</time></trkpt><trkpt lat="45.0556728" lon="7.592594"><ele>282.0</ele><time>2026-04-04T16:56:12.565Z</time></trkpt><trkpt lat="45.0555951" lon="7.5927245"><ele>282.25</ele><time>2026-04-04T16:56:13.565Z</time></trkpt><trkpt lat="45.0555193" lon="7.5928565"><ele>282.5</ele><time>2026-04-04T16:56:14.565Z</time></trkpt><trkpt lat="45.0554437" lon="7.5929895"><ele>282.75</ele><time>2026-04-04T16:56:15.565Z</time></trkpt><trkpt lat="45.0553694" lon="7.5931178"><ele>283.0</ele><time>2026-04-04T16:56:16.565Z</time></trkpt><trkpt lat="45.0552952" lon="7.5932537"><ele>283.0</ele><time>2026-04-04T16:56:17.565Z</time></trkpt><trkpt lat="45.0552232" lon="7.593393"><ele>283.0</ele><time>2026-04-04T16:56:18.566Z</time></trkpt><trkpt lat="45.0551489" lon="7.5935294"><ele>283.0</ele><time>2026-04-04T16:56:19.566Z</time></trkpt><trkpt lat="45.055081" lon="7.5936672"><ele>283.0</ele><time>2026-04-04T16:56:20.564Z</time></trkpt><trkpt lat="45.0550148" lon="7.5938049"><ele>282.5</ele><time>2026-04-04T16:56:21.565Z</time></trkpt><trkpt lat="45.0549509" lon="7.5939421"><ele>282.0</ele><time>2026-04-04T16:56:22.565Z</time></trkpt><trkpt lat="45.0548869" lon="7.5940806"><ele>281.5</ele><time>2026-04-04T16:56:23.565Z</time></trkpt><trkpt lat="45.0548216" lon="7.5942189"><ele>281.0</ele><time>2026-04-04T16:56:24.564Z</time></trkpt><trkpt lat="45.0547578" lon="7.5943638"><ele>280.75</ele><time>2026-04-04T16:56:25.565Z</time></trkpt><trkpt lat="45.0546927" lon="7.5945106"><ele>280.5</ele><time>2026-04-04T16:56:26.565Z</time></trkpt><trkpt lat="45.0546298" lon="7.5946577"><ele>280.25</ele><time>2026-04-04T16:56:27.565Z</time></trkpt><trkpt lat="45.0545744" lon="7.5947943"><ele>280.0</ele><time>2026-04-04T16:56:28.565Z</time></trkpt><trkpt lat="45.054522" lon="7.5949269"><ele>280.0</ele><time>2026-04-04T16:56:29.566Z</time></trkpt><trkpt lat="45.0544717" lon="7.5950535"><ele>280.0</ele><time>2026-04-04T16:56:30.564Z</time></trkpt><trkpt lat="45.0544241" lon="7.5951809"><ele>280.0</ele><time>2026-04-04T16:56:31.565Z</time></trkpt><trkpt lat="45.0543728" lon="7.5953101"><ele>280.0</ele><time>2026-04-04T16:56:32.566Z</time></trkpt><trkpt lat="45.0543221" lon="7.5954412"><ele>280.0</ele><time>2026-04-04T16:56:33.565Z</time></trkpt><trkpt lat="45.0542709" lon="7.5955811"><ele>279.5</ele><time>2026-04-04T16:56:34.566Z</time></trkpt><trkpt lat="45.0542134" lon="7.5957188"><ele>279.0</ele><time>2026-04-04T16:56:35.565Z</time></trkpt><trkpt lat="45.0541537" lon="7.5958597"><ele>278.5</ele><time>2026-04-04T16:56:36.564Z</time></trkpt><trkpt lat="45.0540877" lon="7.5960059"><ele>278.0</ele><time>2026-04-04T16:56:37.566Z</time></trkpt><trkpt lat="45.05402" lon="7.5961574"><ele>278.5</ele><time>2026-04-04T16:56:38.565Z</time></trkpt><trkpt lat="45.0539521" lon="7.5963095"><ele>279.0</ele><time>2026-04-04T16:56:39.565Z</time></trkpt><trkpt lat="45.0538855" lon="7.5964579"><ele>279.5</ele><time>2026-04-04T16:56:40.565Z</time></trkpt><trkpt lat="45.0538208" lon="7.5965987"><ele>280.0</ele><time>2026-04-04T16:56:41.565Z</time></trkpt><trkpt lat="45.0537606" lon="7.5967295"><ele>280.0</ele><time>2026-04-04T16:56:42.565Z</time></trkpt><trkpt lat="45.0537022" lon="7.5968589"><ele>280.0</ele><time>2026-04-04T16:56:43.565Z</time></trkpt><trkpt lat="45.0536464" lon="7.5969979"><ele>280.0</ele><time>2026-04-04T16:56:44.565Z</time></trkpt><trkpt lat="45.0535921" lon="7.5971428"><ele>280.0</ele><time>2026-04-04T16:56:45.566Z</time></trkpt><trkpt lat="45.0535367" lon="7.5972918"><ele>279.5</ele><time>2026-04-04T16:56:46.564Z</time></trkpt><trkpt lat="45.0534814" lon="7.5974423"><ele>279.0</ele><time>2026-04-04T16:56:47.564Z</time></trkpt><trkpt lat="45.0534298" lon="7.5975866"><ele>278.5</ele><time>2026-04-04T16:56:48.564Z</time></trkpt><trkpt lat="45.0533805" lon="7.597726"><ele>278.0</ele><time>2026-04-04T16:56:49.565Z</time></trkpt><trkpt lat="45.0533286" lon="7.5978665"><ele>278.0</ele><time>2026-04-04T16:56:50.564Z</time></trkpt><trkpt lat="45.0532777" lon="7.5980074"><ele>278.0</ele><time>2026-04-04T16:56:51.564Z</time></trkpt><trkpt lat="45.0532257" lon="7.598152"><ele>278.0</ele><time>2026-04-04T16:56:52.565Z</time></trkpt><trkpt lat="45.0531731" lon="7.5982898"><ele>278.0</ele><time>2026-04-04T16:56:53.563Z</time></trkpt><trkpt lat="45.0531229" lon="7.5984225"><ele>278.0</ele><time>2026-04-04T16:56:54.564Z</time></trkpt><trkpt lat="45.0530713" lon="7.5985541"><ele>278.0</ele><time>2026-04-04T16:56:55.564Z</time></trkpt><trkpt lat="45.0530197" lon="7.5986871"><ele>278.0</ele><time>2026-04-04T16:56:56.564Z</time></trkpt><trkpt lat="45.0529671" lon="7.5988146"><ele>278.0</ele><time>2026-04-04T16:56:57.565Z</time></trkpt><trkpt lat="45.0529142" lon="7.598939"><ele>278.0</ele><time>2026-04-04T16:56:58.563Z</time></trkpt><trkpt lat="45.0528622" lon="7.5990564"><ele>278.0</ele><time>2026-04-04T16:56:59.564Z</time></trkpt><trkpt lat="45.0528098" lon="7.599165"><ele>278.0</ele><time>2026-04-04T16:57:00.565Z</time></trkpt><trkpt lat="45.0527562" lon="7.5992692"><ele>278.0</ele><time>2026-04-04T16:57:01.564Z</time></trkpt><trkpt lat="45.0527022" lon="7.5993732"><ele>278.0</ele><time>2026-04-04T16:57:02.563Z</time></trkpt><trkpt lat="45.0526411" lon="7.5994711"><ele>278.0</ele><time>2026-04-04T16:57:03.564Z</time></trkpt><trkpt lat="45.0525781" lon="7.5995756"><ele>278.0</ele><time>2026-04-04T16:57:04.565Z</time></trkpt><trkpt lat="45.05251" lon="7.5996746"><ele>277.25</ele><time>2026-04-04T16:57:05.564Z</time></trkpt><trkpt lat="45.0524261" lon="7.5997996"><ele>276.5</ele><time>2026-04-04T16:57:06.564Z</time></trkpt><trkpt lat="45.052333" lon="7.5999199"><ele>275.75</ele><time>2026-04-04T16:57:07.563Z</time></trkpt><trkpt lat="45.0522508" lon="7.6000214"><ele>275.0</ele><time>2026-04-04T16:57:08.564Z</time></trkpt><trkpt lat="45.0521657" lon="7.6001261"><ele>275.0</ele><time>2026-04-04T16:57:09.564Z</time></trkpt><trkpt lat="45.0520868" lon="7.6002338"><ele>275.0</ele><time>2026-04-04T16:57:10.564Z</time></trkpt><trkpt lat="45.0520078" lon="7.6003356"><ele>275.0</ele><time>2026-04-04T16:57:11.564Z</time></trkpt><trkpt lat="45.0519355" lon="7.6003992"><ele>275.0</ele><time>2026-04-04T16:57:12.565Z</time></trkpt><trkpt lat="45.0518799" lon="7.6004431"><ele>275.0</ele><time>2026-04-04T16:57:14.565Z</time></trkpt><trkpt lat="45.0517728" lon="7.6005621"><ele>274.5</ele><time>2026-04-04T16:58:58.564Z</time></trkpt><trkpt lat="45.0516819" lon="7.6006562"><ele>274.0</ele><time>2026-04-04T16:58:59.565Z</time></trkpt><trkpt lat="45.051579" lon="7.6007596"><ele>273.5</ele><time>2026-04-04T16:59:00.564Z</time></trkpt><trkpt lat="45.0514581" lon="7.6008769"><ele>273.0</ele><time>2026-04-04T16:59:01.564Z</time></trkpt><trkpt lat="45.0513268" lon="7.6010112"><ele>273.0</ele><time>2026-04-04T16:59:02.564Z</time></trkpt><trkpt lat="45.0511875" lon="7.6011604"><ele>273.0</ele><time>2026-04-04T16:59:03.564Z</time></trkpt><trkpt lat="45.0510393" lon="7.6013134"><ele>273.0</ele><time>2026-04-04T16:59:04.564Z</time></trkpt><trkpt lat="45.0508862" lon="7.6014704"><ele>273.3333333333333</ele><time>2026-04-04T16:59:05.564Z</time></trkpt><trkpt lat="45.050731" lon="7.6016335"><ele>273.66666666666663</ele><time>2026-04-04T16:59:06.565Z</time></trkpt><trkpt lat="45.0505684" lon="7.6017993"><ele>274.0</ele><time>2026-04-04T16:59:07.564Z</time></trkpt><trkpt lat="45.0502265" lon="7.6021495"><ele>273.3333333333333</ele><time>2026-04-04T16:59:09.565Z</time></trkpt><trkpt lat="45.0500513" lon="7.6023345"><ele>272.6666666666667</ele><time>2026-04-04T16:59:10.564Z</time></trkpt><trkpt lat="45.0498733" lon="7.6025235"><ele>272.0</ele><time>2026-04-04T16:59:11.564Z</time></trkpt><trkpt lat="45.049695" lon="7.6027115"><ele>273.0</ele><time>2026-04-04T16:59:12.564Z</time></trkpt><trkpt lat="45.0495126" lon="7.6029031"><ele>274.0</ele><time>2026-04-04T16:59:13.564Z</time></trkpt><trkpt lat="45.0493284" lon="7.6031009"><ele>274.0</ele><time>2026-04-04T16:59:14.564Z</time></trkpt><trkpt lat="45.0491419" lon="7.6033065"><ele>274.0</ele><time>2026-04-04T16:59:15.563Z</time></trkpt><trkpt lat="45.0489584" lon="7.6035304"><ele>273.5</ele><time>2026-04-04T16:59:16.564Z</time></trkpt><trkpt lat="45.0487851" lon="7.6037741"><ele>273.0</ele><time>2026-04-04T16:59:17.565Z</time></trkpt><trkpt lat="45.0486256" lon="7.6040399"><ele>273.0</ele><time>2026-04-04T16:59:18.565Z</time></trkpt><trkpt lat="45.0484716" lon="7.6043327"><ele>273.0</ele><time>2026-04-04T16:59:19.565Z</time></trkpt><trkpt lat="45.0483187" lon="7.6046417"><ele>271.5</ele><time>2026-04-04T16:59:20.564Z</time></trkpt><trkpt lat="45.0481698" lon="7.6049492"><ele>270.0</ele><time>2026-04-04T16:59:21.564Z</time></trkpt><trkpt lat="45.0480245" lon="7.6052635"><ele>269.5</ele><time>2026-04-04T16:59:22.564Z</time></trkpt><trkpt lat="45.047879" lon="7.6055809"><ele>269.0</ele><time>2026-04-04T16:59:23.565Z</time></trkpt><trkpt lat="45.0477306" lon="7.6059054"><ele>269.5</ele><time>2026-04-04T16:59:24.564Z</time></trkpt><trkpt lat="45.0475827" lon="7.6062256"><ele>270.0</ele><time>2026-04-04T16:59:25.564Z</time></trkpt><trkpt lat="45.0474353" lon="7.6065419"><ele>270.0</ele><time>2026-04-04T16:59:26.563Z</time></trkpt><trkpt lat="45.0472969" lon="7.6068501"><ele>270.0</ele><time>2026-04-04T16:59:27.564Z</time></trkpt><trkpt lat="45.0471626" lon="7.607157"><ele>270.0</ele><time>2026-04-04T16:59:28.565Z</time></trkpt><trkpt lat="45.0470347" lon="7.6074648"><ele>270.0</ele><time>2026-04-04T16:59:29.564Z</time></trkpt><trkpt lat="45.0469212" lon="7.6077742"><ele>268.5</ele><time>2026-04-04T16:59:30.565Z</time></trkpt><trkpt lat="45.0468179" lon="7.6080735"><ele>267.0</ele><time>2026-04-04T16:59:31.565Z</time></trkpt><trkpt lat="45.0467228" lon="7.6083682"><ele>267.0</ele><time>2026-04-04T16:59:32.564Z</time></trkpt><trkpt lat="45.0466336" lon="7.6086562"><ele>267.0</ele><time>2026-04-04T16:59:33.564Z</time></trkpt><trkpt lat="45.0465476" lon="7.6089383"><ele>267.0</ele><time>2026-04-04T16:59:34.565Z</time></trkpt><trkpt lat="45.0464643" lon="7.6092124"><ele>267.3333333333333</ele><time>2026-04-04T16:59:35.565Z</time></trkpt><trkpt lat="45.0463831" lon="7.609486"><ele>267.66666666666663</ele><time>2026-04-04T16:59:36.564Z</time></trkpt><trkpt lat="45.0463061" lon="7.6097524"><ele>268.0</ele><time>2026-04-04T16:59:37.564Z</time></trkpt><trkpt lat="45.0462298" lon="7.6100191"><ele>268.0</ele><time>2026-04-04T16:59:38.565Z</time></trkpt><trkpt lat="45.0461512" lon="7.6102803"><ele>268.0</ele><time>2026-04-04T16:59:39.565Z</time></trkpt><trkpt lat="45.0460807" lon="7.6105354"><ele>268.0</ele><time>2026-04-04T16:59:40.563Z</time></trkpt><trkpt lat="45.0460105" lon="7.6107776"><ele>268.0</ele><time>2026-04-04T16:59:41.564Z</time></trkpt><trkpt lat="45.0459439" lon="7.6110098"><ele>268.0</ele><time>2026-04-04T16:59:42.565Z</time></trkpt><trkpt lat="45.045884" lon="7.6112367"><ele>268.0</ele><time>2026-04-04T16:59:43.564Z</time></trkpt><trkpt lat="45.0458331" lon="7.6114622"><ele>268.66666666666663</ele><time>2026-04-04T16:59:44.564Z</time></trkpt><trkpt lat="45.0457894" lon="7.6116802"><ele>269.3333333333333</ele><time>2026-04-04T16:59:45.564Z</time></trkpt><trkpt lat="45.045749" lon="7.6118864"><ele>270.0</ele><time>2026-04-04T16:59:46.565Z</time></trkpt><trkpt lat="45.0457079" lon="7.6120858"><ele>270.0</ele><time>2026-04-04T16:59:47.563Z</time></trkpt><trkpt lat="45.045666" lon="7.6122791"><ele>270.0</ele><time>2026-04-04T16:59:48.564Z</time></trkpt><trkpt lat="45.0456301" lon="7.6124734"><ele>270.0</ele><time>2026-04-04T16:59:49.565Z</time></trkpt><trkpt lat="45.0455958" lon="7.612672"><ele>270.0</ele><time>2026-04-04T16:59:50.564Z</time></trkpt><trkpt lat="45.0455641" lon="7.6128711"><ele>269.25</ele><time>2026-04-04T16:59:51.564Z</time></trkpt><trkpt lat="45.0455259" lon="7.6130713"><ele>268.5</ele><time>2026-04-04T16:59:52.565Z</time></trkpt><trkpt lat="45.0454865" lon="7.6132698"><ele>267.75</ele><time>2026-04-04T16:59:53.565Z</time></trkpt><trkpt lat="45.0454437" lon="7.6134616"><ele>267.0</ele><time>2026-04-04T16:59:54.563Z</time></trkpt><trkpt lat="45.0454027" lon="7.613648"><ele>266.75</ele><time>2026-04-04T16:59:55.564Z</time></trkpt><trkpt lat="45.0453624" lon="7.613833"><ele>266.5</ele><time>2026-04-04T16:59:56.563Z</time></trkpt><trkpt lat="45.0453278" lon="7.6140248"><ele>266.25</ele><time>2026-04-04T16:59:57.564Z</time></trkpt><trkpt lat="45.0452949" lon="7.6142264"><ele>266.0</ele><time>2026-04-04T16:59:58.564Z</time></trkpt><trkpt lat="45.0452605" lon="7.6144306"><ele>266.0</ele><time>2026-04-04T16:59:59.564Z</time></trkpt><trkpt lat="45.0452165" lon="7.614625"><ele>266.0</ele><time>2026-04-04T17:00:00.562Z</time></trkpt><trkpt lat="45.0451749" lon="7.6148014"><ele>266.0</ele><time>2026-04-04T17:00:01.563Z</time></trkpt><trkpt lat="45.045134" lon="7.6149663"><ele>266.0</ele><time>2026-04-04T17:00:02.563Z</time></trkpt><trkpt lat="45.0451004" lon="7.61512"><ele>266.0</ele><time>2026-04-04T17:00:03.563Z</time></trkpt><trkpt lat="45.0450676" lon="7.6152621"><ele>266.0</ele><time>2026-04-04T17:00:04.563Z</time></trkpt><trkpt lat="45.0450429" lon="7.615376"><ele>266.0</ele><time>2026-04-04T17:00:05.563Z</time></trkpt><trkpt lat="45.0450233" lon="7.6154619"><ele>266.0</ele><time>2026-04-04T17:00:06.564Z</time></trkpt><trkpt lat="45.045001" lon="7.6155473"><ele>266.0</ele><time>2026-04-04T17:00:18.563Z</time></trkpt><trkpt lat="45.0449694" lon="7.6156404"><ele>266.0</ele><time>2026-04-04T17:00:22.563Z</time></trkpt><trkpt lat="45.044898" lon="7.6157389"><ele>266.0</ele><time>2026-04-04T17:00:30.564Z</time></trkpt><trkpt lat="45.044902" lon="7.6158893"><ele>266.0</ele><time>2026-04-04T17:00:32.564Z</time></trkpt><trkpt lat="45.0450009" lon="7.6159131"><ele>266.0</ele><time>2026-04-04T17:00:34.563Z</time></trkpt><trkpt lat="45.045066" lon="7.6158597"><ele>266.0</ele><time>2026-04-04T17:00:35.563Z</time></trkpt><trkpt lat="45.0451641" lon="7.6158149"><ele>266.0</ele><time>2026-04-04T17:00:36.563Z</time></trkpt><trkpt lat="45.0452893" lon="7.6158065"><ele>266.0</ele><time>2026-04-04T17:00:37.563Z</time></trkpt><trkpt lat="45.0454436" lon="7.6158119"><ele>266.0</ele><time>2026-04-04T17:00:38.563Z</time></trkpt><trkpt lat="45.045619" lon="7.6158236"><ele>266.0</ele><time>2026-04-04T17:00:39.562Z</time></trkpt><trkpt lat="45.0457793" lon="7.6158298"><ele>266.0</ele><time>2026-04-04T17:00:40.563Z</time></trkpt><trkpt lat="45.0459282" lon="7.6158423"><ele>266.0</ele><time>2026-04-04T17:00:41.563Z</time></trkpt><trkpt lat="45.0460668" lon="7.6158673"><ele>266.0</ele><time>2026-04-04T17:00:42.562Z</time></trkpt><trkpt lat="45.0461952" lon="7.6158965"><ele>266.0</ele><time>2026-04-04T17:00:43.562Z</time></trkpt><trkpt lat="45.0463111" lon="7.6159237"><ele>266.0</ele><time>2026-04-04T17:00:44.564Z</time></trkpt><trkpt lat="45.0464056" lon="7.615968"><ele>266.0</ele><time>2026-04-04T17:00:45.564Z</time></trkpt><trkpt lat="45.046478" lon="7.6160502"><ele>266.0</ele><time>2026-04-04T17:00:46.564Z</time></trkpt><trkpt lat="45.0465257" lon="7.6161698"><ele>266.0</ele><time>2026-04-04T17:00:47.563Z</time></trkpt><trkpt lat="45.046547" lon="7.6163178"><ele>266.0</ele><time>2026-04-04T17:00:48.562Z</time></trkpt><trkpt lat="45.0465447" lon="7.6164988"><ele>266.33333333333337</ele><time>2026-04-04T17:00:49.564Z</time></trkpt><trkpt lat="45.0465409" lon="7.6167013"><ele>266.6666666666667</ele><time>2026-04-04T17:00:50.564Z</time></trkpt><trkpt lat="45.0465353" lon="7.6169152"><ele>267.0</ele><time>2026-04-04T17:00:51.564Z</time></trkpt><trkpt lat="45.0465308" lon="7.6171456"><ele>267.0</ele><time>2026-04-04T17:00:52.563Z</time></trkpt><trkpt lat="45.0465183" lon="7.617381"><ele>267.0</ele><time>2026-04-04T17:00:53.564Z</time></trkpt><trkpt lat="45.0465076" lon="7.6176299"><ele>267.0</ele><time>2026-04-04T17:00:54.564Z</time></trkpt><trkpt lat="45.0464979" lon="7.6178813"><ele>266.3333333333333</ele><time>2026-04-04T17:00:55.563Z</time></trkpt><trkpt lat="45.0464886" lon="7.6181373"><ele>265.66666666666663</ele><time>2026-04-04T17:00:56.563Z</time></trkpt><trkpt lat="45.0464784" lon="7.6183895"><ele>265.0</ele><time>2026-04-04T17:00:57.562Z</time></trkpt><trkpt lat="45.0464685" lon="7.6186295"><ele>264.66666666666663</ele><time>2026-04-04T17:00:58.562Z</time></trkpt><trkpt lat="45.0464591" lon="7.6188631"><ele>264.3333333333333</ele><time>2026-04-04T17:00:59.563Z</time></trkpt><trkpt lat="45.0464492" lon="7.6190738"><ele>264.0</ele><time>2026-04-04T17:01:00.563Z</time></trkpt><trkpt lat="45.0464416" lon="7.6192709"><ele>264.0</ele><time>2026-04-04T17:01:01.562Z</time></trkpt><trkpt lat="45.0464316" lon="7.6194463"><ele>264.0</ele><time>2026-04-04T17:01:02.563Z</time></trkpt><trkpt lat="45.0464205" lon="7.6196138"><ele>264.0</ele><time>2026-04-04T17:01:03.562Z</time></trkpt><trkpt lat="45.0464098" lon="7.6197564"><ele>264.0</ele><time>2026-04-04T17:01:04.563Z</time></trkpt><trkpt lat="45.0463947" lon="7.6198661"><ele>264.0</ele><time>2026-04-04T17:01:05.563Z</time></trkpt><trkpt lat="45.0463735" lon="7.6199815"><ele>264.0</ele><time>2026-04-04T17:01:07.563Z</time></trkpt><trkpt lat="45.0463803" lon="7.620105"><ele>264.0</ele><time>2026-04-04T17:01:10.564Z</time></trkpt><trkpt lat="45.0465123" lon="7.620193"><ele>264.0</ele><time>2026-04-04T17:01:12.563Z</time></trkpt><trkpt lat="45.0467016" lon="7.6202229"><ele>264.0</ele><time>2026-04-04T17:01:14.564Z</time></trkpt><trkpt lat="45.0467821" lon="7.6202382"><ele>264.2</ele><time>2026-04-04T17:01:15.563Z</time></trkpt><trkpt lat="45.0468488" lon="7.6202877"><ele>264.4</ele><time>2026-04-04T17:01:16.563Z</time></trkpt><trkpt lat="45.0468717" lon="7.6204719"><ele>264.6</ele><time>2026-04-04T17:01:18.562Z</time></trkpt><trkpt lat="45.0468441" lon="7.6205864"><ele>264.8</ele><time>2026-04-04T17:01:19.563Z</time></trkpt><trkpt lat="45.046809" lon="7.6207148"><ele>265.0</ele><time>2026-04-04T17:01:20.563Z</time></trkpt><trkpt lat="45.0467755" lon="7.6208414"><ele>265.16666666666663</ele><time>2026-04-04T17:01:21.563Z</time></trkpt><trkpt lat="45.0467499" lon="7.6209548"><ele>265.3333333333333</ele><time>2026-04-04T17:01:22.562Z</time></trkpt><trkpt lat="45.0467459" lon="7.6210687"><ele>265.5</ele><time>2026-04-04T17:01:23.562Z</time></trkpt><trkpt lat="45.046783" lon="7.6211646"><ele>265.6666666666667</ele><time>2026-04-04T17:01:24.562Z</time></trkpt><trkpt lat="45.0468105" lon="7.6212498"><ele>265.83333333333337</ele><time>2026-04-04T17:01:25.564Z</time></trkpt><trkpt lat="45.0469401" lon="7.6212693"><ele>266.0</ele><time>2026-04-04T17:01:26.562Z</time></trkpt><trkpt lat="45.0470503" lon="7.6213124"><ele>266.0</ele><time>2026-04-04T17:01:27.563Z</time></trkpt><trkpt lat="45.0471988" lon="7.6213928"><ele>266.0</ele><time>2026-04-04T17:01:28.562Z</time></trkpt><trkpt lat="45.0473527" lon="7.6215125"><ele>266.0</ele><time>2026-04-04T17:01:29.564Z</time></trkpt><trkpt lat="45.0475023" lon="7.6216178"><ele>266.0</ele><time>2026-04-04T17:01:30.564Z</time></trkpt><trkpt lat="45.0476417" lon="7.6217083"><ele>266.0</ele><time>2026-04-04T17:01:31.564Z</time></trkpt><trkpt lat="45.0477595" lon="7.6217882"><ele>266.0</ele><time>2026-04-04T17:01:32.563Z</time></trkpt><trkpt lat="45.0478948" lon="7.6218569"><ele>266.0</ele><time>2026-04-04T17:01:33.563Z</time></trkpt><trkpt lat="45.0480624" lon="7.6219448"><ele>265.6666666666667</ele><time>2026-04-04T17:01:34.562Z</time></trkpt><trkpt lat="45.0482511" lon="7.6220783"><ele>265.3333333333333</ele><time>2026-04-04T17:01:35.563Z</time></trkpt><trkpt lat="45.0484688" lon="7.6222069"><ele>265.0</ele><time>2026-04-04T17:01:36.564Z</time></trkpt><trkpt lat="45.0486758" lon="7.6223307"><ele>264.66666666666663</ele><time>2026-04-04T17:01:37.563Z</time></trkpt><trkpt lat="45.0488658" lon="7.6224487"><ele>264.3333333333333</ele><time>2026-04-04T17:01:38.563Z</time></trkpt><trkpt lat="45.0490456" lon="7.6225573"><ele>264.0</ele><time>2026-04-04T17:01:39.563Z</time></trkpt><trkpt lat="45.049209" lon="7.6226552"><ele>264.25</ele><time>2026-04-04T17:01:40.564Z</time></trkpt><trkpt lat="45.0493555" lon="7.6227452"><ele>264.5</ele><time>2026-04-04T17:01:41.563Z</time></trkpt><trkpt lat="45.0494891" lon="7.6228247"><ele>264.75</ele><time>2026-04-04T17:01:42.563Z</time></trkpt><trkpt lat="45.049598" lon="7.6228924"><ele>265.0</ele><time>2026-04-04T17:01:43.564Z</time></trkpt><trkpt lat="45.0496958" lon="7.6229802"><ele>265.0</ele><time>2026-04-04T17:01:44.564Z</time></trkpt><trkpt lat="45.0496883" lon="7.6230865"><ele>265.0</ele><time>2026-04-04T17:01:45.563Z</time></trkpt><trkpt lat="45.0496818" lon="7.6232045"><ele>265.0</ele><time>2026-04-04T17:01:46.562Z</time></trkpt><trkpt lat="45.0496358" lon="7.6233535"><ele>265.0</ele><time>2026-04-04T17:01:47.563Z</time></trkpt><trkpt lat="45.0495885" lon="7.6235327"><ele>265.0</ele><time>2026-04-04T17:01:48.564Z</time></trkpt><trkpt lat="45.0495421" lon="7.623724"><ele>265.0</ele><time>2026-04-04T17:01:49.564Z</time></trkpt><trkpt lat="45.0495011" lon="7.6239114"><ele>265.0</ele><time>2026-04-04T17:01:50.564Z</time></trkpt><trkpt lat="45.0494583" lon="7.6240887"><ele>265.0</ele><time>2026-04-04T17:01:51.563Z</time></trkpt><trkpt lat="45.0494177" lon="7.6242484"><ele>265.0</ele><time>2026-04-04T17:01:52.563Z</time></trkpt><trkpt lat="45.0493768" lon="7.6243955"><ele>265.0</ele><time>2026-04-04T17:01:53.563Z</time></trkpt><trkpt lat="45.0493395" lon="7.6245256"><ele>265.0</ele><time>2026-04-04T17:01:54.562Z</time></trkpt><trkpt lat="45.0493235" lon="7.6246343"><ele>265.0</ele><time>2026-04-04T17:01:55.564Z</time></trkpt><trkpt lat="45.0493455" lon="7.6247275"><ele>265.0</ele><time>2026-04-04T17:01:56.563Z</time></trkpt><trkpt lat="45.0494085" lon="7.62478"><ele>265.0</ele><time>2026-04-04T17:01:57.563Z</time></trkpt><trkpt lat="45.0494829" lon="7.624797"><ele>265.0</ele><time>2026-04-04T17:01:58.563Z</time></trkpt><trkpt lat="45.049581" lon="7.6248321"><ele>265.0</ele><time>2026-04-04T17:01:59.563Z</time></trkpt><trkpt lat="45.0496878" lon="7.6248799"><ele>265.0</ele><time>2026-04-04T17:02:00.562Z</time></trkpt><trkpt lat="45.049792" lon="7.6249133"><ele>265.0</ele><time>2026-04-04T17:02:01.564Z</time></trkpt><trkpt lat="45.049895" lon="7.6249504"><ele>265.0</ele><time>2026-04-04T17:02:02.564Z</time></trkpt><trkpt lat="45.0499933" lon="7.624986"><ele>265.0</ele><time>2026-04-04T17:02:03.563Z</time></trkpt><trkpt lat="45.0500842" lon="7.6250193"><ele>264.8</ele><time>2026-04-04T17:02:04.563Z</time></trkpt><trkpt lat="45.0501666" lon="7.6251508"><ele>264.6</ele><time>2026-04-04T17:02:06.564Z</time></trkpt><trkpt lat="45.0501699" lon="7.6252664"><ele>264.4</ele><time>2026-04-04T17:02:07.563Z</time></trkpt><trkpt lat="45.0501606" lon="7.6254043"><ele>264.2</ele><time>2026-04-04T17:02:08.563Z</time></trkpt><trkpt lat="45.050159" lon="7.625539"><ele>264.0</ele><time>2026-04-04T17:02:09.562Z</time></trkpt><trkpt lat="45.0501574" lon="7.6256728"><ele>264.0</ele><time>2026-04-04T17:02:10.563Z</time></trkpt><trkpt lat="45.0501574" lon="7.6257957"><ele>264.0</ele><time>2026-04-04T17:02:11.564Z</time></trkpt><trkpt lat="45.0501133" lon="7.6259039"><ele>264.0</ele><time>2026-04-04T17:02:13.563Z</time></trkpt><trkpt lat="45.050045" lon="7.6258968"><ele>264.0</ele><time>2026-04-04T17:03:14.563Z</time></trkpt><trkpt lat="45.0499776" lon="7.6259103"><ele>264.0</ele><time>2026-04-04T17:03:20.564Z</time></trkpt></trkseg></trk></gpx>